<?xml version="1.0" encoding="UTF-8" standalone="no" ?>
<gpx xmlns="http://www.topografix.com/GPX/1/1" xmlns:xsi="http://www.w3.org/2001/XMLSchema-instance" xsi:schemaLocation="http://www.topografix.com/GPX/1/1 http://www.topografix.com/GPX/1/1/gpx.xsd" version="1.1" creator="VisuGPX - https://www.visugpx.com">
  <metadata>
    <name>Nord-Saint-Sauveur-Montjoire 01-08-2022</name>
  </metadata>
  <trk>
    <name><![CDATA[Nord-Saint-Sauveur-Montjoire 01-08-2022]]></name>
    <extensions>
      <line xmlns="http://www.topografix.com/GPX/gpx_style/0/2">
        <color>0000FF</color>
        <width>4</width>
          <extensions>
            <sens>1</sens>
          </extensions>
      </line>
    </extensions>
    <trkseg>
      <trkpt lat="43.65582" lon="1.44612">
        <ele>183.947152</ele>
        <time>2022-07-31T12:25:48.441Z</time>
      </trkpt>
      <trkpt lat="43.65596" lon="1.44622">
        <ele>183.947152</ele>
        <time>2022-07-31T12:27:09.861Z</time>
      </trkpt>
      <trkpt lat="43.65605" lon="1.44626">
        <ele>183.947152</ele>
        <time>2022-07-31T12:27:13.851Z</time>
      </trkpt>
      <trkpt lat="43.65609" lon="1.44639">
        <ele>183.947152</ele>
        <time>2022-07-31T12:27:18.874Z</time>
      </trkpt>
      <trkpt lat="43.65608" lon="1.44653">
        <ele>183.947152</ele>
        <time>2022-07-31T12:27:21.874Z</time>
      </trkpt>
      <trkpt lat="43.65604" lon="1.44668">
        <ele>183.947152</ele>
        <time>2022-07-31T12:27:24.847Z</time>
      </trkpt>
      <trkpt lat="43.65597" lon="1.44683">
        <ele>183.947152</ele>
        <time>2022-07-31T12:27:27.873Z</time>
      </trkpt>
      <trkpt lat="43.65592" lon="1.44694">
        <ele>183.947152</ele>
        <time>2022-07-31T12:27:29.841Z</time>
      </trkpt>
      <trkpt lat="43.65586" lon="1.44706">
        <ele>183.947152</ele>
        <time>2022-07-31T12:27:31.864Z</time>
      </trkpt>
      <trkpt lat="43.6558" lon="1.44717">
        <ele>183.916565</ele>
        <time>2022-07-31T12:27:33.867Z</time>
      </trkpt>
      <trkpt lat="43.65575" lon="1.44728">
        <ele>183.884621</ele>
        <time>2022-07-31T12:27:35.846Z</time>
      </trkpt>
      <trkpt lat="43.65569" lon="1.44739">
        <ele>183.851563</ele>
        <time>2022-07-31T12:27:37.858Z</time>
      </trkpt>
      <trkpt lat="43.65562" lon="1.4475">
        <ele>183.818571</ele>
        <time>2022-07-31T12:27:39.861Z</time>
      </trkpt>
      <trkpt lat="43.65555" lon="1.44762">
        <ele>183.784564</ele>
        <time>2022-07-31T12:27:41.860Z</time>
      </trkpt>
      <trkpt lat="43.65549" lon="1.44774">
        <ele>183.751291</ele>
        <time>2022-07-31T12:27:43.864Z</time>
      </trkpt>
      <trkpt lat="43.65544" lon="1.44786">
        <ele>183.718237</ele>
        <time>2022-07-31T12:27:45.871Z</time>
      </trkpt>
      <trkpt lat="43.65537" lon="1.44798">
        <ele>183.684629</ele>
        <time>2022-07-31T12:27:47.852Z</time>
      </trkpt>
      <trkpt lat="43.6553" lon="1.44808">
        <ele>183.650519</ele>
        <time>2022-07-31T12:27:49.843Z</time>
      </trkpt>
      <trkpt lat="43.65522" lon="1.44817">
        <ele>183.617911</ele>
        <time>2022-07-31T12:27:51.868Z</time>
      </trkpt>
      <trkpt lat="43.65516" lon="1.44828">
        <ele>183.585203</ele>
        <time>2022-07-31T12:27:53.863Z</time>
      </trkpt>
      <trkpt lat="43.65511" lon="1.44841">
        <ele>183.552535</ele>
        <time>2022-07-31T12:27:55.855Z</time>
      </trkpt>
      <trkpt lat="43.65507" lon="1.44854">
        <ele>183.519251</ele>
        <time>2022-07-31T12:27:57.871Z</time>
      </trkpt>
      <trkpt lat="43.65502" lon="1.44868">
        <ele>183.485119</ele>
        <time>2022-07-31T12:27:59.866Z</time>
      </trkpt>
      <trkpt lat="43.65496" lon="1.44879">
        <ele>183.451511</ele>
        <time>2022-07-31T12:28:01.869Z</time>
      </trkpt>
      <trkpt lat="43.6549" lon="1.44891">
        <ele>183.419198</ele>
        <time>2022-07-31T12:28:03.884Z</time>
      </trkpt>
      <trkpt lat="43.65485" lon="1.44902">
        <ele>183.387264</ele>
        <time>2022-07-31T12:28:05.872Z</time>
      </trkpt>
      <trkpt lat="43.6548" lon="1.44914">
        <ele>183.376542</ele>
        <time>2022-07-31T12:28:07.871Z</time>
      </trkpt>
      <trkpt lat="43.65476" lon="1.44927">
        <ele>183.380509</ele>
        <time>2022-07-31T12:28:09.856Z</time>
      </trkpt>
      <trkpt lat="43.65476" lon="1.44942">
        <ele>183.384702</ele>
        <time>2022-07-31T12:28:11.868Z</time>
      </trkpt>
      <trkpt lat="43.65482" lon="1.44952">
        <ele>183.388612</ele>
        <time>2022-07-31T12:28:13.867Z</time>
      </trkpt>
      <trkpt lat="43.65488" lon="1.44963">
        <ele>183.392596</ele>
        <time>2022-07-31T12:28:15.871Z</time>
      </trkpt>
      <trkpt lat="43.65494" lon="1.44973">
        <ele>183.396382</ele>
        <time>2022-07-31T12:28:17.892Z</time>
      </trkpt>
      <trkpt lat="43.65501" lon="1.44982">
        <ele>183.400055</ele>
        <time>2022-07-31T12:28:19.867Z</time>
      </trkpt>
      <trkpt lat="43.65508" lon="1.44991">
        <ele>183.403908</ele>
        <time>2022-07-31T12:28:21.864Z</time>
      </trkpt>
      <trkpt lat="43.65515" lon="1.45">
        <ele>183.407617</ele>
        <time>2022-07-31T12:28:23.827Z</time>
      </trkpt>
      <trkpt lat="43.65521" lon="1.45009">
        <ele>183.41131</ele>
        <time>2022-07-31T12:28:25.867Z</time>
      </trkpt>
      <trkpt lat="43.65527" lon="1.4502">
        <ele>183.415083</ele>
        <time>2022-07-31T12:28:27.874Z</time>
      </trkpt>
      <trkpt lat="43.65534" lon="1.45028">
        <ele>183.418823</ele>
        <time>2022-07-31T12:28:29.869Z</time>
      </trkpt>
      <trkpt lat="43.65541" lon="1.45036">
        <ele>183.422424</ele>
        <time>2022-07-31T12:28:31.857Z</time>
      </trkpt>
      <trkpt lat="43.65548" lon="1.45045">
        <ele>183.42618</ele>
        <time>2022-07-31T12:28:33.871Z</time>
      </trkpt>
      <trkpt lat="43.65555" lon="1.45055">
        <ele>183.43019</ele>
        <time>2022-07-31T12:28:35.861Z</time>
      </trkpt>
      <trkpt lat="43.65562" lon="1.45065">
        <ele>183.434138</ele>
        <time>2022-07-31T12:28:37.878Z</time>
      </trkpt>
      <trkpt lat="43.6557" lon="1.45076">
        <ele>183.438623</ele>
        <time>2022-07-31T12:28:40.874Z</time>
      </trkpt>
      <trkpt lat="43.65579" lon="1.45087">
        <ele>183.443459</ele>
        <time>2022-07-31T12:28:43.863Z</time>
      </trkpt>
      <trkpt lat="43.65588" lon="1.45101">
        <ele>183.432167</ele>
        <time>2022-07-31T12:28:46.866Z</time>
      </trkpt>
      <trkpt lat="43.65595" lon="1.4511">
        <ele>183.415455</ele>
        <time>2022-07-31T12:28:48.864Z</time>
      </trkpt>
      <trkpt lat="43.65601" lon="1.45121">
        <ele>183.398318</ele>
        <time>2022-07-31T12:28:50.874Z</time>
      </trkpt>
      <trkpt lat="43.65603" lon="1.45135">
        <ele>183.380424</ele>
        <time>2022-07-31T12:28:52.882Z</time>
      </trkpt>
      <trkpt lat="43.65602" lon="1.45149">
        <ele>183.3625</ele>
        <time>2022-07-31T12:28:54.838Z</time>
      </trkpt>
      <trkpt lat="43.65595" lon="1.45159">
        <ele>183.345358</ele>
        <time>2022-07-31T12:28:56.861Z</time>
      </trkpt>
      <trkpt lat="43.65588" lon="1.45168">
        <ele>183.32827</ele>
        <time>2022-07-31T12:28:58.868Z</time>
      </trkpt>
      <trkpt lat="43.65581" lon="1.45178">
        <ele>183.311221</ele>
        <time>2022-07-31T12:29:00.865Z</time>
      </trkpt>
      <trkpt lat="43.65574" lon="1.45187">
        <ele>183.293413</ele>
        <time>2022-07-31T12:29:02.868Z</time>
      </trkpt>
      <trkpt lat="43.65565" lon="1.45196">
        <ele>183.274607</ele>
        <time>2022-07-31T12:29:04.854Z</time>
      </trkpt>
      <trkpt lat="43.65556" lon="1.45205">
        <ele>183.256017</ele>
        <time>2022-07-31T12:29:06.860Z</time>
      </trkpt>
      <trkpt lat="43.65548" lon="1.45213">
        <ele>183.237999</ele>
        <time>2022-07-31T12:29:08.865Z</time>
      </trkpt>
      <trkpt lat="43.6554" lon="1.45223">
        <ele>183.219238</ele>
        <time>2022-07-31T12:29:10.874Z</time>
      </trkpt>
      <trkpt lat="43.65532" lon="1.45231">
        <ele>183.201143</ele>
        <time>2022-07-31T12:29:12.874Z</time>
      </trkpt>
      <trkpt lat="43.65524" lon="1.45241">
        <ele>183.183076</ele>
        <time>2022-07-31T12:29:14.848Z</time>
      </trkpt>
      <trkpt lat="43.65515" lon="1.4525">
        <ele>183.164346</ele>
        <time>2022-07-31T12:29:16.879Z</time>
      </trkpt>
      <trkpt lat="43.65507" lon="1.45258">
        <ele>183.145765</ele>
        <time>2022-07-31T12:29:18.878Z</time>
      </trkpt>
      <trkpt lat="43.65498" lon="1.45267">
        <ele>183.126187</ele>
        <time>2022-07-31T12:29:20.866Z</time>
      </trkpt>
      <trkpt lat="43.6549" lon="1.45276">
        <ele>183.102345</ele>
        <time>2022-07-31T12:29:22.860Z</time>
      </trkpt>
      <trkpt lat="43.65482" lon="1.45285">
        <ele>183.079149</ele>
        <time>2022-07-31T12:29:24.859Z</time>
      </trkpt>
      <trkpt lat="43.65474" lon="1.45293">
        <ele>183.05678</ele>
        <time>2022-07-31T12:29:26.858Z</time>
      </trkpt>
      <trkpt lat="43.65466" lon="1.45301">
        <ele>183.034391</ele>
        <time>2022-07-31T12:29:28.870Z</time>
      </trkpt>
      <trkpt lat="43.65459" lon="1.45312">
        <ele>183.010418</ele>
        <time>2022-07-31T12:29:30.857Z</time>
      </trkpt>
      <trkpt lat="43.65452" lon="1.45324">
        <ele>182.985834</ele>
        <time>2022-07-31T12:29:32.871Z</time>
      </trkpt>
      <trkpt lat="43.65446" lon="1.45336">
        <ele>182.962043</ele>
        <time>2022-07-31T12:29:34.863Z</time>
      </trkpt>
      <trkpt lat="43.6544" lon="1.45347">
        <ele>182.93933</ele>
        <time>2022-07-31T12:29:36.875Z</time>
      </trkpt>
      <trkpt lat="43.65439" lon="1.45359">
        <ele>182.918156</ele>
        <time>2022-07-31T12:29:38.873Z</time>
      </trkpt>
      <trkpt lat="43.65446" lon="1.45368">
        <ele>182.897166</ele>
        <time>2022-07-31T12:29:40.858Z</time>
      </trkpt>
      <trkpt lat="43.65455" lon="1.45371">
        <ele>182.876215</ele>
        <time>2022-07-31T12:29:42.872Z</time>
      </trkpt>
      <trkpt lat="43.65465" lon="1.45375">
        <ele>182.852995</ele>
        <time>2022-07-31T12:29:44.873Z</time>
      </trkpt>
      <trkpt lat="43.65475" lon="1.45379">
        <ele>182.829118</ele>
        <time>2022-07-31T12:29:46.857Z</time>
      </trkpt>
      <trkpt lat="43.65485" lon="1.45382">
        <ele>182.804883</ele>
        <time>2022-07-31T12:29:48.856Z</time>
      </trkpt>
      <trkpt lat="43.65496" lon="1.45386">
        <ele>182.779869</ele>
        <time>2022-07-31T12:29:50.864Z</time>
      </trkpt>
      <trkpt lat="43.65507" lon="1.4539">
        <ele>182.754595</ele>
        <time>2022-07-31T12:29:52.874Z</time>
      </trkpt>
      <trkpt lat="43.65518" lon="1.45394">
        <ele>182.728923</ele>
        <time>2022-07-31T12:29:54.863Z</time>
      </trkpt>
      <trkpt lat="43.65529" lon="1.45397">
        <ele>182.748199</ele>
        <time>2022-07-31T12:29:56.850Z</time>
      </trkpt>
      <trkpt lat="43.6554" lon="1.45402">
        <ele>182.779027</ele>
        <time>2022-07-31T12:29:58.862Z</time>
      </trkpt>
      <trkpt lat="43.65551" lon="1.45405">
        <ele>182.810134</ele>
        <time>2022-07-31T12:30:00.869Z</time>
      </trkpt>
      <trkpt lat="43.65562" lon="1.45409">
        <ele>182.842177</ele>
        <time>2022-07-31T12:30:02.853Z</time>
      </trkpt>
      <trkpt lat="43.65574" lon="1.45413">
        <ele>182.874269</ele>
        <time>2022-07-31T12:30:04.869Z</time>
      </trkpt>
      <trkpt lat="43.65585" lon="1.45417">
        <ele>182.905736</ele>
        <time>2022-07-31T12:30:06.847Z</time>
      </trkpt>
      <trkpt lat="43.65596" lon="1.45421">
        <ele>182.936314</ele>
        <time>2022-07-31T12:30:08.867Z</time>
      </trkpt>
      <trkpt lat="43.65607" lon="1.45425">
        <ele>182.967686</ele>
        <time>2022-07-31T12:30:10.860Z</time>
      </trkpt>
      <trkpt lat="43.65618" lon="1.45429">
        <ele>182.999835</ele>
        <time>2022-07-31T12:30:12.864Z</time>
      </trkpt>
      <trkpt lat="43.6563" lon="1.45435">
        <ele>183.032489</ele>
        <time>2022-07-31T12:30:14.866Z</time>
      </trkpt>
      <trkpt lat="43.65641" lon="1.4544">
        <ele>183.06442</ele>
        <time>2022-07-31T12:30:16.882Z</time>
      </trkpt>
      <trkpt lat="43.65652" lon="1.45444">
        <ele>183.09573</ele>
        <time>2022-07-31T12:30:18.876Z</time>
      </trkpt>
      <trkpt lat="43.65663" lon="1.45449">
        <ele>183.127156</ele>
        <time>2022-07-31T12:30:20.867Z</time>
      </trkpt>
      <trkpt lat="43.65674" lon="1.45454">
        <ele>183.158263</ele>
        <time>2022-07-31T12:30:22.872Z</time>
      </trkpt>
      <trkpt lat="43.65685" lon="1.45458">
        <ele>183.189255</ele>
        <time>2022-07-31T12:30:24.872Z</time>
      </trkpt>
      <trkpt lat="43.65695" lon="1.45463">
        <ele>183.225343</ele>
        <time>2022-07-31T12:30:26.857Z</time>
      </trkpt>
      <trkpt lat="43.65706" lon="1.45467">
        <ele>183.283146</ele>
        <time>2022-07-31T12:30:28.874Z</time>
      </trkpt>
      <trkpt lat="43.65716" lon="1.45471">
        <ele>183.33972</ele>
        <time>2022-07-31T12:30:30.877Z</time>
      </trkpt>
      <trkpt lat="43.65726" lon="1.45475">
        <ele>183.393849</ele>
        <time>2022-07-31T12:30:32.864Z</time>
      </trkpt>
      <trkpt lat="43.65736" lon="1.45476">
        <ele>183.44519</ele>
        <time>2022-07-31T12:30:34.858Z</time>
      </trkpt>
      <trkpt lat="43.65746" lon="1.45477">
        <ele>183.497367</ele>
        <time>2022-07-31T12:30:36.879Z</time>
      </trkpt>
      <trkpt lat="43.65756" lon="1.4548">
        <ele>183.552316</ele>
        <time>2022-07-31T12:30:38.861Z</time>
      </trkpt>
      <trkpt lat="43.65766" lon="1.45483">
        <ele>183.607344</ele>
        <time>2022-07-31T12:30:40.872Z</time>
      </trkpt>
      <trkpt lat="43.65777" lon="1.45485">
        <ele>183.664127</ele>
        <time>2022-07-31T12:30:42.864Z</time>
      </trkpt>
      <trkpt lat="43.65787" lon="1.45489">
        <ele>183.719743</ele>
        <time>2022-07-31T12:30:44.863Z</time>
      </trkpt>
      <trkpt lat="43.65798" lon="1.45494">
        <ele>183.779802</ele>
        <time>2022-07-31T12:30:46.865Z</time>
      </trkpt>
      <trkpt lat="43.65809" lon="1.45495">
        <ele>183.83831</ele>
        <time>2022-07-31T12:30:48.855Z</time>
      </trkpt>
      <trkpt lat="43.6582" lon="1.45491">
        <ele>183.901627</ele>
        <time>2022-07-31T12:30:50.897Z</time>
      </trkpt>
      <trkpt lat="43.65832" lon="1.45487">
        <ele>183.965544</ele>
        <time>2022-07-31T12:30:52.869Z</time>
      </trkpt>
      <trkpt lat="43.65844" lon="1.45484">
        <ele>184.029205</ele>
        <time>2022-07-31T12:30:54.862Z</time>
      </trkpt>
      <trkpt lat="43.65856" lon="1.4548">
        <ele>184.093462</ele>
        <time>2022-07-31T12:30:56.848Z</time>
      </trkpt>
      <trkpt lat="43.65868" lon="1.45477">
        <ele>184.15667</ele>
        <time>2022-07-31T12:30:58.870Z</time>
      </trkpt>
      <trkpt lat="43.65879" lon="1.45475">
        <ele>183.987296</ele>
        <time>2022-07-31T12:31:00.866Z</time>
      </trkpt>
      <trkpt lat="43.6589" lon="1.45476">
        <ele>183.810269</ele>
        <time>2022-07-31T12:31:02.859Z</time>
      </trkpt>
      <trkpt lat="43.65901" lon="1.45482">
        <ele>183.635038</ele>
        <time>2022-07-31T12:31:04.861Z</time>
      </trkpt>
      <trkpt lat="43.65911" lon="1.45486">
        <ele>183.456204</ele>
        <time>2022-07-31T12:31:06.868Z</time>
      </trkpt>
      <trkpt lat="43.65923" lon="1.4549">
        <ele>183.269685</ele>
        <time>2022-07-31T12:31:08.889Z</time>
      </trkpt>
      <trkpt lat="43.65933" lon="1.45498">
        <ele>183.080793</ele>
        <time>2022-07-31T12:31:10.845Z</time>
      </trkpt>
      <trkpt lat="43.65941" lon="1.4551">
        <ele>182.896684</ele>
        <time>2022-07-31T12:31:12.861Z</time>
      </trkpt>
      <trkpt lat="43.65951" lon="1.45517">
        <ele>182.710383</ele>
        <time>2022-07-31T12:31:14.869Z</time>
      </trkpt>
      <trkpt lat="43.65963" lon="1.45515">
        <ele>182.530784</ele>
        <time>2022-07-31T12:31:16.858Z</time>
      </trkpt>
      <trkpt lat="43.65972" lon="1.45507">
        <ele>182.349949</ele>
        <time>2022-07-31T12:31:18.871Z</time>
      </trkpt>
      <trkpt lat="43.65982" lon="1.45499">
        <ele>182.168531</ele>
        <time>2022-07-31T12:31:20.862Z</time>
      </trkpt>
      <trkpt lat="43.65994" lon="1.45497">
        <ele>181.97125</ele>
        <time>2022-07-31T12:31:22.881Z</time>
      </trkpt>
      <trkpt lat="43.66008" lon="1.45501">
        <ele>181.756788</ele>
        <time>2022-07-31T12:31:24.884Z</time>
      </trkpt>
      <trkpt lat="43.66021" lon="1.45509">
        <ele>181.527046</ele>
        <time>2022-07-31T12:31:26.856Z</time>
      </trkpt>
      <trkpt lat="43.66034" lon="1.4552">
        <ele>181.293934</ele>
        <time>2022-07-31T12:31:28.865Z</time>
      </trkpt>
      <trkpt lat="43.66047" lon="1.4553">
        <ele>181.289561</ele>
        <time>2022-07-31T12:31:30.869Z</time>
      </trkpt>
      <trkpt lat="43.66061" lon="1.45539">
        <ele>181.285256</ele>
        <time>2022-07-31T12:31:32.867Z</time>
      </trkpt>
      <trkpt lat="43.66074" lon="1.45546">
        <ele>181.281134</ele>
        <time>2022-07-31T12:31:34.861Z</time>
      </trkpt>
      <trkpt lat="43.66088" lon="1.45551">
        <ele>181.277168</ele>
        <time>2022-07-31T12:31:36.882Z</time>
      </trkpt>
      <trkpt lat="43.661" lon="1.45558">
        <ele>181.273419</ele>
        <time>2022-07-31T12:31:38.874Z</time>
      </trkpt>
      <trkpt lat="43.66112" lon="1.45563">
        <ele>181.269902</ele>
        <time>2022-07-31T12:31:40.868Z</time>
      </trkpt>
      <trkpt lat="43.66121" lon="1.45556">
        <ele>181.266652</ele>
        <time>2022-07-31T12:31:42.879Z</time>
      </trkpt>
      <trkpt lat="43.6613" lon="1.45552">
        <ele>181.263986</ele>
        <time>2022-07-31T12:31:44.868Z</time>
      </trkpt>
      <trkpt lat="43.66138" lon="1.45562">
        <ele>181.260949</ele>
        <time>2022-07-31T12:31:46.863Z</time>
      </trkpt>
      <trkpt lat="43.66147" lon="1.4557">
        <ele>181.257889</ele>
        <time>2022-07-31T12:31:48.866Z</time>
      </trkpt>
      <trkpt lat="43.66155" lon="1.45577">
        <ele>181.255184</ele>
        <time>2022-07-31T12:31:50.861Z</time>
      </trkpt>
      <trkpt lat="43.66162" lon="1.45585">
        <ele>181.252585</ele>
        <time>2022-07-31T12:31:52.873Z</time>
      </trkpt>
      <trkpt lat="43.66171" lon="1.45599">
        <ele>181.2486</ele>
        <time>2022-07-31T12:31:55.876Z</time>
      </trkpt>
      <trkpt lat="43.66179" lon="1.45609">
        <ele>181.245534</ele>
        <time>2022-07-31T12:31:57.858Z</time>
      </trkpt>
      <trkpt lat="43.66188" lon="1.45619">
        <ele>181.241094</ele>
        <time>2022-07-31T12:31:59.866Z</time>
      </trkpt>
      <trkpt lat="43.66196" lon="1.45628">
        <ele>181.224823</ele>
        <time>2022-07-31T12:32:01.878Z</time>
      </trkpt>
      <trkpt lat="43.66207" lon="1.45627">
        <ele>181.20924</ele>
        <time>2022-07-31T12:32:03.852Z</time>
      </trkpt>
      <trkpt lat="43.66213" lon="1.45614">
        <ele>181.19321</ele>
        <time>2022-07-31T12:32:05.866Z</time>
      </trkpt>
      <trkpt lat="43.66217" lon="1.456">
        <ele>181.175898</ele>
        <time>2022-07-31T12:32:07.881Z</time>
      </trkpt>
      <trkpt lat="43.66221" lon="1.45585">
        <ele>181.159553</ele>
        <time>2022-07-31T12:32:09.870Z</time>
      </trkpt>
      <trkpt lat="43.66225" lon="1.45572">
        <ele>181.143174</ele>
        <time>2022-07-31T12:32:11.894Z</time>
      </trkpt>
      <trkpt lat="43.6623" lon="1.45556">
        <ele>181.125501</ele>
        <time>2022-07-31T12:32:13.837Z</time>
      </trkpt>
      <trkpt lat="43.66234" lon="1.45542">
        <ele>181.108924</ele>
        <time>2022-07-31T12:32:15.868Z</time>
      </trkpt>
      <trkpt lat="43.66239" lon="1.45527">
        <ele>181.091351</ele>
        <time>2022-07-31T12:32:17.858Z</time>
      </trkpt>
      <trkpt lat="43.66243" lon="1.45512">
        <ele>181.073276</ele>
        <time>2022-07-31T12:32:19.857Z</time>
      </trkpt>
      <trkpt lat="43.66246" lon="1.45495">
        <ele>181.055025</ele>
        <time>2022-07-31T12:32:21.869Z</time>
      </trkpt>
      <trkpt lat="43.66251" lon="1.4548">
        <ele>181.037239</ele>
        <time>2022-07-31T12:32:23.866Z</time>
      </trkpt>
      <trkpt lat="43.66256" lon="1.45464">
        <ele>181.018722</ele>
        <time>2022-07-31T12:32:25.864Z</time>
      </trkpt>
      <trkpt lat="43.6626" lon="1.45449">
        <ele>181.001157</ele>
        <time>2022-07-31T12:32:27.857Z</time>
      </trkpt>
      <trkpt lat="43.66264" lon="1.45433">
        <ele>180.983081</ele>
        <time>2022-07-31T12:32:29.861Z</time>
      </trkpt>
      <trkpt lat="43.66269" lon="1.45417">
        <ele>180.94101</ele>
        <time>2022-07-31T12:32:31.870Z</time>
      </trkpt>
      <trkpt lat="43.66273" lon="1.45401">
        <ele>180.882448</ele>
        <time>2022-07-31T12:32:33.917Z</time>
      </trkpt>
      <trkpt lat="43.66278" lon="1.45386">
        <ele>180.826402</ele>
        <time>2022-07-31T12:32:35.868Z</time>
      </trkpt>
      <trkpt lat="43.66283" lon="1.45371">
        <ele>180.771923</ele>
        <time>2022-07-31T12:32:37.847Z</time>
      </trkpt>
      <trkpt lat="43.66289" lon="1.45358">
        <ele>180.71843</ele>
        <time>2022-07-31T12:32:39.857Z</time>
      </trkpt>
      <trkpt lat="43.66294" lon="1.45343">
        <ele>180.663861</ele>
        <time>2022-07-31T12:32:41.868Z</time>
      </trkpt>
      <trkpt lat="43.663" lon="1.45331">
        <ele>180.613297</ele>
        <time>2022-07-31T12:32:43.880Z</time>
      </trkpt>
      <trkpt lat="43.66306" lon="1.45319">
        <ele>180.563238</ele>
        <time>2022-07-31T12:32:45.851Z</time>
      </trkpt>
      <trkpt lat="43.66311" lon="1.45305">
        <ele>180.50929</ele>
        <time>2022-07-31T12:32:47.867Z</time>
      </trkpt>
      <trkpt lat="43.66318" lon="1.45291">
        <ele>180.452933</ele>
        <time>2022-07-31T12:32:49.877Z</time>
      </trkpt>
      <trkpt lat="43.66325" lon="1.45277">
        <ele>180.394628</ele>
        <time>2022-07-31T12:32:51.874Z</time>
      </trkpt>
      <trkpt lat="43.66332" lon="1.45263">
        <ele>180.33654</ele>
        <time>2022-07-31T12:32:53.880Z</time>
      </trkpt>
      <trkpt lat="43.66339" lon="1.45249">
        <ele>180.278526</ele>
        <time>2022-07-31T12:32:55.893Z</time>
      </trkpt>
      <trkpt lat="43.66348" lon="1.45234">
        <ele>180.212734</ele>
        <time>2022-07-31T12:32:57.879Z</time>
      </trkpt>
      <trkpt lat="43.66354" lon="1.45217">
        <ele>180.146789</ele>
        <time>2022-07-31T12:32:59.852Z</time>
      </trkpt>
      <trkpt lat="43.66357" lon="1.45202">
        <ele>180.142556</ele>
        <time>2022-07-31T12:33:01.888Z</time>
      </trkpt>
      <trkpt lat="43.66363" lon="1.45186">
        <ele>180.172669</ele>
        <time>2022-07-31T12:33:03.862Z</time>
      </trkpt>
      <trkpt lat="43.66365" lon="1.45171">
        <ele>180.197864</ele>
        <time>2022-07-31T12:33:05.872Z</time>
      </trkpt>
      <trkpt lat="43.6636" lon="1.4516">
        <ele>180.218629</ele>
        <time>2022-07-31T12:33:07.885Z</time>
      </trkpt>
      <trkpt lat="43.66362" lon="1.45145">
        <ele>180.243457</ele>
        <time>2022-07-31T12:33:10.852Z</time>
      </trkpt>
      <trkpt lat="43.66362" lon="1.45131">
        <ele>180.266161</ele>
        <time>2022-07-31T12:33:12.836Z</time>
      </trkpt>
      <trkpt lat="43.66368" lon="1.45119">
        <ele>180.28996</ele>
        <time>2022-07-31T12:33:14.872Z</time>
      </trkpt>
      <trkpt lat="43.66375" lon="1.45109">
        <ele>180.314367</ele>
        <time>2022-07-31T12:33:16.854Z</time>
      </trkpt>
      <trkpt lat="43.66382" lon="1.45097">
        <ele>180.338994</ele>
        <time>2022-07-31T12:33:18.868Z</time>
      </trkpt>
      <trkpt lat="43.66387" lon="1.45083">
        <ele>180.365113</ele>
        <time>2022-07-31T12:33:20.864Z</time>
      </trkpt>
      <trkpt lat="43.66391" lon="1.45068">
        <ele>180.391912</ele>
        <time>2022-07-31T12:33:22.864Z</time>
      </trkpt>
      <trkpt lat="43.66394" lon="1.45052">
        <ele>180.419456</ele>
        <time>2022-07-31T12:33:24.858Z</time>
      </trkpt>
      <trkpt lat="43.66398" lon="1.45036">
        <ele>180.44641</ele>
        <time>2022-07-31T12:33:26.876Z</time>
      </trkpt>
      <trkpt lat="43.66402" lon="1.45022">
        <ele>180.471266</ele>
        <time>2022-07-31T12:33:28.877Z</time>
      </trkpt>
      <trkpt lat="43.66407" lon="1.45007">
        <ele>180.498925</ele>
        <time>2022-07-31T12:33:30.876Z</time>
      </trkpt>
      <trkpt lat="43.66414" lon="1.44993">
        <ele>180.526737</ele>
        <time>2022-07-31T12:33:32.881Z</time>
      </trkpt>
      <trkpt lat="43.66418" lon="1.44978">
        <ele>180.5473</ele>
        <time>2022-07-31T12:33:34.854Z</time>
      </trkpt>
      <trkpt lat="43.66422" lon="1.44962">
        <ele>180.562658</ele>
        <time>2022-07-31T12:33:36.861Z</time>
      </trkpt>
      <trkpt lat="43.66428" lon="1.44946">
        <ele>180.578374</ele>
        <time>2022-07-31T12:33:38.893Z</time>
      </trkpt>
      <trkpt lat="43.66432" lon="1.44929">
        <ele>180.593943</ele>
        <time>2022-07-31T12:33:40.876Z</time>
      </trkpt>
      <trkpt lat="43.66437" lon="1.44914">
        <ele>180.609373</ele>
        <time>2022-07-31T12:33:42.867Z</time>
      </trkpt>
      <trkpt lat="43.66444" lon="1.449">
        <ele>180.624813</ele>
        <time>2022-07-31T12:33:44.863Z</time>
      </trkpt>
      <trkpt lat="43.6645" lon="1.44884">
        <ele>180.640154</ele>
        <time>2022-07-31T12:33:46.877Z</time>
      </trkpt>
      <trkpt lat="43.66454" lon="1.44869">
        <ele>180.654804</ele>
        <time>2022-07-31T12:33:48.869Z</time>
      </trkpt>
      <trkpt lat="43.66457" lon="1.44854">
        <ele>180.668781</ele>
        <time>2022-07-31T12:33:50.883Z</time>
      </trkpt>
      <trkpt lat="43.66461" lon="1.4484">
        <ele>180.682132</ele>
        <time>2022-07-31T12:33:52.881Z</time>
      </trkpt>
      <trkpt lat="43.66466" lon="1.44826">
        <ele>180.695698</ele>
        <time>2022-07-31T12:33:54.854Z</time>
      </trkpt>
      <trkpt lat="43.66471" lon="1.44813">
        <ele>180.709236</ele>
        <time>2022-07-31T12:33:56.865Z</time>
      </trkpt>
      <trkpt lat="43.66477" lon="1.448">
        <ele>180.723092</ele>
        <time>2022-07-31T12:33:58.872Z</time>
      </trkpt>
      <trkpt lat="43.66483" lon="1.44787">
        <ele>180.736889</ele>
        <time>2022-07-31T12:34:00.860Z</time>
      </trkpt>
      <trkpt lat="43.66488" lon="1.44773">
        <ele>180.750811</ele>
        <time>2022-07-31T12:34:02.872Z</time>
      </trkpt>
      <trkpt lat="43.66494" lon="1.4476">
        <ele>180.73079</ele>
        <time>2022-07-31T12:34:04.867Z</time>
      </trkpt>
      <trkpt lat="43.665" lon="1.44746">
        <ele>180.617913</ele>
        <time>2022-07-31T12:34:06.850Z</time>
      </trkpt>
      <trkpt lat="43.66504" lon="1.44731">
        <ele>180.504594</ele>
        <time>2022-07-31T12:34:08.863Z</time>
      </trkpt>
      <trkpt lat="43.66509" lon="1.44717">
        <ele>180.394648</ele>
        <time>2022-07-31T12:34:10.870Z</time>
      </trkpt>
      <trkpt lat="43.66519" lon="1.44708">
        <ele>180.27712</ele>
        <time>2022-07-31T12:34:13.865Z</time>
      </trkpt>
      <trkpt lat="43.6653" lon="1.44717">
        <ele>180.14632</ele>
        <time>2022-07-31T12:34:16.877Z</time>
      </trkpt>
      <trkpt lat="43.66539" lon="1.44723">
        <ele>180.0492</ele>
        <time>2022-07-31T12:34:18.857Z</time>
      </trkpt>
      <trkpt lat="43.66549" lon="1.4473">
        <ele>179.941079</ele>
        <time>2022-07-31T12:34:20.865Z</time>
      </trkpt>
      <trkpt lat="43.66558" lon="1.4474">
        <ele>179.82529</ele>
        <time>2022-07-31T12:34:22.863Z</time>
      </trkpt>
      <trkpt lat="43.66567" lon="1.44752">
        <ele>179.70358</ele>
        <time>2022-07-31T12:34:24.869Z</time>
      </trkpt>
      <trkpt lat="43.66576" lon="1.44765">
        <ele>179.579464</ele>
        <time>2022-07-31T12:34:26.867Z</time>
      </trkpt>
      <trkpt lat="43.66585" lon="1.44779">
        <ele>179.447067</ele>
        <time>2022-07-31T12:34:28.859Z</time>
      </trkpt>
      <trkpt lat="43.66594" lon="1.44792">
        <ele>179.317207</ele>
        <time>2022-07-31T12:34:30.850Z</time>
      </trkpt>
      <trkpt lat="43.66603" lon="1.44806">
        <ele>179.188636</ele>
        <time>2022-07-31T12:34:32.868Z</time>
      </trkpt>
      <trkpt lat="43.66611" lon="1.4482">
        <ele>179.062831</ele>
        <time>2022-07-31T12:34:34.866Z</time>
      </trkpt>
      <trkpt lat="43.66619" lon="1.44832">
        <ele>179.000773</ele>
        <time>2022-07-31T12:34:36.857Z</time>
      </trkpt>
      <trkpt lat="43.66628" lon="1.44845">
        <ele>178.998654</ele>
        <time>2022-07-31T12:34:38.865Z</time>
      </trkpt>
      <trkpt lat="43.66639" lon="1.44853">
        <ele>178.996611</ele>
        <time>2022-07-31T12:34:40.879Z</time>
      </trkpt>
      <trkpt lat="43.6665" lon="1.44857">
        <ele>178.994566</ele>
        <time>2022-07-31T12:34:42.861Z</time>
      </trkpt>
      <trkpt lat="43.66662" lon="1.44859">
        <ele>178.992601</ele>
        <time>2022-07-31T12:34:44.890Z</time>
      </trkpt>
      <trkpt lat="43.66674" lon="1.44858">
        <ele>178.990589</ele>
        <time>2022-07-31T12:34:46.892Z</time>
      </trkpt>
      <trkpt lat="43.66686" lon="1.44854">
        <ele>178.988595</ele>
        <time>2022-07-31T12:34:48.853Z</time>
      </trkpt>
      <trkpt lat="43.66697" lon="1.44848">
        <ele>178.9866</ele>
        <time>2022-07-31T12:34:50.860Z</time>
      </trkpt>
      <trkpt lat="43.66707" lon="1.4484">
        <ele>178.984607</ele>
        <time>2022-07-31T12:34:52.869Z</time>
      </trkpt>
      <trkpt lat="43.66718" lon="1.44832">
        <ele>178.982578</ele>
        <time>2022-07-31T12:34:54.857Z</time>
      </trkpt>
      <trkpt lat="43.66728" lon="1.44823">
        <ele>178.980584</ele>
        <time>2022-07-31T12:34:56.858Z</time>
      </trkpt>
      <trkpt lat="43.66739" lon="1.4482">
        <ele>178.978603</ele>
        <time>2022-07-31T12:34:58.864Z</time>
      </trkpt>
      <trkpt lat="43.6675" lon="1.44825">
        <ele>178.976639</ele>
        <time>2022-07-31T12:35:00.865Z</time>
      </trkpt>
      <trkpt lat="43.66756" lon="1.44839">
        <ele>178.974706</ele>
        <time>2022-07-31T12:35:02.876Z</time>
      </trkpt>
      <trkpt lat="43.66757" lon="1.44855">
        <ele>178.972769</ele>
        <time>2022-07-31T12:35:04.864Z</time>
      </trkpt>
      <trkpt lat="43.66761" lon="1.4487">
        <ele>178.966639</ele>
        <time>2022-07-31T12:35:06.871Z</time>
      </trkpt>
      <trkpt lat="43.66769" lon="1.44882">
        <ele>178.955704</ele>
        <time>2022-07-31T12:35:08.881Z</time>
      </trkpt>
      <trkpt lat="43.66777" lon="1.44891">
        <ele>178.9456</ele>
        <time>2022-07-31T12:35:10.864Z</time>
      </trkpt>
      <trkpt lat="43.66788" lon="1.449">
        <ele>178.934291</ele>
        <time>2022-07-31T12:35:12.865Z</time>
      </trkpt>
      <trkpt lat="43.66798" lon="1.44907">
        <ele>178.923182</ele>
        <time>2022-07-31T12:35:14.876Z</time>
      </trkpt>
      <trkpt lat="43.66809" lon="1.44911">
        <ele>178.912634</ele>
        <time>2022-07-31T12:35:16.873Z</time>
      </trkpt>
      <trkpt lat="43.6682" lon="1.44916">
        <ele>178.901434</ele>
        <time>2022-07-31T12:35:18.860Z</time>
      </trkpt>
      <trkpt lat="43.66831" lon="1.4492">
        <ele>178.890804</ele>
        <time>2022-07-31T12:35:20.862Z</time>
      </trkpt>
      <trkpt lat="43.66843" lon="1.44924">
        <ele>178.879545</ele>
        <time>2022-07-31T12:35:22.863Z</time>
      </trkpt>
      <trkpt lat="43.66855" lon="1.44926">
        <ele>178.868234</ele>
        <time>2022-07-31T12:35:24.872Z</time>
      </trkpt>
      <trkpt lat="43.66866" lon="1.44929">
        <ele>178.856912</ele>
        <time>2022-07-31T12:35:26.857Z</time>
      </trkpt>
      <trkpt lat="43.66878" lon="1.44932">
        <ele>178.84559</ele>
        <time>2022-07-31T12:35:28.865Z</time>
      </trkpt>
      <trkpt lat="43.6689" lon="1.44935">
        <ele>178.834125</ele>
        <time>2022-07-31T12:35:30.870Z</time>
      </trkpt>
      <trkpt lat="43.66902" lon="1.44939">
        <ele>178.822634</ele>
        <time>2022-07-31T12:35:32.875Z</time>
      </trkpt>
      <trkpt lat="43.66914" lon="1.44942">
        <ele>178.811128</ele>
        <time>2022-07-31T12:35:34.885Z</time>
      </trkpt>
      <trkpt lat="43.66925" lon="1.4495">
        <ele>178.811417</ele>
        <time>2022-07-31T12:35:36.870Z</time>
      </trkpt>
      <trkpt lat="43.66933" lon="1.44963">
        <ele>178.871432</ele>
        <time>2022-07-31T12:35:38.865Z</time>
      </trkpt>
      <trkpt lat="43.66938" lon="1.44979">
        <ele>178.930062</ele>
        <time>2022-07-31T12:35:40.847Z</time>
      </trkpt>
      <trkpt lat="43.66943" lon="1.44994">
        <ele>178.988802</ele>
        <time>2022-07-31T12:35:42.878Z</time>
      </trkpt>
      <trkpt lat="43.66949" lon="1.45009">
        <ele>179.047852</ele>
        <time>2022-07-31T12:35:44.878Z</time>
      </trkpt>
      <trkpt lat="43.66954" lon="1.45024">
        <ele>179.105885</ele>
        <time>2022-07-31T12:35:46.875Z</time>
      </trkpt>
      <trkpt lat="43.6696" lon="1.45039">
        <ele>179.16429</ele>
        <time>2022-07-31T12:35:48.865Z</time>
      </trkpt>
      <trkpt lat="43.66967" lon="1.45053">
        <ele>179.222661</ele>
        <time>2022-07-31T12:35:50.886Z</time>
      </trkpt>
      <trkpt lat="43.66974" lon="1.45067">
        <ele>179.280639</ele>
        <time>2022-07-31T12:35:52.856Z</time>
      </trkpt>
      <trkpt lat="43.66981" lon="1.4508">
        <ele>179.337777</ele>
        <time>2022-07-31T12:35:54.860Z</time>
      </trkpt>
      <trkpt lat="43.66988" lon="1.45093">
        <ele>179.39351</ele>
        <time>2022-07-31T12:35:56.874Z</time>
      </trkpt>
      <trkpt lat="43.66995" lon="1.45106">
        <ele>179.448413</ele>
        <time>2022-07-31T12:35:58.871Z</time>
      </trkpt>
      <trkpt lat="43.67001" lon="1.4512">
        <ele>179.505269</ele>
        <time>2022-07-31T12:36:00.887Z</time>
      </trkpt>
      <trkpt lat="43.67008" lon="1.45133">
        <ele>179.560191</ele>
        <time>2022-07-31T12:36:02.847Z</time>
      </trkpt>
      <trkpt lat="43.67012" lon="1.45149">
        <ele>179.618916</ele>
        <time>2022-07-31T12:36:04.857Z</time>
      </trkpt>
      <trkpt lat="43.6702" lon="1.4516">
        <ele>179.684969</ele>
        <time>2022-07-31T12:36:06.845Z</time>
      </trkpt>
      <trkpt lat="43.67031" lon="1.45161">
        <ele>179.784105</ele>
        <time>2022-07-31T12:36:08.879Z</time>
      </trkpt>
      <trkpt lat="43.67042" lon="1.45153">
        <ele>179.90102</ele>
        <time>2022-07-31T12:36:10.876Z</time>
      </trkpt>
      <trkpt lat="43.67053" lon="1.45146">
        <ele>180.014248</ele>
        <time>2022-07-31T12:36:12.865Z</time>
      </trkpt>
      <trkpt lat="43.67064" lon="1.45142">
        <ele>180.125291</ele>
        <time>2022-07-31T12:36:14.893Z</time>
      </trkpt>
      <trkpt lat="43.67074" lon="1.45147">
        <ele>180.223581</ele>
        <time>2022-07-31T12:36:16.879Z</time>
      </trkpt>
      <trkpt lat="43.6708" lon="1.45159">
        <ele>180.323875</ele>
        <time>2022-07-31T12:36:18.867Z</time>
      </trkpt>
      <trkpt lat="43.6709" lon="1.45161">
        <ele>180.412703</ele>
        <time>2022-07-31T12:36:20.842Z</time>
      </trkpt>
      <trkpt lat="43.67099" lon="1.45156">
        <ele>180.5053</ele>
        <time>2022-07-31T12:36:22.859Z</time>
      </trkpt>
      <trkpt lat="43.67109" lon="1.45151">
        <ele>180.60213</ele>
        <time>2022-07-31T12:36:24.875Z</time>
      </trkpt>
      <trkpt lat="43.67118" lon="1.45145">
        <ele>180.700921</ele>
        <time>2022-07-31T12:36:26.880Z</time>
      </trkpt>
      <trkpt lat="43.67128" lon="1.4514">
        <ele>180.800939</ele>
        <time>2022-07-31T12:36:28.863Z</time>
      </trkpt>
      <trkpt lat="43.67138" lon="1.45135">
        <ele>180.900371</ele>
        <time>2022-07-31T12:36:30.865Z</time>
      </trkpt>
      <trkpt lat="43.67147" lon="1.45141">
        <ele>180.992373</ele>
        <time>2022-07-31T12:36:32.853Z</time>
      </trkpt>
      <trkpt lat="43.67154" lon="1.45151">
        <ele>181.086565</ele>
        <time>2022-07-31T12:36:34.867Z</time>
      </trkpt>
      <trkpt lat="43.67167" lon="1.45149">
        <ele>181.211054</ele>
        <time>2022-07-31T12:36:37.856Z</time>
      </trkpt>
      <trkpt lat="43.67178" lon="1.45143">
        <ele>181.315828</ele>
        <time>2022-07-31T12:36:39.861Z</time>
      </trkpt>
      <trkpt lat="43.67188" lon="1.45136">
        <ele>181.391673</ele>
        <time>2022-07-31T12:36:41.861Z</time>
      </trkpt>
      <trkpt lat="43.67197" lon="1.45129">
        <ele>181.455878</ele>
        <time>2022-07-31T12:36:43.874Z</time>
      </trkpt>
      <trkpt lat="43.67205" lon="1.45121">
        <ele>181.512485</ele>
        <time>2022-07-31T12:36:45.867Z</time>
      </trkpt>
      <trkpt lat="43.67214" lon="1.45131">
        <ele>181.574978</ele>
        <time>2022-07-31T12:36:48.859Z</time>
      </trkpt>
      <trkpt lat="43.67217" lon="1.45143">
        <ele>181.628534</ele>
        <time>2022-07-31T12:36:50.874Z</time>
      </trkpt>
      <trkpt lat="43.6722" lon="1.45156">
        <ele>181.687075</ele>
        <time>2022-07-31T12:36:52.875Z</time>
      </trkpt>
      <trkpt lat="43.67223" lon="1.4517">
        <ele>181.748784</ele>
        <time>2022-07-31T12:36:54.866Z</time>
      </trkpt>
      <trkpt lat="43.67226" lon="1.45184">
        <ele>181.809737</ele>
        <time>2022-07-31T12:36:56.865Z</time>
      </trkpt>
      <trkpt lat="43.67229" lon="1.45198">
        <ele>181.870463</ele>
        <time>2022-07-31T12:36:58.872Z</time>
      </trkpt>
      <trkpt lat="43.67233" lon="1.45211">
        <ele>181.931175</ele>
        <time>2022-07-31T12:37:00.863Z</time>
      </trkpt>
      <trkpt lat="43.67239" lon="1.45221">
        <ele>181.985879</ele>
        <time>2022-07-31T12:37:02.861Z</time>
      </trkpt>
      <trkpt lat="43.67245" lon="1.45232">
        <ele>182.04433</ele>
        <time>2022-07-31T12:37:04.876Z</time>
      </trkpt>
      <trkpt lat="43.67248" lon="1.45247">
        <ele>182.107402</ele>
        <time>2022-07-31T12:37:06.863Z</time>
      </trkpt>
      <trkpt lat="43.67252" lon="1.45261">
        <ele>182.170896</ele>
        <time>2022-07-31T12:37:08.880Z</time>
      </trkpt>
      <trkpt lat="43.67256" lon="1.45275">
        <ele>182.234389</ele>
        <time>2022-07-31T12:37:10.887Z</time>
      </trkpt>
      <trkpt lat="43.67261" lon="1.45289">
        <ele>182.298935</ele>
        <time>2022-07-31T12:37:12.848Z</time>
      </trkpt>
      <trkpt lat="43.67265" lon="1.45303">
        <ele>182.363214</ele>
        <time>2022-07-31T12:37:14.872Z</time>
      </trkpt>
      <trkpt lat="43.67272" lon="1.45313">
        <ele>182.389469</ele>
        <time>2022-07-31T12:37:16.867Z</time>
      </trkpt>
      <trkpt lat="43.67281" lon="1.45313">
        <ele>182.385435</ele>
        <time>2022-07-31T12:37:18.859Z</time>
      </trkpt>
      <trkpt lat="43.67291" lon="1.45307">
        <ele>182.381063</ele>
        <time>2022-07-31T12:37:20.864Z</time>
      </trkpt>
      <trkpt lat="43.673" lon="1.45302">
        <ele>182.376621</ele>
        <time>2022-07-31T12:37:22.863Z</time>
      </trkpt>
      <trkpt lat="43.6731" lon="1.45296">
        <ele>182.37204</ele>
        <time>2022-07-31T12:37:24.871Z</time>
      </trkpt>
      <trkpt lat="43.67322" lon="1.45295">
        <ele>182.367263</ele>
        <time>2022-07-31T12:37:26.864Z</time>
      </trkpt>
      <trkpt lat="43.67332" lon="1.45299">
        <ele>182.362488</ele>
        <time>2022-07-31T12:37:28.881Z</time>
      </trkpt>
      <trkpt lat="43.67343" lon="1.45304">
        <ele>182.357669</ele>
        <time>2022-07-31T12:37:30.893Z</time>
      </trkpt>
      <trkpt lat="43.67355" lon="1.45307">
        <ele>182.352771</ele>
        <time>2022-07-31T12:37:32.882Z</time>
      </trkpt>
      <trkpt lat="43.67366" lon="1.45309">
        <ele>182.347895</ele>
        <time>2022-07-31T12:37:34.882Z</time>
      </trkpt>
      <trkpt lat="43.67377" lon="1.45309">
        <ele>182.343058</ele>
        <time>2022-07-31T12:37:36.863Z</time>
      </trkpt>
      <trkpt lat="43.67388" lon="1.45304">
        <ele>182.338269</ele>
        <time>2022-07-31T12:37:38.882Z</time>
      </trkpt>
      <trkpt lat="43.67398" lon="1.45297">
        <ele>182.333455</ele>
        <time>2022-07-31T12:37:40.885Z</time>
      </trkpt>
      <trkpt lat="43.67409" lon="1.45291">
        <ele>182.328577</ele>
        <time>2022-07-31T12:37:42.863Z</time>
      </trkpt>
      <trkpt lat="43.67419" lon="1.45284">
        <ele>182.323737</ele>
        <time>2022-07-31T12:37:44.886Z</time>
      </trkpt>
      <trkpt lat="43.67431" lon="1.45283">
        <ele>182.318938</ele>
        <time>2022-07-31T12:37:46.866Z</time>
      </trkpt>
      <trkpt lat="43.67441" lon="1.4529">
        <ele>182.323352</ele>
        <time>2022-07-31T12:37:48.857Z</time>
      </trkpt>
      <trkpt lat="43.67448" lon="1.45302">
        <ele>182.348773</ele>
        <time>2022-07-31T12:37:50.852Z</time>
      </trkpt>
      <trkpt lat="43.67452" lon="1.45317">
        <ele>182.374192</ele>
        <time>2022-07-31T12:37:52.843Z</time>
      </trkpt>
      <trkpt lat="43.67457" lon="1.45331">
        <ele>182.400128</ele>
        <time>2022-07-31T12:37:54.882Z</time>
      </trkpt>
      <trkpt lat="43.67462" lon="1.45345">
        <ele>182.425676</ele>
        <time>2022-07-31T12:37:56.873Z</time>
      </trkpt>
      <trkpt lat="43.67466" lon="1.45359">
        <ele>182.451162</ele>
        <time>2022-07-31T12:37:58.853Z</time>
      </trkpt>
      <trkpt lat="43.67473" lon="1.4537">
        <ele>182.476074</ele>
        <time>2022-07-31T12:38:00.862Z</time>
      </trkpt>
      <trkpt lat="43.67482" lon="1.45379">
        <ele>182.500957</ele>
        <time>2022-07-31T12:38:02.877Z</time>
      </trkpt>
      <trkpt lat="43.67492" lon="1.45386">
        <ele>182.525332</ele>
        <time>2022-07-31T12:38:04.864Z</time>
      </trkpt>
      <trkpt lat="43.67502" lon="1.45385">
        <ele>182.549187</ele>
        <time>2022-07-31T12:38:06.877Z</time>
      </trkpt>
      <trkpt lat="43.67511" lon="1.45375">
        <ele>182.574642</ele>
        <time>2022-07-31T12:38:08.876Z</time>
      </trkpt>
      <trkpt lat="43.67519" lon="1.45364">
        <ele>182.600592</ele>
        <time>2022-07-31T12:38:10.874Z</time>
      </trkpt>
      <trkpt lat="43.67527" lon="1.45354">
        <ele>182.625214</ele>
        <time>2022-07-31T12:38:12.892Z</time>
      </trkpt>
      <trkpt lat="43.67537" lon="1.45347">
        <ele>182.650427</ele>
        <time>2022-07-31T12:38:14.941Z</time>
      </trkpt>
      <trkpt lat="43.67547" lon="1.45342">
        <ele>182.674604</ele>
        <time>2022-07-31T12:38:16.841Z</time>
      </trkpt>
      <trkpt lat="43.67556" lon="1.45344">
        <ele>182.69682</ele>
        <time>2022-07-31T12:38:18.861Z</time>
      </trkpt>
      <trkpt lat="43.67567" lon="1.45337">
        <ele>182.725018</ele>
        <time>2022-07-31T12:38:21.871Z</time>
      </trkpt>
      <trkpt lat="43.67579" lon="1.45329">
        <ele>182.753539</ele>
        <time>2022-07-31T12:38:24.866Z</time>
      </trkpt>
      <trkpt lat="43.67588" lon="1.45323">
        <ele>182.778174</ele>
        <time>2022-07-31T12:38:27.880Z</time>
      </trkpt>
      <trkpt lat="43.67605" lon="1.45316">
        <ele>182.818662</ele>
        <time>2022-07-31T12:38:49.858Z</time>
      </trkpt>
      <trkpt lat="43.67615" lon="1.45314">
        <ele>182.841985</ele>
        <time>2022-07-31T12:38:52.873Z</time>
      </trkpt>
      <trkpt lat="43.67628" lon="1.45314">
        <ele>182.869958</ele>
        <time>2022-07-31T12:38:55.873Z</time>
      </trkpt>
      <trkpt lat="43.6764" lon="1.45313">
        <ele>182.89839</ele>
        <time>2022-07-31T12:38:58.870Z</time>
      </trkpt>
      <trkpt lat="43.67653" lon="1.45311">
        <ele>182.927501</ele>
        <time>2022-07-31T12:39:01.865Z</time>
      </trkpt>
      <trkpt lat="43.67665" lon="1.45316">
        <ele>182.956488</ele>
        <time>2022-07-31T12:39:04.880Z</time>
      </trkpt>
      <trkpt lat="43.67674" lon="1.45318">
        <ele>182.979076</ele>
        <time>2022-07-31T12:39:06.863Z</time>
      </trkpt>
      <trkpt lat="43.67684" lon="1.4532">
        <ele>183.00206</ele>
        <time>2022-07-31T12:39:08.874Z</time>
      </trkpt>
      <trkpt lat="43.67695" lon="1.45322">
        <ele>183.026561</ele>
        <time>2022-07-31T12:39:10.868Z</time>
      </trkpt>
      <trkpt lat="43.67704" lon="1.45326">
        <ele>183.047506</ele>
        <time>2022-07-31T12:39:12.888Z</time>
      </trkpt>
      <trkpt lat="43.67715" lon="1.45325">
        <ele>183.072976</ele>
        <time>2022-07-31T12:39:15.862Z</time>
      </trkpt>
      <trkpt lat="43.67726" lon="1.45333">
        <ele>183.101708</ele>
        <time>2022-07-31T12:39:18.880Z</time>
      </trkpt>
      <trkpt lat="43.67734" lon="1.45339">
        <ele>183.12273</ele>
        <time>2022-07-31T12:39:20.878Z</time>
      </trkpt>
      <trkpt lat="43.67742" lon="1.45346">
        <ele>183.178982</ele>
        <time>2022-07-31T12:39:22.857Z</time>
      </trkpt>
      <trkpt lat="43.6775" lon="1.45354">
        <ele>183.327863</ele>
        <time>2022-07-31T12:39:24.865Z</time>
      </trkpt>
      <trkpt lat="43.67758" lon="1.4536">
        <ele>183.474546</ele>
        <time>2022-07-31T12:39:26.867Z</time>
      </trkpt>
      <trkpt lat="43.67767" lon="1.45368">
        <ele>183.633589</ele>
        <time>2022-07-31T12:39:28.843Z</time>
      </trkpt>
      <trkpt lat="43.67777" lon="1.45376">
        <ele>183.801574</ele>
        <time>2022-07-31T12:39:30.883Z</time>
      </trkpt>
      <trkpt lat="43.67786" lon="1.45385">
        <ele>183.970412</ele>
        <time>2022-07-31T12:39:32.856Z</time>
      </trkpt>
      <trkpt lat="43.67795" lon="1.45395">
        <ele>184.141723</ele>
        <time>2022-07-31T12:39:34.881Z</time>
      </trkpt>
      <trkpt lat="43.67805" lon="1.454">
        <ele>184.305351</ele>
        <time>2022-07-31T12:39:36.853Z</time>
      </trkpt>
      <trkpt lat="43.67815" lon="1.45404">
        <ele>184.464787</ele>
        <time>2022-07-31T12:39:38.873Z</time>
      </trkpt>
      <trkpt lat="43.67822" lon="1.45414">
        <ele>184.613333</ele>
        <time>2022-07-31T12:39:40.866Z</time>
      </trkpt>
      <trkpt lat="43.67831" lon="1.45421">
        <ele>184.772535</ele>
        <time>2022-07-31T12:39:42.863Z</time>
      </trkpt>
      <trkpt lat="43.6784" lon="1.45428">
        <ele>184.931144</ele>
        <time>2022-07-31T12:39:44.873Z</time>
      </trkpt>
      <trkpt lat="43.67849" lon="1.45434">
        <ele>185.085874</ele>
        <time>2022-07-31T12:39:46.872Z</time>
      </trkpt>
      <trkpt lat="43.67859" lon="1.45433">
        <ele>185.239754</ele>
        <time>2022-07-31T12:39:48.866Z</time>
      </trkpt>
      <trkpt lat="43.67868" lon="1.45428">
        <ele>185.397205</ele>
        <time>2022-07-31T12:39:50.862Z</time>
      </trkpt>
      <trkpt lat="43.67879" lon="1.45419">
        <ele>185.587625</ele>
        <time>2022-07-31T12:39:52.866Z</time>
      </trkpt>
      <trkpt lat="43.67888" lon="1.4541">
        <ele>185.747709</ele>
        <time>2022-07-31T12:39:54.859Z</time>
      </trkpt>
      <trkpt lat="43.67897" lon="1.45402">
        <ele>185.868644</ele>
        <time>2022-07-31T12:39:56.866Z</time>
      </trkpt>
      <trkpt lat="43.67907" lon="1.45396">
        <ele>185.852427</ele>
        <time>2022-07-31T12:39:58.869Z</time>
      </trkpt>
      <trkpt lat="43.67917" lon="1.45389">
        <ele>185.836129</ele>
        <time>2022-07-31T12:40:00.885Z</time>
      </trkpt>
      <trkpt lat="43.67926" lon="1.45383">
        <ele>185.820789</ele>
        <time>2022-07-31T12:40:02.867Z</time>
      </trkpt>
      <trkpt lat="43.67937" lon="1.45377">
        <ele>185.801938</ele>
        <time>2022-07-31T12:40:05.878Z</time>
      </trkpt>
      <trkpt lat="43.67949" lon="1.45376">
        <ele>185.783981</ele>
        <time>2022-07-31T12:40:08.885Z</time>
      </trkpt>
      <trkpt lat="43.67959" lon="1.45372">
        <ele>185.767797</ele>
        <time>2022-07-31T12:40:10.874Z</time>
      </trkpt>
      <trkpt lat="43.67969" lon="1.45368">
        <ele>185.751693</ele>
        <time>2022-07-31T12:40:12.859Z</time>
      </trkpt>
      <trkpt lat="43.67979" lon="1.4536">
        <ele>185.735003</ele>
        <time>2022-07-31T12:40:14.898Z</time>
      </trkpt>
      <trkpt lat="43.67987" lon="1.45351">
        <ele>185.718593</ele>
        <time>2022-07-31T12:40:16.870Z</time>
      </trkpt>
      <trkpt lat="43.67997" lon="1.45344">
        <ele>185.702064</ele>
        <time>2022-07-31T12:40:18.884Z</time>
      </trkpt>
      <trkpt lat="43.68007" lon="1.45338">
        <ele>185.685624</ele>
        <time>2022-07-31T12:40:20.881Z</time>
      </trkpt>
      <trkpt lat="43.68016" lon="1.45331">
        <ele>185.669388</ele>
        <time>2022-07-31T12:40:22.870Z</time>
      </trkpt>
      <trkpt lat="43.68026" lon="1.45323">
        <ele>185.652487</ele>
        <time>2022-07-31T12:40:24.850Z</time>
      </trkpt>
      <trkpt lat="43.68036" lon="1.45315">
        <ele>185.635125</ele>
        <time>2022-07-31T12:40:26.866Z</time>
      </trkpt>
      <trkpt lat="43.68045" lon="1.45307">
        <ele>185.617965</ele>
        <time>2022-07-31T12:40:28.846Z</time>
      </trkpt>
      <trkpt lat="43.68055" lon="1.45299">
        <ele>185.60135</ele>
        <time>2022-07-31T12:40:30.865Z</time>
      </trkpt>
      <trkpt lat="43.68064" lon="1.4529">
        <ele>185.553176</ele>
        <time>2022-07-31T12:40:32.875Z</time>
      </trkpt>
      <trkpt lat="43.68073" lon="1.45282">
        <ele>185.501731</ele>
        <time>2022-07-31T12:40:34.861Z</time>
      </trkpt>
      <trkpt lat="43.68082" lon="1.45274">
        <ele>185.45106</ele>
        <time>2022-07-31T12:40:36.845Z</time>
      </trkpt>
      <trkpt lat="43.68092" lon="1.45266">
        <ele>185.399578</ele>
        <time>2022-07-31T12:40:38.855Z</time>
      </trkpt>
      <trkpt lat="43.68101" lon="1.45258">
        <ele>185.348488</ele>
        <time>2022-07-31T12:40:40.863Z</time>
      </trkpt>
      <trkpt lat="43.6811" lon="1.45249">
        <ele>185.297835</ele>
        <time>2022-07-31T12:40:42.877Z</time>
      </trkpt>
      <trkpt lat="43.68119" lon="1.4524">
        <ele>185.24718</ele>
        <time>2022-07-31T12:40:44.876Z</time>
      </trkpt>
      <trkpt lat="43.68129" lon="1.45232">
        <ele>185.196122</ele>
        <time>2022-07-31T12:40:46.865Z</time>
      </trkpt>
      <trkpt lat="43.68138" lon="1.45224">
        <ele>185.145065</ele>
        <time>2022-07-31T12:40:48.869Z</time>
      </trkpt>
      <trkpt lat="43.68147" lon="1.45215">
        <ele>185.094596</ele>
        <time>2022-07-31T12:40:50.880Z</time>
      </trkpt>
      <trkpt lat="43.68156" lon="1.45206">
        <ele>185.044478</ele>
        <time>2022-07-31T12:40:52.857Z</time>
      </trkpt>
      <trkpt lat="43.68165" lon="1.45207">
        <ele>184.99969</ele>
        <time>2022-07-31T12:40:54.867Z</time>
      </trkpt>
      <trkpt lat="43.68169" lon="1.4522">
        <ele>184.951023</ele>
        <time>2022-07-31T12:40:56.861Z</time>
      </trkpt>
      <trkpt lat="43.68173" lon="1.45235">
        <ele>184.899713</ele>
        <time>2022-07-31T12:40:58.846Z</time>
      </trkpt>
      <trkpt lat="43.68176" lon="1.45249">
        <ele>184.847941</ele>
        <time>2022-07-31T12:41:00.856Z</time>
      </trkpt>
      <trkpt lat="43.6818" lon="1.45264">
        <ele>184.796963</ele>
        <time>2022-07-31T12:41:02.864Z</time>
      </trkpt>
      <trkpt lat="43.68184" lon="1.45279">
        <ele>184.826475</ele>
        <time>2022-07-31T12:41:04.879Z</time>
      </trkpt>
      <trkpt lat="43.68187" lon="1.45294">
        <ele>184.941532</ele>
        <time>2022-07-31T12:41:06.869Z</time>
      </trkpt>
      <trkpt lat="43.68191" lon="1.45308">
        <ele>185.054995</ele>
        <time>2022-07-31T12:41:08.864Z</time>
      </trkpt>
      <trkpt lat="43.68195" lon="1.45323">
        <ele>185.170863</ele>
        <time>2022-07-31T12:41:10.881Z</time>
      </trkpt>
      <trkpt lat="43.68199" lon="1.45338">
        <ele>185.282964</ele>
        <time>2022-07-31T12:41:12.880Z</time>
      </trkpt>
      <trkpt lat="43.68202" lon="1.45352">
        <ele>185.394118</ele>
        <time>2022-07-31T12:41:14.858Z</time>
      </trkpt>
      <trkpt lat="43.68206" lon="1.45367">
        <ele>185.510746</ele>
        <time>2022-07-31T12:41:16.891Z</time>
      </trkpt>
      <trkpt lat="43.6821" lon="1.45382">
        <ele>185.623179</ele>
        <time>2022-07-31T12:41:18.854Z</time>
      </trkpt>
      <trkpt lat="43.68214" lon="1.45396">
        <ele>185.734129</ele>
        <time>2022-07-31T12:41:20.882Z</time>
      </trkpt>
      <trkpt lat="43.68218" lon="1.4541">
        <ele>185.84598</ele>
        <time>2022-07-31T12:41:22.862Z</time>
      </trkpt>
      <trkpt lat="43.68221" lon="1.45425">
        <ele>185.961867</ele>
        <time>2022-07-31T12:41:24.866Z</time>
      </trkpt>
      <trkpt lat="43.68226" lon="1.45441">
        <ele>186.085562</ele>
        <time>2022-07-31T12:41:26.870Z</time>
      </trkpt>
      <trkpt lat="43.68231" lon="1.45456">
        <ele>186.206335</ele>
        <time>2022-07-31T12:41:28.873Z</time>
      </trkpt>
      <trkpt lat="43.68236" lon="1.45471">
        <ele>186.325472</ele>
        <time>2022-07-31T12:41:30.879Z</time>
      </trkpt>
      <trkpt lat="43.6824" lon="1.45485">
        <ele>186.441804</ele>
        <time>2022-07-31T12:41:32.866Z</time>
      </trkpt>
      <trkpt lat="43.68244" lon="1.455">
        <ele>186.558431</ele>
        <time>2022-07-31T12:41:34.877Z</time>
      </trkpt>
      <trkpt lat="43.68248" lon="1.45515">
        <ele>186.687601</ele>
        <time>2022-07-31T12:41:36.928Z</time>
      </trkpt>
      <trkpt lat="43.68252" lon="1.45529">
        <ele>186.822148</ele>
        <time>2022-07-31T12:41:38.864Z</time>
      </trkpt>
      <trkpt lat="43.68256" lon="1.45544">
        <ele>186.957895</ele>
        <time>2022-07-31T12:41:40.871Z</time>
      </trkpt>
      <trkpt lat="43.6826" lon="1.45559">
        <ele>187.094913</ele>
        <time>2022-07-31T12:41:42.874Z</time>
      </trkpt>
      <trkpt lat="43.68263" lon="1.45574">
        <ele>187.231203</ele>
        <time>2022-07-31T12:41:44.850Z</time>
      </trkpt>
      <trkpt lat="43.68267" lon="1.4559">
        <ele>187.36914</ele>
        <time>2022-07-31T12:41:46.870Z</time>
      </trkpt>
      <trkpt lat="43.6827" lon="1.45605">
        <ele>187.508254</ele>
        <time>2022-07-31T12:41:48.871Z</time>
      </trkpt>
      <trkpt lat="43.68273" lon="1.4562">
        <ele>187.645393</ele>
        <time>2022-07-31T12:41:50.868Z</time>
      </trkpt>
      <trkpt lat="43.68276" lon="1.45636">
        <ele>187.784775</ele>
        <time>2022-07-31T12:41:52.879Z</time>
      </trkpt>
      <trkpt lat="43.68278" lon="1.45652">
        <ele>187.921956</ele>
        <time>2022-07-31T12:41:54.884Z</time>
      </trkpt>
      <trkpt lat="43.68279" lon="1.45668">
        <ele>188.057424</ele>
        <time>2022-07-31T12:41:56.865Z</time>
      </trkpt>
      <trkpt lat="43.6828" lon="1.45683">
        <ele>188.194701</ele>
        <time>2022-07-31T12:41:58.870Z</time>
      </trkpt>
      <trkpt lat="43.68279" lon="1.45699">
        <ele>188.3275</ele>
        <time>2022-07-31T12:42:00.872Z</time>
      </trkpt>
      <trkpt lat="43.68279" lon="1.45714">
        <ele>188.457036</ele>
        <time>2022-07-31T12:42:02.862Z</time>
      </trkpt>
      <trkpt lat="43.68278" lon="1.45729">
        <ele>188.585888</ele>
        <time>2022-07-31T12:42:04.833Z</time>
      </trkpt>
      <trkpt lat="43.68277" lon="1.45744">
        <ele>188.71496</ele>
        <time>2022-07-31T12:42:06.868Z</time>
      </trkpt>
      <trkpt lat="43.68276" lon="1.45759">
        <ele>189.064247</ele>
        <time>2022-07-31T12:42:08.888Z</time>
      </trkpt>
      <trkpt lat="43.68275" lon="1.45774">
        <ele>189.453347</ele>
        <time>2022-07-31T12:42:10.873Z</time>
      </trkpt>
      <trkpt lat="43.68274" lon="1.4579">
        <ele>189.854016</ele>
        <time>2022-07-31T12:42:12.872Z</time>
      </trkpt>
      <trkpt lat="43.68274" lon="1.45806">
        <ele>190.245131</ele>
        <time>2022-07-31T12:42:14.864Z</time>
      </trkpt>
      <trkpt lat="43.68272" lon="1.45821">
        <ele>190.640219</ele>
        <time>2022-07-31T12:42:16.864Z</time>
      </trkpt>
      <trkpt lat="43.68272" lon="1.45837">
        <ele>191.038875</ele>
        <time>2022-07-31T12:42:18.870Z</time>
      </trkpt>
      <trkpt lat="43.68271" lon="1.45852">
        <ele>191.430779</ele>
        <time>2022-07-31T12:42:20.862Z</time>
      </trkpt>
      <trkpt lat="43.68269" lon="1.45868">
        <ele>191.818356</ele>
        <time>2022-07-31T12:42:22.872Z</time>
      </trkpt>
      <trkpt lat="43.68269" lon="1.45882">
        <ele>192.184123</ele>
        <time>2022-07-31T12:42:24.872Z</time>
      </trkpt>
      <trkpt lat="43.68268" lon="1.45896">
        <ele>192.522237</ele>
        <time>2022-07-31T12:42:27.867Z</time>
      </trkpt>
      <trkpt lat="43.68268" lon="1.45911">
        <ele>192.907696</ele>
        <time>2022-07-31T12:42:30.878Z</time>
      </trkpt>
      <trkpt lat="43.68266" lon="1.4593">
        <ele>193.384831</ele>
        <time>2022-07-31T12:42:33.864Z</time>
      </trkpt>
      <trkpt lat="43.68264" lon="1.45944">
        <ele>193.751738</ele>
        <time>2022-07-31T12:42:35.870Z</time>
      </trkpt>
      <trkpt lat="43.68263" lon="1.45959">
        <ele>194.128595</ele>
        <time>2022-07-31T12:42:37.872Z</time>
      </trkpt>
      <trkpt lat="43.68263" lon="1.45974">
        <ele>194.501906</ele>
        <time>2022-07-31T12:42:39.872Z</time>
      </trkpt>
      <trkpt lat="43.68263" lon="1.45988">
        <ele>194.868419</ele>
        <time>2022-07-31T12:42:41.876Z</time>
      </trkpt>
      <trkpt lat="43.68265" lon="1.46002">
        <ele>195.260248</ele>
        <time>2022-07-31T12:42:43.876Z</time>
      </trkpt>
      <trkpt lat="43.68268" lon="1.46015">
        <ele>195.652438</ele>
        <time>2022-07-31T12:42:45.873Z</time>
      </trkpt>
      <trkpt lat="43.68272" lon="1.46027">
        <ele>196.014897</ele>
        <time>2022-07-31T12:42:47.879Z</time>
      </trkpt>
      <trkpt lat="43.68276" lon="1.46044">
        <ele>196.522562</ele>
        <time>2022-07-31T12:42:50.861Z</time>
      </trkpt>
      <trkpt lat="43.68278" lon="1.4606">
        <ele>197.002165</ele>
        <time>2022-07-31T12:42:53.855Z</time>
      </trkpt>
      <trkpt lat="43.6828" lon="1.46077">
        <ele>197.485842</ele>
        <time>2022-07-31T12:42:56.851Z</time>
      </trkpt>
      <trkpt lat="43.6828" lon="1.46094">
        <ele>197.973079</ele>
        <time>2022-07-31T12:42:59.869Z</time>
      </trkpt>
      <trkpt lat="43.68281" lon="1.46111">
        <ele>198.461038</ele>
        <time>2022-07-31T12:43:02.854Z</time>
      </trkpt>
      <trkpt lat="43.68283" lon="1.46128">
        <ele>198.941556</ele>
        <time>2022-07-31T12:43:05.875Z</time>
      </trkpt>
      <trkpt lat="43.68282" lon="1.46145">
        <ele>199.446942</ele>
        <time>2022-07-31T12:43:08.856Z</time>
      </trkpt>
      <trkpt lat="43.68281" lon="1.46158">
        <ele>199.808422</ele>
        <time>2022-07-31T12:43:10.857Z</time>
      </trkpt>
      <trkpt lat="43.68279" lon="1.4617">
        <ele>200.185212</ele>
        <time>2022-07-31T12:43:12.861Z</time>
      </trkpt>
      <trkpt lat="43.68275" lon="1.46183">
        <ele>200.565477</ele>
        <time>2022-07-31T12:43:14.873Z</time>
      </trkpt>
      <trkpt lat="43.68271" lon="1.46195">
        <ele>200.961008</ele>
        <time>2022-07-31T12:43:16.881Z</time>
      </trkpt>
      <trkpt lat="43.68267" lon="1.46209">
        <ele>201.378063</ele>
        <time>2022-07-31T12:43:18.863Z</time>
      </trkpt>
      <trkpt lat="43.68262" lon="1.46222">
        <ele>201.801403</ele>
        <time>2022-07-31T12:43:20.863Z</time>
      </trkpt>
      <trkpt lat="43.68258" lon="1.46236">
        <ele>202.124388</ele>
        <time>2022-07-31T12:43:22.878Z</time>
      </trkpt>
      <trkpt lat="43.68254" lon="1.46251">
        <ele>202.157256</ele>
        <time>2022-07-31T12:43:24.858Z</time>
      </trkpt>
      <trkpt lat="43.68249" lon="1.46265">
        <ele>202.189595</ele>
        <time>2022-07-31T12:43:26.859Z</time>
      </trkpt>
      <trkpt lat="43.68244" lon="1.46278">
        <ele>202.221553</ele>
        <time>2022-07-31T12:43:28.872Z</time>
      </trkpt>
      <trkpt lat="43.68238" lon="1.46291">
        <ele>202.253534</ele>
        <time>2022-07-31T12:43:30.882Z</time>
      </trkpt>
      <trkpt lat="43.68231" lon="1.46303">
        <ele>202.28582</ele>
        <time>2022-07-31T12:43:32.879Z</time>
      </trkpt>
      <trkpt lat="43.68225" lon="1.46315">
        <ele>202.317918</ele>
        <time>2022-07-31T12:43:34.888Z</time>
      </trkpt>
      <trkpt lat="43.68217" lon="1.46326">
        <ele>202.34955</ele>
        <time>2022-07-31T12:43:36.872Z</time>
      </trkpt>
      <trkpt lat="43.6821" lon="1.46338">
        <ele>202.381336</ele>
        <time>2022-07-31T12:43:38.868Z</time>
      </trkpt>
      <trkpt lat="43.68202" lon="1.46348">
        <ele>202.413376</ele>
        <time>2022-07-31T12:43:40.875Z</time>
      </trkpt>
      <trkpt lat="43.68194" lon="1.46359">
        <ele>202.445805</ele>
        <time>2022-07-31T12:43:42.873Z</time>
      </trkpt>
      <trkpt lat="43.68188" lon="1.46372">
        <ele>202.478275</ele>
        <time>2022-07-31T12:43:44.883Z</time>
      </trkpt>
      <trkpt lat="43.68192" lon="1.46385">
        <ele>202.508349</ele>
        <time>2022-07-31T12:43:46.874Z</time>
      </trkpt>
      <trkpt lat="43.68203" lon="1.46393">
        <ele>202.54353</ele>
        <time>2022-07-31T12:43:48.860Z</time>
      </trkpt>
      <trkpt lat="43.68215" lon="1.464">
        <ele>202.581334</ele>
        <time>2022-07-31T12:43:50.880Z</time>
      </trkpt>
      <trkpt lat="43.68229" lon="1.46408">
        <ele>202.623458</ele>
        <time>2022-07-31T12:43:52.894Z</time>
      </trkpt>
      <trkpt lat="43.68241" lon="1.46416">
        <ele>203.540073</ele>
        <time>2022-07-31T12:43:54.867Z</time>
      </trkpt>
      <trkpt lat="43.68253" lon="1.46422">
        <ele>204.800716</ele>
        <time>2022-07-31T12:43:56.875Z</time>
      </trkpt>
      <trkpt lat="43.68264" lon="1.46426">
        <ele>205.874646</ele>
        <time>2022-07-31T12:43:58.885Z</time>
      </trkpt>
      <trkpt lat="43.68273" lon="1.4643">
        <ele>206.82387</ele>
        <time>2022-07-31T12:44:00.876Z</time>
      </trkpt>
      <trkpt lat="43.68285" lon="1.46436">
        <ele>208.028873</ele>
        <time>2022-07-31T12:44:03.864Z</time>
      </trkpt>
      <trkpt lat="43.68294" lon="1.46442">
        <ele>209.060077</ele>
        <time>2022-07-31T12:44:06.890Z</time>
      </trkpt>
      <trkpt lat="43.68303" lon="1.46446">
        <ele>209.965232</ele>
        <time>2022-07-31T12:44:09.871Z</time>
      </trkpt>
      <trkpt lat="43.68311" lon="1.46451">
        <ele>210.86939</ele>
        <time>2022-07-31T12:44:12.845Z</time>
      </trkpt>
      <trkpt lat="43.68319" lon="1.46457">
        <ele>211.755816</ele>
        <time>2022-07-31T12:44:15.876Z</time>
      </trkpt>
      <trkpt lat="43.6833" lon="1.46464">
        <ele>212.926341</ele>
        <time>2022-07-31T12:44:19.866Z</time>
      </trkpt>
      <trkpt lat="43.68338" lon="1.4647">
        <ele>213.807242</ele>
        <time>2022-07-31T12:44:22.890Z</time>
      </trkpt>
      <trkpt lat="43.68346" lon="1.46476">
        <ele>214.728909</ele>
        <time>2022-07-31T12:44:25.884Z</time>
      </trkpt>
      <trkpt lat="43.68353" lon="1.46484">
        <ele>215.613322</ele>
        <time>2022-07-31T12:44:28.869Z</time>
      </trkpt>
      <trkpt lat="43.68353" lon="1.46497">
        <ele>216.513153</ele>
        <time>2022-07-31T12:44:31.886Z</time>
      </trkpt>
      <trkpt lat="43.68348" lon="1.46508">
        <ele>217.399332</ele>
        <time>2022-07-31T12:44:34.877Z</time>
      </trkpt>
      <trkpt lat="43.68341" lon="1.4652">
        <ele>218.53607</ele>
        <time>2022-07-31T12:44:38.873Z</time>
      </trkpt>
      <trkpt lat="43.68335" lon="1.4653">
        <ele>219.463103</ele>
        <time>2022-07-31T12:44:41.881Z</time>
      </trkpt>
      <trkpt lat="43.68329" lon="1.46542">
        <ele>220.398726</ele>
        <time>2022-07-31T12:44:44.898Z</time>
      </trkpt>
      <trkpt lat="43.68323" lon="1.46552">
        <ele>221.01429</ele>
        <time>2022-07-31T12:44:47.859Z</time>
      </trkpt>
      <trkpt lat="43.68318" lon="1.46564">
        <ele>221.661097</ele>
        <time>2022-07-31T12:44:50.885Z</time>
      </trkpt>
      <trkpt lat="43.68313" lon="1.46576">
        <ele>222.297874</ele>
        <time>2022-07-31T12:44:53.865Z</time>
      </trkpt>
      <trkpt lat="43.68307" lon="1.4659">
        <ele>223.052092</ele>
        <time>2022-07-31T12:44:56.861Z</time>
      </trkpt>
      <trkpt lat="43.68302" lon="1.46606">
        <ele>223.894295</ele>
        <time>2022-07-31T12:44:59.878Z</time>
      </trkpt>
      <trkpt lat="43.68297" lon="1.46623">
        <ele>224.752322</ele>
        <time>2022-07-31T12:45:02.879Z</time>
      </trkpt>
      <trkpt lat="43.68293" lon="1.4664">
        <ele>225.565891</ele>
        <time>2022-07-31T12:45:05.880Z</time>
      </trkpt>
      <trkpt lat="43.68289" lon="1.46657">
        <ele>226.398257</ele>
        <time>2022-07-31T12:45:08.849Z</time>
      </trkpt>
      <trkpt lat="43.68286" lon="1.46673">
        <ele>227.211168</ele>
        <time>2022-07-31T12:45:11.867Z</time>
      </trkpt>
      <trkpt lat="43.68291" lon="1.46686">
        <ele>227.90152</ele>
        <time>2022-07-31T12:45:14.870Z</time>
      </trkpt>
      <trkpt lat="43.683" lon="1.46696">
        <ele>228.604192</ele>
        <time>2022-07-31T12:45:17.880Z</time>
      </trkpt>
      <trkpt lat="43.68309" lon="1.46707">
        <ele>229.392705</ele>
        <time>2022-07-31T12:45:20.876Z</time>
      </trkpt>
      <trkpt lat="43.68318" lon="1.46719">
        <ele>230.217716</ele>
        <time>2022-07-31T12:45:23.881Z</time>
      </trkpt>
      <trkpt lat="43.68328" lon="1.46733">
        <ele>231.096763</ele>
        <time>2022-07-31T12:45:26.875Z</time>
      </trkpt>
      <trkpt lat="43.68334" lon="1.46742">
        <ele>231.698668</ele>
        <time>2022-07-31T12:45:28.891Z</time>
      </trkpt>
      <trkpt lat="43.6834" lon="1.46752">
        <ele>232.121881</ele>
        <time>2022-07-31T12:45:30.904Z</time>
      </trkpt>
      <trkpt lat="43.68347" lon="1.46761">
        <ele>232.461627</ele>
        <time>2022-07-31T12:45:32.907Z</time>
      </trkpt>
      <trkpt lat="43.68354" lon="1.46771">
        <ele>232.793723</ele>
        <time>2022-07-31T12:45:34.903Z</time>
      </trkpt>
      <trkpt lat="43.68361" lon="1.4678">
        <ele>233.123411</ele>
        <time>2022-07-31T12:45:36.876Z</time>
      </trkpt>
      <trkpt lat="43.68368" lon="1.4679">
        <ele>233.453098</ele>
        <time>2022-07-31T12:45:38.883Z</time>
      </trkpt>
      <trkpt lat="43.68375" lon="1.46799">
        <ele>233.781037</ele>
        <time>2022-07-31T12:45:40.880Z</time>
      </trkpt>
      <trkpt lat="43.68382" lon="1.46809">
        <ele>234.119032</ele>
        <time>2022-07-31T12:45:42.886Z</time>
      </trkpt>
      <trkpt lat="43.68389" lon="1.46818">
        <ele>234.450116</ele>
        <time>2022-07-31T12:45:44.887Z</time>
      </trkpt>
      <trkpt lat="43.68396" lon="1.46828">
        <ele>234.776315</ele>
        <time>2022-07-31T12:45:46.882Z</time>
      </trkpt>
      <trkpt lat="43.68403" lon="1.46837">
        <ele>235.102316</ele>
        <time>2022-07-31T12:45:48.862Z</time>
      </trkpt>
      <trkpt lat="43.6841" lon="1.46846">
        <ele>235.435114</ele>
        <time>2022-07-31T12:45:50.861Z</time>
      </trkpt>
      <trkpt lat="43.68416" lon="1.46855">
        <ele>235.760322</ele>
        <time>2022-07-31T12:45:52.936Z</time>
      </trkpt>
      <trkpt lat="43.68426" lon="1.46865">
        <ele>236.157424</ele>
        <time>2022-07-31T12:45:55.859Z</time>
      </trkpt>
      <trkpt lat="43.68435" lon="1.46857">
        <ele>236.517974</ele>
        <time>2022-07-31T12:45:58.874Z</time>
      </trkpt>
      <trkpt lat="43.68442" lon="1.46847">
        <ele>236.858336</ele>
        <time>2022-07-31T12:46:00.837Z</time>
      </trkpt>
      <trkpt lat="43.68449" lon="1.46835">
        <ele>237.246507</ele>
        <time>2022-07-31T12:46:02.881Z</time>
      </trkpt>
      <trkpt lat="43.68457" lon="1.46823">
        <ele>237.660942</ele>
        <time>2022-07-31T12:46:04.863Z</time>
      </trkpt>
      <trkpt lat="43.68466" lon="1.46811">
        <ele>238.043115</ele>
        <time>2022-07-31T12:46:06.862Z</time>
      </trkpt>
      <trkpt lat="43.68477" lon="1.46804">
        <ele>238.093904</ele>
        <time>2022-07-31T12:46:08.878Z</time>
      </trkpt>
      <trkpt lat="43.68489" lon="1.468">
        <ele>238.144117</ele>
        <time>2022-07-31T12:46:10.866Z</time>
      </trkpt>
      <trkpt lat="43.68501" lon="1.468">
        <ele>238.192395</ele>
        <time>2022-07-31T12:46:12.873Z</time>
      </trkpt>
      <trkpt lat="43.68512" lon="1.46803">
        <ele>238.239918</ele>
        <time>2022-07-31T12:46:14.866Z</time>
      </trkpt>
      <trkpt lat="43.68522" lon="1.46811">
        <ele>238.287267</ele>
        <time>2022-07-31T12:46:16.877Z</time>
      </trkpt>
      <trkpt lat="43.6853" lon="1.46822">
        <ele>238.335352</ele>
        <time>2022-07-31T12:46:18.875Z</time>
      </trkpt>
      <trkpt lat="43.68537" lon="1.46836">
        <ele>238.38607</ele>
        <time>2022-07-31T12:46:20.873Z</time>
      </trkpt>
      <trkpt lat="43.68544" lon="1.4685">
        <ele>238.437757</ele>
        <time>2022-07-31T12:46:22.866Z</time>
      </trkpt>
      <trkpt lat="43.68551" lon="1.46863">
        <ele>238.488236</ele>
        <time>2022-07-31T12:46:24.883Z</time>
      </trkpt>
      <trkpt lat="43.68554" lon="1.46878">
        <ele>238.535061</ele>
        <time>2022-07-31T12:46:26.869Z</time>
      </trkpt>
      <trkpt lat="43.68553" lon="1.46893">
        <ele>238.578598</ele>
        <time>2022-07-31T12:46:28.884Z</time>
      </trkpt>
      <trkpt lat="43.68551" lon="1.46906">
        <ele>238.619989</ele>
        <time>2022-07-31T12:46:30.863Z</time>
      </trkpt>
      <trkpt lat="43.68554" lon="1.4692">
        <ele>238.662245</ele>
        <time>2022-07-31T12:46:32.884Z</time>
      </trkpt>
      <trkpt lat="43.68561" lon="1.46931">
        <ele>238.707057</ele>
        <time>2022-07-31T12:46:34.890Z</time>
      </trkpt>
      <trkpt lat="43.6857" lon="1.46941">
        <ele>238.755472</ele>
        <time>2022-07-31T12:46:36.891Z</time>
      </trkpt>
      <trkpt lat="43.68579" lon="1.46952">
        <ele>238.613948</ele>
        <time>2022-07-31T12:46:38.884Z</time>
      </trkpt>
      <trkpt lat="43.68589" lon="1.46963">
        <ele>238.151426</ele>
        <time>2022-07-31T12:46:40.859Z</time>
      </trkpt>
      <trkpt lat="43.68598" lon="1.46975">
        <ele>237.681865</ele>
        <time>2022-07-31T12:46:42.869Z</time>
      </trkpt>
      <trkpt lat="43.68607" lon="1.46988">
        <ele>237.197508</ele>
        <time>2022-07-31T12:46:44.887Z</time>
      </trkpt>
      <trkpt lat="43.68616" lon="1.47003">
        <ele>236.681563</ele>
        <time>2022-07-31T12:46:46.876Z</time>
      </trkpt>
      <trkpt lat="43.68627" lon="1.47017">
        <ele>236.139901</ele>
        <time>2022-07-31T12:46:48.880Z</time>
      </trkpt>
      <trkpt lat="43.68638" lon="1.47031">
        <ele>235.582916</ele>
        <time>2022-07-31T12:46:50.879Z</time>
      </trkpt>
      <trkpt lat="43.68649" lon="1.47046">
        <ele>235.025223</ele>
        <time>2022-07-31T12:46:52.884Z</time>
      </trkpt>
      <trkpt lat="43.6866" lon="1.47061">
        <ele>234.471882</ele>
        <time>2022-07-31T12:46:54.870Z</time>
      </trkpt>
      <trkpt lat="43.68671" lon="1.47075">
        <ele>233.915848</ele>
        <time>2022-07-31T12:46:56.878Z</time>
      </trkpt>
      <trkpt lat="43.68682" lon="1.47089">
        <ele>233.351687</ele>
        <time>2022-07-31T12:46:58.860Z</time>
      </trkpt>
      <trkpt lat="43.68695" lon="1.47102">
        <ele>232.773971</ele>
        <time>2022-07-31T12:47:00.897Z</time>
      </trkpt>
      <trkpt lat="43.68711" lon="1.471">
        <ele>232.190546</ele>
        <time>2022-07-31T12:47:02.844Z</time>
      </trkpt>
      <trkpt lat="43.68722" lon="1.47083">
        <ele>231.288971</ele>
        <time>2022-07-31T12:47:04.850Z</time>
      </trkpt>
      <trkpt lat="43.68733" lon="1.47065">
        <ele>230.361807</ele>
        <time>2022-07-31T12:47:06.855Z</time>
      </trkpt>
      <trkpt lat="43.68743" lon="1.47045">
        <ele>229.396882</ele>
        <time>2022-07-31T12:47:08.886Z</time>
      </trkpt>
      <trkpt lat="43.68759" lon="1.47036">
        <ele>228.474744</ele>
        <time>2022-07-31T12:47:10.875Z</time>
      </trkpt>
      <trkpt lat="43.68768" lon="1.47039">
        <ele>227.969012</ele>
        <time>2022-07-31T12:47:11.861Z</time>
      </trkpt>
      <trkpt lat="43.68776" lon="1.47045">
        <ele>227.463728</ele>
        <time>2022-07-31T12:47:12.870Z</time>
      </trkpt>
      <trkpt lat="43.68783" lon="1.47053">
        <ele>226.940034</ele>
        <time>2022-07-31T12:47:13.861Z</time>
      </trkpt>
      <trkpt lat="43.68791" lon="1.47061">
        <ele>226.418502</ele>
        <time>2022-07-31T12:47:14.859Z</time>
      </trkpt>
      <trkpt lat="43.68798" lon="1.47069">
        <ele>225.898048</ele>
        <time>2022-07-31T12:47:15.849Z</time>
      </trkpt>
      <trkpt lat="43.68805" lon="1.47078">
        <ele>225.369224</ele>
        <time>2022-07-31T12:47:16.864Z</time>
      </trkpt>
      <trkpt lat="43.68812" lon="1.47089">
        <ele>224.8157</ele>
        <time>2022-07-31T12:47:17.892Z</time>
      </trkpt>
      <trkpt lat="43.68818" lon="1.471">
        <ele>224.261891</ele>
        <time>2022-07-31T12:47:18.887Z</time>
      </trkpt>
      <trkpt lat="43.68825" lon="1.47112">
        <ele>223.663046</ele>
        <time>2022-07-31T12:47:19.867Z</time>
      </trkpt>
      <trkpt lat="43.68833" lon="1.47122">
        <ele>223.022529</ele>
        <time>2022-07-31T12:47:20.848Z</time>
      </trkpt>
      <trkpt lat="43.68843" lon="1.47132">
        <ele>222.365535</ele>
        <time>2022-07-31T12:47:21.836Z</time>
      </trkpt>
      <trkpt lat="43.68853" lon="1.47142">
        <ele>222.555071</ele>
        <time>2022-07-31T12:47:22.857Z</time>
      </trkpt>
      <trkpt lat="43.68862" lon="1.47153">
        <ele>222.832398</ele>
        <time>2022-07-31T12:47:23.880Z</time>
      </trkpt>
      <trkpt lat="43.6887" lon="1.47163">
        <ele>223.096224</ele>
        <time>2022-07-31T12:47:24.874Z</time>
      </trkpt>
      <trkpt lat="43.68878" lon="1.47173">
        <ele>223.341096</ele>
        <time>2022-07-31T12:47:25.879Z</time>
      </trkpt>
      <trkpt lat="43.68885" lon="1.47182">
        <ele>223.567071</ele>
        <time>2022-07-31T12:47:26.865Z</time>
      </trkpt>
      <trkpt lat="43.68897" lon="1.47196">
        <ele>223.939323</ele>
        <time>2022-07-31T12:47:28.839Z</time>
      </trkpt>
      <trkpt lat="43.68907" lon="1.47208">
        <ele>224.235742</ele>
        <time>2022-07-31T12:47:30.863Z</time>
      </trkpt>
      <trkpt lat="43.68916" lon="1.47217">
        <ele>224.495136</ele>
        <time>2022-07-31T12:47:32.875Z</time>
      </trkpt>
      <trkpt lat="43.68924" lon="1.47227">
        <ele>224.743662</ele>
        <time>2022-07-31T12:47:34.863Z</time>
      </trkpt>
      <trkpt lat="43.68931" lon="1.47238">
        <ele>225.012309</ele>
        <time>2022-07-31T12:47:36.883Z</time>
      </trkpt>
      <trkpt lat="43.68936" lon="1.47253">
        <ele>225.287691</ele>
        <time>2022-07-31T12:47:38.915Z</time>
      </trkpt>
      <trkpt lat="43.68938" lon="1.47269">
        <ele>225.559641</ele>
        <time>2022-07-31T12:47:40.885Z</time>
      </trkpt>
      <trkpt lat="43.68935" lon="1.47284">
        <ele>225.822286</ele>
        <time>2022-07-31T12:47:42.876Z</time>
      </trkpt>
      <trkpt lat="43.68929" lon="1.47298">
        <ele>226.087101</ele>
        <time>2022-07-31T12:47:44.885Z</time>
      </trkpt>
      <trkpt lat="43.68923" lon="1.47311">
        <ele>226.353308</ele>
        <time>2022-07-31T12:47:46.867Z</time>
      </trkpt>
      <trkpt lat="43.68917" lon="1.47324">
        <ele>226.295058</ele>
        <time>2022-07-31T12:47:48.888Z</time>
      </trkpt>
      <trkpt lat="43.68912" lon="1.47338">
        <ele>225.77367</ele>
        <time>2022-07-31T12:47:50.870Z</time>
      </trkpt>
      <trkpt lat="43.68906" lon="1.47351">
        <ele>225.256805</ele>
        <time>2022-07-31T12:47:52.875Z</time>
      </trkpt>
      <trkpt lat="43.68902" lon="1.47365">
        <ele>224.743972</ele>
        <time>2022-07-31T12:47:54.874Z</time>
      </trkpt>
      <trkpt lat="43.68902" lon="1.47381">
        <ele>224.229833</ele>
        <time>2022-07-31T12:47:56.862Z</time>
      </trkpt>
      <trkpt lat="43.68909" lon="1.47394">
        <ele>223.678491</ele>
        <time>2022-07-31T12:47:58.869Z</time>
      </trkpt>
      <trkpt lat="43.6892" lon="1.47405">
        <ele>223.091661</ele>
        <time>2022-07-31T12:48:00.858Z</time>
      </trkpt>
      <trkpt lat="43.68929" lon="1.47416">
        <ele>222.525053</ele>
        <time>2022-07-31T12:48:02.864Z</time>
      </trkpt>
      <trkpt lat="43.68935" lon="1.47427">
        <ele>222.059896</ele>
        <time>2022-07-31T12:48:04.861Z</time>
      </trkpt>
      <trkpt lat="43.68946" lon="1.47433">
        <ele>221.518785</ele>
        <time>2022-07-31T12:48:08.869Z</time>
      </trkpt>
      <trkpt lat="43.68959" lon="1.47429">
        <ele>220.934384</ele>
        <time>2022-07-31T12:48:11.885Z</time>
      </trkpt>
      <trkpt lat="43.68969" lon="1.47422">
        <ele>220.416261</ele>
        <time>2022-07-31T12:48:13.870Z</time>
      </trkpt>
      <trkpt lat="43.6898" lon="1.47415">
        <ele>219.85077</ele>
        <time>2022-07-31T12:48:15.860Z</time>
      </trkpt>
      <trkpt lat="43.68993" lon="1.47408">
        <ele>219.188084</ele>
        <time>2022-07-31T12:48:17.860Z</time>
      </trkpt>
      <trkpt lat="43.69009" lon="1.47399">
        <ele>218.419532</ele>
        <time>2022-07-31T12:48:19.878Z</time>
      </trkpt>
      <trkpt lat="43.69017" lon="1.47394">
        <ele>218.390935</ele>
        <time>2022-07-31T12:48:20.871Z</time>
      </trkpt>
      <trkpt lat="43.69026" lon="1.47388">
        <ele>218.749981</ele>
        <time>2022-07-31T12:48:21.862Z</time>
      </trkpt>
      <trkpt lat="43.69034" lon="1.47381">
        <ele>219.092744</ele>
        <time>2022-07-31T12:48:22.866Z</time>
      </trkpt>
      <trkpt lat="43.69045" lon="1.47371">
        <ele>219.563712</ele>
        <time>2022-07-31T12:48:24.877Z</time>
      </trkpt>
      <trkpt lat="43.69056" lon="1.47369">
        <ele>219.966721</ele>
        <time>2022-07-31T12:48:29.877Z</time>
      </trkpt>
      <trkpt lat="43.69062" lon="1.47378">
        <ele>220.300286</ele>
        <time>2022-07-31T12:48:31.877Z</time>
      </trkpt>
      <trkpt lat="43.69068" lon="1.47389">
        <ele>220.660731</ele>
        <time>2022-07-31T12:48:33.880Z</time>
      </trkpt>
      <trkpt lat="43.69075" lon="1.474">
        <ele>221.047191</ele>
        <time>2022-07-31T12:48:35.869Z</time>
      </trkpt>
      <trkpt lat="43.6908" lon="1.47411">
        <ele>221.379575</ele>
        <time>2022-07-31T12:48:37.871Z</time>
      </trkpt>
      <trkpt lat="43.69086" lon="1.47421">
        <ele>221.719495</ele>
        <time>2022-07-31T12:48:39.869Z</time>
      </trkpt>
      <trkpt lat="43.69092" lon="1.47432">
        <ele>222.083772</ele>
        <time>2022-07-31T12:48:41.879Z</time>
      </trkpt>
      <trkpt lat="43.69097" lon="1.47444">
        <ele>222.450865</ele>
        <time>2022-07-31T12:48:43.889Z</time>
      </trkpt>
      <trkpt lat="43.69102" lon="1.47455">
        <ele>222.784901</ele>
        <time>2022-07-31T12:48:45.867Z</time>
      </trkpt>
      <trkpt lat="43.69107" lon="1.4747">
        <ele>223.233344</ele>
        <time>2022-07-31T12:48:48.869Z</time>
      </trkpt>
      <trkpt lat="43.69111" lon="1.47484">
        <ele>223.631499</ele>
        <time>2022-07-31T12:48:51.860Z</time>
      </trkpt>
      <trkpt lat="43.69115" lon="1.475">
        <ele>224.068405</ele>
        <time>2022-07-31T12:48:55.874Z</time>
      </trkpt>
      <trkpt lat="43.69119" lon="1.47513">
        <ele>224.43496</ele>
        <time>2022-07-31T12:48:58.852Z</time>
      </trkpt>
      <trkpt lat="43.69122" lon="1.47527">
        <ele>224.915224</ele>
        <time>2022-07-31T12:49:01.881Z</time>
      </trkpt>
      <trkpt lat="43.69125" lon="1.47541">
        <ele>225.804269</ele>
        <time>2022-07-31T12:49:04.867Z</time>
      </trkpt>
      <trkpt lat="43.69128" lon="1.47555">
        <ele>226.68074</ele>
        <time>2022-07-31T12:49:07.833Z</time>
      </trkpt>
      <trkpt lat="43.69132" lon="1.47569">
        <ele>227.578096</ele>
        <time>2022-07-31T12:49:10.876Z</time>
      </trkpt>
      <trkpt lat="43.69136" lon="1.47583">
        <ele>228.462528</ele>
        <time>2022-07-31T12:49:13.855Z</time>
      </trkpt>
      <trkpt lat="43.69142" lon="1.47595">
        <ele>229.35731</ele>
        <time>2022-07-31T12:49:16.920Z</time>
      </trkpt>
      <trkpt lat="43.69148" lon="1.47608">
        <ele>230.23247</ele>
        <time>2022-07-31T12:49:19.872Z</time>
      </trkpt>
      <trkpt lat="43.69154" lon="1.47619">
        <ele>231.086625</ele>
        <time>2022-07-31T12:49:22.870Z</time>
      </trkpt>
      <trkpt lat="43.6916" lon="1.4763">
        <ele>231.901573</ele>
        <time>2022-07-31T12:49:25.865Z</time>
      </trkpt>
      <trkpt lat="43.69167" lon="1.47639">
        <ele>232.695461</ele>
        <time>2022-07-31T12:49:28.848Z</time>
      </trkpt>
      <trkpt lat="43.69175" lon="1.47647">
        <ele>233.536709</ele>
        <time>2022-07-31T12:49:31.880Z</time>
      </trkpt>
      <trkpt lat="43.69185" lon="1.47654">
        <ele>234.43167</ele>
        <time>2022-07-31T12:49:34.848Z</time>
      </trkpt>
      <trkpt lat="43.69195" lon="1.47663">
        <ele>235.39519</ele>
        <time>2022-07-31T12:49:37.847Z</time>
      </trkpt>
      <trkpt lat="43.69205" lon="1.47671">
        <ele>236.363801</ele>
        <time>2022-07-31T12:49:40.874Z</time>
      </trkpt>
      <trkpt lat="43.69214" lon="1.47679">
        <ele>237.313044</ele>
        <time>2022-07-31T12:49:43.861Z</time>
      </trkpt>
      <trkpt lat="43.69223" lon="1.47688">
        <ele>238.192059</ele>
        <time>2022-07-31T12:49:46.867Z</time>
      </trkpt>
      <trkpt lat="43.69234" lon="1.47696">
        <ele>239.210843</ele>
        <time>2022-07-31T12:49:49.880Z</time>
      </trkpt>
      <trkpt lat="43.69242" lon="1.47704">
        <ele>239.726168</ele>
        <time>2022-07-31T12:49:51.853Z</time>
      </trkpt>
      <trkpt lat="43.69251" lon="1.47712">
        <ele>239.93165</ele>
        <time>2022-07-31T12:49:53.876Z</time>
      </trkpt>
      <trkpt lat="43.69261" lon="1.47721">
        <ele>240.160504</ele>
        <time>2022-07-31T12:49:55.844Z</time>
      </trkpt>
      <trkpt lat="43.69272" lon="1.47732">
        <ele>240.412203</ele>
        <time>2022-07-31T12:49:57.871Z</time>
      </trkpt>
      <trkpt lat="43.69282" lon="1.47745">
        <ele>240.666326</ele>
        <time>2022-07-31T12:49:59.882Z</time>
      </trkpt>
      <trkpt lat="43.69291" lon="1.47756">
        <ele>240.898869</ele>
        <time>2022-07-31T12:50:01.892Z</time>
      </trkpt>
      <trkpt lat="43.693" lon="1.47766">
        <ele>241.11833</ele>
        <time>2022-07-31T12:50:03.871Z</time>
      </trkpt>
      <trkpt lat="43.6931" lon="1.47775">
        <ele>241.326924</ele>
        <time>2022-07-31T12:50:05.852Z</time>
      </trkpt>
      <trkpt lat="43.6932" lon="1.4778">
        <ele>241.536063</ele>
        <time>2022-07-31T12:50:07.879Z</time>
      </trkpt>
      <trkpt lat="43.69332" lon="1.47781">
        <ele>241.755267</ele>
        <time>2022-07-31T12:50:09.854Z</time>
      </trkpt>
      <trkpt lat="43.69344" lon="1.4778">
        <ele>241.979882</ele>
        <time>2022-07-31T12:50:11.871Z</time>
      </trkpt>
      <trkpt lat="43.69356" lon="1.4778">
        <ele>242.206404</ele>
        <time>2022-07-31T12:50:13.895Z</time>
      </trkpt>
      <trkpt lat="43.69368" lon="1.47778">
        <ele>242.429674</ele>
        <time>2022-07-31T12:50:15.858Z</time>
      </trkpt>
      <trkpt lat="43.6938" lon="1.47778">
        <ele>242.650486</ele>
        <time>2022-07-31T12:50:17.879Z</time>
      </trkpt>
      <trkpt lat="43.69392" lon="1.47778">
        <ele>242.876912</ele>
        <time>2022-07-31T12:50:19.885Z</time>
      </trkpt>
      <trkpt lat="43.69404" lon="1.47778">
        <ele>243.165687</ele>
        <time>2022-07-31T12:50:21.871Z</time>
      </trkpt>
      <trkpt lat="43.69416" lon="1.47778">
        <ele>243.554533</ele>
        <time>2022-07-31T12:50:23.875Z</time>
      </trkpt>
      <trkpt lat="43.69427" lon="1.47778">
        <ele>243.936768</ele>
        <time>2022-07-31T12:50:25.852Z</time>
      </trkpt>
      <trkpt lat="43.69438" lon="1.47775">
        <ele>244.310875</ele>
        <time>2022-07-31T12:50:27.844Z</time>
      </trkpt>
      <trkpt lat="43.69447" lon="1.47764">
        <ele>244.69041</ele>
        <time>2022-07-31T12:50:29.857Z</time>
      </trkpt>
      <trkpt lat="43.69453" lon="1.47751">
        <ele>245.053426</ele>
        <time>2022-07-31T12:50:31.861Z</time>
      </trkpt>
      <trkpt lat="43.69458" lon="1.47738">
        <ele>245.406342</ele>
        <time>2022-07-31T12:50:33.864Z</time>
      </trkpt>
      <trkpt lat="43.69464" lon="1.47725">
        <ele>245.780467</ele>
        <time>2022-07-31T12:50:35.850Z</time>
      </trkpt>
      <trkpt lat="43.6947" lon="1.47711">
        <ele>246.157718</ele>
        <time>2022-07-31T12:50:37.854Z</time>
      </trkpt>
      <trkpt lat="43.69475" lon="1.477">
        <ele>246.490197</ele>
        <time>2022-07-31T12:50:39.839Z</time>
      </trkpt>
      <trkpt lat="43.69481" lon="1.47688">
        <ele>246.837728</ele>
        <time>2022-07-31T12:50:41.851Z</time>
      </trkpt>
      <trkpt lat="43.69485" lon="1.47674">
        <ele>247.187314</ele>
        <time>2022-07-31T12:50:43.880Z</time>
      </trkpt>
      <trkpt lat="43.69487" lon="1.47659">
        <ele>247.552467</ele>
        <time>2022-07-31T12:50:45.853Z</time>
      </trkpt>
      <trkpt lat="43.6949" lon="1.47643">
        <ele>247.933906</ele>
        <time>2022-07-31T12:50:47.860Z</time>
      </trkpt>
      <trkpt lat="43.69492" lon="1.47628">
        <ele>248.317246</ele>
        <time>2022-07-31T12:50:49.880Z</time>
      </trkpt>
      <trkpt lat="43.69494" lon="1.47613">
        <ele>248.67612</ele>
        <time>2022-07-31T12:50:51.857Z</time>
      </trkpt>
      <trkpt lat="43.69497" lon="1.47598">
        <ele>249.040514</ele>
        <time>2022-07-31T12:50:53.889Z</time>
      </trkpt>
      <trkpt lat="43.69501" lon="1.47584">
        <ele>249.412098</ele>
        <time>2022-07-31T12:50:55.873Z</time>
      </trkpt>
      <trkpt lat="43.69506" lon="1.4757">
        <ele>249.79943</ele>
        <time>2022-07-31T12:50:57.879Z</time>
      </trkpt>
      <trkpt lat="43.69513" lon="1.47558">
        <ele>250.183496</ele>
        <time>2022-07-31T12:50:59.858Z</time>
      </trkpt>
      <trkpt lat="43.6952" lon="1.47548">
        <ele>250.521151</ele>
        <time>2022-07-31T12:51:01.852Z</time>
      </trkpt>
      <trkpt lat="43.69527" lon="1.47537">
        <ele>250.895662</ele>
        <time>2022-07-31T12:51:03.847Z</time>
      </trkpt>
      <trkpt lat="43.69534" lon="1.47526">
        <ele>251.2395</ele>
        <time>2022-07-31T12:51:05.855Z</time>
      </trkpt>
      <trkpt lat="43.69541" lon="1.47515">
        <ele>251.607597</ele>
        <time>2022-07-31T12:51:08.854Z</time>
      </trkpt>
      <trkpt lat="43.69552" lon="1.47523">
        <ele>252.042917</ele>
        <time>2022-07-31T12:51:12.839Z</time>
      </trkpt>
      <trkpt lat="43.69564" lon="1.47534">
        <ele>252.507681</ele>
        <time>2022-07-31T12:51:15.858Z</time>
      </trkpt>
      <trkpt lat="43.69573" lon="1.47543">
        <ele>252.8885</ele>
        <time>2022-07-31T12:51:17.846Z</time>
      </trkpt>
      <trkpt lat="43.69578" lon="1.47557">
        <ele>253.276973</ele>
        <time>2022-07-31T12:51:19.865Z</time>
      </trkpt>
      <trkpt lat="43.6958" lon="1.47573">
        <ele>253.679648</ele>
        <time>2022-07-31T12:51:21.880Z</time>
      </trkpt>
      <trkpt lat="43.69582" lon="1.47589">
        <ele>254.084756</ele>
        <time>2022-07-31T12:51:23.862Z</time>
      </trkpt>
      <trkpt lat="43.69586" lon="1.47605">
        <ele>254.496026</ele>
        <time>2022-07-31T12:51:25.869Z</time>
      </trkpt>
      <trkpt lat="43.69591" lon="1.4762">
        <ele>254.903741</ele>
        <time>2022-07-31T12:51:27.862Z</time>
      </trkpt>
      <trkpt lat="43.69597" lon="1.47635">
        <ele>255.157148</ele>
        <time>2022-07-31T12:51:29.860Z</time>
      </trkpt>
      <trkpt lat="43.69602" lon="1.47648">
        <ele>255.286022</ele>
        <time>2022-07-31T12:51:31.850Z</time>
      </trkpt>
      <trkpt lat="43.69608" lon="1.47663">
        <ele>255.419215</ele>
        <time>2022-07-31T12:51:33.860Z</time>
      </trkpt>
      <trkpt lat="43.69614" lon="1.47677">
        <ele>255.555005</ele>
        <time>2022-07-31T12:51:35.860Z</time>
      </trkpt>
      <trkpt lat="43.69619" lon="1.47691">
        <ele>255.687292</ele>
        <time>2022-07-31T12:51:37.875Z</time>
      </trkpt>
      <trkpt lat="43.69625" lon="1.47705">
        <ele>255.818144</ele>
        <time>2022-07-31T12:51:39.854Z</time>
      </trkpt>
      <trkpt lat="43.6963" lon="1.47719">
        <ele>255.943244</ele>
        <time>2022-07-31T12:51:41.865Z</time>
      </trkpt>
      <trkpt lat="43.69636" lon="1.47732">
        <ele>256.072256</ele>
        <time>2022-07-31T12:51:43.872Z</time>
      </trkpt>
      <trkpt lat="43.6964" lon="1.47745">
        <ele>256.18555</ele>
        <time>2022-07-31T12:51:45.873Z</time>
      </trkpt>
      <trkpt lat="43.69642" lon="1.47759">
        <ele>256.299518</ele>
        <time>2022-07-31T12:51:53.912Z</time>
      </trkpt>
      <trkpt lat="43.69648" lon="1.47767">
        <ele>256.402087</ele>
        <time>2022-07-31T12:51:56.874Z</time>
      </trkpt>
      <trkpt lat="43.69659" lon="1.47778">
        <ele>256.550946</ele>
        <time>2022-07-31T12:51:59.853Z</time>
      </trkpt>
      <trkpt lat="43.69667" lon="1.47786">
        <ele>256.664068</ele>
        <time>2022-07-31T12:52:01.867Z</time>
      </trkpt>
      <trkpt lat="43.69675" lon="1.47796">
        <ele>256.787849</ele>
        <time>2022-07-31T12:52:03.897Z</time>
      </trkpt>
      <trkpt lat="43.69684" lon="1.47807">
        <ele>256.921473</ele>
        <time>2022-07-31T12:52:05.881Z</time>
      </trkpt>
      <trkpt lat="43.69693" lon="1.47817">
        <ele>257.057788</ele>
        <time>2022-07-31T12:52:07.888Z</time>
      </trkpt>
      <trkpt lat="43.69704" lon="1.47827">
        <ele>256.882997</ele>
        <time>2022-07-31T12:52:09.855Z</time>
      </trkpt>
      <trkpt lat="43.69715" lon="1.47834">
        <ele>256.509148</ele>
        <time>2022-07-31T12:52:11.884Z</time>
      </trkpt>
      <trkpt lat="43.69726" lon="1.47839">
        <ele>256.135978</ele>
        <time>2022-07-31T12:52:13.889Z</time>
      </trkpt>
      <trkpt lat="43.69739" lon="1.4784">
        <ele>255.761153</ele>
        <time>2022-07-31T12:52:15.867Z</time>
      </trkpt>
      <trkpt lat="43.69751" lon="1.47839">
        <ele>255.378113</ele>
        <time>2022-07-31T12:52:17.874Z</time>
      </trkpt>
      <trkpt lat="43.69764" lon="1.47837">
        <ele>254.977192</ele>
        <time>2022-07-31T12:52:19.846Z</time>
      </trkpt>
      <trkpt lat="43.69778" lon="1.47833">
        <ele>254.560812</ele>
        <time>2022-07-31T12:52:21.871Z</time>
      </trkpt>
      <trkpt lat="43.69791" lon="1.47828">
        <ele>254.147319</ele>
        <time>2022-07-31T12:52:23.861Z</time>
      </trkpt>
      <trkpt lat="43.69804" lon="1.47822">
        <ele>253.724471</ele>
        <time>2022-07-31T12:52:25.868Z</time>
      </trkpt>
      <trkpt lat="43.69818" lon="1.47817">
        <ele>253.294576</ele>
        <time>2022-07-31T12:52:27.870Z</time>
      </trkpt>
      <trkpt lat="43.69832" lon="1.47811">
        <ele>252.859456</ele>
        <time>2022-07-31T12:52:29.856Z</time>
      </trkpt>
      <trkpt lat="43.69846" lon="1.47806">
        <ele>252.419591</ele>
        <time>2022-07-31T12:52:31.851Z</time>
      </trkpt>
      <trkpt lat="43.6986" lon="1.47801">
        <ele>251.976857</ele>
        <time>2022-07-31T12:52:33.869Z</time>
      </trkpt>
      <trkpt lat="43.69874" lon="1.47796">
        <ele>251.457413</ele>
        <time>2022-07-31T12:52:35.860Z</time>
      </trkpt>
      <trkpt lat="43.69886" lon="1.47782">
        <ele>250.591057</ele>
        <time>2022-07-31T12:52:37.868Z</time>
      </trkpt>
      <trkpt lat="43.69898" lon="1.47766">
        <ele>249.727062</ele>
        <time>2022-07-31T12:52:39.860Z</time>
      </trkpt>
      <trkpt lat="43.6991" lon="1.4775">
        <ele>248.847971</ele>
        <time>2022-07-31T12:52:41.870Z</time>
      </trkpt>
      <trkpt lat="43.69921" lon="1.47734">
        <ele>247.971773</ele>
        <time>2022-07-31T12:52:43.877Z</time>
      </trkpt>
      <trkpt lat="43.69932" lon="1.47717">
        <ele>247.08066</ele>
        <time>2022-07-31T12:52:45.863Z</time>
      </trkpt>
      <trkpt lat="43.69945" lon="1.477">
        <ele>246.149408</ele>
        <time>2022-07-31T12:52:47.873Z</time>
      </trkpt>
      <trkpt lat="43.69951" lon="1.47692">
        <ele>245.665545</ele>
        <time>2022-07-31T12:52:48.858Z</time>
      </trkpt>
      <trkpt lat="43.69958" lon="1.47683">
        <ele>245.172642</ele>
        <time>2022-07-31T12:52:49.859Z</time>
      </trkpt>
      <trkpt lat="43.69965" lon="1.47674">
        <ele>244.679738</ele>
        <time>2022-07-31T12:52:50.864Z</time>
      </trkpt>
      <trkpt lat="43.69972" lon="1.47665">
        <ele>244.171108</ele>
        <time>2022-07-31T12:52:51.863Z</time>
      </trkpt>
      <trkpt lat="43.69979" lon="1.47657">
        <ele>243.68596</ele>
        <time>2022-07-31T12:52:52.866Z</time>
      </trkpt>
      <trkpt lat="43.69986" lon="1.47649">
        <ele>243.194241</ele>
        <time>2022-07-31T12:52:53.843Z</time>
      </trkpt>
      <trkpt lat="43.7" lon="1.47635">
        <ele>242.250449</ele>
        <time>2022-07-31T12:52:55.887Z</time>
      </trkpt>
      <trkpt lat="43.70016" lon="1.47626">
        <ele>241.803873</ele>
        <time>2022-07-31T12:52:57.888Z</time>
      </trkpt>
      <trkpt lat="43.70033" lon="1.47621">
        <ele>241.507472</ele>
        <time>2022-07-31T12:52:59.858Z</time>
      </trkpt>
      <trkpt lat="43.7005" lon="1.4762">
        <ele>241.214651</ele>
        <time>2022-07-31T12:53:01.874Z</time>
      </trkpt>
      <trkpt lat="43.70067" lon="1.47623">
        <ele>240.922396</ele>
        <time>2022-07-31T12:53:03.867Z</time>
      </trkpt>
      <trkpt lat="43.70084" lon="1.47626">
        <ele>240.631399</ele>
        <time>2022-07-31T12:53:05.847Z</time>
      </trkpt>
      <trkpt lat="43.701" lon="1.47629">
        <ele>240.33925</ele>
        <time>2022-07-31T12:53:07.854Z</time>
      </trkpt>
      <trkpt lat="43.70117" lon="1.47631">
        <ele>240.049317</ele>
        <time>2022-07-31T12:53:09.852Z</time>
      </trkpt>
      <trkpt lat="43.70134" lon="1.47629">
        <ele>239.760716</ele>
        <time>2022-07-31T12:53:11.863Z</time>
      </trkpt>
      <trkpt lat="43.7015" lon="1.47623">
        <ele>239.474298</ele>
        <time>2022-07-31T12:53:13.837Z</time>
      </trkpt>
      <trkpt lat="43.70165" lon="1.47615">
        <ele>239.201305</ele>
        <time>2022-07-31T12:53:15.852Z</time>
      </trkpt>
      <trkpt lat="43.70179" lon="1.47608">
        <ele>238.940958</ele>
        <time>2022-07-31T12:53:17.858Z</time>
      </trkpt>
      <trkpt lat="43.70194" lon="1.47607">
        <ele>238.899548</ele>
        <time>2022-07-31T12:53:19.871Z</time>
      </trkpt>
      <trkpt lat="43.70207" lon="1.47612">
        <ele>238.866496</ele>
        <time>2022-07-31T12:53:21.867Z</time>
      </trkpt>
      <trkpt lat="43.70217" lon="1.47619">
        <ele>238.837082</ele>
        <time>2022-07-31T12:53:23.889Z</time>
      </trkpt>
      <trkpt lat="43.70227" lon="1.47627">
        <ele>238.809358</ele>
        <time>2022-07-31T12:53:25.876Z</time>
      </trkpt>
      <trkpt lat="43.70237" lon="1.47634">
        <ele>238.781935</ele>
        <time>2022-07-31T12:53:27.883Z</time>
      </trkpt>
      <trkpt lat="43.70247" lon="1.47642">
        <ele>238.753608</ele>
        <time>2022-07-31T12:53:29.867Z</time>
      </trkpt>
      <trkpt lat="43.70257" lon="1.4765">
        <ele>238.725067</ele>
        <time>2022-07-31T12:53:31.895Z</time>
      </trkpt>
      <trkpt lat="43.70268" lon="1.47658">
        <ele>238.695698</ele>
        <time>2022-07-31T12:53:33.879Z</time>
      </trkpt>
      <trkpt lat="43.70279" lon="1.47665">
        <ele>238.666061</ele>
        <time>2022-07-31T12:53:35.869Z</time>
      </trkpt>
      <trkpt lat="43.7029" lon="1.47672">
        <ele>238.635523</ele>
        <time>2022-07-31T12:53:37.876Z</time>
      </trkpt>
      <trkpt lat="43.70302" lon="1.47679">
        <ele>238.603783</ele>
        <time>2022-07-31T12:53:39.863Z</time>
      </trkpt>
      <trkpt lat="43.70315" lon="1.47686">
        <ele>238.569815</ele>
        <time>2022-07-31T12:53:41.881Z</time>
      </trkpt>
      <trkpt lat="43.70329" lon="1.47692">
        <ele>238.533475</ele>
        <time>2022-07-31T12:53:43.882Z</time>
      </trkpt>
      <trkpt lat="43.70343" lon="1.47699">
        <ele>238.494942</ele>
        <time>2022-07-31T12:53:45.848Z</time>
      </trkpt>
      <trkpt lat="43.70359" lon="1.47707">
        <ele>238.142536</ele>
        <time>2022-07-31T12:53:47.871Z</time>
      </trkpt>
      <trkpt lat="43.70375" lon="1.47716">
        <ele>237.763761</ele>
        <time>2022-07-31T12:53:49.854Z</time>
      </trkpt>
      <trkpt lat="43.70391" lon="1.47725">
        <ele>237.389563</ele>
        <time>2022-07-31T12:53:51.877Z</time>
      </trkpt>
      <trkpt lat="43.70406" lon="1.47732">
        <ele>237.020239</ele>
        <time>2022-07-31T12:53:53.898Z</time>
      </trkpt>
      <trkpt lat="43.70422" lon="1.47739">
        <ele>236.651451</ele>
        <time>2022-07-31T12:53:55.892Z</time>
      </trkpt>
      <trkpt lat="43.70437" lon="1.47746">
        <ele>236.287882</ele>
        <time>2022-07-31T12:53:57.884Z</time>
      </trkpt>
      <trkpt lat="43.70452" lon="1.47754">
        <ele>235.932236</ele>
        <time>2022-07-31T12:53:59.880Z</time>
      </trkpt>
      <trkpt lat="43.70467" lon="1.47761">
        <ele>235.591898</ele>
        <time>2022-07-31T12:54:01.854Z</time>
      </trkpt>
      <trkpt lat="43.70481" lon="1.47767">
        <ele>235.264348</ele>
        <time>2022-07-31T12:54:03.848Z</time>
      </trkpt>
      <trkpt lat="43.70495" lon="1.4777">
        <ele>234.949316</ele>
        <time>2022-07-31T12:54:05.861Z</time>
      </trkpt>
      <trkpt lat="43.70508" lon="1.47772">
        <ele>234.642461</ele>
        <time>2022-07-31T12:54:07.889Z</time>
      </trkpt>
      <trkpt lat="43.70522" lon="1.47774">
        <ele>234.442122</ele>
        <time>2022-07-31T12:54:09.879Z</time>
      </trkpt>
      <trkpt lat="43.70536" lon="1.47775">
        <ele>234.360192</ele>
        <time>2022-07-31T12:54:11.852Z</time>
      </trkpt>
      <trkpt lat="43.70549" lon="1.47777">
        <ele>234.279424</ele>
        <time>2022-07-31T12:54:13.893Z</time>
      </trkpt>
      <trkpt lat="43.70562" lon="1.47778">
        <ele>234.200678</ele>
        <time>2022-07-31T12:54:15.861Z</time>
      </trkpt>
      <trkpt lat="43.70575" lon="1.47779">
        <ele>234.121406</ele>
        <time>2022-07-31T12:54:17.877Z</time>
      </trkpt>
      <trkpt lat="43.70588" lon="1.47781">
        <ele>234.0411</ele>
        <time>2022-07-31T12:54:19.888Z</time>
      </trkpt>
      <trkpt lat="43.70601" lon="1.47784">
        <ele>233.960744</ele>
        <time>2022-07-31T12:54:21.863Z</time>
      </trkpt>
      <trkpt lat="43.70615" lon="1.47786">
        <ele>233.878637</ele>
        <time>2022-07-31T12:54:23.882Z</time>
      </trkpt>
      <trkpt lat="43.70629" lon="1.47788">
        <ele>233.794999</ele>
        <time>2022-07-31T12:54:25.885Z</time>
      </trkpt>
      <trkpt lat="43.70642" lon="1.47791">
        <ele>233.71229</ele>
        <time>2022-07-31T12:54:27.873Z</time>
      </trkpt>
      <trkpt lat="43.70655" lon="1.47794">
        <ele>233.63128</ele>
        <time>2022-07-31T12:54:29.855Z</time>
      </trkpt>
      <trkpt lat="43.70669" lon="1.47796">
        <ele>233.551355</ele>
        <time>2022-07-31T12:54:31.850Z</time>
      </trkpt>
      <trkpt lat="43.70682" lon="1.47799">
        <ele>233.471838</ele>
        <time>2022-07-31T12:54:33.878Z</time>
      </trkpt>
      <trkpt lat="43.70694" lon="1.47802">
        <ele>233.394777</ele>
        <time>2022-07-31T12:54:35.864Z</time>
      </trkpt>
      <trkpt lat="43.70707" lon="1.47806">
        <ele>233.251944</ele>
        <time>2022-07-31T12:54:37.895Z</time>
      </trkpt>
      <trkpt lat="43.70719" lon="1.4781">
        <ele>233.104543</ele>
        <time>2022-07-31T12:54:39.863Z</time>
      </trkpt>
      <trkpt lat="43.70731" lon="1.47815">
        <ele>232.961147</ele>
        <time>2022-07-31T12:54:41.893Z</time>
      </trkpt>
      <trkpt lat="43.70743" lon="1.47822">
        <ele>232.81858</ele>
        <time>2022-07-31T12:54:43.849Z</time>
      </trkpt>
      <trkpt lat="43.70755" lon="1.47828">
        <ele>232.678094</ele>
        <time>2022-07-31T12:54:45.864Z</time>
      </trkpt>
      <trkpt lat="43.70767" lon="1.47834">
        <ele>232.535691</ele>
        <time>2022-07-31T12:54:47.885Z</time>
      </trkpt>
      <trkpt lat="43.70778" lon="1.47841">
        <ele>232.391943</ele>
        <time>2022-07-31T12:54:49.870Z</time>
      </trkpt>
      <trkpt lat="43.7079" lon="1.47848">
        <ele>232.24625</ele>
        <time>2022-07-31T12:54:51.886Z</time>
      </trkpt>
      <trkpt lat="43.70803" lon="1.47854">
        <ele>232.091166</ele>
        <time>2022-07-31T12:54:53.864Z</time>
      </trkpt>
      <trkpt lat="43.70817" lon="1.47859">
        <ele>231.93578</ele>
        <time>2022-07-31T12:54:55.860Z</time>
      </trkpt>
      <trkpt lat="43.7083" lon="1.47861">
        <ele>231.780841</ele>
        <time>2022-07-31T12:54:57.861Z</time>
      </trkpt>
      <trkpt lat="43.70844" lon="1.47857">
        <ele>231.623528</ele>
        <time>2022-07-31T12:54:59.865Z</time>
      </trkpt>
      <trkpt lat="43.70856" lon="1.47846">
        <ele>231.461843</ele>
        <time>2022-07-31T12:55:01.850Z</time>
      </trkpt>
      <trkpt lat="43.70868" lon="1.47835">
        <ele>231.243002</ele>
        <time>2022-07-31T12:55:03.852Z</time>
      </trkpt>
      <trkpt lat="43.70879" lon="1.47825">
        <ele>230.967529</ele>
        <time>2022-07-31T12:55:05.882Z</time>
      </trkpt>
      <trkpt lat="43.70891" lon="1.47815">
        <ele>230.689862</ele>
        <time>2022-07-31T12:55:07.868Z</time>
      </trkpt>
      <trkpt lat="43.70905" lon="1.47808">
        <ele>230.397109</ele>
        <time>2022-07-31T12:55:09.897Z</time>
      </trkpt>
      <trkpt lat="43.7092" lon="1.47803">
        <ele>230.088505</ele>
        <time>2022-07-31T12:55:11.894Z</time>
      </trkpt>
      <trkpt lat="43.70935" lon="1.47801">
        <ele>229.783247</ele>
        <time>2022-07-31T12:55:13.858Z</time>
      </trkpt>
      <trkpt lat="43.70949" lon="1.47802">
        <ele>229.484371</ele>
        <time>2022-07-31T12:55:15.865Z</time>
      </trkpt>
      <trkpt lat="43.70964" lon="1.47804">
        <ele>229.186824</ele>
        <time>2022-07-31T12:55:17.896Z</time>
      </trkpt>
      <trkpt lat="43.70978" lon="1.47808">
        <ele>228.89279</ele>
        <time>2022-07-31T12:55:19.857Z</time>
      </trkpt>
      <trkpt lat="43.70991" lon="1.47816">
        <ele>228.60435</ele>
        <time>2022-07-31T12:55:21.850Z</time>
      </trkpt>
      <trkpt lat="43.71004" lon="1.47825">
        <ele>228.316626</ele>
        <time>2022-07-31T12:55:23.850Z</time>
      </trkpt>
      <trkpt lat="43.71016" lon="1.47832">
        <ele>228.039453</ele>
        <time>2022-07-31T12:55:25.874Z</time>
      </trkpt>
      <trkpt lat="43.71029" lon="1.47836">
        <ele>227.775494</ele>
        <time>2022-07-31T12:55:27.857Z</time>
      </trkpt>
      <trkpt lat="43.7104" lon="1.47844">
        <ele>227.67132</ele>
        <time>2022-07-31T12:55:29.850Z</time>
      </trkpt>
      <trkpt lat="43.71049" lon="1.47855">
        <ele>227.609792</ele>
        <time>2022-07-31T12:55:31.866Z</time>
      </trkpt>
      <trkpt lat="43.71059" lon="1.47865">
        <ele>227.545748</ele>
        <time>2022-07-31T12:55:33.892Z</time>
      </trkpt>
      <trkpt lat="43.71069" lon="1.47876">
        <ele>227.482147</ele>
        <time>2022-07-31T12:55:35.883Z</time>
      </trkpt>
      <trkpt lat="43.71079" lon="1.47886">
        <ele>227.418764</ele>
        <time>2022-07-31T12:55:37.908Z</time>
      </trkpt>
      <trkpt lat="43.7109" lon="1.47895">
        <ele>227.355289</ele>
        <time>2022-07-31T12:55:39.868Z</time>
      </trkpt>
      <trkpt lat="43.711" lon="1.47902">
        <ele>227.292636</ele>
        <time>2022-07-31T12:55:41.877Z</time>
      </trkpt>
      <trkpt lat="43.71111" lon="1.47911">
        <ele>227.230611</ele>
        <time>2022-07-31T12:55:43.880Z</time>
      </trkpt>
      <trkpt lat="43.71121" lon="1.4792">
        <ele>227.168395</ele>
        <time>2022-07-31T12:55:45.860Z</time>
      </trkpt>
      <trkpt lat="43.71132" lon="1.47927">
        <ele>227.107107</ele>
        <time>2022-07-31T12:55:47.859Z</time>
      </trkpt>
      <trkpt lat="43.71143" lon="1.47935">
        <ele>227.041785</ele>
        <time>2022-07-31T12:55:49.875Z</time>
      </trkpt>
      <trkpt lat="43.71156" lon="1.4794">
        <ele>226.973273</ele>
        <time>2022-07-31T12:55:51.869Z</time>
      </trkpt>
      <trkpt lat="43.7117" lon="1.47938">
        <ele>226.90397</ele>
        <time>2022-07-31T12:55:53.864Z</time>
      </trkpt>
      <trkpt lat="43.71182" lon="1.4793">
        <ele>226.832831</ele>
        <time>2022-07-31T12:55:55.846Z</time>
      </trkpt>
      <trkpt lat="43.71193" lon="1.47917">
        <ele>226.581062</ele>
        <time>2022-07-31T12:55:57.872Z</time>
      </trkpt>
      <trkpt lat="43.71202" lon="1.47903">
        <ele>226.190194</ele>
        <time>2022-07-31T12:55:59.890Z</time>
      </trkpt>
      <trkpt lat="43.71212" lon="1.47892">
        <ele>225.811185</ele>
        <time>2022-07-31T12:56:01.870Z</time>
      </trkpt>
      <trkpt lat="43.71219" lon="1.47876">
        <ele>225.428262</ele>
        <time>2022-07-31T12:56:03.882Z</time>
      </trkpt>
      <trkpt lat="43.71224" lon="1.47858">
        <ele>225.026835</ele>
        <time>2022-07-31T12:56:05.893Z</time>
      </trkpt>
      <trkpt lat="43.7123" lon="1.4784">
        <ele>224.627182</ele>
        <time>2022-07-31T12:56:07.862Z</time>
      </trkpt>
      <trkpt lat="43.71235" lon="1.47823">
        <ele>224.237349</ele>
        <time>2022-07-31T12:56:09.855Z</time>
      </trkpt>
      <trkpt lat="43.71239" lon="1.47804">
        <ele>223.835996</ele>
        <time>2022-07-31T12:56:11.874Z</time>
      </trkpt>
      <trkpt lat="43.71245" lon="1.47787">
        <ele>223.441011</ele>
        <time>2022-07-31T12:56:13.856Z</time>
      </trkpt>
      <trkpt lat="43.71252" lon="1.47771">
        <ele>223.054073</ele>
        <time>2022-07-31T12:56:15.860Z</time>
      </trkpt>
      <trkpt lat="43.71259" lon="1.47756">
        <ele>222.68105</ele>
        <time>2022-07-31T12:56:17.849Z</time>
      </trkpt>
      <trkpt lat="43.71267" lon="1.47741">
        <ele>222.301397</ele>
        <time>2022-07-31T12:56:19.864Z</time>
      </trkpt>
      <trkpt lat="43.71274" lon="1.47725">
        <ele>221.919252</ele>
        <time>2022-07-31T12:56:21.851Z</time>
      </trkpt>
      <trkpt lat="43.71279" lon="1.47708">
        <ele>221.67865</ele>
        <time>2022-07-31T12:56:23.888Z</time>
      </trkpt>
      <trkpt lat="43.71285" lon="1.47694">
        <ele>221.804788</ele>
        <time>2022-07-31T12:56:25.883Z</time>
      </trkpt>
      <trkpt lat="43.71291" lon="1.47684">
        <ele>221.895528</ele>
        <time>2022-07-31T12:56:27.874Z</time>
      </trkpt>
      <trkpt lat="43.713" lon="1.47687">
        <ele>221.988886</ele>
        <time>2022-07-31T12:56:30.867Z</time>
      </trkpt>
      <trkpt lat="43.71312" lon="1.47696">
        <ele>222.126954</ele>
        <time>2022-07-31T12:56:33.887Z</time>
      </trkpt>
      <trkpt lat="43.71321" lon="1.47705">
        <ele>222.23866</ele>
        <time>2022-07-31T12:56:35.879Z</time>
      </trkpt>
      <trkpt lat="43.71331" lon="1.47714">
        <ele>222.353644</ele>
        <time>2022-07-31T12:56:37.861Z</time>
      </trkpt>
      <trkpt lat="43.7134" lon="1.47724">
        <ele>222.473142</ele>
        <time>2022-07-31T12:56:39.846Z</time>
      </trkpt>
      <trkpt lat="43.7135" lon="1.47733">
        <ele>222.594287</ele>
        <time>2022-07-31T12:56:41.864Z</time>
      </trkpt>
      <trkpt lat="43.71361" lon="1.47743">
        <ele>222.71953</ele>
        <time>2022-07-31T12:56:43.858Z</time>
      </trkpt>
      <trkpt lat="43.71371" lon="1.47754">
        <ele>222.848155</ele>
        <time>2022-07-31T12:56:45.870Z</time>
      </trkpt>
      <trkpt lat="43.71381" lon="1.47763">
        <ele>222.970979</ele>
        <time>2022-07-31T12:56:47.875Z</time>
      </trkpt>
      <trkpt lat="43.71391" lon="1.47773">
        <ele>223.094171</ele>
        <time>2022-07-31T12:56:49.861Z</time>
      </trkpt>
      <trkpt lat="43.71401" lon="1.47782">
        <ele>223.213302</ele>
        <time>2022-07-31T12:56:51.879Z</time>
      </trkpt>
      <trkpt lat="43.71411" lon="1.4779">
        <ele>223.325503</ele>
        <time>2022-07-31T12:56:53.889Z</time>
      </trkpt>
      <trkpt lat="43.7142" lon="1.47795">
        <ele>223.419192</ele>
        <time>2022-07-31T12:56:56.867Z</time>
      </trkpt>
      <trkpt lat="43.71431" lon="1.478">
        <ele>223.578717</ele>
        <time>2022-07-31T12:57:00.846Z</time>
      </trkpt>
      <trkpt lat="43.71439" lon="1.47808">
        <ele>223.71264</ele>
        <time>2022-07-31T12:57:02.847Z</time>
      </trkpt>
      <trkpt lat="43.71448" lon="1.47817">
        <ele>223.860124</ele>
        <time>2022-07-31T12:57:04.876Z</time>
      </trkpt>
      <trkpt lat="43.71457" lon="1.47825">
        <ele>224.009874</ele>
        <time>2022-07-31T12:57:06.881Z</time>
      </trkpt>
      <trkpt lat="43.71467" lon="1.47834">
        <ele>224.170092</ele>
        <time>2022-07-31T12:57:09.849Z</time>
      </trkpt>
      <trkpt lat="43.71475" lon="1.47841">
        <ele>224.304556</ele>
        <time>2022-07-31T12:57:11.884Z</time>
      </trkpt>
      <trkpt lat="43.71484" lon="1.47851">
        <ele>224.461688</ele>
        <time>2022-07-31T12:57:13.862Z</time>
      </trkpt>
      <trkpt lat="43.71494" lon="1.4786">
        <ele>224.622703</ele>
        <time>2022-07-31T12:57:15.894Z</time>
      </trkpt>
      <trkpt lat="43.71504" lon="1.47869">
        <ele>224.786003</ele>
        <time>2022-07-31T12:57:17.874Z</time>
      </trkpt>
      <trkpt lat="43.71513" lon="1.47879">
        <ele>224.949275</ele>
        <time>2022-07-31T12:57:19.881Z</time>
      </trkpt>
      <trkpt lat="43.71523" lon="1.47888">
        <ele>225.108026</ele>
        <time>2022-07-31T12:57:21.888Z</time>
      </trkpt>
      <trkpt lat="43.71532" lon="1.47897">
        <ele>225.265381</ele>
        <time>2022-07-31T12:57:23.919Z</time>
      </trkpt>
      <trkpt lat="43.71541" lon="1.47905">
        <ele>225.410128</ele>
        <time>2022-07-31T12:57:25.862Z</time>
      </trkpt>
      <trkpt lat="43.7155" lon="1.47904">
        <ele>225.540249</ele>
        <time>2022-07-31T12:57:27.860Z</time>
      </trkpt>
      <trkpt lat="43.71558" lon="1.47894">
        <ele>225.685677</ele>
        <time>2022-07-31T12:57:29.855Z</time>
      </trkpt>
      <trkpt lat="43.71565" lon="1.47881">
        <ele>225.849154</ele>
        <time>2022-07-31T12:57:31.880Z</time>
      </trkpt>
      <trkpt lat="43.71573" lon="1.47868">
        <ele>225.719635</ele>
        <time>2022-07-31T12:57:33.861Z</time>
      </trkpt>
      <trkpt lat="43.71582" lon="1.47856">
        <ele>225.398489</ele>
        <time>2022-07-31T12:57:35.872Z</time>
      </trkpt>
      <trkpt lat="43.71591" lon="1.47844">
        <ele>225.068689</ele>
        <time>2022-07-31T12:57:37.868Z</time>
      </trkpt>
      <trkpt lat="43.71601" lon="1.47831">
        <ele>224.728806</ele>
        <time>2022-07-31T12:57:39.874Z</time>
      </trkpt>
      <trkpt lat="43.71609" lon="1.47817">
        <ele>224.378872</ele>
        <time>2022-07-31T12:57:41.872Z</time>
      </trkpt>
      <trkpt lat="43.71619" lon="1.47802">
        <ele>224.015606</ele>
        <time>2022-07-31T12:57:43.867Z</time>
      </trkpt>
      <trkpt lat="43.71629" lon="1.47788">
        <ele>223.643357</ele>
        <time>2022-07-31T12:57:45.897Z</time>
      </trkpt>
      <trkpt lat="43.71638" lon="1.47773">
        <ele>223.26834</ele>
        <time>2022-07-31T12:57:47.864Z</time>
      </trkpt>
      <trkpt lat="43.71648" lon="1.47758">
        <ele>222.896741</ele>
        <time>2022-07-31T12:57:49.902Z</time>
      </trkpt>
      <trkpt lat="43.71657" lon="1.47743">
        <ele>222.533027</ele>
        <time>2022-07-31T12:57:51.852Z</time>
      </trkpt>
      <trkpt lat="43.71666" lon="1.47728">
        <ele>222.178821</ele>
        <time>2022-07-31T12:57:53.888Z</time>
      </trkpt>
      <trkpt lat="43.71675" lon="1.47715">
        <ele>221.829092</ele>
        <time>2022-07-31T12:57:55.866Z</time>
      </trkpt>
      <trkpt lat="43.71684" lon="1.477">
        <ele>221.473649</ele>
        <time>2022-07-31T12:57:57.878Z</time>
      </trkpt>
      <trkpt lat="43.71693" lon="1.47686">
        <ele>221.165542</ele>
        <time>2022-07-31T12:57:59.862Z</time>
      </trkpt>
      <trkpt lat="43.71702" lon="1.47671">
        <ele>220.917692</ele>
        <time>2022-07-31T12:58:01.876Z</time>
      </trkpt>
      <trkpt lat="43.7171" lon="1.47656">
        <ele>220.676664</ele>
        <time>2022-07-31T12:58:03.864Z</time>
      </trkpt>
      <trkpt lat="43.71719" lon="1.47642">
        <ele>220.438493</ele>
        <time>2022-07-31T12:58:05.904Z</time>
      </trkpt>
      <trkpt lat="43.71727" lon="1.47628">
        <ele>220.201598</ele>
        <time>2022-07-31T12:58:07.906Z</time>
      </trkpt>
      <trkpt lat="43.71736" lon="1.47614">
        <ele>219.966858</ele>
        <time>2022-07-31T12:58:09.882Z</time>
      </trkpt>
      <trkpt lat="43.71745" lon="1.47601">
        <ele>219.739078</ele>
        <time>2022-07-31T12:58:11.861Z</time>
      </trkpt>
      <trkpt lat="43.71753" lon="1.47588">
        <ele>219.510792</ele>
        <time>2022-07-31T12:58:13.874Z</time>
      </trkpt>
      <trkpt lat="43.71761" lon="1.47575">
        <ele>219.288287</ele>
        <time>2022-07-31T12:58:15.880Z</time>
      </trkpt>
      <trkpt lat="43.7177" lon="1.47563">
        <ele>219.061824</ele>
        <time>2022-07-31T12:58:17.857Z</time>
      </trkpt>
      <trkpt lat="43.71779" lon="1.4755">
        <ele>218.839562</ele>
        <time>2022-07-31T12:58:19.872Z</time>
      </trkpt>
      <trkpt lat="43.71787" lon="1.47537">
        <ele>218.617722</ele>
        <time>2022-07-31T12:58:21.880Z</time>
      </trkpt>
      <trkpt lat="43.71795" lon="1.47524">
        <ele>218.394079</ele>
        <time>2022-07-31T12:58:23.871Z</time>
      </trkpt>
      <trkpt lat="43.71803" lon="1.47511">
        <ele>218.172417</ele>
        <time>2022-07-31T12:58:25.857Z</time>
      </trkpt>
      <trkpt lat="43.71811" lon="1.47497">
        <ele>217.890042</ele>
        <time>2022-07-31T12:58:27.853Z</time>
      </trkpt>
      <trkpt lat="43.71819" lon="1.47485">
        <ele>217.557774</ele>
        <time>2022-07-31T12:58:29.868Z</time>
      </trkpt>
      <trkpt lat="43.71827" lon="1.47471">
        <ele>217.218255</ele>
        <time>2022-07-31T12:58:31.880Z</time>
      </trkpt>
      <trkpt lat="43.71836" lon="1.47458">
        <ele>216.865785</ele>
        <time>2022-07-31T12:58:33.902Z</time>
      </trkpt>
      <trkpt lat="43.71845" lon="1.47444">
        <ele>216.503114</ele>
        <time>2022-07-31T12:58:35.873Z</time>
      </trkpt>
      <trkpt lat="43.71854" lon="1.47429">
        <ele>216.123087</ele>
        <time>2022-07-31T12:58:37.895Z</time>
      </trkpt>
      <trkpt lat="43.71863" lon="1.47414">
        <ele>215.738351</ele>
        <time>2022-07-31T12:58:39.881Z</time>
      </trkpt>
      <trkpt lat="43.71873" lon="1.47399">
        <ele>215.346157</ele>
        <time>2022-07-31T12:58:41.879Z</time>
      </trkpt>
      <trkpt lat="43.71883" lon="1.47383">
        <ele>214.942828</ele>
        <time>2022-07-31T12:58:43.863Z</time>
      </trkpt>
      <trkpt lat="43.71892" lon="1.47367">
        <ele>214.533287</ele>
        <time>2022-07-31T12:58:45.855Z</time>
      </trkpt>
      <trkpt lat="43.71902" lon="1.47351">
        <ele>214.118801</ele>
        <time>2022-07-31T12:58:47.851Z</time>
      </trkpt>
      <trkpt lat="43.71913" lon="1.47335">
        <ele>213.700551</ele>
        <time>2022-07-31T12:58:49.886Z</time>
      </trkpt>
      <trkpt lat="43.71923" lon="1.47319">
        <ele>213.282704</ele>
        <time>2022-07-31T12:58:51.850Z</time>
      </trkpt>
      <trkpt lat="43.71933" lon="1.47304">
        <ele>213.130533</ele>
        <time>2022-07-31T12:58:53.888Z</time>
      </trkpt>
      <trkpt lat="43.71943" lon="1.47289">
        <ele>213.033172</ele>
        <time>2022-07-31T12:58:55.882Z</time>
      </trkpt>
      <trkpt lat="43.71952" lon="1.47274">
        <ele>212.938546</ele>
        <time>2022-07-31T12:58:57.897Z</time>
      </trkpt>
      <trkpt lat="43.7196" lon="1.47259">
        <ele>212.847025</ele>
        <time>2022-07-31T12:58:59.870Z</time>
      </trkpt>
      <trkpt lat="43.71969" lon="1.47245">
        <ele>212.753446</ele>
        <time>2022-07-31T12:59:01.908Z</time>
      </trkpt>
      <trkpt lat="43.71979" lon="1.47231">
        <ele>212.659612</ele>
        <time>2022-07-31T12:59:03.858Z</time>
      </trkpt>
      <trkpt lat="43.71989" lon="1.47218">
        <ele>212.567762</ele>
        <time>2022-07-31T12:59:05.876Z</time>
      </trkpt>
      <trkpt lat="43.71998" lon="1.47205">
        <ele>212.477114</ele>
        <time>2022-07-31T12:59:07.888Z</time>
      </trkpt>
      <trkpt lat="43.72007" lon="1.47191">
        <ele>212.38833</ele>
        <time>2022-07-31T12:59:09.847Z</time>
      </trkpt>
      <trkpt lat="43.72017" lon="1.47179">
        <ele>212.297637</ele>
        <time>2022-07-31T12:59:11.861Z</time>
      </trkpt>
      <trkpt lat="43.72027" lon="1.47167">
        <ele>212.209581</ele>
        <time>2022-07-31T12:59:13.861Z</time>
      </trkpt>
      <trkpt lat="43.72036" lon="1.47154">
        <ele>212.121034</ele>
        <time>2022-07-31T12:59:15.864Z</time>
      </trkpt>
      <trkpt lat="43.72047" lon="1.47142">
        <ele>212.030316</ele>
        <time>2022-07-31T12:59:17.858Z</time>
      </trkpt>
      <trkpt lat="43.72057" lon="1.4713">
        <ele>211.962281</ele>
        <time>2022-07-31T12:59:19.855Z</time>
      </trkpt>
      <trkpt lat="43.72066" lon="1.47117">
        <ele>211.905018</ele>
        <time>2022-07-31T12:59:21.861Z</time>
      </trkpt>
      <trkpt lat="43.72072" lon="1.47104">
        <ele>211.860205</ele>
        <time>2022-07-31T12:59:23.876Z</time>
      </trkpt>
      <trkpt lat="43.7208" lon="1.47099">
        <ele>211.82104</ele>
        <time>2022-07-31T12:59:39.882Z</time>
      </trkpt>
      <trkpt lat="43.7209" lon="1.47094">
        <ele>211.774911</ele>
        <time>2022-07-31T12:59:45.862Z</time>
      </trkpt>
      <trkpt lat="43.72101" lon="1.47083">
        <ele>211.718215</ele>
        <time>2022-07-31T12:59:48.844Z</time>
      </trkpt>
      <trkpt lat="43.72108" lon="1.47074">
        <ele>211.678614</ele>
        <time>2022-07-31T12:59:50.866Z</time>
      </trkpt>
      <trkpt lat="43.72117" lon="1.47065">
        <ele>211.631617</ele>
        <time>2022-07-31T12:59:52.871Z</time>
      </trkpt>
      <trkpt lat="43.72127" lon="1.47056">
        <ele>211.580085</ele>
        <time>2022-07-31T12:59:54.877Z</time>
      </trkpt>
      <trkpt lat="43.72137" lon="1.47043">
        <ele>211.522435</ele>
        <time>2022-07-31T12:59:56.855Z</time>
      </trkpt>
      <trkpt lat="43.72148" lon="1.47036">
        <ele>211.470277</ele>
        <time>2022-07-31T12:59:58.861Z</time>
      </trkpt>
      <trkpt lat="43.72159" lon="1.47026">
        <ele>211.414798</ele>
        <time>2022-07-31T13:00:00.875Z</time>
      </trkpt>
      <trkpt lat="43.72168" lon="1.47016">
        <ele>211.363728</ele>
        <time>2022-07-31T13:00:02.857Z</time>
      </trkpt>
      <trkpt lat="43.72178" lon="1.47008">
        <ele>211.317872</ele>
        <time>2022-07-31T13:00:04.868Z</time>
      </trkpt>
      <trkpt lat="43.72189" lon="1.47">
        <ele>211.263126</ele>
        <time>2022-07-31T13:00:06.869Z</time>
      </trkpt>
      <trkpt lat="43.72201" lon="1.46992">
        <ele>211.14718</ele>
        <time>2022-07-31T13:00:08.858Z</time>
      </trkpt>
      <trkpt lat="43.72211" lon="1.46985">
        <ele>210.996463</ele>
        <time>2022-07-31T13:00:10.858Z</time>
      </trkpt>
      <trkpt lat="43.72222" lon="1.46977">
        <ele>210.828012</ele>
        <time>2022-07-31T13:00:12.876Z</time>
      </trkpt>
      <trkpt lat="43.72232" lon="1.4697">
        <ele>210.674868</ele>
        <time>2022-07-31T13:00:14.861Z</time>
      </trkpt>
      <trkpt lat="43.72244" lon="1.46963">
        <ele>210.50766</ele>
        <time>2022-07-31T13:00:16.896Z</time>
      </trkpt>
      <trkpt lat="43.72255" lon="1.46955">
        <ele>210.346341</ele>
        <time>2022-07-31T13:00:18.869Z</time>
      </trkpt>
      <trkpt lat="43.72265" lon="1.46948">
        <ele>210.186743</ele>
        <time>2022-07-31T13:00:20.861Z</time>
      </trkpt>
      <trkpt lat="43.72277" lon="1.4694">
        <ele>210.017452</ele>
        <time>2022-07-31T13:00:22.881Z</time>
      </trkpt>
      <trkpt lat="43.72288" lon="1.46932">
        <ele>209.853851</ele>
        <time>2022-07-31T13:00:24.892Z</time>
      </trkpt>
      <trkpt lat="43.72298" lon="1.46925">
        <ele>209.69739</ele>
        <time>2022-07-31T13:00:26.852Z</time>
      </trkpt>
      <trkpt lat="43.72309" lon="1.46919">
        <ele>209.549463</ele>
        <time>2022-07-31T13:00:28.859Z</time>
      </trkpt>
      <trkpt lat="43.72318" lon="1.46913">
        <ele>209.408793</ele>
        <time>2022-07-31T13:00:30.849Z</time>
      </trkpt>
      <trkpt lat="43.7233" lon="1.46905">
        <ele>209.242384</ele>
        <time>2022-07-31T13:00:32.869Z</time>
      </trkpt>
      <trkpt lat="43.72341" lon="1.46897">
        <ele>209.078265</ele>
        <time>2022-07-31T13:00:34.872Z</time>
      </trkpt>
      <trkpt lat="43.72352" lon="1.4689">
        <ele>208.912207</ele>
        <time>2022-07-31T13:00:36.859Z</time>
      </trkpt>
      <trkpt lat="43.72363" lon="1.46882">
        <ele>208.704917</ele>
        <time>2022-07-31T13:00:38.863Z</time>
      </trkpt>
      <trkpt lat="43.72374" lon="1.46875">
        <ele>208.470588</ele>
        <time>2022-07-31T13:00:40.872Z</time>
      </trkpt>
      <trkpt lat="43.72385" lon="1.46867">
        <ele>208.237395</ele>
        <time>2022-07-31T13:00:42.856Z</time>
      </trkpt>
      <trkpt lat="43.72396" lon="1.4686">
        <ele>208.00365</ele>
        <time>2022-07-31T13:00:44.869Z</time>
      </trkpt>
      <trkpt lat="43.72408" lon="1.46853">
        <ele>207.757552</ele>
        <time>2022-07-31T13:00:46.870Z</time>
      </trkpt>
      <trkpt lat="43.7242" lon="1.46847">
        <ele>207.509687</ele>
        <time>2022-07-31T13:00:48.874Z</time>
      </trkpt>
      <trkpt lat="43.72432" lon="1.46841">
        <ele>207.259043</ele>
        <time>2022-07-31T13:00:50.884Z</time>
      </trkpt>
      <trkpt lat="43.72445" lon="1.46837">
        <ele>207.007768</ele>
        <time>2022-07-31T13:00:52.873Z</time>
      </trkpt>
      <trkpt lat="43.72459" lon="1.46834">
        <ele>206.742192</ele>
        <time>2022-07-31T13:00:54.870Z</time>
      </trkpt>
      <trkpt lat="43.72473" lon="1.46833">
        <ele>206.468502</ele>
        <time>2022-07-31T13:00:56.827Z</time>
      </trkpt>
      <trkpt lat="43.72487" lon="1.46834">
        <ele>206.200668</ele>
        <time>2022-07-31T13:00:58.870Z</time>
      </trkpt>
      <trkpt lat="43.72502" lon="1.46836">
        <ele>205.919943</ele>
        <time>2022-07-31T13:01:00.849Z</time>
      </trkpt>
      <trkpt lat="43.72516" lon="1.4684">
        <ele>205.632747</ele>
        <time>2022-07-31T13:01:02.870Z</time>
      </trkpt>
      <trkpt lat="43.72531" lon="1.46845">
        <ele>205.341384</ele>
        <time>2022-07-31T13:01:04.848Z</time>
      </trkpt>
      <trkpt lat="43.72545" lon="1.46852">
        <ele>205.009853</ele>
        <time>2022-07-31T13:01:06.858Z</time>
      </trkpt>
      <trkpt lat="43.72557" lon="1.46859">
        <ele>204.708993</ele>
        <time>2022-07-31T13:01:08.872Z</time>
      </trkpt>
      <trkpt lat="43.7257" lon="1.4687">
        <ele>204.369126</ele>
        <time>2022-07-31T13:01:10.874Z</time>
      </trkpt>
      <trkpt lat="43.72582" lon="1.46882">
        <ele>204.024078</ele>
        <time>2022-07-31T13:01:12.913Z</time>
      </trkpt>
      <trkpt lat="43.72595" lon="1.46894">
        <ele>203.687397</ele>
        <time>2022-07-31T13:01:14.861Z</time>
      </trkpt>
      <trkpt lat="43.72606" lon="1.46904">
        <ele>203.37855</ele>
        <time>2022-07-31T13:01:16.883Z</time>
      </trkpt>
      <trkpt lat="43.72618" lon="1.46917">
        <ele>203.040568</ele>
        <time>2022-07-31T13:01:18.849Z</time>
      </trkpt>
      <trkpt lat="43.7263" lon="1.4693">
        <ele>202.702115</ele>
        <time>2022-07-31T13:01:20.855Z</time>
      </trkpt>
      <trkpt lat="43.72642" lon="1.46942">
        <ele>202.359883</ele>
        <time>2022-07-31T13:01:22.830Z</time>
      </trkpt>
      <trkpt lat="43.72654" lon="1.46954">
        <ele>202.022289</ele>
        <time>2022-07-31T13:01:24.870Z</time>
      </trkpt>
      <trkpt lat="43.72667" lon="1.46966">
        <ele>201.681885</ele>
        <time>2022-07-31T13:01:26.852Z</time>
      </trkpt>
      <trkpt lat="43.72679" lon="1.46979">
        <ele>201.323437</ele>
        <time>2022-07-31T13:01:28.866Z</time>
      </trkpt>
      <trkpt lat="43.72691" lon="1.46991">
        <ele>200.729776</ele>
        <time>2022-07-31T13:01:30.868Z</time>
      </trkpt>
      <trkpt lat="43.72704" lon="1.47004">
        <ele>200.135734</ele>
        <time>2022-07-31T13:01:32.866Z</time>
      </trkpt>
      <trkpt lat="43.72716" lon="1.47017">
        <ele>199.527636</ele>
        <time>2022-07-31T13:01:34.869Z</time>
      </trkpt>
      <trkpt lat="43.72728" lon="1.47029">
        <ele>198.943118</ele>
        <time>2022-07-31T13:01:36.863Z</time>
      </trkpt>
      <trkpt lat="43.7274" lon="1.47042">
        <ele>198.365035</ele>
        <time>2022-07-31T13:01:38.880Z</time>
      </trkpt>
      <trkpt lat="43.72753" lon="1.47054">
        <ele>197.788895</ele>
        <time>2022-07-31T13:01:40.887Z</time>
      </trkpt>
      <trkpt lat="43.7276" lon="1.47061">
        <ele>197.430188</ele>
        <time>2022-07-31T13:01:41.893Z</time>
      </trkpt>
      <trkpt lat="43.72774" lon="1.47074">
        <ele>196.801564</ele>
        <time>2022-07-31T13:01:43.861Z</time>
      </trkpt>
      <trkpt lat="43.72786" lon="1.47087">
        <ele>196.186801</ele>
        <time>2022-07-31T13:01:45.852Z</time>
      </trkpt>
      <trkpt lat="43.72799" lon="1.47101">
        <ele>195.573415</ele>
        <time>2022-07-31T13:01:47.857Z</time>
      </trkpt>
      <trkpt lat="43.72811" lon="1.47113">
        <ele>194.985529</ele>
        <time>2022-07-31T13:01:49.874Z</time>
      </trkpt>
      <trkpt lat="43.72824" lon="1.47126">
        <ele>194.421245</ele>
        <time>2022-07-31T13:01:51.866Z</time>
      </trkpt>
      <trkpt lat="43.72837" lon="1.47139">
        <ele>194.586626</ele>
        <time>2022-07-31T13:01:53.855Z</time>
      </trkpt>
      <trkpt lat="43.7285" lon="1.47151">
        <ele>194.75335</ele>
        <time>2022-07-31T13:01:55.859Z</time>
      </trkpt>
      <trkpt lat="43.72862" lon="1.47163">
        <ele>194.908063</ele>
        <time>2022-07-31T13:01:57.867Z</time>
      </trkpt>
      <trkpt lat="43.72875" lon="1.47176">
        <ele>195.071332</ele>
        <time>2022-07-31T13:01:59.892Z</time>
      </trkpt>
      <trkpt lat="43.72887" lon="1.47185">
        <ele>195.216665</ele>
        <time>2022-07-31T13:02:01.895Z</time>
      </trkpt>
      <trkpt lat="43.729" lon="1.47192">
        <ele>195.360251</ele>
        <time>2022-07-31T13:02:03.885Z</time>
      </trkpt>
      <trkpt lat="43.72913" lon="1.47199">
        <ele>195.501561</ele>
        <time>2022-07-31T13:02:05.886Z</time>
      </trkpt>
      <trkpt lat="43.72925" lon="1.47204">
        <ele>195.631369</ele>
        <time>2022-07-31T13:02:07.878Z</time>
      </trkpt>
      <trkpt lat="43.72936" lon="1.47206">
        <ele>195.750987</ele>
        <time>2022-07-31T13:02:09.868Z</time>
      </trkpt>
      <trkpt lat="43.72948" lon="1.47209">
        <ele>195.873316</ele>
        <time>2022-07-31T13:02:11.888Z</time>
      </trkpt>
      <trkpt lat="43.72959" lon="1.47211">
        <ele>195.989604</ele>
        <time>2022-07-31T13:02:13.854Z</time>
      </trkpt>
      <trkpt lat="43.7297" lon="1.47211">
        <ele>196.106427</ele>
        <time>2022-07-31T13:02:15.924Z</time>
      </trkpt>
      <trkpt lat="43.72981" lon="1.4721">
        <ele>196.225504</ele>
        <time>2022-07-31T13:02:18.849Z</time>
      </trkpt>
      <trkpt lat="43.72992" lon="1.47206">
        <ele>196.383945</ele>
        <time>2022-07-31T13:02:21.886Z</time>
      </trkpt>
      <trkpt lat="43.73001" lon="1.47202">
        <ele>196.537889</ele>
        <time>2022-07-31T13:02:23.881Z</time>
      </trkpt>
      <trkpt lat="43.73008" lon="1.47191">
        <ele>196.726847</ele>
        <time>2022-07-31T13:02:25.888Z</time>
      </trkpt>
      <trkpt lat="43.73015" lon="1.47182">
        <ele>196.886461</ele>
        <time>2022-07-31T13:02:27.879Z</time>
      </trkpt>
      <trkpt lat="43.73021" lon="1.47172">
        <ele>197.05136</ele>
        <time>2022-07-31T13:02:31.876Z</time>
      </trkpt>
      <trkpt lat="43.73026" lon="1.47153">
        <ele>197.293925</ele>
        <time>2022-07-31T13:03:00.859Z</time>
      </trkpt>
      <trkpt lat="43.73023" lon="1.47137">
        <ele>197.507461</ele>
        <time>2022-07-31T13:03:03.855Z</time>
      </trkpt>
      <trkpt lat="43.73016" lon="1.47126">
        <ele>197.68759</ele>
        <time>2022-07-31T13:03:06.906Z</time>
      </trkpt>
      <trkpt lat="43.7302" lon="1.4711">
        <ele>197.88906</ele>
        <time>2022-07-31T13:03:09.858Z</time>
      </trkpt>
      <trkpt lat="43.73025" lon="1.47099">
        <ele>198.058686</ele>
        <time>2022-07-31T13:03:11.879Z</time>
      </trkpt>
      <trkpt lat="43.7303" lon="1.47088">
        <ele>198.219482</ele>
        <time>2022-07-31T13:03:13.863Z</time>
      </trkpt>
      <trkpt lat="43.73035" lon="1.47076">
        <ele>198.398788</ele>
        <time>2022-07-31T13:03:15.864Z</time>
      </trkpt>
      <trkpt lat="43.7304" lon="1.47065">
        <ele>198.553851</ele>
        <time>2022-07-31T13:03:17.871Z</time>
      </trkpt>
      <trkpt lat="43.73044" lon="1.47053">
        <ele>198.721125</ele>
        <time>2022-07-31T13:03:20.888Z</time>
      </trkpt>
      <trkpt lat="43.73046" lon="1.47037">
        <ele>198.922294</ele>
        <time>2022-07-31T13:03:24.875Z</time>
      </trkpt>
      <trkpt lat="43.73052" lon="1.47025">
        <ele>199.098116</ele>
        <time>2022-07-31T13:03:28.870Z</time>
      </trkpt>
      <trkpt lat="43.73052" lon="1.47009">
        <ele>199.301385</ele>
        <time>2022-07-31T13:03:33.878Z</time>
      </trkpt>
      <trkpt lat="43.7305" lon="1.46996">
        <ele>199.375044</ele>
        <time>2022-07-31T13:03:35.855Z</time>
      </trkpt>
      <trkpt lat="43.73055" lon="1.46981">
        <ele>199.352406</ele>
        <time>2022-07-31T13:03:38.884Z</time>
      </trkpt>
      <trkpt lat="43.7306" lon="1.4697">
        <ele>199.333995</ele>
        <time>2022-07-31T13:03:40.885Z</time>
      </trkpt>
      <trkpt lat="43.73067" lon="1.46954">
        <ele>199.308781</ele>
        <time>2022-07-31T13:03:43.881Z</time>
      </trkpt>
      <trkpt lat="43.73071" lon="1.4694">
        <ele>199.287076</ele>
        <time>2022-07-31T13:03:45.884Z</time>
      </trkpt>
      <trkpt lat="43.73075" lon="1.46927">
        <ele>199.268027</ele>
        <time>2022-07-31T13:03:47.870Z</time>
      </trkpt>
      <trkpt lat="43.73071" lon="1.46912">
        <ele>199.247545</ele>
        <time>2022-07-31T13:03:50.891Z</time>
      </trkpt>
      <trkpt lat="43.7307" lon="1.46898">
        <ele>199.228083</ele>
        <time>2022-07-31T13:03:53.881Z</time>
      </trkpt>
      <trkpt lat="43.73074" lon="1.46887">
        <ele>199.210805</ele>
        <time>2022-07-31T13:03:56.869Z</time>
      </trkpt>
      <trkpt lat="43.73084" lon="1.46873">
        <ele>199.184163</ele>
        <time>2022-07-31T13:03:59.847Z</time>
      </trkpt>
      <trkpt lat="43.73089" lon="1.46862">
        <ele>199.165683</ele>
        <time>2022-07-31T13:04:01.863Z</time>
      </trkpt>
      <trkpt lat="43.73097" lon="1.4685">
        <ele>199.143291</ele>
        <time>2022-07-31T13:04:04.875Z</time>
      </trkpt>
      <trkpt lat="43.73102" lon="1.46838">
        <ele>199.123698</ele>
        <time>2022-07-31T13:04:06.865Z</time>
      </trkpt>
      <trkpt lat="43.73112" lon="1.46829">
        <ele>199.100858</ele>
        <time>2022-07-31T13:04:10.857Z</time>
      </trkpt>
      <trkpt lat="43.73121" lon="1.46825">
        <ele>199.082246</ele>
        <time>2022-07-31T13:04:12.871Z</time>
      </trkpt>
      <trkpt lat="43.73131" lon="1.46819">
        <ele>199.062594</ele>
        <time>2022-07-31T13:04:15.881Z</time>
      </trkpt>
      <trkpt lat="43.73139" lon="1.46811">
        <ele>199.044151</ele>
        <time>2022-07-31T13:04:17.857Z</time>
      </trkpt>
      <trkpt lat="43.73146" lon="1.46793">
        <ele>199.004015</ele>
        <time>2022-07-31T13:04:20.869Z</time>
      </trkpt>
      <trkpt lat="43.7315" lon="1.4678">
        <ele>198.9738</ele>
        <time>2022-07-31T13:04:22.848Z</time>
      </trkpt>
      <trkpt lat="43.73152" lon="1.46767">
        <ele>198.94849</ele>
        <time>2022-07-31T13:04:25.869Z</time>
      </trkpt>
      <trkpt lat="43.73154" lon="1.46754">
        <ele>198.921658</ele>
        <time>2022-07-31T13:04:28.872Z</time>
      </trkpt>
      <trkpt lat="43.73155" lon="1.46735">
        <ele>198.882759</ele>
        <time>2022-07-31T13:04:31.856Z</time>
      </trkpt>
      <trkpt lat="43.73154" lon="1.46721">
        <ele>198.854978</ele>
        <time>2022-07-31T13:04:33.878Z</time>
      </trkpt>
      <trkpt lat="43.73158" lon="1.46709">
        <ele>198.827914</ele>
        <time>2022-07-31T13:04:35.892Z</time>
      </trkpt>
      <trkpt lat="43.73165" lon="1.46696">
        <ele>198.794375</ele>
        <time>2022-07-31T13:04:39.882Z</time>
      </trkpt>
      <trkpt lat="43.73171" lon="1.46683">
        <ele>198.764781</ele>
        <time>2022-07-31T13:04:43.881Z</time>
      </trkpt>
      <trkpt lat="43.7318" lon="1.46676">
        <ele>198.7366</ele>
        <time>2022-07-31T13:04:47.867Z</time>
      </trkpt>
      <trkpt lat="43.73188" lon="1.46664">
        <ele>198.704479</ele>
        <time>2022-07-31T13:04:52.844Z</time>
      </trkpt>
      <trkpt lat="43.73193" lon="1.46654">
        <ele>198.678532</ele>
        <time>2022-07-31T13:04:55.856Z</time>
      </trkpt>
      <trkpt lat="43.73194" lon="1.46639">
        <ele>198.64842</ele>
        <time>2022-07-31T13:04:59.856Z</time>
      </trkpt>
      <trkpt lat="43.732" lon="1.46625">
        <ele>198.616185</ele>
        <time>2022-07-31T13:05:02.874Z</time>
      </trkpt>
      <trkpt lat="43.73205" lon="1.46613">
        <ele>198.58869</ele>
        <time>2022-07-31T13:05:05.880Z</time>
      </trkpt>
      <trkpt lat="43.73211" lon="1.46602">
        <ele>198.561284</ele>
        <time>2022-07-31T13:05:08.855Z</time>
      </trkpt>
      <trkpt lat="43.73216" lon="1.4659">
        <ele>198.550665</ele>
        <time>2022-07-31T13:05:10.885Z</time>
      </trkpt>
      <trkpt lat="43.73221" lon="1.46579">
        <ele>198.588725</ele>
        <time>2022-07-31T13:05:12.881Z</time>
      </trkpt>
      <trkpt lat="43.73227" lon="1.46564">
        <ele>198.631616</ele>
        <time>2022-07-31T13:05:14.848Z</time>
      </trkpt>
      <trkpt lat="43.73235" lon="1.46551">
        <ele>198.677953</ele>
        <time>2022-07-31T13:05:16.849Z</time>
      </trkpt>
      <trkpt lat="43.7324" lon="1.46537">
        <ele>198.721782</ele>
        <time>2022-07-31T13:05:19.856Z</time>
      </trkpt>
      <trkpt lat="43.73245" lon="1.46525">
        <ele>198.757332</ele>
        <time>2022-07-31T13:05:21.869Z</time>
      </trkpt>
      <trkpt lat="43.73252" lon="1.46514">
        <ele>198.79538</ele>
        <time>2022-07-31T13:05:23.874Z</time>
      </trkpt>
      <trkpt lat="43.73256" lon="1.46501">
        <ele>198.833566</ele>
        <time>2022-07-31T13:05:25.888Z</time>
      </trkpt>
      <trkpt lat="43.73262" lon="1.46486">
        <ele>198.879218</ele>
        <time>2022-07-31T13:05:28.901Z</time>
      </trkpt>
      <trkpt lat="43.73269" lon="1.46473">
        <ele>198.921185</ele>
        <time>2022-07-31T13:05:30.872Z</time>
      </trkpt>
      <trkpt lat="43.73275" lon="1.46463">
        <ele>198.957956</ele>
        <time>2022-07-31T13:05:32.878Z</time>
      </trkpt>
      <trkpt lat="43.73288" lon="1.46461">
        <ele>199.00498</ele>
        <time>2022-07-31T13:05:36.865Z</time>
      </trkpt>
      <trkpt lat="43.73298" lon="1.46465">
        <ele>199.043238</ele>
        <time>2022-07-31T13:05:38.860Z</time>
      </trkpt>
      <trkpt lat="43.73309" lon="1.4647">
        <ele>199.087955</ele>
        <time>2022-07-31T13:05:41.887Z</time>
      </trkpt>
      <trkpt lat="43.73318" lon="1.46447">
        <ele>199.158488</ele>
        <time>2022-07-31T13:06:21.867Z</time>
      </trkpt>
      <trkpt lat="43.73309" lon="1.46433">
        <ele>199.204955</ele>
        <time>2022-07-31T13:06:24.880Z</time>
      </trkpt>
      <trkpt lat="43.73312" lon="1.4642">
        <ele>199.20229</ele>
        <time>2022-07-31T13:06:26.856Z</time>
      </trkpt>
      <trkpt lat="43.73319" lon="1.46404">
        <ele>199.198593</ele>
        <time>2022-07-31T13:06:29.856Z</time>
      </trkpt>
      <trkpt lat="43.73325" lon="1.46393">
        <ele>199.195752</ele>
        <time>2022-07-31T13:06:31.903Z</time>
      </trkpt>
      <trkpt lat="43.73331" lon="1.4638">
        <ele>199.19283</ele>
        <time>2022-07-31T13:06:33.861Z</time>
      </trkpt>
      <trkpt lat="43.73337" lon="1.46367">
        <ele>199.189762</ele>
        <time>2022-07-31T13:06:35.863Z</time>
      </trkpt>
      <trkpt lat="43.73343" lon="1.46354">
        <ele>199.186588</ele>
        <time>2022-07-31T13:06:37.888Z</time>
      </trkpt>
      <trkpt lat="43.73349" lon="1.46341">
        <ele>199.183516</ele>
        <time>2022-07-31T13:06:39.866Z</time>
      </trkpt>
      <trkpt lat="43.73356" lon="1.46329">
        <ele>199.180431</ele>
        <time>2022-07-31T13:06:41.891Z</time>
      </trkpt>
      <trkpt lat="43.73361" lon="1.46315">
        <ele>199.177387</ele>
        <time>2022-07-31T13:06:43.888Z</time>
      </trkpt>
      <trkpt lat="43.73365" lon="1.46301">
        <ele>199.174294</ele>
        <time>2022-07-31T13:06:45.889Z</time>
      </trkpt>
      <trkpt lat="43.73366" lon="1.46285">
        <ele>199.171122</ele>
        <time>2022-07-31T13:06:47.876Z</time>
      </trkpt>
      <trkpt lat="43.73357" lon="1.46274">
        <ele>199.167867</ele>
        <time>2022-07-31T13:06:49.870Z</time>
      </trkpt>
      <trkpt lat="43.73346" lon="1.4627">
        <ele>199.164554</ele>
        <time>2022-07-31T13:06:51.874Z</time>
      </trkpt>
      <trkpt lat="43.73334" lon="1.46268">
        <ele>199.161287</ele>
        <time>2022-07-31T13:06:53.853Z</time>
      </trkpt>
      <trkpt lat="43.73323" lon="1.46266">
        <ele>199.158179</ele>
        <time>2022-07-31T13:06:55.882Z</time>
      </trkpt>
      <trkpt lat="43.73312" lon="1.46264">
        <ele>199.175711</ele>
        <time>2022-07-31T13:06:57.870Z</time>
      </trkpt>
      <trkpt lat="43.73301" lon="1.46258">
        <ele>199.352012</ele>
        <time>2022-07-31T13:06:59.895Z</time>
      </trkpt>
      <trkpt lat="43.73292" lon="1.46249">
        <ele>199.52477</ele>
        <time>2022-07-31T13:07:01.868Z</time>
      </trkpt>
      <trkpt lat="43.73286" lon="1.46237">
        <ele>199.695758</ele>
        <time>2022-07-31T13:07:03.875Z</time>
      </trkpt>
      <trkpt lat="43.7328" lon="1.46224">
        <ele>199.867092</ele>
        <time>2022-07-31T13:07:05.878Z</time>
      </trkpt>
      <trkpt lat="43.73275" lon="1.4621">
        <ele>200.031133</ele>
        <time>2022-07-31T13:07:07.880Z</time>
      </trkpt>
      <trkpt lat="43.73271" lon="1.46197">
        <ele>200.194771</ele>
        <time>2022-07-31T13:07:09.880Z</time>
      </trkpt>
      <trkpt lat="43.73263" lon="1.46182">
        <ele>200.399271</ele>
        <time>2022-07-31T13:07:12.888Z</time>
      </trkpt>
      <trkpt lat="43.73251" lon="1.46178">
        <ele>200.597559</ele>
        <time>2022-07-31T13:07:16.853Z</time>
      </trkpt>
      <trkpt lat="43.73244" lon="1.46187">
        <ele>200.74652</ele>
        <time>2022-07-31T13:07:18.864Z</time>
      </trkpt>
      <trkpt lat="43.73238" lon="1.46202">
        <ele>200.927599</ele>
        <time>2022-07-31T13:07:20.860Z</time>
      </trkpt>
      <trkpt lat="43.73233" lon="1.46215">
        <ele>201.103492</ele>
        <time>2022-07-31T13:07:22.880Z</time>
      </trkpt>
      <trkpt lat="43.73227" lon="1.4623">
        <ele>201.287974</ele>
        <time>2022-07-31T13:07:24.875Z</time>
      </trkpt>
      <trkpt lat="43.7322" lon="1.4624">
        <ele>201.443364</ele>
        <time>2022-07-31T13:07:26.859Z</time>
      </trkpt>
      <trkpt lat="43.7321" lon="1.46245">
        <ele>201.609065</ele>
        <time>2022-07-31T13:07:29.887Z</time>
      </trkpt>
      <trkpt lat="43.73201" lon="1.46237">
        <ele>201.767536</ele>
        <time>2022-07-31T13:07:32.878Z</time>
      </trkpt>
      <trkpt lat="43.73194" lon="1.46222">
        <ele>201.972023</ele>
        <time>2022-07-31T13:07:35.888Z</time>
      </trkpt>
      <trkpt lat="43.73186" lon="1.46211">
        <ele>202.157689</ele>
        <time>2022-07-31T13:07:37.885Z</time>
      </trkpt>
      <trkpt lat="43.73178" lon="1.462">
        <ele>202.33433</ele>
        <time>2022-07-31T13:07:39.888Z</time>
      </trkpt>
      <trkpt lat="43.7317" lon="1.46189">
        <ele>202.521494</ele>
        <time>2022-07-31T13:07:41.869Z</time>
      </trkpt>
      <trkpt lat="43.73161" lon="1.46179">
        <ele>202.707391</ele>
        <time>2022-07-31T13:07:43.869Z</time>
      </trkpt>
      <trkpt lat="43.73154" lon="1.46167">
        <ele>202.888857</ele>
        <time>2022-07-31T13:07:45.882Z</time>
      </trkpt>
      <trkpt lat="43.73148" lon="1.46154">
        <ele>203.067632</ele>
        <time>2022-07-31T13:07:47.862Z</time>
      </trkpt>
      <trkpt lat="43.73141" lon="1.46143">
        <ele>203.238969</ele>
        <time>2022-07-31T13:07:49.858Z</time>
      </trkpt>
      <trkpt lat="43.73132" lon="1.46135">
        <ele>203.411657</ele>
        <time>2022-07-31T13:07:51.871Z</time>
      </trkpt>
      <trkpt lat="43.73124" lon="1.46124">
        <ele>203.596503</ele>
        <time>2022-07-31T13:07:53.878Z</time>
      </trkpt>
      <trkpt lat="43.73116" lon="1.46112">
        <ele>203.784395</ele>
        <time>2022-07-31T13:07:55.883Z</time>
      </trkpt>
      <trkpt lat="43.73108" lon="1.46101">
        <ele>203.965817</ele>
        <time>2022-07-31T13:07:57.874Z</time>
      </trkpt>
      <trkpt lat="43.73101" lon="1.4609">
        <ele>204.146252</ele>
        <time>2022-07-31T13:07:59.869Z</time>
      </trkpt>
      <trkpt lat="43.73094" lon="1.46078">
        <ele>204.321955</ele>
        <time>2022-07-31T13:08:01.878Z</time>
      </trkpt>
      <trkpt lat="43.73094" lon="1.46063">
        <ele>204.491927</ele>
        <time>2022-07-31T13:08:03.853Z</time>
      </trkpt>
      <trkpt lat="43.7309" lon="1.46051">
        <ele>204.645879</ele>
        <time>2022-07-31T13:08:05.861Z</time>
      </trkpt>
      <trkpt lat="43.73081" lon="1.46042">
        <ele>204.828624</ele>
        <time>2022-07-31T13:08:07.864Z</time>
      </trkpt>
      <trkpt lat="43.73072" lon="1.46037">
        <ele>204.992038</ele>
        <time>2022-07-31T13:08:09.858Z</time>
      </trkpt>
      <trkpt lat="43.73062" lon="1.46036">
        <ele>205.142352</ele>
        <time>2022-07-31T13:08:12.864Z</time>
      </trkpt>
      <trkpt lat="43.73064" lon="1.46022">
        <ele>205.301857</ele>
        <time>2022-07-31T13:08:16.853Z</time>
      </trkpt>
      <trkpt lat="43.73071" lon="1.46008">
        <ele>205.497106</ele>
        <time>2022-07-31T13:08:19.866Z</time>
      </trkpt>
      <trkpt lat="43.73077" lon="1.45992">
        <ele>205.693957</ele>
        <time>2022-07-31T13:08:21.868Z</time>
      </trkpt>
      <trkpt lat="43.7308" lon="1.45979">
        <ele>205.853178</ele>
        <time>2022-07-31T13:08:23.861Z</time>
      </trkpt>
      <trkpt lat="43.73089" lon="1.45966">
        <ele>206.059683</ele>
        <time>2022-07-31T13:08:26.865Z</time>
      </trkpt>
      <trkpt lat="43.73097" lon="1.45952">
        <ele>206.267537</ele>
        <time>2022-07-31T13:08:29.866Z</time>
      </trkpt>
      <trkpt lat="43.73105" lon="1.45943">
        <ele>206.41917</ele>
        <time>2022-07-31T13:08:31.856Z</time>
      </trkpt>
      <trkpt lat="43.73111" lon="1.45934">
        <ele>206.57097</ele>
        <time>2022-07-31T13:08:33.853Z</time>
      </trkpt>
      <trkpt lat="43.73115" lon="1.45919">
        <ele>206.748372</ele>
        <time>2022-07-31T13:08:36.863Z</time>
      </trkpt>
      <trkpt lat="43.73124" lon="1.45906">
        <ele>206.949416</ele>
        <time>2022-07-31T13:08:39.858Z</time>
      </trkpt>
      <trkpt lat="43.7313" lon="1.45896">
        <ele>207.097389</ele>
        <time>2022-07-31T13:08:41.859Z</time>
      </trkpt>
      <trkpt lat="43.73136" lon="1.45882">
        <ele>207.283458</ele>
        <time>2022-07-31T13:08:44.875Z</time>
      </trkpt>
      <trkpt lat="43.73141" lon="1.45867">
        <ele>207.469527</ele>
        <time>2022-07-31T13:08:49.850Z</time>
      </trkpt>
      <trkpt lat="43.73135" lon="1.45854">
        <ele>207.647492</ele>
        <time>2022-07-31T13:08:53.863Z</time>
      </trkpt>
      <trkpt lat="43.73131" lon="1.45843">
        <ele>207.909285</ele>
        <time>2022-07-31T13:08:56.871Z</time>
      </trkpt>
      <trkpt lat="43.73124" lon="1.45835">
        <ele>208.209504</ele>
        <time>2022-07-31T13:09:00.852Z</time>
      </trkpt>
      <trkpt lat="43.73123" lon="1.4582">
        <ele>208.573388</ele>
        <time>2022-07-31T13:09:03.861Z</time>
      </trkpt>
      <trkpt lat="43.73124" lon="1.45801">
        <ele>209.016851</ele>
        <time>2022-07-31T13:09:06.855Z</time>
      </trkpt>
      <trkpt lat="43.73121" lon="1.45786">
        <ele>209.390295</ele>
        <time>2022-07-31T13:09:09.861Z</time>
      </trkpt>
      <trkpt lat="43.73118" lon="1.45774">
        <ele>209.699649</ele>
        <time>2022-07-31T13:09:11.854Z</time>
      </trkpt>
      <trkpt lat="43.73108" lon="1.45766">
        <ele>210.092428</ele>
        <time>2022-07-31T13:09:14.871Z</time>
      </trkpt>
      <trkpt lat="43.73103" lon="1.45754">
        <ele>210.399351</ele>
        <time>2022-07-31T13:09:17.856Z</time>
      </trkpt>
      <trkpt lat="43.73109" lon="1.45738">
        <ele>210.837954</ele>
        <time>2022-07-31T13:09:20.866Z</time>
      </trkpt>
      <trkpt lat="43.73113" lon="1.45725">
        <ele>211.159632</ele>
        <time>2022-07-31T13:09:22.857Z</time>
      </trkpt>
      <trkpt lat="43.7312" lon="1.45713">
        <ele>211.518056</ele>
        <time>2022-07-31T13:09:24.880Z</time>
      </trkpt>
      <trkpt lat="43.73128" lon="1.45703">
        <ele>211.872063</ele>
        <time>2022-07-31T13:09:26.857Z</time>
      </trkpt>
      <trkpt lat="43.73131" lon="1.45689">
        <ele>212.21979</ele>
        <time>2022-07-31T13:09:28.866Z</time>
      </trkpt>
      <trkpt lat="43.7313" lon="1.45675">
        <ele>212.54777</ele>
        <time>2022-07-31T13:09:30.879Z</time>
      </trkpt>
      <trkpt lat="43.73133" lon="1.45658">
        <ele>212.966439</ele>
        <time>2022-07-31T13:09:33.852Z</time>
      </trkpt>
      <trkpt lat="43.73137" lon="1.45645">
        <ele>213.29041</ele>
        <time>2022-07-31T13:09:35.865Z</time>
      </trkpt>
      <trkpt lat="43.73142" lon="1.45628">
        <ele>213.655249</ele>
        <time>2022-07-31T13:09:37.862Z</time>
      </trkpt>
      <trkpt lat="43.73147" lon="1.45616">
        <ele>213.793727</ele>
        <time>2022-07-31T13:09:39.851Z</time>
      </trkpt>
      <trkpt lat="43.73155" lon="1.45612">
        <ele>213.9185</ele>
        <time>2022-07-31T13:09:41.844Z</time>
      </trkpt>
      <trkpt lat="43.73164" lon="1.45616">
        <ele>214.047902</ele>
        <time>2022-07-31T13:09:43.866Z</time>
      </trkpt>
      <trkpt lat="43.73178" lon="1.45609">
        <ele>214.24279</ele>
        <time>2022-07-31T13:09:46.877Z</time>
      </trkpt>
      <trkpt lat="43.73185" lon="1.45594">
        <ele>214.426315</ele>
        <time>2022-07-31T13:09:48.885Z</time>
      </trkpt>
      <trkpt lat="43.73193" lon="1.4558">
        <ele>214.598758</ele>
        <time>2022-07-31T13:09:50.876Z</time>
      </trkpt>
      <trkpt lat="43.73201" lon="1.45572">
        <ele>214.741036</ele>
        <time>2022-07-31T13:09:54.841Z</time>
      </trkpt>
      <trkpt lat="43.73193" lon="1.4556">
        <ele>214.900031</ele>
        <time>2022-07-31T13:09:58.859Z</time>
      </trkpt>
      <trkpt lat="43.73183" lon="1.45549">
        <ele>215.073431</ele>
        <time>2022-07-31T13:10:01.886Z</time>
      </trkpt>
      <trkpt lat="43.73174" lon="1.4554">
        <ele>215.229374</ele>
        <time>2022-07-31T13:10:04.865Z</time>
      </trkpt>
      <trkpt lat="43.73164" lon="1.4553">
        <ele>215.400976</ele>
        <time>2022-07-31T13:10:07.871Z</time>
      </trkpt>
      <trkpt lat="43.73164" lon="1.45512">
        <ele>215.576278</ele>
        <time>2022-07-31T13:10:10.865Z</time>
      </trkpt>
      <trkpt lat="43.73165" lon="1.455">
        <ele>215.7016</ele>
        <time>2022-07-31T13:10:12.873Z</time>
      </trkpt>
      <trkpt lat="43.73161" lon="1.45485">
        <ele>215.85991</ele>
        <time>2022-07-31T13:10:14.884Z</time>
      </trkpt>
      <trkpt lat="43.73159" lon="1.45461">
        <ele>216.098219</ele>
        <time>2022-07-31T13:10:17.848Z</time>
      </trkpt>
      <trkpt lat="43.73155" lon="1.45447">
        <ele>216.290114</ele>
        <time>2022-07-31T13:10:20.852Z</time>
      </trkpt>
      <trkpt lat="43.73147" lon="1.45432">
        <ele>216.5308</ele>
        <time>2022-07-31T13:10:22.870Z</time>
      </trkpt>
      <trkpt lat="43.73138" lon="1.45421">
        <ele>216.756647</ele>
        <time>2022-07-31T13:10:25.885Z</time>
      </trkpt>
      <trkpt lat="43.73129" lon="1.45412">
        <ele>216.958467</ele>
        <time>2022-07-31T13:10:28.876Z</time>
      </trkpt>
      <trkpt lat="43.73117" lon="1.45399">
        <ele>217.227771</ele>
        <time>2022-07-31T13:10:31.874Z</time>
      </trkpt>
      <trkpt lat="43.73109" lon="1.45389">
        <ele>217.42334</ele>
        <time>2022-07-31T13:10:34.881Z</time>
      </trkpt>
      <trkpt lat="43.73101" lon="1.45379">
        <ele>217.615486</ele>
        <time>2022-07-31T13:10:37.893Z</time>
      </trkpt>
      <trkpt lat="43.73092" lon="1.45367">
        <ele>217.849595</ele>
        <time>2022-07-31T13:10:40.863Z</time>
      </trkpt>
      <trkpt lat="43.73087" lon="1.45356">
        <ele>218.018317</ele>
        <time>2022-07-31T13:10:44.859Z</time>
      </trkpt>
      <trkpt lat="43.73091" lon="1.45345">
        <ele>218.185651</ele>
        <time>2022-07-31T13:10:47.885Z</time>
      </trkpt>
      <trkpt lat="43.73095" lon="1.45332">
        <ele>218.363697</ele>
        <time>2022-07-31T13:10:50.855Z</time>
      </trkpt>
      <trkpt lat="43.73102" lon="1.45323">
        <ele>218.530094</ele>
        <time>2022-07-31T13:10:52.862Z</time>
      </trkpt>
      <trkpt lat="43.73108" lon="1.45314">
        <ele>218.701825</ele>
        <time>2022-07-31T13:10:54.873Z</time>
      </trkpt>
      <trkpt lat="43.73115" lon="1.45304">
        <ele>218.877964</ele>
        <time>2022-07-31T13:10:56.869Z</time>
      </trkpt>
      <trkpt lat="43.73125" lon="1.45294">
        <ele>219.097173</ele>
        <time>2022-07-31T13:10:59.868Z</time>
      </trkpt>
      <trkpt lat="43.73132" lon="1.45286">
        <ele>219.267916</ele>
        <time>2022-07-31T13:11:03.880Z</time>
      </trkpt>
      <trkpt lat="43.73148" lon="1.45278">
        <ele>218.459508</ele>
        <time>2022-07-31T13:11:06.859Z</time>
      </trkpt>
      <trkpt lat="43.73158" lon="1.45275">
        <ele>217.693821</ele>
        <time>2022-07-31T13:11:09.859Z</time>
      </trkpt>
      <trkpt lat="43.73168" lon="1.45271">
        <ele>216.952152</ele>
        <time>2022-07-31T13:11:14.856Z</time>
      </trkpt>
      <trkpt lat="43.73179" lon="1.45269">
        <ele>216.197721</ele>
        <time>2022-07-31T13:11:17.892Z</time>
      </trkpt>
      <trkpt lat="43.73191" lon="1.45265">
        <ele>215.318758</ele>
        <time>2022-07-31T13:11:20.881Z</time>
      </trkpt>
      <trkpt lat="43.73204" lon="1.4526">
        <ele>214.328837</ele>
        <time>2022-07-31T13:11:22.863Z</time>
      </trkpt>
      <trkpt lat="43.73215" lon="1.45256">
        <ele>213.541876</ele>
        <time>2022-07-31T13:11:24.863Z</time>
      </trkpt>
      <trkpt lat="43.73226" lon="1.45252">
        <ele>212.709206</ele>
        <time>2022-07-31T13:11:26.857Z</time>
      </trkpt>
      <trkpt lat="43.73237" lon="1.45248">
        <ele>211.924917</ele>
        <time>2022-07-31T13:11:28.859Z</time>
      </trkpt>
      <trkpt lat="43.73246" lon="1.45244">
        <ele>211.274666</ele>
        <time>2022-07-31T13:11:30.878Z</time>
      </trkpt>
      <trkpt lat="43.73256" lon="1.45243">
        <ele>210.52025</ele>
        <time>2022-07-31T13:11:32.848Z</time>
      </trkpt>
      <trkpt lat="43.73267" lon="1.45245">
        <ele>209.787666</ele>
        <time>2022-07-31T13:11:34.853Z</time>
      </trkpt>
      <trkpt lat="43.73279" lon="1.45248">
        <ele>208.909079</ele>
        <time>2022-07-31T13:11:36.854Z</time>
      </trkpt>
      <trkpt lat="43.73291" lon="1.45248">
        <ele>208.020122</ele>
        <time>2022-07-31T13:11:38.870Z</time>
      </trkpt>
      <trkpt lat="43.73303" lon="1.45248">
        <ele>207.152557</ele>
        <time>2022-07-31T13:11:40.864Z</time>
      </trkpt>
      <trkpt lat="43.73316" lon="1.4525">
        <ele>206.434024</ele>
        <time>2022-07-31T13:11:42.894Z</time>
      </trkpt>
      <trkpt lat="43.7333" lon="1.45249">
        <ele>206.076318</ele>
        <time>2022-07-31T13:11:44.885Z</time>
      </trkpt>
      <trkpt lat="43.73343" lon="1.45249">
        <ele>205.721176</ele>
        <time>2022-07-31T13:11:46.882Z</time>
      </trkpt>
      <trkpt lat="43.73356" lon="1.45248">
        <ele>205.371512</ele>
        <time>2022-07-31T13:11:48.896Z</time>
      </trkpt>
      <trkpt lat="43.7337" lon="1.45248">
        <ele>205.010891</ele>
        <time>2022-07-31T13:11:50.896Z</time>
      </trkpt>
      <trkpt lat="43.73383" lon="1.45247">
        <ele>204.642467</ele>
        <time>2022-07-31T13:11:52.869Z</time>
      </trkpt>
      <trkpt lat="43.73397" lon="1.45246">
        <ele>204.268513</ele>
        <time>2022-07-31T13:11:54.877Z</time>
      </trkpt>
      <trkpt lat="43.73411" lon="1.45245">
        <ele>203.902269</ele>
        <time>2022-07-31T13:11:56.875Z</time>
      </trkpt>
      <trkpt lat="43.73425" lon="1.45245">
        <ele>203.533845</ele>
        <time>2022-07-31T13:11:58.886Z</time>
      </trkpt>
      <trkpt lat="43.73438" lon="1.45244">
        <ele>203.173136</ele>
        <time>2022-07-31T13:12:00.883Z</time>
      </trkpt>
      <trkpt lat="43.73452" lon="1.45243">
        <ele>202.820091</ele>
        <time>2022-07-31T13:12:02.874Z</time>
      </trkpt>
      <trkpt lat="43.73465" lon="1.45241">
        <ele>202.461301</ele>
        <time>2022-07-31T13:12:04.886Z</time>
      </trkpt>
      <trkpt lat="43.73479" lon="1.4524">
        <ele>202.092499</ele>
        <time>2022-07-31T13:12:06.867Z</time>
      </trkpt>
      <trkpt lat="43.73492" lon="1.45238">
        <ele>201.73395</ele>
        <time>2022-07-31T13:12:08.880Z</time>
      </trkpt>
      <trkpt lat="43.73506" lon="1.45236">
        <ele>201.416489</ele>
        <time>2022-07-31T13:12:10.877Z</time>
      </trkpt>
      <trkpt lat="43.73521" lon="1.45234">
        <ele>201.095023</ele>
        <time>2022-07-31T13:12:12.882Z</time>
      </trkpt>
      <trkpt lat="43.73535" lon="1.45234">
        <ele>200.783544</ele>
        <time>2022-07-31T13:12:14.873Z</time>
      </trkpt>
      <trkpt lat="43.73549" lon="1.45233">
        <ele>200.471797</ele>
        <time>2022-07-31T13:12:16.871Z</time>
      </trkpt>
      <trkpt lat="43.73562" lon="1.45231">
        <ele>200.164113</ele>
        <time>2022-07-31T13:12:18.891Z</time>
      </trkpt>
      <trkpt lat="43.73576" lon="1.45229">
        <ele>199.853163</ele>
        <time>2022-07-31T13:12:20.887Z</time>
      </trkpt>
      <trkpt lat="43.7359" lon="1.45228">
        <ele>199.531832</ele>
        <time>2022-07-31T13:12:22.884Z</time>
      </trkpt>
      <trkpt lat="43.73605" lon="1.45226">
        <ele>199.210073</ele>
        <time>2022-07-31T13:12:24.864Z</time>
      </trkpt>
      <trkpt lat="43.73619" lon="1.45224">
        <ele>198.891101</ele>
        <time>2022-07-31T13:12:26.876Z</time>
      </trkpt>
      <trkpt lat="43.73632" lon="1.45223">
        <ele>198.589993</ele>
        <time>2022-07-31T13:12:28.888Z</time>
      </trkpt>
      <trkpt lat="43.73644" lon="1.45222">
        <ele>198.323416</ele>
        <time>2022-07-31T13:12:30.879Z</time>
      </trkpt>
      <trkpt lat="43.73654" lon="1.45223">
        <ele>198.096501</ele>
        <time>2022-07-31T13:12:34.854Z</time>
      </trkpt>
      <trkpt lat="43.73664" lon="1.45224">
        <ele>197.885807</ele>
        <time>2022-07-31T13:12:37.891Z</time>
      </trkpt>
      <trkpt lat="43.73676" lon="1.4523">
        <ele>197.576874</ele>
        <time>2022-07-31T13:12:40.897Z</time>
      </trkpt>
      <trkpt lat="43.73682" lon="1.45241">
        <ele>197.317054</ele>
        <time>2022-07-31T13:12:42.900Z</time>
      </trkpt>
      <trkpt lat="43.73685" lon="1.45256">
        <ele>197.011175</ele>
        <time>2022-07-31T13:12:44.885Z</time>
      </trkpt>
      <trkpt lat="43.73688" lon="1.45273">
        <ele>196.689579</ele>
        <time>2022-07-31T13:12:46.861Z</time>
      </trkpt>
      <trkpt lat="43.73693" lon="1.45289">
        <ele>196.361986</ele>
        <time>2022-07-31T13:12:48.891Z</time>
      </trkpt>
      <trkpt lat="43.73703" lon="1.45298">
        <ele>196.046778</ele>
        <time>2022-07-31T13:12:50.874Z</time>
      </trkpt>
      <trkpt lat="43.73715" lon="1.45304">
        <ele>195.726386</ele>
        <time>2022-07-31T13:12:52.889Z</time>
      </trkpt>
      <trkpt lat="43.73727" lon="1.4531">
        <ele>195.391943</ele>
        <time>2022-07-31T13:12:54.876Z</time>
      </trkpt>
      <trkpt lat="43.73739" lon="1.45316">
        <ele>195.056688</ele>
        <time>2022-07-31T13:12:56.885Z</time>
      </trkpt>
      <trkpt lat="43.73751" lon="1.45321">
        <ele>194.725021</ele>
        <time>2022-07-31T13:12:58.874Z</time>
      </trkpt>
      <trkpt lat="43.73763" lon="1.45323">
        <ele>194.407774</ele>
        <time>2022-07-31T13:13:00.876Z</time>
      </trkpt>
      <trkpt lat="43.73775" lon="1.45328">
        <ele>194.083662</ele>
        <time>2022-07-31T13:13:02.901Z</time>
      </trkpt>
      <trkpt lat="43.73787" lon="1.45332">
        <ele>193.760515</ele>
        <time>2022-07-31T13:13:04.881Z</time>
      </trkpt>
      <trkpt lat="43.73799" lon="1.45336">
        <ele>193.438738</ele>
        <time>2022-07-31T13:13:06.897Z</time>
      </trkpt>
      <trkpt lat="43.73812" lon="1.45339">
        <ele>193.113777</ele>
        <time>2022-07-31T13:13:08.879Z</time>
      </trkpt>
      <trkpt lat="43.73824" lon="1.4534">
        <ele>192.901926</ele>
        <time>2022-07-31T13:13:10.902Z</time>
      </trkpt>
      <trkpt lat="43.73837" lon="1.45339">
        <ele>192.72138</ele>
        <time>2022-07-31T13:13:12.863Z</time>
      </trkpt>
      <trkpt lat="43.7385" lon="1.45337">
        <ele>192.539729</ele>
        <time>2022-07-31T13:13:14.850Z</time>
      </trkpt>
      <trkpt lat="43.73863" lon="1.45334">
        <ele>192.357117</ele>
        <time>2022-07-31T13:13:16.850Z</time>
      </trkpt>
      <trkpt lat="43.73876" lon="1.45331">
        <ele>192.175388</ele>
        <time>2022-07-31T13:13:18.880Z</time>
      </trkpt>
      <trkpt lat="43.73888" lon="1.45328">
        <ele>191.996049</ele>
        <time>2022-07-31T13:13:20.880Z</time>
      </trkpt>
      <trkpt lat="43.73901" lon="1.45324">
        <ele>191.819114</ele>
        <time>2022-07-31T13:13:22.886Z</time>
      </trkpt>
      <trkpt lat="43.73913" lon="1.4532">
        <ele>191.646641</ele>
        <time>2022-07-31T13:13:24.902Z</time>
      </trkpt>
      <trkpt lat="43.73925" lon="1.45319">
        <ele>191.475518</ele>
        <time>2022-07-31T13:13:26.878Z</time>
      </trkpt>
      <trkpt lat="43.73937" lon="1.45322">
        <ele>191.30378</ele>
        <time>2022-07-31T13:13:28.888Z</time>
      </trkpt>
      <trkpt lat="43.73948" lon="1.45328">
        <ele>191.134267</ele>
        <time>2022-07-31T13:13:30.867Z</time>
      </trkpt>
      <trkpt lat="43.7396" lon="1.45335">
        <ele>190.959377</ele>
        <time>2022-07-31T13:13:32.890Z</time>
      </trkpt>
      <trkpt lat="43.73971" lon="1.45342">
        <ele>190.781589</ele>
        <time>2022-07-31T13:13:34.868Z</time>
      </trkpt>
      <trkpt lat="43.73983" lon="1.4535">
        <ele>190.602535</ele>
        <time>2022-07-31T13:13:36.855Z</time>
      </trkpt>
      <trkpt lat="43.73994" lon="1.45357">
        <ele>190.423446</ele>
        <time>2022-07-31T13:13:38.902Z</time>
      </trkpt>
      <trkpt lat="43.74005" lon="1.45365">
        <ele>190.243256</ele>
        <time>2022-07-31T13:13:40.860Z</time>
      </trkpt>
      <trkpt lat="43.74016" lon="1.45373">
        <ele>190.062453</ele>
        <time>2022-07-31T13:13:42.881Z</time>
      </trkpt>
      <trkpt lat="43.74027" lon="1.4538">
        <ele>189.884391</ele>
        <time>2022-07-31T13:13:44.884Z</time>
      </trkpt>
      <trkpt lat="43.74038" lon="1.45388">
        <ele>189.705972</ele>
        <time>2022-07-31T13:13:46.870Z</time>
      </trkpt>
      <trkpt lat="43.74049" lon="1.45396">
        <ele>189.524841</ele>
        <time>2022-07-31T13:13:48.888Z</time>
      </trkpt>
      <trkpt lat="43.74061" lon="1.45404">
        <ele>189.335794</ele>
        <time>2022-07-31T13:13:50.928Z</time>
      </trkpt>
      <trkpt lat="43.74073" lon="1.45412">
        <ele>189.144016</ele>
        <time>2022-07-31T13:13:52.888Z</time>
      </trkpt>
      <trkpt lat="43.74084" lon="1.45421">
        <ele>188.953262</ele>
        <time>2022-07-31T13:13:54.879Z</time>
      </trkpt>
      <trkpt lat="43.74095" lon="1.45431">
        <ele>188.764469</ele>
        <time>2022-07-31T13:13:56.879Z</time>
      </trkpt>
      <trkpt lat="43.74106" lon="1.4544">
        <ele>188.575256</ele>
        <time>2022-07-31T13:13:58.877Z</time>
      </trkpt>
      <trkpt lat="43.74117" lon="1.4545">
        <ele>188.387834</ele>
        <time>2022-07-31T13:14:00.864Z</time>
      </trkpt>
      <trkpt lat="43.74128" lon="1.45459">
        <ele>188.202204</ele>
        <time>2022-07-31T13:14:02.868Z</time>
      </trkpt>
      <trkpt lat="43.74139" lon="1.45468">
        <ele>188.016444</ele>
        <time>2022-07-31T13:14:04.874Z</time>
      </trkpt>
      <trkpt lat="43.7415" lon="1.45477">
        <ele>187.782849</ele>
        <time>2022-07-31T13:14:06.868Z</time>
      </trkpt>
      <trkpt lat="43.74162" lon="1.45486">
        <ele>187.465756</ele>
        <time>2022-07-31T13:14:08.896Z</time>
      </trkpt>
      <trkpt lat="43.74174" lon="1.45496">
        <ele>187.140577</ele>
        <time>2022-07-31T13:14:10.890Z</time>
      </trkpt>
      <trkpt lat="43.74187" lon="1.45506">
        <ele>186.796804</ele>
        <time>2022-07-31T13:14:12.888Z</time>
      </trkpt>
      <trkpt lat="43.74201" lon="1.45517">
        <ele>186.428132</ele>
        <time>2022-07-31T13:14:14.878Z</time>
      </trkpt>
      <trkpt lat="43.74214" lon="1.45528">
        <ele>186.061241</ele>
        <time>2022-07-31T13:14:16.883Z</time>
      </trkpt>
      <trkpt lat="43.74228" lon="1.4554">
        <ele>185.685771</ele>
        <time>2022-07-31T13:14:18.874Z</time>
      </trkpt>
      <trkpt lat="43.74242" lon="1.45552">
        <ele>185.306566</ele>
        <time>2022-07-31T13:14:20.876Z</time>
      </trkpt>
      <trkpt lat="43.74256" lon="1.45563">
        <ele>184.927113</ele>
        <time>2022-07-31T13:14:22.870Z</time>
      </trkpt>
      <trkpt lat="43.74269" lon="1.45574">
        <ele>184.564499</ele>
        <time>2022-07-31T13:14:24.894Z</time>
      </trkpt>
      <trkpt lat="43.74282" lon="1.45585">
        <ele>184.214132</ele>
        <time>2022-07-31T13:14:26.884Z</time>
      </trkpt>
      <trkpt lat="43.74295" lon="1.45595">
        <ele>183.88039</ele>
        <time>2022-07-31T13:14:28.904Z</time>
      </trkpt>
      <trkpt lat="43.74307" lon="1.45605">
        <ele>183.651185</ele>
        <time>2022-07-31T13:14:30.866Z</time>
      </trkpt>
      <trkpt lat="43.74319" lon="1.45615">
        <ele>183.520368</ele>
        <time>2022-07-31T13:14:32.875Z</time>
      </trkpt>
      <trkpt lat="43.7433" lon="1.45625">
        <ele>183.391348</ele>
        <time>2022-07-31T13:14:34.901Z</time>
      </trkpt>
      <trkpt lat="43.74341" lon="1.45634">
        <ele>183.27216</ele>
        <time>2022-07-31T13:14:36.855Z</time>
      </trkpt>
      <trkpt lat="43.74353" lon="1.45641">
        <ele>183.15394</ele>
        <time>2022-07-31T13:14:38.864Z</time>
      </trkpt>
      <trkpt lat="43.74364" lon="1.45648">
        <ele>183.037962</ele>
        <time>2022-07-31T13:14:40.868Z</time>
      </trkpt>
      <trkpt lat="43.74375" lon="1.45653">
        <ele>182.924505</ele>
        <time>2022-07-31T13:14:42.897Z</time>
      </trkpt>
      <trkpt lat="43.74387" lon="1.45659">
        <ele>182.805018</ele>
        <time>2022-07-31T13:14:44.871Z</time>
      </trkpt>
      <trkpt lat="43.74399" lon="1.45663">
        <ele>182.689645</ele>
        <time>2022-07-31T13:14:46.896Z</time>
      </trkpt>
      <trkpt lat="43.74411" lon="1.45666">
        <ele>182.576202</ele>
        <time>2022-07-31T13:14:48.884Z</time>
      </trkpt>
      <trkpt lat="43.74423" lon="1.45669">
        <ele>182.460461</ele>
        <time>2022-07-31T13:14:50.884Z</time>
      </trkpt>
      <trkpt lat="43.74435" lon="1.45672">
        <ele>182.346885</ele>
        <time>2022-07-31T13:14:52.873Z</time>
      </trkpt>
      <trkpt lat="43.74446" lon="1.45676">
        <ele>182.236674</ele>
        <time>2022-07-31T13:14:54.890Z</time>
      </trkpt>
      <trkpt lat="43.74459" lon="1.45682">
        <ele>182.109848</ele>
        <time>2022-07-31T13:14:56.870Z</time>
      </trkpt>
      <trkpt lat="43.74473" lon="1.45688">
        <ele>181.965709</ele>
        <time>2022-07-31T13:14:58.895Z</time>
      </trkpt>
      <trkpt lat="43.74488" lon="1.45694">
        <ele>181.793228</ele>
        <time>2022-07-31T13:15:00.880Z</time>
      </trkpt>
      <trkpt lat="43.74503" lon="1.45699">
        <ele>181.628165</ele>
        <time>2022-07-31T13:15:02.857Z</time>
      </trkpt>
      <trkpt lat="43.74516" lon="1.45699">
        <ele>181.495117</ele>
        <time>2022-07-31T13:15:04.865Z</time>
      </trkpt>
      <trkpt lat="43.74526" lon="1.457">
        <ele>181.377957</ele>
        <time>2022-07-31T13:15:06.899Z</time>
      </trkpt>
      <trkpt lat="43.74534" lon="1.45694">
        <ele>181.280373</ele>
        <time>2022-07-31T13:15:09.878Z</time>
      </trkpt>
      <trkpt lat="43.74543" lon="1.45691">
        <ele>178.853054</ele>
        <time>2022-07-31T13:18:12.891Z</time>
      </trkpt>
      <trkpt lat="43.74575" lon="1.45397">
        <ele>128.3</ele>
      </trkpt>
      <trkpt lat="43.74603" lon="1.45334">
        <ele>129</ele>
      </trkpt>
      <trkpt lat="43.7464" lon="1.4526">
        <ele>128</ele>
      </trkpt>
      <trkpt lat="43.74658" lon="1.45103">
        <ele>126.7</ele>
      </trkpt>
      <trkpt lat="43.74635" lon="1.45039">
        <ele>126</ele>
      </trkpt>
      <trkpt lat="43.74637" lon="1.44921">
        <ele>125.2</ele>
      </trkpt>
      <trkpt lat="43.74874" lon="1.44996">
        <ele>125</ele>
      </trkpt>
      <trkpt lat="43.74938" lon="1.4498">
        <ele>179.028063</ele>
        <time>2022-07-31T13:22:26.867Z</time>
      </trkpt>
      <trkpt lat="43.74948" lon="1.44977">
        <ele>179.002959</ele>
        <time>2022-07-31T13:22:28.876Z</time>
      </trkpt>
      <trkpt lat="43.74959" lon="1.44974">
        <ele>178.97679</ele>
        <time>2022-07-31T13:22:30.892Z</time>
      </trkpt>
      <trkpt lat="43.7497" lon="1.44971">
        <ele>178.951496</ele>
        <time>2022-07-31T13:22:32.879Z</time>
      </trkpt>
      <trkpt lat="43.74982" lon="1.44968">
        <ele>178.92456</ele>
        <time>2022-07-31T13:22:34.892Z</time>
      </trkpt>
      <trkpt lat="43.74993" lon="1.44965">
        <ele>178.898481</ele>
        <time>2022-07-31T13:22:36.869Z</time>
      </trkpt>
      <trkpt lat="43.75003" lon="1.44962">
        <ele>178.873344</ele>
        <time>2022-07-31T13:22:38.903Z</time>
      </trkpt>
      <trkpt lat="43.75014" lon="1.44959">
        <ele>178.847175</ele>
        <time>2022-07-31T13:22:40.891Z</time>
      </trkpt>
      <trkpt lat="43.75026" lon="1.44957">
        <ele>178.820951</ele>
        <time>2022-07-31T13:22:42.888Z</time>
      </trkpt>
      <trkpt lat="43.75037" lon="1.44954">
        <ele>178.759445</ele>
        <time>2022-07-31T13:22:44.875Z</time>
      </trkpt>
      <trkpt lat="43.75048" lon="1.4495">
        <ele>178.638718</ele>
        <time>2022-07-31T13:22:46.885Z</time>
      </trkpt>
      <trkpt lat="43.75059" lon="1.44947">
        <ele>178.517553</ele>
        <time>2022-07-31T13:22:48.887Z</time>
      </trkpt>
      <trkpt lat="43.7507" lon="1.44945">
        <ele>178.397574</ele>
        <time>2022-07-31T13:22:50.893Z</time>
      </trkpt>
      <trkpt lat="43.75081" lon="1.44942">
        <ele>178.277595</ele>
        <time>2022-07-31T13:22:52.890Z</time>
      </trkpt>
      <trkpt lat="43.75092" lon="1.44939">
        <ele>178.155243</ele>
        <time>2022-07-31T13:22:54.878Z</time>
      </trkpt>
      <trkpt lat="43.75104" lon="1.44936">
        <ele>178.035123</ele>
        <time>2022-07-31T13:22:56.891Z</time>
      </trkpt>
      <trkpt lat="43.75115" lon="1.44933">
        <ele>177.915004</ele>
        <time>2022-07-31T13:22:58.888Z</time>
      </trkpt>
      <trkpt lat="43.75126" lon="1.4493">
        <ele>177.795929</ele>
        <time>2022-07-31T13:23:00.892Z</time>
      </trkpt>
      <trkpt lat="43.75138" lon="1.44927">
        <ele>177.667305</ele>
        <time>2022-07-31T13:23:02.905Z</time>
      </trkpt>
      <trkpt lat="43.75149" lon="1.44924">
        <ele>177.540124</ele>
        <time>2022-07-31T13:23:04.889Z</time>
      </trkpt>
      <trkpt lat="43.75161" lon="1.44926">
        <ele>177.418487</ele>
        <time>2022-07-31T13:23:06.889Z</time>
      </trkpt>
      <trkpt lat="43.75162" lon="1.44941">
        <ele>177.302563</ele>
        <time>2022-07-31T13:23:08.876Z</time>
      </trkpt>
      <trkpt lat="43.75157" lon="1.44957">
        <ele>177.168496</ele>
        <time>2022-07-31T13:23:10.888Z</time>
      </trkpt>
      <trkpt lat="43.75151" lon="1.44972">
        <ele>177.033043</ele>
        <time>2022-07-31T13:23:12.890Z</time>
      </trkpt>
      <trkpt lat="43.75146" lon="1.44988">
        <ele>176.90224</ele>
        <time>2022-07-31T13:23:14.884Z</time>
      </trkpt>
      <trkpt lat="43.7514" lon="1.45003">
        <ele>177.009456</ele>
        <time>2022-07-31T13:23:16.863Z</time>
      </trkpt>
      <trkpt lat="43.75135" lon="1.45018">
        <ele>177.134957</ele>
        <time>2022-07-31T13:23:18.878Z</time>
      </trkpt>
      <trkpt lat="43.75129" lon="1.45033">
        <ele>177.258532</ele>
        <time>2022-07-31T13:23:20.888Z</time>
      </trkpt>
      <trkpt lat="43.75124" lon="1.45047">
        <ele>177.380893</ele>
        <time>2022-07-31T13:23:22.862Z</time>
      </trkpt>
      <trkpt lat="43.75119" lon="1.45062">
        <ele>177.503278</ele>
        <time>2022-07-31T13:23:24.869Z</time>
      </trkpt>
      <trkpt lat="43.75117" lon="1.45077">
        <ele>177.618967</ele>
        <time>2022-07-31T13:23:26.890Z</time>
      </trkpt>
      <trkpt lat="43.75123" lon="1.4509">
        <ele>177.731846</ele>
        <time>2022-07-31T13:23:28.868Z</time>
      </trkpt>
      <trkpt lat="43.75133" lon="1.45097">
        <ele>177.850677</ele>
        <time>2022-07-31T13:23:30.884Z</time>
      </trkpt>
      <trkpt lat="43.75144" lon="1.45101">
        <ele>177.966647</ele>
        <time>2022-07-31T13:23:32.882Z</time>
      </trkpt>
      <trkpt lat="43.75154" lon="1.45106">
        <ele>178.08156</ele>
        <time>2022-07-31T13:23:34.890Z</time>
      </trkpt>
      <trkpt lat="43.75164" lon="1.45113">
        <ele>178.197191</ele>
        <time>2022-07-31T13:23:36.867Z</time>
      </trkpt>
      <trkpt lat="43.75175" lon="1.45119">
        <ele>178.313793</ele>
        <time>2022-07-31T13:23:38.868Z</time>
      </trkpt>
      <trkpt lat="43.75185" lon="1.45125">
        <ele>178.431749</ele>
        <time>2022-07-31T13:23:40.868Z</time>
      </trkpt>
      <trkpt lat="43.75196" lon="1.45131">
        <ele>178.552377</ele>
        <time>2022-07-31T13:23:42.880Z</time>
      </trkpt>
      <trkpt lat="43.75207" lon="1.45137">
        <ele>178.671758</ele>
        <time>2022-07-31T13:23:44.892Z</time>
      </trkpt>
      <trkpt lat="43.75217" lon="1.45144">
        <ele>178.865812</ele>
        <time>2022-07-31T13:23:46.897Z</time>
      </trkpt>
      <trkpt lat="43.75226" lon="1.45152">
        <ele>179.243084</ele>
        <time>2022-07-31T13:23:48.882Z</time>
      </trkpt>
      <trkpt lat="43.75235" lon="1.45161">
        <ele>179.61975</ele>
        <time>2022-07-31T13:23:50.886Z</time>
      </trkpt>
      <trkpt lat="43.75245" lon="1.45169">
        <ele>180.004609</ele>
        <time>2022-07-31T13:23:52.888Z</time>
      </trkpt>
      <trkpt lat="43.75254" lon="1.45178">
        <ele>180.38701</ele>
        <time>2022-07-31T13:23:54.865Z</time>
      </trkpt>
      <trkpt lat="43.75264" lon="1.45186">
        <ele>180.774723</ele>
        <time>2022-07-31T13:23:56.867Z</time>
      </trkpt>
      <trkpt lat="43.75274" lon="1.45195">
        <ele>181.17134</ele>
        <time>2022-07-31T13:23:58.907Z</time>
      </trkpt>
      <trkpt lat="43.75284" lon="1.45203">
        <ele>181.567084</ele>
        <time>2022-07-31T13:24:00.887Z</time>
      </trkpt>
      <trkpt lat="43.75293" lon="1.45211">
        <ele>181.955298</ele>
        <time>2022-07-31T13:24:02.888Z</time>
      </trkpt>
      <trkpt lat="43.75302" lon="1.4522">
        <ele>182.341514</ele>
        <time>2022-07-31T13:24:04.872Z</time>
      </trkpt>
      <trkpt lat="43.75312" lon="1.45228">
        <ele>182.717126</ele>
        <time>2022-07-31T13:24:06.869Z</time>
      </trkpt>
      <trkpt lat="43.75321" lon="1.45236">
        <ele>183.094023</ele>
        <time>2022-07-31T13:24:08.877Z</time>
      </trkpt>
      <trkpt lat="43.75331" lon="1.45244">
        <ele>183.474671</ele>
        <time>2022-07-31T13:24:10.868Z</time>
      </trkpt>
      <trkpt lat="43.7534" lon="1.45252">
        <ele>183.864533</ele>
        <time>2022-07-31T13:24:12.879Z</time>
      </trkpt>
      <trkpt lat="43.7535" lon="1.45261">
        <ele>184.245632</ele>
        <time>2022-07-31T13:24:14.875Z</time>
      </trkpt>
      <trkpt lat="43.75359" lon="1.45269">
        <ele>184.619222</ele>
        <time>2022-07-31T13:24:16.872Z</time>
      </trkpt>
      <trkpt lat="43.75368" lon="1.45274">
        <ele>184.895522</ele>
        <time>2022-07-31T13:24:19.892Z</time>
      </trkpt>
      <trkpt lat="43.75376" lon="1.4526">
        <ele>184.884948</ele>
        <time>2022-07-31T13:24:23.861Z</time>
      </trkpt>
      <trkpt lat="43.7538" lon="1.45248">
        <ele>184.876872</ele>
        <time>2022-07-31T13:24:25.879Z</time>
      </trkpt>
      <trkpt lat="43.75385" lon="1.45235">
        <ele>184.867806</ele>
        <time>2022-07-31T13:24:27.869Z</time>
      </trkpt>
      <trkpt lat="43.7539" lon="1.45221">
        <ele>184.85802</ele>
        <time>2022-07-31T13:24:29.887Z</time>
      </trkpt>
      <trkpt lat="43.75396" lon="1.45207">
        <ele>184.84853</ele>
        <time>2022-07-31T13:24:31.891Z</time>
      </trkpt>
      <trkpt lat="43.75402" lon="1.45193">
        <ele>184.838289</ele>
        <time>2022-07-31T13:24:33.885Z</time>
      </trkpt>
      <trkpt lat="43.75409" lon="1.45179">
        <ele>184.827816</ele>
        <time>2022-07-31T13:24:35.865Z</time>
      </trkpt>
      <trkpt lat="43.75418" lon="1.45165">
        <ele>184.81643</ele>
        <time>2022-07-31T13:24:37.898Z</time>
      </trkpt>
      <trkpt lat="43.75425" lon="1.45149">
        <ele>184.805296</ele>
        <time>2022-07-31T13:24:39.863Z</time>
      </trkpt>
      <trkpt lat="43.75431" lon="1.45134">
        <ele>184.794481</ele>
        <time>2022-07-31T13:24:41.869Z</time>
      </trkpt>
      <trkpt lat="43.75438" lon="1.45118">
        <ele>184.783472</ele>
        <time>2022-07-31T13:24:43.865Z</time>
      </trkpt>
      <trkpt lat="43.75444" lon="1.45103">
        <ele>184.772557</ele>
        <time>2022-07-31T13:24:45.872Z</time>
      </trkpt>
      <trkpt lat="43.75448" lon="1.45087">
        <ele>184.761987</ele>
        <time>2022-07-31T13:24:47.881Z</time>
      </trkpt>
      <trkpt lat="43.75452" lon="1.4507">
        <ele>184.751351</ele>
        <time>2022-07-31T13:24:49.871Z</time>
      </trkpt>
      <trkpt lat="43.75456" lon="1.45053">
        <ele>184.665144</ele>
        <time>2022-07-31T13:24:51.864Z</time>
      </trkpt>
      <trkpt lat="43.75459" lon="1.45037">
        <ele>184.443335</ele>
        <time>2022-07-31T13:24:53.861Z</time>
      </trkpt>
      <trkpt lat="43.75461" lon="1.45019">
        <ele>184.21799</ele>
        <time>2022-07-31T13:24:55.890Z</time>
      </trkpt>
      <trkpt lat="43.75464" lon="1.45002">
        <ele>183.990426</ele>
        <time>2022-07-31T13:24:57.882Z</time>
      </trkpt>
      <trkpt lat="43.75467" lon="1.44984">
        <ele>183.763655</ele>
        <time>2022-07-31T13:24:59.861Z</time>
      </trkpt>
      <trkpt lat="43.7547" lon="1.44967">
        <ele>183.53726</ele>
        <time>2022-07-31T13:25:01.878Z</time>
      </trkpt>
      <trkpt lat="43.75473" lon="1.4495">
        <ele>183.314218</ele>
        <time>2022-07-31T13:25:03.864Z</time>
      </trkpt>
      <trkpt lat="43.75477" lon="1.44934">
        <ele>183.100611</ele>
        <time>2022-07-31T13:25:05.865Z</time>
      </trkpt>
      <trkpt lat="43.75481" lon="1.44917">
        <ele>182.876795</ele>
        <time>2022-07-31T13:25:07.882Z</time>
      </trkpt>
      <trkpt lat="43.75485" lon="1.44902">
        <ele>182.667414</ele>
        <time>2022-07-31T13:25:09.857Z</time>
      </trkpt>
      <trkpt lat="43.75489" lon="1.44887">
        <ele>182.459821</ele>
        <time>2022-07-31T13:25:11.888Z</time>
      </trkpt>
      <trkpt lat="43.75493" lon="1.44871">
        <ele>182.253985</ele>
        <time>2022-07-31T13:25:13.880Z</time>
      </trkpt>
      <trkpt lat="43.75497" lon="1.44856">
        <ele>182.047591</ele>
        <time>2022-07-31T13:25:15.886Z</time>
      </trkpt>
      <trkpt lat="43.75501" lon="1.44841">
        <ele>181.844104</ele>
        <time>2022-07-31T13:25:17.914Z</time>
      </trkpt>
      <trkpt lat="43.75504" lon="1.44825">
        <ele>181.634603</ele>
        <time>2022-07-31T13:25:19.900Z</time>
      </trkpt>
      <trkpt lat="43.75506" lon="1.4481">
        <ele>181.65674</ele>
        <time>2022-07-31T13:25:21.880Z</time>
      </trkpt>
      <trkpt lat="43.75508" lon="1.44794">
        <ele>181.769282</ele>
        <time>2022-07-31T13:25:23.865Z</time>
      </trkpt>
      <trkpt lat="43.75511" lon="1.44778">
        <ele>181.889997</ele>
        <time>2022-07-31T13:25:25.877Z</time>
      </trkpt>
      <trkpt lat="43.75513" lon="1.44762">
        <ele>182.009011</ele>
        <time>2022-07-31T13:25:27.893Z</time>
      </trkpt>
      <trkpt lat="43.75516" lon="1.44746">
        <ele>182.129434</ele>
        <time>2022-07-31T13:25:29.902Z</time>
      </trkpt>
      <trkpt lat="43.75519" lon="1.4473">
        <ele>182.243997</ele>
        <time>2022-07-31T13:25:31.874Z</time>
      </trkpt>
      <trkpt lat="43.75522" lon="1.44715">
        <ele>182.361264</ele>
        <time>2022-07-31T13:25:33.907Z</time>
      </trkpt>
      <trkpt lat="43.75525" lon="1.44699">
        <ele>182.475481</ele>
        <time>2022-07-31T13:25:35.902Z</time>
      </trkpt>
      <trkpt lat="43.75528" lon="1.44684">
        <ele>182.592342</ele>
        <time>2022-07-31T13:25:37.878Z</time>
      </trkpt>
      <trkpt lat="43.75532" lon="1.44668">
        <ele>182.710426</ele>
        <time>2022-07-31T13:25:39.872Z</time>
      </trkpt>
      <trkpt lat="43.75536" lon="1.44653">
        <ele>182.827882</ele>
        <time>2022-07-31T13:25:41.862Z</time>
      </trkpt>
      <trkpt lat="43.7554" lon="1.44638">
        <ele>182.941547</ele>
        <time>2022-07-31T13:25:43.857Z</time>
      </trkpt>
      <trkpt lat="43.75547" lon="1.44627">
        <ele>183.050793</ele>
        <time>2022-07-31T13:25:45.860Z</time>
      </trkpt>
      <trkpt lat="43.75557" lon="1.4463">
        <ele>183.154793</ele>
        <time>2022-07-31T13:25:47.865Z</time>
      </trkpt>
      <trkpt lat="43.75566" lon="1.4464">
        <ele>183.270821</ele>
        <time>2022-07-31T13:25:49.875Z</time>
      </trkpt>
      <trkpt lat="43.75575" lon="1.44651">
        <ele>183.438555</ele>
        <time>2022-07-31T13:25:51.893Z</time>
      </trkpt>
      <trkpt lat="43.75583" lon="1.44662">
        <ele>183.908503</ele>
        <time>2022-07-31T13:25:53.878Z</time>
      </trkpt>
      <trkpt lat="43.75592" lon="1.44673">
        <ele>184.372653</ele>
        <time>2022-07-31T13:25:55.872Z</time>
      </trkpt>
      <trkpt lat="43.75601" lon="1.44684">
        <ele>184.841849</ele>
        <time>2022-07-31T13:25:57.897Z</time>
      </trkpt>
      <trkpt lat="43.7561" lon="1.44695">
        <ele>185.307012</ele>
        <time>2022-07-31T13:25:59.861Z</time>
      </trkpt>
      <trkpt lat="43.75618" lon="1.44706">
        <ele>185.769601</ele>
        <time>2022-07-31T13:26:01.881Z</time>
      </trkpt>
      <trkpt lat="43.75627" lon="1.44717">
        <ele>186.233749</ele>
        <time>2022-07-31T13:26:03.878Z</time>
      </trkpt>
      <trkpt lat="43.75636" lon="1.44727">
        <ele>186.684053</ele>
        <time>2022-07-31T13:26:05.865Z</time>
      </trkpt>
      <trkpt lat="43.75644" lon="1.44739">
        <ele>187.152244</ele>
        <time>2022-07-31T13:26:07.862Z</time>
      </trkpt>
      <trkpt lat="43.75652" lon="1.44749">
        <ele>187.576847</ele>
        <time>2022-07-31T13:26:09.870Z</time>
      </trkpt>
      <trkpt lat="43.75661" lon="1.44759">
        <ele>188.024815</ele>
        <time>2022-07-31T13:26:11.880Z</time>
      </trkpt>
      <trkpt lat="43.7567" lon="1.44769">
        <ele>188.475118</ele>
        <time>2022-07-31T13:26:13.867Z</time>
      </trkpt>
      <trkpt lat="43.75678" lon="1.44779">
        <ele>188.909695</ele>
        <time>2022-07-31T13:26:15.876Z</time>
      </trkpt>
      <trkpt lat="43.75686" lon="1.44789">
        <ele>189.349852</ele>
        <time>2022-07-31T13:26:17.876Z</time>
      </trkpt>
      <trkpt lat="43.75694" lon="1.448">
        <ele>189.794025</ele>
        <time>2022-07-31T13:26:19.869Z</time>
      </trkpt>
      <trkpt lat="43.75702" lon="1.44811">
        <ele>190.221791</ele>
        <time>2022-07-31T13:26:21.919Z</time>
      </trkpt>
      <trkpt lat="43.7571" lon="1.44823">
        <ele>190.644413</ele>
        <time>2022-07-31T13:26:23.866Z</time>
      </trkpt>
      <trkpt lat="43.75717" lon="1.44834">
        <ele>191.032876</ele>
        <time>2022-07-31T13:26:25.874Z</time>
      </trkpt>
      <trkpt lat="43.75724" lon="1.44847">
        <ele>191.435308</ele>
        <time>2022-07-31T13:26:27.875Z</time>
      </trkpt>
      <trkpt lat="43.7573" lon="1.44859">
        <ele>191.83117</ele>
        <time>2022-07-31T13:26:29.885Z</time>
      </trkpt>
      <trkpt lat="43.75737" lon="1.44872">
        <ele>192.227019</ele>
        <time>2022-07-31T13:26:31.874Z</time>
      </trkpt>
      <trkpt lat="43.75743" lon="1.44884">
        <ele>192.627129</ele>
        <time>2022-07-31T13:26:33.899Z</time>
      </trkpt>
      <trkpt lat="43.7575" lon="1.44896">
        <ele>193.025098</ele>
        <time>2022-07-31T13:26:35.879Z</time>
      </trkpt>
      <trkpt lat="43.75757" lon="1.44909">
        <ele>193.429314</ele>
        <time>2022-07-31T13:26:37.897Z</time>
      </trkpt>
      <trkpt lat="43.75764" lon="1.44922">
        <ele>193.837828</ele>
        <time>2022-07-31T13:26:39.879Z</time>
      </trkpt>
      <trkpt lat="43.75771" lon="1.44933">
        <ele>194.244131</ele>
        <time>2022-07-31T13:26:41.868Z</time>
      </trkpt>
      <trkpt lat="43.75779" lon="1.44945">
        <ele>194.655204</ele>
        <time>2022-07-31T13:26:43.872Z</time>
      </trkpt>
      <trkpt lat="43.75787" lon="1.44956">
        <ele>195.058904</ele>
        <time>2022-07-31T13:26:45.892Z</time>
      </trkpt>
      <trkpt lat="43.75796" lon="1.44967">
        <ele>195.458937</ele>
        <time>2022-07-31T13:26:47.886Z</time>
      </trkpt>
      <trkpt lat="43.75805" lon="1.44977">
        <ele>195.871951</ele>
        <time>2022-07-31T13:26:49.870Z</time>
      </trkpt>
      <trkpt lat="43.75815" lon="1.44985">
        <ele>196.281782</ele>
        <time>2022-07-31T13:26:51.881Z</time>
      </trkpt>
      <trkpt lat="43.75825" lon="1.44993">
        <ele>196.688912</ele>
        <time>2022-07-31T13:26:53.887Z</time>
      </trkpt>
      <trkpt lat="43.75835" lon="1.44999">
        <ele>196.971065</ele>
        <time>2022-07-31T13:26:55.879Z</time>
      </trkpt>
      <trkpt lat="43.75845" lon="1.45005">
        <ele>197.158564</ele>
        <time>2022-07-31T13:26:57.907Z</time>
      </trkpt>
      <trkpt lat="43.75855" lon="1.45002">
        <ele>197.33642</ele>
        <time>2022-07-31T13:26:59.867Z</time>
      </trkpt>
      <trkpt lat="43.75864" lon="1.44995">
        <ele>197.515513</ele>
        <time>2022-07-31T13:27:01.886Z</time>
      </trkpt>
      <trkpt lat="43.75873" lon="1.44986">
        <ele>197.704743</ele>
        <time>2022-07-31T13:27:03.885Z</time>
      </trkpt>
      <trkpt lat="43.75882" lon="1.44977">
        <ele>197.897455</ele>
        <time>2022-07-31T13:27:05.876Z</time>
      </trkpt>
      <trkpt lat="43.75892" lon="1.44969">
        <ele>198.093241</ele>
        <time>2022-07-31T13:27:07.882Z</time>
      </trkpt>
      <trkpt lat="43.75902" lon="1.44961">
        <ele>198.284001</ele>
        <time>2022-07-31T13:27:09.863Z</time>
      </trkpt>
      <trkpt lat="43.75911" lon="1.44953">
        <ele>198.46975</ele>
        <time>2022-07-31T13:27:11.880Z</time>
      </trkpt>
      <trkpt lat="43.75919" lon="1.44945">
        <ele>198.644838</ele>
        <time>2022-07-31T13:27:13.870Z</time>
      </trkpt>
      <trkpt lat="43.75928" lon="1.44937">
        <ele>198.81781</ele>
        <time>2022-07-31T13:27:15.863Z</time>
      </trkpt>
      <trkpt lat="43.75936" lon="1.44929">
        <ele>198.992216</ele>
        <time>2022-07-31T13:27:17.880Z</time>
      </trkpt>
      <trkpt lat="43.75945" lon="1.44922">
        <ele>199.16739</ele>
        <time>2022-07-31T13:27:19.861Z</time>
      </trkpt>
      <trkpt lat="43.75953" lon="1.44914">
        <ele>199.34468</ele>
        <time>2022-07-31T13:27:21.864Z</time>
      </trkpt>
      <trkpt lat="43.75962" lon="1.44906">
        <ele>199.522572</ele>
        <time>2022-07-31T13:27:23.864Z</time>
      </trkpt>
      <trkpt lat="43.75971" lon="1.44898">
        <ele>199.703995</ele>
        <time>2022-07-31T13:27:25.932Z</time>
      </trkpt>
      <trkpt lat="43.75979" lon="1.44888">
        <ele>199.895009</ele>
        <time>2022-07-31T13:27:27.865Z</time>
      </trkpt>
      <trkpt lat="43.75989" lon="1.44878">
        <ele>199.827985</ele>
        <time>2022-07-31T13:27:29.863Z</time>
      </trkpt>
      <trkpt lat="43.75999" lon="1.44869">
        <ele>199.672358</ele>
        <time>2022-07-31T13:27:31.874Z</time>
      </trkpt>
      <trkpt lat="43.76009" lon="1.44862">
        <ele>199.524503</ele>
        <time>2022-07-31T13:27:33.888Z</time>
      </trkpt>
      <trkpt lat="43.7602" lon="1.44857">
        <ele>199.36855</ele>
        <time>2022-07-31T13:27:35.874Z</time>
      </trkpt>
      <trkpt lat="43.76032" lon="1.44851">
        <ele>199.208572</ele>
        <time>2022-07-31T13:27:37.886Z</time>
      </trkpt>
      <trkpt lat="43.76044" lon="1.44846">
        <ele>199.038332</ele>
        <time>2022-07-31T13:27:39.871Z</time>
      </trkpt>
      <trkpt lat="43.76058" lon="1.44842">
        <ele>198.852205</ele>
        <time>2022-07-31T13:27:41.903Z</time>
      </trkpt>
      <trkpt lat="43.76073" lon="1.44839">
        <ele>198.651998</ele>
        <time>2022-07-31T13:27:43.888Z</time>
      </trkpt>
      <trkpt lat="43.76089" lon="1.44836">
        <ele>198.438068</ele>
        <time>2022-07-31T13:27:45.872Z</time>
      </trkpt>
      <trkpt lat="43.76107" lon="1.44832">
        <ele>198.211684</ele>
        <time>2022-07-31T13:27:47.893Z</time>
      </trkpt>
      <trkpt lat="43.76115" lon="1.44831">
        <ele>198.094573</ele>
        <time>2022-07-31T13:27:48.894Z</time>
      </trkpt>
      <trkpt lat="43.76124" lon="1.44827">
        <ele>197.973272</ele>
        <time>2022-07-31T13:27:49.888Z</time>
      </trkpt>
      <trkpt lat="43.76138" lon="1.44812">
        <ele>197.747417</ele>
        <time>2022-07-31T13:27:51.896Z</time>
      </trkpt>
      <trkpt lat="43.76147" lon="1.44799">
        <ele>197.67268</ele>
        <time>2022-07-31T13:27:53.886Z</time>
      </trkpt>
      <trkpt lat="43.76155" lon="1.4479">
        <ele>198.290896</ele>
        <time>2022-07-31T13:27:55.895Z</time>
      </trkpt>
      <trkpt lat="43.76164" lon="1.44779">
        <ele>198.983548</ele>
        <time>2022-07-31T13:27:58.885Z</time>
      </trkpt>
      <trkpt lat="43.76171" lon="1.44771">
        <ele>199.539204</ele>
        <time>2022-07-31T13:28:01.889Z</time>
      </trkpt>
      <trkpt lat="43.76179" lon="1.44764">
        <ele>200.079833</ele>
        <time>2022-07-31T13:28:04.878Z</time>
      </trkpt>
      <trkpt lat="43.76188" lon="1.44755">
        <ele>200.744704</ele>
        <time>2022-07-31T13:28:08.898Z</time>
      </trkpt>
      <trkpt lat="43.76198" lon="1.44748">
        <ele>201.409141</ele>
        <time>2022-07-31T13:28:12.876Z</time>
      </trkpt>
      <trkpt lat="43.76208" lon="1.44738">
        <ele>202.147051</ele>
        <time>2022-07-31T13:28:16.873Z</time>
      </trkpt>
      <trkpt lat="43.76216" lon="1.4473">
        <ele>202.732415</ele>
        <time>2022-07-31T13:28:19.875Z</time>
      </trkpt>
      <trkpt lat="43.76225" lon="1.44721">
        <ele>203.358987</ele>
        <time>2022-07-31T13:28:22.872Z</time>
      </trkpt>
      <trkpt lat="43.76233" lon="1.44711">
        <ele>204.022102</ele>
        <time>2022-07-31T13:28:25.904Z</time>
      </trkpt>
      <trkpt lat="43.76242" lon="1.447">
        <ele>204.727576</ele>
        <time>2022-07-31T13:28:28.894Z</time>
      </trkpt>
      <trkpt lat="43.76251" lon="1.44688">
        <ele>205.473683</ele>
        <time>2022-07-31T13:28:31.880Z</time>
      </trkpt>
      <trkpt lat="43.76258" lon="1.44679">
        <ele>206.061547</ele>
        <time>2022-07-31T13:28:33.890Z</time>
      </trkpt>
      <trkpt lat="43.76265" lon="1.44669">
        <ele>206.646062</ele>
        <time>2022-07-31T13:28:35.878Z</time>
      </trkpt>
      <trkpt lat="43.76273" lon="1.44658">
        <ele>207.294651</ele>
        <time>2022-07-31T13:28:37.872Z</time>
      </trkpt>
      <trkpt lat="43.7628" lon="1.44648">
        <ele>207.904852</ele>
        <time>2022-07-31T13:28:39.904Z</time>
      </trkpt>
      <trkpt lat="43.76288" lon="1.44638">
        <ele>208.361984</ele>
        <time>2022-07-31T13:28:41.889Z</time>
      </trkpt>
      <trkpt lat="43.76295" lon="1.44628">
        <ele>208.633382</ele>
        <time>2022-07-31T13:28:43.888Z</time>
      </trkpt>
      <trkpt lat="43.76303" lon="1.44617">
        <ele>208.923045</ele>
        <time>2022-07-31T13:28:45.883Z</time>
      </trkpt>
      <trkpt lat="43.76312" lon="1.44605">
        <ele>209.24007</ele>
        <time>2022-07-31T13:28:47.871Z</time>
      </trkpt>
      <trkpt lat="43.76319" lon="1.44592">
        <ele>209.543563</ele>
        <time>2022-07-31T13:28:49.899Z</time>
      </trkpt>
      <trkpt lat="43.76327" lon="1.44581">
        <ele>209.826239</ele>
        <time>2022-07-31T13:28:51.881Z</time>
      </trkpt>
      <trkpt lat="43.76337" lon="1.4458">
        <ele>210.10066</ele>
        <time>2022-07-31T13:28:53.868Z</time>
      </trkpt>
      <trkpt lat="43.76347" lon="1.44583">
        <ele>210.370256</ele>
        <time>2022-07-31T13:28:55.875Z</time>
      </trkpt>
      <trkpt lat="43.76357" lon="1.44586">
        <ele>210.618106</ele>
        <time>2022-07-31T13:28:57.873Z</time>
      </trkpt>
      <trkpt lat="43.76369" lon="1.44591">
        <ele>210.949579</ele>
        <time>2022-07-31T13:29:00.873Z</time>
      </trkpt>
      <trkpt lat="43.7638" lon="1.44597">
        <ele>211.252098</ele>
        <time>2022-07-31T13:29:03.864Z</time>
      </trkpt>
      <trkpt lat="43.76391" lon="1.44602">
        <ele>211.555219</ele>
        <time>2022-07-31T13:29:06.862Z</time>
      </trkpt>
      <trkpt lat="43.76402" lon="1.44607">
        <ele>211.854719</ele>
        <time>2022-07-31T13:29:09.843Z</time>
      </trkpt>
      <trkpt lat="43.76413" lon="1.44614">
        <ele>212.151648</ele>
        <time>2022-07-31T13:29:12.840Z</time>
      </trkpt>
      <trkpt lat="43.76422" lon="1.44624">
        <ele>212.446992</ele>
        <time>2022-07-31T13:29:15.886Z</time>
      </trkpt>
      <trkpt lat="43.76429" lon="1.44634">
        <ele>212.730448</ele>
        <time>2022-07-31T13:29:18.883Z</time>
      </trkpt>
      <trkpt lat="43.7644" lon="1.44645">
        <ele>213.157476</ele>
        <time>2022-07-31T13:29:21.891Z</time>
      </trkpt>
      <trkpt lat="43.76448" lon="1.44651">
        <ele>213.531072</ele>
        <time>2022-07-31T13:29:23.865Z</time>
      </trkpt>
      <trkpt lat="43.76457" lon="1.44656">
        <ele>213.907471</ele>
        <time>2022-07-31T13:29:25.885Z</time>
      </trkpt>
      <trkpt lat="43.76466" lon="1.44662">
        <ele>214.328533</ele>
        <time>2022-07-31T13:29:27.866Z</time>
      </trkpt>
      <trkpt lat="43.76476" lon="1.44668">
        <ele>214.748196</ele>
        <time>2022-07-31T13:29:29.874Z</time>
      </trkpt>
      <trkpt lat="43.76486" lon="1.44674">
        <ele>215.184016</ele>
        <time>2022-07-31T13:29:31.886Z</time>
      </trkpt>
      <trkpt lat="43.76495" lon="1.44679">
        <ele>215.588111</ele>
        <time>2022-07-31T13:29:33.871Z</time>
      </trkpt>
      <trkpt lat="43.76505" lon="1.44685">
        <ele>216.017657</ele>
        <time>2022-07-31T13:29:35.888Z</time>
      </trkpt>
      <trkpt lat="43.76515" lon="1.44691">
        <ele>216.441291</ele>
        <time>2022-07-31T13:29:37.873Z</time>
      </trkpt>
      <trkpt lat="43.76525" lon="1.44695">
        <ele>216.863523</ele>
        <time>2022-07-31T13:29:39.879Z</time>
      </trkpt>
      <trkpt lat="43.76535" lon="1.44699">
        <ele>217.285756</ele>
        <time>2022-07-31T13:29:41.876Z</time>
      </trkpt>
      <trkpt lat="43.76545" lon="1.44703">
        <ele>217.692652</ele>
        <time>2022-07-31T13:29:43.888Z</time>
      </trkpt>
      <trkpt lat="43.76555" lon="1.44706">
        <ele>218.103164</ele>
        <time>2022-07-31T13:29:45.876Z</time>
      </trkpt>
      <trkpt lat="43.76565" lon="1.4471">
        <ele>218.510745</ele>
        <time>2022-07-31T13:29:47.872Z</time>
      </trkpt>
      <trkpt lat="43.76575" lon="1.44713">
        <ele>218.920867</ele>
        <time>2022-07-31T13:29:49.877Z</time>
      </trkpt>
      <trkpt lat="43.76585" lon="1.44717">
        <ele>219.3369</ele>
        <time>2022-07-31T13:29:51.891Z</time>
      </trkpt>
      <trkpt lat="43.76595" lon="1.4472">
        <ele>219.744481</ele>
        <time>2022-07-31T13:29:53.875Z</time>
      </trkpt>
      <trkpt lat="43.76604" lon="1.44723">
        <ele>220.129568</ele>
        <time>2022-07-31T13:29:55.877Z</time>
      </trkpt>
      <trkpt lat="43.76614" lon="1.44725">
        <ele>220.485671</ele>
        <time>2022-07-31T13:29:57.883Z</time>
      </trkpt>
      <trkpt lat="43.76624" lon="1.44728">
        <ele>220.844261</ele>
        <time>2022-07-31T13:29:59.877Z</time>
      </trkpt>
      <trkpt lat="43.76633" lon="1.44731">
        <ele>221.195154</ele>
        <time>2022-07-31T13:30:01.900Z</time>
      </trkpt>
      <trkpt lat="43.76642" lon="1.44733">
        <ele>221.533748</ele>
        <time>2022-07-31T13:30:03.880Z</time>
      </trkpt>
      <trkpt lat="43.76655" lon="1.44736">
        <ele>222.015906</ele>
        <time>2022-07-31T13:30:06.873Z</time>
      </trkpt>
      <trkpt lat="43.76668" lon="1.44739">
        <ele>222.477165</ele>
        <time>2022-07-31T13:30:09.855Z</time>
      </trkpt>
      <trkpt lat="43.7668" lon="1.44742">
        <ele>222.924866</ele>
        <time>2022-07-31T13:30:12.858Z</time>
      </trkpt>
      <trkpt lat="43.76688" lon="1.44745">
        <ele>223.260303</ele>
        <time>2022-07-31T13:30:14.864Z</time>
      </trkpt>
      <trkpt lat="43.76701" lon="1.4475">
        <ele>223.736584</ele>
        <time>2022-07-31T13:30:17.904Z</time>
      </trkpt>
      <trkpt lat="43.76711" lon="1.44753">
        <ele>224.096586</ele>
        <time>2022-07-31T13:30:19.883Z</time>
      </trkpt>
      <trkpt lat="43.7672" lon="1.44758">
        <ele>224.467281</ele>
        <time>2022-07-31T13:30:21.892Z</time>
      </trkpt>
      <trkpt lat="43.7673" lon="1.44763">
        <ele>224.855889</ele>
        <time>2022-07-31T13:30:23.883Z</time>
      </trkpt>
      <trkpt lat="43.7674" lon="1.44767">
        <ele>225.232392</ele>
        <time>2022-07-31T13:30:25.877Z</time>
      </trkpt>
      <trkpt lat="43.76749" lon="1.44773">
        <ele>225.60409</ele>
        <time>2022-07-31T13:30:27.871Z</time>
      </trkpt>
      <trkpt lat="43.76758" lon="1.4478">
        <ele>225.969243</ele>
        <time>2022-07-31T13:30:29.866Z</time>
      </trkpt>
      <trkpt lat="43.76767" lon="1.44787">
        <ele>226.344191</ele>
        <time>2022-07-31T13:30:31.895Z</time>
      </trkpt>
      <trkpt lat="43.76775" lon="1.44794">
        <ele>226.656639</ele>
        <time>2022-07-31T13:30:33.879Z</time>
      </trkpt>
      <trkpt lat="43.76785" lon="1.44801">
        <ele>226.692785</ele>
        <time>2022-07-31T13:30:35.881Z</time>
      </trkpt>
      <trkpt lat="43.76794" lon="1.44808">
        <ele>226.727921</ele>
        <time>2022-07-31T13:30:37.846Z</time>
      </trkpt>
      <trkpt lat="43.76804" lon="1.44815">
        <ele>226.765942</ele>
        <time>2022-07-31T13:30:39.850Z</time>
      </trkpt>
      <trkpt lat="43.76814" lon="1.44821">
        <ele>226.803934</ele>
        <time>2022-07-31T13:30:41.867Z</time>
      </trkpt>
      <trkpt lat="43.76824" lon="1.44829">
        <ele>226.842893</ele>
        <time>2022-07-31T13:30:43.868Z</time>
      </trkpt>
      <trkpt lat="43.76833" lon="1.44837">
        <ele>226.881073</ele>
        <time>2022-07-31T13:30:45.851Z</time>
      </trkpt>
      <trkpt lat="43.76844" lon="1.44842">
        <ele>226.918882</ele>
        <time>2022-07-31T13:30:47.858Z</time>
      </trkpt>
      <trkpt lat="43.76854" lon="1.44849">
        <ele>226.957199</ele>
        <time>2022-07-31T13:30:49.860Z</time>
      </trkpt>
      <trkpt lat="43.76865" lon="1.44856">
        <ele>226.997692</ele>
        <time>2022-07-31T13:30:51.941Z</time>
      </trkpt>
      <trkpt lat="43.76875" lon="1.44864">
        <ele>227.04006</ele>
        <time>2022-07-31T13:30:53.884Z</time>
      </trkpt>
      <trkpt lat="43.76886" lon="1.44873">
        <ele>227.083636</ele>
        <time>2022-07-31T13:30:55.841Z</time>
      </trkpt>
      <trkpt lat="43.76898" lon="1.44882">
        <ele>227.128304</ele>
        <time>2022-07-31T13:30:57.845Z</time>
      </trkpt>
      <trkpt lat="43.76908" lon="1.44892">
        <ele>227.171838</ele>
        <time>2022-07-31T13:30:59.836Z</time>
      </trkpt>
      <trkpt lat="43.76919" lon="1.449">
        <ele>227.213859</ele>
        <time>2022-07-31T13:31:01.843Z</time>
      </trkpt>
      <trkpt lat="43.76929" lon="1.44908">
        <ele>227.25462</ele>
        <time>2022-07-31T13:31:03.830Z</time>
      </trkpt>
      <trkpt lat="43.7694" lon="1.44917">
        <ele>227.662748</ele>
        <time>2022-07-31T13:31:05.876Z</time>
      </trkpt>
      <trkpt lat="43.7695" lon="1.44924">
        <ele>228.211726</ele>
        <time>2022-07-31T13:31:07.858Z</time>
      </trkpt>
      <trkpt lat="43.76961" lon="1.44932">
        <ele>228.760109</ele>
        <time>2022-07-31T13:31:09.855Z</time>
      </trkpt>
      <trkpt lat="43.76971" lon="1.44939">
        <ele>229.286384</ele>
        <time>2022-07-31T13:31:11.868Z</time>
      </trkpt>
      <trkpt lat="43.7698" lon="1.44948">
        <ele>229.797876</ele>
        <time>2022-07-31T13:31:13.864Z</time>
      </trkpt>
      <trkpt lat="43.76989" lon="1.44955">
        <ele>230.277</ele>
        <time>2022-07-31T13:31:15.844Z</time>
      </trkpt>
      <trkpt lat="43.76998" lon="1.44961">
        <ele>230.730815</ele>
        <time>2022-07-31T13:31:17.851Z</time>
      </trkpt>
      <trkpt lat="43.77006" lon="1.44966">
        <ele>231.176293</ele>
        <time>2022-07-31T13:31:19.854Z</time>
      </trkpt>
      <trkpt lat="43.77018" lon="1.44973">
        <ele>231.776409</ele>
        <time>2022-07-31T13:31:22.852Z</time>
      </trkpt>
      <trkpt lat="43.77029" lon="1.4498">
        <ele>232.350996</ele>
        <time>2022-07-31T13:31:25.850Z</time>
      </trkpt>
      <trkpt lat="43.77041" lon="1.44987">
        <ele>232.913375</ele>
        <time>2022-07-31T13:31:28.838Z</time>
      </trkpt>
      <trkpt lat="43.77051" lon="1.44993">
        <ele>233.450115</ele>
        <time>2022-07-31T13:31:31.836Z</time>
      </trkpt>
      <trkpt lat="43.77062" lon="1.44999">
        <ele>233.970084</ele>
        <time>2022-07-31T13:31:34.857Z</time>
      </trkpt>
      <trkpt lat="43.77072" lon="1.45005">
        <ele>234.486183</ele>
        <time>2022-07-31T13:31:37.867Z</time>
      </trkpt>
      <trkpt lat="43.77082" lon="1.45011">
        <ele>235.002281</ele>
        <time>2022-07-31T13:31:40.855Z</time>
      </trkpt>
      <trkpt lat="43.77092" lon="1.45016">
        <ele>235.488216</ele>
        <time>2022-07-31T13:31:43.854Z</time>
      </trkpt>
      <trkpt lat="43.77102" lon="1.45022">
        <ele>235.591372</ele>
        <time>2022-07-31T13:31:46.874Z</time>
      </trkpt>
      <trkpt lat="43.77113" lon="1.45029">
        <ele>235.558634</ele>
        <time>2022-07-31T13:31:49.843Z</time>
      </trkpt>
      <trkpt lat="43.77125" lon="1.45037">
        <ele>235.522002</ele>
        <time>2022-07-31T13:31:52.850Z</time>
      </trkpt>
      <trkpt lat="43.77136" lon="1.45045">
        <ele>235.485458</ele>
        <time>2022-07-31T13:31:55.847Z</time>
      </trkpt>
      <trkpt lat="43.77145" lon="1.45049">
        <ele>235.458893</ele>
        <time>2022-07-31T13:31:57.850Z</time>
      </trkpt>
      <trkpt lat="43.77155" lon="1.45054">
        <ele>235.430676</ele>
        <time>2022-07-31T13:31:59.863Z</time>
      </trkpt>
      <trkpt lat="43.77165" lon="1.45059">
        <ele>235.401381</ele>
        <time>2022-07-31T13:32:01.860Z</time>
      </trkpt>
      <trkpt lat="43.77174" lon="1.45065">
        <ele>235.371594</ele>
        <time>2022-07-31T13:32:03.859Z</time>
      </trkpt>
      <trkpt lat="43.77184" lon="1.45071">
        <ele>235.341902</ele>
        <time>2022-07-31T13:32:05.860Z</time>
      </trkpt>
      <trkpt lat="43.77194" lon="1.45077">
        <ele>235.312452</ele>
        <time>2022-07-31T13:32:07.839Z</time>
      </trkpt>
      <trkpt lat="43.77203" lon="1.45083">
        <ele>235.283352</ele>
        <time>2022-07-31T13:32:09.869Z</time>
      </trkpt>
      <trkpt lat="43.77213" lon="1.45088">
        <ele>235.254159</ele>
        <time>2022-07-31T13:32:11.848Z</time>
      </trkpt>
      <trkpt lat="43.77223" lon="1.45094">
        <ele>235.2243</ele>
        <time>2022-07-31T13:32:13.847Z</time>
      </trkpt>
      <trkpt lat="43.77232" lon="1.45101">
        <ele>235.194093</ele>
        <time>2022-07-31T13:32:15.848Z</time>
      </trkpt>
      <trkpt lat="43.77242" lon="1.45107">
        <ele>235.164566</ele>
        <time>2022-07-31T13:32:17.866Z</time>
      </trkpt>
      <trkpt lat="43.77252" lon="1.45115">
        <ele>235.131908</ele>
        <time>2022-07-31T13:32:20.839Z</time>
      </trkpt>
      <trkpt lat="43.77263" lon="1.45114">
        <ele>235.302838</ele>
        <time>2022-07-31T13:32:25.836Z</time>
      </trkpt>
      <trkpt lat="43.77273" lon="1.45126">
        <ele>236.023225</ele>
        <time>2022-07-31T13:32:28.837Z</time>
      </trkpt>
      <trkpt lat="43.77283" lon="1.45141">
        <ele>236.842792</ele>
        <time>2022-07-31T13:32:30.847Z</time>
      </trkpt>
      <trkpt lat="43.77294" lon="1.45161">
        <ele>237.809404</ele>
        <time>2022-07-31T13:32:32.853Z</time>
      </trkpt>
      <trkpt lat="43.77302" lon="1.45181">
        <ele>238.706662</ele>
        <time>2022-07-31T13:32:34.860Z</time>
      </trkpt>
      <trkpt lat="43.77308" lon="1.45192">
        <ele>239.247318</ele>
        <time>2022-07-31T13:32:36.869Z</time>
      </trkpt>
      <trkpt lat="43.77316" lon="1.45203">
        <ele>239.839045</ele>
        <time>2022-07-31T13:32:40.852Z</time>
      </trkpt>
      <trkpt lat="43.77323" lon="1.45213">
        <ele>240.418276</ele>
        <time>2022-07-31T13:32:44.869Z</time>
      </trkpt>
      <trkpt lat="43.7733" lon="1.45225">
        <ele>241.015848</ele>
        <time>2022-07-31T13:32:49.844Z</time>
      </trkpt>
      <trkpt lat="43.77338" lon="1.45236">
        <ele>241.627086</ele>
        <time>2022-07-31T13:32:54.856Z</time>
      </trkpt>
      <trkpt lat="43.77344" lon="1.45246">
        <ele>242.129612</ele>
        <time>2022-07-31T13:32:58.893Z</time>
      </trkpt>
      <trkpt lat="43.77349" lon="1.45258">
        <ele>242.671915</ele>
        <time>2022-07-31T13:33:02.839Z</time>
      </trkpt>
      <trkpt lat="43.77355" lon="1.45268">
        <ele>243.17232</ele>
        <time>2022-07-31T13:33:06.863Z</time>
      </trkpt>
      <trkpt lat="43.77366" lon="1.4529">
        <ele>244.241016</ele>
        <time>2022-07-31T13:33:26.866Z</time>
      </trkpt>
      <trkpt lat="43.77372" lon="1.453">
        <ele>244.738958</ele>
        <time>2022-07-31T13:33:29.839Z</time>
      </trkpt>
      <trkpt lat="43.77379" lon="1.45313">
        <ele>244.943251</ele>
        <time>2022-07-31T13:33:32.868Z</time>
      </trkpt>
      <trkpt lat="43.77389" lon="1.45325">
        <ele>245.032092</ele>
        <time>2022-07-31T13:33:35.849Z</time>
      </trkpt>
      <trkpt lat="43.774" lon="1.45333">
        <ele>245.11053</ele>
        <time>2022-07-31T13:33:38.879Z</time>
      </trkpt>
      <trkpt lat="43.77411" lon="1.45338">
        <ele>245.190762</ele>
        <time>2022-07-31T13:33:41.871Z</time>
      </trkpt>
      <trkpt lat="43.77422" lon="1.45346">
        <ele>245.274004</ele>
        <time>2022-07-31T13:33:44.852Z</time>
      </trkpt>
      <trkpt lat="43.77433" lon="1.45355">
        <ele>245.354099</ele>
        <time>2022-07-31T13:33:47.853Z</time>
      </trkpt>
      <trkpt lat="43.77442" lon="1.45363">
        <ele>245.428216</ele>
        <time>2022-07-31T13:33:50.862Z</time>
      </trkpt>
      <trkpt lat="43.77449" lon="1.45374">
        <ele>245.500437</ele>
        <time>2022-07-31T13:33:53.857Z</time>
      </trkpt>
      <trkpt lat="43.77457" lon="1.45386">
        <ele>245.576872</ele>
        <time>2022-07-31T13:33:56.894Z</time>
      </trkpt>
      <trkpt lat="43.77463" lon="1.45401">
        <ele>245.659134</ele>
        <time>2022-07-31T13:33:59.849Z</time>
      </trkpt>
      <trkpt lat="43.77466" lon="1.45418">
        <ele>245.74431</ele>
        <time>2022-07-31T13:34:02.861Z</time>
      </trkpt>
      <trkpt lat="43.77471" lon="1.45434">
        <ele>245.824702</ele>
        <time>2022-07-31T13:34:05.862Z</time>
      </trkpt>
      <trkpt lat="43.77482" lon="1.45445">
        <ele>245.917286</ele>
        <time>2022-07-31T13:34:08.851Z</time>
      </trkpt>
      <trkpt lat="43.77492" lon="1.45452">
        <ele>245.9893</ele>
        <time>2022-07-31T13:34:10.840Z</time>
      </trkpt>
      <trkpt lat="43.77502" lon="1.45458">
        <ele>246.059473</ele>
        <time>2022-07-31T13:34:12.865Z</time>
      </trkpt>
      <trkpt lat="43.77512" lon="1.45464">
        <ele>246.107903</ele>
        <time>2022-07-31T13:34:14.875Z</time>
      </trkpt>
      <trkpt lat="43.77523" lon="1.45471">
        <ele>246.149865</ele>
        <time>2022-07-31T13:34:16.891Z</time>
      </trkpt>
      <trkpt lat="43.77533" lon="1.45477">
        <ele>246.189238</ele>
        <time>2022-07-31T13:34:18.871Z</time>
      </trkpt>
      <trkpt lat="43.77541" lon="1.45486">
        <ele>246.226281</ele>
        <time>2022-07-31T13:34:21.880Z</time>
      </trkpt>
      <trkpt lat="43.77535" lon="1.45499">
        <ele>246.264726</ele>
        <time>2022-07-31T13:34:26.880Z</time>
      </trkpt>
      <trkpt lat="43.77525" lon="1.45507">
        <ele>246.307729</ele>
        <time>2022-07-31T13:34:29.858Z</time>
      </trkpt>
      <trkpt lat="43.77524" lon="1.45524">
        <ele>246.349992</ele>
        <time>2022-07-31T13:34:32.866Z</time>
      </trkpt>
      <trkpt lat="43.77532" lon="1.45531">
        <ele>246.383276</ele>
        <time>2022-07-31T13:34:34.865Z</time>
      </trkpt>
      <trkpt lat="43.7754" lon="1.45538">
        <ele>246.417041</ele>
        <time>2022-07-31T13:34:36.856Z</time>
      </trkpt>
      <trkpt lat="43.77548" lon="1.45544">
        <ele>246.451389</ele>
        <time>2022-07-31T13:34:38.867Z</time>
      </trkpt>
      <trkpt lat="43.77556" lon="1.45552">
        <ele>246.486173</ele>
        <time>2022-07-31T13:34:40.856Z</time>
      </trkpt>
      <trkpt lat="43.77565" lon="1.45559">
        <ele>246.521911</ele>
        <time>2022-07-31T13:34:42.894Z</time>
      </trkpt>
      <trkpt lat="43.77574" lon="1.45566">
        <ele>246.558159</ele>
        <time>2022-07-31T13:34:44.871Z</time>
      </trkpt>
      <trkpt lat="43.77582" lon="1.45573">
        <ele>246.593991</ele>
        <time>2022-07-31T13:34:46.887Z</time>
      </trkpt>
      <trkpt lat="43.7759" lon="1.4558">
        <ele>246.628807</ele>
        <time>2022-07-31T13:34:48.862Z</time>
      </trkpt>
      <trkpt lat="43.77598" lon="1.45588">
        <ele>246.663121</ele>
        <time>2022-07-31T13:34:50.864Z</time>
      </trkpt>
      <trkpt lat="43.77607" lon="1.45595">
        <ele>246.698728</ele>
        <time>2022-07-31T13:34:52.835Z</time>
      </trkpt>
      <trkpt lat="43.77615" lon="1.45602">
        <ele>246.724324</ele>
        <time>2022-07-31T13:34:54.864Z</time>
      </trkpt>
      <trkpt lat="43.77624" lon="1.4561">
        <ele>246.734717</ele>
        <time>2022-07-31T13:34:56.887Z</time>
      </trkpt>
      <trkpt lat="43.77633" lon="1.45617">
        <ele>246.745275</ele>
        <time>2022-07-31T13:34:58.876Z</time>
      </trkpt>
      <trkpt lat="43.77641" lon="1.45626">
        <ele>246.755622</ele>
        <time>2022-07-31T13:35:00.870Z</time>
      </trkpt>
      <trkpt lat="43.77649" lon="1.45634">
        <ele>246.765759</ele>
        <time>2022-07-31T13:35:02.880Z</time>
      </trkpt>
      <trkpt lat="43.77657" lon="1.45643">
        <ele>246.775803</ele>
        <time>2022-07-31T13:35:04.844Z</time>
      </trkpt>
      <trkpt lat="43.77664" lon="1.45651">
        <ele>246.785424</ele>
        <time>2022-07-31T13:35:06.919Z</time>
      </trkpt>
      <trkpt lat="43.77671" lon="1.45659">
        <ele>246.795237</ele>
        <time>2022-07-31T13:35:08.870Z</time>
      </trkpt>
      <trkpt lat="43.77679" lon="1.45668">
        <ele>246.805355</ele>
        <time>2022-07-31T13:35:10.851Z</time>
      </trkpt>
      <trkpt lat="43.77688" lon="1.45677">
        <ele>246.816178</ele>
        <time>2022-07-31T13:35:12.842Z</time>
      </trkpt>
      <trkpt lat="43.77696" lon="1.45686">
        <ele>246.827092</ele>
        <time>2022-07-31T13:35:14.862Z</time>
      </trkpt>
      <trkpt lat="43.77704" lon="1.45697">
        <ele>246.838526</ele>
        <time>2022-07-31T13:35:16.865Z</time>
      </trkpt>
      <trkpt lat="43.77712" lon="1.45707">
        <ele>246.849096</ele>
        <time>2022-07-31T13:35:18.853Z</time>
      </trkpt>
      <trkpt lat="43.77708" lon="1.4572">
        <ele>246.859645</ele>
        <time>2022-07-31T13:35:21.878Z</time>
      </trkpt>
      <trkpt lat="43.777" lon="1.45728">
        <ele>246.869628</ele>
        <time>2022-07-31T13:35:23.826Z</time>
      </trkpt>
      <trkpt lat="43.77693" lon="1.45739">
        <ele>246.880689</ele>
        <time>2022-07-31T13:35:25.861Z</time>
      </trkpt>
      <trkpt lat="43.77684" lon="1.45749">
        <ele>246.892247</ele>
        <time>2022-07-31T13:35:27.891Z</time>
      </trkpt>
      <trkpt lat="43.77676" lon="1.4576">
        <ele>246.911739</ele>
        <time>2022-07-31T13:35:29.856Z</time>
      </trkpt>
      <trkpt lat="43.77668" lon="1.45771">
        <ele>247.049097</ele>
        <time>2022-07-31T13:35:31.867Z</time>
      </trkpt>
      <trkpt lat="43.7766" lon="1.45782">
        <ele>247.18381</ele>
        <time>2022-07-31T13:35:33.860Z</time>
      </trkpt>
      <trkpt lat="43.77653" lon="1.45794">
        <ele>247.32175</ele>
        <time>2022-07-31T13:35:35.848Z</time>
      </trkpt>
      <trkpt lat="43.77645" lon="1.45806">
        <ele>247.459856</ele>
        <time>2022-07-31T13:35:37.861Z</time>
      </trkpt>
      <trkpt lat="43.77645" lon="1.4582">
        <ele>247.585405</ele>
        <time>2022-07-31T13:35:39.844Z</time>
      </trkpt>
      <trkpt lat="43.77652" lon="1.45829">
        <ele>247.706117</ele>
        <time>2022-07-31T13:35:41.842Z</time>
      </trkpt>
      <trkpt lat="43.7766" lon="1.45838">
        <ele>247.830679</ele>
        <time>2022-07-31T13:35:43.849Z</time>
      </trkpt>
      <trkpt lat="43.77668" lon="1.45847">
        <ele>247.955793</ele>
        <time>2022-07-31T13:35:45.852Z</time>
      </trkpt>
      <trkpt lat="43.77676" lon="1.45856">
        <ele>248.080906</ele>
        <time>2022-07-31T13:35:47.849Z</time>
      </trkpt>
      <trkpt lat="43.77684" lon="1.45865">
        <ele>248.203973</ele>
        <time>2022-07-31T13:35:49.849Z</time>
      </trkpt>
      <trkpt lat="43.77692" lon="1.45874">
        <ele>248.324601</ele>
        <time>2022-07-31T13:35:51.853Z</time>
      </trkpt>
      <trkpt lat="43.77699" lon="1.45882">
        <ele>248.443183</ele>
        <time>2022-07-31T13:35:53.852Z</time>
      </trkpt>
      <trkpt lat="43.77707" lon="1.45891">
        <ele>248.560089</ele>
        <time>2022-07-31T13:35:55.861Z</time>
      </trkpt>
      <trkpt lat="43.77714" lon="1.45899">
        <ele>248.676081</ele>
        <time>2022-07-31T13:35:57.861Z</time>
      </trkpt>
      <trkpt lat="43.77721" lon="1.45908">
        <ele>248.790925</ele>
        <time>2022-07-31T13:35:59.841Z</time>
      </trkpt>
      <trkpt lat="43.77729" lon="1.45916">
        <ele>248.908011</ele>
        <time>2022-07-31T13:36:01.870Z</time>
      </trkpt>
      <trkpt lat="43.77736" lon="1.45925">
        <ele>249.022855</ele>
        <time>2022-07-31T13:36:03.860Z</time>
      </trkpt>
      <trkpt lat="43.77743" lon="1.45935">
        <ele>249.065364</ele>
        <time>2022-07-31T13:36:06.872Z</time>
      </trkpt>
      <trkpt lat="43.77743" lon="1.45948">
        <ele>249.026033</ele>
        <time>2022-07-31T13:36:10.867Z</time>
      </trkpt>
      <trkpt lat="43.77734" lon="1.45962">
        <ele>248.972651</ele>
        <time>2022-07-31T13:36:13.867Z</time>
      </trkpt>
      <trkpt lat="43.77726" lon="1.45971">
        <ele>248.931954</ele>
        <time>2022-07-31T13:36:15.869Z</time>
      </trkpt>
      <trkpt lat="43.77717" lon="1.45978">
        <ele>248.887111</ele>
        <time>2022-07-31T13:36:17.871Z</time>
      </trkpt>
      <trkpt lat="43.77706" lon="1.45985">
        <ele>248.839306</ele>
        <time>2022-07-31T13:36:19.868Z</time>
      </trkpt>
      <trkpt lat="43.77695" lon="1.45991">
        <ele>248.791322</ele>
        <time>2022-07-31T13:36:21.877Z</time>
      </trkpt>
      <trkpt lat="43.77684" lon="1.45997">
        <ele>248.741114</ele>
        <time>2022-07-31T13:36:23.845Z</time>
      </trkpt>
      <trkpt lat="43.77673" lon="1.46005">
        <ele>248.690716</ele>
        <time>2022-07-31T13:36:25.849Z</time>
      </trkpt>
      <trkpt lat="43.77662" lon="1.46012">
        <ele>248.641769</ele>
        <time>2022-07-31T13:36:27.865Z</time>
      </trkpt>
      <trkpt lat="43.77651" lon="1.46021">
        <ele>248.588856</ele>
        <time>2022-07-31T13:36:29.874Z</time>
      </trkpt>
      <trkpt lat="43.77639" lon="1.4603">
        <ele>248.535151</ele>
        <time>2022-07-31T13:36:31.860Z</time>
      </trkpt>
      <trkpt lat="43.77628" lon="1.46039">
        <ele>248.482853</ele>
        <time>2022-07-31T13:36:33.866Z</time>
      </trkpt>
      <trkpt lat="43.77616" lon="1.46048">
        <ele>248.427793</ele>
        <time>2022-07-31T13:36:35.888Z</time>
      </trkpt>
      <trkpt lat="43.77605" lon="1.46058">
        <ele>248.373233</ele>
        <time>2022-07-31T13:36:37.893Z</time>
      </trkpt>
      <trkpt lat="43.77594" lon="1.46066">
        <ele>248.310463</ele>
        <time>2022-07-31T13:36:39.876Z</time>
      </trkpt>
      <trkpt lat="43.77583" lon="1.46076">
        <ele>248.242515</ele>
        <time>2022-07-31T13:36:41.910Z</time>
      </trkpt>
      <trkpt lat="43.77572" lon="1.46085">
        <ele>248.174909</ele>
        <time>2022-07-31T13:36:43.893Z</time>
      </trkpt>
      <trkpt lat="43.77562" lon="1.46095">
        <ele>248.108983</ele>
        <time>2022-07-31T13:36:45.916Z</time>
      </trkpt>
      <trkpt lat="43.77553" lon="1.46107">
        <ele>248.043106</ele>
        <time>2022-07-31T13:36:47.891Z</time>
      </trkpt>
      <trkpt lat="43.77545" lon="1.4612">
        <ele>247.977734</ele>
        <time>2022-07-31T13:36:49.851Z</time>
      </trkpt>
      <trkpt lat="43.77538" lon="1.46133">
        <ele>247.91422</ele>
        <time>2022-07-31T13:36:51.875Z</time>
      </trkpt>
      <trkpt lat="43.77531" lon="1.46146">
        <ele>247.851323</ele>
        <time>2022-07-31T13:36:53.877Z</time>
      </trkpt>
      <trkpt lat="43.77525" lon="1.4616">
        <ele>247.789229</ele>
        <time>2022-07-31T13:36:55.861Z</time>
      </trkpt>
      <trkpt lat="43.77519" lon="1.46173">
        <ele>247.72754</ele>
        <time>2022-07-31T13:36:57.897Z</time>
      </trkpt>
      <trkpt lat="43.77512" lon="1.46187">
        <ele>247.665901</ele>
        <time>2022-07-31T13:36:59.859Z</time>
      </trkpt>
      <trkpt lat="43.77505" lon="1.46199">
        <ele>247.603608</ele>
        <time>2022-07-31T13:37:01.870Z</time>
      </trkpt>
      <trkpt lat="43.77497" lon="1.46211">
        <ele>247.540743</ele>
        <time>2022-07-31T13:37:03.897Z</time>
      </trkpt>
      <trkpt lat="43.77489" lon="1.46223">
        <ele>247.478322</ele>
        <time>2022-07-31T13:37:05.877Z</time>
      </trkpt>
      <trkpt lat="43.77481" lon="1.46234">
        <ele>247.415754</ele>
        <time>2022-07-31T13:37:07.889Z</time>
      </trkpt>
      <trkpt lat="43.77472" lon="1.46245">
        <ele>247.386868</ele>
        <time>2022-07-31T13:37:09.869Z</time>
      </trkpt>
      <trkpt lat="43.77465" lon="1.46256">
        <ele>247.37981</ele>
        <time>2022-07-31T13:37:11.883Z</time>
      </trkpt>
      <trkpt lat="43.77458" lon="1.46269">
        <ele>247.372447</ele>
        <time>2022-07-31T13:37:13.857Z</time>
      </trkpt>
      <trkpt lat="43.77451" lon="1.46281">
        <ele>247.365196</ele>
        <time>2022-07-31T13:37:15.859Z</time>
      </trkpt>
      <trkpt lat="43.77444" lon="1.46294">
        <ele>247.358137</ele>
        <time>2022-07-31T13:37:17.860Z</time>
      </trkpt>
      <trkpt lat="43.77438" lon="1.46305">
        <ele>247.351448</ele>
        <time>2022-07-31T13:37:19.870Z</time>
      </trkpt>
      <trkpt lat="43.77429" lon="1.46317">
        <ele>247.343765</ele>
        <time>2022-07-31T13:37:22.876Z</time>
      </trkpt>
      <trkpt lat="43.77431" lon="1.46332">
        <ele>247.336967</ele>
        <time>2022-07-31T13:37:25.856Z</time>
      </trkpt>
      <trkpt lat="43.77438" lon="1.46343">
        <ele>247.329993</ele>
        <time>2022-07-31T13:37:28.869Z</time>
      </trkpt>
      <trkpt lat="43.77445" lon="1.46354">
        <ele>247.323156</ele>
        <time>2022-07-31T13:37:31.858Z</time>
      </trkpt>
      <trkpt lat="43.77453" lon="1.46365">
        <ele>247.31662</ele>
        <time>2022-07-31T13:37:34.912Z</time>
      </trkpt>
      <trkpt lat="43.77459" lon="1.46374">
        <ele>247.310612</ele>
        <time>2022-07-31T13:37:36.874Z</time>
      </trkpt>
      <trkpt lat="43.77466" lon="1.46384">
        <ele>247.30414</ele>
        <time>2022-07-31T13:37:38.867Z</time>
      </trkpt>
      <trkpt lat="43.77473" lon="1.46395">
        <ele>247.297472</ele>
        <time>2022-07-31T13:37:40.874Z</time>
      </trkpt>
      <trkpt lat="43.7748" lon="1.46406">
        <ele>247.290574</ele>
        <time>2022-07-31T13:37:42.864Z</time>
      </trkpt>
      <trkpt lat="43.77488" lon="1.46418">
        <ele>247.283405</ele>
        <time>2022-07-31T13:37:44.856Z</time>
      </trkpt>
      <trkpt lat="43.77496" lon="1.46429">
        <ele>247.261797</ele>
        <time>2022-07-31T13:37:46.865Z</time>
      </trkpt>
      <trkpt lat="43.77502" lon="1.46442">
        <ele>247.11719</ele>
        <time>2022-07-31T13:37:48.887Z</time>
      </trkpt>
      <trkpt lat="43.77509" lon="1.46453">
        <ele>246.980679</ele>
        <time>2022-07-31T13:37:50.864Z</time>
      </trkpt>
      <trkpt lat="43.77517" lon="1.46465">
        <ele>246.831993</ele>
        <time>2022-07-31T13:37:52.865Z</time>
      </trkpt>
      <trkpt lat="43.77522" lon="1.46479">
        <ele>246.687817</ele>
        <time>2022-07-31T13:37:54.872Z</time>
      </trkpt>
      <trkpt lat="43.77526" lon="1.46493">
        <ele>246.543661</ele>
        <time>2022-07-31T13:37:56.854Z</time>
      </trkpt>
      <trkpt lat="43.77527" lon="1.46509">
        <ele>246.39765</ele>
        <time>2022-07-31T13:37:58.861Z</time>
      </trkpt>
      <trkpt lat="43.77523" lon="1.46524">
        <ele>246.253492</ele>
        <time>2022-07-31T13:38:00.853Z</time>
      </trkpt>
      <trkpt lat="43.77518" lon="1.46538">
        <ele>246.107033</ele>
        <time>2022-07-31T13:38:02.842Z</time>
      </trkpt>
      <trkpt lat="43.77513" lon="1.46552">
        <ele>245.953274</ele>
        <time>2022-07-31T13:38:04.857Z</time>
      </trkpt>
      <trkpt lat="43.77506" lon="1.46565">
        <ele>245.803411</ele>
        <time>2022-07-31T13:38:06.842Z</time>
      </trkpt>
      <trkpt lat="43.77498" lon="1.46577">
        <ele>245.650421</ele>
        <time>2022-07-31T13:38:08.865Z</time>
      </trkpt>
      <trkpt lat="43.77489" lon="1.4659">
        <ele>245.492024</ele>
        <time>2022-07-31T13:38:10.861Z</time>
      </trkpt>
      <trkpt lat="43.7748" lon="1.46602">
        <ele>245.32965</ele>
        <time>2022-07-31T13:38:12.859Z</time>
      </trkpt>
      <trkpt lat="43.77459" lon="1.46632">
        <ele>244.952544</ele>
        <time>2022-07-31T13:39:01.896Z</time>
      </trkpt>
      <trkpt lat="43.77451" lon="1.46644">
        <ele>244.885453</ele>
        <time>2022-07-31T13:39:03.841Z</time>
      </trkpt>
      <trkpt lat="43.77442" lon="1.46656">
        <ele>244.817395</ele>
        <time>2022-07-31T13:39:05.857Z</time>
      </trkpt>
      <trkpt lat="43.77434" lon="1.46669">
        <ele>244.750199</ele>
        <time>2022-07-31T13:39:07.845Z</time>
      </trkpt>
      <trkpt lat="43.77425" lon="1.46682">
        <ele>244.677848</ele>
        <time>2022-07-31T13:39:09.862Z</time>
      </trkpt>
      <trkpt lat="43.77417" lon="1.46695">
        <ele>244.607564</ele>
        <time>2022-07-31T13:39:11.855Z</time>
      </trkpt>
      <trkpt lat="43.77408" lon="1.46707">
        <ele>244.537279</ele>
        <time>2022-07-31T13:39:13.866Z</time>
      </trkpt>
      <trkpt lat="43.77401" lon="1.46721">
        <ele>244.469872</ele>
        <time>2022-07-31T13:39:15.861Z</time>
      </trkpt>
      <trkpt lat="43.77399" lon="1.46736">
        <ele>244.407877</ele>
        <time>2022-07-31T13:39:17.847Z</time>
      </trkpt>
      <trkpt lat="43.774" lon="1.46751">
        <ele>244.347949</ele>
        <time>2022-07-31T13:39:19.871Z</time>
      </trkpt>
      <trkpt lat="43.77403" lon="1.46765">
        <ele>244.29085</ele>
        <time>2022-07-31T13:39:21.865Z</time>
      </trkpt>
      <trkpt lat="43.77406" lon="1.46778">
        <ele>244.23561</ele>
        <time>2022-07-31T13:39:23.849Z</time>
      </trkpt>
      <trkpt lat="43.77408" lon="1.46791">
        <ele>244.180756</ele>
        <time>2022-07-31T13:39:25.886Z</time>
      </trkpt>
      <trkpt lat="43.7741" lon="1.46804">
        <ele>244.125806</ele>
        <time>2022-07-31T13:39:27.865Z</time>
      </trkpt>
      <trkpt lat="43.77411" lon="1.46818">
        <ele>244.070548</ele>
        <time>2022-07-31T13:39:29.852Z</time>
      </trkpt>
      <trkpt lat="43.7741" lon="1.46832">
        <ele>244.012764</ele>
        <time>2022-07-31T13:39:31.856Z</time>
      </trkpt>
      <trkpt lat="43.77407" lon="1.46846">
        <ele>243.945705</ele>
        <time>2022-07-31T13:39:33.864Z</time>
      </trkpt>
      <trkpt lat="43.77402" lon="1.4686">
        <ele>243.770067</ele>
        <time>2022-07-31T13:39:35.871Z</time>
      </trkpt>
      <trkpt lat="43.77397" lon="1.46874">
        <ele>243.588429</ele>
        <time>2022-07-31T13:39:37.871Z</time>
      </trkpt>
      <trkpt lat="43.77392" lon="1.46888">
        <ele>243.403175</ele>
        <time>2022-07-31T13:39:39.867Z</time>
      </trkpt>
      <trkpt lat="43.77388" lon="1.46903">
        <ele>243.219152</ele>
        <time>2022-07-31T13:39:41.853Z</time>
      </trkpt>
      <trkpt lat="43.77382" lon="1.46917">
        <ele>243.028359</ele>
        <time>2022-07-31T13:39:43.866Z</time>
      </trkpt>
      <trkpt lat="43.77377" lon="1.46932">
        <ele>242.841555</ele>
        <time>2022-07-31T13:39:45.858Z</time>
      </trkpt>
      <trkpt lat="43.77372" lon="1.46946">
        <ele>242.651225</ele>
        <time>2022-07-31T13:39:47.868Z</time>
      </trkpt>
      <trkpt lat="43.77365" lon="1.4696">
        <ele>242.460925</ele>
        <time>2022-07-31T13:39:49.861Z</time>
      </trkpt>
      <trkpt lat="43.77359" lon="1.46974">
        <ele>242.27021</ele>
        <time>2022-07-31T13:39:51.885Z</time>
      </trkpt>
      <trkpt lat="43.77353" lon="1.46989">
        <ele>242.078106</ele>
        <time>2022-07-31T13:39:53.879Z</time>
      </trkpt>
      <trkpt lat="43.77347" lon="1.47003">
        <ele>241.884993</ele>
        <time>2022-07-31T13:39:55.869Z</time>
      </trkpt>
      <trkpt lat="43.77341" lon="1.47018">
        <ele>241.693897</ele>
        <time>2022-07-31T13:39:57.861Z</time>
      </trkpt>
      <trkpt lat="43.77335" lon="1.47032">
        <ele>241.50235</ele>
        <time>2022-07-31T13:39:59.868Z</time>
      </trkpt>
      <trkpt lat="43.7733" lon="1.47045">
        <ele>241.320899</ele>
        <time>2022-07-31T13:40:01.869Z</time>
      </trkpt>
      <trkpt lat="43.77324" lon="1.47058">
        <ele>241.144703</ele>
        <time>2022-07-31T13:40:03.868Z</time>
      </trkpt>
      <trkpt lat="43.7732" lon="1.47073">
        <ele>240.584786</ele>
        <time>2022-07-31T13:40:05.860Z</time>
      </trkpt>
      <trkpt lat="43.77319" lon="1.47089">
        <ele>239.756256</ele>
        <time>2022-07-31T13:40:07.869Z</time>
      </trkpt>
      <trkpt lat="43.77319" lon="1.47106">
        <ele>238.888721</ele>
        <time>2022-07-31T13:40:09.872Z</time>
      </trkpt>
      <trkpt lat="43.77319" lon="1.47124">
        <ele>237.965148</ele>
        <time>2022-07-31T13:40:11.858Z</time>
      </trkpt>
      <trkpt lat="43.77318" lon="1.47143">
        <ele>236.993107</ele>
        <time>2022-07-31T13:40:13.860Z</time>
      </trkpt>
      <trkpt lat="43.77312" lon="1.47163">
        <ele>235.914086</ele>
        <time>2022-07-31T13:40:15.863Z</time>
      </trkpt>
      <trkpt lat="43.77302" lon="1.47181">
        <ele>234.784745</ele>
        <time>2022-07-31T13:40:17.853Z</time>
      </trkpt>
      <trkpt lat="43.77291" lon="1.47198">
        <ele>233.573617</ele>
        <time>2022-07-31T13:40:19.845Z</time>
      </trkpt>
      <trkpt lat="43.77281" lon="1.47216">
        <ele>232.415024</ele>
        <time>2022-07-31T13:40:21.853Z</time>
      </trkpt>
      <trkpt lat="43.77275" lon="1.47236">
        <ele>231.320326</ele>
        <time>2022-07-31T13:40:23.843Z</time>
      </trkpt>
      <trkpt lat="43.77272" lon="1.47256">
        <ele>230.299727</ele>
        <time>2022-07-31T13:40:25.840Z</time>
      </trkpt>
      <trkpt lat="43.7727" lon="1.47276">
        <ele>229.22998</ele>
        <time>2022-07-31T13:40:27.868Z</time>
      </trkpt>
      <trkpt lat="43.77266" lon="1.473">
        <ele>227.985937</ele>
        <time>2022-07-31T13:40:29.852Z</time>
      </trkpt>
      <trkpt lat="43.77263" lon="1.47313">
        <ele>227.330307</ele>
        <time>2022-07-31T13:40:30.845Z</time>
      </trkpt>
      <trkpt lat="43.77258" lon="1.47336">
        <ele>226.161263</ele>
        <time>2022-07-31T13:40:32.848Z</time>
      </trkpt>
      <trkpt lat="43.77253" lon="1.47358">
        <ele>224.995585</ele>
        <time>2022-07-31T13:40:34.829Z</time>
      </trkpt>
      <trkpt lat="43.77248" lon="1.47383">
        <ele>223.746949</ele>
        <time>2022-07-31T13:40:36.867Z</time>
      </trkpt>
      <trkpt lat="43.77245" lon="1.47396">
        <ele>223.058635</ele>
        <time>2022-07-31T13:40:37.864Z</time>
      </trkpt>
      <trkpt lat="43.77243" lon="1.4741">
        <ele>222.348394</ele>
        <time>2022-07-31T13:40:38.847Z</time>
      </trkpt>
      <trkpt lat="43.77241" lon="1.47423">
        <ele>221.678045</ele>
        <time>2022-07-31T13:40:39.841Z</time>
      </trkpt>
      <trkpt lat="43.77242" lon="1.47437">
        <ele>221.005737</ele>
        <time>2022-07-31T13:40:40.829Z</time>
      </trkpt>
      <trkpt lat="43.77245" lon="1.4745">
        <ele>220.33538</ele>
        <time>2022-07-31T13:40:41.854Z</time>
      </trkpt>
      <trkpt lat="43.7725" lon="1.47472">
        <ele>219.205279</ele>
        <time>2022-07-31T13:40:43.846Z</time>
      </trkpt>
      <trkpt lat="43.77256" lon="1.4749">
        <ele>218.241546</ele>
        <time>2022-07-31T13:40:45.849Z</time>
      </trkpt>
      <trkpt lat="43.77259" lon="1.47506">
        <ele>217.392414</ele>
        <time>2022-07-31T13:40:47.808Z</time>
      </trkpt>
      <trkpt lat="43.77259" lon="1.47522">
        <ele>216.640888</ele>
        <time>2022-07-31T13:40:49.843Z</time>
      </trkpt>
      <trkpt lat="43.77259" lon="1.47536">
        <ele>216.193246</ele>
        <time>2022-07-31T13:40:51.837Z</time>
      </trkpt>
      <trkpt lat="43.7726" lon="1.4755">
        <ele>216.795561</ele>
        <time>2022-07-31T13:40:53.841Z</time>
      </trkpt>
      <trkpt lat="43.77261" lon="1.47562">
        <ele>217.355316</ele>
        <time>2022-07-31T13:40:55.856Z</time>
      </trkpt>
      <trkpt lat="43.77263" lon="1.47575">
        <ele>217.921844</ele>
        <time>2022-07-31T13:40:57.861Z</time>
      </trkpt>
      <trkpt lat="43.77267" lon="1.4759">
        <ele>218.641175</ele>
        <time>2022-07-31T13:41:00.843Z</time>
      </trkpt>
      <trkpt lat="43.77268" lon="1.47605">
        <ele>219.284988</ele>
        <time>2022-07-31T13:41:03.872Z</time>
      </trkpt>
      <trkpt lat="43.77266" lon="1.47618">
        <ele>219.879428</ele>
        <time>2022-07-31T13:41:06.848Z</time>
      </trkpt>
      <trkpt lat="43.77261" lon="1.47633">
        <ele>220.610461</ele>
        <time>2022-07-31T13:41:09.833Z</time>
      </trkpt>
      <trkpt lat="43.77256" lon="1.47645">
        <ele>221.243153</ele>
        <time>2022-07-31T13:41:12.841Z</time>
      </trkpt>
      <trkpt lat="43.77251" lon="1.47658">
        <ele>221.90419</ele>
        <time>2022-07-31T13:41:15.865Z</time>
      </trkpt>
      <trkpt lat="43.77247" lon="1.47673">
        <ele>222.610725</ele>
        <time>2022-07-31T13:41:18.839Z</time>
      </trkpt>
      <trkpt lat="43.77242" lon="1.47689">
        <ele>223.382807</ele>
        <time>2022-07-31T13:41:21.844Z</time>
      </trkpt>
      <trkpt lat="43.77239" lon="1.47706">
        <ele>224.13847</ele>
        <time>2022-07-31T13:41:24.832Z</time>
      </trkpt>
      <trkpt lat="43.77236" lon="1.47722">
        <ele>224.879873</ele>
        <time>2022-07-31T13:41:27.861Z</time>
      </trkpt>
      <trkpt lat="43.77235" lon="1.47738">
        <ele>225.605557</ele>
        <time>2022-07-31T13:41:30.840Z</time>
      </trkpt>
      <trkpt lat="43.77236" lon="1.47755">
        <ele>226.347624</ele>
        <time>2022-07-31T13:41:33.869Z</time>
      </trkpt>
      <trkpt lat="43.7724" lon="1.4777">
        <ele>227.036505</ele>
        <time>2022-07-31T13:41:36.847Z</time>
      </trkpt>
      <trkpt lat="43.77244" lon="1.47783">
        <ele>227.528221</ele>
        <time>2022-07-31T13:41:39.836Z</time>
      </trkpt>
      <trkpt lat="43.7725" lon="1.47798">
        <ele>228.054199</ele>
        <time>2022-07-31T13:41:42.861Z</time>
      </trkpt>
      <trkpt lat="43.77255" lon="1.47811">
        <ele>228.563116</ele>
        <time>2022-07-31T13:41:45.857Z</time>
      </trkpt>
      <trkpt lat="43.77262" lon="1.47822">
        <ele>229.046264</ele>
        <time>2022-07-31T13:41:48.848Z</time>
      </trkpt>
      <trkpt lat="43.77271" lon="1.47831">
        <ele>229.531656</ele>
        <time>2022-07-31T13:41:51.871Z</time>
      </trkpt>
      <trkpt lat="43.7728" lon="1.47839">
        <ele>230.009665</ele>
        <time>2022-07-31T13:41:54.847Z</time>
      </trkpt>
      <trkpt lat="43.77289" lon="1.47844">
        <ele>230.463886</ele>
        <time>2022-07-31T13:41:57.842Z</time>
      </trkpt>
      <trkpt lat="43.77298" lon="1.47849">
        <ele>230.880193</ele>
        <time>2022-07-31T13:42:00.851Z</time>
      </trkpt>
      <trkpt lat="43.77307" lon="1.47852">
        <ele>231.292244</ele>
        <time>2022-07-31T13:42:03.849Z</time>
      </trkpt>
      <trkpt lat="43.77316" lon="1.47854">
        <ele>231.718</ele>
        <time>2022-07-31T13:42:06.847Z</time>
      </trkpt>
      <trkpt lat="43.77326" lon="1.47856">
        <ele>232.158229</ele>
        <time>2022-07-31T13:42:09.848Z</time>
      </trkpt>
      <trkpt lat="43.77335" lon="1.4786">
        <ele>232.59885</ele>
        <time>2022-07-31T13:42:12.855Z</time>
      </trkpt>
      <trkpt lat="43.77345" lon="1.47863">
        <ele>233.024073</ele>
        <time>2022-07-31T13:42:15.831Z</time>
      </trkpt>
      <trkpt lat="43.77353" lon="1.47867">
        <ele>233.438238</ele>
        <time>2022-07-31T13:42:18.840Z</time>
      </trkpt>
      <trkpt lat="43.77362" lon="1.47871">
        <ele>233.845325</ele>
        <time>2022-07-31T13:42:21.842Z</time>
      </trkpt>
      <trkpt lat="43.7737" lon="1.47883">
        <ele>234.374428</ele>
        <time>2022-07-31T13:42:25.851Z</time>
      </trkpt>
      <trkpt lat="43.77371" lon="1.47897">
        <ele>234.830541</ele>
        <time>2022-07-31T13:42:28.827Z</time>
      </trkpt>
      <trkpt lat="43.77363" lon="1.47914">
        <ele>234.67656</ele>
        <time>2022-07-31T13:42:31.852Z</time>
      </trkpt>
      <trkpt lat="43.77356" lon="1.47931">
        <ele>233.518745</ele>
        <time>2022-07-31T13:42:33.863Z</time>
      </trkpt>
      <trkpt lat="43.77347" lon="1.47952">
        <ele>232.097787</ele>
        <time>2022-07-31T13:42:35.818Z</time>
      </trkpt>
      <trkpt lat="43.77343" lon="1.47964">
        <ele>231.297075</ele>
        <time>2022-07-31T13:42:36.845Z</time>
      </trkpt>
      <trkpt lat="43.77338" lon="1.47976">
        <ele>230.471187</ele>
        <time>2022-07-31T13:42:37.850Z</time>
      </trkpt>
      <trkpt lat="43.77332" lon="1.47986">
        <ele>229.727981</ele>
        <time>2022-07-31T13:42:38.833Z</time>
      </trkpt>
      <trkpt lat="43.77321" lon="1.48003">
        <ele>228.382538</ele>
        <time>2022-07-31T13:42:40.839Z</time>
      </trkpt>
      <trkpt lat="43.77311" lon="1.48024">
        <ele>226.906632</ele>
        <time>2022-07-31T13:42:42.849Z</time>
      </trkpt>
      <trkpt lat="43.77306" lon="1.48036">
        <ele>226.08893</ele>
        <time>2022-07-31T13:42:43.852Z</time>
      </trkpt>
      <trkpt lat="43.77301" lon="1.48049">
        <ele>225.24953</ele>
        <time>2022-07-31T13:42:44.844Z</time>
      </trkpt>
      <trkpt lat="43.77296" lon="1.48062">
        <ele>224.390784</ele>
        <time>2022-07-31T13:42:45.853Z</time>
      </trkpt>
      <trkpt lat="43.77291" lon="1.48074">
        <ele>223.569368</ele>
        <time>2022-07-31T13:42:46.856Z</time>
      </trkpt>
      <trkpt lat="43.77284" lon="1.48095">
        <ele>222.197052</ele>
        <time>2022-07-31T13:42:48.865Z</time>
      </trkpt>
      <trkpt lat="43.77278" lon="1.48112">
        <ele>221.136445</ele>
        <time>2022-07-31T13:42:50.845Z</time>
      </trkpt>
      <trkpt lat="43.77274" lon="1.48126">
        <ele>220.594981</ele>
        <time>2022-07-31T13:42:53.836Z</time>
      </trkpt>
      <trkpt lat="43.7728" lon="1.48138">
        <ele>220.613444</ele>
        <time>2022-07-31T13:42:57.847Z</time>
      </trkpt>
      <trkpt lat="43.77289" lon="1.48144">
        <ele>220.632373</ele>
        <time>2022-07-31T13:43:00.836Z</time>
      </trkpt>
      <trkpt lat="43.773" lon="1.4815">
        <ele>220.653365</ele>
        <time>2022-07-31T13:43:03.857Z</time>
      </trkpt>
      <trkpt lat="43.77311" lon="1.48156">
        <ele>220.675187</ele>
        <time>2022-07-31T13:43:06.849Z</time>
      </trkpt>
      <trkpt lat="43.77321" lon="1.48161">
        <ele>220.695111</ele>
        <time>2022-07-31T13:43:09.869Z</time>
      </trkpt>
      <trkpt lat="43.77331" lon="1.48167">
        <ele>220.715445</ele>
        <time>2022-07-31T13:43:12.846Z</time>
      </trkpt>
      <trkpt lat="43.77341" lon="1.48172">
        <ele>220.734126</ele>
        <time>2022-07-31T13:43:15.841Z</time>
      </trkpt>
      <trkpt lat="43.77351" lon="1.48177">
        <ele>220.754439</ele>
        <time>2022-07-31T13:43:18.839Z</time>
      </trkpt>
      <trkpt lat="43.77361" lon="1.48183">
        <ele>220.774191</ele>
        <time>2022-07-31T13:43:21.860Z</time>
      </trkpt>
      <trkpt lat="43.77371" lon="1.48187">
        <ele>220.79264</ele>
        <time>2022-07-31T13:43:24.840Z</time>
      </trkpt>
      <trkpt lat="43.77354" lon="1.48194">
        <ele>220.824152</ele>
        <time>2022-07-31T13:44:06.869Z</time>
      </trkpt>
      <trkpt lat="43.77345" lon="1.48191">
        <ele>220.841069</ele>
        <time>2022-07-31T13:44:08.846Z</time>
      </trkpt>
      <trkpt lat="43.77335" lon="1.48191">
        <ele>220.858992</ele>
        <time>2022-07-31T13:44:10.845Z</time>
      </trkpt>
      <trkpt lat="43.77326" lon="1.48197">
        <ele>220.878641</ele>
        <time>2022-07-31T13:44:12.871Z</time>
      </trkpt>
      <trkpt lat="43.7732" lon="1.48214">
        <ele>220.902717</ele>
        <time>2022-07-31T13:44:14.860Z</time>
      </trkpt>
      <trkpt lat="43.7732" lon="1.48233">
        <ele>220.524767</ele>
        <time>2022-07-31T13:44:16.817Z</time>
      </trkpt>
      <trkpt lat="43.77326" lon="1.48252">
        <ele>219.654711</ele>
        <time>2022-07-31T13:44:18.864Z</time>
      </trkpt>
      <trkpt lat="43.77338" lon="1.48261">
        <ele>218.77942</ele>
        <time>2022-07-31T13:44:20.827Z</time>
      </trkpt>
      <trkpt lat="43.77354" lon="1.48264">
        <ele>217.844904</ele>
        <time>2022-07-31T13:44:22.851Z</time>
      </trkpt>
      <trkpt lat="43.77369" lon="1.48268">
        <ele>216.89309</ele>
        <time>2022-07-31T13:44:24.839Z</time>
      </trkpt>
      <trkpt lat="43.77385" lon="1.48274">
        <ele>215.885557</ele>
        <time>2022-07-31T13:44:26.862Z</time>
      </trkpt>
      <trkpt lat="43.77401" lon="1.48282">
        <ele>214.861755</ele>
        <time>2022-07-31T13:44:28.837Z</time>
      </trkpt>
      <trkpt lat="43.77416" lon="1.48292">
        <ele>213.84397</ele>
        <time>2022-07-31T13:44:30.841Z</time>
      </trkpt>
      <trkpt lat="43.77431" lon="1.48304">
        <ele>212.804461</ele>
        <time>2022-07-31T13:44:32.850Z</time>
      </trkpt>
      <trkpt lat="43.77445" lon="1.48319">
        <ele>211.740287</ele>
        <time>2022-07-31T13:44:34.854Z</time>
      </trkpt>
      <trkpt lat="43.77458" lon="1.48335">
        <ele>210.650736</ele>
        <time>2022-07-31T13:44:36.845Z</time>
      </trkpt>
      <trkpt lat="43.77465" lon="1.48344">
        <ele>210.092776</ele>
        <time>2022-07-31T13:44:37.840Z</time>
      </trkpt>
      <trkpt lat="43.7747" lon="1.48355">
        <ele>209.950135</ele>
        <time>2022-07-31T13:44:38.834Z</time>
      </trkpt>
      <trkpt lat="43.77473" lon="1.48368">
        <ele>209.888676</ele>
        <time>2022-07-31T13:44:39.847Z</time>
      </trkpt>
      <trkpt lat="43.77475" lon="1.48381">
        <ele>209.827585</ele>
        <time>2022-07-31T13:44:40.831Z</time>
      </trkpt>
      <trkpt lat="43.77474" lon="1.48395">
        <ele>209.762291</ele>
        <time>2022-07-31T13:44:41.842Z</time>
      </trkpt>
      <trkpt lat="43.7747" lon="1.48409">
        <ele>209.693741</ele>
        <time>2022-07-31T13:44:42.853Z</time>
      </trkpt>
      <trkpt lat="43.77464" lon="1.48421">
        <ele>209.625708</ele>
        <time>2022-07-31T13:44:43.870Z</time>
      </trkpt>
      <trkpt lat="43.77457" lon="1.48431">
        <ele>209.559261</ele>
        <time>2022-07-31T13:44:44.866Z</time>
      </trkpt>
      <trkpt lat="43.77448" lon="1.4844">
        <ele>209.493217</ele>
        <time>2022-07-31T13:44:45.836Z</time>
      </trkpt>
      <trkpt lat="43.7744" lon="1.48448">
        <ele>209.429051</ele>
        <time>2022-07-31T13:44:46.839Z</time>
      </trkpt>
      <trkpt lat="43.77431" lon="1.48454">
        <ele>209.367217</ele>
        <time>2022-07-31T13:44:47.844Z</time>
      </trkpt>
      <trkpt lat="43.77422" lon="1.48457">
        <ele>209.308147</ele>
        <time>2022-07-31T13:44:48.841Z</time>
      </trkpt>
      <trkpt lat="43.77405" lon="1.48459">
        <ele>209.19934</ele>
        <time>2022-07-31T13:44:50.862Z</time>
      </trkpt>
      <trkpt lat="43.77391" lon="1.48457">
        <ele>209.109364</ele>
        <time>2022-07-31T13:44:52.840Z</time>
      </trkpt>
      <trkpt lat="43.77382" lon="1.48458">
        <ele>209.04996</ele>
        <time>2022-07-31T13:44:54.841Z</time>
      </trkpt>
      <trkpt lat="43.77378" lon="1.48471">
        <ele>208.989416</ele>
        <time>2022-07-31T13:44:57.843Z</time>
      </trkpt>
      <trkpt lat="43.77379" lon="1.48486">
        <ele>208.919753</ele>
        <time>2022-07-31T13:45:00.836Z</time>
      </trkpt>
      <trkpt lat="43.77378" lon="1.485">
        <ele>208.872029</ele>
        <time>2022-07-31T13:45:03.870Z</time>
      </trkpt>
      <trkpt lat="43.77378" lon="1.48514">
        <ele>209.062731</ele>
        <time>2022-07-31T13:45:06.816Z</time>
      </trkpt>
      <trkpt lat="43.77375" lon="1.48527">
        <ele>209.2473</ele>
        <time>2022-07-31T13:45:09.849Z</time>
      </trkpt>
      <trkpt lat="43.77371" lon="1.48543">
        <ele>209.466835</ele>
        <time>2022-07-31T13:45:12.848Z</time>
      </trkpt>
      <trkpt lat="43.77365" lon="1.48556">
        <ele>209.673515</ele>
        <time>2022-07-31T13:45:15.855Z</time>
      </trkpt>
      <trkpt lat="43.77359" lon="1.48571">
        <ele>209.915006</ele>
        <time>2022-07-31T13:45:18.838Z</time>
      </trkpt>
      <trkpt lat="43.77353" lon="1.48588">
        <ele>210.16646</ele>
        <time>2022-07-31T13:45:21.844Z</time>
      </trkpt>
      <trkpt lat="43.77349" lon="1.486">
        <ele>210.344391</ele>
        <time>2022-07-31T13:45:23.848Z</time>
      </trkpt>
      <trkpt lat="43.77345" lon="1.48613">
        <ele>210.539016</ele>
        <time>2022-07-31T13:45:25.855Z</time>
      </trkpt>
      <trkpt lat="43.7734" lon="1.48626">
        <ele>210.737342</ele>
        <time>2022-07-31T13:45:27.883Z</time>
      </trkpt>
      <trkpt lat="43.77336" lon="1.4864">
        <ele>210.938902</ele>
        <time>2022-07-31T13:45:29.849Z</time>
      </trkpt>
      <trkpt lat="43.77333" lon="1.48655">
        <ele>211.149416</ele>
        <time>2022-07-31T13:45:31.843Z</time>
      </trkpt>
      <trkpt lat="43.77332" lon="1.48671">
        <ele>211.367974</ele>
        <time>2022-07-31T13:45:33.843Z</time>
      </trkpt>
      <trkpt lat="43.77332" lon="1.48687">
        <ele>211.585736</ele>
        <time>2022-07-31T13:45:35.844Z</time>
      </trkpt>
      <trkpt lat="43.77332" lon="1.48703">
        <ele>211.80485</ele>
        <time>2022-07-31T13:45:37.857Z</time>
      </trkpt>
      <trkpt lat="43.77331" lon="1.4872">
        <ele>212.029561</ele>
        <time>2022-07-31T13:45:39.849Z</time>
      </trkpt>
      <trkpt lat="43.7733" lon="1.48736">
        <ele>212.218482</ele>
        <time>2022-07-31T13:45:41.850Z</time>
      </trkpt>
      <trkpt lat="43.77328" lon="1.48753">
        <ele>212.152258</ele>
        <time>2022-07-31T13:45:43.859Z</time>
      </trkpt>
      <trkpt lat="43.77326" lon="1.4877">
        <ele>212.084531</ele>
        <time>2022-07-31T13:45:45.859Z</time>
      </trkpt>
      <trkpt lat="43.77324" lon="1.48787">
        <ele>212.017189</ele>
        <time>2022-07-31T13:45:47.842Z</time>
      </trkpt>
      <trkpt lat="43.7732" lon="1.48804">
        <ele>211.950283</ele>
        <time>2022-07-31T13:45:49.846Z</time>
      </trkpt>
      <trkpt lat="43.77317" lon="1.4882">
        <ele>211.882587</ele>
        <time>2022-07-31T13:45:51.846Z</time>
      </trkpt>
      <trkpt lat="43.77312" lon="1.48837">
        <ele>211.813621</ele>
        <time>2022-07-31T13:45:53.855Z</time>
      </trkpt>
      <trkpt lat="43.77307" lon="1.48852">
        <ele>211.747204</ele>
        <time>2022-07-31T13:45:55.855Z</time>
      </trkpt>
      <trkpt lat="43.77301" lon="1.48868">
        <ele>211.676905</ele>
        <time>2022-07-31T13:45:57.852Z</time>
      </trkpt>
      <trkpt lat="43.77294" lon="1.48884">
        <ele>211.605459</ele>
        <time>2022-07-31T13:45:59.828Z</time>
      </trkpt>
      <trkpt lat="43.77287" lon="1.48899">
        <ele>211.535249</ele>
        <time>2022-07-31T13:46:01.837Z</time>
      </trkpt>
      <trkpt lat="43.7728" lon="1.48914">
        <ele>211.466614</ele>
        <time>2022-07-31T13:46:03.848Z</time>
      </trkpt>
      <trkpt lat="43.77272" lon="1.48928">
        <ele>211.398645</ele>
        <time>2022-07-31T13:46:05.828Z</time>
      </trkpt>
      <trkpt lat="43.77265" lon="1.48941">
        <ele>211.332138</ele>
        <time>2022-07-31T13:46:07.833Z</time>
      </trkpt>
      <trkpt lat="43.77256" lon="1.48954">
        <ele>211.265347</ele>
        <time>2022-07-31T13:46:09.845Z</time>
      </trkpt>
      <trkpt lat="43.77248" lon="1.48966">
        <ele>211.195499</ele>
        <time>2022-07-31T13:46:11.841Z</time>
      </trkpt>
      <trkpt lat="43.7724" lon="1.4898">
        <ele>211.124191</ele>
        <time>2022-07-31T13:46:13.868Z</time>
      </trkpt>
      <trkpt lat="43.77232" lon="1.48993">
        <ele>211.053313</ele>
        <time>2022-07-31T13:46:15.859Z</time>
      </trkpt>
      <trkpt lat="43.77225" lon="1.49007">
        <ele>210.982823</ele>
        <time>2022-07-31T13:46:17.846Z</time>
      </trkpt>
      <trkpt lat="43.77218" lon="1.49021">
        <ele>210.913306</ele>
        <time>2022-07-31T13:46:19.853Z</time>
      </trkpt>
      <trkpt lat="43.77211" lon="1.49035">
        <ele>210.843738</ele>
        <time>2022-07-31T13:46:21.838Z</time>
      </trkpt>
      <trkpt lat="43.77206" lon="1.49051">
        <ele>210.773753</ele>
        <time>2022-07-31T13:46:23.861Z</time>
      </trkpt>
      <trkpt lat="43.77201" lon="1.49066">
        <ele>210.704265</ele>
        <time>2022-07-31T13:46:25.845Z</time>
      </trkpt>
      <trkpt lat="43.77198" lon="1.49083">
        <ele>210.634987</ele>
        <time>2022-07-31T13:46:27.864Z</time>
      </trkpt>
      <trkpt lat="43.77194" lon="1.49099">
        <ele>210.564173</ele>
        <time>2022-07-31T13:46:29.836Z</time>
      </trkpt>
      <trkpt lat="43.77189" lon="1.49115">
        <ele>210.492605</ele>
        <time>2022-07-31T13:46:31.874Z</time>
      </trkpt>
      <trkpt lat="43.77181" lon="1.49129">
        <ele>210.420119</ele>
        <time>2022-07-31T13:46:33.838Z</time>
      </trkpt>
      <trkpt lat="43.77172" lon="1.49142">
        <ele>210.346438</ele>
        <time>2022-07-31T13:46:35.848Z</time>
      </trkpt>
      <trkpt lat="43.77163" lon="1.49155">
        <ele>210.272182</ele>
        <time>2022-07-31T13:46:37.845Z</time>
      </trkpt>
      <trkpt lat="43.77154" lon="1.49168">
        <ele>210.25213</ele>
        <time>2022-07-31T13:46:39.839Z</time>
      </trkpt>
      <trkpt lat="43.77145" lon="1.49182">
        <ele>210.287809</ele>
        <time>2022-07-31T13:46:41.832Z</time>
      </trkpt>
      <trkpt lat="43.77137" lon="1.49195">
        <ele>210.323452</ele>
        <time>2022-07-31T13:46:43.826Z</time>
      </trkpt>
      <trkpt lat="43.77129" lon="1.49208">
        <ele>210.358348</ele>
        <time>2022-07-31T13:46:45.855Z</time>
      </trkpt>
      <trkpt lat="43.7712" lon="1.49221">
        <ele>210.392219</ele>
        <time>2022-07-31T13:46:47.864Z</time>
      </trkpt>
      <trkpt lat="43.77112" lon="1.49233">
        <ele>210.425355</ele>
        <time>2022-07-31T13:46:49.847Z</time>
      </trkpt>
      <trkpt lat="43.77104" lon="1.49245">
        <ele>210.458157</ele>
        <time>2022-07-31T13:46:51.850Z</time>
      </trkpt>
      <trkpt lat="43.77095" lon="1.49256">
        <ele>210.490736</ele>
        <time>2022-07-31T13:46:53.857Z</time>
      </trkpt>
      <trkpt lat="43.77087" lon="1.49267">
        <ele>210.522632</ele>
        <time>2022-07-31T13:46:55.860Z</time>
      </trkpt>
      <trkpt lat="43.77078" lon="1.49279">
        <ele>210.554875</ele>
        <time>2022-07-31T13:46:57.839Z</time>
      </trkpt>
      <trkpt lat="43.77071" lon="1.49291">
        <ele>210.586758</ele>
        <time>2022-07-31T13:46:59.856Z</time>
      </trkpt>
      <trkpt lat="43.77064" lon="1.49303">
        <ele>210.618238</ele>
        <time>2022-07-31T13:47:01.854Z</time>
      </trkpt>
      <trkpt lat="43.77058" lon="1.49317">
        <ele>210.64947</ele>
        <time>2022-07-31T13:47:03.852Z</time>
      </trkpt>
      <trkpt lat="43.77052" lon="1.4933">
        <ele>210.680531</ele>
        <time>2022-07-31T13:47:05.860Z</time>
      </trkpt>
      <trkpt lat="43.77046" lon="1.49344">
        <ele>210.712484</ele>
        <time>2022-07-31T13:47:07.870Z</time>
      </trkpt>
      <trkpt lat="43.77041" lon="1.49359">
        <ele>210.662153</ele>
        <time>2022-07-31T13:47:09.844Z</time>
      </trkpt>
      <trkpt lat="43.77034" lon="1.49373">
        <ele>210.520772</ele>
        <time>2022-07-31T13:47:11.848Z</time>
      </trkpt>
      <trkpt lat="43.77028" lon="1.49389">
        <ele>210.374034</ele>
        <time>2022-07-31T13:47:13.845Z</time>
      </trkpt>
      <trkpt lat="43.77022" lon="1.49405">
        <ele>210.220235</ele>
        <time>2022-07-31T13:47:15.836Z</time>
      </trkpt>
      <trkpt lat="43.7702" lon="1.49424">
        <ele>210.06337</ele>
        <time>2022-07-31T13:47:17.851Z</time>
      </trkpt>
      <trkpt lat="43.7702" lon="1.49443">
        <ele>209.902919</ele>
        <time>2022-07-31T13:47:19.853Z</time>
      </trkpt>
      <trkpt lat="43.77021" lon="1.4946">
        <ele>209.759715</ele>
        <time>2022-07-31T13:47:21.869Z</time>
      </trkpt>
      <trkpt lat="43.7702" lon="1.49476">
        <ele>209.629711</ele>
        <time>2022-07-31T13:47:24.843Z</time>
      </trkpt>
      <trkpt lat="43.77026" lon="1.49487">
        <ele>209.521883</ele>
        <time>2022-07-31T13:47:28.842Z</time>
      </trkpt>
      <trkpt lat="43.77039" lon="1.4949">
        <ele>209.367811</ele>
        <time>2022-07-31T13:47:31.833Z</time>
      </trkpt>
      <trkpt lat="43.77048" lon="1.49494">
        <ele>209.260638</ele>
        <time>2022-07-31T13:47:33.865Z</time>
      </trkpt>
      <trkpt lat="43.77057" lon="1.49497">
        <ele>209.148284</ele>
        <time>2022-07-31T13:47:35.851Z</time>
      </trkpt>
      <trkpt lat="43.77067" lon="1.495">
        <ele>209.031354</ele>
        <time>2022-07-31T13:47:37.849Z</time>
      </trkpt>
      <trkpt lat="43.77077" lon="1.49505">
        <ele>208.909472</ele>
        <time>2022-07-31T13:47:39.839Z</time>
      </trkpt>
      <trkpt lat="43.77087" lon="1.49509">
        <ele>208.792094</ele>
        <time>2022-07-31T13:47:41.858Z</time>
      </trkpt>
      <trkpt lat="43.77097" lon="1.49514">
        <ele>208.669986</ele>
        <time>2022-07-31T13:47:43.870Z</time>
      </trkpt>
      <trkpt lat="43.77106" lon="1.49518">
        <ele>208.726341</ele>
        <time>2022-07-31T13:47:45.841Z</time>
      </trkpt>
      <trkpt lat="43.77115" lon="1.49523">
        <ele>208.800351</ele>
        <time>2022-07-31T13:47:47.837Z</time>
      </trkpt>
      <trkpt lat="43.77125" lon="1.4953">
        <ele>208.88121</ele>
        <time>2022-07-31T13:47:50.831Z</time>
      </trkpt>
      <trkpt lat="43.77126" lon="1.49543">
        <ele>208.954524</ele>
        <time>2022-07-31T13:47:55.854Z</time>
      </trkpt>
      <trkpt lat="43.77119" lon="1.49554">
        <ele>209.030295</ele>
        <time>2022-07-31T13:47:58.866Z</time>
      </trkpt>
      <trkpt lat="43.77113" lon="1.49566">
        <ele>209.112624</ele>
        <time>2022-07-31T13:48:01.858Z</time>
      </trkpt>
      <trkpt lat="43.77107" lon="1.49578">
        <ele>209.196305</ele>
        <time>2022-07-31T13:48:04.854Z</time>
      </trkpt>
      <trkpt lat="43.771" lon="1.49591">
        <ele>209.28223</ele>
        <time>2022-07-31T13:48:07.852Z</time>
      </trkpt>
      <trkpt lat="43.77094" lon="1.49604">
        <ele>209.367033</ele>
        <time>2022-07-31T13:48:10.841Z</time>
      </trkpt>
      <trkpt lat="43.77089" lon="1.49618">
        <ele>209.455524</ele>
        <time>2022-07-31T13:48:13.837Z</time>
      </trkpt>
      <trkpt lat="43.77082" lon="1.49632">
        <ele>209.543858</ele>
        <time>2022-07-31T13:48:16.865Z</time>
      </trkpt>
      <trkpt lat="43.77076" lon="1.49647">
        <ele>209.639479</ele>
        <time>2022-07-31T13:48:19.832Z</time>
      </trkpt>
      <trkpt lat="43.7707" lon="1.49663">
        <ele>209.740713</ele>
        <time>2022-07-31T13:48:22.852Z</time>
      </trkpt>
      <trkpt lat="43.77065" lon="1.49674">
        <ele>209.810816</ele>
        <time>2022-07-31T13:48:24.847Z</time>
      </trkpt>
      <trkpt lat="43.77061" lon="1.49686">
        <ele>209.880433</ele>
        <time>2022-07-31T13:48:26.843Z</time>
      </trkpt>
      <trkpt lat="43.77057" lon="1.49698">
        <ele>209.953292</ele>
        <time>2022-07-31T13:48:28.873Z</time>
      </trkpt>
      <trkpt lat="43.77053" lon="1.4971">
        <ele>210.031126</ele>
        <time>2022-07-31T13:48:30.857Z</time>
      </trkpt>
      <trkpt lat="43.77049" lon="1.49723">
        <ele>210.231813</ele>
        <time>2022-07-31T13:48:32.856Z</time>
      </trkpt>
      <trkpt lat="43.77046" lon="1.49735">
        <ele>210.429601</ele>
        <time>2022-07-31T13:48:34.860Z</time>
      </trkpt>
      <trkpt lat="43.77043" lon="1.49748">
        <ele>210.62817</ele>
        <time>2022-07-31T13:48:36.869Z</time>
      </trkpt>
      <trkpt lat="43.7704" lon="1.49761">
        <ele>210.826313</ele>
        <time>2022-07-31T13:48:38.861Z</time>
      </trkpt>
      <trkpt lat="43.77038" lon="1.49774">
        <ele>211.018792</ele>
        <time>2022-07-31T13:48:40.851Z</time>
      </trkpt>
      <trkpt lat="43.77037" lon="1.49787">
        <ele>211.207567</ele>
        <time>2022-07-31T13:48:42.834Z</time>
      </trkpt>
      <trkpt lat="43.77034" lon="1.49804">
        <ele>211.469746</ele>
        <time>2022-07-31T13:48:45.856Z</time>
      </trkpt>
      <trkpt lat="43.7703" lon="1.49815">
        <ele>211.66221</ele>
        <time>2022-07-31T13:48:49.868Z</time>
      </trkpt>
      <trkpt lat="43.77024" lon="1.49828">
        <ele>211.874676</ele>
        <time>2022-07-31T13:48:55.842Z</time>
      </trkpt>
      <trkpt lat="43.77022" lon="1.49842">
        <ele>212.096074</ele>
        <time>2022-07-31T13:49:00.862Z</time>
      </trkpt>
      <trkpt lat="43.77022" lon="1.49857">
        <ele>212.304934</ele>
        <time>2022-07-31T13:49:05.849Z</time>
      </trkpt>
      <trkpt lat="43.77022" lon="1.4987">
        <ele>212.49601</ele>
        <time>2022-07-31T13:49:10.851Z</time>
      </trkpt>
      <trkpt lat="43.77021" lon="1.49884">
        <ele>212.701757</ele>
        <time>2022-07-31T13:49:15.853Z</time>
      </trkpt>
      <trkpt lat="43.77019" lon="1.49897">
        <ele>212.899297</ele>
        <time>2022-07-31T13:49:20.864Z</time>
      </trkpt>
      <trkpt lat="43.77018" lon="1.49912">
        <ele>213.118676</ele>
        <time>2022-07-31T13:49:25.840Z</time>
      </trkpt>
      <trkpt lat="43.77019" lon="1.49925">
        <ele>213.31647</ele>
        <time>2022-07-31T13:49:30.843Z</time>
      </trkpt>
      <trkpt lat="43.77019" lon="1.49938">
        <ele>213.511987</ele>
        <time>2022-07-31T13:49:35.837Z</time>
      </trkpt>
      <trkpt lat="43.77018" lon="1.49951">
        <ele>213.689811</ele>
        <time>2022-07-31T13:49:40.851Z</time>
      </trkpt>
      <trkpt lat="43.77018" lon="1.49964">
        <ele>213.749805</ele>
        <time>2022-07-31T13:49:45.847Z</time>
      </trkpt>
      <trkpt lat="43.77018" lon="1.49978">
        <ele>213.812079</ele>
        <time>2022-07-31T13:49:50.874Z</time>
      </trkpt>
      <trkpt lat="43.77018" lon="1.49991">
        <ele>213.869366</ele>
        <time>2022-07-31T13:49:55.829Z</time>
      </trkpt>
      <trkpt lat="43.77017" lon="1.50005">
        <ele>213.932527</ele>
        <time>2022-07-31T13:50:01.849Z</time>
      </trkpt>
      <trkpt lat="43.77014" lon="1.5002">
        <ele>214.002132</ele>
        <time>2022-07-31T13:50:07.869Z</time>
      </trkpt>
      <trkpt lat="43.77008" lon="1.50031">
        <ele>214.068004</ele>
        <time>2022-07-31T13:50:12.857Z</time>
      </trkpt>
      <trkpt lat="43.77002" lon="1.50041">
        <ele>214.124865</ele>
        <time>2022-07-31T13:50:16.845Z</time>
      </trkpt>
      <trkpt lat="43.76995" lon="1.50051">
        <ele>214.188009</ele>
        <time>2022-07-31T13:50:21.863Z</time>
      </trkpt>
      <trkpt lat="43.76985" lon="1.50051">
        <ele>214.249854</ele>
        <time>2022-07-31T13:50:27.863Z</time>
      </trkpt>
      <trkpt lat="43.76977" lon="1.50046">
        <ele>214.306858</ele>
        <time>2022-07-31T13:50:31.826Z</time>
      </trkpt>
      <trkpt lat="43.76968" lon="1.50041">
        <ele>214.363381</ele>
        <time>2022-07-31T13:50:35.834Z</time>
      </trkpt>
      <trkpt lat="43.76963" lon="1.50052">
        <ele>214.423028</ele>
        <time>2022-07-31T13:50:40.845Z</time>
      </trkpt>
      <trkpt lat="43.76957" lon="1.50064">
        <ele>214.488138</ele>
        <time>2022-07-31T13:50:44.852Z</time>
      </trkpt>
      <trkpt lat="43.76951" lon="1.50073">
        <ele>214.544676</ele>
        <time>2022-07-31T13:50:47.846Z</time>
      </trkpt>
      <trkpt lat="43.76943" lon="1.50084">
        <ele>214.614288</ele>
        <time>2022-07-31T13:50:51.864Z</time>
      </trkpt>
      <trkpt lat="43.76935" lon="1.50094">
        <ele>214.682632</ele>
        <time>2022-07-31T13:50:55.856Z</time>
      </trkpt>
      <trkpt lat="43.76929" lon="1.50105">
        <ele>214.746854</ele>
        <time>2022-07-31T13:50:59.841Z</time>
      </trkpt>
      <trkpt lat="43.76922" lon="1.50117">
        <ele>214.82843</ele>
        <time>2022-07-31T13:51:03.858Z</time>
      </trkpt>
      <trkpt lat="43.76917" lon="1.50128">
        <ele>215.530792</ele>
        <time>2022-07-31T13:51:07.843Z</time>
      </trkpt>
      <trkpt lat="43.7691" lon="1.50137">
        <ele>216.228684</ele>
        <time>2022-07-31T13:51:11.847Z</time>
      </trkpt>
      <trkpt lat="43.76902" lon="1.50145">
        <ele>216.954395</ele>
        <time>2022-07-31T13:51:15.857Z</time>
      </trkpt>
      <trkpt lat="43.76894" lon="1.50153">
        <ele>217.686008</ele>
        <time>2022-07-31T13:51:19.836Z</time>
      </trkpt>
      <trkpt lat="43.7689" lon="1.50166">
        <ele>218.390193</ele>
        <time>2022-07-31T13:51:23.849Z</time>
      </trkpt>
      <trkpt lat="43.76886" lon="1.50179">
        <ele>219.130489</ele>
        <time>2022-07-31T13:51:27.845Z</time>
      </trkpt>
      <trkpt lat="43.76885" lon="1.50192">
        <ele>219.845408</ele>
        <time>2022-07-31T13:51:30.840Z</time>
      </trkpt>
      <trkpt lat="43.76884" lon="1.50207">
        <ele>220.598986</ele>
        <time>2022-07-31T13:51:33.845Z</time>
      </trkpt>
      <trkpt lat="43.76883" lon="1.50221">
        <ele>221.329845</ele>
        <time>2022-07-31T13:51:36.848Z</time>
      </trkpt>
      <trkpt lat="43.7689" lon="1.50232">
        <ele>222.134905</ele>
        <time>2022-07-31T13:51:40.845Z</time>
      </trkpt>
      <trkpt lat="43.76899" lon="1.50238">
        <ele>222.866983</ele>
        <time>2022-07-31T13:51:43.837Z</time>
      </trkpt>
      <trkpt lat="43.76908" lon="1.50245">
        <ele>223.592997</ele>
        <time>2022-07-31T13:51:46.852Z</time>
      </trkpt>
      <trkpt lat="43.76917" lon="1.50251">
        <ele>224.306106</ele>
        <time>2022-07-31T13:51:49.853Z</time>
      </trkpt>
      <trkpt lat="43.76925" lon="1.50257">
        <ele>224.989815</ele>
        <time>2022-07-31T13:51:52.861Z</time>
      </trkpt>
      <trkpt lat="43.76935" lon="1.50263">
        <ele>225.801455</ele>
        <time>2022-07-31T13:51:56.838Z</time>
      </trkpt>
      <trkpt lat="43.76945" lon="1.50269">
        <ele>226.60384</ele>
        <time>2022-07-31T13:52:00.833Z</time>
      </trkpt>
      <trkpt lat="43.76954" lon="1.50275">
        <ele>227.335917</ele>
        <time>2022-07-31T13:52:04.874Z</time>
      </trkpt>
      <trkpt lat="43.76963" lon="1.5028">
        <ele>228.033086</ele>
        <time>2022-07-31T13:52:08.847Z</time>
      </trkpt>
      <trkpt lat="43.76972" lon="1.50285">
        <ele>228.811418</ele>
        <time>2022-07-31T13:52:12.846Z</time>
      </trkpt>
      <trkpt lat="43.77027" lon="1.50325">
        <ele>186.6</ele>
      </trkpt>
      <trkpt lat="43.76966" lon="1.5047">
        <ele>242.826213</ele>
        <time>2022-07-31T13:53:09.843Z</time>
      </trkpt>
      <trkpt lat="43.76961" lon="1.50481">
        <ele>242.820495</ele>
        <time>2022-07-31T13:53:11.864Z</time>
      </trkpt>
      <trkpt lat="43.76956" lon="1.50493">
        <ele>242.814708</ele>
        <time>2022-07-31T13:53:13.846Z</time>
      </trkpt>
      <trkpt lat="43.76952" lon="1.50505">
        <ele>242.808838</ele>
        <time>2022-07-31T13:53:15.853Z</time>
      </trkpt>
      <trkpt lat="43.76948" lon="1.50516">
        <ele>242.80318</ele>
        <time>2022-07-31T13:53:17.852Z</time>
      </trkpt>
      <trkpt lat="43.76944" lon="1.50528">
        <ele>242.797549</ele>
        <time>2022-07-31T13:53:19.889Z</time>
      </trkpt>
      <trkpt lat="43.76939" lon="1.5054">
        <ele>242.791468</ele>
        <time>2022-07-31T13:53:21.836Z</time>
      </trkpt>
      <trkpt lat="43.76935" lon="1.50553">
        <ele>242.785215</ele>
        <time>2022-07-31T13:53:23.875Z</time>
      </trkpt>
      <trkpt lat="43.76931" lon="1.50566">
        <ele>242.778993</ele>
        <time>2022-07-31T13:53:25.836Z</time>
      </trkpt>
      <trkpt lat="43.76927" lon="1.50579">
        <ele>242.772635</ele>
        <time>2022-07-31T13:53:27.900Z</time>
      </trkpt>
      <trkpt lat="43.76922" lon="1.50592">
        <ele>242.766158</ele>
        <time>2022-07-31T13:53:29.858Z</time>
      </trkpt>
      <trkpt lat="43.76916" lon="1.50605">
        <ele>242.759875</ele>
        <time>2022-07-31T13:53:31.851Z</time>
      </trkpt>
      <trkpt lat="43.76911" lon="1.50617">
        <ele>242.753511</ele>
        <time>2022-07-31T13:53:33.856Z</time>
      </trkpt>
      <trkpt lat="43.76905" lon="1.5063">
        <ele>242.746764</ele>
        <time>2022-07-31T13:53:35.852Z</time>
      </trkpt>
      <trkpt lat="43.76899" lon="1.50642">
        <ele>242.740249</ele>
        <time>2022-07-31T13:53:37.826Z</time>
      </trkpt>
      <trkpt lat="43.76893" lon="1.50654">
        <ele>242.734053</ele>
        <time>2022-07-31T13:53:39.836Z</time>
      </trkpt>
      <trkpt lat="43.76888" lon="1.50666">
        <ele>242.727128</ele>
        <time>2022-07-31T13:53:41.839Z</time>
      </trkpt>
      <trkpt lat="43.76883" lon="1.50681">
        <ele>242.715241</ele>
        <time>2022-07-31T13:53:43.848Z</time>
      </trkpt>
      <trkpt lat="43.76879" lon="1.50697">
        <ele>242.702492</ele>
        <time>2022-07-31T13:53:45.848Z</time>
      </trkpt>
      <trkpt lat="43.76876" lon="1.50715">
        <ele>242.68875</ele>
        <time>2022-07-31T13:53:47.857Z</time>
      </trkpt>
      <trkpt lat="43.76875" lon="1.50734">
        <ele>242.674365</ele>
        <time>2022-07-31T13:53:49.839Z</time>
      </trkpt>
      <trkpt lat="43.76875" lon="1.50754">
        <ele>242.659493</ele>
        <time>2022-07-31T13:53:51.853Z</time>
      </trkpt>
      <trkpt lat="43.76875" lon="1.50773">
        <ele>242.644853</ele>
        <time>2022-07-31T13:53:53.868Z</time>
      </trkpt>
      <trkpt lat="43.76874" lon="1.50792">
        <ele>242.630932</ele>
        <time>2022-07-31T13:53:55.854Z</time>
      </trkpt>
      <trkpt lat="43.76873" lon="1.50809">
        <ele>242.617969</ele>
        <time>2022-07-31T13:53:57.863Z</time>
      </trkpt>
      <trkpt lat="43.76872" lon="1.50825">
        <ele>242.605731</ele>
        <time>2022-07-31T13:53:59.829Z</time>
      </trkpt>
      <trkpt lat="43.76869" lon="1.50841">
        <ele>242.59367</ele>
        <time>2022-07-31T13:54:01.850Z</time>
      </trkpt>
      <trkpt lat="43.76865" lon="1.50855">
        <ele>242.581909</ele>
        <time>2022-07-31T13:54:03.859Z</time>
      </trkpt>
      <trkpt lat="43.7686" lon="1.50869">
        <ele>242.570519</ele>
        <time>2022-07-31T13:54:05.854Z</time>
      </trkpt>
      <trkpt lat="43.76854" lon="1.50881">
        <ele>242.558769</ele>
        <time>2022-07-31T13:54:07.838Z</time>
      </trkpt>
      <trkpt lat="43.76847" lon="1.50894">
        <ele>242.547317</ele>
        <time>2022-07-31T13:54:09.865Z</time>
      </trkpt>
      <trkpt lat="43.76843" lon="1.50908">
        <ele>242.762961</ele>
        <time>2022-07-31T13:54:11.853Z</time>
      </trkpt>
      <trkpt lat="43.76841" lon="1.50923">
        <ele>243.203701</ele>
        <time>2022-07-31T13:54:13.844Z</time>
      </trkpt>
      <trkpt lat="43.76839" lon="1.50937">
        <ele>243.635554</ele>
        <time>2022-07-31T13:54:15.840Z</time>
      </trkpt>
      <trkpt lat="43.76839" lon="1.50952">
        <ele>244.068538</ele>
        <time>2022-07-31T13:54:17.832Z</time>
      </trkpt>
      <trkpt lat="43.76838" lon="1.50967">
        <ele>244.501523</ele>
        <time>2022-07-31T13:54:19.841Z</time>
      </trkpt>
      <trkpt lat="43.76839" lon="1.50982">
        <ele>244.937562</ele>
        <time>2022-07-31T13:54:21.862Z</time>
      </trkpt>
      <trkpt lat="43.76839" lon="1.50997">
        <ele>245.36747</ele>
        <time>2022-07-31T13:54:23.864Z</time>
      </trkpt>
      <trkpt lat="43.76838" lon="1.51011">
        <ele>245.788762</ele>
        <time>2022-07-31T13:54:25.841Z</time>
      </trkpt>
      <trkpt lat="43.76837" lon="1.51025">
        <ele>246.20891</ele>
        <time>2022-07-31T13:54:27.858Z</time>
      </trkpt>
      <trkpt lat="43.76836" lon="1.5104">
        <ele>246.63149</ele>
        <time>2022-07-31T13:54:29.851Z</time>
      </trkpt>
      <trkpt lat="43.76834" lon="1.51054">
        <ele>247.048076</ele>
        <time>2022-07-31T13:54:31.865Z</time>
      </trkpt>
      <trkpt lat="43.76831" lon="1.51067">
        <ele>247.46082</ele>
        <time>2022-07-31T13:54:33.858Z</time>
      </trkpt>
      <trkpt lat="43.76827" lon="1.51081">
        <ele>247.887231</ele>
        <time>2022-07-31T13:54:35.852Z</time>
      </trkpt>
      <trkpt lat="43.76825" lon="1.51095">
        <ele>248.321312</ele>
        <time>2022-07-31T13:54:37.842Z</time>
      </trkpt>
      <trkpt lat="43.76826" lon="1.5111">
        <ele>248.752577</ele>
        <time>2022-07-31T13:54:39.832Z</time>
      </trkpt>
      <trkpt lat="43.76832" lon="1.51122">
        <ele>249.180279</ele>
        <time>2022-07-31T13:54:41.868Z</time>
      </trkpt>
      <trkpt lat="43.7684" lon="1.51132">
        <ele>249.610141</ele>
        <time>2022-07-31T13:54:43.854Z</time>
      </trkpt>
      <trkpt lat="43.76848" lon="1.51141">
        <ele>249.940335</ele>
        <time>2022-07-31T13:54:45.843Z</time>
      </trkpt>
      <trkpt lat="43.76855" lon="1.51152">
        <ele>250.169154</ele>
        <time>2022-07-31T13:54:47.844Z</time>
      </trkpt>
      <trkpt lat="43.76862" lon="1.51165">
        <ele>250.401299</ele>
        <time>2022-07-31T13:54:49.847Z</time>
      </trkpt>
      <trkpt lat="43.76866" lon="1.51178">
        <ele>250.628763</ele>
        <time>2022-07-31T13:54:51.864Z</time>
      </trkpt>
      <trkpt lat="43.76869" lon="1.51192">
        <ele>250.850283</ele>
        <time>2022-07-31T13:54:53.854Z</time>
      </trkpt>
      <trkpt lat="43.76873" lon="1.51205">
        <ele>251.069794</ele>
        <time>2022-07-31T13:54:55.842Z</time>
      </trkpt>
      <trkpt lat="43.76876" lon="1.51218">
        <ele>251.278991</ele>
        <time>2022-07-31T13:54:57.856Z</time>
      </trkpt>
      <trkpt lat="43.76879" lon="1.51231">
        <ele>251.485477</ele>
        <time>2022-07-31T13:54:59.850Z</time>
      </trkpt>
      <trkpt lat="43.76882" lon="1.51243">
        <ele>251.688223</ele>
        <time>2022-07-31T13:55:01.854Z</time>
      </trkpt>
      <trkpt lat="43.76884" lon="1.51256">
        <ele>251.890834</ele>
        <time>2022-07-31T13:55:03.871Z</time>
      </trkpt>
      <trkpt lat="43.76887" lon="1.51269">
        <ele>252.100778</ele>
        <time>2022-07-31T13:55:05.853Z</time>
      </trkpt>
      <trkpt lat="43.76891" lon="1.51281">
        <ele>252.303632</ele>
        <time>2022-07-31T13:55:07.845Z</time>
      </trkpt>
      <trkpt lat="43.76894" lon="1.51293">
        <ele>252.498563</ele>
        <time>2022-07-31T13:55:09.863Z</time>
      </trkpt>
      <trkpt lat="43.76892" lon="1.51307">
        <ele>252.708752</ele>
        <time>2022-07-31T13:55:11.843Z</time>
      </trkpt>
      <trkpt lat="43.76886" lon="1.5132">
        <ele>252.938256</ele>
        <time>2022-07-31T13:55:13.834Z</time>
      </trkpt>
      <trkpt lat="43.76879" lon="1.51332">
        <ele>253.181964</ele>
        <time>2022-07-31T13:55:15.860Z</time>
      </trkpt>
      <trkpt lat="43.76872" lon="1.51344">
        <ele>253.426757</ele>
        <time>2022-07-31T13:55:17.825Z</time>
      </trkpt>
      <trkpt lat="43.76863" lon="1.51356">
        <ele>253.660553</ele>
        <time>2022-07-31T13:55:19.827Z</time>
      </trkpt>
      <trkpt lat="43.76855" lon="1.51368">
        <ele>253.677832</ele>
        <time>2022-07-31T13:55:21.844Z</time>
      </trkpt>
      <trkpt lat="43.76846" lon="1.5138">
        <ele>253.695757</ele>
        <time>2022-07-31T13:55:23.827Z</time>
      </trkpt>
      <trkpt lat="43.76836" lon="1.51392">
        <ele>253.714196</ele>
        <time>2022-07-31T13:55:25.854Z</time>
      </trkpt>
      <trkpt lat="43.76826" lon="1.51404">
        <ele>253.732923</ele>
        <time>2022-07-31T13:55:27.857Z</time>
      </trkpt>
      <trkpt lat="43.76817" lon="1.51417">
        <ele>253.750879</ele>
        <time>2022-07-31T13:55:29.840Z</time>
      </trkpt>
      <trkpt lat="43.76808" lon="1.51428">
        <ele>253.768314</ele>
        <time>2022-07-31T13:55:31.844Z</time>
      </trkpt>
      <trkpt lat="43.76799" lon="1.51439">
        <ele>253.78536</ele>
        <time>2022-07-31T13:55:33.842Z</time>
      </trkpt>
      <trkpt lat="43.7679" lon="1.51449">
        <ele>253.801949</ele>
        <time>2022-07-31T13:55:35.840Z</time>
      </trkpt>
      <trkpt lat="43.7678" lon="1.51459">
        <ele>253.818628</ele>
        <time>2022-07-31T13:55:37.862Z</time>
      </trkpt>
      <trkpt lat="43.76772" lon="1.51469">
        <ele>253.834593</ele>
        <time>2022-07-31T13:55:39.838Z</time>
      </trkpt>
      <trkpt lat="43.76762" lon="1.51478">
        <ele>253.850539</ele>
        <time>2022-07-31T13:55:41.853Z</time>
      </trkpt>
      <trkpt lat="43.76754" lon="1.51488">
        <ele>253.8663</ele>
        <time>2022-07-31T13:55:43.835Z</time>
      </trkpt>
      <trkpt lat="43.76745" lon="1.51498">
        <ele>253.882869</ele>
        <time>2022-07-31T13:55:45.879Z</time>
      </trkpt>
      <trkpt lat="43.76736" lon="1.51509">
        <ele>253.899763</ele>
        <time>2022-07-31T13:55:47.845Z</time>
      </trkpt>
      <trkpt lat="43.76727" lon="1.5152">
        <ele>253.926074</ele>
        <time>2022-07-31T13:55:49.823Z</time>
      </trkpt>
      <trkpt lat="43.76718" lon="1.51531">
        <ele>253.989841</ele>
        <time>2022-07-31T13:55:51.843Z</time>
      </trkpt>
      <trkpt lat="43.7671" lon="1.51542">
        <ele>254.053805</ele>
        <time>2022-07-31T13:55:53.845Z</time>
      </trkpt>
      <trkpt lat="43.76702" lon="1.51554">
        <ele>254.120236</ele>
        <time>2022-07-31T13:55:55.835Z</time>
      </trkpt>
      <trkpt lat="43.76694" lon="1.51567">
        <ele>254.189049</ele>
        <time>2022-07-31T13:55:57.830Z</time>
      </trkpt>
      <trkpt lat="43.76686" lon="1.5158">
        <ele>254.258696</ele>
        <time>2022-07-31T13:55:59.829Z</time>
      </trkpt>
      <trkpt lat="43.76678" lon="1.51593">
        <ele>254.326597</ele>
        <time>2022-07-31T13:56:01.829Z</time>
      </trkpt>
      <trkpt lat="43.7667" lon="1.51605">
        <ele>254.391758</ele>
        <time>2022-07-31T13:56:03.880Z</time>
      </trkpt>
      <trkpt lat="43.76663" lon="1.51617">
        <ele>254.454485</ele>
        <time>2022-07-31T13:56:05.828Z</time>
      </trkpt>
      <trkpt lat="43.76656" lon="1.51629">
        <ele>254.515835</ele>
        <time>2022-07-31T13:56:07.843Z</time>
      </trkpt>
      <trkpt lat="43.76649" lon="1.51641">
        <ele>254.577539</ele>
        <time>2022-07-31T13:56:09.846Z</time>
      </trkpt>
      <trkpt lat="43.76642" lon="1.51653">
        <ele>254.639295</ele>
        <time>2022-07-31T13:56:11.842Z</time>
      </trkpt>
      <trkpt lat="43.76634" lon="1.51664">
        <ele>254.700807</ele>
        <time>2022-07-31T13:56:13.857Z</time>
      </trkpt>
      <trkpt lat="43.76627" lon="1.51676">
        <ele>254.764328</ele>
        <time>2022-07-31T13:56:15.846Z</time>
      </trkpt>
      <trkpt lat="43.76619" lon="1.51688">
        <ele>254.829789</ele>
        <time>2022-07-31T13:56:17.844Z</time>
      </trkpt>
      <trkpt lat="43.76611" lon="1.51701">
        <ele>254.897741</ele>
        <time>2022-07-31T13:56:19.852Z</time>
      </trkpt>
      <trkpt lat="43.76603" lon="1.51715">
        <ele>254.753007</ele>
        <time>2022-07-31T13:56:21.854Z</time>
      </trkpt>
      <trkpt lat="43.76595" lon="1.5173">
        <ele>254.531268</ele>
        <time>2022-07-31T13:56:23.829Z</time>
      </trkpt>
      <trkpt lat="43.76588" lon="1.51747">
        <ele>254.300559</ele>
        <time>2022-07-31T13:56:25.838Z</time>
      </trkpt>
      <trkpt lat="43.76582" lon="1.51765">
        <ele>254.066441</ele>
        <time>2022-07-31T13:56:27.882Z</time>
      </trkpt>
      <trkpt lat="43.76577" lon="1.51784">
        <ele>253.834688</ele>
        <time>2022-07-31T13:56:29.845Z</time>
      </trkpt>
      <trkpt lat="43.76573" lon="1.51802">
        <ele>253.606061</ele>
        <time>2022-07-31T13:56:31.887Z</time>
      </trkpt>
      <trkpt lat="43.7657" lon="1.51821">
        <ele>253.379862</ele>
        <time>2022-07-31T13:56:33.840Z</time>
      </trkpt>
      <trkpt lat="43.76567" lon="1.51839">
        <ele>253.158504</ele>
        <time>2022-07-31T13:56:35.847Z</time>
      </trkpt>
      <trkpt lat="43.76564" lon="1.51857">
        <ele>252.941078</ele>
        <time>2022-07-31T13:56:37.836Z</time>
      </trkpt>
      <trkpt lat="43.76563" lon="1.51875">
        <ele>252.728631</ele>
        <time>2022-07-31T13:56:39.842Z</time>
      </trkpt>
      <trkpt lat="43.76563" lon="1.51893">
        <ele>252.518677</ele>
        <time>2022-07-31T13:56:41.832Z</time>
      </trkpt>
      <trkpt lat="43.76567" lon="1.5191">
        <ele>252.312538</ele>
        <time>2022-07-31T13:56:43.822Z</time>
      </trkpt>
      <trkpt lat="43.76572" lon="1.51926">
        <ele>252.102865</ele>
        <time>2022-07-31T13:56:45.865Z</time>
      </trkpt>
      <trkpt lat="43.76578" lon="1.51942">
        <ele>251.952063</ele>
        <time>2022-07-31T13:56:47.845Z</time>
      </trkpt>
      <trkpt lat="43.76585" lon="1.51957">
        <ele>251.888647</ele>
        <time>2022-07-31T13:56:49.838Z</time>
      </trkpt>
      <trkpt lat="43.76591" lon="1.51972">
        <ele>251.825351</ele>
        <time>2022-07-31T13:56:51.876Z</time>
      </trkpt>
      <trkpt lat="43.76597" lon="1.51988">
        <ele>251.761266</ele>
        <time>2022-07-31T13:56:53.845Z</time>
      </trkpt>
      <trkpt lat="43.76602" lon="1.52004">
        <ele>251.698725</ele>
        <time>2022-07-31T13:56:55.843Z</time>
      </trkpt>
      <trkpt lat="43.76606" lon="1.52019">
        <ele>251.639787</ele>
        <time>2022-07-31T13:56:57.856Z</time>
      </trkpt>
      <trkpt lat="43.7661" lon="1.52034">
        <ele>251.583981</ele>
        <time>2022-07-31T13:56:59.864Z</time>
      </trkpt>
      <trkpt lat="43.76611" lon="1.52049">
        <ele>251.530456</ele>
        <time>2022-07-31T13:57:01.833Z</time>
      </trkpt>
      <trkpt lat="43.76611" lon="1.52064">
        <ele>251.475528</ele>
        <time>2022-07-31T13:57:03.845Z</time>
      </trkpt>
      <trkpt lat="43.7661" lon="1.52079">
        <ele>251.420735</ele>
        <time>2022-07-31T13:57:05.859Z</time>
      </trkpt>
      <trkpt lat="43.76608" lon="1.52092">
        <ele>251.373613</ele>
        <time>2022-07-31T13:57:07.861Z</time>
      </trkpt>
      <trkpt lat="43.76616" lon="1.521">
        <ele>251.325435</ele>
        <time>2022-07-31T13:57:12.847Z</time>
      </trkpt>
      <trkpt lat="43.76624" lon="1.52096">
        <ele>251.279207</ele>
        <time>2022-07-31T13:57:15.848Z</time>
      </trkpt>
      <trkpt lat="43.76635" lon="1.5209">
        <ele>251.222416</ele>
        <time>2022-07-31T13:57:18.880Z</time>
      </trkpt>
      <trkpt lat="43.76645" lon="1.5208">
        <ele>251.160906</ele>
        <time>2022-07-31T13:57:21.861Z</time>
      </trkpt>
      <trkpt lat="43.76653" lon="1.52073">
        <ele>251.11573</ele>
        <time>2022-07-31T13:57:23.850Z</time>
      </trkpt>
      <trkpt lat="43.76661" lon="1.52065">
        <ele>250.991676</ele>
        <time>2022-07-31T13:57:25.850Z</time>
      </trkpt>
      <trkpt lat="43.76669" lon="1.52055">
        <ele>250.698933</ele>
        <time>2022-07-31T13:57:27.869Z</time>
      </trkpt>
      <trkpt lat="43.76678" lon="1.52046">
        <ele>250.402352</ele>
        <time>2022-07-31T13:57:29.827Z</time>
      </trkpt>
      <trkpt lat="43.76687" lon="1.52036">
        <ele>250.097011</ele>
        <time>2022-07-31T13:57:31.827Z</time>
      </trkpt>
      <trkpt lat="43.76696" lon="1.52024">
        <ele>249.765358</ele>
        <time>2022-07-31T13:57:33.838Z</time>
      </trkpt>
      <trkpt lat="43.76706" lon="1.52011">
        <ele>249.415588</ele>
        <time>2022-07-31T13:57:35.848Z</time>
      </trkpt>
      <trkpt lat="43.76716" lon="1.51998">
        <ele>249.052948</ele>
        <time>2022-07-31T13:57:37.857Z</time>
      </trkpt>
      <trkpt lat="43.76726" lon="1.51985">
        <ele>248.682459</ele>
        <time>2022-07-31T13:57:39.849Z</time>
      </trkpt>
      <trkpt lat="43.76737" lon="1.5197">
        <ele>248.289769</ele>
        <time>2022-07-31T13:57:41.846Z</time>
      </trkpt>
      <trkpt lat="43.76746" lon="1.51955">
        <ele>247.909445</ele>
        <time>2022-07-31T13:57:43.846Z</time>
      </trkpt>
      <trkpt lat="43.76755" lon="1.51941">
        <ele>247.549347</ele>
        <time>2022-07-31T13:57:45.847Z</time>
      </trkpt>
      <trkpt lat="43.76764" lon="1.51927">
        <ele>247.201324</ele>
        <time>2022-07-31T13:57:47.836Z</time>
      </trkpt>
      <trkpt lat="43.76772" lon="1.51913">
        <ele>246.850166</ele>
        <time>2022-07-31T13:57:49.838Z</time>
      </trkpt>
      <trkpt lat="43.76781" lon="1.51899">
        <ele>246.501021</ele>
        <time>2022-07-31T13:57:51.848Z</time>
      </trkpt>
      <trkpt lat="43.7679" lon="1.51887">
        <ele>246.84018</ele>
        <time>2022-07-31T13:57:53.852Z</time>
      </trkpt>
      <trkpt lat="43.768" lon="1.51878">
        <ele>247.797208</ele>
        <time>2022-07-31T13:57:55.843Z</time>
      </trkpt>
      <trkpt lat="43.76811" lon="1.51873">
        <ele>248.753845</ele>
        <time>2022-07-31T13:57:57.842Z</time>
      </trkpt>
      <trkpt lat="43.76822" lon="1.51868">
        <ele>249.693136</ele>
        <time>2022-07-31T13:57:59.856Z</time>
      </trkpt>
      <trkpt lat="43.76832" lon="1.51862">
        <ele>250.505069</ele>
        <time>2022-07-31T13:58:01.833Z</time>
      </trkpt>
      <trkpt lat="43.76844" lon="1.51858">
        <ele>251.547495</ele>
        <time>2022-07-31T13:58:04.880Z</time>
      </trkpt>
      <trkpt lat="43.76855" lon="1.51855">
        <ele>252.427575</ele>
        <time>2022-07-31T13:58:07.830Z</time>
      </trkpt>
      <trkpt lat="43.76865" lon="1.5185">
        <ele>253.276354</ele>
        <time>2022-07-31T13:58:10.854Z</time>
      </trkpt>
      <trkpt lat="43.76874" lon="1.51846">
        <ele>254.02855</ele>
        <time>2022-07-31T13:58:13.823Z</time>
      </trkpt>
      <trkpt lat="43.76884" lon="1.51843">
        <ele>254.836768</ele>
        <time>2022-07-31T13:58:16.842Z</time>
      </trkpt>
      <trkpt lat="43.76894" lon="1.51838">
        <ele>255.703413</ele>
        <time>2022-07-31T13:58:19.819Z</time>
      </trkpt>
      <trkpt lat="43.76905" lon="1.51835">
        <ele>256.565367</ele>
        <time>2022-07-31T13:58:22.832Z</time>
      </trkpt>
      <trkpt lat="43.76916" lon="1.51831">
        <ele>257.515124</ele>
        <time>2022-07-31T13:58:26.837Z</time>
      </trkpt>
      <trkpt lat="43.76925" lon="1.51828">
        <ele>258.246558</ele>
        <time>2022-07-31T13:58:29.830Z</time>
      </trkpt>
      <trkpt lat="43.76936" lon="1.51818">
        <ele>259.249658</ele>
        <time>2022-07-31T13:58:33.849Z</time>
      </trkpt>
      <trkpt lat="43.7695" lon="1.51808">
        <ele>260.573835</ele>
        <time>2022-07-31T14:00:44.840Z</time>
      </trkpt>
      <trkpt lat="43.76962" lon="1.51803">
        <ele>261.744236</ele>
        <time>2022-07-31T14:00:49.810Z</time>
      </trkpt>
      <trkpt lat="43.76972" lon="1.51799">
        <ele>262.728752</ele>
        <time>2022-07-31T14:00:53.844Z</time>
      </trkpt>
      <trkpt lat="43.76982" lon="1.51794">
        <ele>263.659103</ele>
        <time>2022-07-31T14:00:57.837Z</time>
      </trkpt>
      <trkpt lat="43.7699" lon="1.5179">
        <ele>264.519839</ele>
        <time>2022-07-31T14:01:01.811Z</time>
      </trkpt>
      <trkpt lat="43.76999" lon="1.51787">
        <ele>265.416336</ele>
        <time>2022-07-31T14:01:04.825Z</time>
      </trkpt>
      <trkpt lat="43.77009" lon="1.51786">
        <ele>266.331093</ele>
        <time>2022-07-31T14:01:08.831Z</time>
      </trkpt>
      <trkpt lat="43.77017" lon="1.51782">
        <ele>267.196199</ele>
        <time>2022-07-31T14:01:12.856Z</time>
      </trkpt>
      <trkpt lat="43.77028" lon="1.51781">
        <ele>268.188824</ele>
        <time>2022-07-31T14:01:17.833Z</time>
      </trkpt>
      <trkpt lat="43.77036" lon="1.51788">
        <ele>269.080435</ele>
        <time>2022-07-31T14:01:20.871Z</time>
      </trkpt>
      <trkpt lat="43.77041" lon="1.51801">
        <ele>270.112534</ele>
        <time>2022-07-31T14:01:24.850Z</time>
      </trkpt>
      <trkpt lat="43.77048" lon="1.51811">
        <ele>271.058348</ele>
        <time>2022-07-31T14:01:28.840Z</time>
      </trkpt>
      <trkpt lat="43.77054" lon="1.51823">
        <ele>272.049516</ele>
        <time>2022-07-31T14:01:33.852Z</time>
      </trkpt>
      <trkpt lat="43.77061" lon="1.51832">
        <ele>273.021355</ele>
        <time>2022-07-31T14:01:38.855Z</time>
      </trkpt>
      <trkpt lat="43.77069" lon="1.51841">
        <ele>273.993117</ele>
        <time>2022-07-31T14:01:42.829Z</time>
      </trkpt>
      <trkpt lat="43.77078" lon="1.51843">
        <ele>274.868447</ele>
        <time>2022-07-31T14:01:47.821Z</time>
      </trkpt>
      <trkpt lat="43.77083" lon="1.51832">
        <ele>275.748764</ele>
        <time>2022-07-31T14:01:50.841Z</time>
      </trkpt>
      <trkpt lat="43.77093" lon="1.51823">
        <ele>276.907167</ele>
        <time>2022-07-31T14:01:53.836Z</time>
      </trkpt>
      <trkpt lat="43.77106" lon="1.51816">
        <ele>277.595312</ele>
        <time>2022-07-31T14:01:56.833Z</time>
      </trkpt>
      <trkpt lat="43.77114" lon="1.5181">
        <ele>276.943286</ele>
        <time>2022-07-31T14:01:58.841Z</time>
      </trkpt>
      <trkpt lat="43.77123" lon="1.51805">
        <ele>276.28917</ele>
        <time>2022-07-31T14:02:00.850Z</time>
      </trkpt>
      <trkpt lat="43.77133" lon="1.51801">
        <ele>275.607819</ele>
        <time>2022-07-31T14:02:02.843Z</time>
      </trkpt>
      <trkpt lat="43.77144" lon="1.51799">
        <ele>274.852732</ele>
        <time>2022-07-31T14:02:04.848Z</time>
      </trkpt>
      <trkpt lat="43.77157" lon="1.51796">
        <ele>274.026397</ele>
        <time>2022-07-31T14:02:06.835Z</time>
      </trkpt>
      <trkpt lat="43.7717" lon="1.51791">
        <ele>273.14265</ele>
        <time>2022-07-31T14:02:08.835Z</time>
      </trkpt>
      <trkpt lat="43.77182" lon="1.51785">
        <ele>272.252498</ele>
        <time>2022-07-31T14:02:10.850Z</time>
      </trkpt>
      <trkpt lat="43.77195" lon="1.51779">
        <ele>271.349554</ele>
        <time>2022-07-31T14:02:12.852Z</time>
      </trkpt>
      <trkpt lat="43.77208" lon="1.5177">
        <ele>270.404937</ele>
        <time>2022-07-31T14:02:14.841Z</time>
      </trkpt>
      <trkpt lat="43.77219" lon="1.51759">
        <ele>269.450915</ele>
        <time>2022-07-31T14:02:16.845Z</time>
      </trkpt>
      <trkpt lat="43.77229" lon="1.51746">
        <ele>268.519581</ele>
        <time>2022-07-31T14:02:18.830Z</time>
      </trkpt>
      <trkpt lat="43.77239" lon="1.51731">
        <ele>267.597277</ele>
        <time>2022-07-31T14:02:20.846Z</time>
      </trkpt>
      <trkpt lat="43.77246" lon="1.5172">
        <ele>266.830447</ele>
        <time>2022-07-31T14:02:22.832Z</time>
      </trkpt>
      <trkpt lat="43.77253" lon="1.51708">
        <ele>266.135318</ele>
        <time>2022-07-31T14:02:25.839Z</time>
      </trkpt>
      <trkpt lat="43.77257" lon="1.51697">
        <ele>265.360584</ele>
        <time>2022-07-31T14:02:28.854Z</time>
      </trkpt>
      <trkpt lat="43.77264" lon="1.51682">
        <ele>264.027639</ele>
        <time>2022-07-31T14:02:31.827Z</time>
      </trkpt>
      <trkpt lat="43.77269" lon="1.5167">
        <ele>263.043121</ele>
        <time>2022-07-31T14:02:34.859Z</time>
      </trkpt>
      <trkpt lat="43.77279" lon="1.51674">
        <ele>261.972773</ele>
        <time>2022-07-31T14:02:38.855Z</time>
      </trkpt>
      <trkpt lat="43.77287" lon="1.5168">
        <ele>260.983015</ele>
        <time>2022-07-31T14:02:42.836Z</time>
      </trkpt>
      <trkpt lat="43.77298" lon="1.51685">
        <ele>259.82961</ele>
        <time>2022-07-31T14:02:47.843Z</time>
      </trkpt>
      <trkpt lat="43.7731" lon="1.51691">
        <ele>258.541519</ele>
        <time>2022-07-31T14:02:51.820Z</time>
      </trkpt>
      <trkpt lat="43.77319" lon="1.51695">
        <ele>257.63413</ele>
        <time>2022-07-31T14:02:53.848Z</time>
      </trkpt>
      <trkpt lat="43.77329" lon="1.517">
        <ele>256.540712</ele>
        <time>2022-07-31T14:02:55.835Z</time>
      </trkpt>
      <trkpt lat="43.77339" lon="1.51705">
        <ele>255.413741</ele>
        <time>2022-07-31T14:02:57.851Z</time>
      </trkpt>
      <trkpt lat="43.77351" lon="1.51709">
        <ele>254.226963</ele>
        <time>2022-07-31T14:02:59.843Z</time>
      </trkpt>
      <trkpt lat="43.7736" lon="1.5171">
        <ele>253.2464</ele>
        <time>2022-07-31T14:03:01.838Z</time>
      </trkpt>
      <trkpt lat="43.77372" lon="1.51714">
        <ele>252.060763</ele>
        <time>2022-07-31T14:03:03.843Z</time>
      </trkpt>
      <trkpt lat="43.77385" lon="1.5172">
        <ele>250.658074</ele>
        <time>2022-07-31T14:03:05.828Z</time>
      </trkpt>
      <trkpt lat="43.77395" lon="1.51721">
        <ele>249.5893</ele>
        <time>2022-07-31T14:03:07.833Z</time>
      </trkpt>
      <trkpt lat="43.77401" lon="1.51709">
        <ele>248.548816</ele>
        <time>2022-07-31T14:03:10.846Z</time>
      </trkpt>
      <trkpt lat="43.77403" lon="1.51694">
        <ele>247.352364</ele>
        <time>2022-07-31T14:03:13.833Z</time>
      </trkpt>
      <trkpt lat="43.77412" lon="1.51689">
        <ele>245.872305</ele>
        <time>2022-07-31T14:03:16.843Z</time>
      </trkpt>
      <trkpt lat="43.77423" lon="1.51692">
        <ele>244.190037</ele>
        <time>2022-07-31T14:03:18.847Z</time>
      </trkpt>
      <trkpt lat="43.77434" lon="1.51696">
        <ele>242.427119</ele>
        <time>2022-07-31T14:03:20.828Z</time>
      </trkpt>
      <trkpt lat="43.7745" lon="1.51701">
        <ele>239.982736</ele>
        <time>2022-07-31T14:03:22.849Z</time>
      </trkpt>
      <trkpt lat="43.77458" lon="1.51707">
        <ele>238.628101</ele>
        <time>2022-07-31T14:03:23.843Z</time>
      </trkpt>
      <trkpt lat="43.7747" lon="1.51717">
        <ele>236.556385</ele>
        <time>2022-07-31T14:03:25.840Z</time>
      </trkpt>
      <trkpt lat="43.77481" lon="1.51725">
        <ele>234.621513</ele>
        <time>2022-07-31T14:03:27.846Z</time>
      </trkpt>
      <trkpt lat="43.77492" lon="1.51729">
        <ele>232.865124</ele>
        <time>2022-07-31T14:03:29.843Z</time>
      </trkpt>
      <trkpt lat="43.77503" lon="1.51733">
        <ele>231.271277</ele>
        <time>2022-07-31T14:03:31.852Z</time>
      </trkpt>
      <trkpt lat="43.77511" lon="1.51738">
        <ele>229.878759</ele>
        <time>2022-07-31T14:03:33.859Z</time>
      </trkpt>
      <trkpt lat="43.77521" lon="1.51739">
        <ele>228.372106</ele>
        <time>2022-07-31T14:03:35.842Z</time>
      </trkpt>
      <trkpt lat="43.77533" lon="1.51737">
        <ele>226.576518</ele>
        <time>2022-07-31T14:03:37.861Z</time>
      </trkpt>
      <trkpt lat="43.77548" lon="1.51738">
        <ele>224.318135</ele>
        <time>2022-07-31T14:03:39.831Z</time>
      </trkpt>
      <trkpt lat="43.77564" lon="1.5174">
        <ele>221.889654</ele>
        <time>2022-07-31T14:03:41.835Z</time>
      </trkpt>
      <trkpt lat="43.77578" lon="1.51744">
        <ele>220.37799</ele>
        <time>2022-07-31T14:03:43.837Z</time>
      </trkpt>
      <trkpt lat="43.77594" lon="1.5175">
        <ele>219.881406</ele>
        <time>2022-07-31T14:03:45.837Z</time>
      </trkpt>
      <trkpt lat="43.77609" lon="1.51752">
        <ele>219.428271</ele>
        <time>2022-07-31T14:03:47.844Z</time>
      </trkpt>
      <trkpt lat="43.77623" lon="1.51751">
        <ele>218.99524</ele>
        <time>2022-07-31T14:03:49.843Z</time>
      </trkpt>
      <trkpt lat="43.77635" lon="1.51751">
        <ele>218.615621</ele>
        <time>2022-07-31T14:03:51.841Z</time>
      </trkpt>
      <trkpt lat="43.77642" lon="1.51763">
        <ele>218.276012</ele>
        <time>2022-07-31T14:03:55.850Z</time>
      </trkpt>
      <trkpt lat="43.77638" lon="1.51775">
        <ele>217.978733</ele>
        <time>2022-07-31T14:03:58.877Z</time>
      </trkpt>
      <trkpt lat="43.77633" lon="1.51791">
        <ele>217.590718</ele>
        <time>2022-07-31T14:04:01.840Z</time>
      </trkpt>
      <trkpt lat="43.7763" lon="1.51804">
        <ele>217.291365</ele>
        <time>2022-07-31T14:04:03.827Z</time>
      </trkpt>
      <trkpt lat="43.77626" lon="1.51818">
        <ele>216.965085</ele>
        <time>2022-07-31T14:04:05.835Z</time>
      </trkpt>
      <trkpt lat="43.77623" lon="1.51832">
        <ele>216.636952</ele>
        <time>2022-07-31T14:04:07.858Z</time>
      </trkpt>
      <trkpt lat="43.77621" lon="1.51847">
        <ele>216.306828</ele>
        <time>2022-07-31T14:04:09.845Z</time>
      </trkpt>
      <trkpt lat="43.77619" lon="1.51861">
        <ele>215.980597</ele>
        <time>2022-07-31T14:04:11.854Z</time>
      </trkpt>
      <trkpt lat="43.77618" lon="1.51877">
        <ele>215.634329</ele>
        <time>2022-07-31T14:04:14.863Z</time>
      </trkpt>
      <trkpt lat="43.77618" lon="1.51884">
        <ele>215.547415</ele>
        <time>2022-07-31T14:09:56.831Z</time>
      </trkpt>
      <trkpt lat="43.77619" lon="1.51897">
        <ele>215.310185</ele>
        <time>2022-07-31T14:09:59.828Z</time>
      </trkpt>
      <trkpt lat="43.77618" lon="1.51913">
        <ele>215.031782</ele>
        <time>2022-07-31T14:10:02.844Z</time>
      </trkpt>
      <trkpt lat="43.77617" lon="1.51931">
        <ele>214.709764</ele>
        <time>2022-07-31T14:10:05.853Z</time>
      </trkpt>
      <trkpt lat="43.77617" lon="1.51945">
        <ele>214.460246</ele>
        <time>2022-07-31T14:10:07.847Z</time>
      </trkpt>
      <trkpt lat="43.77616" lon="1.5196">
        <ele>214.203013</ele>
        <time>2022-07-31T14:10:09.841Z</time>
      </trkpt>
      <trkpt lat="43.77616" lon="1.51975">
        <ele>213.927069</ele>
        <time>2022-07-31T14:10:11.855Z</time>
      </trkpt>
      <trkpt lat="43.77617" lon="1.51993">
        <ele>213.621016</ele>
        <time>2022-07-31T14:10:13.855Z</time>
      </trkpt>
      <trkpt lat="43.77616" lon="1.52009">
        <ele>213.327292</ele>
        <time>2022-07-31T14:10:15.849Z</time>
      </trkpt>
      <trkpt lat="43.77616" lon="1.52025">
        <ele>213.046032</ele>
        <time>2022-07-31T14:10:17.837Z</time>
      </trkpt>
      <trkpt lat="43.77616" lon="1.52043">
        <ele>212.734625</ele>
        <time>2022-07-31T14:10:19.850Z</time>
      </trkpt>
      <trkpt lat="43.77616" lon="1.5206">
        <ele>212.518345</ele>
        <time>2022-07-31T14:10:21.840Z</time>
      </trkpt>
      <trkpt lat="43.77615" lon="1.52077">
        <ele>212.913089</ele>
        <time>2022-07-31T14:10:23.861Z</time>
      </trkpt>
      <trkpt lat="43.77614" lon="1.52094">
        <ele>213.288999</ele>
        <time>2022-07-31T14:10:25.866Z</time>
      </trkpt>
      <trkpt lat="43.77614" lon="1.52112">
        <ele>213.690446</ele>
        <time>2022-07-31T14:10:27.874Z</time>
      </trkpt>
      <trkpt lat="43.77615" lon="1.52128">
        <ele>214.062541</ele>
        <time>2022-07-31T14:10:29.828Z</time>
      </trkpt>
      <trkpt lat="43.77615" lon="1.52145">
        <ele>214.439457</ele>
        <time>2022-07-31T14:10:31.849Z</time>
      </trkpt>
      <trkpt lat="43.77617" lon="1.52162">
        <ele>214.823428</ele>
        <time>2022-07-31T14:10:33.837Z</time>
      </trkpt>
      <trkpt lat="43.77618" lon="1.52179">
        <ele>215.210885</ele>
        <time>2022-07-31T14:10:35.848Z</time>
      </trkpt>
      <trkpt lat="43.77621" lon="1.52194">
        <ele>215.573746</ele>
        <time>2022-07-31T14:10:37.855Z</time>
      </trkpt>
      <trkpt lat="43.77623" lon="1.52208">
        <ele>215.894587</ele>
        <time>2022-07-31T14:10:39.845Z</time>
      </trkpt>
      <trkpt lat="43.77625" lon="1.52222">
        <ele>216.217683</ele>
        <time>2022-07-31T14:10:41.843Z</time>
      </trkpt>
      <trkpt lat="43.77628" lon="1.52235">
        <ele>216.51235</ele>
        <time>2022-07-31T14:10:43.833Z</time>
      </trkpt>
      <trkpt lat="43.7763" lon="1.52251">
        <ele>216.880237</ele>
        <time>2022-07-31T14:10:46.840Z</time>
      </trkpt>
      <trkpt lat="43.77633" lon="1.52266">
        <ele>217.242929</ele>
        <time>2022-07-31T14:10:49.838Z</time>
      </trkpt>
      <trkpt lat="43.77636" lon="1.52282">
        <ele>217.601821</ele>
        <time>2022-07-31T14:10:52.849Z</time>
      </trkpt>
      <trkpt lat="43.77638" lon="1.52297">
        <ele>217.949194</ele>
        <time>2022-07-31T14:10:55.833Z</time>
      </trkpt>
      <trkpt lat="43.7764" lon="1.52311">
        <ele>218.709906</ele>
        <time>2022-07-31T14:10:58.846Z</time>
      </trkpt>
      <trkpt lat="43.77643" lon="1.52324">
        <ele>219.723981</ele>
        <time>2022-07-31T14:11:01.847Z</time>
      </trkpt>
      <trkpt lat="43.77646" lon="1.52337">
        <ele>220.664354</ele>
        <time>2022-07-31T14:11:04.833Z</time>
      </trkpt>
      <trkpt lat="43.77647" lon="1.52352">
        <ele>221.746909</ele>
        <time>2022-07-31T14:11:07.852Z</time>
      </trkpt>
      <trkpt lat="43.77646" lon="1.52365">
        <ele>222.737847</ele>
        <time>2022-07-31T14:11:10.835Z</time>
      </trkpt>
      <trkpt lat="43.7764" lon="1.52377">
        <ele>223.810704</ele>
        <time>2022-07-31T14:11:13.847Z</time>
      </trkpt>
      <trkpt lat="43.77632" lon="1.52386">
        <ele>224.847034</ele>
        <time>2022-07-31T14:11:16.841Z</time>
      </trkpt>
      <trkpt lat="43.77624" lon="1.52396">
        <ele>225.898481</ele>
        <time>2022-07-31T14:11:19.843Z</time>
      </trkpt>
      <trkpt lat="43.77616" lon="1.52405">
        <ele>226.991661</ele>
        <time>2022-07-31T14:11:22.844Z</time>
      </trkpt>
      <trkpt lat="43.77607" lon="1.52416">
        <ele>228.178167</ele>
        <time>2022-07-31T14:11:25.843Z</time>
      </trkpt>
      <trkpt lat="43.77598" lon="1.52426">
        <ele>229.358629</ele>
        <time>2022-07-31T14:11:28.856Z</time>
      </trkpt>
      <trkpt lat="43.77589" lon="1.52437">
        <ele>230.533883</ele>
        <time>2022-07-31T14:11:31.844Z</time>
      </trkpt>
      <trkpt lat="43.77581" lon="1.52449">
        <ele>231.704694</ele>
        <time>2022-07-31T14:11:34.856Z</time>
      </trkpt>
      <trkpt lat="43.77574" lon="1.5246">
        <ele>232.842034</ele>
        <time>2022-07-31T14:11:37.854Z</time>
      </trkpt>
      <trkpt lat="43.77566" lon="1.5247">
        <ele>233.861902</ele>
        <time>2022-07-31T14:11:40.833Z</time>
      </trkpt>
      <trkpt lat="43.77559" lon="1.52479">
        <ele>234.869381</ele>
        <time>2022-07-31T14:11:45.855Z</time>
      </trkpt>
      <trkpt lat="43.77553" lon="1.52489">
        <ele>235.865834</ele>
        <time>2022-07-31T14:11:48.838Z</time>
      </trkpt>
      <trkpt lat="43.77547" lon="1.52499">
        <ele>236.764357</ele>
        <time>2022-07-31T14:11:51.846Z</time>
      </trkpt>
      <trkpt lat="43.7754" lon="1.52508">
        <ele>237.724943</ele>
        <time>2022-07-31T14:11:54.851Z</time>
      </trkpt>
      <trkpt lat="43.77532" lon="1.52518">
        <ele>238.733447</ele>
        <time>2022-07-31T14:11:57.841Z</time>
      </trkpt>
      <trkpt lat="43.77524" lon="1.52527">
        <ele>239.726312</ele>
        <time>2022-07-31T14:12:00.842Z</time>
      </trkpt>
      <trkpt lat="43.77517" lon="1.52538">
        <ele>240.7564</ele>
        <time>2022-07-31T14:12:03.849Z</time>
      </trkpt>
      <trkpt lat="43.77509" lon="1.52549">
        <ele>241.872167</ele>
        <time>2022-07-31T14:12:06.852Z</time>
      </trkpt>
      <trkpt lat="43.77501" lon="1.52559">
        <ele>242.940398</ele>
        <time>2022-07-31T14:12:09.822Z</time>
      </trkpt>
      <trkpt lat="43.77494" lon="1.52569">
        <ele>243.936846</ele>
        <time>2022-07-31T14:12:12.851Z</time>
      </trkpt>
      <trkpt lat="43.77486" lon="1.52579">
        <ele>244.969356</ele>
        <time>2022-07-31T14:12:15.843Z</time>
      </trkpt>
      <trkpt lat="43.77478" lon="1.52588">
        <ele>245.983347</ele>
        <time>2022-07-31T14:12:18.836Z</time>
      </trkpt>
      <trkpt lat="43.7747" lon="1.52598">
        <ele>247.006543</ele>
        <time>2022-07-31T14:12:21.828Z</time>
      </trkpt>
      <trkpt lat="43.77463" lon="1.52607">
        <ele>248.012517</ele>
        <time>2022-07-31T14:12:24.834Z</time>
      </trkpt>
      <trkpt lat="43.77455" lon="1.52616">
        <ele>249.002462</ele>
        <time>2022-07-31T14:12:27.848Z</time>
      </trkpt>
      <trkpt lat="43.77447" lon="1.52626">
        <ele>250.008436</ele>
        <time>2022-07-31T14:12:30.849Z</time>
      </trkpt>
      <trkpt lat="43.7744" lon="1.52635">
        <ele>250.992952</ele>
        <time>2022-07-31T14:12:33.840Z</time>
      </trkpt>
      <trkpt lat="43.77433" lon="1.52645">
        <ele>251.975291</ele>
        <time>2022-07-31T14:12:36.842Z</time>
      </trkpt>
      <trkpt lat="43.77425" lon="1.52653">
        <ele>252.936575</ele>
        <time>2022-07-31T14:12:39.841Z</time>
      </trkpt>
      <trkpt lat="43.77417" lon="1.52662">
        <ele>253.881319</ele>
        <time>2022-07-31T14:12:42.837Z</time>
      </trkpt>
      <trkpt lat="43.7741" lon="1.5267">
        <ele>254.777128</ele>
        <time>2022-07-31T14:12:45.849Z</time>
      </trkpt>
      <trkpt lat="43.77402" lon="1.52677">
        <ele>255.686826</ele>
        <time>2022-07-31T14:12:48.848Z</time>
      </trkpt>
      <trkpt lat="43.77394" lon="1.52684">
        <ele>256.610707</ele>
        <time>2022-07-31T14:12:51.840Z</time>
      </trkpt>
      <trkpt lat="43.77385" lon="1.5269">
        <ele>257.531329</ele>
        <time>2022-07-31T14:12:54.836Z</time>
      </trkpt>
      <trkpt lat="43.77377" lon="1.52696">
        <ele>258.422185</ele>
        <time>2022-07-31T14:12:57.843Z</time>
      </trkpt>
      <trkpt lat="43.77368" lon="1.52701">
        <ele>259.307401</ele>
        <time>2022-07-31T14:13:00.863Z</time>
      </trkpt>
      <trkpt lat="43.77359" lon="1.52707">
        <ele>260.290455</ele>
        <time>2022-07-31T14:13:03.844Z</time>
      </trkpt>
      <trkpt lat="43.7735" lon="1.52715">
        <ele>261.252816</ele>
        <time>2022-07-31T14:13:06.866Z</time>
      </trkpt>
      <trkpt lat="43.77342" lon="1.52722">
        <ele>262.155794</ele>
        <time>2022-07-31T14:13:09.851Z</time>
      </trkpt>
      <trkpt lat="43.77334" lon="1.52729">
        <ele>263.069718</ele>
        <time>2022-07-31T14:13:12.847Z</time>
      </trkpt>
      <trkpt lat="43.77325" lon="1.52736">
        <ele>264.083408</ele>
        <time>2022-07-31T14:13:15.839Z</time>
      </trkpt>
      <trkpt lat="43.77315" lon="1.52744">
        <ele>265.142724</ele>
        <time>2022-07-31T14:13:18.846Z</time>
      </trkpt>
      <trkpt lat="43.77306" lon="1.52754">
        <ele>266.235689</ele>
        <time>2022-07-31T14:13:21.839Z</time>
      </trkpt>
      <trkpt lat="43.77297" lon="1.52762">
        <ele>267.250542</ele>
        <time>2022-07-31T14:13:24.868Z</time>
      </trkpt>
      <trkpt lat="43.77288" lon="1.52771">
        <ele>268.347362</ele>
        <time>2022-07-31T14:13:27.853Z</time>
      </trkpt>
      <trkpt lat="43.77279" lon="1.5278">
        <ele>269.393768</ele>
        <time>2022-07-31T14:13:30.837Z</time>
      </trkpt>
      <trkpt lat="43.7727" lon="1.52789">
        <ele>270.432148</ele>
        <time>2022-07-31T14:13:33.843Z</time>
      </trkpt>
      <trkpt lat="43.77262" lon="1.52798">
        <ele>271.247255</ele>
        <time>2022-07-31T14:13:36.853Z</time>
      </trkpt>
      <trkpt lat="43.77254" lon="1.52807">
        <ele>271.866563</ele>
        <time>2022-07-31T14:13:39.849Z</time>
      </trkpt>
      <trkpt lat="43.77247" lon="1.52816">
        <ele>272.487114</ele>
        <time>2022-07-31T14:13:42.849Z</time>
      </trkpt>
      <trkpt lat="43.77239" lon="1.52826">
        <ele>273.1158</ele>
        <time>2022-07-31T14:13:45.840Z</time>
      </trkpt>
      <trkpt lat="43.77232" lon="1.52835">
        <ele>273.746898</ele>
        <time>2022-07-31T14:13:48.833Z</time>
      </trkpt>
      <trkpt lat="43.77224" lon="1.52845">
        <ele>274.394771</ele>
        <time>2022-07-31T14:13:51.843Z</time>
      </trkpt>
      <trkpt lat="43.77215" lon="1.52854">
        <ele>275.059538</ele>
        <time>2022-07-31T14:13:54.839Z</time>
      </trkpt>
      <trkpt lat="43.77207" lon="1.52865">
        <ele>275.77517</ele>
        <time>2022-07-31T14:13:57.837Z</time>
      </trkpt>
      <trkpt lat="43.77198" lon="1.52877">
        <ele>276.539144</ele>
        <time>2022-07-31T14:14:00.835Z</time>
      </trkpt>
      <trkpt lat="43.77189" lon="1.52889">
        <ele>277.30795</ele>
        <time>2022-07-31T14:14:03.834Z</time>
      </trkpt>
      <trkpt lat="43.7718" lon="1.52903">
        <ele>278.129991</ele>
        <time>2022-07-31T14:14:06.846Z</time>
      </trkpt>
      <trkpt lat="43.77171" lon="1.52917">
        <ele>278.966301</ele>
        <time>2022-07-31T14:14:09.850Z</time>
      </trkpt>
      <trkpt lat="43.77165" lon="1.52926">
        <ele>279.543718</ele>
        <time>2022-07-31T14:14:11.851Z</time>
      </trkpt>
      <trkpt lat="43.77159" lon="1.52937">
        <ele>280.132777</ele>
        <time>2022-07-31T14:14:13.852Z</time>
      </trkpt>
      <trkpt lat="43.77153" lon="1.52947">
        <ele>280.712069</ele>
        <time>2022-07-31T14:14:15.854Z</time>
      </trkpt>
      <trkpt lat="43.77147" lon="1.52957">
        <ele>281.286171</ele>
        <time>2022-07-31T14:14:17.842Z</time>
      </trkpt>
      <trkpt lat="43.7714" lon="1.52972">
        <ele>282.076915</ele>
        <time>2022-07-31T14:14:20.834Z</time>
      </trkpt>
      <trkpt lat="43.77135" lon="1.52983">
        <ele>282.332473</ele>
        <time>2022-07-31T14:14:22.841Z</time>
      </trkpt>
      <trkpt lat="43.77131" lon="1.52995">
        <ele>282.591779</ele>
        <time>2022-07-31T14:14:24.848Z</time>
      </trkpt>
      <trkpt lat="43.77128" lon="1.53007">
        <ele>282.856248</ele>
        <time>2022-07-31T14:14:26.830Z</time>
      </trkpt>
      <trkpt lat="43.77124" lon="1.5302">
        <ele>283.128216</ele>
        <time>2022-07-31T14:14:28.840Z</time>
      </trkpt>
      <trkpt lat="43.77121" lon="1.53033">
        <ele>283.397408</ele>
        <time>2022-07-31T14:14:30.838Z</time>
      </trkpt>
      <trkpt lat="43.77119" lon="1.53046">
        <ele>283.661799</ele>
        <time>2022-07-31T14:14:32.840Z</time>
      </trkpt>
      <trkpt lat="43.77116" lon="1.53059">
        <ele>283.930992</ele>
        <time>2022-07-31T14:14:34.860Z</time>
      </trkpt>
      <trkpt lat="43.77112" lon="1.53072">
        <ele>284.206735</ele>
        <time>2022-07-31T14:14:36.839Z</time>
      </trkpt>
      <trkpt lat="43.7711" lon="1.53085">
        <ele>284.486797</ele>
        <time>2022-07-31T14:14:38.854Z</time>
      </trkpt>
      <trkpt lat="43.77107" lon="1.53099">
        <ele>284.775729</ele>
        <time>2022-07-31T14:14:40.838Z</time>
      </trkpt>
      <trkpt lat="43.77104" lon="1.53113">
        <ele>285.063465</ele>
        <time>2022-07-31T14:14:42.836Z</time>
      </trkpt>
      <trkpt lat="43.77102" lon="1.53127">
        <ele>285.351095</ele>
        <time>2022-07-31T14:14:44.862Z</time>
      </trkpt>
      <trkpt lat="43.77099" lon="1.53142">
        <ele>285.6574</ele>
        <time>2022-07-31T14:14:46.834Z</time>
      </trkpt>
      <trkpt lat="43.77096" lon="1.53157">
        <ele>285.964389</ele>
        <time>2022-07-31T14:14:48.840Z</time>
      </trkpt>
      <trkpt lat="43.77093" lon="1.53172">
        <ele>286.267825</ele>
        <time>2022-07-31T14:14:50.839Z</time>
      </trkpt>
      <trkpt lat="43.7709" lon="1.53186">
        <ele>286.561469</ele>
        <time>2022-07-31T14:14:52.830Z</time>
      </trkpt>
      <trkpt lat="43.77087" lon="1.53199">
        <ele>286.845596</ele>
        <time>2022-07-31T14:14:54.844Z</time>
      </trkpt>
      <trkpt lat="43.77083" lon="1.53212">
        <ele>287.116774</ele>
        <time>2022-07-31T14:14:56.848Z</time>
      </trkpt>
      <trkpt lat="43.77078" lon="1.53224">
        <ele>287.38244</ele>
        <time>2022-07-31T14:14:58.854Z</time>
      </trkpt>
      <trkpt lat="43.77074" lon="1.53236">
        <ele>287.653351</ele>
        <time>2022-07-31T14:15:00.833Z</time>
      </trkpt>
      <trkpt lat="43.77069" lon="1.53248">
        <ele>287.92008</ele>
        <time>2022-07-31T14:15:02.845Z</time>
      </trkpt>
      <trkpt lat="43.77065" lon="1.5326">
        <ele>288.184467</ele>
        <time>2022-07-31T14:15:04.846Z</time>
      </trkpt>
      <trkpt lat="43.77061" lon="1.53272">
        <ele>288.441455</ele>
        <time>2022-07-31T14:15:06.832Z</time>
      </trkpt>
      <trkpt lat="43.77057" lon="1.53284">
        <ele>288.695732</ele>
        <time>2022-07-31T14:15:08.852Z</time>
      </trkpt>
      <trkpt lat="43.77057" lon="1.53297">
        <ele>288.955308</ele>
        <time>2022-07-31T14:15:10.837Z</time>
      </trkpt>
      <trkpt lat="43.77057" lon="1.53311">
        <ele>289.222861</ele>
        <time>2022-07-31T14:15:12.853Z</time>
      </trkpt>
      <trkpt lat="43.77055" lon="1.53323">
        <ele>289.471297</ele>
        <time>2022-07-31T14:15:14.851Z</time>
      </trkpt>
      <trkpt lat="43.77052" lon="1.53341">
        <ele>289.830033</ele>
        <time>2022-07-31T14:15:17.869Z</time>
      </trkpt>
      <trkpt lat="43.77048" lon="1.53358">
        <ele>290.195087</ele>
        <time>2022-07-31T14:15:20.856Z</time>
      </trkpt>
      <trkpt lat="43.77044" lon="1.5337">
        <ele>290.442095</ele>
        <time>2022-07-31T14:15:22.858Z</time>
      </trkpt>
      <trkpt lat="43.77044" lon="1.53387">
        <ele>290.772354</ele>
        <time>2022-07-31T14:15:25.831Z</time>
      </trkpt>
      <trkpt lat="43.77051" lon="1.53398">
        <ele>291.071122</ele>
        <time>2022-07-31T14:15:28.854Z</time>
      </trkpt>
      <trkpt lat="43.77061" lon="1.53406">
        <ele>291.37062</ele>
        <time>2022-07-31T14:15:31.831Z</time>
      </trkpt>
      <trkpt lat="43.77071" lon="1.53411">
        <ele>291.66767</ele>
        <time>2022-07-31T14:15:35.833Z</time>
      </trkpt>
      <trkpt lat="43.77078" lon="1.53419">
        <ele>291.901139</ele>
        <time>2022-07-31T14:15:39.847Z</time>
      </trkpt>
      <trkpt lat="43.77085" lon="1.53428">
        <ele>291.332576</ele>
        <time>2022-07-31T14:15:42.843Z</time>
      </trkpt>
      <trkpt lat="43.77093" lon="1.53438">
        <ele>290.729231</ele>
        <time>2022-07-31T14:15:45.819Z</time>
      </trkpt>
      <trkpt lat="43.771" lon="1.53445">
        <ele>290.19909</ele>
        <time>2022-07-31T14:15:48.824Z</time>
      </trkpt>
      <trkpt lat="43.7711" lon="1.53451">
        <ele>289.578162</ele>
        <time>2022-07-31T14:15:53.819Z</time>
      </trkpt>
      <trkpt lat="43.7712" lon="1.53447">
        <ele>288.930693</ele>
        <time>2022-07-31T14:15:58.830Z</time>
      </trkpt>
      <trkpt lat="43.7713" lon="1.53445">
        <ele>288.361621</ele>
        <time>2022-07-31T14:16:02.835Z</time>
      </trkpt>
      <trkpt lat="43.77149" lon="1.53433">
        <ele>287.146134</ele>
        <time>2022-07-31T14:17:35.843Z</time>
      </trkpt>
      <trkpt lat="43.77158" lon="1.5342">
        <ele>286.385682</ele>
        <time>2022-07-31T14:17:39.821Z</time>
      </trkpt>
      <trkpt lat="43.77164" lon="1.53406">
        <ele>285.681953</ele>
        <time>2022-07-31T14:17:42.842Z</time>
      </trkpt>
      <trkpt lat="43.77168" lon="1.53391">
        <ele>285.022809</ele>
        <time>2022-07-31T14:17:45.838Z</time>
      </trkpt>
      <trkpt lat="43.77171" lon="1.53377">
        <ele>284.403817</ele>
        <time>2022-07-31T14:17:48.850Z</time>
      </trkpt>
      <trkpt lat="43.77171" lon="1.53363">
        <ele>283.80272</ele>
        <time>2022-07-31T14:17:52.835Z</time>
      </trkpt>
      <trkpt lat="43.77181" lon="1.53353">
        <ele>283.062913</ele>
        <time>2022-07-31T14:17:57.849Z</time>
      </trkpt>
      <trkpt lat="43.77193" lon="1.53348">
        <ele>282.355607</ele>
        <time>2022-07-31T14:18:00.831Z</time>
      </trkpt>
      <trkpt lat="43.77206" lon="1.53342">
        <ele>281.527436</ele>
        <time>2022-07-31T14:18:03.842Z</time>
      </trkpt>
      <trkpt lat="43.77218" lon="1.53336">
        <ele>279.728703</ele>
        <time>2022-07-31T14:18:05.844Z</time>
      </trkpt>
      <trkpt lat="43.7723" lon="1.53332">
        <ele>277.485737</ele>
        <time>2022-07-31T14:18:07.843Z</time>
      </trkpt>
      <trkpt lat="43.77243" lon="1.53327">
        <ele>275.222809</ele>
        <time>2022-07-31T14:18:09.850Z</time>
      </trkpt>
      <trkpt lat="43.77257" lon="1.53323">
        <ele>272.666854</ele>
        <time>2022-07-31T14:18:11.856Z</time>
      </trkpt>
      <trkpt lat="43.77273" lon="1.53318">
        <ele>269.734755</ele>
        <time>2022-07-31T14:18:13.850Z</time>
      </trkpt>
      <trkpt lat="43.7729" lon="1.53313">
        <ele>266.86134</ele>
        <time>2022-07-31T14:18:15.842Z</time>
      </trkpt>
      <trkpt lat="43.77305" lon="1.5331">
        <ele>264.106814</ele>
        <time>2022-07-31T14:18:17.846Z</time>
      </trkpt>
      <trkpt lat="43.7732" lon="1.53307">
        <ele>261.574369</ele>
        <time>2022-07-31T14:18:19.859Z</time>
      </trkpt>
      <trkpt lat="43.77333" lon="1.53303">
        <ele>259.254624</ele>
        <time>2022-07-31T14:18:21.845Z</time>
      </trkpt>
      <trkpt lat="43.77346" lon="1.53294">
        <ele>256.617626</ele>
        <time>2022-07-31T14:18:23.838Z</time>
      </trkpt>
      <trkpt lat="43.7736" lon="1.53286">
        <ele>254.088012</ele>
        <time>2022-07-31T14:18:25.837Z</time>
      </trkpt>
      <trkpt lat="43.77375" lon="1.53282">
        <ele>251.443661</ele>
        <time>2022-07-31T14:18:27.841Z</time>
      </trkpt>
      <trkpt lat="43.77392" lon="1.53275">
        <ele>248.746462</ele>
        <time>2022-07-31T14:18:29.820Z</time>
      </trkpt>
      <trkpt lat="43.77401" lon="1.53271">
        <ele>247.524208</ele>
        <time>2022-07-31T14:18:30.848Z</time>
      </trkpt>
      <trkpt lat="43.7741" lon="1.53266">
        <ele>246.249227</ele>
        <time>2022-07-31T14:18:31.844Z</time>
      </trkpt>
      <trkpt lat="43.77418" lon="1.53262">
        <ele>245.055661</ele>
        <time>2022-07-31T14:18:32.855Z</time>
      </trkpt>
      <trkpt lat="43.77433" lon="1.53255">
        <ele>242.914359</ele>
        <time>2022-07-31T14:18:34.854Z</time>
      </trkpt>
      <trkpt lat="43.77449" lon="1.53254">
        <ele>240.798575</ele>
        <time>2022-07-31T14:18:36.850Z</time>
      </trkpt>
      <trkpt lat="43.77458" lon="1.53257">
        <ele>239.58939</ele>
        <time>2022-07-31T14:18:37.825Z</time>
      </trkpt>
      <trkpt lat="43.77467" lon="1.53262">
        <ele>238.338372</ele>
        <time>2022-07-31T14:18:38.866Z</time>
      </trkpt>
      <trkpt lat="43.77475" lon="1.53268">
        <ele>237.054225</ele>
        <time>2022-07-31T14:18:39.821Z</time>
      </trkpt>
      <trkpt lat="43.77484" lon="1.53275">
        <ele>235.705228</ele>
        <time>2022-07-31T14:18:40.841Z</time>
      </trkpt>
      <trkpt lat="43.77493" lon="1.53281">
        <ele>234.335529</ele>
        <time>2022-07-31T14:18:41.822Z</time>
      </trkpt>
      <trkpt lat="43.77502" lon="1.53288">
        <ele>233.004894</ele>
        <time>2022-07-31T14:18:42.825Z</time>
      </trkpt>
      <trkpt lat="43.7751" lon="1.53295">
        <ele>231.705067</ele>
        <time>2022-07-31T14:18:43.843Z</time>
      </trkpt>
      <trkpt lat="43.77519" lon="1.53302">
        <ele>230.395641</ele>
        <time>2022-07-31T14:18:44.859Z</time>
      </trkpt>
      <trkpt lat="43.77528" lon="1.53309">
        <ele>229.053575</ele>
        <time>2022-07-31T14:18:45.825Z</time>
      </trkpt>
      <trkpt lat="43.77535" lon="1.5332">
        <ele>227.614595</ele>
        <time>2022-07-31T14:18:46.857Z</time>
      </trkpt>
      <trkpt lat="43.77543" lon="1.5333">
        <ele>226.166404</ele>
        <time>2022-07-31T14:18:47.833Z</time>
      </trkpt>
      <trkpt lat="43.77548" lon="1.53343">
        <ele>225.259531</ele>
        <time>2022-07-31T14:18:48.834Z</time>
      </trkpt>
      <trkpt lat="43.77553" lon="1.53355">
        <ele>224.403149</ele>
        <time>2022-07-31T14:18:49.838Z</time>
      </trkpt>
      <trkpt lat="43.77558" lon="1.53366">
        <ele>223.598813</ele>
        <time>2022-07-31T14:18:50.846Z</time>
      </trkpt>
      <trkpt lat="43.77563" lon="1.53378">
        <ele>222.792586</ele>
        <time>2022-07-31T14:18:51.847Z</time>
      </trkpt>
      <trkpt lat="43.77568" lon="1.53389">
        <ele>221.988251</ele>
        <time>2022-07-31T14:18:52.807Z</time>
      </trkpt>
      <trkpt lat="43.77575" lon="1.534">
        <ele>221.030199</ele>
        <time>2022-07-31T14:18:53.841Z</time>
      </trkpt>
      <trkpt lat="43.77581" lon="1.53412">
        <ele>220.127649</ele>
        <time>2022-07-31T14:18:54.843Z</time>
      </trkpt>
      <trkpt lat="43.77589" lon="1.53424">
        <ele>219.178036</ele>
        <time>2022-07-31T14:18:55.822Z</time>
      </trkpt>
      <trkpt lat="43.77596" lon="1.53435">
        <ele>218.24063</ele>
        <time>2022-07-31T14:18:56.851Z</time>
      </trkpt>
      <trkpt lat="43.77603" lon="1.53445">
        <ele>217.334482</ele>
        <time>2022-07-31T14:18:57.843Z</time>
      </trkpt>
      <trkpt lat="43.77611" lon="1.53455">
        <ele>216.441018</ele>
        <time>2022-07-31T14:18:58.833Z</time>
      </trkpt>
      <trkpt lat="43.77619" lon="1.53464">
        <ele>215.582289</ele>
        <time>2022-07-31T14:18:59.823Z</time>
      </trkpt>
      <trkpt lat="43.77627" lon="1.53472">
        <ele>214.701589</ele>
        <time>2022-07-31T14:19:00.848Z</time>
      </trkpt>
      <trkpt lat="43.77635" lon="1.5348">
        <ele>213.842763</ele>
        <time>2022-07-31T14:19:01.853Z</time>
      </trkpt>
      <trkpt lat="43.77644" lon="1.53487">
        <ele>212.981265</ele>
        <time>2022-07-31T14:19:02.857Z</time>
      </trkpt>
      <trkpt lat="43.77653" lon="1.53495">
        <ele>212.108216</ele>
        <time>2022-07-31T14:19:03.853Z</time>
      </trkpt>
      <trkpt lat="43.77661" lon="1.53502">
        <ele>211.241937</ele>
        <time>2022-07-31T14:19:04.856Z</time>
      </trkpt>
      <trkpt lat="43.7767" lon="1.5351">
        <ele>210.439234</ele>
        <time>2022-07-31T14:19:05.832Z</time>
      </trkpt>
      <trkpt lat="43.77678" lon="1.53518">
        <ele>209.76484</ele>
        <time>2022-07-31T14:19:06.838Z</time>
      </trkpt>
      <trkpt lat="43.77688" lon="1.53526">
        <ele>209.035885</ele>
        <time>2022-07-31T14:19:07.835Z</time>
      </trkpt>
      <trkpt lat="43.77697" lon="1.53534">
        <ele>208.32913</ele>
        <time>2022-07-31T14:19:08.842Z</time>
      </trkpt>
      <trkpt lat="43.77706" lon="1.5354">
        <ele>207.671015</ele>
        <time>2022-07-31T14:19:09.838Z</time>
      </trkpt>
      <trkpt lat="43.77715" lon="1.53546">
        <ele>206.985075</ele>
        <time>2022-07-31T14:19:10.846Z</time>
      </trkpt>
      <trkpt lat="43.77724" lon="1.53552">
        <ele>206.333381</ele>
        <time>2022-07-31T14:19:11.825Z</time>
      </trkpt>
      <trkpt lat="43.77732" lon="1.53558">
        <ele>205.68339</ele>
        <time>2022-07-31T14:19:12.852Z</time>
      </trkpt>
      <trkpt lat="43.77746" lon="1.53568">
        <ele>204.657024</ele>
        <time>2022-07-31T14:19:14.855Z</time>
      </trkpt>
      <trkpt lat="43.77757" lon="1.53575">
        <ele>203.833782</ele>
        <time>2022-07-31T14:19:16.852Z</time>
      </trkpt>
      <trkpt lat="43.77767" lon="1.53579">
        <ele>203.12074</ele>
        <time>2022-07-31T14:19:19.837Z</time>
      </trkpt>
      <trkpt lat="43.77777" lon="1.53578">
        <ele>202.505972</ele>
        <time>2022-07-31T14:19:22.831Z</time>
      </trkpt>
      <trkpt lat="43.77786" lon="1.53566">
        <ele>201.678032</ele>
        <time>2022-07-31T14:19:25.847Z</time>
      </trkpt>
      <trkpt lat="43.77792" lon="1.53557">
        <ele>201.077793</ele>
        <time>2022-07-31T14:19:27.832Z</time>
      </trkpt>
      <trkpt lat="43.77799" lon="1.53547">
        <ele>200.385444</ele>
        <time>2022-07-31T14:19:29.845Z</time>
      </trkpt>
      <trkpt lat="43.77807" lon="1.53536">
        <ele>199.652265</ele>
        <time>2022-07-31T14:19:31.843Z</time>
      </trkpt>
      <trkpt lat="43.77815" lon="1.53526">
        <ele>198.94984</ele>
        <time>2022-07-31T14:19:33.830Z</time>
      </trkpt>
      <trkpt lat="43.77823" lon="1.53518">
        <ele>198.596579</ele>
        <time>2022-07-31T14:19:35.857Z</time>
      </trkpt>
      <trkpt lat="43.77832" lon="1.53511">
        <ele>198.331103</ele>
        <time>2022-07-31T14:19:37.796Z</time>
      </trkpt>
      <trkpt lat="43.77844" lon="1.53509">
        <ele>198.027993</ele>
        <time>2022-07-31T14:19:39.843Z</time>
      </trkpt>
      <trkpt lat="43.77856" lon="1.53509">
        <ele>197.70722</ele>
        <time>2022-07-31T14:19:41.836Z</time>
      </trkpt>
      <trkpt lat="43.77869" lon="1.53509">
        <ele>197.391496</ele>
        <time>2022-07-31T14:19:43.833Z</time>
      </trkpt>
      <trkpt lat="43.77881" lon="1.53506">
        <ele>197.076677</ele>
        <time>2022-07-31T14:19:45.831Z</time>
      </trkpt>
      <trkpt lat="43.77893" lon="1.535">
        <ele>196.760141</ele>
        <time>2022-07-31T14:19:47.840Z</time>
      </trkpt>
      <trkpt lat="43.77903" lon="1.5349">
        <ele>196.432598</ele>
        <time>2022-07-31T14:19:49.845Z</time>
      </trkpt>
      <trkpt lat="43.77913" lon="1.53477">
        <ele>196.100913</ele>
        <time>2022-07-31T14:19:51.836Z</time>
      </trkpt>
      <trkpt lat="43.77922" lon="1.53464">
        <ele>195.753936</ele>
        <time>2022-07-31T14:19:53.851Z</time>
      </trkpt>
      <trkpt lat="43.77932" lon="1.5345">
        <ele>195.398815</ele>
        <time>2022-07-31T14:19:55.842Z</time>
      </trkpt>
      <trkpt lat="43.77941" lon="1.53436">
        <ele>195.047412</ele>
        <time>2022-07-31T14:19:57.840Z</time>
      </trkpt>
      <trkpt lat="43.7795" lon="1.53422">
        <ele>194.699456</ele>
        <time>2022-07-31T14:19:59.846Z</time>
      </trkpt>
      <trkpt lat="43.7796" lon="1.53408">
        <ele>194.344979</ele>
        <time>2022-07-31T14:20:01.839Z</time>
      </trkpt>
      <trkpt lat="43.7797" lon="1.53394">
        <ele>194.095581</ele>
        <time>2022-07-31T14:20:03.835Z</time>
      </trkpt>
      <trkpt lat="43.77979" lon="1.53379">
        <ele>193.903511</ele>
        <time>2022-07-31T14:20:05.836Z</time>
      </trkpt>
      <trkpt lat="43.77988" lon="1.53364">
        <ele>193.709741</ele>
        <time>2022-07-31T14:20:07.822Z</time>
      </trkpt>
      <trkpt lat="43.77998" lon="1.53349">
        <ele>193.514775</ele>
        <time>2022-07-31T14:20:09.836Z</time>
      </trkpt>
      <trkpt lat="43.78008" lon="1.53335">
        <ele>193.32017</ele>
        <time>2022-07-31T14:20:11.830Z</time>
      </trkpt>
      <trkpt lat="43.78018" lon="1.53321">
        <ele>193.123225</ele>
        <time>2022-07-31T14:20:13.837Z</time>
      </trkpt>
      <trkpt lat="43.78029" lon="1.53306">
        <ele>192.92177</ele>
        <time>2022-07-31T14:20:15.841Z</time>
      </trkpt>
      <trkpt lat="43.78039" lon="1.53293">
        <ele>192.738281</ele>
        <time>2022-07-31T14:20:17.832Z</time>
      </trkpt>
      <trkpt lat="43.78049" lon="1.5328">
        <ele>192.549835</ele>
        <time>2022-07-31T14:20:19.840Z</time>
      </trkpt>
      <trkpt lat="43.78059" lon="1.53267">
        <ele>192.368032</ele>
        <time>2022-07-31T14:20:21.821Z</time>
      </trkpt>
      <trkpt lat="43.78068" lon="1.53254">
        <ele>192.185517</ele>
        <time>2022-07-31T14:20:23.831Z</time>
      </trkpt>
      <trkpt lat="43.78078" lon="1.53242">
        <ele>192.006333</ele>
        <time>2022-07-31T14:20:25.868Z</time>
      </trkpt>
      <trkpt lat="43.78088" lon="1.5323">
        <ele>191.824477</ele>
        <time>2022-07-31T14:20:27.855Z</time>
      </trkpt>
      <trkpt lat="43.78098" lon="1.53218">
        <ele>191.688831</ele>
        <time>2022-07-31T14:20:29.835Z</time>
      </trkpt>
      <trkpt lat="43.78108" lon="1.53206">
        <ele>191.565409</ele>
        <time>2022-07-31T14:20:31.849Z</time>
      </trkpt>
      <trkpt lat="43.78117" lon="1.53195">
        <ele>191.446016</ele>
        <time>2022-07-31T14:20:33.825Z</time>
      </trkpt>
      <trkpt lat="43.78126" lon="1.53183">
        <ele>191.326435</ele>
        <time>2022-07-31T14:20:35.855Z</time>
      </trkpt>
      <trkpt lat="43.78135" lon="1.53172">
        <ele>191.208517</ele>
        <time>2022-07-31T14:20:37.850Z</time>
      </trkpt>
      <trkpt lat="43.78143" lon="1.53161">
        <ele>191.094859</ele>
        <time>2022-07-31T14:20:39.830Z</time>
      </trkpt>
      <trkpt lat="43.78152" lon="1.5315">
        <ele>190.983583</ele>
        <time>2022-07-31T14:20:41.847Z</time>
      </trkpt>
      <trkpt lat="43.7816" lon="1.53139">
        <ele>190.871808</ele>
        <time>2022-07-31T14:20:43.845Z</time>
      </trkpt>
      <trkpt lat="43.78169" lon="1.53127">
        <ele>190.756578</ele>
        <time>2022-07-31T14:20:45.842Z</time>
      </trkpt>
      <trkpt lat="43.78177" lon="1.53116">
        <ele>190.640975</ele>
        <time>2022-07-31T14:20:47.846Z</time>
      </trkpt>
      <trkpt lat="43.78185" lon="1.53103">
        <ele>190.523564</ele>
        <time>2022-07-31T14:20:49.846Z</time>
      </trkpt>
      <trkpt lat="43.78193" lon="1.53091">
        <ele>190.405871</ele>
        <time>2022-07-31T14:20:51.826Z</time>
      </trkpt>
      <trkpt lat="43.782" lon="1.53077">
        <ele>190.294075</ele>
        <time>2022-07-31T14:20:53.848Z</time>
      </trkpt>
      <trkpt lat="43.78204" lon="1.53061">
        <ele>190.170361</ele>
        <time>2022-07-31T14:20:55.842Z</time>
      </trkpt>
      <trkpt lat="43.78208" lon="1.53044">
        <ele>190.048556</ele>
        <time>2022-07-31T14:20:57.854Z</time>
      </trkpt>
      <trkpt lat="43.78212" lon="1.53028">
        <ele>189.893828</ele>
        <time>2022-07-31T14:20:59.823Z</time>
      </trkpt>
      <trkpt lat="43.78217" lon="1.53011">
        <ele>189.739672</ele>
        <time>2022-07-31T14:21:01.839Z</time>
      </trkpt>
      <trkpt lat="43.78221" lon="1.52995">
        <ele>189.588049</ele>
        <time>2022-07-31T14:21:03.853Z</time>
      </trkpt>
      <trkpt lat="43.78226" lon="1.52979">
        <ele>189.433817</ele>
        <time>2022-07-31T14:21:05.843Z</time>
      </trkpt>
      <trkpt lat="43.78231" lon="1.52964">
        <ele>189.281579</ele>
        <time>2022-07-31T14:21:07.830Z</time>
      </trkpt>
      <trkpt lat="43.78236" lon="1.52948">
        <ele>189.132721</ele>
        <time>2022-07-31T14:21:09.851Z</time>
      </trkpt>
      <trkpt lat="43.78241" lon="1.52934">
        <ele>188.987033</ele>
        <time>2022-07-31T14:21:11.853Z</time>
      </trkpt>
      <trkpt lat="43.78247" lon="1.5292">
        <ele>188.845283</ele>
        <time>2022-07-31T14:21:13.840Z</time>
      </trkpt>
      <trkpt lat="43.78241" lon="1.52882">
        <ele>132.3</ele>
        <time>2022-07-31T14:21:15.836Z</time>
      </trkpt>
      <trkpt lat="43.78223" lon="1.52831">
        <ele>133</ele>
      </trkpt>
      <trkpt lat="43.78212" lon="1.52778">
        <ele>134.4</ele>
      </trkpt>
      <trkpt lat="43.78209" lon="1.52632">
        <ele>134.7</ele>
      </trkpt>
      <trkpt lat="43.78219" lon="1.52593">
        <ele>135.2</ele>
      </trkpt>
      <trkpt lat="43.78205" lon="1.52483">
        <ele>137</ele>
      </trkpt>
      <trkpt lat="43.78203" lon="1.52419">
        <ele>137.4</ele>
      </trkpt>
      <trkpt lat="43.7822" lon="1.52374">
        <ele>136.2</ele>
      </trkpt>
      <trkpt lat="43.78419" lon="1.52324">
        <ele>132</ele>
      </trkpt>
      <trkpt lat="43.78611" lon="1.52198">
        <ele>131.9</ele>
      </trkpt>
      <trkpt lat="43.78678" lon="1.5212">
        <ele>131</ele>
      </trkpt>
      <trkpt lat="43.78771" lon="1.52081">
        <ele>130.3</ele>
      </trkpt>
      <trkpt lat="43.78807" lon="1.52079">
        <ele>130</ele>
      </trkpt>
      <trkpt lat="43.78872" lon="1.52027">
        <ele>129.6</ele>
      </trkpt>
      <trkpt lat="43.78916" lon="1.5197">
        <ele>129.1</ele>
      </trkpt>
      <trkpt lat="43.78968" lon="1.51946">
        <ele>129</ele>
      </trkpt>
      <trkpt lat="43.79031" lon="1.51862">
        <ele>128.8</ele>
      </trkpt>
      <trkpt lat="43.78973" lon="1.51763">
        <ele>129</ele>
      </trkpt>
      <trkpt lat="43.78931" lon="1.5172">
        <ele>129.4</ele>
      </trkpt>
      <trkpt lat="43.78907" lon="1.51567">
        <ele>128.7</ele>
      </trkpt>
      <trkpt lat="43.7884" lon="1.51426">
        <ele>130.8</ele>
      </trkpt>
      <trkpt lat="43.7875" lon="1.51288">
        <ele>189.461515</ele>
        <time>2022-07-31T14:28:29.854Z</time>
      </trkpt>
      <trkpt lat="43.78735" lon="1.51272">
        <ele>189.428313</ele>
        <time>2022-07-31T14:29:25.868Z</time>
      </trkpt>
      <trkpt lat="43.78727" lon="1.51265">
        <ele>189.581037</ele>
        <time>2022-07-31T14:29:27.836Z</time>
      </trkpt>
      <trkpt lat="43.78716" lon="1.51253">
        <ele>189.816578</ele>
        <time>2022-07-31T14:29:30.859Z</time>
      </trkpt>
      <trkpt lat="43.78707" lon="1.51245">
        <ele>189.997322</ele>
        <time>2022-07-31T14:29:32.841Z</time>
      </trkpt>
      <trkpt lat="43.78698" lon="1.51235">
        <ele>190.184342</ele>
        <time>2022-07-31T14:29:34.857Z</time>
      </trkpt>
      <trkpt lat="43.7869" lon="1.51223">
        <ele>190.386309</ele>
        <time>2022-07-31T14:29:36.871Z</time>
      </trkpt>
      <trkpt lat="43.78682" lon="1.51209">
        <ele>190.593979</ele>
        <time>2022-07-31T14:29:38.830Z</time>
      </trkpt>
      <trkpt lat="43.78675" lon="1.51194">
        <ele>190.805727</ele>
        <time>2022-07-31T14:29:40.843Z</time>
      </trkpt>
      <trkpt lat="43.78669" lon="1.5118">
        <ele>191.00892</ele>
        <time>2022-07-31T14:29:42.849Z</time>
      </trkpt>
      <trkpt lat="43.78662" lon="1.51165">
        <ele>191.215175</ele>
        <time>2022-07-31T14:29:44.845Z</time>
      </trkpt>
      <trkpt lat="43.78656" lon="1.51151">
        <ele>191.422806</ele>
        <time>2022-07-31T14:29:46.842Z</time>
      </trkpt>
      <trkpt lat="43.7865" lon="1.51136">
        <ele>191.621324</ele>
        <time>2022-07-31T14:29:48.882Z</time>
      </trkpt>
      <trkpt lat="43.78643" lon="1.51123">
        <ele>191.818261</ele>
        <time>2022-07-31T14:29:50.850Z</time>
      </trkpt>
      <trkpt lat="43.78634" lon="1.51113">
        <ele>192.01298</ele>
        <time>2022-07-31T14:29:52.857Z</time>
      </trkpt>
      <trkpt lat="43.78624" lon="1.51105">
        <ele>192.209082</ele>
        <time>2022-07-31T14:29:54.867Z</time>
      </trkpt>
      <trkpt lat="43.78613" lon="1.51098">
        <ele>192.425277</ele>
        <time>2022-07-31T14:29:56.843Z</time>
      </trkpt>
      <trkpt lat="43.78602" lon="1.51092">
        <ele>192.72912</ele>
        <time>2022-07-31T14:29:58.840Z</time>
      </trkpt>
      <trkpt lat="43.78592" lon="1.51087">
        <ele>193.028444</ele>
        <time>2022-07-31T14:30:00.842Z</time>
      </trkpt>
      <trkpt lat="43.78582" lon="1.5108">
        <ele>193.327751</ele>
        <time>2022-07-31T14:30:02.847Z</time>
      </trkpt>
      <trkpt lat="43.78571" lon="1.51074">
        <ele>193.629839</ele>
        <time>2022-07-31T14:30:04.837Z</time>
      </trkpt>
      <trkpt lat="43.78561" lon="1.5107">
        <ele>193.907882</ele>
        <time>2022-07-31T14:30:06.836Z</time>
      </trkpt>
      <trkpt lat="43.7855" lon="1.51066">
        <ele>194.199514</ele>
        <time>2022-07-31T14:30:08.835Z</time>
      </trkpt>
      <trkpt lat="43.78539" lon="1.51063">
        <ele>194.491175</ele>
        <time>2022-07-31T14:30:10.848Z</time>
      </trkpt>
      <trkpt lat="43.78529" lon="1.51061">
        <ele>194.775199</ele>
        <time>2022-07-31T14:30:12.863Z</time>
      </trkpt>
      <trkpt lat="43.78518" lon="1.51058">
        <ele>195.056115</ele>
        <time>2022-07-31T14:30:14.848Z</time>
      </trkpt>
      <trkpt lat="43.78508" lon="1.51055">
        <ele>195.341835</ele>
        <time>2022-07-31T14:30:16.856Z</time>
      </trkpt>
      <trkpt lat="43.78497" lon="1.51051">
        <ele>195.630841</ele>
        <time>2022-07-31T14:30:18.842Z</time>
      </trkpt>
      <trkpt lat="43.78487" lon="1.51044">
        <ele>195.925343</ele>
        <time>2022-07-31T14:30:20.841Z</time>
      </trkpt>
      <trkpt lat="43.78478" lon="1.51037">
        <ele>196.19857</ele>
        <time>2022-07-31T14:30:22.868Z</time>
      </trkpt>
      <trkpt lat="43.7847" lon="1.51029">
        <ele>196.470321</ele>
        <time>2022-07-31T14:30:24.867Z</time>
      </trkpt>
      <trkpt lat="43.78462" lon="1.51019">
        <ele>196.747515</ele>
        <time>2022-07-31T14:30:26.840Z</time>
      </trkpt>
      <trkpt lat="43.78455" lon="1.51011">
        <ele>196.998113</ele>
        <time>2022-07-31T14:30:28.863Z</time>
      </trkpt>
      <trkpt lat="43.78447" lon="1.51003">
        <ele>197.306668</ele>
        <time>2022-07-31T14:30:30.847Z</time>
      </trkpt>
      <trkpt lat="43.78444" lon="1.5099">
        <ele>197.681472</ele>
        <time>2022-07-31T14:30:32.848Z</time>
      </trkpt>
      <trkpt lat="43.78439" lon="1.50977">
        <ele>198.097838</ele>
        <time>2022-07-31T14:30:35.841Z</time>
      </trkpt>
      <trkpt lat="43.78435" lon="1.50961">
        <ele>198.566344</ele>
        <time>2022-07-31T14:30:38.844Z</time>
      </trkpt>
      <trkpt lat="43.7843" lon="1.50946">
        <ele>199.024909</ele>
        <time>2022-07-31T14:30:40.844Z</time>
      </trkpt>
      <trkpt lat="43.78427" lon="1.50933">
        <ele>199.40087</ele>
        <time>2022-07-31T14:30:42.841Z</time>
      </trkpt>
      <trkpt lat="43.78423" lon="1.50917">
        <ele>199.880945</ele>
        <time>2022-07-31T14:30:45.839Z</time>
      </trkpt>
      <trkpt lat="43.78417" lon="1.50901">
        <ele>200.399827</ele>
        <time>2022-07-31T14:30:48.857Z</time>
      </trkpt>
      <trkpt lat="43.78413" lon="1.50888">
        <ele>200.790972</ele>
        <time>2022-07-31T14:30:50.851Z</time>
      </trkpt>
      <trkpt lat="43.78409" lon="1.50876">
        <ele>201.162583</ele>
        <time>2022-07-31T14:30:52.842Z</time>
      </trkpt>
      <trkpt lat="43.78405" lon="1.50863">
        <ele>201.57363</ele>
        <time>2022-07-31T14:30:54.856Z</time>
      </trkpt>
      <trkpt lat="43.784" lon="1.50851">
        <ele>201.956489</ele>
        <time>2022-07-31T14:30:56.850Z</time>
      </trkpt>
      <trkpt lat="43.78394" lon="1.50841">
        <ele>202.306988</ele>
        <time>2022-07-31T14:30:58.821Z</time>
      </trkpt>
      <trkpt lat="43.78386" lon="1.50829">
        <ele>202.772394</ele>
        <time>2022-07-31T14:31:01.857Z</time>
      </trkpt>
      <trkpt lat="43.78379" lon="1.5082">
        <ele>203.152014</ele>
        <time>2022-07-31T14:31:03.835Z</time>
      </trkpt>
      <trkpt lat="43.78371" lon="1.50809">
        <ele>203.593486</ele>
        <time>2022-07-31T14:31:06.858Z</time>
      </trkpt>
      <trkpt lat="43.78361" lon="1.50797">
        <ele>204.077751</ele>
        <time>2022-07-31T14:31:09.841Z</time>
      </trkpt>
      <trkpt lat="43.78353" lon="1.50787">
        <ele>204.620844</ele>
        <time>2022-07-31T14:31:11.840Z</time>
      </trkpt>
      <trkpt lat="43.78343" lon="1.50779">
        <ele>205.210359</ele>
        <time>2022-07-31T14:31:13.838Z</time>
      </trkpt>
      <trkpt lat="43.78334" lon="1.50772">
        <ele>205.725503</ele>
        <time>2022-07-31T14:31:15.838Z</time>
      </trkpt>
      <trkpt lat="43.78325" lon="1.50763">
        <ele>206.247525</ele>
        <time>2022-07-31T14:31:17.845Z</time>
      </trkpt>
      <trkpt lat="43.78318" lon="1.50754">
        <ele>206.717295</ele>
        <time>2022-07-31T14:31:19.834Z</time>
      </trkpt>
      <trkpt lat="43.78309" lon="1.50742">
        <ele>207.330275</ele>
        <time>2022-07-31T14:31:22.854Z</time>
      </trkpt>
      <trkpt lat="43.78299" lon="1.50731">
        <ele>207.953235</ele>
        <time>2022-07-31T14:31:25.837Z</time>
      </trkpt>
      <trkpt lat="43.78291" lon="1.50722">
        <ele>208.510156</ele>
        <time>2022-07-31T14:31:28.848Z</time>
      </trkpt>
      <trkpt lat="43.78282" lon="1.50713">
        <ele>209.021585</ele>
        <time>2022-07-31T14:31:31.853Z</time>
      </trkpt>
      <trkpt lat="43.78273" lon="1.50705">
        <ele>209.555391</ele>
        <time>2022-07-31T14:31:34.830Z</time>
      </trkpt>
      <trkpt lat="43.78265" lon="1.50695">
        <ele>210.113823</ele>
        <time>2022-07-31T14:31:37.831Z</time>
      </trkpt>
      <trkpt lat="43.78256" lon="1.50685">
        <ele>210.68028</ele>
        <time>2022-07-31T14:31:40.831Z</time>
      </trkpt>
      <trkpt lat="43.78248" lon="1.50675">
        <ele>211.204047</ele>
        <time>2022-07-31T14:31:42.855Z</time>
      </trkpt>
      <trkpt lat="43.78241" lon="1.50668">
        <ele>211.660656</ele>
        <time>2022-07-31T14:31:44.847Z</time>
      </trkpt>
      <trkpt lat="43.78233" lon="1.50661">
        <ele>212.113034</ele>
        <time>2022-07-31T14:31:46.836Z</time>
      </trkpt>
      <trkpt lat="43.78224" lon="1.50654">
        <ele>212.592562</ele>
        <time>2022-07-31T14:31:49.832Z</time>
      </trkpt>
      <trkpt lat="43.78214" lon="1.5065">
        <ele>213.037887</ele>
        <time>2022-07-31T14:31:52.835Z</time>
      </trkpt>
      <trkpt lat="43.78205" lon="1.50646">
        <ele>213.114618</ele>
        <time>2022-07-31T14:31:54.848Z</time>
      </trkpt>
      <trkpt lat="43.78193" lon="1.50642">
        <ele>213.220041</ele>
        <time>2022-07-31T14:31:57.855Z</time>
      </trkpt>
      <trkpt lat="43.78184" lon="1.50638">
        <ele>213.296773</ele>
        <time>2022-07-31T14:31:59.842Z</time>
      </trkpt>
      <trkpt lat="43.78176" lon="1.50635">
        <ele>213.372205</ele>
        <time>2022-07-31T14:32:01.833Z</time>
      </trkpt>
      <trkpt lat="43.78166" lon="1.50632">
        <ele>213.457703</ele>
        <time>2022-07-31T14:32:03.845Z</time>
      </trkpt>
      <trkpt lat="43.78156" lon="1.50631">
        <ele>213.537375</ele>
        <time>2022-07-31T14:32:05.828Z</time>
      </trkpt>
      <trkpt lat="43.78149" lon="1.50623">
        <ele>213.61688</ele>
        <time>2022-07-31T14:32:07.839Z</time>
      </trkpt>
      <trkpt lat="43.78143" lon="1.50612">
        <ele>213.701075</ele>
        <time>2022-07-31T14:32:09.817Z</time>
      </trkpt>
      <trkpt lat="43.78137" lon="1.506">
        <ele>213.787246</ele>
        <time>2022-07-31T14:32:11.845Z</time>
      </trkpt>
      <trkpt lat="43.78131" lon="1.5059">
        <ele>213.865092</ele>
        <time>2022-07-31T14:32:13.867Z</time>
      </trkpt>
      <trkpt lat="43.78125" lon="1.50574">
        <ele>213.974007</ele>
        <time>2022-07-31T14:32:16.833Z</time>
      </trkpt>
      <trkpt lat="43.78118" lon="1.5056">
        <ele>214.076424</ele>
        <time>2022-07-31T14:32:19.852Z</time>
      </trkpt>
      <trkpt lat="43.7811" lon="1.50546">
        <ele>214.179725</ele>
        <time>2022-07-31T14:32:22.826Z</time>
      </trkpt>
      <trkpt lat="43.78116" lon="1.50532">
        <ele>214.277177</ele>
        <time>2022-07-31T14:32:25.842Z</time>
      </trkpt>
      <trkpt lat="43.78123" lon="1.50525">
        <ele>214.352959</ele>
        <time>2022-07-31T14:32:27.822Z</time>
      </trkpt>
      <trkpt lat="43.78134" lon="1.50514">
        <ele>214.461355</ele>
        <time>2022-07-31T14:32:30.848Z</time>
      </trkpt>
      <trkpt lat="43.78142" lon="1.50505">
        <ele>214.350565</ele>
        <time>2022-07-31T14:32:32.847Z</time>
      </trkpt>
      <trkpt lat="43.78151" lon="1.50493">
        <ele>213.598292</ele>
        <time>2022-07-31T14:32:34.896Z</time>
      </trkpt>
      <trkpt lat="43.78161" lon="1.50479">
        <ele>212.713534</ele>
        <time>2022-07-31T14:32:36.830Z</time>
      </trkpt>
      <trkpt lat="43.78172" lon="1.50463">
        <ele>211.726644</ele>
        <time>2022-07-31T14:32:38.878Z</time>
      </trkpt>
      <trkpt lat="43.78181" lon="1.50442">
        <ele>210.610755</ele>
        <time>2022-07-31T14:32:40.860Z</time>
      </trkpt>
      <trkpt lat="43.78185" lon="1.50429">
        <ele>210.013258</ele>
        <time>2022-07-31T14:32:41.842Z</time>
      </trkpt>
      <trkpt lat="43.78188" lon="1.50416">
        <ele>209.415483</ele>
        <time>2022-07-31T14:32:42.833Z</time>
      </trkpt>
      <trkpt lat="43.78191" lon="1.50403">
        <ele>208.786223</ele>
        <time>2022-07-31T14:32:43.849Z</time>
      </trkpt>
      <trkpt lat="43.78194" lon="1.5039">
        <ele>208.159451</ele>
        <time>2022-07-31T14:32:44.815Z</time>
      </trkpt>
      <trkpt lat="43.78199" lon="1.50377">
        <ele>207.525716</ele>
        <time>2022-07-31T14:32:45.824Z</time>
      </trkpt>
      <trkpt lat="43.78204" lon="1.50364">
        <ele>206.894836</ele>
        <time>2022-07-31T14:32:46.830Z</time>
      </trkpt>
      <trkpt lat="43.78209" lon="1.50352">
        <ele>206.275558</ele>
        <time>2022-07-31T14:32:47.886Z</time>
      </trkpt>
      <trkpt lat="43.78214" lon="1.5034">
        <ele>205.670899</ele>
        <time>2022-07-31T14:32:48.835Z</time>
      </trkpt>
      <trkpt lat="43.78218" lon="1.50329">
        <ele>205.0847</ele>
        <time>2022-07-31T14:32:49.853Z</time>
      </trkpt>
      <trkpt lat="43.78224" lon="1.50318">
        <ele>204.493577</ele>
        <time>2022-07-31T14:32:50.828Z</time>
      </trkpt>
      <trkpt lat="43.78228" lon="1.50307">
        <ele>203.918151</ele>
        <time>2022-07-31T14:32:51.843Z</time>
      </trkpt>
      <trkpt lat="43.78234" lon="1.50285">
        <ele>203.399523</ele>
        <time>2022-07-31T14:32:53.851Z</time>
      </trkpt>
      <trkpt lat="43.78235" lon="1.50264">
        <ele>203.297957</ele>
        <time>2022-07-31T14:32:55.839Z</time>
      </trkpt>
      <trkpt lat="43.78235" lon="1.50243">
        <ele>203.204232</ele>
        <time>2022-07-31T14:32:57.856Z</time>
      </trkpt>
      <trkpt lat="43.78238" lon="1.50225">
        <ele>203.118192</ele>
        <time>2022-07-31T14:32:59.837Z</time>
      </trkpt>
      <trkpt lat="43.78244" lon="1.5021">
        <ele>203.036761</ele>
        <time>2022-07-31T14:33:01.841Z</time>
      </trkpt>
      <trkpt lat="43.78251" lon="1.50195">
        <ele>202.956972</ele>
        <time>2022-07-31T14:33:03.847Z</time>
      </trkpt>
      <trkpt lat="43.78258" lon="1.50183">
        <ele>202.881765</ele>
        <time>2022-07-31T14:33:05.823Z</time>
      </trkpt>
      <trkpt lat="43.78266" lon="1.5017">
        <ele>202.800589</ele>
        <time>2022-07-31T14:33:07.817Z</time>
      </trkpt>
      <trkpt lat="43.78274" lon="1.50158">
        <ele>202.727633</ele>
        <time>2022-07-31T14:33:09.836Z</time>
      </trkpt>
      <trkpt lat="43.78281" lon="1.50146">
        <ele>202.654903</ele>
        <time>2022-07-31T14:33:11.854Z</time>
      </trkpt>
      <trkpt lat="43.78288" lon="1.50133">
        <ele>202.582004</ele>
        <time>2022-07-31T14:33:13.852Z</time>
      </trkpt>
      <trkpt lat="43.78294" lon="1.5012">
        <ele>202.509468</ele>
        <time>2022-07-31T14:33:15.852Z</time>
      </trkpt>
      <trkpt lat="43.783" lon="1.50108">
        <ele>202.436952</ele>
        <time>2022-07-31T14:33:17.836Z</time>
      </trkpt>
      <trkpt lat="43.78306" lon="1.50094">
        <ele>202.363909</ele>
        <time>2022-07-31T14:33:19.852Z</time>
      </trkpt>
      <trkpt lat="43.78313" lon="1.50081">
        <ele>202.266338</ele>
        <time>2022-07-31T14:33:21.841Z</time>
      </trkpt>
      <trkpt lat="43.78319" lon="1.50067">
        <ele>201.960147</ele>
        <time>2022-07-31T14:33:23.839Z</time>
      </trkpt>
      <trkpt lat="43.78326" lon="1.50053">
        <ele>201.648359</ele>
        <time>2022-07-31T14:33:25.855Z</time>
      </trkpt>
      <trkpt lat="43.78333" lon="1.50039">
        <ele>201.338103</ele>
        <time>2022-07-31T14:33:27.842Z</time>
      </trkpt>
      <trkpt lat="43.78339" lon="1.50025">
        <ele>201.029443</ele>
        <time>2022-07-31T14:33:29.855Z</time>
      </trkpt>
      <trkpt lat="43.78347" lon="1.50011">
        <ele>200.710272</ele>
        <time>2022-07-31T14:33:31.834Z</time>
      </trkpt>
      <trkpt lat="43.78354" lon="1.49998">
        <ele>200.394154</ele>
        <time>2022-07-31T14:33:33.843Z</time>
      </trkpt>
      <trkpt lat="43.78362" lon="1.49984">
        <ele>200.076517</ele>
        <time>2022-07-31T14:33:35.843Z</time>
      </trkpt>
      <trkpt lat="43.78369" lon="1.4997">
        <ele>199.758821</ele>
        <time>2022-07-31T14:33:37.837Z</time>
      </trkpt>
      <trkpt lat="43.78377" lon="1.49957">
        <ele>199.439842</ele>
        <time>2022-07-31T14:33:39.833Z</time>
      </trkpt>
      <trkpt lat="43.78386" lon="1.49945">
        <ele>199.127409</ele>
        <time>2022-07-31T14:33:41.852Z</time>
      </trkpt>
      <trkpt lat="43.78395" lon="1.49933">
        <ele>198.815214</ele>
        <time>2022-07-31T14:33:43.866Z</time>
      </trkpt>
      <trkpt lat="43.78403" lon="1.49922">
        <ele>198.507207</ele>
        <time>2022-07-31T14:33:45.835Z</time>
      </trkpt>
      <trkpt lat="43.78411" lon="1.49909">
        <ele>198.199206</ele>
        <time>2022-07-31T14:33:47.821Z</time>
      </trkpt>
      <trkpt lat="43.7842" lon="1.49898">
        <ele>197.893002</ele>
        <time>2022-07-31T14:33:49.833Z</time>
      </trkpt>
      <trkpt lat="43.78429" lon="1.49886">
        <ele>197.638721</ele>
        <time>2022-07-31T14:33:51.829Z</time>
      </trkpt>
      <trkpt lat="43.78437" lon="1.49874">
        <ele>197.484448</ele>
        <time>2022-07-31T14:33:53.833Z</time>
      </trkpt>
      <trkpt lat="43.78445" lon="1.49861">
        <ele>197.331345</ele>
        <time>2022-07-31T14:33:55.832Z</time>
      </trkpt>
      <trkpt lat="43.78453" lon="1.49849">
        <ele>197.181267</ele>
        <time>2022-07-31T14:33:57.831Z</time>
      </trkpt>
      <trkpt lat="43.78462" lon="1.49837">
        <ele>197.027252</ele>
        <time>2022-07-31T14:33:59.826Z</time>
      </trkpt>
      <trkpt lat="43.78471" lon="1.49825">
        <ele>196.866797</ele>
        <time>2022-07-31T14:34:01.849Z</time>
      </trkpt>
      <trkpt lat="43.7848" lon="1.49812">
        <ele>196.700723</ele>
        <time>2022-07-31T14:34:03.840Z</time>
      </trkpt>
      <trkpt lat="43.78488" lon="1.49798">
        <ele>196.53299</ele>
        <time>2022-07-31T14:34:05.847Z</time>
      </trkpt>
      <trkpt lat="43.78497" lon="1.49785">
        <ele>196.370664</ele>
        <time>2022-07-31T14:34:07.844Z</time>
      </trkpt>
      <trkpt lat="43.78504" lon="1.49772">
        <ele>196.22826</ele>
        <time>2022-07-31T14:34:09.855Z</time>
      </trkpt>
      <trkpt lat="43.78512" lon="1.49756">
        <ele>196.048026</ele>
        <time>2022-07-31T14:34:11.842Z</time>
      </trkpt>
      <trkpt lat="43.7852" lon="1.49743">
        <ele>195.888435</ele>
        <time>2022-07-31T14:34:13.845Z</time>
      </trkpt>
      <trkpt lat="43.78526" lon="1.49729">
        <ele>195.739302</ele>
        <time>2022-07-31T14:34:15.869Z</time>
      </trkpt>
      <trkpt lat="43.78532" lon="1.49715">
        <ele>195.592735</ele>
        <time>2022-07-31T14:34:17.838Z</time>
      </trkpt>
      <trkpt lat="43.78539" lon="1.49702">
        <ele>195.444727</ele>
        <time>2022-07-31T14:34:19.851Z</time>
      </trkpt>
      <trkpt lat="43.78546" lon="1.4969">
        <ele>195.423531</ele>
        <time>2022-07-31T14:34:21.845Z</time>
      </trkpt>
      <trkpt lat="43.78553" lon="1.49679">
        <ele>195.434148</ele>
        <time>2022-07-31T14:34:23.853Z</time>
      </trkpt>
      <trkpt lat="43.7856" lon="1.49668">
        <ele>195.443804</ele>
        <time>2022-07-31T14:34:25.826Z</time>
      </trkpt>
      <trkpt lat="43.78568" lon="1.49657">
        <ele>195.454908</ele>
        <time>2022-07-31T14:34:27.848Z</time>
      </trkpt>
      <trkpt lat="43.78576" lon="1.49645">
        <ele>195.46659</ele>
        <time>2022-07-31T14:34:29.853Z</time>
      </trkpt>
      <trkpt lat="43.78583" lon="1.49631">
        <ele>195.47823</ele>
        <time>2022-07-31T14:34:31.874Z</time>
      </trkpt>
      <trkpt lat="43.78586" lon="1.49615">
        <ele>195.489879</ele>
        <time>2022-07-31T14:34:33.851Z</time>
      </trkpt>
      <trkpt lat="43.78585" lon="1.49599">
        <ele>195.50072</ele>
        <time>2022-07-31T14:34:35.836Z</time>
      </trkpt>
      <trkpt lat="43.78584" lon="1.49583">
        <ele>195.512238</ele>
        <time>2022-07-31T14:34:37.857Z</time>
      </trkpt>
      <trkpt lat="43.78583" lon="1.49566">
        <ele>195.523706</ele>
        <time>2022-07-31T14:34:39.845Z</time>
      </trkpt>
      <trkpt lat="43.78581" lon="1.4955">
        <ele>195.535168</ele>
        <time>2022-07-31T14:34:41.836Z</time>
      </trkpt>
      <trkpt lat="43.78579" lon="1.49534">
        <ele>195.546753</ele>
        <time>2022-07-31T14:34:43.885Z</time>
      </trkpt>
      <trkpt lat="43.78575" lon="1.49519">
        <ele>195.558054</ele>
        <time>2022-07-31T14:34:45.839Z</time>
      </trkpt>
      <trkpt lat="43.78572" lon="1.49503">
        <ele>195.569537</ele>
        <time>2022-07-31T14:34:47.858Z</time>
      </trkpt>
      <trkpt lat="43.78568" lon="1.49488">
        <ele>195.580949</ele>
        <time>2022-07-31T14:34:49.838Z</time>
      </trkpt>
      <trkpt lat="43.78564" lon="1.49473">
        <ele>195.656782</ele>
        <time>2022-07-31T14:34:51.840Z</time>
      </trkpt>
      <trkpt lat="43.7856" lon="1.49458">
        <ele>195.90656</ele>
        <time>2022-07-31T14:34:53.845Z</time>
      </trkpt>
      <trkpt lat="43.78556" lon="1.49443">
        <ele>196.149</ele>
        <time>2022-07-31T14:34:55.849Z</time>
      </trkpt>
      <trkpt lat="43.78551" lon="1.4943">
        <ele>196.383825</ele>
        <time>2022-07-31T14:34:57.838Z</time>
      </trkpt>
      <trkpt lat="43.78547" lon="1.49416">
        <ele>196.619983</ele>
        <time>2022-07-31T14:34:59.857Z</time>
      </trkpt>
      <trkpt lat="43.78542" lon="1.49403">
        <ele>196.859479</ele>
        <time>2022-07-31T14:35:01.847Z</time>
      </trkpt>
      <trkpt lat="43.78536" lon="1.49389">
        <ele>197.104043</ele>
        <time>2022-07-31T14:35:03.844Z</time>
      </trkpt>
      <trkpt lat="43.78531" lon="1.49376">
        <ele>197.346645</ele>
        <time>2022-07-31T14:35:05.842Z</time>
      </trkpt>
      <trkpt lat="43.78525" lon="1.49363">
        <ele>197.584957</ele>
        <time>2022-07-31T14:35:07.846Z</time>
      </trkpt>
      <trkpt lat="43.78519" lon="1.4935">
        <ele>197.824842</ele>
        <time>2022-07-31T14:35:09.852Z</time>
      </trkpt>
      <trkpt lat="43.78514" lon="1.49337">
        <ele>198.062263</ele>
        <time>2022-07-31T14:35:11.849Z</time>
      </trkpt>
      <trkpt lat="43.78508" lon="1.49325">
        <ele>198.293751</ele>
        <time>2022-07-31T14:35:13.845Z</time>
      </trkpt>
      <trkpt lat="43.78502" lon="1.49313">
        <ele>198.521169</ele>
        <time>2022-07-31T14:35:15.836Z</time>
      </trkpt>
      <trkpt lat="43.78496" lon="1.49301">
        <ele>198.747406</ele>
        <time>2022-07-31T14:35:17.840Z</time>
      </trkpt>
      <trkpt lat="43.78491" lon="1.4929">
        <ele>198.963311</ele>
        <time>2022-07-31T14:35:19.843Z</time>
      </trkpt>
      <trkpt lat="43.78484" lon="1.49275">
        <ele>199.242585</ele>
        <time>2022-07-31T14:35:22.865Z</time>
      </trkpt>
      <trkpt lat="43.7848" lon="1.49263">
        <ele>199.439475</ele>
        <time>2022-07-31T14:35:24.846Z</time>
      </trkpt>
      <trkpt lat="43.78477" lon="1.49252">
        <ele>199.480307</ele>
        <time>2022-07-31T14:35:26.844Z</time>
      </trkpt>
      <trkpt lat="43.78473" lon="1.49238">
        <ele>199.415229</ele>
        <time>2022-07-31T14:35:28.848Z</time>
      </trkpt>
      <trkpt lat="43.78469" lon="1.49225">
        <ele>199.353201</ele>
        <time>2022-07-31T14:35:30.848Z</time>
      </trkpt>
      <trkpt lat="43.78464" lon="1.49212">
        <ele>199.285834</ele>
        <time>2022-07-31T14:35:32.854Z</time>
      </trkpt>
      <trkpt lat="43.78457" lon="1.49198">
        <ele>199.212141</ele>
        <time>2022-07-31T14:35:34.855Z</time>
      </trkpt>
      <trkpt lat="43.78451" lon="1.49184">
        <ele>199.137695</ele>
        <time>2022-07-31T14:35:36.834Z</time>
      </trkpt>
      <trkpt lat="43.78444" lon="1.49169">
        <ele>199.059063</ele>
        <time>2022-07-31T14:35:38.860Z</time>
      </trkpt>
      <trkpt lat="43.78437" lon="1.49156">
        <ele>198.988029</ele>
        <time>2022-07-31T14:35:40.862Z</time>
      </trkpt>
      <trkpt lat="43.78429" lon="1.49143">
        <ele>198.909107</ele>
        <time>2022-07-31T14:35:42.833Z</time>
      </trkpt>
      <trkpt lat="43.78421" lon="1.4913">
        <ele>198.833477</ele>
        <time>2022-07-31T14:35:44.850Z</time>
      </trkpt>
      <trkpt lat="43.78411" lon="1.49118">
        <ele>198.756385</ele>
        <time>2022-07-31T14:35:46.846Z</time>
      </trkpt>
      <trkpt lat="43.78401" lon="1.49107">
        <ele>198.678403</ele>
        <time>2022-07-31T14:35:48.847Z</time>
      </trkpt>
      <trkpt lat="43.78391" lon="1.49097">
        <ele>198.5994</ele>
        <time>2022-07-31T14:35:50.856Z</time>
      </trkpt>
      <trkpt lat="43.7838" lon="1.49088">
        <ele>198.520927</ele>
        <time>2022-07-31T14:35:52.858Z</time>
      </trkpt>
      <trkpt lat="43.7837" lon="1.4908">
        <ele>198.448278</ele>
        <time>2022-07-31T14:35:54.850Z</time>
      </trkpt>
      <trkpt lat="43.78362" lon="1.4907">
        <ele>198.502595</ele>
        <time>2022-07-31T14:35:56.834Z</time>
      </trkpt>
      <trkpt lat="43.78365" lon="1.49053">
        <ele>198.869316</ele>
        <time>2022-07-31T14:35:59.838Z</time>
      </trkpt>
      <trkpt lat="43.78371" lon="1.49042">
        <ele>199.165984</ele>
        <time>2022-07-31T14:36:01.857Z</time>
      </trkpt>
      <trkpt lat="43.78378" lon="1.4903">
        <ele>199.467388</ele>
        <time>2022-07-31T14:36:03.859Z</time>
      </trkpt>
      <trkpt lat="43.78383" lon="1.49019">
        <ele>199.742006</ele>
        <time>2022-07-31T14:36:05.837Z</time>
      </trkpt>
      <trkpt lat="43.78388" lon="1.49006">
        <ele>200.052023</ele>
        <time>2022-07-31T14:36:07.827Z</time>
      </trkpt>
      <trkpt lat="43.78393" lon="1.48992">
        <ele>200.365165</ele>
        <time>2022-07-31T14:36:09.826Z</time>
      </trkpt>
      <trkpt lat="43.78397" lon="1.48977">
        <ele>200.6914</ele>
        <time>2022-07-31T14:36:11.868Z</time>
      </trkpt>
      <trkpt lat="43.784" lon="1.48963">
        <ele>201.007037</ele>
        <time>2022-07-31T14:36:13.836Z</time>
      </trkpt>
      <trkpt lat="43.78404" lon="1.48949">
        <ele>201.307155</ele>
        <time>2022-07-31T14:36:15.845Z</time>
      </trkpt>
      <trkpt lat="43.78407" lon="1.48936">
        <ele>201.59679</ele>
        <time>2022-07-31T14:36:17.832Z</time>
      </trkpt>
      <trkpt lat="43.7841" lon="1.48923">
        <ele>201.878548</ele>
        <time>2022-07-31T14:36:19.850Z</time>
      </trkpt>
      <trkpt lat="43.78413" lon="1.4891">
        <ele>202.158195</ele>
        <time>2022-07-31T14:36:21.841Z</time>
      </trkpt>
      <trkpt lat="43.78416" lon="1.48897">
        <ele>202.430101</ele>
        <time>2022-07-31T14:36:23.843Z</time>
      </trkpt>
      <trkpt lat="43.7842" lon="1.48885">
        <ele>202.69729</ele>
        <time>2022-07-31T14:36:25.839Z</time>
      </trkpt>
      <trkpt lat="43.78423" lon="1.48874">
        <ele>202.955752</ele>
        <time>2022-07-31T14:36:27.830Z</time>
      </trkpt>
      <trkpt lat="43.78426" lon="1.48862">
        <ele>203.220851</ele>
        <time>2022-07-31T14:36:29.842Z</time>
      </trkpt>
      <trkpt lat="43.7843" lon="1.4885">
        <ele>203.486243</ele>
        <time>2022-07-31T14:36:31.852Z</time>
      </trkpt>
      <trkpt lat="43.78434" lon="1.48839">
        <ele>203.89637</ele>
        <time>2022-07-31T14:36:33.839Z</time>
      </trkpt>
      <trkpt lat="43.78444" lon="1.48827">
        <ele>204.553089</ele>
        <time>2022-07-31T14:36:36.843Z</time>
      </trkpt>
      <trkpt lat="43.78457" lon="1.48827">
        <ele>205.179268</ele>
        <time>2022-07-31T14:36:39.863Z</time>
      </trkpt>
      <trkpt lat="43.78469" lon="1.48831">
        <ele>205.778492</ele>
        <time>2022-07-31T14:36:42.835Z</time>
      </trkpt>
      <trkpt lat="43.78479" lon="1.48835">
        <ele>206.350983</ele>
        <time>2022-07-31T14:36:45.833Z</time>
      </trkpt>
      <trkpt lat="43.78491" lon="1.48841">
        <ele>206.967054</ele>
        <time>2022-07-31T14:36:48.843Z</time>
      </trkpt>
      <trkpt lat="43.78502" lon="1.48847">
        <ele>207.538854</ele>
        <time>2022-07-31T14:36:51.848Z</time>
      </trkpt>
      <trkpt lat="43.78511" lon="1.48853">
        <ele>208.041847</ele>
        <time>2022-07-31T14:36:54.857Z</time>
      </trkpt>
      <trkpt lat="43.7852" lon="1.48859">
        <ele>208.57356</ele>
        <time>2022-07-31T14:36:57.862Z</time>
      </trkpt>
      <trkpt lat="43.78529" lon="1.48868">
        <ele>209.13775</ele>
        <time>2022-07-31T14:37:00.875Z</time>
      </trkpt>
      <trkpt lat="43.78538" lon="1.48878">
        <ele>209.71364</ele>
        <time>2022-07-31T14:37:03.861Z</time>
      </trkpt>
      <trkpt lat="43.78549" lon="1.48889">
        <ele>210.388473</ele>
        <time>2022-07-31T14:37:06.846Z</time>
      </trkpt>
      <trkpt lat="43.78558" lon="1.48894">
        <ele>210.876572</ele>
        <time>2022-07-31T14:37:08.847Z</time>
      </trkpt>
      <trkpt lat="43.78569" lon="1.48894">
        <ele>211.387436</ele>
        <time>2022-07-31T14:37:10.849Z</time>
      </trkpt>
      <trkpt lat="43.78579" lon="1.4889">
        <ele>211.912556</ele>
        <time>2022-07-31T14:37:12.846Z</time>
      </trkpt>
      <trkpt lat="43.78589" lon="1.48886">
        <ele>212.426021</ele>
        <time>2022-07-31T14:37:14.843Z</time>
      </trkpt>
      <trkpt lat="43.78599" lon="1.48883">
        <ele>212.782236</ele>
        <time>2022-07-31T14:37:16.854Z</time>
      </trkpt>
      <trkpt lat="43.78608" lon="1.48879">
        <ele>213.068653</ele>
        <time>2022-07-31T14:37:18.846Z</time>
      </trkpt>
      <trkpt lat="43.78618" lon="1.48875">
        <ele>213.36457</ele>
        <time>2022-07-31T14:37:20.834Z</time>
      </trkpt>
      <trkpt lat="43.7863" lon="1.48869">
        <ele>213.737773</ele>
        <time>2022-07-31T14:37:23.839Z</time>
      </trkpt>
      <trkpt lat="43.78639" lon="1.48863">
        <ele>214.044146</ele>
        <time>2022-07-31T14:37:25.850Z</time>
      </trkpt>
      <trkpt lat="43.78649" lon="1.48859">
        <ele>214.354306</ele>
        <time>2022-07-31T14:37:28.840Z</time>
      </trkpt>
      <trkpt lat="43.78658" lon="1.48866">
        <ele>214.65789</ele>
        <time>2022-07-31T14:37:32.846Z</time>
      </trkpt>
      <trkpt lat="43.78665" lon="1.4888">
        <ele>215.026506</ele>
        <time>2022-07-31T14:37:35.841Z</time>
      </trkpt>
      <trkpt lat="43.78671" lon="1.48891">
        <ele>215.305455</ele>
        <time>2022-07-31T14:37:37.833Z</time>
      </trkpt>
      <trkpt lat="43.78677" lon="1.48901">
        <ele>215.57934</ele>
        <time>2022-07-31T14:37:39.842Z</time>
      </trkpt>
      <trkpt lat="43.78688" lon="1.48902">
        <ele>215.923698</ele>
        <time>2022-07-31T14:37:42.864Z</time>
      </trkpt>
      <trkpt lat="43.78697" lon="1.48893">
        <ele>216.226034</ele>
        <time>2022-07-31T14:37:44.844Z</time>
      </trkpt>
      <trkpt lat="43.78705" lon="1.48885">
        <ele>216.539164</ele>
        <time>2022-07-31T14:37:46.857Z</time>
      </trkpt>
      <trkpt lat="43.78715" lon="1.48876">
        <ele>216.863173</ele>
        <time>2022-07-31T14:37:48.875Z</time>
      </trkpt>
      <trkpt lat="43.78724" lon="1.48867">
        <ele>217.194528</ele>
        <time>2022-07-31T14:37:50.868Z</time>
      </trkpt>
      <trkpt lat="43.78733" lon="1.48858">
        <ele>217.525796</ele>
        <time>2022-07-31T14:37:52.849Z</time>
      </trkpt>
      <trkpt lat="43.78742" lon="1.48849">
        <ele>217.839342</ele>
        <time>2022-07-31T14:37:54.873Z</time>
      </trkpt>
      <trkpt lat="43.78752" lon="1.48842">
        <ele>217.776548</ele>
        <time>2022-07-31T14:37:56.857Z</time>
      </trkpt>
      <trkpt lat="43.78763" lon="1.48848">
        <ele>217.715527</ele>
        <time>2022-07-31T14:37:58.847Z</time>
      </trkpt>
      <trkpt lat="43.78771" lon="1.4886">
        <ele>217.650794</ele>
        <time>2022-07-31T14:38:00.857Z</time>
      </trkpt>
      <trkpt lat="43.78779" lon="1.48872">
        <ele>217.58543</ele>
        <time>2022-07-31T14:38:02.836Z</time>
      </trkpt>
      <trkpt lat="43.78787" lon="1.48884">
        <ele>217.520583</ele>
        <time>2022-07-31T14:38:04.840Z</time>
      </trkpt>
      <trkpt lat="43.78795" lon="1.48896">
        <ele>217.455185</ele>
        <time>2022-07-31T14:38:06.836Z</time>
      </trkpt>
      <trkpt lat="43.78803" lon="1.48908">
        <ele>217.390452</ele>
        <time>2022-07-31T14:38:08.863Z</time>
      </trkpt>
      <trkpt lat="43.78812" lon="1.4892">
        <ele>217.324197</ele>
        <time>2022-07-31T14:38:10.855Z</time>
      </trkpt>
      <trkpt lat="43.7882" lon="1.48932">
        <ele>217.256805</ele>
        <time>2022-07-31T14:38:12.852Z</time>
      </trkpt>
      <trkpt lat="43.78829" lon="1.48944">
        <ele>217.19036</ele>
        <time>2022-07-31T14:38:14.849Z</time>
      </trkpt>
      <trkpt lat="43.78838" lon="1.48954">
        <ele>217.125769</ele>
        <time>2022-07-31T14:38:16.852Z</time>
      </trkpt>
      <trkpt lat="43.78849" lon="1.48959">
        <ele>217.062908</ele>
        <time>2022-07-31T14:38:18.851Z</time>
      </trkpt>
      <trkpt lat="43.7886" lon="1.48962">
        <ele>217.000378</ele>
        <time>2022-07-31T14:38:20.857Z</time>
      </trkpt>
      <trkpt lat="43.78871" lon="1.48965">
        <ele>216.938675</ele>
        <time>2022-07-31T14:38:22.837Z</time>
      </trkpt>
      <trkpt lat="43.78883" lon="1.48968">
        <ele>216.874211</ele>
        <time>2022-07-31T14:38:24.852Z</time>
      </trkpt>
      <trkpt lat="43.78895" lon="1.48971">
        <ele>216.638836</ele>
        <time>2022-07-31T14:38:26.846Z</time>
      </trkpt>
      <trkpt lat="43.78906" lon="1.48975">
        <ele>216.355077</ele>
        <time>2022-07-31T14:38:28.842Z</time>
      </trkpt>
      <trkpt lat="43.78918" lon="1.48978">
        <ele>216.067286</ele>
        <time>2022-07-31T14:38:30.853Z</time>
      </trkpt>
      <trkpt lat="43.7893" lon="1.4898">
        <ele>215.778879</ele>
        <time>2022-07-31T14:38:32.857Z</time>
      </trkpt>
      <trkpt lat="43.78942" lon="1.48983">
        <ele>215.490472</ele>
        <time>2022-07-31T14:38:34.862Z</time>
      </trkpt>
      <trkpt lat="43.78954" lon="1.48985">
        <ele>215.200189</ele>
        <time>2022-07-31T14:38:36.845Z</time>
      </trkpt>
      <trkpt lat="43.78966" lon="1.48988">
        <ele>214.906513</ele>
        <time>2022-07-31T14:38:38.844Z</time>
      </trkpt>
      <trkpt lat="43.78978" lon="1.48991">
        <ele>214.606629</ele>
        <time>2022-07-31T14:38:40.855Z</time>
      </trkpt>
      <trkpt lat="43.7899" lon="1.48994">
        <ele>214.313806</ele>
        <time>2022-07-31T14:38:42.855Z</time>
      </trkpt>
      <trkpt lat="43.79003" lon="1.48997">
        <ele>214.01895</ele>
        <time>2022-07-31T14:38:44.848Z</time>
      </trkpt>
      <trkpt lat="43.79014" lon="1.49001">
        <ele>213.727447</ele>
        <time>2022-07-31T14:38:46.828Z</time>
      </trkpt>
      <trkpt lat="43.79026" lon="1.49004">
        <ele>213.442011</ele>
        <time>2022-07-31T14:38:48.846Z</time>
      </trkpt>
      <trkpt lat="43.79038" lon="1.49005">
        <ele>213.16523</ele>
        <time>2022-07-31T14:38:50.854Z</time>
      </trkpt>
      <trkpt lat="43.79049" lon="1.49007">
        <ele>212.888606</ele>
        <time>2022-07-31T14:38:52.856Z</time>
      </trkpt>
      <trkpt lat="43.79061" lon="1.49007">
        <ele>212.610643</ele>
        <time>2022-07-31T14:38:54.858Z</time>
      </trkpt>
      <trkpt lat="43.79072" lon="1.49007">
        <ele>212.287172</ele>
        <time>2022-07-31T14:38:56.853Z</time>
      </trkpt>
      <trkpt lat="43.7908" lon="1.48999">
        <ele>212.006466</ele>
        <time>2022-07-31T14:38:58.841Z</time>
      </trkpt>
      <trkpt lat="43.79081" lon="1.48984">
        <ele>211.706618</ele>
        <time>2022-07-31T14:39:00.844Z</time>
      </trkpt>
      <trkpt lat="43.79084" lon="1.4897">
        <ele>211.41458</ele>
        <time>2022-07-31T14:39:02.829Z</time>
      </trkpt>
      <trkpt lat="43.79085" lon="1.48956">
        <ele>211.123114</ele>
        <time>2022-07-31T14:39:04.830Z</time>
      </trkpt>
      <trkpt lat="43.79086" lon="1.48943">
        <ele>210.834772</ele>
        <time>2022-07-31T14:39:06.857Z</time>
      </trkpt>
      <trkpt lat="43.79087" lon="1.4893">
        <ele>210.567308</ele>
        <time>2022-07-31T14:39:08.853Z</time>
      </trkpt>
      <trkpt lat="43.79089" lon="1.48917">
        <ele>210.29874</ele>
        <time>2022-07-31T14:39:10.829Z</time>
      </trkpt>
      <trkpt lat="43.79092" lon="1.48904">
        <ele>210.025601</ele>
        <time>2022-07-31T14:39:12.853Z</time>
      </trkpt>
      <trkpt lat="43.79099" lon="1.48891">
        <ele>209.691475</ele>
        <time>2022-07-31T14:39:15.837Z</time>
      </trkpt>
      <trkpt lat="43.79108" lon="1.48892">
        <ele>209.41029</ele>
        <time>2022-07-31T14:39:17.843Z</time>
      </trkpt>
      <trkpt lat="43.7912" lon="1.48892">
        <ele>209.07457</ele>
        <time>2022-07-31T14:39:19.845Z</time>
      </trkpt>
      <trkpt lat="43.79134" lon="1.48891">
        <ele>208.678365</ele>
        <time>2022-07-31T14:39:21.838Z</time>
      </trkpt>
      <trkpt lat="43.79149" lon="1.48892">
        <ele>208.23649</ele>
        <time>2022-07-31T14:39:23.827Z</time>
      </trkpt>
      <trkpt lat="43.79161" lon="1.48886">
        <ele>207.869724</ele>
        <time>2022-07-31T14:39:25.843Z</time>
      </trkpt>
      <trkpt lat="43.79168" lon="1.48873">
        <ele>207.536653</ele>
        <time>2022-07-31T14:39:27.849Z</time>
      </trkpt>
      <trkpt lat="43.7917" lon="1.48857">
        <ele>207.437109</ele>
        <time>2022-07-31T14:39:29.846Z</time>
      </trkpt>
      <trkpt lat="43.79171" lon="1.48841">
        <ele>207.519547</ele>
        <time>2022-07-31T14:39:31.845Z</time>
      </trkpt>
      <trkpt lat="43.79172" lon="1.48826">
        <ele>207.597994</ele>
        <time>2022-07-31T14:39:33.843Z</time>
      </trkpt>
      <trkpt lat="43.79174" lon="1.48811">
        <ele>207.677479</ele>
        <time>2022-07-31T14:39:35.850Z</time>
      </trkpt>
      <trkpt lat="43.79176" lon="1.48797">
        <ele>207.747804</ele>
        <time>2022-07-31T14:39:37.838Z</time>
      </trkpt>
      <trkpt lat="43.79178" lon="1.48785">
        <ele>207.815816</ele>
        <time>2022-07-31T14:39:39.845Z</time>
      </trkpt>
      <trkpt lat="43.79182" lon="1.48772">
        <ele>207.884378</ele>
        <time>2022-07-31T14:39:41.856Z</time>
      </trkpt>
      <trkpt lat="43.79186" lon="1.4876">
        <ele>207.952703</ele>
        <time>2022-07-31T14:39:43.835Z</time>
      </trkpt>
      <trkpt lat="43.79191" lon="1.48749">
        <ele>208.022263</ele>
        <time>2022-07-31T14:39:45.857Z</time>
      </trkpt>
      <trkpt lat="43.79196" lon="1.48737">
        <ele>208.091022</ele>
        <time>2022-07-31T14:39:47.835Z</time>
      </trkpt>
      <trkpt lat="43.792" lon="1.48725">
        <ele>208.162625</ele>
        <time>2022-07-31T14:39:49.854Z</time>
      </trkpt>
      <trkpt lat="43.79205" lon="1.48712">
        <ele>208.237197</ele>
        <time>2022-07-31T14:39:51.857Z</time>
      </trkpt>
      <trkpt lat="43.7921" lon="1.487">
        <ele>208.311517</ele>
        <time>2022-07-31T14:39:53.858Z</time>
      </trkpt>
      <trkpt lat="43.79215" lon="1.48687">
        <ele>208.385385</ele>
        <time>2022-07-31T14:39:55.824Z</time>
      </trkpt>
      <trkpt lat="43.79221" lon="1.48675">
        <ele>208.458618</ele>
        <time>2022-07-31T14:39:57.855Z</time>
      </trkpt>
      <trkpt lat="43.79225" lon="1.48663">
        <ele>208.530221</ele>
        <time>2022-07-31T14:39:59.839Z</time>
      </trkpt>
      <trkpt lat="43.79229" lon="1.4865">
        <ele>208.602237</ele>
        <time>2022-07-31T14:40:01.835Z</time>
      </trkpt>
      <trkpt lat="43.79233" lon="1.48637">
        <ele>208.673575</ele>
        <time>2022-07-31T14:40:03.849Z</time>
      </trkpt>
      <trkpt lat="43.79238" lon="1.48625">
        <ele>208.832399</ele>
        <time>2022-07-31T14:40:05.856Z</time>
      </trkpt>
      <trkpt lat="43.79243" lon="1.48613">
        <ele>208.997096</ele>
        <time>2022-07-31T14:40:07.838Z</time>
      </trkpt>
      <trkpt lat="43.79249" lon="1.48602">
        <ele>209.161793</ele>
        <time>2022-07-31T14:40:09.831Z</time>
      </trkpt>
      <trkpt lat="43.79255" lon="1.4859">
        <ele>209.3266</ele>
        <time>2022-07-31T14:40:11.901Z</time>
      </trkpt>
      <trkpt lat="43.79261" lon="1.48579">
        <ele>209.492299</ele>
        <time>2022-07-31T14:40:13.856Z</time>
      </trkpt>
      <trkpt lat="43.79268" lon="1.4857">
        <ele>209.65439</ele>
        <time>2022-07-31T14:40:15.854Z</time>
      </trkpt>
      <trkpt lat="43.79274" lon="1.48559">
        <ele>209.807688</ele>
        <time>2022-07-31T14:40:17.824Z</time>
      </trkpt>
      <trkpt lat="43.79277" lon="1.48547">
        <ele>209.956846</ele>
        <time>2022-07-31T14:40:19.853Z</time>
      </trkpt>
      <trkpt lat="43.79283" lon="1.48536">
        <ele>210.10934</ele>
        <time>2022-07-31T14:40:21.839Z</time>
      </trkpt>
      <trkpt lat="43.79291" lon="1.48522">
        <ele>210.320892</ele>
        <time>2022-07-31T14:40:24.846Z</time>
      </trkpt>
      <trkpt lat="43.79298" lon="1.48509">
        <ele>210.522711</ele>
        <time>2022-07-31T14:40:27.864Z</time>
      </trkpt>
      <trkpt lat="43.79304" lon="1.48494">
        <ele>210.719942</ele>
        <time>2022-07-31T14:40:30.836Z</time>
      </trkpt>
      <trkpt lat="43.79309" lon="1.48479">
        <ele>210.912566</ele>
        <time>2022-07-31T14:40:33.862Z</time>
      </trkpt>
      <trkpt lat="43.79313" lon="1.48463">
        <ele>211.1141</ele>
        <time>2022-07-31T14:40:36.844Z</time>
      </trkpt>
      <trkpt lat="43.79318" lon="1.48446">
        <ele>211.324527</ele>
        <time>2022-07-31T14:40:39.839Z</time>
      </trkpt>
      <trkpt lat="43.79322" lon="1.48431">
        <ele>211.515022</ele>
        <time>2022-07-31T14:40:42.868Z</time>
      </trkpt>
      <trkpt lat="43.79323" lon="1.48414">
        <ele>211.730487</ele>
        <time>2022-07-31T14:40:45.859Z</time>
      </trkpt>
      <trkpt lat="43.79323" lon="1.48396">
        <ele>211.978489</ele>
        <time>2022-07-31T14:40:48.864Z</time>
      </trkpt>
      <trkpt lat="43.7932" lon="1.48378">
        <ele>212.227438</ele>
        <time>2022-07-31T14:40:51.845Z</time>
      </trkpt>
      <trkpt lat="43.79318" lon="1.4836">
        <ele>212.474212</ele>
        <time>2022-07-31T14:40:54.861Z</time>
      </trkpt>
      <trkpt lat="43.79315" lon="1.48342">
        <ele>212.719268</ele>
        <time>2022-07-31T14:40:57.831Z</time>
      </trkpt>
      <trkpt lat="43.79313" lon="1.48328">
        <ele>212.919901</ele>
        <time>2022-07-31T14:41:00.853Z</time>
      </trkpt>
      <trkpt lat="43.79309" lon="1.48313">
        <ele>213.127609</ele>
        <time>2022-07-31T14:41:52.849Z</time>
      </trkpt>
      <trkpt lat="43.79305" lon="1.48301">
        <ele>213.313194</ele>
        <time>2022-07-31T14:41:57.834Z</time>
      </trkpt>
      <trkpt lat="43.79295" lon="1.483">
        <ele>213.495346</ele>
        <time>2022-07-31T14:42:01.840Z</time>
      </trkpt>
      <trkpt lat="43.79302" lon="1.48292">
        <ele>213.667672</ele>
        <time>2022-07-31T14:42:07.839Z</time>
      </trkpt>
      <trkpt lat="43.79315" lon="1.48292">
        <ele>213.904367</ele>
        <time>2022-07-31T14:42:10.841Z</time>
      </trkpt>
      <trkpt lat="43.79324" lon="1.48293">
        <ele>214.077032</ele>
        <time>2022-07-31T14:42:12.856Z</time>
      </trkpt>
      <trkpt lat="43.79333" lon="1.48292">
        <ele>214.259185</ele>
        <time>2022-07-31T14:42:14.850Z</time>
      </trkpt>
      <trkpt lat="43.79344" lon="1.48292">
        <ele>214.461871</ele>
        <time>2022-07-31T14:42:16.842Z</time>
      </trkpt>
      <trkpt lat="43.79355" lon="1.48291">
        <ele>214.668511</ele>
        <time>2022-07-31T14:42:18.836Z</time>
      </trkpt>
      <trkpt lat="43.79366" lon="1.4829">
        <ele>214.879039</ele>
        <time>2022-07-31T14:42:20.839Z</time>
      </trkpt>
      <trkpt lat="43.79378" lon="1.4829">
        <ele>215.043708</ele>
        <time>2022-07-31T14:42:22.838Z</time>
      </trkpt>
      <trkpt lat="43.79389" lon="1.4829">
        <ele>215.170533</ele>
        <time>2022-07-31T14:42:24.827Z</time>
      </trkpt>
      <trkpt lat="43.79401" lon="1.48289">
        <ele>215.304232</ele>
        <time>2022-07-31T14:42:26.837Z</time>
      </trkpt>
      <trkpt lat="43.79412" lon="1.48286">
        <ele>215.42588</ele>
        <time>2022-07-31T14:42:28.844Z</time>
      </trkpt>
      <trkpt lat="43.79423" lon="1.48283">
        <ele>215.54917</ele>
        <time>2022-07-31T14:42:30.841Z</time>
      </trkpt>
      <trkpt lat="43.79434" lon="1.4828">
        <ele>215.676352</ele>
        <time>2022-07-31T14:42:32.843Z</time>
      </trkpt>
      <trkpt lat="43.79445" lon="1.48277">
        <ele>215.803374</ele>
        <time>2022-07-31T14:42:34.847Z</time>
      </trkpt>
      <trkpt lat="43.79456" lon="1.48275">
        <ele>215.928443</ele>
        <time>2022-07-31T14:42:36.836Z</time>
      </trkpt>
      <trkpt lat="43.79466" lon="1.48268">
        <ele>216.043225</ele>
        <time>2022-07-31T14:42:38.842Z</time>
      </trkpt>
      <trkpt lat="43.79468" lon="1.48252">
        <ele>216.175657</ele>
        <time>2022-07-31T14:42:41.848Z</time>
      </trkpt>
      <trkpt lat="43.79466" lon="1.4824">
        <ele>216.278686</ele>
        <time>2022-07-31T14:42:43.860Z</time>
      </trkpt>
      <trkpt lat="43.79463" lon="1.48227">
        <ele>216.387142</ele>
        <time>2022-07-31T14:42:45.844Z</time>
      </trkpt>
      <trkpt lat="43.79458" lon="1.48216">
        <ele>216.497123</ele>
        <time>2022-07-31T14:42:47.856Z</time>
      </trkpt>
      <trkpt lat="43.79454" lon="1.48203">
        <ele>216.607809</ele>
        <time>2022-07-31T14:42:49.842Z</time>
      </trkpt>
      <trkpt lat="43.7945" lon="1.4819">
        <ele>216.717717</ele>
        <time>2022-07-31T14:42:51.845Z</time>
      </trkpt>
      <trkpt lat="43.79447" lon="1.48177">
        <ele>216.828717</ele>
        <time>2022-07-31T14:42:53.851Z</time>
      </trkpt>
      <trkpt lat="43.79443" lon="1.48164">
        <ele>216.941245</ele>
        <time>2022-07-31T14:42:55.846Z</time>
      </trkpt>
      <trkpt lat="43.79439" lon="1.48151">
        <ele>216.971228</ele>
        <time>2022-07-31T14:42:57.855Z</time>
      </trkpt>
      <trkpt lat="43.79435" lon="1.48138">
        <ele>216.961113</ele>
        <time>2022-07-31T14:42:59.838Z</time>
      </trkpt>
      <trkpt lat="43.79431" lon="1.48124">
        <ele>216.95039</ele>
        <time>2022-07-31T14:43:01.836Z</time>
      </trkpt>
      <trkpt lat="43.79425" lon="1.4811">
        <ele>216.939385</ele>
        <time>2022-07-31T14:43:03.865Z</time>
      </trkpt>
      <trkpt lat="43.7942" lon="1.48096">
        <ele>216.928209</ele>
        <time>2022-07-31T14:43:05.838Z</time>
      </trkpt>
      <trkpt lat="43.79418" lon="1.4808">
        <ele>216.917236</ele>
        <time>2022-07-31T14:43:07.857Z</time>
      </trkpt>
      <trkpt lat="43.79421" lon="1.48067">
        <ele>216.907157</ele>
        <time>2022-07-31T14:43:09.853Z</time>
      </trkpt>
      <trkpt lat="43.79432" lon="1.48062">
        <ele>216.896075</ele>
        <time>2022-07-31T14:43:11.837Z</time>
      </trkpt>
      <trkpt lat="43.79444" lon="1.48059">
        <ele>216.884902</ele>
        <time>2022-07-31T14:43:13.855Z</time>
      </trkpt>
      <trkpt lat="43.79455" lon="1.48056">
        <ele>216.873431</ele>
        <time>2022-07-31T14:43:15.836Z</time>
      </trkpt>
      <trkpt lat="43.79466" lon="1.48054">
        <ele>216.862683</ele>
        <time>2022-07-31T14:43:17.874Z</time>
      </trkpt>
      <trkpt lat="43.79468" lon="1.48042">
        <ele>216.853928</ele>
        <time>2022-07-31T14:43:19.834Z</time>
      </trkpt>
      <trkpt lat="43.79463" lon="1.48031">
        <ele>216.844556</ele>
        <time>2022-07-31T14:43:21.848Z</time>
      </trkpt>
      <trkpt lat="43.79457" lon="1.48019">
        <ele>216.83465</ele>
        <time>2022-07-31T14:43:23.851Z</time>
      </trkpt>
      <trkpt lat="43.79452" lon="1.48006">
        <ele>216.824518</ele>
        <time>2022-07-31T14:43:25.836Z</time>
      </trkpt>
      <trkpt lat="43.79448" lon="1.47994">
        <ele>216.814493</ele>
        <time>2022-07-31T14:43:27.847Z</time>
      </trkpt>
      <trkpt lat="43.79443" lon="1.47981">
        <ele>216.804548</ele>
        <time>2022-07-31T14:43:29.836Z</time>
      </trkpt>
      <trkpt lat="43.79438" lon="1.47968">
        <ele>216.916515</ele>
        <time>2022-07-31T14:43:31.838Z</time>
      </trkpt>
      <trkpt lat="43.79433" lon="1.47956">
        <ele>217.038578</ele>
        <time>2022-07-31T14:43:33.845Z</time>
      </trkpt>
      <trkpt lat="43.79428" lon="1.47943">
        <ele>217.166287</ele>
        <time>2022-07-31T14:43:35.855Z</time>
      </trkpt>
      <trkpt lat="43.79423" lon="1.47931">
        <ele>217.286474</ele>
        <time>2022-07-31T14:43:37.837Z</time>
      </trkpt>
      <trkpt lat="43.79418" lon="1.47918">
        <ele>217.408733</ele>
        <time>2022-07-31T14:43:39.825Z</time>
      </trkpt>
      <trkpt lat="43.79413" lon="1.47905">
        <ele>217.535219</ele>
        <time>2022-07-31T14:43:41.842Z</time>
      </trkpt>
      <trkpt lat="43.79408" lon="1.47892">
        <ele>217.665386</ele>
        <time>2022-07-31T14:43:43.838Z</time>
      </trkpt>
      <trkpt lat="43.79403" lon="1.47879">
        <ele>217.791457</ele>
        <time>2022-07-31T14:43:45.856Z</time>
      </trkpt>
      <trkpt lat="43.79397" lon="1.47866">
        <ele>217.921708</ele>
        <time>2022-07-31T14:43:47.896Z</time>
      </trkpt>
      <trkpt lat="43.79392" lon="1.47853">
        <ele>218.049847</ele>
        <time>2022-07-31T14:43:49.830Z</time>
      </trkpt>
      <trkpt lat="43.79387" lon="1.4784">
        <ele>218.173064</ele>
        <time>2022-07-31T14:43:51.855Z</time>
      </trkpt>
      <trkpt lat="43.79382" lon="1.47827">
        <ele>218.297204</ele>
        <time>2022-07-31T14:43:53.856Z</time>
      </trkpt>
      <trkpt lat="43.79377" lon="1.47815">
        <ele>218.421169</ele>
        <time>2022-07-31T14:43:55.841Z</time>
      </trkpt>
      <trkpt lat="43.79372" lon="1.47802">
        <ele>218.546261</ele>
        <time>2022-07-31T14:43:57.839Z</time>
      </trkpt>
      <trkpt lat="43.79367" lon="1.4779">
        <ele>218.667106</ele>
        <time>2022-07-31T14:43:59.846Z</time>
      </trkpt>
      <trkpt lat="43.79363" lon="1.47777">
        <ele>218.785543</ele>
        <time>2022-07-31T14:44:01.843Z</time>
      </trkpt>
      <trkpt lat="43.79358" lon="1.47766">
        <ele>218.901993</ele>
        <time>2022-07-31T14:44:03.855Z</time>
      </trkpt>
      <trkpt lat="43.79353" lon="1.47753">
        <ele>218.959999</ele>
        <time>2022-07-31T14:44:05.874Z</time>
      </trkpt>
      <trkpt lat="43.79347" lon="1.47741">
        <ele>218.987371</ele>
        <time>2022-07-31T14:44:07.854Z</time>
      </trkpt>
      <trkpt lat="43.79342" lon="1.47728">
        <ele>219.014961</ele>
        <time>2022-07-31T14:44:09.863Z</time>
      </trkpt>
      <trkpt lat="43.79337" lon="1.47716">
        <ele>219.04255</ele>
        <time>2022-07-31T14:44:11.850Z</time>
      </trkpt>
      <trkpt lat="43.79332" lon="1.47703">
        <ele>219.070057</ele>
        <time>2022-07-31T14:44:13.863Z</time>
      </trkpt>
      <trkpt lat="43.79329" lon="1.47689">
        <ele>219.097022</ele>
        <time>2022-07-31T14:44:15.838Z</time>
      </trkpt>
      <trkpt lat="43.79325" lon="1.47676">
        <ele>219.124341</ele>
        <time>2022-07-31T14:44:17.828Z</time>
      </trkpt>
      <trkpt lat="43.79322" lon="1.47662">
        <ele>219.15166</ele>
        <time>2022-07-31T14:44:19.846Z</time>
      </trkpt>
      <trkpt lat="43.79318" lon="1.47649">
        <ele>219.17871</ele>
        <time>2022-07-31T14:44:21.851Z</time>
      </trkpt>
      <trkpt lat="43.79314" lon="1.47635">
        <ele>219.20622</ele>
        <time>2022-07-31T14:44:23.825Z</time>
      </trkpt>
      <trkpt lat="43.7931" lon="1.47622">
        <ele>219.234352</ele>
        <time>2022-07-31T14:44:25.843Z</time>
      </trkpt>
      <trkpt lat="43.79305" lon="1.47608">
        <ele>219.262253</ele>
        <time>2022-07-31T14:44:27.837Z</time>
      </trkpt>
      <trkpt lat="43.79301" lon="1.47595">
        <ele>219.289814</ele>
        <time>2022-07-31T14:44:29.837Z</time>
      </trkpt>
      <trkpt lat="43.79296" lon="1.47583">
        <ele>219.316635</ele>
        <time>2022-07-31T14:44:31.844Z</time>
      </trkpt>
      <trkpt lat="43.79292" lon="1.4757">
        <ele>219.343517</ele>
        <time>2022-07-31T14:44:33.865Z</time>
      </trkpt>
      <trkpt lat="43.79288" lon="1.47555">
        <ele>219.373057</ele>
        <time>2022-07-31T14:44:36.856Z</time>
      </trkpt>
      <trkpt lat="43.79298" lon="1.47547">
        <ele>219.403181</ele>
        <time>2022-07-31T14:44:41.855Z</time>
      </trkpt>
      <trkpt lat="43.79307" lon="1.47545">
        <ele>219.339598</ele>
        <time>2022-07-31T14:44:43.852Z</time>
      </trkpt>
      <trkpt lat="43.79318" lon="1.47541">
        <ele>219.182354</ele>
        <time>2022-07-31T14:44:45.852Z</time>
      </trkpt>
      <trkpt lat="43.79328" lon="1.47536">
        <ele>219.020819</ele>
        <time>2022-07-31T14:44:47.838Z</time>
      </trkpt>
      <trkpt lat="43.79339" lon="1.47529">
        <ele>218.847547</ele>
        <time>2022-07-31T14:44:49.828Z</time>
      </trkpt>
      <trkpt lat="43.79351" lon="1.47522">
        <ele>218.667908</ele>
        <time>2022-07-31T14:44:51.847Z</time>
      </trkpt>
      <trkpt lat="43.79363" lon="1.47515">
        <ele>218.48353</ele>
        <time>2022-07-31T14:44:53.856Z</time>
      </trkpt>
      <trkpt lat="43.79374" lon="1.47506">
        <ele>218.296693</ele>
        <time>2022-07-31T14:44:55.829Z</time>
      </trkpt>
      <trkpt lat="43.79385" lon="1.47496">
        <ele>218.108666</ele>
        <time>2022-07-31T14:44:57.841Z</time>
      </trkpt>
      <trkpt lat="43.79396" lon="1.47487">
        <ele>217.925545</ele>
        <time>2022-07-31T14:44:59.860Z</time>
      </trkpt>
      <trkpt lat="43.79407" lon="1.47479">
        <ele>217.745945</ele>
        <time>2022-07-31T14:45:01.847Z</time>
      </trkpt>
      <trkpt lat="43.79417" lon="1.4747">
        <ele>217.572332</ele>
        <time>2022-07-31T14:45:03.847Z</time>
      </trkpt>
      <trkpt lat="43.79428" lon="1.47461">
        <ele>217.393966</ele>
        <time>2022-07-31T14:45:05.850Z</time>
      </trkpt>
      <trkpt lat="43.79439" lon="1.47453">
        <ele>217.212066</ele>
        <time>2022-07-31T14:45:07.843Z</time>
      </trkpt>
      <trkpt lat="43.7945" lon="1.47447">
        <ele>217.040309</ele>
        <time>2022-07-31T14:45:09.835Z</time>
      </trkpt>
      <trkpt lat="43.79462" lon="1.47443">
        <ele>216.867813</ele>
        <time>2022-07-31T14:45:11.841Z</time>
      </trkpt>
      <trkpt lat="43.79474" lon="1.47441">
        <ele>216.828425</ele>
        <time>2022-07-31T14:45:13.856Z</time>
      </trkpt>
      <trkpt lat="43.79487" lon="1.4744">
        <ele>216.819893</ele>
        <time>2022-07-31T14:45:15.841Z</time>
      </trkpt>
      <trkpt lat="43.79499" lon="1.47439">
        <ele>216.811373</ele>
        <time>2022-07-31T14:45:17.844Z</time>
      </trkpt>
      <trkpt lat="43.79511" lon="1.47437">
        <ele>216.802831</ele>
        <time>2022-07-31T14:45:19.838Z</time>
      </trkpt>
      <trkpt lat="43.79524" lon="1.47435">
        <ele>216.79428</ele>
        <time>2022-07-31T14:45:21.851Z</time>
      </trkpt>
      <trkpt lat="43.79536" lon="1.47433">
        <ele>216.785847</ele>
        <time>2022-07-31T14:45:23.848Z</time>
      </trkpt>
      <trkpt lat="43.79548" lon="1.4743">
        <ele>216.777257</ele>
        <time>2022-07-31T14:45:25.850Z</time>
      </trkpt>
      <trkpt lat="43.7956" lon="1.47428">
        <ele>216.769061</ele>
        <time>2022-07-31T14:45:27.833Z</time>
      </trkpt>
      <trkpt lat="43.79571" lon="1.47426">
        <ele>216.761464</ele>
        <time>2022-07-31T14:45:29.847Z</time>
      </trkpt>
      <trkpt lat="43.79582" lon="1.47423">
        <ele>216.753685</ele>
        <time>2022-07-31T14:45:31.841Z</time>
      </trkpt>
      <trkpt lat="43.79594" lon="1.4742">
        <ele>216.745251</ele>
        <time>2022-07-31T14:45:33.846Z</time>
      </trkpt>
      <trkpt lat="43.79605" lon="1.47416">
        <ele>216.737306</ele>
        <time>2022-07-31T14:45:35.854Z</time>
      </trkpt>
      <trkpt lat="43.79616" lon="1.47413">
        <ele>216.729686</ele>
        <time>2022-07-31T14:45:37.860Z</time>
      </trkpt>
      <trkpt lat="43.79626" lon="1.47408">
        <ele>216.722399</ele>
        <time>2022-07-31T14:45:39.852Z</time>
      </trkpt>
      <trkpt lat="43.79635" lon="1.47405">
        <ele>216.715794</ele>
        <time>2022-07-31T14:45:41.849Z</time>
      </trkpt>
      <trkpt lat="43.79643" lon="1.47401">
        <ele>216.730794</ele>
        <time>2022-07-31T14:45:43.871Z</time>
      </trkpt>
      <trkpt lat="43.79646" lon="1.47386">
        <ele>216.831327</ele>
        <time>2022-07-31T14:45:46.863Z</time>
      </trkpt>
      <trkpt lat="43.79644" lon="1.47369">
        <ele>216.940676</ele>
        <time>2022-07-31T14:45:49.843Z</time>
      </trkpt>
      <trkpt lat="43.79641" lon="1.47351">
        <ele>217.061399</ele>
        <time>2022-07-31T14:45:52.851Z</time>
      </trkpt>
      <trkpt lat="43.79638" lon="1.47339">
        <ele>217.149194</ele>
        <time>2022-07-31T14:45:54.833Z</time>
      </trkpt>
      <trkpt lat="43.79635" lon="1.47325">
        <ele>217.239896</ele>
        <time>2022-07-31T14:45:56.854Z</time>
      </trkpt>
      <trkpt lat="43.79633" lon="1.47311">
        <ele>217.333368</ele>
        <time>2022-07-31T14:45:58.852Z</time>
      </trkpt>
      <trkpt lat="43.79631" lon="1.47297">
        <ele>217.428938</ele>
        <time>2022-07-31T14:46:00.851Z</time>
      </trkpt>
      <trkpt lat="43.79628" lon="1.47282">
        <ele>217.526193</ele>
        <time>2022-07-31T14:46:02.855Z</time>
      </trkpt>
      <trkpt lat="43.79626" lon="1.47268">
        <ele>217.625151</ele>
        <time>2022-07-31T14:46:04.850Z</time>
      </trkpt>
      <trkpt lat="43.79624" lon="1.47253">
        <ele>217.723063</ele>
        <time>2022-07-31T14:46:06.844Z</time>
      </trkpt>
      <trkpt lat="43.79621" lon="1.47239">
        <ele>217.81886</ele>
        <time>2022-07-31T14:46:08.845Z</time>
      </trkpt>
      <trkpt lat="43.79619" lon="1.47224">
        <ele>217.914003</ele>
        <time>2022-07-31T14:46:10.843Z</time>
      </trkpt>
      <trkpt lat="43.79617" lon="1.4721">
        <ele>218.010664</ele>
        <time>2022-07-31T14:46:12.839Z</time>
      </trkpt>
      <trkpt lat="43.79615" lon="1.47196">
        <ele>218.105865</ele>
        <time>2022-07-31T14:46:14.845Z</time>
      </trkpt>
      <trkpt lat="43.79612" lon="1.47182">
        <ele>218.199787</ele>
        <time>2022-07-31T14:46:16.831Z</time>
      </trkpt>
      <trkpt lat="43.79611" lon="1.47167">
        <ele>218.294002</ele>
        <time>2022-07-31T14:46:18.844Z</time>
      </trkpt>
      <trkpt lat="43.79608" lon="1.47153">
        <ele>218.338662</ele>
        <time>2022-07-31T14:46:20.824Z</time>
      </trkpt>
      <trkpt lat="43.79606" lon="1.4714">
        <ele>218.342264</ele>
        <time>2022-07-31T14:46:22.834Z</time>
      </trkpt>
      <trkpt lat="43.79604" lon="1.47126">
        <ele>218.34585</ele>
        <time>2022-07-31T14:46:24.851Z</time>
      </trkpt>
      <trkpt lat="43.79605" lon="1.47113">
        <ele>218.349134</ele>
        <time>2022-07-31T14:46:26.852Z</time>
      </trkpt>
      <trkpt lat="43.79613" lon="1.47105">
        <ele>218.352453</ele>
        <time>2022-07-31T14:46:28.860Z</time>
      </trkpt>
      <trkpt lat="43.79621" lon="1.47097">
        <ele>218.356046</ele>
        <time>2022-07-31T14:46:30.842Z</time>
      </trkpt>
      <trkpt lat="43.7963" lon="1.47088">
        <ele>218.359855</ele>
        <time>2022-07-31T14:46:32.844Z</time>
      </trkpt>
      <trkpt lat="43.79639" lon="1.47078">
        <ele>218.363785</ele>
        <time>2022-07-31T14:46:34.842Z</time>
      </trkpt>
      <trkpt lat="43.79647" lon="1.47069">
        <ele>218.3677</ele>
        <time>2022-07-31T14:46:36.844Z</time>
      </trkpt>
      <trkpt lat="43.79656" lon="1.4706">
        <ele>218.371586</ele>
        <time>2022-07-31T14:46:38.856Z</time>
      </trkpt>
      <trkpt lat="43.79665" lon="1.4705">
        <ele>218.375485</ele>
        <time>2022-07-31T14:46:40.837Z</time>
      </trkpt>
      <trkpt lat="43.79674" lon="1.4704">
        <ele>218.379456</ele>
        <time>2022-07-31T14:46:42.853Z</time>
      </trkpt>
      <trkpt lat="43.79683" lon="1.47031">
        <ele>218.383424</ele>
        <time>2022-07-31T14:46:44.843Z</time>
      </trkpt>
      <trkpt lat="43.79692" lon="1.47023">
        <ele>218.387421</ele>
        <time>2022-07-31T14:46:46.865Z</time>
      </trkpt>
      <trkpt lat="43.79702" lon="1.47013">
        <ele>218.391462</ele>
        <time>2022-07-31T14:46:48.841Z</time>
      </trkpt>
      <trkpt lat="43.79711" lon="1.47004">
        <ele>218.395443</ele>
        <time>2022-07-31T14:46:50.843Z</time>
      </trkpt>
      <trkpt lat="43.7972" lon="1.46996">
        <ele>218.399397</ele>
        <time>2022-07-31T14:46:52.860Z</time>
      </trkpt>
      <trkpt lat="43.79729" lon="1.46987">
        <ele>218.413743</ele>
        <time>2022-07-31T14:46:54.840Z</time>
      </trkpt>
      <trkpt lat="43.79737" lon="1.46978">
        <ele>218.430227</ele>
        <time>2022-07-31T14:46:56.837Z</time>
      </trkpt>
      <trkpt lat="43.79747" lon="1.46972">
        <ele>218.446303</ele>
        <time>2022-07-31T14:46:58.832Z</time>
      </trkpt>
      <trkpt lat="43.79756" lon="1.46965">
        <ele>218.46193</ele>
        <time>2022-07-31T14:47:00.837Z</time>
      </trkpt>
      <trkpt lat="43.79762" lon="1.46954">
        <ele>218.477332</ele>
        <time>2022-07-31T14:47:02.845Z</time>
      </trkpt>
      <trkpt lat="43.79771" lon="1.46946">
        <ele>218.493187</ele>
        <time>2022-07-31T14:47:04.847Z</time>
      </trkpt>
      <trkpt lat="43.7978" lon="1.46938">
        <ele>218.509483</ele>
        <time>2022-07-31T14:47:06.844Z</time>
      </trkpt>
      <trkpt lat="43.79788" lon="1.46929">
        <ele>218.525842</ele>
        <time>2022-07-31T14:47:08.837Z</time>
      </trkpt>
      <trkpt lat="43.79797" lon="1.46921">
        <ele>218.541635</ele>
        <time>2022-07-31T14:47:10.821Z</time>
      </trkpt>
      <trkpt lat="43.79805" lon="1.46913">
        <ele>218.556615</ele>
        <time>2022-07-31T14:47:12.847Z</time>
      </trkpt>
      <trkpt lat="43.79814" lon="1.46905">
        <ele>218.5731</ele>
        <time>2022-07-31T14:47:14.833Z</time>
      </trkpt>
      <trkpt lat="43.79823" lon="1.46896">
        <ele>218.589648</ele>
        <time>2022-07-31T14:47:16.844Z</time>
      </trkpt>
      <trkpt lat="43.79831" lon="1.46888">
        <ele>218.605013</ele>
        <time>2022-07-31T14:47:18.840Z</time>
      </trkpt>
      <trkpt lat="43.79829" lon="1.46872">
        <ele>218.622551</ele>
        <time>2022-07-31T14:47:21.852Z</time>
      </trkpt>
      <trkpt lat="43.79824" lon="1.46861">
        <ele>218.637154</ele>
        <time>2022-07-31T14:47:23.836Z</time>
      </trkpt>
      <trkpt lat="43.79818" lon="1.4685">
        <ele>218.652564</ele>
        <time>2022-07-31T14:47:25.842Z</time>
      </trkpt>
      <trkpt lat="43.79811" lon="1.46839">
        <ele>218.668529</ele>
        <time>2022-07-31T14:47:27.853Z</time>
      </trkpt>
      <trkpt lat="43.79805" lon="1.46827">
        <ele>218.769489</ele>
        <time>2022-07-31T14:47:29.848Z</time>
      </trkpt>
      <trkpt lat="43.79798" lon="1.46815">
        <ele>218.933298</ele>
        <time>2022-07-31T14:47:31.847Z</time>
      </trkpt>
      <trkpt lat="43.79792" lon="1.46803">
        <ele>219.093412</ele>
        <time>2022-07-31T14:47:33.840Z</time>
      </trkpt>
      <trkpt lat="43.79785" lon="1.46791">
        <ele>219.256977</ele>
        <time>2022-07-31T14:47:35.846Z</time>
      </trkpt>
      <trkpt lat="43.79778" lon="1.46779">
        <ele>219.420623</ele>
        <time>2022-07-31T14:47:37.839Z</time>
      </trkpt>
      <trkpt lat="43.79771" lon="1.46768">
        <ele>219.584406</ele>
        <time>2022-07-31T14:47:39.851Z</time>
      </trkpt>
      <trkpt lat="43.79764" lon="1.46755">
        <ele>219.750742</ele>
        <time>2022-07-31T14:47:41.836Z</time>
      </trkpt>
      <trkpt lat="43.79757" lon="1.46743">
        <ele>219.918722</ele>
        <time>2022-07-31T14:47:43.847Z</time>
      </trkpt>
      <trkpt lat="43.7975" lon="1.4673">
        <ele>220.08929</ele>
        <time>2022-07-31T14:47:45.881Z</time>
      </trkpt>
      <trkpt lat="43.79743" lon="1.46718">
        <ele>220.259095</ele>
        <time>2022-07-31T14:47:47.845Z</time>
      </trkpt>
      <trkpt lat="43.79737" lon="1.46706">
        <ele>220.421831</ele>
        <time>2022-07-31T14:47:49.843Z</time>
      </trkpt>
      <trkpt lat="43.7973" lon="1.46694">
        <ele>220.58109</ele>
        <time>2022-07-31T14:47:51.857Z</time>
      </trkpt>
      <trkpt lat="43.79724" lon="1.46683">
        <ele>220.737797</ele>
        <time>2022-07-31T14:47:53.836Z</time>
      </trkpt>
      <trkpt lat="43.79718" lon="1.46672">
        <ele>220.890048</ele>
        <time>2022-07-31T14:47:55.864Z</time>
      </trkpt>
      <trkpt lat="43.79712" lon="1.46662">
        <ele>221.026573</ele>
        <time>2022-07-31T14:47:57.860Z</time>
      </trkpt>
      <trkpt lat="43.79703" lon="1.4665">
        <ele>221.204447</ele>
        <time>2022-07-31T14:48:00.845Z</time>
      </trkpt>
      <trkpt lat="43.79657" lon="1.4667">
        <ele>163.4</ele>
      </trkpt>
      <trkpt lat="43.7961" lon="1.46671">
        <ele>164.2</ele>
      </trkpt>
      <trkpt lat="43.79412" lon="1.46745">
        <ele>166</ele>
      </trkpt>
      <trkpt lat="43.79369" lon="1.46611">
        <ele>168.7</ele>
      </trkpt>
      <trkpt lat="43.79419" lon="1.46573">
        <ele>168.3</ele>
      </trkpt>
      <trkpt lat="43.7963" lon="1.46511">
        <ele>165.9</ele>
      </trkpt>
      <trkpt lat="43.79578" lon="1.46427">
        <ele>169.5</ele>
      </trkpt>
      <trkpt lat="43.79594" lon="1.46388">
        <ele>171</ele>
      </trkpt>
      <trkpt lat="43.79596" lon="1.46352">
        <ele>171.3</ele>
      </trkpt>
      <trkpt lat="43.79615" lon="1.46317">
        <ele>171.9</ele>
      </trkpt>
      <trkpt lat="43.79614" lon="1.46259">
        <ele>172.6</ele>
      </trkpt>
      <trkpt lat="43.79601" lon="1.46204">
        <ele>173</ele>
      </trkpt>
      <trkpt lat="43.79535" lon="1.46101">
        <ele>174.7</ele>
      </trkpt>
      <trkpt lat="43.7958" lon="1.46018">
        <ele>175</ele>
      </trkpt>
      <trkpt lat="43.79599" lon="1.46007">
        <ele>174.4</ele>
      </trkpt>
      <trkpt lat="43.79671" lon="1.45941">
        <ele>174.1</ele>
      </trkpt>
      <trkpt lat="43.79684" lon="1.45962">
        <ele>173.4</ele>
      </trkpt>
      <trkpt lat="43.79757" lon="1.46037">
        <ele>169.9</ele>
      </trkpt>
      <trkpt lat="43.79773" lon="1.46032">
        <ele>169.9</ele>
      </trkpt>
      <trkpt lat="43.79779" lon="1.46016">
        <ele>170.4</ele>
      </trkpt>
      <trkpt lat="43.79784" lon="1.46019">
        <ele>170.1</ele>
      </trkpt>
      <trkpt lat="43.79784" lon="1.46032">
        <ele>169.6</ele>
      </trkpt>
      <trkpt lat="43.79795" lon="1.46039">
        <ele>169</ele>
      </trkpt>
      <trkpt lat="43.79825" lon="1.46087">
        <ele>165.5</ele>
      </trkpt>
      <trkpt lat="43.79877" lon="1.46201">
        <ele>161.4</ele>
      </trkpt>
      <trkpt lat="43.79921" lon="1.46279">
        <ele>158.8</ele>
      </trkpt>
      <trkpt lat="43.80112" lon="1.46018">
        <ele>215.28569</ele>
        <time>2022-07-31T14:50:29.836Z</time>
      </trkpt>
      <trkpt lat="43.80121" lon="1.46014">
        <ele>215.306142</ele>
        <time>2022-07-31T14:50:31.841Z</time>
      </trkpt>
      <trkpt lat="43.80131" lon="1.46023">
        <ele>215.381459</ele>
        <time>2022-07-31T14:50:33.845Z</time>
      </trkpt>
      <trkpt lat="43.80139" lon="1.46038">
        <ele>215.462441</ele>
        <time>2022-07-31T14:50:35.846Z</time>
      </trkpt>
      <trkpt lat="43.80147" lon="1.4605">
        <ele>215.5361</ele>
        <time>2022-07-31T14:50:37.847Z</time>
      </trkpt>
      <trkpt lat="43.80155" lon="1.46062">
        <ele>215.61053</ele>
        <time>2022-07-31T14:50:39.836Z</time>
      </trkpt>
      <trkpt lat="43.80163" lon="1.46074">
        <ele>215.682278</ele>
        <time>2022-07-31T14:50:41.849Z</time>
      </trkpt>
      <trkpt lat="43.80171" lon="1.46086">
        <ele>215.757174</ele>
        <time>2022-07-31T14:50:43.837Z</time>
      </trkpt>
      <trkpt lat="43.80179" lon="1.46098">
        <ele>215.831603</ele>
        <time>2022-07-31T14:50:45.857Z</time>
      </trkpt>
      <trkpt lat="43.80188" lon="1.46111">
        <ele>215.90969</ele>
        <time>2022-07-31T14:50:47.852Z</time>
      </trkpt>
      <trkpt lat="43.80197" lon="1.46123">
        <ele>215.987454</ele>
        <time>2022-07-31T14:50:49.834Z</time>
      </trkpt>
      <trkpt lat="43.80206" lon="1.46134">
        <ele>216.062813</ele>
        <time>2022-07-31T14:50:51.843Z</time>
      </trkpt>
      <trkpt lat="43.80215" lon="1.46146">
        <ele>216.138974</ele>
        <time>2022-07-31T14:50:53.873Z</time>
      </trkpt>
      <trkpt lat="43.80225" lon="1.46155">
        <ele>216.216498</ele>
        <time>2022-07-31T14:50:55.831Z</time>
      </trkpt>
      <trkpt lat="43.80236" lon="1.46163">
        <ele>216.292484</ele>
        <time>2022-07-31T14:50:57.843Z</time>
      </trkpt>
      <trkpt lat="43.80246" lon="1.46169">
        <ele>216.363127</ele>
        <time>2022-07-31T14:50:59.844Z</time>
      </trkpt>
      <trkpt lat="43.80257" lon="1.46174">
        <ele>216.392842</ele>
        <time>2022-07-31T14:51:01.838Z</time>
      </trkpt>
      <trkpt lat="43.80268" lon="1.46179">
        <ele>216.291279</ele>
        <time>2022-07-31T14:51:03.838Z</time>
      </trkpt>
      <trkpt lat="43.80279" lon="1.46186">
        <ele>216.187786</ele>
        <time>2022-07-31T14:51:05.836Z</time>
      </trkpt>
      <trkpt lat="43.80289" lon="1.46193">
        <ele>216.083518</ele>
        <time>2022-07-31T14:51:07.859Z</time>
      </trkpt>
      <trkpt lat="43.80299" lon="1.46203">
        <ele>215.978635</ele>
        <time>2022-07-31T14:51:09.853Z</time>
      </trkpt>
      <trkpt lat="43.80307" lon="1.46214">
        <ele>215.875725</ele>
        <time>2022-07-31T14:51:11.841Z</time>
      </trkpt>
      <trkpt lat="43.80315" lon="1.46227">
        <ele>215.769878</ele>
        <time>2022-07-31T14:51:13.849Z</time>
      </trkpt>
      <trkpt lat="43.80322" lon="1.4624">
        <ele>215.664869</ele>
        <time>2022-07-31T14:51:15.830Z</time>
      </trkpt>
      <trkpt lat="43.80329" lon="1.46253">
        <ele>215.558111</ele>
        <time>2022-07-31T14:51:17.842Z</time>
      </trkpt>
      <trkpt lat="43.80338" lon="1.46265">
        <ele>215.451233</ele>
        <time>2022-07-31T14:51:19.856Z</time>
      </trkpt>
      <trkpt lat="43.80347" lon="1.46276">
        <ele>215.344263</ele>
        <time>2022-07-31T14:51:21.850Z</time>
      </trkpt>
      <trkpt lat="43.80357" lon="1.46285">
        <ele>215.235826</ele>
        <time>2022-07-31T14:51:23.835Z</time>
      </trkpt>
      <trkpt lat="43.80368" lon="1.46294">
        <ele>215.123876</ele>
        <time>2022-07-31T14:51:25.854Z</time>
      </trkpt>
      <trkpt lat="43.80379" lon="1.46304">
        <ele>215.010643</ele>
        <time>2022-07-31T14:51:27.851Z</time>
      </trkpt>
      <trkpt lat="43.80389" lon="1.46313">
        <ele>214.897691</ele>
        <time>2022-07-31T14:51:29.816Z</time>
      </trkpt>
      <trkpt lat="43.804" lon="1.46323">
        <ele>214.779137</ele>
        <time>2022-07-31T14:51:31.845Z</time>
      </trkpt>
      <trkpt lat="43.8041" lon="1.46333">
        <ele>214.654195</ele>
        <time>2022-07-31T14:51:33.846Z</time>
      </trkpt>
      <trkpt lat="43.80421" lon="1.46343">
        <ele>214.532483</ele>
        <time>2022-07-31T14:51:35.856Z</time>
      </trkpt>
      <trkpt lat="43.8043" lon="1.46353">
        <ele>214.413812</ele>
        <time>2022-07-31T14:51:37.846Z</time>
      </trkpt>
      <trkpt lat="43.8044" lon="1.46363">
        <ele>214.29571</ele>
        <time>2022-07-31T14:51:39.838Z</time>
      </trkpt>
      <trkpt lat="43.8045" lon="1.46373">
        <ele>214.175183</ele>
        <time>2022-07-31T14:51:41.847Z</time>
      </trkpt>
      <trkpt lat="43.80459" lon="1.46383">
        <ele>214.053743</ele>
        <time>2022-07-31T14:51:43.845Z</time>
      </trkpt>
      <trkpt lat="43.80469" lon="1.46394">
        <ele>213.935072</ele>
        <time>2022-07-31T14:51:45.852Z</time>
      </trkpt>
      <trkpt lat="43.80479" lon="1.46405">
        <ele>213.811114</ele>
        <time>2022-07-31T14:51:47.842Z</time>
      </trkpt>
      <trkpt lat="43.80489" lon="1.46415">
        <ele>213.688029</ele>
        <time>2022-07-31T14:51:49.847Z</time>
      </trkpt>
      <trkpt lat="43.80499" lon="1.46425">
        <ele>213.568744</ele>
        <time>2022-07-31T14:51:51.864Z</time>
      </trkpt>
      <trkpt lat="43.80508" lon="1.46434">
        <ele>213.453487</ele>
        <time>2022-07-31T14:51:53.859Z</time>
      </trkpt>
      <trkpt lat="43.80518" lon="1.46444">
        <ele>213.335415</ele>
        <time>2022-07-31T14:51:55.843Z</time>
      </trkpt>
      <trkpt lat="43.80528" lon="1.46454">
        <ele>213.217344</ele>
        <time>2022-07-31T14:51:57.849Z</time>
      </trkpt>
      <trkpt lat="43.80537" lon="1.46463">
        <ele>213.100074</ele>
        <time>2022-07-31T14:51:59.842Z</time>
      </trkpt>
      <trkpt lat="43.80547" lon="1.46474">
        <ele>212.959042</ele>
        <time>2022-07-31T14:52:01.835Z</time>
      </trkpt>
      <trkpt lat="43.80557" lon="1.46484">
        <ele>212.799749</ele>
        <time>2022-07-31T14:52:03.839Z</time>
      </trkpt>
      <trkpt lat="43.80566" lon="1.46493">
        <ele>212.645857</ele>
        <time>2022-07-31T14:52:05.836Z</time>
      </trkpt>
      <trkpt lat="43.80576" lon="1.46504">
        <ele>212.484388</ele>
        <time>2022-07-31T14:52:07.842Z</time>
      </trkpt>
      <trkpt lat="43.80586" lon="1.46515">
        <ele>212.318723</ele>
        <time>2022-07-31T14:52:09.841Z</time>
      </trkpt>
      <trkpt lat="43.80595" lon="1.46525">
        <ele>212.158061</ele>
        <time>2022-07-31T14:52:11.859Z</time>
      </trkpt>
      <trkpt lat="43.80605" lon="1.46536">
        <ele>211.999598</ele>
        <time>2022-07-31T14:52:13.852Z</time>
      </trkpt>
      <trkpt lat="43.80615" lon="1.46547">
        <ele>211.829848</ele>
        <time>2022-07-31T14:52:15.845Z</time>
      </trkpt>
      <trkpt lat="43.80626" lon="1.46557">
        <ele>211.659307</ele>
        <time>2022-07-31T14:52:17.847Z</time>
      </trkpt>
      <trkpt lat="43.80636" lon="1.46568">
        <ele>211.485488</ele>
        <time>2022-07-31T14:52:19.841Z</time>
      </trkpt>
      <trkpt lat="43.80646" lon="1.46578">
        <ele>211.325634</ele>
        <time>2022-07-31T14:52:21.847Z</time>
      </trkpt>
      <trkpt lat="43.80655" lon="1.46588">
        <ele>211.17846</ele>
        <time>2022-07-31T14:52:23.859Z</time>
      </trkpt>
      <trkpt lat="43.80664" lon="1.46598">
        <ele>211.029083</ele>
        <time>2022-07-31T14:52:25.836Z</time>
      </trkpt>
      <trkpt lat="43.80672" lon="1.46607">
        <ele>210.887916</ele>
        <time>2022-07-31T14:52:27.844Z</time>
      </trkpt>
      <trkpt lat="43.80682" lon="1.46618">
        <ele>210.731918</ele>
        <time>2022-07-31T14:52:29.842Z</time>
      </trkpt>
      <trkpt lat="43.80691" lon="1.46628">
        <ele>210.493021</ele>
        <time>2022-07-31T14:52:31.834Z</time>
      </trkpt>
      <trkpt lat="43.807" lon="1.46638">
        <ele>210.23817</ele>
        <time>2022-07-31T14:52:33.842Z</time>
      </trkpt>
      <trkpt lat="43.80709" lon="1.46648">
        <ele>209.985738</ele>
        <time>2022-07-31T14:52:35.845Z</time>
      </trkpt>
      <trkpt lat="43.80718" lon="1.46658">
        <ele>209.726161</ele>
        <time>2022-07-31T14:52:37.842Z</time>
      </trkpt>
      <trkpt lat="43.80727" lon="1.46668">
        <ele>209.477748</ele>
        <time>2022-07-31T14:52:39.845Z</time>
      </trkpt>
      <trkpt lat="43.80736" lon="1.46678">
        <ele>209.215728</ele>
        <time>2022-07-31T14:52:41.850Z</time>
      </trkpt>
      <trkpt lat="43.80745" lon="1.46689">
        <ele>208.948996</ele>
        <time>2022-07-31T14:52:43.839Z</time>
      </trkpt>
      <trkpt lat="43.80755" lon="1.46698">
        <ele>208.679285</ele>
        <time>2022-07-31T14:52:45.843Z</time>
      </trkpt>
      <trkpt lat="43.80765" lon="1.46709">
        <ele>208.402331</ele>
        <time>2022-07-31T14:52:47.844Z</time>
      </trkpt>
      <trkpt lat="43.80776" lon="1.46718">
        <ele>208.122025</ele>
        <time>2022-07-31T14:52:49.817Z</time>
      </trkpt>
      <trkpt lat="43.80787" lon="1.46726">
        <ele>207.84456</ele>
        <time>2022-07-31T14:52:51.836Z</time>
      </trkpt>
      <trkpt lat="43.80799" lon="1.46734">
        <ele>207.566196</ele>
        <time>2022-07-31T14:52:53.847Z</time>
      </trkpt>
      <trkpt lat="43.8081" lon="1.46742">
        <ele>207.289279</ele>
        <time>2022-07-31T14:52:55.849Z</time>
      </trkpt>
      <trkpt lat="43.80821" lon="1.46749">
        <ele>207.013074</ele>
        <time>2022-07-31T14:52:57.847Z</time>
      </trkpt>
      <trkpt lat="43.80832" lon="1.46757">
        <ele>206.743636</ele>
        <time>2022-07-31T14:52:59.841Z</time>
      </trkpt>
      <trkpt lat="43.80843" lon="1.46764">
        <ele>206.705274</ele>
        <time>2022-07-31T14:53:01.850Z</time>
      </trkpt>
      <trkpt lat="43.80854" lon="1.46772">
        <ele>206.686766</ele>
        <time>2022-07-31T14:53:03.843Z</time>
      </trkpt>
      <trkpt lat="43.80865" lon="1.46779">
        <ele>206.668441</ele>
        <time>2022-07-31T14:53:05.844Z</time>
      </trkpt>
      <trkpt lat="43.80876" lon="1.46786">
        <ele>206.650298</ele>
        <time>2022-07-31T14:53:07.867Z</time>
      </trkpt>
      <trkpt lat="43.80887" lon="1.46793">
        <ele>206.632564</ele>
        <time>2022-07-31T14:53:09.857Z</time>
      </trkpt>
      <trkpt lat="43.80897" lon="1.46799">
        <ele>206.615103</ele>
        <time>2022-07-31T14:53:11.831Z</time>
      </trkpt>
      <trkpt lat="43.80908" lon="1.46806">
        <ele>206.598004</ele>
        <time>2022-07-31T14:53:13.845Z</time>
      </trkpt>
      <trkpt lat="43.80918" lon="1.46813">
        <ele>206.580901</ele>
        <time>2022-07-31T14:53:15.839Z</time>
      </trkpt>
      <trkpt lat="43.80928" lon="1.4682">
        <ele>206.563917</ele>
        <time>2022-07-31T14:53:17.829Z</time>
      </trkpt>
      <trkpt lat="43.80938" lon="1.46827">
        <ele>206.547515</ele>
        <time>2022-07-31T14:53:19.846Z</time>
      </trkpt>
      <trkpt lat="43.80947" lon="1.46833">
        <ele>206.532724</ele>
        <time>2022-07-31T14:53:21.830Z</time>
      </trkpt>
      <trkpt lat="43.80956" lon="1.46824">
        <ele>206.515493</ele>
        <time>2022-07-31T14:53:24.845Z</time>
      </trkpt>
      <trkpt lat="43.80961" lon="1.46806">
        <ele>206.495246</ele>
        <time>2022-07-31T14:53:27.826Z</time>
      </trkpt>
      <trkpt lat="43.80965" lon="1.46794">
        <ele>206.481045</ele>
        <time>2022-07-31T14:53:29.837Z</time>
      </trkpt>
      <trkpt lat="43.80969" lon="1.46781">
        <ele>206.465936</ele>
        <time>2022-07-31T14:53:31.849Z</time>
      </trkpt>
      <trkpt lat="43.80972" lon="1.46768">
        <ele>206.472417</ele>
        <time>2022-07-31T14:53:33.834Z</time>
      </trkpt>
      <trkpt lat="43.80976" lon="1.46755">
        <ele>206.706378</ele>
        <time>2022-07-31T14:53:35.851Z</time>
      </trkpt>
      <trkpt lat="43.8098" lon="1.46741">
        <ele>206.936395</ele>
        <time>2022-07-31T14:53:37.827Z</time>
      </trkpt>
      <trkpt lat="43.80985" lon="1.46728">
        <ele>207.169608</ele>
        <time>2022-07-31T14:53:39.839Z</time>
      </trkpt>
      <trkpt lat="43.8099" lon="1.46715">
        <ele>207.403721</ele>
        <time>2022-07-31T14:53:41.836Z</time>
      </trkpt>
      <trkpt lat="43.80994" lon="1.46701">
        <ele>207.639266</ele>
        <time>2022-07-31T14:53:43.850Z</time>
      </trkpt>
      <trkpt lat="43.80999" lon="1.46688">
        <ele>207.869155</ele>
        <time>2022-07-31T14:53:45.852Z</time>
      </trkpt>
      <trkpt lat="43.81003" lon="1.46675">
        <ele>208.103267</ele>
        <time>2022-07-31T14:53:47.838Z</time>
      </trkpt>
      <trkpt lat="43.81008" lon="1.46661">
        <ele>208.336956</ele>
        <time>2022-07-31T14:53:49.844Z</time>
      </trkpt>
      <trkpt lat="43.81012" lon="1.46648">
        <ele>208.568293</ele>
        <time>2022-07-31T14:53:51.859Z</time>
      </trkpt>
      <trkpt lat="43.81016" lon="1.46635">
        <ele>208.79385</ele>
        <time>2022-07-31T14:53:53.838Z</time>
      </trkpt>
      <trkpt lat="43.8102" lon="1.46623">
        <ele>209.010358</ele>
        <time>2022-07-31T14:53:55.847Z</time>
      </trkpt>
      <trkpt lat="43.81024" lon="1.46611">
        <ele>209.221885</ele>
        <time>2022-07-31T14:53:57.851Z</time>
      </trkpt>
      <trkpt lat="43.81028" lon="1.46598">
        <ele>209.437815</ele>
        <time>2022-07-31T14:53:59.843Z</time>
      </trkpt>
      <trkpt lat="43.81031" lon="1.46585">
        <ele>209.658163</ele>
        <time>2022-07-31T14:54:01.849Z</time>
      </trkpt>
      <trkpt lat="43.81035" lon="1.46572">
        <ele>209.87841</ele>
        <time>2022-07-31T14:54:03.850Z</time>
      </trkpt>
      <trkpt lat="43.81038" lon="1.46559">
        <ele>210.098657</ele>
        <time>2022-07-31T14:54:05.838Z</time>
      </trkpt>
      <trkpt lat="43.81042" lon="1.46546">
        <ele>210.316722</ele>
        <time>2022-07-31T14:54:07.838Z</time>
      </trkpt>
      <trkpt lat="43.81045" lon="1.46533">
        <ele>210.437425</ele>
        <time>2022-07-31T14:54:09.852Z</time>
      </trkpt>
      <trkpt lat="43.81049" lon="1.4652">
        <ele>210.487201</ele>
        <time>2022-07-31T14:54:11.845Z</time>
      </trkpt>
      <trkpt lat="43.81053" lon="1.46506">
        <ele>210.538436</ele>
        <time>2022-07-31T14:54:13.841Z</time>
      </trkpt>
      <trkpt lat="43.81057" lon="1.46492">
        <ele>210.591325</ele>
        <time>2022-07-31T14:54:15.851Z</time>
      </trkpt>
      <trkpt lat="43.8106" lon="1.46478">
        <ele>210.643219</ele>
        <time>2022-07-31T14:54:17.846Z</time>
      </trkpt>
      <trkpt lat="43.81064" lon="1.46464">
        <ele>210.694802</ele>
        <time>2022-07-31T14:54:19.848Z</time>
      </trkpt>
      <trkpt lat="43.81067" lon="1.4645">
        <ele>210.746539</ele>
        <time>2022-07-31T14:54:21.857Z</time>
      </trkpt>
      <trkpt lat="43.81071" lon="1.46436">
        <ele>210.7986</ele>
        <time>2022-07-31T14:54:23.888Z</time>
      </trkpt>
      <trkpt lat="43.81075" lon="1.46422">
        <ele>210.850989</ele>
        <time>2022-07-31T14:54:25.862Z</time>
      </trkpt>
      <trkpt lat="43.81079" lon="1.46408">
        <ele>210.903706</ele>
        <time>2022-07-31T14:54:27.856Z</time>
      </trkpt>
      <trkpt lat="43.81082" lon="1.46394">
        <ele>210.956107</ele>
        <time>2022-07-31T14:54:29.853Z</time>
      </trkpt>
      <trkpt lat="43.81086" lon="1.4638">
        <ele>211.009152</ele>
        <time>2022-07-31T14:54:31.855Z</time>
      </trkpt>
      <trkpt lat="43.8109" lon="1.46366">
        <ele>211.060219</ele>
        <time>2022-07-31T14:54:33.860Z</time>
      </trkpt>
      <trkpt lat="43.81094" lon="1.46352">
        <ele>211.113762</ele>
        <time>2022-07-31T14:54:35.844Z</time>
      </trkpt>
      <trkpt lat="43.81097" lon="1.46338">
        <ele>211.166807</ele>
        <time>2022-07-31T14:54:37.844Z</time>
      </trkpt>
      <trkpt lat="43.81101" lon="1.46323">
        <ele>211.221335</ele>
        <time>2022-07-31T14:54:39.844Z</time>
      </trkpt>
      <trkpt lat="43.81105" lon="1.46308">
        <ele>211.275862</ele>
        <time>2022-07-31T14:54:41.844Z</time>
      </trkpt>
      <trkpt lat="43.81109" lon="1.46294">
        <ele>211.325086</ele>
        <time>2022-07-31T14:54:43.844Z</time>
      </trkpt>
      <trkpt lat="43.81113" lon="1.46279">
        <ele>211.372536</ele>
        <time>2022-07-31T14:54:45.842Z</time>
      </trkpt>
      <trkpt lat="43.81116" lon="1.46265">
        <ele>211.419841</ele>
        <time>2022-07-31T14:54:47.843Z</time>
      </trkpt>
      <trkpt lat="43.8112" lon="1.46251">
        <ele>211.466557</ele>
        <time>2022-07-31T14:54:49.867Z</time>
      </trkpt>
      <trkpt lat="43.81124" lon="1.46237">
        <ele>211.51446</ele>
        <time>2022-07-31T14:54:51.850Z</time>
      </trkpt>
      <trkpt lat="43.81128" lon="1.46222">
        <ele>211.562947</ele>
        <time>2022-07-31T14:54:53.850Z</time>
      </trkpt>
      <trkpt lat="43.81131" lon="1.46208">
        <ele>211.611281</ele>
        <time>2022-07-31T14:54:55.842Z</time>
      </trkpt>
      <trkpt lat="43.81135" lon="1.46193">
        <ele>211.65873</ele>
        <time>2022-07-31T14:54:57.847Z</time>
      </trkpt>
      <trkpt lat="43.81138" lon="1.46178">
        <ele>211.707412</ele>
        <time>2022-07-31T14:54:59.844Z</time>
      </trkpt>
      <trkpt lat="43.81141" lon="1.46165">
        <ele>211.749434</ele>
        <time>2022-07-31T14:55:01.849Z</time>
      </trkpt>
      <trkpt lat="43.81146" lon="1.46155">
        <ele>211.788693</ele>
        <time>2022-07-31T14:55:04.837Z</time>
      </trkpt>
      <trkpt lat="43.81157" lon="1.46158">
        <ele>211.837643</ele>
        <time>2022-07-31T14:55:07.855Z</time>
      </trkpt>
      <trkpt lat="43.81166" lon="1.46161">
        <ele>211.877924</ele>
        <time>2022-07-31T14:55:09.851Z</time>
      </trkpt>
      <trkpt lat="43.81177" lon="1.46165">
        <ele>211.924059</ele>
        <time>2022-07-31T14:55:11.840Z</time>
      </trkpt>
      <trkpt lat="43.81188" lon="1.46168">
        <ele>211.974109</ele>
        <time>2022-07-31T14:55:13.821Z</time>
      </trkpt>
      <trkpt lat="43.81199" lon="1.46172">
        <ele>212.02459</ele>
        <time>2022-07-31T14:55:15.842Z</time>
      </trkpt>
      <trkpt lat="43.81211" lon="1.46176">
        <ele>212.100609</ele>
        <time>2022-07-31T14:55:17.856Z</time>
      </trkpt>
      <trkpt lat="43.81221" lon="1.46178">
        <ele>212.227436</ele>
        <time>2022-07-31T14:55:19.842Z</time>
      </trkpt>
      <trkpt lat="43.81231" lon="1.46178">
        <ele>212.341064</ele>
        <time>2022-07-31T14:55:21.855Z</time>
      </trkpt>
      <trkpt lat="43.8124" lon="1.46174">
        <ele>212.464112</ele>
        <time>2022-07-31T14:55:23.833Z</time>
      </trkpt>
      <trkpt lat="43.81247" lon="1.46162">
        <ele>212.59569</ele>
        <time>2022-07-31T14:55:25.840Z</time>
      </trkpt>
      <trkpt lat="43.81253" lon="1.46147">
        <ele>212.740639</ele>
        <time>2022-07-31T14:55:27.830Z</time>
      </trkpt>
      <trkpt lat="43.81259" lon="1.46134">
        <ele>212.880373</ele>
        <time>2022-07-31T14:55:29.844Z</time>
      </trkpt>
      <trkpt lat="43.81265" lon="1.46119">
        <ele>213.023078</ele>
        <time>2022-07-31T14:55:31.840Z</time>
      </trkpt>
      <trkpt lat="43.81271" lon="1.46105">
        <ele>213.16653</ele>
        <time>2022-07-31T14:55:33.832Z</time>
      </trkpt>
      <trkpt lat="43.81277" lon="1.46091">
        <ele>213.308358</ele>
        <time>2022-07-31T14:55:35.834Z</time>
      </trkpt>
      <trkpt lat="43.81283" lon="1.46078">
        <ele>213.443585</ele>
        <time>2022-07-31T14:55:37.832Z</time>
      </trkpt>
      <trkpt lat="43.8129" lon="1.46064">
        <ele>213.587203</ele>
        <time>2022-07-31T14:55:39.822Z</time>
      </trkpt>
      <trkpt lat="43.81296" lon="1.4605">
        <ele>213.727352</ele>
        <time>2022-07-31T14:55:41.836Z</time>
      </trkpt>
      <trkpt lat="43.81302" lon="1.46036">
        <ele>213.870535</ele>
        <time>2022-07-31T14:55:43.825Z</time>
      </trkpt>
      <trkpt lat="43.81309" lon="1.46022">
        <ele>214.011413</ele>
        <time>2022-07-31T14:55:45.822Z</time>
      </trkpt>
      <trkpt lat="43.81315" lon="1.46008">
        <ele>214.153659</ele>
        <time>2022-07-31T14:55:47.835Z</time>
      </trkpt>
      <trkpt lat="43.81321" lon="1.45994">
        <ele>214.314098</ele>
        <time>2022-07-31T14:55:49.842Z</time>
      </trkpt>
      <trkpt lat="43.81327" lon="1.4598">
        <ele>214.485196</ele>
        <time>2022-07-31T14:55:51.842Z</time>
      </trkpt>
      <trkpt lat="43.81333" lon="1.45966">
        <ele>214.654852</ele>
        <time>2022-07-31T14:55:53.843Z</time>
      </trkpt>
      <trkpt lat="43.81339" lon="1.45952">
        <ele>214.826834</ele>
        <time>2022-07-31T14:55:55.845Z</time>
      </trkpt>
      <trkpt lat="43.81345" lon="1.45939">
        <ele>214.992255</ele>
        <time>2022-07-31T14:55:57.851Z</time>
      </trkpt>
      <trkpt lat="43.81347" lon="1.45925">
        <ele>215.138904</ele>
        <time>2022-07-31T14:55:59.831Z</time>
      </trkpt>
      <trkpt lat="43.81339" lon="1.45911">
        <ele>215.330616</ele>
        <time>2022-07-31T14:56:02.834Z</time>
      </trkpt>
      <trkpt lat="43.81329" lon="1.45907">
        <ele>215.476518</ele>
        <time>2022-07-31T14:56:04.847Z</time>
      </trkpt>
      <trkpt lat="43.8132" lon="1.45901">
        <ele>215.619983</ele>
        <time>2022-07-31T14:56:06.851Z</time>
      </trkpt>
      <trkpt lat="43.81311" lon="1.45896">
        <ele>215.767829</ele>
        <time>2022-07-31T14:56:08.841Z</time>
      </trkpt>
      <trkpt lat="43.81301" lon="1.4589">
        <ele>215.919829</ele>
        <time>2022-07-31T14:56:10.844Z</time>
      </trkpt>
      <trkpt lat="43.81291" lon="1.45884">
        <ele>216.084535</ele>
        <time>2022-07-31T14:56:12.854Z</time>
      </trkpt>
      <trkpt lat="43.8128" lon="1.45876">
        <ele>216.261761</ele>
        <time>2022-07-31T14:56:14.846Z</time>
      </trkpt>
      <trkpt lat="43.81269" lon="1.4587">
        <ele>216.438699</ele>
        <time>2022-07-31T14:56:16.851Z</time>
      </trkpt>
      <trkpt lat="43.81257" lon="1.45865">
        <ele>216.617711</ele>
        <time>2022-07-31T14:56:18.827Z</time>
      </trkpt>
      <trkpt lat="43.81245" lon="1.45863">
        <ele>216.796891</ele>
        <time>2022-07-31T14:56:20.845Z</time>
      </trkpt>
      <trkpt lat="43.81233" lon="1.45861">
        <ele>216.723104</ele>
        <time>2022-07-31T14:56:22.831Z</time>
      </trkpt>
      <trkpt lat="43.81221" lon="1.45858">
        <ele>216.54396</ele>
        <time>2022-07-31T14:56:24.847Z</time>
      </trkpt>
      <trkpt lat="43.8121" lon="1.45855">
        <ele>216.369804</ele>
        <time>2022-07-31T14:56:26.840Z</time>
      </trkpt>
      <trkpt lat="43.81198" lon="1.4585">
        <ele>216.198275</ele>
        <time>2022-07-31T14:56:28.873Z</time>
      </trkpt>
      <trkpt lat="43.81188" lon="1.45844">
        <ele>216.02294</ele>
        <time>2022-07-31T14:56:30.851Z</time>
      </trkpt>
      <trkpt lat="43.81177" lon="1.45835">
        <ele>215.846809</ele>
        <time>2022-07-31T14:56:32.849Z</time>
      </trkpt>
      <trkpt lat="43.81168" lon="1.45824">
        <ele>215.667667</ele>
        <time>2022-07-31T14:56:34.859Z</time>
      </trkpt>
      <trkpt lat="43.81158" lon="1.45814">
        <ele>215.485538</ele>
        <time>2022-07-31T14:56:36.853Z</time>
      </trkpt>
      <trkpt lat="43.81148" lon="1.45804">
        <ele>215.29906</ele>
        <time>2022-07-31T14:56:38.850Z</time>
      </trkpt>
      <trkpt lat="43.81138" lon="1.45793">
        <ele>215.1154</ele>
        <time>2022-07-31T14:56:40.853Z</time>
      </trkpt>
      <trkpt lat="43.81127" lon="1.45782">
        <ele>214.927215</ele>
        <time>2022-07-31T14:56:42.860Z</time>
      </trkpt>
      <trkpt lat="43.81117" lon="1.45772">
        <ele>214.739129</ele>
        <time>2022-07-31T14:56:44.832Z</time>
      </trkpt>
      <trkpt lat="43.81107" lon="1.45761">
        <ele>214.548897</ele>
        <time>2022-07-31T14:56:46.864Z</time>
      </trkpt>
      <trkpt lat="43.81097" lon="1.4575">
        <ele>214.358009</ele>
        <time>2022-07-31T14:56:48.852Z</time>
      </trkpt>
      <trkpt lat="43.81086" lon="1.45738">
        <ele>214.212522</ele>
        <time>2022-07-31T14:56:50.850Z</time>
      </trkpt>
      <trkpt lat="43.81076" lon="1.45727">
        <ele>214.219859</ele>
        <time>2022-07-31T14:56:52.851Z</time>
      </trkpt>
      <trkpt lat="43.81066" lon="1.45718">
        <ele>214.226954</ele>
        <time>2022-07-31T14:56:54.843Z</time>
      </trkpt>
      <trkpt lat="43.81054" lon="1.45712">
        <ele>214.233828</ele>
        <time>2022-07-31T14:56:56.832Z</time>
      </trkpt>
      <trkpt lat="43.81042" lon="1.45708">
        <ele>214.240704</ele>
        <time>2022-07-31T14:56:58.867Z</time>
      </trkpt>
      <trkpt lat="43.81031" lon="1.45704">
        <ele>214.247319</ele>
        <time>2022-07-31T14:57:00.846Z</time>
      </trkpt>
      <trkpt lat="43.8102" lon="1.45701">
        <ele>214.253649</ele>
        <time>2022-07-31T14:57:02.855Z</time>
      </trkpt>
      <trkpt lat="43.81009" lon="1.457">
        <ele>214.259875</ele>
        <time>2022-07-31T14:57:04.846Z</time>
      </trkpt>
      <trkpt lat="43.80998" lon="1.45699">
        <ele>214.266004</ele>
        <time>2022-07-31T14:57:06.848Z</time>
      </trkpt>
      <trkpt lat="43.80988" lon="1.45699">
        <ele>214.272187</ele>
        <time>2022-07-31T14:57:08.865Z</time>
      </trkpt>
      <trkpt lat="43.80976" lon="1.45701">
        <ele>214.278573</ele>
        <time>2022-07-31T14:57:10.847Z</time>
      </trkpt>
      <trkpt lat="43.80965" lon="1.45704">
        <ele>214.285133</ele>
        <time>2022-07-31T14:57:12.864Z</time>
      </trkpt>
      <trkpt lat="43.80954" lon="1.45706">
        <ele>214.291693</ele>
        <time>2022-07-31T14:57:14.865Z</time>
      </trkpt>
      <trkpt lat="43.80942" lon="1.45709">
        <ele>214.298331</ele>
        <time>2022-07-31T14:57:16.862Z</time>
      </trkpt>
      <trkpt lat="43.80931" lon="1.45712">
        <ele>214.304961</ele>
        <time>2022-07-31T14:57:18.866Z</time>
      </trkpt>
      <trkpt lat="43.80919" lon="1.45714">
        <ele>214.311525</ele>
        <time>2022-07-31T14:57:20.852Z</time>
      </trkpt>
      <trkpt lat="43.8091" lon="1.45708">
        <ele>214.342591</ele>
        <time>2022-07-31T14:57:22.870Z</time>
      </trkpt>
      <trkpt lat="43.80909" lon="1.45695">
        <ele>214.37958</ele>
        <time>2022-07-31T14:57:24.852Z</time>
      </trkpt>
      <trkpt lat="43.80909" lon="1.4568">
        <ele>214.422399</ele>
        <time>2022-07-31T14:57:26.847Z</time>
      </trkpt>
      <trkpt lat="43.80911" lon="1.45664">
        <ele>214.46768</ele>
        <time>2022-07-31T14:57:28.878Z</time>
      </trkpt>
      <trkpt lat="43.80915" lon="1.45649">
        <ele>214.511972</ele>
        <time>2022-07-31T14:57:30.852Z</time>
      </trkpt>
      <trkpt lat="43.80921" lon="1.45636">
        <ele>214.555328</ele>
        <time>2022-07-31T14:57:32.861Z</time>
      </trkpt>
      <trkpt lat="43.80928" lon="1.45623">
        <ele>214.6009</ele>
        <time>2022-07-31T14:57:34.848Z</time>
      </trkpt>
      <trkpt lat="43.80934" lon="1.45609">
        <ele>214.647089</ele>
        <time>2022-07-31T14:57:36.851Z</time>
      </trkpt>
      <trkpt lat="43.8094" lon="1.45595">
        <ele>214.694002</ele>
        <time>2022-07-31T14:57:38.860Z</time>
      </trkpt>
      <trkpt lat="43.80946" lon="1.45581">
        <ele>214.740564</ele>
        <time>2022-07-31T14:57:40.846Z</time>
      </trkpt>
      <trkpt lat="43.80953" lon="1.45566">
        <ele>214.787194</ele>
        <time>2022-07-31T14:57:42.848Z</time>
      </trkpt>
      <trkpt lat="43.80959" lon="1.45552">
        <ele>214.833426</ele>
        <time>2022-07-31T14:57:44.830Z</time>
      </trkpt>
      <trkpt lat="43.80965" lon="1.45538">
        <ele>214.879462</ele>
        <time>2022-07-31T14:57:46.839Z</time>
      </trkpt>
      <trkpt lat="43.8097" lon="1.45524">
        <ele>214.925173</ele>
        <time>2022-07-31T14:57:48.845Z</time>
      </trkpt>
      <trkpt lat="43.80976" lon="1.4551">
        <ele>214.97068</ele>
        <time>2022-07-31T14:57:50.851Z</time>
      </trkpt>
      <trkpt lat="43.80983" lon="1.45497">
        <ele>215.01032</ele>
        <time>2022-07-31T14:57:52.850Z</time>
      </trkpt>
      <trkpt lat="43.8099" lon="1.45484">
        <ele>214.965508</ele>
        <time>2022-07-31T14:57:54.828Z</time>
      </trkpt>
      <trkpt lat="43.80998" lon="1.45472">
        <ele>214.920011</ele>
        <time>2022-07-31T14:57:56.842Z</time>
      </trkpt>
      <trkpt lat="43.81006" lon="1.4546">
        <ele>214.874525</ele>
        <time>2022-07-31T14:57:58.853Z</time>
      </trkpt>
      <trkpt lat="43.81013" lon="1.45447">
        <ele>214.828652</ele>
        <time>2022-07-31T14:58:00.844Z</time>
      </trkpt>
      <trkpt lat="43.8102" lon="1.45433">
        <ele>214.781885</ele>
        <time>2022-07-31T14:58:02.847Z</time>
      </trkpt>
      <trkpt lat="43.81026" lon="1.45418">
        <ele>214.735041</ele>
        <time>2022-07-31T14:58:04.851Z</time>
      </trkpt>
      <trkpt lat="43.81031" lon="1.45403">
        <ele>214.687859</ele>
        <time>2022-07-31T14:58:06.853Z</time>
      </trkpt>
      <trkpt lat="43.81036" lon="1.45387">
        <ele>214.640223</ele>
        <time>2022-07-31T14:58:08.846Z</time>
      </trkpt>
      <trkpt lat="43.81042" lon="1.45372">
        <ele>214.592371</ele>
        <time>2022-07-31T14:58:10.823Z</time>
      </trkpt>
      <trkpt lat="43.81047" lon="1.45356">
        <ele>214.544171</ele>
        <time>2022-07-31T14:58:12.846Z</time>
      </trkpt>
      <trkpt lat="43.81053" lon="1.45341">
        <ele>214.49622</ele>
        <time>2022-07-31T14:58:14.850Z</time>
      </trkpt>
      <trkpt lat="43.81058" lon="1.45326">
        <ele>214.449445</ele>
        <time>2022-07-31T14:58:16.836Z</time>
      </trkpt>
      <trkpt lat="43.81064" lon="1.45311">
        <ele>214.401808</ele>
        <time>2022-07-31T14:58:18.846Z</time>
      </trkpt>
      <trkpt lat="43.81069" lon="1.45295">
        <ele>214.353784</ele>
        <time>2022-07-31T14:58:20.830Z</time>
      </trkpt>
      <trkpt lat="43.81075" lon="1.4528">
        <ele>214.314469</ele>
        <time>2022-07-31T14:58:22.828Z</time>
      </trkpt>
      <trkpt lat="43.81081" lon="1.45265">
        <ele>214.298319</ele>
        <time>2022-07-31T14:58:24.851Z</time>
      </trkpt>
      <trkpt lat="43.81087" lon="1.4525">
        <ele>214.282767</ele>
        <time>2022-07-31T14:58:26.840Z</time>
      </trkpt>
      <trkpt lat="43.81093" lon="1.45235">
        <ele>214.265957</ele>
        <time>2022-07-31T14:58:28.847Z</time>
      </trkpt>
      <trkpt lat="43.81099" lon="1.45219">
        <ele>214.248874</ele>
        <time>2022-07-31T14:58:30.834Z</time>
      </trkpt>
      <trkpt lat="43.81106" lon="1.45203">
        <ele>214.231589</ele>
        <time>2022-07-31T14:58:32.836Z</time>
      </trkpt>
      <trkpt lat="43.81112" lon="1.45187">
        <ele>214.214881</ele>
        <time>2022-07-31T14:58:34.819Z</time>
      </trkpt>
      <trkpt lat="43.81118" lon="1.45172">
        <ele>214.198814</ele>
        <time>2022-07-31T14:58:36.829Z</time>
      </trkpt>
      <trkpt lat="43.81123" lon="1.45156">
        <ele>214.182533</ele>
        <time>2022-07-31T14:58:38.849Z</time>
      </trkpt>
      <trkpt lat="43.81129" lon="1.45142">
        <ele>214.166752</ele>
        <time>2022-07-31T14:58:40.850Z</time>
      </trkpt>
      <trkpt lat="43.81135" lon="1.45128">
        <ele>214.151362</ele>
        <time>2022-07-31T14:58:42.835Z</time>
      </trkpt>
      <trkpt lat="43.81141" lon="1.45113">
        <ele>214.135893</ele>
        <time>2022-07-31T14:58:44.864Z</time>
      </trkpt>
      <trkpt lat="43.81147" lon="1.45099">
        <ele>214.12076</ele>
        <time>2022-07-31T14:58:46.833Z</time>
      </trkpt>
      <trkpt lat="43.81152" lon="1.45086">
        <ele>214.10618</ele>
        <time>2022-07-31T14:58:48.857Z</time>
      </trkpt>
      <trkpt lat="43.81157" lon="1.45072">
        <ele>214.091641</ele>
        <time>2022-07-31T14:58:50.845Z</time>
      </trkpt>
      <trkpt lat="43.81163" lon="1.45058">
        <ele>213.943359</ele>
        <time>2022-07-31T14:58:52.847Z</time>
      </trkpt>
      <trkpt lat="43.81168" lon="1.45044">
        <ele>213.677275</ele>
        <time>2022-07-31T14:58:54.831Z</time>
      </trkpt>
      <trkpt lat="43.81173" lon="1.45031">
        <ele>213.415938</ele>
        <time>2022-07-31T14:58:56.845Z</time>
      </trkpt>
      <trkpt lat="43.81178" lon="1.45017">
        <ele>213.152879</ele>
        <time>2022-07-31T14:58:58.846Z</time>
      </trkpt>
      <trkpt lat="43.81183" lon="1.45004">
        <ele>212.886421</ele>
        <time>2022-07-31T14:59:00.857Z</time>
      </trkpt>
      <trkpt lat="43.81189" lon="1.44989">
        <ele>212.601894</ele>
        <time>2022-07-31T14:59:02.831Z</time>
      </trkpt>
      <trkpt lat="43.81195" lon="1.44972">
        <ele>212.281514</ele>
        <time>2022-07-31T14:59:04.853Z</time>
      </trkpt>
      <trkpt lat="43.81201" lon="1.44955">
        <ele>211.952279</ele>
        <time>2022-07-31T14:59:06.829Z</time>
      </trkpt>
      <trkpt lat="43.81208" lon="1.44936">
        <ele>211.598994</ele>
        <time>2022-07-31T14:59:08.849Z</time>
      </trkpt>
      <trkpt lat="43.81214" lon="1.44918">
        <ele>211.253252</ele>
        <time>2022-07-31T14:59:10.832Z</time>
      </trkpt>
      <trkpt lat="43.81219" lon="1.44902">
        <ele>210.959946</ele>
        <time>2022-07-31T14:59:12.838Z</time>
      </trkpt>
      <trkpt lat="43.81228" lon="1.44895">
        <ele>210.724879</ele>
        <time>2022-07-31T14:59:15.852Z</time>
      </trkpt>
      <trkpt lat="43.81236" lon="1.44903">
        <ele>210.488296</ele>
        <time>2022-07-31T14:59:18.845Z</time>
      </trkpt>
      <trkpt lat="43.81245" lon="1.44909">
        <ele>210.26171</ele>
        <time>2022-07-31T14:59:20.862Z</time>
      </trkpt>
      <trkpt lat="43.81255" lon="1.44914">
        <ele>210.002479</ele>
        <time>2022-07-31T14:59:22.843Z</time>
      </trkpt>
      <trkpt lat="43.81266" lon="1.44919">
        <ele>209.856071</ele>
        <time>2022-07-31T14:59:24.853Z</time>
      </trkpt>
      <trkpt lat="43.81277" lon="1.44925">
        <ele>209.947643</ele>
        <time>2022-07-31T14:59:26.841Z</time>
      </trkpt>
      <trkpt lat="43.81289" lon="1.44931">
        <ele>210.040663</ele>
        <time>2022-07-31T14:59:28.853Z</time>
      </trkpt>
      <trkpt lat="43.813" lon="1.44936">
        <ele>210.132936</ele>
        <time>2022-07-31T14:59:30.861Z</time>
      </trkpt>
      <trkpt lat="43.81312" lon="1.44942">
        <ele>210.223968</ele>
        <time>2022-07-31T14:59:32.860Z</time>
      </trkpt>
      <trkpt lat="43.81323" lon="1.44947">
        <ele>210.313764</ele>
        <time>2022-07-31T14:59:34.847Z</time>
      </trkpt>
      <trkpt lat="43.81334" lon="1.44951">
        <ele>210.400433</ele>
        <time>2022-07-31T14:59:36.854Z</time>
      </trkpt>
      <trkpt lat="43.81345" lon="1.44956">
        <ele>210.487412</ele>
        <time>2022-07-31T14:59:38.852Z</time>
      </trkpt>
      <trkpt lat="43.81356" lon="1.4496">
        <ele>210.572475</ele>
        <time>2022-07-31T14:59:40.853Z</time>
      </trkpt>
      <trkpt lat="43.81366" lon="1.44963">
        <ele>210.651452</ele>
        <time>2022-07-31T14:59:42.837Z</time>
      </trkpt>
      <trkpt lat="43.81376" lon="1.44966">
        <ele>210.730822</ele>
        <time>2022-07-31T14:59:44.833Z</time>
      </trkpt>
      <trkpt lat="43.81387" lon="1.44967">
        <ele>210.808947</ele>
        <time>2022-07-31T14:59:46.848Z</time>
      </trkpt>
      <trkpt lat="43.81393" lon="1.44957">
        <ele>210.884526</ele>
        <time>2022-07-31T14:59:48.859Z</time>
      </trkpt>
      <trkpt lat="43.81396" lon="1.44943">
        <ele>210.963564</ele>
        <time>2022-07-31T14:59:50.854Z</time>
      </trkpt>
      <trkpt lat="43.814" lon="1.44929">
        <ele>211.04818</ele>
        <time>2022-07-31T14:59:52.846Z</time>
      </trkpt>
      <trkpt lat="43.81404" lon="1.44914">
        <ele>211.132197</ele>
        <time>2022-07-31T14:59:54.856Z</time>
      </trkpt>
      <trkpt lat="43.81408" lon="1.44899">
        <ele>211.226063</ele>
        <time>2022-07-31T14:59:56.854Z</time>
      </trkpt>
      <trkpt lat="43.81412" lon="1.44884">
        <ele>211.332751</ele>
        <time>2022-07-31T14:59:58.848Z</time>
      </trkpt>
      <trkpt lat="43.81416" lon="1.44869">
        <ele>211.441275</ele>
        <time>2022-07-31T15:00:00.862Z</time>
      </trkpt>
      <trkpt lat="43.81421" lon="1.44853">
        <ele>211.550704</ele>
        <time>2022-07-31T15:00:02.840Z</time>
      </trkpt>
      <trkpt lat="43.81424" lon="1.44837">
        <ele>211.660456</ele>
        <time>2022-07-31T15:00:04.844Z</time>
      </trkpt>
      <trkpt lat="43.81427" lon="1.44821">
        <ele>211.770965</ele>
        <time>2022-07-31T15:00:06.848Z</time>
      </trkpt>
      <trkpt lat="43.81431" lon="1.44805">
        <ele>211.881846</ele>
        <time>2022-07-31T15:00:08.840Z</time>
      </trkpt>
      <trkpt lat="43.81434" lon="1.44789">
        <ele>211.98922</ele>
        <time>2022-07-31T15:00:10.842Z</time>
      </trkpt>
      <trkpt lat="43.81436" lon="1.44773">
        <ele>212.095292</ele>
        <time>2022-07-31T15:00:12.836Z</time>
      </trkpt>
      <trkpt lat="43.81439" lon="1.4476">
        <ele>212.18734</ele>
        <time>2022-07-31T15:00:14.862Z</time>
      </trkpt>
      <trkpt lat="43.8144" lon="1.44747">
        <ele>212.272068</ele>
        <time>2022-07-31T15:00:16.836Z</time>
      </trkpt>
      <trkpt lat="43.8144" lon="1.44734">
        <ele>212.356854</ele>
        <time>2022-07-31T15:00:18.837Z</time>
      </trkpt>
      <trkpt lat="43.81441" lon="1.4472">
        <ele>212.448754</ele>
        <time>2022-07-31T15:00:20.856Z</time>
      </trkpt>
      <trkpt lat="43.81445" lon="1.44707">
        <ele>212.541394</ele>
        <time>2022-07-31T15:00:22.865Z</time>
      </trkpt>
      <trkpt lat="43.81449" lon="1.44694">
        <ele>212.638147</ele>
        <time>2022-07-31T15:00:24.854Z</time>
      </trkpt>
      <trkpt lat="43.81453" lon="1.44679">
        <ele>212.737389</ele>
        <time>2022-07-31T15:00:26.852Z</time>
      </trkpt>
      <trkpt lat="43.81456" lon="1.44664">
        <ele>212.82929</ele>
        <time>2022-07-31T15:00:28.849Z</time>
      </trkpt>
      <trkpt lat="43.81461" lon="1.44649">
        <ele>212.859685</ele>
        <time>2022-07-31T15:00:30.872Z</time>
      </trkpt>
      <trkpt lat="43.81465" lon="1.44634">
        <ele>212.890523</ele>
        <time>2022-07-31T15:00:32.869Z</time>
      </trkpt>
      <trkpt lat="43.81469" lon="1.44618">
        <ele>212.921274</ele>
        <time>2022-07-31T15:00:34.845Z</time>
      </trkpt>
      <trkpt lat="43.81473" lon="1.44602">
        <ele>212.952728</ele>
        <time>2022-07-31T15:00:36.844Z</time>
      </trkpt>
      <trkpt lat="43.81476" lon="1.44587">
        <ele>212.983296</ele>
        <time>2022-07-31T15:00:38.850Z</time>
      </trkpt>
      <trkpt lat="43.8148" lon="1.44572">
        <ele>213.012227</ele>
        <time>2022-07-31T15:00:40.841Z</time>
      </trkpt>
      <trkpt lat="43.81484" lon="1.44559">
        <ele>213.039067</ele>
        <time>2022-07-31T15:00:42.860Z</time>
      </trkpt>
      <trkpt lat="43.81487" lon="1.44545">
        <ele>213.06559</ele>
        <time>2022-07-31T15:00:44.854Z</time>
      </trkpt>
      <trkpt lat="43.8149" lon="1.44531">
        <ele>213.093364</ele>
        <time>2022-07-31T15:00:46.860Z</time>
      </trkpt>
      <trkpt lat="43.81495" lon="1.44516">
        <ele>213.123655</ele>
        <time>2022-07-31T15:00:48.870Z</time>
      </trkpt>
      <trkpt lat="43.815" lon="1.44501">
        <ele>213.154094</ele>
        <time>2022-07-31T15:00:50.854Z</time>
      </trkpt>
      <trkpt lat="43.81504" lon="1.44487">
        <ele>213.183198</ele>
        <time>2022-07-31T15:00:52.844Z</time>
      </trkpt>
      <trkpt lat="43.81508" lon="1.44471">
        <ele>213.214224</ele>
        <time>2022-07-31T15:00:54.858Z</time>
      </trkpt>
      <trkpt lat="43.81513" lon="1.44456">
        <ele>213.244483</ele>
        <time>2022-07-31T15:00:56.854Z</time>
      </trkpt>
      <trkpt lat="43.81518" lon="1.44442">
        <ele>213.273914</ele>
        <time>2022-07-31T15:00:58.841Z</time>
      </trkpt>
      <trkpt lat="43.81524" lon="1.44428">
        <ele>213.31082</ele>
        <time>2022-07-31T15:01:00.857Z</time>
      </trkpt>
      <trkpt lat="43.81529" lon="1.44414">
        <ele>213.354089</ele>
        <time>2022-07-31T15:01:02.865Z</time>
      </trkpt>
      <trkpt lat="43.81534" lon="1.44399">
        <ele>213.399015</ele>
        <time>2022-07-31T15:01:04.840Z</time>
      </trkpt>
      <trkpt lat="43.81537" lon="1.44384">
        <ele>213.443025</ele>
        <time>2022-07-31T15:01:06.851Z</time>
      </trkpt>
      <trkpt lat="43.81537" lon="1.44368">
        <ele>213.485541</ele>
        <time>2022-07-31T15:01:08.845Z</time>
      </trkpt>
      <trkpt lat="43.81537" lon="1.44352">
        <ele>213.529744</ele>
        <time>2022-07-31T15:01:10.840Z</time>
      </trkpt>
      <trkpt lat="43.81543" lon="1.44339">
        <ele>213.574723</ele>
        <time>2022-07-31T15:01:12.851Z</time>
      </trkpt>
      <trkpt lat="43.81551" lon="1.44327">
        <ele>213.618662</ele>
        <time>2022-07-31T15:01:14.883Z</time>
      </trkpt>
      <trkpt lat="43.81557" lon="1.44313">
        <ele>213.664552</ele>
        <time>2022-07-31T15:01:16.879Z</time>
      </trkpt>
      <trkpt lat="43.81564" lon="1.443">
        <ele>213.708851</ele>
        <time>2022-07-31T15:01:18.856Z</time>
      </trkpt>
      <trkpt lat="43.81571" lon="1.44288">
        <ele>213.752288</ele>
        <time>2022-07-31T15:01:20.871Z</time>
      </trkpt>
      <trkpt lat="43.81578" lon="1.44275">
        <ele>213.79614</ele>
        <time>2022-07-31T15:01:22.865Z</time>
      </trkpt>
      <trkpt lat="43.81585" lon="1.44262">
        <ele>213.840465</ele>
        <time>2022-07-31T15:01:24.847Z</time>
      </trkpt>
      <trkpt lat="43.81593" lon="1.44251">
        <ele>213.882894</ele>
        <time>2022-07-31T15:01:26.844Z</time>
      </trkpt>
      <trkpt lat="43.816" lon="1.44241">
        <ele>213.92288</ele>
        <time>2022-07-31T15:01:28.847Z</time>
      </trkpt>
      <trkpt lat="43.81607" lon="1.44232">
        <ele>213.957939</ele>
        <time>2022-07-31T15:01:30.853Z</time>
      </trkpt>
      <trkpt lat="43.81599" lon="1.44223">
        <ele>213.977527</ele>
        <time>2022-07-31T15:01:35.836Z</time>
      </trkpt>
      <trkpt lat="43.81587" lon="1.44227">
        <ele>213.979824</ele>
        <time>2022-07-31T15:01:38.851Z</time>
      </trkpt>
      <trkpt lat="43.81578" lon="1.44232">
        <ele>213.981677</ele>
        <time>2022-07-31T15:01:40.872Z</time>
      </trkpt>
      <trkpt lat="43.81568" lon="1.44238">
        <ele>213.98375</ele>
        <time>2022-07-31T15:01:42.861Z</time>
      </trkpt>
      <trkpt lat="43.81557" lon="1.44245">
        <ele>213.986003</ele>
        <time>2022-07-31T15:01:44.869Z</time>
      </trkpt>
      <trkpt lat="43.81546" lon="1.44253">
        <ele>213.988327</ele>
        <time>2022-07-31T15:01:46.865Z</time>
      </trkpt>
      <trkpt lat="43.81535" lon="1.4426">
        <ele>213.990773</ele>
        <time>2022-07-31T15:01:48.853Z</time>
      </trkpt>
      <trkpt lat="43.81523" lon="1.44265">
        <ele>213.993104</ele>
        <time>2022-07-31T15:01:50.850Z</time>
      </trkpt>
      <trkpt lat="43.81511" lon="1.44272">
        <ele>213.995637</ele>
        <time>2022-07-31T15:01:52.859Z</time>
      </trkpt>
      <trkpt lat="43.81497" lon="1.44276">
        <ele>213.998269</ele>
        <time>2022-07-31T15:01:54.858Z</time>
      </trkpt>
      <trkpt lat="43.81484" lon="1.44279">
        <ele>214.000727</ele>
        <time>2022-07-31T15:01:56.837Z</time>
      </trkpt>
      <trkpt lat="43.81473" lon="1.4428">
        <ele>214.002945</ele>
        <time>2022-07-31T15:01:58.871Z</time>
      </trkpt>
      <trkpt lat="43.81461" lon="1.44282">
        <ele>214.005216</ele>
        <time>2022-07-31T15:02:00.867Z</time>
      </trkpt>
      <trkpt lat="43.81449" lon="1.44286">
        <ele>214.007509</ele>
        <time>2022-07-31T15:02:02.877Z</time>
      </trkpt>
      <trkpt lat="43.81438" lon="1.4429">
        <ele>214.00976</ele>
        <time>2022-07-31T15:02:04.885Z</time>
      </trkpt>
      <trkpt lat="43.81427" lon="1.44295">
        <ele>214.029592</ele>
        <time>2022-07-31T15:02:06.855Z</time>
      </trkpt>
      <trkpt lat="43.81416" lon="1.44299">
        <ele>214.066667</ele>
        <time>2022-07-31T15:02:08.852Z</time>
      </trkpt>
      <trkpt lat="43.81404" lon="1.44304">
        <ele>214.103619</ele>
        <time>2022-07-31T15:02:10.856Z</time>
      </trkpt>
      <trkpt lat="43.81393" lon="1.44308">
        <ele>214.141908</ele>
        <time>2022-07-31T15:02:12.863Z</time>
      </trkpt>
      <trkpt lat="43.81381" lon="1.44313">
        <ele>214.18045</ele>
        <time>2022-07-31T15:02:14.860Z</time>
      </trkpt>
      <trkpt lat="43.81369" lon="1.44318">
        <ele>214.219167</ele>
        <time>2022-07-31T15:02:16.844Z</time>
      </trkpt>
      <trkpt lat="43.81357" lon="1.44322">
        <ele>214.257883</ele>
        <time>2022-07-31T15:02:18.848Z</time>
      </trkpt>
      <trkpt lat="43.81345" lon="1.44327">
        <ele>214.297029</ele>
        <time>2022-07-31T15:02:20.853Z</time>
      </trkpt>
      <trkpt lat="43.81334" lon="1.44332">
        <ele>214.335683</ele>
        <time>2022-07-31T15:02:22.843Z</time>
      </trkpt>
      <trkpt lat="43.81322" lon="1.44337">
        <ele>214.374128</ele>
        <time>2022-07-31T15:02:24.840Z</time>
      </trkpt>
      <trkpt lat="43.8131" lon="1.44342">
        <ele>214.412114</ele>
        <time>2022-07-31T15:02:26.861Z</time>
      </trkpt>
      <trkpt lat="43.81299" lon="1.44346">
        <ele>214.450354</ele>
        <time>2022-07-31T15:02:28.844Z</time>
      </trkpt>
      <trkpt lat="43.81287" lon="1.44352">
        <ele>214.489031</ele>
        <time>2022-07-31T15:02:30.880Z</time>
      </trkpt>
      <trkpt lat="43.81275" lon="1.44357">
        <ele>214.527707</ele>
        <time>2022-07-31T15:02:32.863Z</time>
      </trkpt>
      <trkpt lat="43.81264" lon="1.44362">
        <ele>214.566617</ele>
        <time>2022-07-31T15:02:34.854Z</time>
      </trkpt>
      <trkpt lat="43.81252" lon="1.44367">
        <ele>214.576292</ele>
        <time>2022-07-31T15:02:36.865Z</time>
      </trkpt>
      <trkpt lat="43.8124" lon="1.44372">
        <ele>214.573847</ele>
        <time>2022-07-31T15:02:38.874Z</time>
      </trkpt>
      <trkpt lat="43.81228" lon="1.44378">
        <ele>214.571393</ele>
        <time>2022-07-31T15:02:40.877Z</time>
      </trkpt>
      <trkpt lat="43.81216" lon="1.44383">
        <ele>214.568935</ele>
        <time>2022-07-31T15:02:42.874Z</time>
      </trkpt>
      <trkpt lat="43.81204" lon="1.44388">
        <ele>214.5665</ele>
        <time>2022-07-31T15:02:44.854Z</time>
      </trkpt>
      <trkpt lat="43.81192" lon="1.44391">
        <ele>214.564066</ele>
        <time>2022-07-31T15:02:46.893Z</time>
      </trkpt>
      <trkpt lat="43.81179" lon="1.44392">
        <ele>214.561638</ele>
        <time>2022-07-31T15:02:48.843Z</time>
      </trkpt>
      <trkpt lat="43.81167" lon="1.44393">
        <ele>214.559215</ele>
        <time>2022-07-31T15:02:50.851Z</time>
      </trkpt>
      <trkpt lat="43.81154" lon="1.44392">
        <ele>214.556792</ele>
        <time>2022-07-31T15:02:52.834Z</time>
      </trkpt>
      <trkpt lat="43.81142" lon="1.44392">
        <ele>214.554332</ele>
        <time>2022-07-31T15:02:54.841Z</time>
      </trkpt>
      <trkpt lat="43.81129" lon="1.44392">
        <ele>214.551871</ele>
        <time>2022-07-31T15:02:56.873Z</time>
      </trkpt>
      <trkpt lat="43.81117" lon="1.44392">
        <ele>214.549411</ele>
        <time>2022-07-31T15:02:58.897Z</time>
      </trkpt>
      <trkpt lat="43.81104" lon="1.44393">
        <ele>214.54695</ele>
        <time>2022-07-31T15:03:00.859Z</time>
      </trkpt>
      <trkpt lat="43.81091" lon="1.44393">
        <ele>214.544489</ele>
        <time>2022-07-31T15:03:02.872Z</time>
      </trkpt>
      <trkpt lat="43.81079" lon="1.44393">
        <ele>214.526299</ele>
        <time>2022-07-31T15:03:04.879Z</time>
      </trkpt>
      <trkpt lat="43.81067" lon="1.44393">
        <ele>214.477453</ele>
        <time>2022-07-31T15:03:06.855Z</time>
      </trkpt>
      <trkpt lat="43.81054" lon="1.44393">
        <ele>214.428216</ele>
        <time>2022-07-31T15:03:08.860Z</time>
      </trkpt>
      <trkpt lat="43.81042" lon="1.44393">
        <ele>214.379764</ele>
        <time>2022-07-31T15:03:10.859Z</time>
      </trkpt>
      <trkpt lat="43.8103" lon="1.44395">
        <ele>214.331128</ele>
        <time>2022-07-31T15:03:12.857Z</time>
      </trkpt>
      <trkpt lat="43.81017" lon="1.44397">
        <ele>214.282161</ele>
        <time>2022-07-31T15:03:14.852Z</time>
      </trkpt>
      <trkpt lat="43.81005" lon="1.44402">
        <ele>214.232887</ele>
        <time>2022-07-31T15:03:16.874Z</time>
      </trkpt>
      <trkpt lat="43.80993" lon="1.44407">
        <ele>214.183362</ele>
        <time>2022-07-31T15:03:18.851Z</time>
      </trkpt>
      <trkpt lat="43.80981" lon="1.44412">
        <ele>214.13404</ele>
        <time>2022-07-31T15:03:20.858Z</time>
      </trkpt>
      <trkpt lat="43.80969" lon="1.44418">
        <ele>214.084516</ele>
        <time>2022-07-31T15:03:22.856Z</time>
      </trkpt>
      <trkpt lat="43.80957" lon="1.44423">
        <ele>214.034992</ele>
        <time>2022-07-31T15:03:24.881Z</time>
      </trkpt>
      <trkpt lat="43.80945" lon="1.44428">
        <ele>213.985206</ele>
        <time>2022-07-31T15:03:26.864Z</time>
      </trkpt>
      <trkpt lat="43.80933" lon="1.44434">
        <ele>213.935984</ele>
        <time>2022-07-31T15:03:28.866Z</time>
      </trkpt>
      <trkpt lat="43.80922" lon="1.4444">
        <ele>213.886572</ele>
        <time>2022-07-31T15:03:30.868Z</time>
      </trkpt>
      <trkpt lat="43.8091" lon="1.44445">
        <ele>213.837509</ele>
        <time>2022-07-31T15:03:32.861Z</time>
      </trkpt>
      <trkpt lat="43.80898" lon="1.4445">
        <ele>213.822269</ele>
        <time>2022-07-31T15:03:34.861Z</time>
      </trkpt>
      <trkpt lat="43.80886" lon="1.44455">
        <ele>213.80933</ele>
        <time>2022-07-31T15:03:36.863Z</time>
      </trkpt>
      <trkpt lat="43.80875" lon="1.44462">
        <ele>213.796892</ele>
        <time>2022-07-31T15:03:38.865Z</time>
      </trkpt>
      <trkpt lat="43.80864" lon="1.44462">
        <ele>213.78507</ele>
        <time>2022-07-31T15:03:41.836Z</time>
      </trkpt>
      <trkpt lat="43.80857" lon="1.44454">
        <ele>213.775195</ele>
        <time>2022-07-31T15:03:43.849Z</time>
      </trkpt>
      <trkpt lat="43.80848" lon="1.44444">
        <ele>213.763358</ele>
        <time>2022-07-31T15:03:45.859Z</time>
      </trkpt>
      <trkpt lat="43.80838" lon="1.44434">
        <ele>213.750723</ele>
        <time>2022-07-31T15:03:47.844Z</time>
      </trkpt>
      <trkpt lat="43.80827" lon="1.44427">
        <ele>213.737836</ele>
        <time>2022-07-31T15:03:49.857Z</time>
      </trkpt>
      <trkpt lat="43.80816" lon="1.44419">
        <ele>213.72517</ele>
        <time>2022-07-31T15:03:51.842Z</time>
      </trkpt>
      <trkpt lat="43.80805" lon="1.44412">
        <ele>213.712544</ele>
        <time>2022-07-31T15:03:53.876Z</time>
      </trkpt>
      <trkpt lat="43.80795" lon="1.44405">
        <ele>213.700108</ele>
        <time>2022-07-31T15:03:55.847Z</time>
      </trkpt>
      <trkpt lat="43.80784" lon="1.44397">
        <ele>213.687998</ele>
        <time>2022-07-31T15:03:57.864Z</time>
      </trkpt>
      <trkpt lat="43.80775" lon="1.4439">
        <ele>213.6762</ele>
        <time>2022-07-31T15:03:59.846Z</time>
      </trkpt>
      <trkpt lat="43.80765" lon="1.44382">
        <ele>213.664344</ele>
        <time>2022-07-31T15:04:01.851Z</time>
      </trkpt>
      <trkpt lat="43.80755" lon="1.44374">
        <ele>213.652307</ele>
        <time>2022-07-31T15:04:03.864Z</time>
      </trkpt>
      <trkpt lat="43.80745" lon="1.44365">
        <ele>213.717895</ele>
        <time>2022-07-31T15:04:05.841Z</time>
      </trkpt>
      <trkpt lat="43.80735" lon="1.44357">
        <ele>213.860238</ele>
        <time>2022-07-31T15:04:07.837Z</time>
      </trkpt>
      <trkpt lat="43.80725" lon="1.44349">
        <ele>213.99962</ele>
        <time>2022-07-31T15:04:09.830Z</time>
      </trkpt>
      <trkpt lat="43.80715" lon="1.44341">
        <ele>214.138712</ele>
        <time>2022-07-31T15:04:11.840Z</time>
      </trkpt>
      <trkpt lat="43.80705" lon="1.44332">
        <ele>214.282536</ele>
        <time>2022-07-31T15:04:13.847Z</time>
      </trkpt>
      <trkpt lat="43.80695" lon="1.44323">
        <ele>214.424769</ele>
        <time>2022-07-31T15:04:15.880Z</time>
      </trkpt>
      <trkpt lat="43.80685" lon="1.44315">
        <ele>214.565437</ele>
        <time>2022-07-31T15:04:17.866Z</time>
      </trkpt>
      <trkpt lat="43.80676" lon="1.44306">
        <ele>214.699638</ele>
        <time>2022-07-31T15:04:19.834Z</time>
      </trkpt>
      <trkpt lat="43.80666" lon="1.44298">
        <ele>214.832835</ele>
        <time>2022-07-31T15:04:21.868Z</time>
      </trkpt>
      <trkpt lat="43.80657" lon="1.44289">
        <ele>214.966506</ele>
        <time>2022-07-31T15:04:23.864Z</time>
      </trkpt>
      <trkpt lat="43.80648" lon="1.44279">
        <ele>215.105169</ele>
        <time>2022-07-31T15:04:25.844Z</time>
      </trkpt>
      <trkpt lat="43.80639" lon="1.4427">
        <ele>215.243998</ele>
        <time>2022-07-31T15:04:27.842Z</time>
      </trkpt>
      <trkpt lat="43.80629" lon="1.44259">
        <ele>215.389439</ele>
        <time>2022-07-31T15:04:29.841Z</time>
      </trkpt>
      <trkpt lat="43.8062" lon="1.44248">
        <ele>215.533203</ele>
        <time>2022-07-31T15:04:31.838Z</time>
      </trkpt>
      <trkpt lat="43.80611" lon="1.44237">
        <ele>215.678098</ele>
        <time>2022-07-31T15:04:33.853Z</time>
      </trkpt>
      <trkpt lat="43.80602" lon="1.44227">
        <ele>215.810686</ele>
        <time>2022-07-31T15:04:35.871Z</time>
      </trkpt>
      <trkpt lat="43.80593" lon="1.44216">
        <ele>215.778185</ele>
        <time>2022-07-31T15:04:37.829Z</time>
      </trkpt>
      <trkpt lat="43.80584" lon="1.44205">
        <ele>215.746088</ele>
        <time>2022-07-31T15:04:39.863Z</time>
      </trkpt>
      <trkpt lat="43.80575" lon="1.44194">
        <ele>215.713766</ele>
        <time>2022-07-31T15:04:41.860Z</time>
      </trkpt>
      <trkpt lat="43.80567" lon="1.44183">
        <ele>215.682648</ele>
        <time>2022-07-31T15:04:43.856Z</time>
      </trkpt>
      <trkpt lat="43.80558" lon="1.44173">
        <ele>215.651476</ele>
        <time>2022-07-31T15:04:45.855Z</time>
      </trkpt>
      <trkpt lat="43.80549" lon="1.44162">
        <ele>215.619711</ele>
        <time>2022-07-31T15:04:47.855Z</time>
      </trkpt>
      <trkpt lat="43.80541" lon="1.44152">
        <ele>215.589386</ele>
        <time>2022-07-31T15:04:49.863Z</time>
      </trkpt>
      <trkpt lat="43.80532" lon="1.44141">
        <ele>215.557752</ele>
        <time>2022-07-31T15:04:51.872Z</time>
      </trkpt>
      <trkpt lat="43.80523" lon="1.4413">
        <ele>215.525251</ele>
        <time>2022-07-31T15:04:53.840Z</time>
      </trkpt>
      <trkpt lat="43.80514" lon="1.44119">
        <ele>215.49262</ele>
        <time>2022-07-31T15:04:55.863Z</time>
      </trkpt>
      <trkpt lat="43.80505" lon="1.44108">
        <ele>215.460297</ele>
        <time>2022-07-31T15:04:57.860Z</time>
      </trkpt>
      <trkpt lat="43.80496" lon="1.44098">
        <ele>215.429384</ele>
        <time>2022-07-31T15:04:59.856Z</time>
      </trkpt>
      <trkpt lat="43.80488" lon="1.44088">
        <ele>215.399264</ele>
        <time>2022-07-31T15:05:01.852Z</time>
      </trkpt>
      <trkpt lat="43.80479" lon="1.44078">
        <ele>215.369144</ele>
        <time>2022-07-31T15:05:03.841Z</time>
      </trkpt>
      <trkpt lat="43.8047" lon="1.44068">
        <ele>215.337487</ele>
        <time>2022-07-31T15:05:05.864Z</time>
      </trkpt>
      <trkpt lat="43.80461" lon="1.44056">
        <ele>215.347957</ele>
        <time>2022-07-31T15:05:07.878Z</time>
      </trkpt>
      <trkpt lat="43.80452" lon="1.44045">
        <ele>215.379622</ele>
        <time>2022-07-31T15:05:09.857Z</time>
      </trkpt>
      <trkpt lat="43.80451" lon="1.44031">
        <ele>215.40805</ele>
        <time>2022-07-31T15:05:13.870Z</time>
      </trkpt>
      <trkpt lat="43.8046" lon="1.4402">
        <ele>215.439514</ele>
        <time>2022-07-31T15:05:16.852Z</time>
      </trkpt>
      <trkpt lat="43.80467" lon="1.44011">
        <ele>215.466407</ele>
        <time>2022-07-31T15:05:18.852Z</time>
      </trkpt>
      <trkpt lat="43.80473" lon="1.43999">
        <ele>215.495193</ele>
        <time>2022-07-31T15:05:20.862Z</time>
      </trkpt>
      <trkpt lat="43.8048" lon="1.43988">
        <ele>215.522499</ele>
        <time>2022-07-31T15:05:22.843Z</time>
      </trkpt>
      <trkpt lat="43.80474" lon="1.43971">
        <ele>215.559173</ele>
        <time>2022-07-31T15:05:25.869Z</time>
      </trkpt>
      <trkpt lat="43.80467" lon="1.4396">
        <ele>215.589107</ele>
        <time>2022-07-31T15:05:27.849Z</time>
      </trkpt>
      <trkpt lat="43.8046" lon="1.43948">
        <ele>215.619489</ele>
        <time>2022-07-31T15:05:29.851Z</time>
      </trkpt>
      <trkpt lat="43.80452" lon="1.43936">
        <ele>215.65102</ele>
        <time>2022-07-31T15:05:31.860Z</time>
      </trkpt>
      <trkpt lat="43.80444" lon="1.43923">
        <ele>215.683429</ele>
        <time>2022-07-31T15:05:33.858Z</time>
      </trkpt>
      <trkpt lat="43.80437" lon="1.4391">
        <ele>215.715212</ele>
        <time>2022-07-31T15:05:35.858Z</time>
      </trkpt>
      <trkpt lat="43.8043" lon="1.43897">
        <ele>215.746963</ele>
        <time>2022-07-31T15:05:37.854Z</time>
      </trkpt>
      <trkpt lat="43.80423" lon="1.43885">
        <ele>215.777456</ele>
        <time>2022-07-31T15:05:39.857Z</time>
      </trkpt>
      <trkpt lat="43.80416" lon="1.43872">
        <ele>215.808076</ele>
        <time>2022-07-31T15:05:41.879Z</time>
      </trkpt>
      <trkpt lat="43.80409" lon="1.4386">
        <ele>216.107116</ele>
        <time>2022-07-31T15:05:43.851Z</time>
      </trkpt>
      <trkpt lat="43.80402" lon="1.43849">
        <ele>216.428582</ele>
        <time>2022-07-31T15:05:45.847Z</time>
      </trkpt>
      <trkpt lat="43.80396" lon="1.43836">
        <ele>216.771567</ele>
        <time>2022-07-31T15:05:47.838Z</time>
      </trkpt>
      <trkpt lat="43.80389" lon="1.43824">
        <ele>217.118316</ele>
        <time>2022-07-31T15:05:49.837Z</time>
      </trkpt>
      <trkpt lat="43.80382" lon="1.43812">
        <ele>217.463526</ele>
        <time>2022-07-31T15:05:51.872Z</time>
      </trkpt>
      <trkpt lat="43.80375" lon="1.43799">
        <ele>217.810136</ele>
        <time>2022-07-31T15:05:53.848Z</time>
      </trkpt>
      <trkpt lat="43.80368" lon="1.43787">
        <ele>218.147873</ele>
        <time>2022-07-31T15:05:55.849Z</time>
      </trkpt>
      <trkpt lat="43.80361" lon="1.43776">
        <ele>218.480413</ele>
        <time>2022-07-31T15:05:57.860Z</time>
      </trkpt>
      <trkpt lat="43.80354" lon="1.43763">
        <ele>218.825272</ele>
        <time>2022-07-31T15:05:59.862Z</time>
      </trkpt>
      <trkpt lat="43.80347" lon="1.43751">
        <ele>219.166647</ele>
        <time>2022-07-31T15:06:01.859Z</time>
      </trkpt>
      <trkpt lat="43.8034" lon="1.4374">
        <ele>219.506732</ele>
        <time>2022-07-31T15:06:03.854Z</time>
      </trkpt>
      <trkpt lat="43.80333" lon="1.43728">
        <ele>219.832424</ele>
        <time>2022-07-31T15:06:05.858Z</time>
      </trkpt>
      <trkpt lat="43.80326" lon="1.43717">
        <ele>220.172794</ele>
        <time>2022-07-31T15:06:07.855Z</time>
      </trkpt>
      <trkpt lat="43.80319" lon="1.43707">
        <ele>220.485483</ele>
        <time>2022-07-31T15:06:09.855Z</time>
      </trkpt>
      <trkpt lat="43.80312" lon="1.43696">
        <ele>220.807711</ele>
        <time>2022-07-31T15:06:11.848Z</time>
      </trkpt>
      <trkpt lat="43.80305" lon="1.43684">
        <ele>221.142185</ele>
        <time>2022-07-31T15:06:13.873Z</time>
      </trkpt>
      <trkpt lat="43.80298" lon="1.43673">
        <ele>221.372153</ele>
        <time>2022-07-31T15:06:15.838Z</time>
      </trkpt>
      <trkpt lat="43.80291" lon="1.43659">
        <ele>221.49014</ele>
        <time>2022-07-31T15:06:18.865Z</time>
      </trkpt>
      <trkpt lat="43.80286" lon="1.43649">
        <ele>221.577502</ele>
        <time>2022-07-31T15:06:20.828Z</time>
      </trkpt>
      <trkpt lat="43.80278" lon="1.43637">
        <ele>221.689513</ele>
        <time>2022-07-31T15:06:23.865Z</time>
      </trkpt>
      <trkpt lat="43.80269" lon="1.43638">
        <ele>221.782622</ele>
        <time>2022-07-31T15:06:26.861Z</time>
      </trkpt>
      <trkpt lat="43.80261" lon="1.43645">
        <ele>221.876657</ele>
        <time>2022-07-31T15:06:28.845Z</time>
      </trkpt>
      <trkpt lat="43.80253" lon="1.43654">
        <ele>221.973958</ele>
        <time>2022-07-31T15:06:30.844Z</time>
      </trkpt>
      <trkpt lat="43.80244" lon="1.43662">
        <ele>222.080772</ele>
        <time>2022-07-31T15:06:33.843Z</time>
      </trkpt>
      <trkpt lat="43.80234" lon="1.4367">
        <ele>222.184116</ele>
        <time>2022-07-31T15:06:36.821Z</time>
      </trkpt>
      <trkpt lat="43.80223" lon="1.4367">
        <ele>222.298587</ele>
        <time>2022-07-31T15:06:39.850Z</time>
      </trkpt>
      <trkpt lat="43.80211" lon="1.43666">
        <ele>222.415384</ele>
        <time>2022-07-31T15:06:42.839Z</time>
      </trkpt>
      <trkpt lat="43.802" lon="1.43661">
        <ele>222.527114</ele>
        <time>2022-07-31T15:06:45.846Z</time>
      </trkpt>
      <trkpt lat="43.80191" lon="1.43653">
        <ele>222.632478</ele>
        <time>2022-07-31T15:06:48.865Z</time>
      </trkpt>
      <trkpt lat="43.80181" lon="1.43653">
        <ele>222.723583</ele>
        <time>2022-07-31T15:06:52.851Z</time>
      </trkpt>
      <trkpt lat="43.80171" lon="1.43648">
        <ele>222.833784</ele>
        <time>2022-07-31T15:06:55.839Z</time>
      </trkpt>
      <trkpt lat="43.80163" lon="1.4364">
        <ele>222.926625</ele>
        <time>2022-07-31T15:06:57.843Z</time>
      </trkpt>
      <trkpt lat="43.80155" lon="1.43633">
        <ele>223.019466</ele>
        <time>2022-07-31T15:06:59.846Z</time>
      </trkpt>
      <trkpt lat="43.80146" lon="1.43628">
        <ele>223.120569</ele>
        <time>2022-07-31T15:07:01.856Z</time>
      </trkpt>
      <trkpt lat="43.80137" lon="1.43624">
        <ele>223.231435</ele>
        <time>2022-07-31T15:07:03.840Z</time>
      </trkpt>
      <trkpt lat="43.80126" lon="1.43635">
        <ele>223.380424</ele>
        <time>2022-07-31T15:07:06.828Z</time>
      </trkpt>
      <trkpt lat="43.80123" lon="1.43648">
        <ele>223.490846</ele>
        <time>2022-07-31T15:07:08.860Z</time>
      </trkpt>
      <trkpt lat="43.80119" lon="1.43659">
        <ele>223.595893</ele>
        <time>2022-07-31T15:07:10.838Z</time>
      </trkpt>
      <trkpt lat="43.80113" lon="1.43668">
        <ele>223.700198</ele>
        <time>2022-07-31T15:07:12.843Z</time>
      </trkpt>
      <trkpt lat="43.801" lon="1.43668">
        <ele>223.850102</ele>
        <time>2022-07-31T15:07:15.858Z</time>
      </trkpt>
      <trkpt lat="43.80091" lon="1.43665">
        <ele>223.953443</ele>
        <time>2022-07-31T15:07:17.859Z</time>
      </trkpt>
      <trkpt lat="43.80082" lon="1.43661">
        <ele>224.063865</ele>
        <time>2022-07-31T15:07:19.842Z</time>
      </trkpt>
      <trkpt lat="43.80072" lon="1.43658">
        <ele>224.177391</ele>
        <time>2022-07-31T15:07:21.855Z</time>
      </trkpt>
      <trkpt lat="43.80063" lon="1.43654">
        <ele>224.291839</ele>
        <time>2022-07-31T15:07:23.858Z</time>
      </trkpt>
      <trkpt lat="43.80053" lon="1.43649">
        <ele>224.416078</ele>
        <time>2022-07-31T15:07:25.860Z</time>
      </trkpt>
      <trkpt lat="43.80043" lon="1.43645">
        <ele>224.538117</ele>
        <time>2022-07-31T15:07:27.844Z</time>
      </trkpt>
      <trkpt lat="43.80033" lon="1.4364">
        <ele>224.656294</ele>
        <time>2022-07-31T15:07:29.844Z</time>
      </trkpt>
      <trkpt lat="43.80024" lon="1.43634">
        <ele>224.767408</ele>
        <time>2022-07-31T15:07:31.839Z</time>
      </trkpt>
      <trkpt lat="43.80018" lon="1.4362">
        <ele>224.902418</ele>
        <time>2022-07-31T15:07:34.859Z</time>
      </trkpt>
      <trkpt lat="43.8002" lon="1.43607">
        <ele>225.014859</ele>
        <time>2022-07-31T15:07:36.863Z</time>
      </trkpt>
      <trkpt lat="43.80023" lon="1.43594">
        <ele>225.127973</ele>
        <time>2022-07-31T15:07:38.844Z</time>
      </trkpt>
      <trkpt lat="43.80017" lon="1.43583">
        <ele>225.213565</ele>
        <time>2022-07-31T15:07:41.850Z</time>
      </trkpt>
      <trkpt lat="43.80003" lon="1.43581">
        <ele>225.319903</ele>
        <time>2022-07-31T15:07:44.851Z</time>
      </trkpt>
      <trkpt lat="43.79993" lon="1.43577">
        <ele>225.39426</ele>
        <time>2022-07-31T15:07:46.837Z</time>
      </trkpt>
      <trkpt lat="43.79984" lon="1.43576">
        <ele>225.4658</ele>
        <time>2022-07-31T15:07:48.848Z</time>
      </trkpt>
      <trkpt lat="43.79975" lon="1.43569">
        <ele>225.541105</ele>
        <time>2022-07-31T15:07:50.837Z</time>
      </trkpt>
      <trkpt lat="43.79963" lon="1.43564">
        <ele>225.637302</ele>
        <time>2022-07-31T15:07:53.853Z</time>
      </trkpt>
      <trkpt lat="43.79953" lon="1.43562">
        <ele>225.712572</ele>
        <time>2022-07-31T15:07:55.840Z</time>
      </trkpt>
      <trkpt lat="43.79943" lon="1.43551">
        <ele>225.807468</ele>
        <time>2022-07-31T15:07:58.843Z</time>
      </trkpt>
      <trkpt lat="43.79941" lon="1.43538">
        <ele>225.881069</ele>
        <time>2022-07-31T15:08:00.850Z</time>
      </trkpt>
      <trkpt lat="43.79933" lon="1.43544">
        <ele>225.952541</ele>
        <time>2022-07-31T15:08:03.850Z</time>
      </trkpt>
      <trkpt lat="43.79928" lon="1.43558">
        <ele>226.038443</ele>
        <time>2022-07-31T15:08:06.853Z</time>
      </trkpt>
      <trkpt lat="43.79927" lon="1.43573">
        <ele>226.12121</ele>
        <time>2022-07-31T15:08:09.881Z</time>
      </trkpt>
      <trkpt lat="43.79919" lon="1.43581">
        <ele>226.199496</ele>
        <time>2022-07-31T15:08:13.857Z</time>
      </trkpt>
      <trkpt lat="43.79912" lon="1.43592">
        <ele>226.278906</ele>
        <time>2022-07-31T15:08:15.865Z</time>
      </trkpt>
      <trkpt lat="43.79901" lon="1.43596">
        <ele>226.363209</ele>
        <time>2022-07-31T15:08:18.834Z</time>
      </trkpt>
      <trkpt lat="43.79891" lon="1.43603">
        <ele>226.444856</ele>
        <time>2022-07-31T15:08:21.839Z</time>
      </trkpt>
      <trkpt lat="43.79886" lon="1.43618">
        <ele>226.5612</ele>
        <time>2022-07-31T15:08:24.842Z</time>
      </trkpt>
      <trkpt lat="43.79881" lon="1.43633">
        <ele>226.748408</ele>
        <time>2022-07-31T15:08:27.843Z</time>
      </trkpt>
      <trkpt lat="43.79877" lon="1.43644">
        <ele>226.892551</ele>
        <time>2022-07-31T15:08:29.842Z</time>
      </trkpt>
      <trkpt lat="43.79866" lon="1.43653">
        <ele>227.083636</ele>
        <time>2022-07-31T15:08:32.854Z</time>
      </trkpt>
      <trkpt lat="43.79857" lon="1.43653">
        <ele>227.239498</ele>
        <time>2022-07-31T15:08:34.848Z</time>
      </trkpt>
      <trkpt lat="43.79847" lon="1.43654">
        <ele>227.386166</ele>
        <time>2022-07-31T15:08:36.862Z</time>
      </trkpt>
      <trkpt lat="43.79838" lon="1.43661">
        <ele>227.557278</ele>
        <time>2022-07-31T15:08:38.851Z</time>
      </trkpt>
      <trkpt lat="43.7983" lon="1.43668">
        <ele>227.705662</ele>
        <time>2022-07-31T15:08:40.850Z</time>
      </trkpt>
      <trkpt lat="43.79821" lon="1.43676">
        <ele>227.870568</ele>
        <time>2022-07-31T15:08:42.841Z</time>
      </trkpt>
      <trkpt lat="43.79811" lon="1.4368">
        <ele>228.040991</ele>
        <time>2022-07-31T15:08:44.932Z</time>
      </trkpt>
      <trkpt lat="43.79801" lon="1.43671">
        <ele>228.23196</ele>
        <time>2022-07-31T15:08:47.832Z</time>
      </trkpt>
      <trkpt lat="43.79795" lon="1.43658">
        <ele>228.41069</ele>
        <time>2022-07-31T15:08:49.865Z</time>
      </trkpt>
      <trkpt lat="43.7979" lon="1.43647">
        <ele>228.562001</ele>
        <time>2022-07-31T15:08:51.854Z</time>
      </trkpt>
      <trkpt lat="43.79781" lon="1.43639">
        <ele>228.734572</ele>
        <time>2022-07-31T15:08:53.838Z</time>
      </trkpt>
      <trkpt lat="43.79774" lon="1.43629">
        <ele>228.887658</ele>
        <time>2022-07-31T15:08:55.841Z</time>
      </trkpt>
      <trkpt lat="43.79767" lon="1.43621">
        <ele>229.039586</ele>
        <time>2022-07-31T15:08:58.846Z</time>
      </trkpt>
      <trkpt lat="43.79757" lon="1.43615">
        <ele>229.203504</ele>
        <time>2022-07-31T15:09:02.856Z</time>
      </trkpt>
      <trkpt lat="43.79748" lon="1.43622">
        <ele>229.367639</ele>
        <time>2022-07-31T15:09:04.844Z</time>
      </trkpt>
      <trkpt lat="43.79738" lon="1.43628">
        <ele>229.533351</ele>
        <time>2022-07-31T15:09:06.844Z</time>
      </trkpt>
      <trkpt lat="43.79728" lon="1.43634">
        <ele>229.700448</ele>
        <time>2022-07-31T15:09:08.866Z</time>
      </trkpt>
      <trkpt lat="43.79718" lon="1.43641">
        <ele>229.874826</ele>
        <time>2022-07-31T15:09:10.861Z</time>
      </trkpt>
      <trkpt lat="43.79709" lon="1.43648">
        <ele>230.048684</ele>
        <time>2022-07-31T15:09:12.855Z</time>
      </trkpt>
      <trkpt lat="43.79699" lon="1.43655">
        <ele>230.219119</ele>
        <time>2022-07-31T15:09:14.850Z</time>
      </trkpt>
      <trkpt lat="43.79689" lon="1.43662">
        <ele>230.383648</ele>
        <time>2022-07-31T15:09:16.842Z</time>
      </trkpt>
      <trkpt lat="43.7968" lon="1.43669">
        <ele>230.546527</ele>
        <time>2022-07-31T15:09:18.840Z</time>
      </trkpt>
      <trkpt lat="43.79671" lon="1.43676">
        <ele>230.714588</ele>
        <time>2022-07-31T15:09:20.852Z</time>
      </trkpt>
      <trkpt lat="43.79662" lon="1.43683">
        <ele>230.882649</ele>
        <time>2022-07-31T15:09:22.834Z</time>
      </trkpt>
      <trkpt lat="43.79652" lon="1.4369">
        <ele>231.047837</ele>
        <time>2022-07-31T15:09:24.838Z</time>
      </trkpt>
      <trkpt lat="43.79643" lon="1.43695">
        <ele>231.196037</ele>
        <time>2022-07-31T15:09:26.852Z</time>
      </trkpt>
      <trkpt lat="43.79634" lon="1.437">
        <ele>231.352985</ele>
        <time>2022-07-31T15:09:29.849Z</time>
      </trkpt>
      <trkpt lat="43.79612" lon="1.43688">
        <ele>231.718243</ele>
        <time>2022-07-31T15:10:08.849Z</time>
      </trkpt>
      <trkpt lat="43.79603" lon="1.43682">
        <ele>231.880609</ele>
        <time>2022-07-31T15:10:10.845Z</time>
      </trkpt>
      <trkpt lat="43.79591" lon="1.43676">
        <ele>232.073062</ele>
        <time>2022-07-31T15:10:13.860Z</time>
      </trkpt>
      <trkpt lat="43.79582" lon="1.43672">
        <ele>232.231234</ele>
        <time>2022-07-31T15:10:15.849Z</time>
      </trkpt>
      <trkpt lat="43.79569" lon="1.43668">
        <ele>232.485017</ele>
        <time>2022-07-31T15:10:18.830Z</time>
      </trkpt>
      <trkpt lat="43.79563" lon="1.43658">
        <ele>232.66277</ele>
        <time>2022-07-31T15:10:21.854Z</time>
      </trkpt>
      <trkpt lat="43.79561" lon="1.43643">
        <ele>232.883656</ele>
        <time>2022-07-31T15:10:24.840Z</time>
      </trkpt>
      <trkpt lat="43.79557" lon="1.43627">
        <ele>233.113852</ele>
        <time>2022-07-31T15:10:26.842Z</time>
      </trkpt>
      <trkpt lat="43.79559" lon="1.43617">
        <ele>235.024802</ele>
        <time>2022-07-31T15:11:05.845Z</time>
      </trkpt>
      <trkpt lat="43.79547" lon="1.43619">
        <ele>235.245394</ele>
        <time>2022-07-31T15:11:14.846Z</time>
      </trkpt>
      <trkpt lat="43.79535" lon="1.43621">
        <ele>235.495226</ele>
        <time>2022-07-31T15:11:18.843Z</time>
      </trkpt>
      <trkpt lat="43.79523" lon="1.43625">
        <ele>235.770252</ele>
        <time>2022-07-31T15:11:21.850Z</time>
      </trkpt>
      <trkpt lat="43.79514" lon="1.43625">
        <ele>236.03364</ele>
        <time>2022-07-31T15:11:23.835Z</time>
      </trkpt>
      <trkpt lat="43.79501" lon="1.43622">
        <ele>236.397461</ele>
        <time>2022-07-31T15:11:26.851Z</time>
      </trkpt>
      <trkpt lat="43.79492" lon="1.43617">
        <ele>236.66891</ele>
        <time>2022-07-31T15:11:28.838Z</time>
      </trkpt>
      <trkpt lat="43.79482" lon="1.4361">
        <ele>237.010278</ele>
        <time>2022-07-31T15:11:31.833Z</time>
      </trkpt>
      <trkpt lat="43.79472" lon="1.436">
        <ele>237.356154</ele>
        <time>2022-07-31T15:11:34.856Z</time>
      </trkpt>
      <trkpt lat="43.79463" lon="1.43591">
        <ele>237.669218</ele>
        <time>2022-07-31T15:11:37.844Z</time>
      </trkpt>
      <trkpt lat="43.79453" lon="1.4358">
        <ele>238.034147</ele>
        <time>2022-07-31T15:11:40.865Z</time>
      </trkpt>
      <trkpt lat="43.79442" lon="1.43576">
        <ele>238.350271</ele>
        <time>2022-07-31T15:11:43.854Z</time>
      </trkpt>
      <trkpt lat="43.79434" lon="1.4357">
        <ele>238.625931</ele>
        <time>2022-07-31T15:11:45.837Z</time>
      </trkpt>
      <trkpt lat="43.79427" lon="1.43559">
        <ele>238.930863</ele>
        <time>2022-07-31T15:11:48.837Z</time>
      </trkpt>
      <trkpt lat="43.79423" lon="1.43543">
        <ele>239.277096</ele>
        <time>2022-07-31T15:11:51.833Z</time>
      </trkpt>
      <trkpt lat="43.79418" lon="1.43533">
        <ele>239.537146</ele>
        <time>2022-07-31T15:11:53.839Z</time>
      </trkpt>
      <trkpt lat="43.79411" lon="1.4352">
        <ele>239.864136</ele>
        <time>2022-07-31T15:11:56.849Z</time>
      </trkpt>
      <trkpt lat="43.79402" lon="1.43516">
        <ele>240.123845</ele>
        <time>2022-07-31T15:11:59.831Z</time>
      </trkpt>
      <trkpt lat="43.79392" lon="1.43524">
        <ele>240.463853</ele>
        <time>2022-07-31T15:12:03.840Z</time>
      </trkpt>
      <trkpt lat="43.79379" lon="1.4353">
        <ele>240.909639</ele>
        <time>2022-07-31T15:12:06.825Z</time>
      </trkpt>
      <trkpt lat="43.79372" lon="1.43539">
        <ele>241.359673</ele>
        <time>2022-07-31T15:12:10.857Z</time>
      </trkpt>
      <trkpt lat="43.79365" lon="1.43547">
        <ele>241.844027</ele>
        <time>2022-07-31T15:12:13.839Z</time>
      </trkpt>
      <trkpt lat="43.79354" lon="1.43543">
        <ele>242.39335</ele>
        <time>2022-07-31T15:12:16.858Z</time>
      </trkpt>
      <trkpt lat="43.79344" lon="1.4354">
        <ele>242.869729</ele>
        <time>2022-07-31T15:12:18.839Z</time>
      </trkpt>
      <trkpt lat="43.79333" lon="1.43544">
        <ele>243.440048</ele>
        <time>2022-07-31T15:12:21.854Z</time>
      </trkpt>
      <trkpt lat="43.79324" lon="1.43549">
        <ele>243.918802</ele>
        <time>2022-07-31T15:12:24.848Z</time>
      </trkpt>
      <trkpt lat="43.79317" lon="1.43566">
        <ele>244.594794</ele>
        <time>2022-07-31T15:12:27.826Z</time>
      </trkpt>
      <trkpt lat="43.79306" lon="1.43573">
        <ele>245.179281</ele>
        <time>2022-07-31T15:12:30.826Z</time>
      </trkpt>
      <trkpt lat="43.79296" lon="1.43567">
        <ele>245.73656</ele>
        <time>2022-07-31T15:12:35.843Z</time>
      </trkpt>
      <trkpt lat="43.79287" lon="1.43561">
        <ele>246.223274</ele>
        <time>2022-07-31T15:12:38.857Z</time>
      </trkpt>
      <trkpt lat="43.79278" lon="1.43555">
        <ele>246.693059</ele>
        <time>2022-07-31T15:12:40.831Z</time>
      </trkpt>
      <trkpt lat="43.79269" lon="1.4355">
        <ele>247.209538</ele>
        <time>2022-07-31T15:12:43.836Z</time>
      </trkpt>
      <trkpt lat="43.79257" lon="1.43543">
        <ele>247.818407</ele>
        <time>2022-07-31T15:12:46.841Z</time>
      </trkpt>
      <trkpt lat="43.79249" lon="1.43539">
        <ele>248.262766</ele>
        <time>2022-07-31T15:12:48.840Z</time>
      </trkpt>
      <trkpt lat="43.79238" lon="1.43531">
        <ele>248.874478</ele>
        <time>2022-07-31T15:12:51.845Z</time>
      </trkpt>
      <trkpt lat="43.79228" lon="1.43524">
        <ele>249.402196</ele>
        <time>2022-07-31T15:12:53.834Z</time>
      </trkpt>
      <trkpt lat="43.7922" lon="1.43516">
        <ele>249.759509</ele>
        <time>2022-07-31T15:12:55.845Z</time>
      </trkpt>
      <trkpt lat="43.79219" lon="1.43498">
        <ele>250.148366</ele>
        <time>2022-07-31T15:12:58.856Z</time>
      </trkpt>
      <trkpt lat="43.79224" lon="1.43488">
        <ele>250.424346</ele>
        <time>2022-07-31T15:13:00.853Z</time>
      </trkpt>
      <trkpt lat="43.79229" lon="1.43477">
        <ele>250.70776</ele>
        <time>2022-07-31T15:13:02.855Z</time>
      </trkpt>
      <trkpt lat="43.79235" lon="1.4346">
        <ele>251.107663</ele>
        <time>2022-07-31T15:13:04.864Z</time>
      </trkpt>
      <trkpt lat="43.79239" lon="1.43449">
        <ele>251.385996</ele>
        <time>2022-07-31T15:13:06.848Z</time>
      </trkpt>
      <trkpt lat="43.79244" lon="1.43436">
        <ele>251.70892</ele>
        <time>2022-07-31T15:13:08.849Z</time>
      </trkpt>
      <trkpt lat="43.79249" lon="1.43425">
        <ele>251.991076</ele>
        <time>2022-07-31T15:13:10.834Z</time>
      </trkpt>
      <trkpt lat="43.79252" lon="1.43413">
        <ele>252.264801</ele>
        <time>2022-07-31T15:13:12.832Z</time>
      </trkpt>
      <trkpt lat="43.79256" lon="1.43388">
        <ele>252.828383</ele>
        <time>2022-07-31T15:13:15.843Z</time>
      </trkpt>
      <trkpt lat="43.79259" lon="1.43371">
        <ele>253.201202</ele>
        <time>2022-07-31T15:13:18.834Z</time>
      </trkpt>
      <trkpt lat="43.79253" lon="1.43354">
        <ele>253.600376</ele>
        <time>2022-07-31T15:13:20.857Z</time>
      </trkpt>
      <trkpt lat="43.79244" lon="1.43346">
        <ele>253.928776</ele>
        <time>2022-07-31T15:13:22.851Z</time>
      </trkpt>
      <trkpt lat="43.79234" lon="1.4334">
        <ele>254.249677</ele>
        <time>2022-07-31T15:13:25.844Z</time>
      </trkpt>
      <trkpt lat="43.79225" lon="1.43335">
        <ele>254.529612</ele>
        <time>2022-07-31T15:13:27.849Z</time>
      </trkpt>
      <trkpt lat="43.79212" lon="1.43326">
        <ele>254.964042</ele>
        <time>2022-07-31T15:13:30.841Z</time>
      </trkpt>
      <trkpt lat="43.79202" lon="1.4332">
        <ele>255.966879</ele>
        <time>2022-07-31T15:13:33.825Z</time>
      </trkpt>
      <trkpt lat="43.79193" lon="1.43314">
        <ele>256.868724</ele>
        <time>2022-07-31T15:13:35.848Z</time>
      </trkpt>
      <trkpt lat="43.79183" lon="1.43308">
        <ele>257.957362</ele>
        <time>2022-07-31T15:13:38.867Z</time>
      </trkpt>
      <trkpt lat="43.79174" lon="1.43302">
        <ele>258.811039</ele>
        <time>2022-07-31T15:13:40.839Z</time>
      </trkpt>
      <trkpt lat="43.79163" lon="1.43295">
        <ele>259.967263</ele>
        <time>2022-07-31T15:13:43.851Z</time>
      </trkpt>
      <trkpt lat="43.79152" lon="1.43289">
        <ele>261.106798</ele>
        <time>2022-07-31T15:13:47.844Z</time>
      </trkpt>
      <trkpt lat="43.79142" lon="1.43281">
        <ele>262.164725</ele>
        <time>2022-07-31T15:13:50.854Z</time>
      </trkpt>
      <trkpt lat="43.79133" lon="1.43277">
        <ele>263.071885</ele>
        <time>2022-07-31T15:13:53.845Z</time>
      </trkpt>
      <trkpt lat="43.79122" lon="1.43271">
        <ele>264.144034</ele>
        <time>2022-07-31T15:13:56.854Z</time>
      </trkpt>
      <trkpt lat="43.79111" lon="1.43264">
        <ele>265.249367</ele>
        <time>2022-07-31T15:13:59.848Z</time>
      </trkpt>
      <trkpt lat="43.79103" lon="1.43255">
        <ele>266.263592</ele>
        <time>2022-07-31T15:14:02.847Z</time>
      </trkpt>
      <trkpt lat="43.79097" lon="1.43243">
        <ele>267.220605</ele>
        <time>2022-07-31T15:14:05.870Z</time>
      </trkpt>
      <trkpt lat="43.7909" lon="1.43234">
        <ele>268.154042</ele>
        <time>2022-07-31T15:14:08.843Z</time>
      </trkpt>
      <trkpt lat="43.7908" lon="1.43226">
        <ele>269.157348</ele>
        <time>2022-07-31T15:14:11.849Z</time>
      </trkpt>
      <trkpt lat="43.79071" lon="1.43219">
        <ele>270.124771</ele>
        <time>2022-07-31T15:14:14.838Z</time>
      </trkpt>
      <trkpt lat="43.79062" lon="1.43213">
        <ele>271.097242</ele>
        <time>2022-07-31T15:14:17.856Z</time>
      </trkpt>
      <trkpt lat="43.79052" lon="1.43209">
        <ele>271.905995</ele>
        <time>2022-07-31T15:14:20.839Z</time>
      </trkpt>
      <trkpt lat="43.79041" lon="1.43209">
        <ele>272.379884</ele>
        <time>2022-07-31T15:14:23.836Z</time>
      </trkpt>
      <trkpt lat="43.79029" lon="1.43207">
        <ele>272.869078</ele>
        <time>2022-07-31T15:14:26.835Z</time>
      </trkpt>
      <trkpt lat="43.79017" lon="1.43205">
        <ele>273.35604</ele>
        <time>2022-07-31T15:14:29.841Z</time>
      </trkpt>
      <trkpt lat="43.79006" lon="1.43202">
        <ele>273.837166</ele>
        <time>2022-07-31T15:14:32.843Z</time>
      </trkpt>
      <trkpt lat="43.78995" lon="1.43199">
        <ele>274.304985</ele>
        <time>2022-07-31T15:14:35.829Z</time>
      </trkpt>
      <trkpt lat="43.78983" lon="1.43195">
        <ele>274.810534</ele>
        <time>2022-07-31T15:14:38.843Z</time>
      </trkpt>
      <trkpt lat="43.7897" lon="1.4319">
        <ele>275.355199</ele>
        <time>2022-07-31T15:14:41.829Z</time>
      </trkpt>
      <trkpt lat="43.78961" lon="1.43186">
        <ele>275.749855</ele>
        <time>2022-07-31T15:14:43.834Z</time>
      </trkpt>
      <trkpt lat="43.78952" lon="1.43181">
        <ele>276.162279</ele>
        <time>2022-07-31T15:14:45.859Z</time>
      </trkpt>
      <trkpt lat="43.78942" lon="1.43176">
        <ele>276.594234</ele>
        <time>2022-07-31T15:14:47.829Z</time>
      </trkpt>
      <trkpt lat="43.78932" lon="1.43171">
        <ele>277.043861</ele>
        <time>2022-07-31T15:14:49.843Z</time>
      </trkpt>
      <trkpt lat="43.78922" lon="1.43166">
        <ele>277.493225</ele>
        <time>2022-07-31T15:14:51.836Z</time>
      </trkpt>
      <trkpt lat="43.78913" lon="1.4316">
        <ele>277.920849</ele>
        <time>2022-07-31T15:14:53.830Z</time>
      </trkpt>
      <trkpt lat="43.78903" lon="1.43155">
        <ele>278.336171</ele>
        <time>2022-07-31T15:14:55.853Z</time>
      </trkpt>
      <trkpt lat="43.78894" lon="1.43151">
        <ele>278.731795</ele>
        <time>2022-07-31T15:14:57.840Z</time>
      </trkpt>
      <trkpt lat="43.78883" lon="1.43142">
        <ele>279.247381</ele>
        <time>2022-07-31T15:15:00.842Z</time>
      </trkpt>
      <trkpt lat="43.78873" lon="1.43133">
        <ele>279.226836</ele>
        <time>2022-07-31T15:15:03.844Z</time>
      </trkpt>
      <trkpt lat="43.78861" lon="1.43124">
        <ele>279.187401</ele>
        <time>2022-07-31T15:15:06.832Z</time>
      </trkpt>
      <trkpt lat="43.78852" lon="1.43117">
        <ele>279.159218</ele>
        <time>2022-07-31T15:15:08.858Z</time>
      </trkpt>
      <trkpt lat="43.78843" lon="1.43109">
        <ele>279.128624</ele>
        <time>2022-07-31T15:15:10.858Z</time>
      </trkpt>
      <trkpt lat="43.78834" lon="1.43101">
        <ele>279.097227</ele>
        <time>2022-07-31T15:15:12.852Z</time>
      </trkpt>
      <trkpt lat="43.78825" lon="1.43093">
        <ele>279.065924</ele>
        <time>2022-07-31T15:15:14.843Z</time>
      </trkpt>
      <trkpt lat="43.78817" lon="1.43085">
        <ele>279.037366</ele>
        <time>2022-07-31T15:15:16.846Z</time>
      </trkpt>
      <trkpt lat="43.78808" lon="1.43076">
        <ele>279.006023</ele>
        <time>2022-07-31T15:15:18.854Z</time>
      </trkpt>
      <trkpt lat="43.78799" lon="1.43067">
        <ele>278.971789</ele>
        <time>2022-07-31T15:15:20.842Z</time>
      </trkpt>
      <trkpt lat="43.7879" lon="1.43058">
        <ele>278.940754</ele>
        <time>2022-07-31T15:15:22.840Z</time>
      </trkpt>
      <trkpt lat="43.78781" lon="1.43049">
        <ele>278.910421</ele>
        <time>2022-07-31T15:15:24.855Z</time>
      </trkpt>
      <trkpt lat="43.78773" lon="1.43043">
        <ele>278.882131</ele>
        <time>2022-07-31T15:15:26.849Z</time>
      </trkpt>
      <trkpt lat="43.78762" lon="1.43036">
        <ele>278.848903</ele>
        <time>2022-07-31T15:15:28.852Z</time>
      </trkpt>
      <trkpt lat="43.78751" lon="1.43028">
        <ele>278.812193</ele>
        <time>2022-07-31T15:15:30.854Z</time>
      </trkpt>
      <trkpt lat="43.78741" lon="1.4302">
        <ele>278.778053</ele>
        <time>2022-07-31T15:15:32.854Z</time>
      </trkpt>
      <trkpt lat="43.78739" lon="1.43007">
        <ele>278.750203</ele>
        <time>2022-07-31T15:15:37.835Z</time>
      </trkpt>
      <trkpt lat="43.78748" lon="1.43001">
        <ele>278.673978</ele>
        <time>2022-07-31T15:15:40.866Z</time>
      </trkpt>
      <trkpt lat="43.78759" lon="1.42992">
        <ele>278.555143</ele>
        <time>2022-07-31T15:15:43.901Z</time>
      </trkpt>
      <trkpt lat="43.78766" lon="1.42986">
        <ele>278.467087</ele>
        <time>2022-07-31T15:15:45.864Z</time>
      </trkpt>
      <trkpt lat="43.78774" lon="1.42977">
        <ele>278.373014</ele>
        <time>2022-07-31T15:15:47.849Z</time>
      </trkpt>
      <trkpt lat="43.7878" lon="1.42968">
        <ele>278.281549</ele>
        <time>2022-07-31T15:15:49.833Z</time>
      </trkpt>
      <trkpt lat="43.78788" lon="1.42958">
        <ele>278.182723</ele>
        <time>2022-07-31T15:15:51.830Z</time>
      </trkpt>
      <trkpt lat="43.78794" lon="1.42949">
        <ele>278.092636</ele>
        <time>2022-07-31T15:15:53.869Z</time>
      </trkpt>
      <trkpt lat="43.78802" lon="1.42936">
        <ele>277.979665</ele>
        <time>2022-07-31T15:15:55.852Z</time>
      </trkpt>
      <trkpt lat="43.78808" lon="1.42922">
        <ele>277.866746</ele>
        <time>2022-07-31T15:15:57.851Z</time>
      </trkpt>
      <trkpt lat="43.78813" lon="1.42909">
        <ele>277.756321</ele>
        <time>2022-07-31T15:15:59.829Z</time>
      </trkpt>
      <trkpt lat="43.78819" lon="1.42895">
        <ele>277.647433</ele>
        <time>2022-07-31T15:16:01.846Z</time>
      </trkpt>
      <trkpt lat="43.78823" lon="1.4288">
        <ele>277.534127</ele>
        <time>2022-07-31T15:16:03.842Z</time>
      </trkpt>
      <trkpt lat="43.78828" lon="1.42864">
        <ele>277.409896</ele>
        <time>2022-07-31T15:16:05.852Z</time>
      </trkpt>
      <trkpt lat="43.78834" lon="1.42848">
        <ele>277.290964</ele>
        <time>2022-07-31T15:16:07.862Z</time>
      </trkpt>
      <trkpt lat="43.78839" lon="1.42833">
        <ele>277.169663</ele>
        <time>2022-07-31T15:16:09.860Z</time>
      </trkpt>
      <trkpt lat="43.78847" lon="1.42817">
        <ele>277.036893</ele>
        <time>2022-07-31T15:16:11.856Z</time>
      </trkpt>
      <trkpt lat="43.78854" lon="1.428">
        <ele>276.970958</ele>
        <time>2022-07-31T15:16:13.845Z</time>
      </trkpt>
      <trkpt lat="43.78861" lon="1.42782">
        <ele>276.923882</ele>
        <time>2022-07-31T15:16:15.864Z</time>
      </trkpt>
      <trkpt lat="43.78867" lon="1.42767">
        <ele>276.882975</ele>
        <time>2022-07-31T15:16:17.849Z</time>
      </trkpt>
      <trkpt lat="43.78874" lon="1.42752">
        <ele>276.842429</ele>
        <time>2022-07-31T15:16:19.833Z</time>
      </trkpt>
      <trkpt lat="43.7888" lon="1.42737">
        <ele>276.803983</ele>
        <time>2022-07-31T15:16:21.844Z</time>
      </trkpt>
      <trkpt lat="43.78885" lon="1.42722">
        <ele>276.766423</ele>
        <time>2022-07-31T15:16:23.850Z</time>
      </trkpt>
      <trkpt lat="43.7889" lon="1.42708">
        <ele>276.729618</ele>
        <time>2022-07-31T15:16:25.844Z</time>
      </trkpt>
      <trkpt lat="43.78895" lon="1.42693">
        <ele>276.693267</ele>
        <time>2022-07-31T15:16:27.846Z</time>
      </trkpt>
      <trkpt lat="43.78898" lon="1.42678">
        <ele>276.657602</ele>
        <time>2022-07-31T15:16:29.857Z</time>
      </trkpt>
      <trkpt lat="43.789" lon="1.42663">
        <ele>276.622114</ele>
        <time>2022-07-31T15:16:31.843Z</time>
      </trkpt>
      <trkpt lat="43.789" lon="1.42646">
        <ele>276.584997</ele>
        <time>2022-07-31T15:16:33.845Z</time>
      </trkpt>
      <trkpt lat="43.78901" lon="1.42631">
        <ele>276.549315</ele>
        <time>2022-07-31T15:16:35.831Z</time>
      </trkpt>
      <trkpt lat="43.78901" lon="1.42615">
        <ele>276.513426</ele>
        <time>2022-07-31T15:16:37.851Z</time>
      </trkpt>
      <trkpt lat="43.78901" lon="1.426">
        <ele>276.479365</ele>
        <time>2022-07-31T15:16:39.837Z</time>
      </trkpt>
      <trkpt lat="43.78899" lon="1.42587">
        <ele>276.449094</ele>
        <time>2022-07-31T15:16:41.833Z</time>
      </trkpt>
      <trkpt lat="43.7889" lon="1.42581">
        <ele>275.985876</ele>
        <time>2022-07-31T15:16:43.860Z</time>
      </trkpt>
      <trkpt lat="43.78878" lon="1.42579">
        <ele>274.926274</ele>
        <time>2022-07-31T15:16:45.831Z</time>
      </trkpt>
      <trkpt lat="43.78864" lon="1.42576">
        <ele>273.704807</ele>
        <time>2022-07-31T15:16:47.848Z</time>
      </trkpt>
      <trkpt lat="43.78849" lon="1.42572">
        <ele>272.310168</ele>
        <time>2022-07-31T15:16:49.848Z</time>
      </trkpt>
      <trkpt lat="43.7883" lon="1.42569">
        <ele>270.728418</ele>
        <time>2022-07-31T15:16:51.829Z</time>
      </trkpt>
      <trkpt lat="43.78821" lon="1.42568">
        <ele>269.875005</ele>
        <time>2022-07-31T15:16:52.841Z</time>
      </trkpt>
      <trkpt lat="43.7881" lon="1.42568">
        <ele>268.964777</ele>
        <time>2022-07-31T15:16:53.843Z</time>
      </trkpt>
      <trkpt lat="43.78799" lon="1.42568">
        <ele>268.028481</ele>
        <time>2022-07-31T15:16:54.851Z</time>
      </trkpt>
      <trkpt lat="43.78788" lon="1.42569">
        <ele>267.056304</ele>
        <time>2022-07-31T15:16:55.880Z</time>
      </trkpt>
      <trkpt lat="43.78776" lon="1.4257">
        <ele>266.032926</ele>
        <time>2022-07-31T15:16:56.853Z</time>
      </trkpt>
      <trkpt lat="43.78764" lon="1.4257">
        <ele>264.9229</ele>
        <time>2022-07-31T15:16:57.843Z</time>
      </trkpt>
      <trkpt lat="43.78751" lon="1.42569">
        <ele>263.863477</ele>
        <time>2022-07-31T15:16:58.825Z</time>
      </trkpt>
      <trkpt lat="43.78739" lon="1.42567">
        <ele>262.811542</ele>
        <time>2022-07-31T15:16:59.824Z</time>
      </trkpt>
      <trkpt lat="43.78727" lon="1.42563">
        <ele>261.745847</ele>
        <time>2022-07-31T15:17:00.850Z</time>
      </trkpt>
      <trkpt lat="43.78716" lon="1.42558">
        <ele>260.771573</ele>
        <time>2022-07-31T15:17:01.848Z</time>
      </trkpt>
      <trkpt lat="43.78705" lon="1.42553">
        <ele>260.203065</ele>
        <time>2022-07-31T15:17:02.872Z</time>
      </trkpt>
      <trkpt lat="43.78693" lon="1.42549">
        <ele>259.608679</ele>
        <time>2022-07-31T15:17:03.839Z</time>
      </trkpt>
      <trkpt lat="43.78682" lon="1.42544">
        <ele>259.04294</ele>
        <time>2022-07-31T15:17:04.845Z</time>
      </trkpt>
      <trkpt lat="43.78671" lon="1.42537">
        <ele>258.478278</ele>
        <time>2022-07-31T15:17:05.839Z</time>
      </trkpt>
      <trkpt lat="43.7866" lon="1.42529">
        <ele>257.906748</ele>
        <time>2022-07-31T15:17:06.850Z</time>
      </trkpt>
      <trkpt lat="43.78651" lon="1.4252">
        <ele>257.346067</ele>
        <time>2022-07-31T15:17:07.862Z</time>
      </trkpt>
      <trkpt lat="43.78642" lon="1.4251">
        <ele>256.782006</ele>
        <time>2022-07-31T15:17:08.848Z</time>
      </trkpt>
      <trkpt lat="43.78633" lon="1.42501">
        <ele>256.227412</ele>
        <time>2022-07-31T15:17:09.835Z</time>
      </trkpt>
      <trkpt lat="43.78622" lon="1.42493">
        <ele>255.675786</ele>
        <time>2022-07-31T15:17:10.841Z</time>
      </trkpt>
      <trkpt lat="43.78612" lon="1.42488">
        <ele>255.146464</ele>
        <time>2022-07-31T15:17:11.854Z</time>
      </trkpt>
      <trkpt lat="43.78602" lon="1.42484">
        <ele>254.624475</ele>
        <time>2022-07-31T15:17:12.842Z</time>
      </trkpt>
      <trkpt lat="43.78592" lon="1.4248">
        <ele>254.129466</ele>
        <time>2022-07-31T15:17:13.845Z</time>
      </trkpt>
      <trkpt lat="43.78582" lon="1.42477">
        <ele>253.634457</ele>
        <time>2022-07-31T15:17:14.851Z</time>
      </trkpt>
      <trkpt lat="43.78572" lon="1.42473">
        <ele>253.156998</ele>
        <time>2022-07-31T15:17:15.847Z</time>
      </trkpt>
      <trkpt lat="43.78563" lon="1.42469">
        <ele>252.712842</ele>
        <time>2022-07-31T15:17:16.863Z</time>
      </trkpt>
      <trkpt lat="43.78547" lon="1.42461">
        <ele>252.255535</ele>
        <time>2022-07-31T15:17:18.871Z</time>
      </trkpt>
      <trkpt lat="43.78533" lon="1.42452">
        <ele>252.458863</ele>
        <time>2022-07-31T15:17:20.858Z</time>
      </trkpt>
      <trkpt lat="43.78521" lon="1.42444">
        <ele>252.63993</ele>
        <time>2022-07-31T15:17:22.853Z</time>
      </trkpt>
      <trkpt lat="43.7851" lon="1.42436">
        <ele>252.802305</ele>
        <time>2022-07-31T15:17:24.843Z</time>
      </trkpt>
      <trkpt lat="43.785" lon="1.4243">
        <ele>252.946756</ele>
        <time>2022-07-31T15:17:26.874Z</time>
      </trkpt>
      <trkpt lat="43.7849" lon="1.42423">
        <ele>253.08683</ele>
        <time>2022-07-31T15:17:28.848Z</time>
      </trkpt>
      <trkpt lat="43.7848" lon="1.42416">
        <ele>253.234141</ele>
        <time>2022-07-31T15:17:30.857Z</time>
      </trkpt>
      <trkpt lat="43.7847" lon="1.42409">
        <ele>253.389032</ele>
        <time>2022-07-31T15:17:32.853Z</time>
      </trkpt>
      <trkpt lat="43.78459" lon="1.42402">
        <ele>253.545849</ele>
        <time>2022-07-31T15:17:34.846Z</time>
      </trkpt>
      <trkpt lat="43.78448" lon="1.42394">
        <ele>253.705865</ele>
        <time>2022-07-31T15:17:36.853Z</time>
      </trkpt>
      <trkpt lat="43.78437" lon="1.42387">
        <ele>253.867059</ele>
        <time>2022-07-31T15:17:38.854Z</time>
      </trkpt>
      <trkpt lat="43.78426" lon="1.4238">
        <ele>254.027806</ele>
        <time>2022-07-31T15:17:40.850Z</time>
      </trkpt>
      <trkpt lat="43.78415" lon="1.42373">
        <ele>254.189041</ele>
        <time>2022-07-31T15:17:42.845Z</time>
      </trkpt>
      <trkpt lat="43.78403" lon="1.42367">
        <ele>254.347972</ele>
        <time>2022-07-31T15:17:44.857Z</time>
      </trkpt>
      <trkpt lat="43.78392" lon="1.42361">
        <ele>254.504287</ele>
        <time>2022-07-31T15:17:46.818Z</time>
      </trkpt>
      <trkpt lat="43.78381" lon="1.42355">
        <ele>254.535317</ele>
        <time>2022-07-31T15:17:48.860Z</time>
      </trkpt>
      <trkpt lat="43.7837" lon="1.42349">
        <ele>254.528521</ele>
        <time>2022-07-31T15:17:50.843Z</time>
      </trkpt>
      <trkpt lat="43.7836" lon="1.42343">
        <ele>254.521911</ele>
        <time>2022-07-31T15:17:52.839Z</time>
      </trkpt>
      <trkpt lat="43.78349" lon="1.42338">
        <ele>254.515609</ele>
        <time>2022-07-31T15:17:54.868Z</time>
      </trkpt>
      <trkpt lat="43.78341" lon="1.42333">
        <ele>254.510221</ele>
        <time>2022-07-31T15:17:56.847Z</time>
      </trkpt>
      <trkpt lat="43.78331" lon="1.42328">
        <ele>254.503961</ele>
        <time>2022-07-31T15:18:03.842Z</time>
      </trkpt>
      <trkpt lat="43.78322" lon="1.42322">
        <ele>254.498409</ele>
        <time>2022-07-31T15:18:06.836Z</time>
      </trkpt>
      <trkpt lat="43.78312" lon="1.42314">
        <ele>254.491799</ele>
        <time>2022-07-31T15:18:09.834Z</time>
      </trkpt>
      <trkpt lat="43.78305" lon="1.42308">
        <ele>254.486636</ele>
        <time>2022-07-31T15:18:11.838Z</time>
      </trkpt>
      <trkpt lat="43.78297" lon="1.423">
        <ele>254.481093</ele>
        <time>2022-07-31T15:18:13.846Z</time>
      </trkpt>
      <trkpt lat="43.78288" lon="1.42293">
        <ele>254.475171</ele>
        <time>2022-07-31T15:18:15.847Z</time>
      </trkpt>
      <trkpt lat="43.78279" lon="1.42285">
        <ele>254.469247</ele>
        <time>2022-07-31T15:18:17.849Z</time>
      </trkpt>
      <trkpt lat="43.7827" lon="1.42277">
        <ele>254.46306</ele>
        <time>2022-07-31T15:18:19.849Z</time>
      </trkpt>
      <trkpt lat="43.7826" lon="1.42268">
        <ele>254.456272</ele>
        <time>2022-07-31T15:18:21.835Z</time>
      </trkpt>
      <trkpt lat="43.78251" lon="1.42259">
        <ele>254.449541</ele>
        <time>2022-07-31T15:18:23.859Z</time>
      </trkpt>
      <trkpt lat="43.7824" lon="1.4225">
        <ele>254.442333</ele>
        <time>2022-07-31T15:18:25.856Z</time>
      </trkpt>
      <trkpt lat="43.7823" lon="1.4224">
        <ele>254.362471</ele>
        <time>2022-07-31T15:18:27.850Z</time>
      </trkpt>
      <trkpt lat="43.78219" lon="1.4223">
        <ele>254.036996</ele>
        <time>2022-07-31T15:18:29.834Z</time>
      </trkpt>
      <trkpt lat="43.78209" lon="1.4222">
        <ele>253.713642</ele>
        <time>2022-07-31T15:18:31.835Z</time>
      </trkpt>
      <trkpt lat="43.78199" lon="1.42211">
        <ele>253.404067</ele>
        <time>2022-07-31T15:18:33.854Z</time>
      </trkpt>
      <trkpt lat="43.78189" lon="1.42202">
        <ele>253.091258</ele>
        <time>2022-07-31T15:18:35.849Z</time>
      </trkpt>
      <trkpt lat="43.78178" lon="1.42192">
        <ele>252.763455</ele>
        <time>2022-07-31T15:18:37.838Z</time>
      </trkpt>
      <trkpt lat="43.78167" lon="1.42183">
        <ele>252.42316</ele>
        <time>2022-07-31T15:18:39.859Z</time>
      </trkpt>
      <trkpt lat="43.78155" lon="1.42172">
        <ele>252.057393</ele>
        <time>2022-07-31T15:18:41.835Z</time>
      </trkpt>
      <trkpt lat="43.78142" lon="1.4216">
        <ele>251.66287</ele>
        <time>2022-07-31T15:18:43.857Z</time>
      </trkpt>
      <trkpt lat="43.78129" lon="1.42149">
        <ele>251.25312</ele>
        <time>2022-07-31T15:18:45.852Z</time>
      </trkpt>
      <trkpt lat="43.78116" lon="1.42137">
        <ele>250.851093</ele>
        <time>2022-07-31T15:18:47.855Z</time>
      </trkpt>
      <trkpt lat="43.78103" lon="1.42126">
        <ele>250.456226</ele>
        <time>2022-07-31T15:18:49.834Z</time>
      </trkpt>
      <trkpt lat="43.78091" lon="1.42115">
        <ele>250.084049</ele>
        <time>2022-07-31T15:18:51.840Z</time>
      </trkpt>
      <trkpt lat="43.78079" lon="1.42104">
        <ele>249.634205</ele>
        <time>2022-07-31T15:18:53.832Z</time>
      </trkpt>
      <trkpt lat="43.78068" lon="1.42094">
        <ele>248.908618</ele>
        <time>2022-07-31T15:18:55.843Z</time>
      </trkpt>
      <trkpt lat="43.78058" lon="1.42084">
        <ele>248.213826</ele>
        <time>2022-07-31T15:18:57.853Z</time>
      </trkpt>
      <trkpt lat="43.78048" lon="1.42076">
        <ele>247.56037</ele>
        <time>2022-07-31T15:18:59.827Z</time>
      </trkpt>
      <trkpt lat="43.78038" lon="1.42067">
        <ele>246.907496</ele>
        <time>2022-07-31T15:19:01.832Z</time>
      </trkpt>
      <trkpt lat="43.78028" lon="1.42057">
        <ele>246.247872</ele>
        <time>2022-07-31T15:19:03.853Z</time>
      </trkpt>
      <trkpt lat="43.78019" lon="1.42046">
        <ele>245.575343</ele>
        <time>2022-07-31T15:19:05.832Z</time>
      </trkpt>
      <trkpt lat="43.78014" lon="1.42031">
        <ele>244.892505</ele>
        <time>2022-07-31T15:19:07.864Z</time>
      </trkpt>
      <trkpt lat="43.78013" lon="1.42012">
        <ele>244.157059</ele>
        <time>2022-07-31T15:19:09.849Z</time>
      </trkpt>
      <trkpt lat="43.78013" lon="1.41993">
        <ele>243.374005</ele>
        <time>2022-07-31T15:19:11.854Z</time>
      </trkpt>
      <trkpt lat="43.78011" lon="1.41972">
        <ele>242.538518</ele>
        <time>2022-07-31T15:19:13.847Z</time>
      </trkpt>
      <trkpt lat="43.77997" lon="1.41959">
        <ele>241.628446</ele>
        <time>2022-07-31T15:19:15.854Z</time>
      </trkpt>
      <trkpt lat="43.77989" lon="1.41953">
        <ele>241.11581</ele>
        <time>2022-07-31T15:19:16.861Z</time>
      </trkpt>
      <trkpt lat="43.77979" lon="1.41949">
        <ele>240.53112</ele>
        <time>2022-07-31T15:19:17.845Z</time>
      </trkpt>
      <trkpt lat="43.77968" lon="1.41943">
        <ele>239.880116</ele>
        <time>2022-07-31T15:19:18.843Z</time>
      </trkpt>
      <trkpt lat="43.77956" lon="1.41938">
        <ele>239.921176</ele>
        <time>2022-07-31T15:19:19.840Z</time>
      </trkpt>
      <trkpt lat="43.77945" lon="1.41931">
        <ele>240.006034</ele>
        <time>2022-07-31T15:19:20.844Z</time>
      </trkpt>
      <trkpt lat="43.77933" lon="1.41923">
        <ele>240.091104</ele>
        <time>2022-07-31T15:19:21.845Z</time>
      </trkpt>
      <trkpt lat="43.77922" lon="1.41914">
        <ele>240.173003</ele>
        <time>2022-07-31T15:19:22.844Z</time>
      </trkpt>
      <trkpt lat="43.77913" lon="1.41906">
        <ele>240.249272</ele>
        <time>2022-07-31T15:19:23.847Z</time>
      </trkpt>
      <trkpt lat="43.77904" lon="1.41899">
        <ele>240.317379</ele>
        <time>2022-07-31T15:19:24.855Z</time>
      </trkpt>
      <trkpt lat="43.77896" lon="1.41892">
        <ele>240.37733</ele>
        <time>2022-07-31T15:19:25.848Z</time>
      </trkpt>
      <trkpt lat="43.77883" lon="1.41882">
        <ele>240.475019</ele>
        <time>2022-07-31T15:19:27.849Z</time>
      </trkpt>
      <trkpt lat="43.77873" lon="1.41879">
        <ele>240.541572</ele>
        <time>2022-07-31T15:19:29.845Z</time>
      </trkpt>
      <trkpt lat="43.77864" lon="1.41884">
        <ele>240.609937</ele>
        <time>2022-07-31T15:19:32.850Z</time>
      </trkpt>
      <trkpt lat="43.77856" lon="1.41895">
        <ele>240.680537</ele>
        <time>2022-07-31T15:19:35.859Z</time>
      </trkpt>
      <trkpt lat="43.7785" lon="1.41909">
        <ele>240.763468</ele>
        <time>2022-07-31T15:19:38.863Z</time>
      </trkpt>
      <trkpt lat="43.77845" lon="1.4192">
        <ele>240.824568</ele>
        <time>2022-07-31T15:19:40.857Z</time>
      </trkpt>
      <trkpt lat="43.77839" lon="1.41931">
        <ele>240.891419</ele>
        <time>2022-07-31T15:19:42.856Z</time>
      </trkpt>
      <trkpt lat="43.77832" lon="1.41943">
        <ele>240.963422</ele>
        <time>2022-07-31T15:19:44.849Z</time>
      </trkpt>
      <trkpt lat="43.77825" lon="1.41954">
        <ele>241.034002</ele>
        <time>2022-07-31T15:19:46.840Z</time>
      </trkpt>
      <trkpt lat="43.77817" lon="1.41965">
        <ele>240.683037</ele>
        <time>2022-07-31T15:19:48.879Z</time>
      </trkpt>
      <trkpt lat="43.77809" lon="1.41976">
        <ele>240.290735</ele>
        <time>2022-07-31T15:19:50.862Z</time>
      </trkpt>
      <trkpt lat="43.77801" lon="1.41986">
        <ele>239.920786</ele>
        <time>2022-07-31T15:19:52.856Z</time>
      </trkpt>
      <trkpt lat="43.77793" lon="1.41994">
        <ele>239.579835</ele>
        <time>2022-07-31T15:19:54.868Z</time>
      </trkpt>
      <trkpt lat="43.77782" lon="1.42">
        <ele>239.154831</ele>
        <time>2022-07-31T15:19:57.840Z</time>
      </trkpt>
      <trkpt lat="43.77774" lon="1.41992">
        <ele>238.805351</ele>
        <time>2022-07-31T15:19:59.853Z</time>
      </trkpt>
      <trkpt lat="43.77763" lon="1.41983">
        <ele>238.378805</ele>
        <time>2022-07-31T15:20:01.861Z</time>
      </trkpt>
      <trkpt lat="43.77752" lon="1.41971">
        <ele>237.880977</ele>
        <time>2022-07-31T15:20:03.850Z</time>
      </trkpt>
      <trkpt lat="43.77739" lon="1.41958">
        <ele>237.317328</ele>
        <time>2022-07-31T15:20:05.869Z</time>
      </trkpt>
      <trkpt lat="43.77726" lon="1.41946">
        <ele>236.795148</ele>
        <time>2022-07-31T15:20:07.844Z</time>
      </trkpt>
      <trkpt lat="43.77713" lon="1.41934">
        <ele>236.260052</ele>
        <time>2022-07-31T15:20:09.844Z</time>
      </trkpt>
      <trkpt lat="43.777" lon="1.41922">
        <ele>235.700674</ele>
        <time>2022-07-31T15:20:11.859Z</time>
      </trkpt>
      <trkpt lat="43.77685" lon="1.41914">
        <ele>235.145639</ele>
        <time>2022-07-31T15:20:13.857Z</time>
      </trkpt>
      <trkpt lat="43.77672" lon="1.41908">
        <ele>234.542155</ele>
        <time>2022-07-31T15:20:15.839Z</time>
      </trkpt>
      <trkpt lat="43.77661" lon="1.41906">
        <ele>233.855717</ele>
        <time>2022-07-31T15:20:17.840Z</time>
      </trkpt>
      <trkpt lat="43.77651" lon="1.41906">
        <ele>233.248081</ele>
        <time>2022-07-31T15:20:19.831Z</time>
      </trkpt>
      <trkpt lat="43.77641" lon="1.41904">
        <ele>232.631539</ele>
        <time>2022-07-31T15:20:21.839Z</time>
      </trkpt>
      <trkpt lat="43.77628" lon="1.41903">
        <ele>231.815537</ele>
        <time>2022-07-31T15:20:24.843Z</time>
      </trkpt>
      <trkpt lat="43.77616" lon="1.41902">
        <ele>231.056683</ele>
        <time>2022-07-31T15:20:27.850Z</time>
      </trkpt>
      <trkpt lat="43.77604" lon="1.41901">
        <ele>230.267121</ele>
        <time>2022-07-31T15:20:30.850Z</time>
      </trkpt>
      <trkpt lat="43.77593" lon="1.419">
        <ele>229.6224</ele>
        <time>2022-07-31T15:20:32.847Z</time>
      </trkpt>
      <trkpt lat="43.77581" lon="1.419">
        <ele>228.852448</ele>
        <time>2022-07-31T15:20:34.839Z</time>
      </trkpt>
      <trkpt lat="43.77566" lon="1.419">
        <ele>227.925982</ele>
        <time>2022-07-31T15:20:36.853Z</time>
      </trkpt>
      <trkpt lat="43.7755" lon="1.41902">
        <ele>226.925539</ele>
        <time>2022-07-31T15:20:38.855Z</time>
      </trkpt>
      <trkpt lat="43.77532" lon="1.41903">
        <ele>225.810499</ele>
        <time>2022-07-31T15:20:40.854Z</time>
      </trkpt>
      <trkpt lat="43.77523" lon="1.41904">
        <ele>225.21885</ele>
        <time>2022-07-31T15:20:41.858Z</time>
      </trkpt>
      <trkpt lat="43.77514" lon="1.41907">
        <ele>224.614146</ele>
        <time>2022-07-31T15:20:42.851Z</time>
      </trkpt>
      <trkpt lat="43.77504" lon="1.41911">
        <ele>223.984041</ele>
        <time>2022-07-31T15:20:43.839Z</time>
      </trkpt>
      <trkpt lat="43.77493" lon="1.41916">
        <ele>223.125207</ele>
        <time>2022-07-31T15:20:44.835Z</time>
      </trkpt>
      <trkpt lat="43.77482" lon="1.41922">
        <ele>222.120012</ele>
        <time>2022-07-31T15:20:45.849Z</time>
      </trkpt>
      <trkpt lat="43.77472" lon="1.41928">
        <ele>221.159429</ele>
        <time>2022-07-31T15:20:46.837Z</time>
      </trkpt>
      <trkpt lat="43.77462" lon="1.41934">
        <ele>220.204501</ele>
        <time>2022-07-31T15:20:47.842Z</time>
      </trkpt>
      <trkpt lat="43.77452" lon="1.4194">
        <ele>219.200521</ele>
        <time>2022-07-31T15:20:48.848Z</time>
      </trkpt>
      <trkpt lat="43.7744" lon="1.41946">
        <ele>218.104776</ele>
        <time>2022-07-31T15:20:49.854Z</time>
      </trkpt>
      <trkpt lat="43.77429" lon="1.41952">
        <ele>217.038452</ele>
        <time>2022-07-31T15:20:50.842Z</time>
      </trkpt>
      <trkpt lat="43.7742" lon="1.41958">
        <ele>216.123657</ele>
        <time>2022-07-31T15:20:51.843Z</time>
      </trkpt>
      <trkpt lat="43.7741" lon="1.41963">
        <ele>215.22091</ele>
        <time>2022-07-31T15:20:52.849Z</time>
      </trkpt>
      <trkpt lat="43.77401" lon="1.41968">
        <ele>214.353493</ele>
        <time>2022-07-31T15:20:53.842Z</time>
      </trkpt>
      <trkpt lat="43.77393" lon="1.41972">
        <ele>213.542566</ele>
        <time>2022-07-31T15:20:54.845Z</time>
      </trkpt>
      <trkpt lat="43.77378" lon="1.41984">
        <ele>212.041566</ele>
        <time>2022-07-31T15:20:56.848Z</time>
      </trkpt>
      <trkpt lat="43.77366" lon="1.42001">
        <ele>210.522173</ele>
        <time>2022-07-31T15:20:58.836Z</time>
      </trkpt>
      <trkpt lat="43.77353" lon="1.4201">
        <ele>209.213612</ele>
        <time>2022-07-31T15:21:00.853Z</time>
      </trkpt>
      <trkpt lat="43.7734" lon="1.4201">
        <ele>208.079505</ele>
        <time>2022-07-31T15:21:02.848Z</time>
      </trkpt>
      <trkpt lat="43.77329" lon="1.42001">
        <ele>207.399574</ele>
        <time>2022-07-31T15:21:05.829Z</time>
      </trkpt>
      <trkpt lat="43.77324" lon="1.41989">
        <ele>207.089708</ele>
        <time>2022-07-31T15:21:08.846Z</time>
      </trkpt>
      <trkpt lat="43.77314" lon="1.41983">
        <ele>206.763592</ele>
        <time>2022-07-31T15:21:11.834Z</time>
      </trkpt>
      <trkpt lat="43.77302" lon="1.41982">
        <ele>206.411471</ele>
        <time>2022-07-31T15:21:14.854Z</time>
      </trkpt>
      <trkpt lat="43.77292" lon="1.41981">
        <ele>206.116695</ele>
        <time>2022-07-31T15:21:16.838Z</time>
      </trkpt>
      <trkpt lat="43.77282" lon="1.4198">
        <ele>205.811995</ele>
        <time>2022-07-31T15:21:18.856Z</time>
      </trkpt>
      <trkpt lat="43.77271" lon="1.41978">
        <ele>205.479023</ele>
        <time>2022-07-31T15:21:20.850Z</time>
      </trkpt>
      <trkpt lat="43.77261" lon="1.41975">
        <ele>205.163016</ele>
        <time>2022-07-31T15:21:22.846Z</time>
      </trkpt>
      <trkpt lat="43.7725" lon="1.41972">
        <ele>204.836558</ele>
        <time>2022-07-31T15:21:24.858Z</time>
      </trkpt>
      <trkpt lat="43.77239" lon="1.4197">
        <ele>204.510835</ele>
        <time>2022-07-31T15:21:26.842Z</time>
      </trkpt>
      <trkpt lat="43.77228" lon="1.41967">
        <ele>204.177743</ele>
        <time>2022-07-31T15:21:28.860Z</time>
      </trkpt>
      <trkpt lat="43.77217" lon="1.41962">
        <ele>203.837505</ele>
        <time>2022-07-31T15:21:30.844Z</time>
      </trkpt>
      <trkpt lat="43.77207" lon="1.41955">
        <ele>203.497605</ele>
        <time>2022-07-31T15:21:32.867Z</time>
      </trkpt>
      <trkpt lat="43.77197" lon="1.41945">
        <ele>203.136358</ele>
        <time>2022-07-31T15:21:34.861Z</time>
      </trkpt>
      <trkpt lat="43.77188" lon="1.41934">
        <ele>202.788565</ele>
        <time>2022-07-31T15:21:36.845Z</time>
      </trkpt>
      <trkpt lat="43.77179" lon="1.41922">
        <ele>202.415433</ele>
        <time>2022-07-31T15:21:38.845Z</time>
      </trkpt>
      <trkpt lat="43.77169" lon="1.41912">
        <ele>202.125678</ele>
        <time>2022-07-31T15:21:40.866Z</time>
      </trkpt>
      <trkpt lat="43.77158" lon="1.41905">
        <ele>201.892969</ele>
        <time>2022-07-31T15:21:42.838Z</time>
      </trkpt>
      <trkpt lat="43.77147" lon="1.41898">
        <ele>201.661427</ele>
        <time>2022-07-31T15:21:44.841Z</time>
      </trkpt>
      <trkpt lat="43.77137" lon="1.4189">
        <ele>201.441934</ele>
        <time>2022-07-31T15:21:46.887Z</time>
      </trkpt>
      <trkpt lat="43.77128" lon="1.41882">
        <ele>201.238827</ele>
        <time>2022-07-31T15:21:48.852Z</time>
      </trkpt>
      <trkpt lat="43.7712" lon="1.41872">
        <ele>201.03435</ele>
        <time>2022-07-31T15:21:50.860Z</time>
      </trkpt>
      <trkpt lat="43.77112" lon="1.41861">
        <ele>200.821597</ele>
        <time>2022-07-31T15:21:52.857Z</time>
      </trkpt>
      <trkpt lat="43.77101" lon="1.41849">
        <ele>200.559561</ele>
        <time>2022-07-31T15:21:54.870Z</time>
      </trkpt>
      <trkpt lat="43.77091" lon="1.41837">
        <ele>200.31717</ele>
        <time>2022-07-31T15:21:56.868Z</time>
      </trkpt>
      <trkpt lat="43.77081" lon="1.41824">
        <ele>200.056413</ele>
        <time>2022-07-31T15:21:58.853Z</time>
      </trkpt>
      <trkpt lat="43.77071" lon="1.41813">
        <ele>199.815129</ele>
        <time>2022-07-31T15:22:00.840Z</time>
      </trkpt>
      <trkpt lat="43.7706" lon="1.41807">
        <ele>199.59986</ele>
        <time>2022-07-31T15:22:02.859Z</time>
      </trkpt>
      <trkpt lat="43.77052" lon="1.41801">
        <ele>199.420185</ele>
        <time>2022-07-31T15:22:04.847Z</time>
      </trkpt>
      <trkpt lat="43.77043" lon="1.41793">
        <ele>199.223306</ele>
        <time>2022-07-31T15:22:06.855Z</time>
      </trkpt>
      <trkpt lat="43.77034" lon="1.41786">
        <ele>199.025136</ele>
        <time>2022-07-31T15:22:08.869Z</time>
      </trkpt>
      <trkpt lat="43.77026" lon="1.4178">
        <ele>198.856235</ele>
        <time>2022-07-31T15:22:10.852Z</time>
      </trkpt>
      <trkpt lat="43.77015" lon="1.41772">
        <ele>198.718192</ele>
        <time>2022-07-31T15:22:12.852Z</time>
      </trkpt>
      <trkpt lat="43.77004" lon="1.41762">
        <ele>198.563507</ele>
        <time>2022-07-31T15:22:14.869Z</time>
      </trkpt>
      <trkpt lat="43.76993" lon="1.41754">
        <ele>198.422079</ele>
        <time>2022-07-31T15:22:16.852Z</time>
      </trkpt>
      <trkpt lat="43.76981" lon="1.41749">
        <ele>198.26975</ele>
        <time>2022-07-31T15:22:18.850Z</time>
      </trkpt>
      <trkpt lat="43.76968" lon="1.41744">
        <ele>198.116701</ele>
        <time>2022-07-31T15:22:20.843Z</time>
      </trkpt>
      <trkpt lat="43.76948" lon="1.41737">
        <ele>197.883012</ele>
        <time>2022-07-31T15:22:23.860Z</time>
      </trkpt>
      <trkpt lat="43.76935" lon="1.41732">
        <ele>197.725378</ele>
        <time>2022-07-31T15:22:25.861Z</time>
      </trkpt>
      <trkpt lat="43.76922" lon="1.41728">
        <ele>197.570812</ele>
        <time>2022-07-31T15:22:27.866Z</time>
      </trkpt>
      <trkpt lat="43.76909" lon="1.41723">
        <ele>197.41296</ele>
        <time>2022-07-31T15:22:29.854Z</time>
      </trkpt>
      <trkpt lat="43.76896" lon="1.41716">
        <ele>197.255597</ele>
        <time>2022-07-31T15:22:31.874Z</time>
      </trkpt>
      <trkpt lat="43.76884" lon="1.41707">
        <ele>197.099195</ele>
        <time>2022-07-31T15:22:33.855Z</time>
      </trkpt>
      <trkpt lat="43.76873" lon="1.41699">
        <ele>196.955712</ele>
        <time>2022-07-31T15:22:35.848Z</time>
      </trkpt>
      <trkpt lat="43.7686" lon="1.41693">
        <ele>196.801973</ele>
        <time>2022-07-31T15:22:37.860Z</time>
      </trkpt>
      <trkpt lat="43.76848" lon="1.41692">
        <ele>196.801876</ele>
        <time>2022-07-31T15:22:39.845Z</time>
      </trkpt>
      <trkpt lat="43.76836" lon="1.41693">
        <ele>196.814112</ele>
        <time>2022-07-31T15:22:41.846Z</time>
      </trkpt>
      <trkpt lat="43.76824" lon="1.4169">
        <ele>196.825842</ele>
        <time>2022-07-31T15:22:43.878Z</time>
      </trkpt>
      <trkpt lat="43.76813" lon="1.41685">
        <ele>196.837682</ele>
        <time>2022-07-31T15:22:45.869Z</time>
      </trkpt>
      <trkpt lat="43.76802" lon="1.41678">
        <ele>196.849019</ele>
        <time>2022-07-31T15:22:47.863Z</time>
      </trkpt>
      <trkpt lat="43.76791" lon="1.41672">
        <ele>196.860744</ele>
        <time>2022-07-31T15:22:49.866Z</time>
      </trkpt>
      <trkpt lat="43.76779" lon="1.41666">
        <ele>196.87332</ele>
        <time>2022-07-31T15:22:51.871Z</time>
      </trkpt>
      <trkpt lat="43.76767" lon="1.41661">
        <ele>196.885538</ele>
        <time>2022-07-31T15:22:53.863Z</time>
      </trkpt>
      <trkpt lat="43.76756" lon="1.41653">
        <ele>196.897651</ele>
        <time>2022-07-31T15:22:55.857Z</time>
      </trkpt>
      <trkpt lat="43.76745" lon="1.41646">
        <ele>196.909853</ele>
        <time>2022-07-31T15:22:57.878Z</time>
      </trkpt>
      <trkpt lat="43.76734" lon="1.41638">
        <ele>196.921995</ele>
        <time>2022-07-31T15:22:59.858Z</time>
      </trkpt>
      <trkpt lat="43.76724" lon="1.41631">
        <ele>196.933072</ele>
        <time>2022-07-31T15:23:01.871Z</time>
      </trkpt>
      <trkpt lat="43.76717" lon="1.4162">
        <ele>196.943535</ele>
        <time>2022-07-31T15:23:05.844Z</time>
      </trkpt>
      <trkpt lat="43.76722" lon="1.41608">
        <ele>196.953378</ele>
        <time>2022-07-31T15:23:08.874Z</time>
      </trkpt>
      <trkpt lat="43.76728" lon="1.41592">
        <ele>196.966372</ele>
        <time>2022-07-31T15:23:11.859Z</time>
      </trkpt>
      <trkpt lat="43.76733" lon="1.41581">
        <ele>197.462052</ele>
        <time>2022-07-31T15:23:13.867Z</time>
      </trkpt>
      <trkpt lat="43.76739" lon="1.41569">
        <ele>198.074556</ele>
        <time>2022-07-31T15:23:15.842Z</time>
      </trkpt>
      <trkpt lat="43.76744" lon="1.41558">
        <ele>198.654499</ele>
        <time>2022-07-31T15:23:17.849Z</time>
      </trkpt>
      <trkpt lat="43.7675" lon="1.41547">
        <ele>199.230729</ele>
        <time>2022-07-31T15:23:19.845Z</time>
      </trkpt>
      <trkpt lat="43.76757" lon="1.41532">
        <ele>200.045471</ele>
        <time>2022-07-31T15:23:22.872Z</time>
      </trkpt>
      <trkpt lat="43.76762" lon="1.41522">
        <ele>200.597656</ele>
        <time>2022-07-31T15:23:24.865Z</time>
      </trkpt>
      <trkpt lat="43.76766" lon="1.4151">
        <ele>201.164281</ele>
        <time>2022-07-31T15:23:26.854Z</time>
      </trkpt>
      <trkpt lat="43.76769" lon="1.41497">
        <ele>201.752985</ele>
        <time>2022-07-31T15:23:28.850Z</time>
      </trkpt>
      <trkpt lat="43.76768" lon="1.41483">
        <ele>202.34839</ele>
        <time>2022-07-31T15:23:30.870Z</time>
      </trkpt>
      <trkpt lat="43.76765" lon="1.41471">
        <ele>202.911903</ele>
        <time>2022-07-31T15:23:32.893Z</time>
      </trkpt>
      <trkpt lat="43.7676" lon="1.4146">
        <ele>203.500842</ele>
        <time>2022-07-31T15:23:34.870Z</time>
      </trkpt>
      <trkpt lat="43.76754" lon="1.41449">
        <ele>204.066399</ele>
        <time>2022-07-31T15:23:36.875Z</time>
      </trkpt>
      <trkpt lat="43.76748" lon="1.41439">
        <ele>204.644654</ele>
        <time>2022-07-31T15:23:38.880Z</time>
      </trkpt>
      <trkpt lat="43.76742" lon="1.4143">
        <ele>205.211465</ele>
        <time>2022-07-31T15:23:40.869Z</time>
      </trkpt>
      <trkpt lat="43.76735" lon="1.4142">
        <ele>205.800999</ele>
        <time>2022-07-31T15:23:42.863Z</time>
      </trkpt>
      <trkpt lat="43.76729" lon="1.4141">
        <ele>206.374227</ele>
        <time>2022-07-31T15:23:44.842Z</time>
      </trkpt>
      <trkpt lat="43.76722" lon="1.414">
        <ele>206.972716</ele>
        <time>2022-07-31T15:23:46.844Z</time>
      </trkpt>
      <trkpt lat="43.76716" lon="1.4139">
        <ele>207.560549</ele>
        <time>2022-07-31T15:23:48.883Z</time>
      </trkpt>
      <trkpt lat="43.7671" lon="1.4138">
        <ele>207.985218</ele>
        <time>2022-07-31T15:23:50.854Z</time>
      </trkpt>
      <trkpt lat="43.76704" lon="1.41369">
        <ele>208.240905</ele>
        <time>2022-07-31T15:23:52.862Z</time>
      </trkpt>
      <trkpt lat="43.767" lon="1.41357">
        <ele>208.478665</ele>
        <time>2022-07-31T15:23:54.888Z</time>
      </trkpt>
      <trkpt lat="43.76696" lon="1.41344">
        <ele>208.727369</ele>
        <time>2022-07-31T15:23:56.889Z</time>
      </trkpt>
      <trkpt lat="43.76694" lon="1.41331">
        <ele>208.976247</ele>
        <time>2022-07-31T15:23:58.848Z</time>
      </trkpt>
      <trkpt lat="43.76693" lon="1.41316">
        <ele>209.244082</ele>
        <time>2022-07-31T15:24:00.864Z</time>
      </trkpt>
      <trkpt lat="43.76691" lon="1.41301">
        <ele>209.520859</ele>
        <time>2022-07-31T15:24:02.877Z</time>
      </trkpt>
      <trkpt lat="43.7669" lon="1.41286">
        <ele>209.799089</ele>
        <time>2022-07-31T15:24:04.852Z</time>
      </trkpt>
      <trkpt lat="43.76689" lon="1.4127">
        <ele>210.083494</ele>
        <time>2022-07-31T15:24:06.877Z</time>
      </trkpt>
      <trkpt lat="43.76687" lon="1.41255">
        <ele>210.367622</ele>
        <time>2022-07-31T15:24:08.871Z</time>
      </trkpt>
      <trkpt lat="43.76686" lon="1.41239">
        <ele>210.652646</ele>
        <time>2022-07-31T15:24:10.872Z</time>
      </trkpt>
      <trkpt lat="43.76684" lon="1.41224">
        <ele>210.936028</ele>
        <time>2022-07-31T15:24:12.845Z</time>
      </trkpt>
      <trkpt lat="43.76681" lon="1.41208">
        <ele>211.226655</ele>
        <time>2022-07-31T15:24:14.881Z</time>
      </trkpt>
      <trkpt lat="43.76677" lon="1.41194">
        <ele>211.51222</ele>
        <time>2022-07-31T15:24:16.857Z</time>
      </trkpt>
      <trkpt lat="43.76671" lon="1.41179">
        <ele>211.810302</ele>
        <time>2022-07-31T15:24:18.860Z</time>
      </trkpt>
      <trkpt lat="43.76665" lon="1.41165">
        <ele>212.111919</ele>
        <time>2022-07-31T15:24:20.872Z</time>
      </trkpt>
      <trkpt lat="43.76658" lon="1.41151">
        <ele>212.391139</ele>
        <time>2022-07-31T15:24:22.866Z</time>
      </trkpt>
      <trkpt lat="43.76649" lon="1.41139">
        <ele>211.90008</ele>
        <time>2022-07-31T15:24:24.865Z</time>
      </trkpt>
      <trkpt lat="43.7664" lon="1.41128">
        <ele>211.402381</ele>
        <time>2022-07-31T15:24:26.851Z</time>
      </trkpt>
      <trkpt lat="43.7663" lon="1.41118">
        <ele>210.907681</ele>
        <time>2022-07-31T15:24:28.856Z</time>
      </trkpt>
      <trkpt lat="43.7662" lon="1.41107">
        <ele>210.406527</ele>
        <time>2022-07-31T15:24:30.873Z</time>
      </trkpt>
      <trkpt lat="43.7661" lon="1.41097">
        <ele>209.900426</ele>
        <time>2022-07-31T15:24:32.876Z</time>
      </trkpt>
      <trkpt lat="43.76599" lon="1.41087">
        <ele>209.387847</ele>
        <time>2022-07-31T15:24:34.869Z</time>
      </trkpt>
      <trkpt lat="43.76588" lon="1.41077">
        <ele>208.855498</ele>
        <time>2022-07-31T15:24:36.852Z</time>
      </trkpt>
      <trkpt lat="43.76576" lon="1.41067">
        <ele>208.296984</ele>
        <time>2022-07-31T15:24:38.857Z</time>
      </trkpt>
      <trkpt lat="43.76563" lon="1.41058">
        <ele>207.704791</ele>
        <time>2022-07-31T15:24:40.865Z</time>
      </trkpt>
      <trkpt lat="43.76548" lon="1.4105">
        <ele>207.076091</ele>
        <time>2022-07-31T15:24:42.856Z</time>
      </trkpt>
      <trkpt lat="43.76533" lon="1.41041">
        <ele>206.422112</ele>
        <time>2022-07-31T15:24:44.866Z</time>
      </trkpt>
      <trkpt lat="43.76518" lon="1.41032">
        <ele>205.751072</ele>
        <time>2022-07-31T15:24:46.880Z</time>
      </trkpt>
      <trkpt lat="43.76502" lon="1.41023">
        <ele>205.012015</ele>
        <time>2022-07-31T15:24:48.863Z</time>
      </trkpt>
      <trkpt lat="43.76487" lon="1.41013">
        <ele>203.941601</ele>
        <time>2022-07-31T15:24:50.847Z</time>
      </trkpt>
      <trkpt lat="43.7647" lon="1.41006">
        <ele>202.835358</ele>
        <time>2022-07-31T15:24:52.850Z</time>
      </trkpt>
      <trkpt lat="43.76461" lon="1.41002">
        <ele>202.257829</ele>
        <time>2022-07-31T15:24:53.844Z</time>
      </trkpt>
      <trkpt lat="43.76452" lon="1.41">
        <ele>201.664056</ele>
        <time>2022-07-31T15:24:54.868Z</time>
      </trkpt>
      <trkpt lat="43.76443" lon="1.40997">
        <ele>201.058977</ele>
        <time>2022-07-31T15:24:55.855Z</time>
      </trkpt>
      <trkpt lat="43.76433" lon="1.40994">
        <ele>200.440636</ele>
        <time>2022-07-31T15:24:56.852Z</time>
      </trkpt>
      <trkpt lat="43.76423" lon="1.40991">
        <ele>199.801156</ele>
        <time>2022-07-31T15:24:57.871Z</time>
      </trkpt>
      <trkpt lat="43.76413" lon="1.40989">
        <ele>199.14309</ele>
        <time>2022-07-31T15:24:58.863Z</time>
      </trkpt>
      <trkpt lat="43.76402" lon="1.40986">
        <ele>198.479586</ele>
        <time>2022-07-31T15:24:59.843Z</time>
      </trkpt>
      <trkpt lat="43.76392" lon="1.40984">
        <ele>197.8106</ele>
        <time>2022-07-31T15:25:00.844Z</time>
      </trkpt>
      <trkpt lat="43.76381" lon="1.40982">
        <ele>197.129179</ele>
        <time>2022-07-31T15:25:01.855Z</time>
      </trkpt>
      <trkpt lat="43.7637" lon="1.4098">
        <ele>196.449715</ele>
        <time>2022-07-31T15:25:02.848Z</time>
      </trkpt>
      <trkpt lat="43.76361" lon="1.40978">
        <ele>195.822475</ele>
        <time>2022-07-31T15:25:03.856Z</time>
      </trkpt>
      <trkpt lat="43.76351" lon="1.40977">
        <ele>195.226476</ele>
        <time>2022-07-31T15:25:04.844Z</time>
      </trkpt>
      <trkpt lat="43.76335" lon="1.40973">
        <ele>194.212593</ele>
        <time>2022-07-31T15:25:06.852Z</time>
      </trkpt>
      <trkpt lat="43.76324" lon="1.40967">
        <ele>193.854518</ele>
        <time>2022-07-31T15:25:08.853Z</time>
      </trkpt>
      <trkpt lat="43.76316" lon="1.40958">
        <ele>193.821785</ele>
        <time>2022-07-31T15:25:11.862Z</time>
      </trkpt>
      <trkpt lat="43.76317" lon="1.40943">
        <ele>193.786927</ele>
        <time>2022-07-31T15:25:17.870Z</time>
      </trkpt>
      <trkpt lat="43.7632" lon="1.40925">
        <ele>193.744346</ele>
        <time>2022-07-31T15:25:20.854Z</time>
      </trkpt>
      <trkpt lat="43.76324" lon="1.40912">
        <ele>193.713035</ele>
        <time>2022-07-31T15:25:22.840Z</time>
      </trkpt>
      <trkpt lat="43.76327" lon="1.40897">
        <ele>193.67808</ele>
        <time>2022-07-31T15:25:24.853Z</time>
      </trkpt>
      <trkpt lat="43.76331" lon="1.40881">
        <ele>193.639707</ele>
        <time>2022-07-31T15:25:26.829Z</time>
      </trkpt>
      <trkpt lat="43.76334" lon="1.40865">
        <ele>193.602211</ele>
        <time>2022-07-31T15:25:28.848Z</time>
      </trkpt>
      <trkpt lat="43.76338" lon="1.4085">
        <ele>193.565427</ele>
        <time>2022-07-31T15:25:30.852Z</time>
      </trkpt>
      <trkpt lat="43.76341" lon="1.40834">
        <ele>193.527874</ele>
        <time>2022-07-31T15:25:32.848Z</time>
      </trkpt>
      <trkpt lat="43.76345" lon="1.4082">
        <ele>193.492685</ele>
        <time>2022-07-31T15:25:34.863Z</time>
      </trkpt>
      <trkpt lat="43.76348" lon="1.40806">
        <ele>193.46051</ele>
        <time>2022-07-31T15:25:36.872Z</time>
      </trkpt>
      <trkpt lat="43.76351" lon="1.40793">
        <ele>193.428527</ele>
        <time>2022-07-31T15:25:38.836Z</time>
      </trkpt>
      <trkpt lat="43.76353" lon="1.40781">
        <ele>193.39926</ele>
        <time>2022-07-31T15:25:40.845Z</time>
      </trkpt>
      <trkpt lat="43.76356" lon="1.40763">
        <ele>193.357365</ele>
        <time>2022-07-31T15:25:43.857Z</time>
      </trkpt>
      <trkpt lat="43.76359" lon="1.4075">
        <ele>193.326035</ele>
        <time>2022-07-31T15:25:46.858Z</time>
      </trkpt>
      <trkpt lat="43.7636" lon="1.40737">
        <ele>193.216375</ele>
        <time>2022-07-31T15:25:51.846Z</time>
      </trkpt>
      <trkpt lat="43.76352" lon="1.40726">
        <ele>192.951937</ele>
        <time>2022-07-31T15:25:54.853Z</time>
      </trkpt>
      <trkpt lat="43.76342" lon="1.40719">
        <ele>192.689539</ele>
        <time>2022-07-31T15:25:56.848Z</time>
      </trkpt>
      <trkpt lat="43.76331" lon="1.40711">
        <ele>192.403333</ele>
        <time>2022-07-31T15:25:58.886Z</time>
      </trkpt>
      <trkpt lat="43.7632" lon="1.40704">
        <ele>192.100172</ele>
        <time>2022-07-31T15:26:00.861Z</time>
      </trkpt>
      <trkpt lat="43.76308" lon="1.40696">
        <ele>191.786969</ele>
        <time>2022-07-31T15:26:02.850Z</time>
      </trkpt>
      <trkpt lat="43.76296" lon="1.40688">
        <ele>191.484507</ele>
        <time>2022-07-31T15:26:04.850Z</time>
      </trkpt>
      <trkpt lat="43.76284" lon="1.40681">
        <ele>191.172144</ele>
        <time>2022-07-31T15:26:06.846Z</time>
      </trkpt>
      <trkpt lat="43.76271" lon="1.40672">
        <ele>190.84918</ele>
        <time>2022-07-31T15:26:08.854Z</time>
      </trkpt>
      <trkpt lat="43.76258" lon="1.40664">
        <ele>190.520577</ele>
        <time>2022-07-31T15:26:10.854Z</time>
      </trkpt>
      <trkpt lat="43.76245" lon="1.40656">
        <ele>190.188408</ele>
        <time>2022-07-31T15:26:12.840Z</time>
      </trkpt>
      <trkpt lat="43.76233" lon="1.40649">
        <ele>189.866828</ele>
        <time>2022-07-31T15:26:14.864Z</time>
      </trkpt>
      <trkpt lat="43.7622" lon="1.40641">
        <ele>189.538827</ele>
        <time>2022-07-31T15:26:16.862Z</time>
      </trkpt>
      <trkpt lat="43.76207" lon="1.40632">
        <ele>189.210197</ele>
        <time>2022-07-31T15:26:18.857Z</time>
      </trkpt>
      <trkpt lat="43.76194" lon="1.40625">
        <ele>188.945253</ele>
        <time>2022-07-31T15:26:20.857Z</time>
      </trkpt>
      <trkpt lat="43.76181" lon="1.40617">
        <ele>188.705549</ele>
        <time>2022-07-31T15:26:22.862Z</time>
      </trkpt>
      <trkpt lat="43.76168" lon="1.40609">
        <ele>188.461259</ele>
        <time>2022-07-31T15:26:24.862Z</time>
      </trkpt>
      <trkpt lat="43.76154" lon="1.40601">
        <ele>188.216387</ele>
        <time>2022-07-31T15:26:26.865Z</time>
      </trkpt>
      <trkpt lat="43.7614" lon="1.40593">
        <ele>187.966426</ele>
        <time>2022-07-31T15:26:28.849Z</time>
      </trkpt>
      <trkpt lat="43.76127" lon="1.40584">
        <ele>187.714098</ele>
        <time>2022-07-31T15:26:30.849Z</time>
      </trkpt>
      <trkpt lat="43.76113" lon="1.40575">
        <ele>187.464795</ele>
        <time>2022-07-31T15:26:32.846Z</time>
      </trkpt>
      <trkpt lat="43.76099" lon="1.40566">
        <ele>187.212864</ele>
        <time>2022-07-31T15:26:34.856Z</time>
      </trkpt>
      <trkpt lat="43.76086" lon="1.40558">
        <ele>186.972663</ele>
        <time>2022-07-31T15:26:36.864Z</time>
      </trkpt>
      <trkpt lat="43.76074" lon="1.4055">
        <ele>186.737477</ele>
        <time>2022-07-31T15:26:38.841Z</time>
      </trkpt>
      <trkpt lat="43.76061" lon="1.40542">
        <ele>186.506794</ele>
        <time>2022-07-31T15:26:40.874Z</time>
      </trkpt>
      <trkpt lat="43.76048" lon="1.40534">
        <ele>186.273045</ele>
        <time>2022-07-31T15:26:42.855Z</time>
      </trkpt>
      <trkpt lat="43.76036" lon="1.40526">
        <ele>186.102887</ele>
        <time>2022-07-31T15:26:44.849Z</time>
      </trkpt>
      <trkpt lat="43.76024" lon="1.40518">
        <ele>186.097887</ele>
        <time>2022-07-31T15:26:46.857Z</time>
      </trkpt>
      <trkpt lat="43.76011" lon="1.40509">
        <ele>186.092666</ele>
        <time>2022-07-31T15:26:48.850Z</time>
      </trkpt>
      <trkpt lat="43.75991" lon="1.40497">
        <ele>186.08477</ele>
        <time>2022-07-31T15:26:51.858Z</time>
      </trkpt>
      <trkpt lat="43.75978" lon="1.40489">
        <ele>186.079527</ele>
        <time>2022-07-31T15:26:53.844Z</time>
      </trkpt>
      <trkpt lat="43.75965" lon="1.4048">
        <ele>186.074296</ele>
        <time>2022-07-31T15:26:55.848Z</time>
      </trkpt>
      <trkpt lat="43.75952" lon="1.40473">
        <ele>186.06914</ele>
        <time>2022-07-31T15:26:57.868Z</time>
      </trkpt>
      <trkpt lat="43.75939" lon="1.40467">
        <ele>186.064141</ele>
        <time>2022-07-31T15:26:59.850Z</time>
      </trkpt>
      <trkpt lat="43.75926" lon="1.40464">
        <ele>186.059325</ele>
        <time>2022-07-31T15:27:01.861Z</time>
      </trkpt>
      <trkpt lat="43.75913" lon="1.40464">
        <ele>186.054574</ele>
        <time>2022-07-31T15:27:03.866Z</time>
      </trkpt>
      <trkpt lat="43.759" lon="1.40467">
        <ele>186.049806</ele>
        <time>2022-07-31T15:27:05.858Z</time>
      </trkpt>
      <trkpt lat="43.75888" lon="1.40472">
        <ele>186.045171</ele>
        <time>2022-07-31T15:27:07.867Z</time>
      </trkpt>
      <trkpt lat="43.75878" lon="1.40481">
        <ele>186.040599</ele>
        <time>2022-07-31T15:27:09.866Z</time>
      </trkpt>
      <trkpt lat="43.75868" lon="1.40492">
        <ele>186.019067</ele>
        <time>2022-07-31T15:27:11.841Z</time>
      </trkpt>
      <trkpt lat="43.75859" lon="1.40505">
        <ele>185.98297</ele>
        <time>2022-07-31T15:27:13.848Z</time>
      </trkpt>
      <trkpt lat="43.75852" lon="1.4052">
        <ele>185.946643</ele>
        <time>2022-07-31T15:27:15.847Z</time>
      </trkpt>
      <trkpt lat="43.75845" lon="1.40534">
        <ele>185.910877</ele>
        <time>2022-07-31T15:27:17.865Z</time>
      </trkpt>
      <trkpt lat="43.75839" lon="1.40549">
        <ele>185.874758</ele>
        <time>2022-07-31T15:27:19.844Z</time>
      </trkpt>
      <trkpt lat="43.75832" lon="1.40565">
        <ele>185.838106</ele>
        <time>2022-07-31T15:27:21.865Z</time>
      </trkpt>
      <trkpt lat="43.75825" lon="1.40581">
        <ele>185.799331</ele>
        <time>2022-07-31T15:27:23.862Z</time>
      </trkpt>
      <trkpt lat="43.75817" lon="1.40596">
        <ele>185.759657</ele>
        <time>2022-07-31T15:27:25.864Z</time>
      </trkpt>
      <trkpt lat="43.75808" lon="1.40611">
        <ele>185.720574</ele>
        <time>2022-07-31T15:27:27.848Z</time>
      </trkpt>
      <trkpt lat="43.75798" lon="1.40624">
        <ele>185.681079</ele>
        <time>2022-07-31T15:27:29.846Z</time>
      </trkpt>
      <trkpt lat="43.75787" lon="1.40634">
        <ele>185.641923</ele>
        <time>2022-07-31T15:27:31.859Z</time>
      </trkpt>
      <trkpt lat="43.75774" lon="1.40641">
        <ele>185.603603</ele>
        <time>2022-07-31T15:27:33.853Z</time>
      </trkpt>
      <trkpt lat="43.75761" lon="1.40645">
        <ele>185.565252</ele>
        <time>2022-07-31T15:27:35.855Z</time>
      </trkpt>
      <trkpt lat="43.75748" lon="1.40647">
        <ele>185.527901</ele>
        <time>2022-07-31T15:27:37.841Z</time>
      </trkpt>
      <trkpt lat="43.75736" lon="1.40648">
        <ele>185.543093</ele>
        <time>2022-07-31T15:27:39.853Z</time>
      </trkpt>
      <trkpt lat="43.75723" lon="1.40649">
        <ele>185.564483</ele>
        <time>2022-07-31T15:27:41.862Z</time>
      </trkpt>
      <trkpt lat="43.75711" lon="1.4065">
        <ele>185.5857</ele>
        <time>2022-07-31T15:27:43.833Z</time>
      </trkpt>
      <trkpt lat="43.75699" lon="1.40651">
        <ele>185.606425</ele>
        <time>2022-07-31T15:27:45.848Z</time>
      </trkpt>
      <trkpt lat="43.75687" lon="1.40653">
        <ele>185.627341</ele>
        <time>2022-07-31T15:27:47.864Z</time>
      </trkpt>
      <trkpt lat="43.75675" lon="1.40653">
        <ele>185.648035</ele>
        <time>2022-07-31T15:27:49.869Z</time>
      </trkpt>
      <trkpt lat="43.75663" lon="1.40654">
        <ele>185.668909</ele>
        <time>2022-07-31T15:27:51.882Z</time>
      </trkpt>
      <trkpt lat="43.75651" lon="1.40655">
        <ele>185.690313</ele>
        <time>2022-07-31T15:27:53.857Z</time>
      </trkpt>
      <trkpt lat="43.75638" lon="1.40656">
        <ele>185.711365</ele>
        <time>2022-07-31T15:27:55.874Z</time>
      </trkpt>
      <trkpt lat="43.75626" lon="1.40657">
        <ele>185.732597</ele>
        <time>2022-07-31T15:27:57.855Z</time>
      </trkpt>
      <trkpt lat="43.75614" lon="1.40659">
        <ele>185.753657</ele>
        <time>2022-07-31T15:27:59.849Z</time>
      </trkpt>
      <trkpt lat="43.75602" lon="1.40659">
        <ele>185.774702</ele>
        <time>2022-07-31T15:28:01.871Z</time>
      </trkpt>
      <trkpt lat="43.75589" lon="1.40661">
        <ele>185.79578</ele>
        <time>2022-07-31T15:28:03.867Z</time>
      </trkpt>
      <trkpt lat="43.75577" lon="1.40661">
        <ele>185.816985</ele>
        <time>2022-07-31T15:28:05.871Z</time>
      </trkpt>
      <trkpt lat="43.75565" lon="1.40662">
        <ele>185.849305</ele>
        <time>2022-07-31T15:28:07.891Z</time>
      </trkpt>
      <trkpt lat="43.75553" lon="1.40664">
        <ele>185.926008</ele>
        <time>2022-07-31T15:28:09.845Z</time>
      </trkpt>
      <trkpt lat="43.75541" lon="1.40665">
        <ele>186.003199</ele>
        <time>2022-07-31T15:28:11.846Z</time>
      </trkpt>
      <trkpt lat="43.75528" lon="1.40667">
        <ele>186.081447</ele>
        <time>2022-07-31T15:28:13.867Z</time>
      </trkpt>
      <trkpt lat="43.75516" lon="1.40669">
        <ele>186.159014</ele>
        <time>2022-07-31T15:28:15.847Z</time>
      </trkpt>
      <trkpt lat="43.75504" lon="1.40671">
        <ele>186.235502</ele>
        <time>2022-07-31T15:28:17.866Z</time>
      </trkpt>
      <trkpt lat="43.75492" lon="1.40674">
        <ele>186.31117</ele>
        <time>2022-07-31T15:28:19.842Z</time>
      </trkpt>
      <trkpt lat="43.7548" lon="1.40677">
        <ele>186.387306</ele>
        <time>2022-07-31T15:28:21.842Z</time>
      </trkpt>
      <trkpt lat="43.75468" lon="1.40679">
        <ele>186.463467</ele>
        <time>2022-07-31T15:28:23.842Z</time>
      </trkpt>
      <trkpt lat="43.75457" lon="1.40673">
        <ele>186.539995</ele>
        <time>2022-07-31T15:28:25.850Z</time>
      </trkpt>
      <trkpt lat="43.75446" lon="1.40668">
        <ele>186.61458</ele>
        <time>2022-07-31T15:28:27.858Z</time>
      </trkpt>
      <trkpt lat="43.75434" lon="1.40672">
        <ele>186.689062</ele>
        <time>2022-07-31T15:28:29.836Z</time>
      </trkpt>
      <trkpt lat="43.75423" lon="1.40679">
        <ele>186.766649</ele>
        <time>2022-07-31T15:28:31.855Z</time>
      </trkpt>
      <trkpt lat="43.75405" lon="1.4068">
        <ele>186.883476</ele>
        <time>2022-07-31T15:28:34.878Z</time>
      </trkpt>
      <trkpt lat="43.75392" lon="1.40679">
        <ele>186.960553</ele>
        <time>2022-07-31T15:28:36.846Z</time>
      </trkpt>
      <trkpt lat="43.7538" lon="1.40679">
        <ele>187.095196</ele>
        <time>2022-07-31T15:28:38.850Z</time>
      </trkpt>
      <trkpt lat="43.75368" lon="1.40679">
        <ele>187.237801</ele>
        <time>2022-07-31T15:28:40.846Z</time>
      </trkpt>
      <trkpt lat="43.75356" lon="1.4068">
        <ele>187.37833</ele>
        <time>2022-07-31T15:28:42.876Z</time>
      </trkpt>
      <trkpt lat="43.75344" lon="1.40681">
        <ele>187.521006</ele>
        <time>2022-07-31T15:28:44.840Z</time>
      </trkpt>
      <trkpt lat="43.75332" lon="1.40682">
        <ele>187.663725</ele>
        <time>2022-07-31T15:28:46.848Z</time>
      </trkpt>
      <trkpt lat="43.7532" lon="1.40683">
        <ele>187.80762</ele>
        <time>2022-07-31T15:28:48.876Z</time>
      </trkpt>
      <trkpt lat="43.75308" lon="1.40684">
        <ele>187.94912</ele>
        <time>2022-07-31T15:28:50.855Z</time>
      </trkpt>
      <trkpt lat="43.75296" lon="1.40685">
        <ele>188.089487</ele>
        <time>2022-07-31T15:28:52.852Z</time>
      </trkpt>
      <trkpt lat="43.75284" lon="1.40686">
        <ele>188.232307</ele>
        <time>2022-07-31T15:28:54.848Z</time>
      </trkpt>
      <trkpt lat="43.75272" lon="1.40687">
        <ele>188.373898</ele>
        <time>2022-07-31T15:28:56.874Z</time>
      </trkpt>
      <trkpt lat="43.7526" lon="1.40688">
        <ele>188.516617</ele>
        <time>2022-07-31T15:28:58.846Z</time>
      </trkpt>
      <trkpt lat="43.75248" lon="1.40689">
        <ele>188.659438</ele>
        <time>2022-07-31T15:29:00.876Z</time>
      </trkpt>
      <trkpt lat="43.75236" lon="1.4069">
        <ele>188.801141</ele>
        <time>2022-07-31T15:29:02.854Z</time>
      </trkpt>
      <trkpt lat="43.75224" lon="1.40691">
        <ele>188.943817</ele>
        <time>2022-07-31T15:29:04.841Z</time>
      </trkpt>
      <trkpt lat="43.75212" lon="1.40692">
        <ele>189.08536</ele>
        <time>2022-07-31T15:29:06.841Z</time>
      </trkpt>
      <trkpt lat="43.752" lon="1.40693">
        <ele>189.190847</ele>
        <time>2022-07-31T15:29:08.853Z</time>
      </trkpt>
      <trkpt lat="43.75188" lon="1.40694">
        <ele>189.295656</ele>
        <time>2022-07-31T15:29:10.860Z</time>
      </trkpt>
      <trkpt lat="43.75176" lon="1.40695">
        <ele>189.401375</ele>
        <time>2022-07-31T15:29:12.850Z</time>
      </trkpt>
      <trkpt lat="43.75163" lon="1.40696">
        <ele>189.507093</ele>
        <time>2022-07-31T15:29:14.875Z</time>
      </trkpt>
      <trkpt lat="43.75152" lon="1.40697">
        <ele>189.610125</ele>
        <time>2022-07-31T15:29:16.870Z</time>
      </trkpt>
      <trkpt lat="43.7514" lon="1.40697">
        <ele>189.712225</ele>
        <time>2022-07-31T15:29:18.861Z</time>
      </trkpt>
      <trkpt lat="43.75128" lon="1.40698">
        <ele>189.813516</ele>
        <time>2022-07-31T15:29:20.853Z</time>
      </trkpt>
      <trkpt lat="43.75117" lon="1.40699">
        <ele>189.914885</ele>
        <time>2022-07-31T15:29:22.848Z</time>
      </trkpt>
      <trkpt lat="43.75105" lon="1.40701">
        <ele>190.016254</ele>
        <time>2022-07-31T15:29:24.875Z</time>
      </trkpt>
      <trkpt lat="43.75094" lon="1.40701">
        <ele>190.117545</ele>
        <time>2022-07-31T15:29:26.875Z</time>
      </trkpt>
      <trkpt lat="43.75082" lon="1.40699">
        <ele>190.218938</ele>
        <time>2022-07-31T15:29:28.875Z</time>
      </trkpt>
      <trkpt lat="43.75073" lon="1.40688">
        <ele>190.324921</ele>
        <time>2022-07-31T15:29:30.866Z</time>
      </trkpt>
      <trkpt lat="43.75064" lon="1.40675">
        <ele>190.437121</ele>
        <time>2022-07-31T15:29:32.876Z</time>
      </trkpt>
      <trkpt lat="43.75055" lon="1.40662">
        <ele>190.548555</ele>
        <time>2022-07-31T15:29:34.872Z</time>
      </trkpt>
      <trkpt lat="43.75047" lon="1.4065">
        <ele>190.655459</ele>
        <time>2022-07-31T15:29:36.876Z</time>
      </trkpt>
      <trkpt lat="43.75039" lon="1.40638">
        <ele>190.889663</ele>
        <time>2022-07-31T15:29:38.865Z</time>
      </trkpt>
      <trkpt lat="43.75031" lon="1.40626">
        <ele>191.119789</ele>
        <time>2022-07-31T15:29:40.887Z</time>
      </trkpt>
      <trkpt lat="43.75023" lon="1.40615">
        <ele>191.348312</ele>
        <time>2022-07-31T15:29:42.876Z</time>
      </trkpt>
      <trkpt lat="43.75016" lon="1.40603">
        <ele>191.578684</ele>
        <time>2022-07-31T15:29:44.882Z</time>
      </trkpt>
      <trkpt lat="43.75008" lon="1.40591">
        <ele>191.80132</ele>
        <time>2022-07-31T15:29:46.853Z</time>
      </trkpt>
      <trkpt lat="43.75" lon="1.4058">
        <ele>192.029473</ele>
        <time>2022-07-31T15:29:48.866Z</time>
      </trkpt>
      <trkpt lat="43.74992" lon="1.40569">
        <ele>192.25417</ele>
        <time>2022-07-31T15:29:50.870Z</time>
      </trkpt>
      <trkpt lat="43.74984" lon="1.40558">
        <ele>192.471585</ele>
        <time>2022-07-31T15:29:52.857Z</time>
      </trkpt>
      <trkpt lat="43.74976" lon="1.40548">
        <ele>192.694096</ele>
        <time>2022-07-31T15:29:54.865Z</time>
      </trkpt>
      <trkpt lat="43.74968" lon="1.40538">
        <ele>192.917144</ele>
        <time>2022-07-31T15:29:56.871Z</time>
      </trkpt>
      <trkpt lat="43.7496" lon="1.40528">
        <ele>193.13</ele>
        <time>2022-07-31T15:29:58.893Z</time>
      </trkpt>
      <trkpt lat="43.74951" lon="1.40519">
        <ele>193.350305</ele>
        <time>2022-07-31T15:30:00.866Z</time>
      </trkpt>
      <trkpt lat="43.74942" lon="1.40511">
        <ele>193.566883</ele>
        <time>2022-07-31T15:30:02.877Z</time>
      </trkpt>
      <trkpt lat="43.74931" lon="1.40509">
        <ele>193.772735</ele>
        <time>2022-07-31T15:30:04.848Z</time>
      </trkpt>
      <trkpt lat="43.74921" lon="1.40511">
        <ele>193.983205</ele>
        <time>2022-07-31T15:30:06.850Z</time>
      </trkpt>
      <trkpt lat="43.74911" lon="1.40515">
        <ele>194.190697</ele>
        <time>2022-07-31T15:30:08.879Z</time>
      </trkpt>
      <trkpt lat="43.74901" lon="1.40518">
        <ele>194.472278</ele>
        <time>2022-07-31T15:30:10.873Z</time>
      </trkpt>
      <trkpt lat="43.74891" lon="1.40522">
        <ele>194.787704</ele>
        <time>2022-07-31T15:30:12.850Z</time>
      </trkpt>
      <trkpt lat="43.74881" lon="1.40525">
        <ele>195.096727</ele>
        <time>2022-07-31T15:30:14.900Z</time>
      </trkpt>
      <trkpt lat="43.74871" lon="1.40529">
        <ele>195.396419</ele>
        <time>2022-07-31T15:30:16.864Z</time>
      </trkpt>
      <trkpt lat="43.74861" lon="1.40532">
        <ele>195.701975</ele>
        <time>2022-07-31T15:30:18.865Z</time>
      </trkpt>
      <trkpt lat="43.74851" lon="1.40535">
        <ele>196.02919</ele>
        <time>2022-07-31T15:30:20.863Z</time>
      </trkpt>
      <trkpt lat="43.7484" lon="1.40538">
        <ele>196.350482</ele>
        <time>2022-07-31T15:30:22.856Z</time>
      </trkpt>
      <trkpt lat="43.7483" lon="1.40541">
        <ele>196.673175</ele>
        <time>2022-07-31T15:30:24.831Z</time>
      </trkpt>
      <trkpt lat="43.74819" lon="1.40545">
        <ele>197.021417</ele>
        <time>2022-07-31T15:30:26.847Z</time>
      </trkpt>
      <trkpt lat="43.74808" lon="1.40549">
        <ele>197.364837</ele>
        <time>2022-07-31T15:30:28.867Z</time>
      </trkpt>
      <trkpt lat="43.74797" lon="1.40551">
        <ele>197.704613</ele>
        <time>2022-07-31T15:30:30.847Z</time>
      </trkpt>
      <trkpt lat="43.74789" lon="1.40542">
        <ele>198.004274</ele>
        <time>2022-07-31T15:30:32.853Z</time>
      </trkpt>
      <trkpt lat="43.7478" lon="1.40534">
        <ele>198.335424</ele>
        <time>2022-07-31T15:30:34.855Z</time>
      </trkpt>
      <trkpt lat="43.74771" lon="1.40527">
        <ele>198.650546</ele>
        <time>2022-07-31T15:30:36.856Z</time>
      </trkpt>
      <trkpt lat="43.74762" lon="1.4052">
        <ele>198.952712</ele>
        <time>2022-07-31T15:30:38.870Z</time>
      </trkpt>
      <trkpt lat="43.74753" lon="1.40513">
        <ele>199.273424</ele>
        <time>2022-07-31T15:30:40.862Z</time>
      </trkpt>
      <trkpt lat="43.74744" lon="1.40506">
        <ele>199.586297</ele>
        <time>2022-07-31T15:30:42.858Z</time>
      </trkpt>
      <trkpt lat="43.7473" lon="1.40498">
        <ele>200.370217</ele>
        <time>2022-07-31T15:30:45.852Z</time>
      </trkpt>
      <trkpt lat="43.7472" lon="1.40501">
        <ele>200.978858</ele>
        <time>2022-07-31T15:30:47.857Z</time>
      </trkpt>
      <trkpt lat="43.7471" lon="1.40502">
        <ele>201.585981</ele>
        <time>2022-07-31T15:30:49.847Z</time>
      </trkpt>
      <trkpt lat="43.74701" lon="1.40496">
        <ele>202.136154</ele>
        <time>2022-07-31T15:30:51.876Z</time>
      </trkpt>
      <trkpt lat="43.74688" lon="1.40493">
        <ele>202.916057</ele>
        <time>2022-07-31T15:30:54.849Z</time>
      </trkpt>
      <trkpt lat="43.74679" lon="1.40492">
        <ele>203.471002</ele>
        <time>2022-07-31T15:30:56.865Z</time>
      </trkpt>
      <trkpt lat="43.7467" lon="1.40488">
        <ele>204.038277</ele>
        <time>2022-07-31T15:30:58.850Z</time>
      </trkpt>
      <trkpt lat="43.74661" lon="1.40482">
        <ele>204.58145</ele>
        <time>2022-07-31T15:31:00.853Z</time>
      </trkpt>
      <trkpt lat="43.7465" lon="1.40473">
        <ele>205.360692</ele>
        <time>2022-07-31T15:31:03.855Z</time>
      </trkpt>
      <trkpt lat="43.74641" lon="1.40467">
        <ele>205.925892</ele>
        <time>2022-07-31T15:31:05.856Z</time>
      </trkpt>
      <trkpt lat="43.74633" lon="1.40462">
        <ele>206.464338</ele>
        <time>2022-07-31T15:31:07.857Z</time>
      </trkpt>
      <trkpt lat="43.74625" lon="1.40456">
        <ele>206.99959</ele>
        <time>2022-07-31T15:31:09.848Z</time>
      </trkpt>
      <trkpt lat="43.74617" lon="1.4045">
        <ele>207.535615</ele>
        <time>2022-07-31T15:31:11.861Z</time>
      </trkpt>
      <trkpt lat="43.74609" lon="1.40444">
        <ele>208.080636</ele>
        <time>2022-07-31T15:31:13.853Z</time>
      </trkpt>
      <trkpt lat="43.74601" lon="1.40437">
        <ele>208.616973</ele>
        <time>2022-07-31T15:31:15.848Z</time>
      </trkpt>
      <trkpt lat="43.74593" lon="1.4043">
        <ele>209.180502</ele>
        <time>2022-07-31T15:31:17.875Z</time>
      </trkpt>
      <trkpt lat="43.74584" lon="1.40427">
        <ele>209.711679</ele>
        <time>2022-07-31T15:31:20.870Z</time>
      </trkpt>
      <trkpt lat="43.74575" lon="1.40438">
        <ele>210.382751</ele>
        <time>2022-07-31T15:31:23.851Z</time>
      </trkpt>
      <trkpt lat="43.74565" lon="1.40442">
        <ele>210.954904</ele>
        <time>2022-07-31T15:31:31.865Z</time>
      </trkpt>
      <trkpt lat="43.7456" lon="1.40453">
        <ele>211.479978</ele>
        <time>2022-07-31T15:31:36.856Z</time>
      </trkpt>
      <trkpt lat="43.74559" lon="1.40466">
        <ele>211.986506</ele>
        <time>2022-07-31T15:31:39.837Z</time>
      </trkpt>
      <trkpt lat="43.74553" lon="1.40479">
        <ele>212.58588</ele>
        <time>2022-07-31T15:31:43.854Z</time>
      </trkpt>
      <trkpt lat="43.74547" lon="1.4049">
        <ele>213.098195</ele>
        <time>2022-07-31T15:31:47.845Z</time>
      </trkpt>
      <trkpt lat="43.74539" lon="1.405">
        <ele>213.661125</ele>
        <time>2022-07-31T15:31:50.860Z</time>
      </trkpt>
      <trkpt lat="43.74535" lon="1.40515">
        <ele>214.301958</ele>
        <time>2022-07-31T15:31:54.865Z</time>
      </trkpt>
      <trkpt lat="43.7453" lon="1.40528">
        <ele>214.844126</ele>
        <time>2022-07-31T15:31:58.862Z</time>
      </trkpt>
      <trkpt lat="43.74521" lon="1.40531">
        <ele>215.340016</ele>
        <time>2022-07-31T15:32:08.853Z</time>
      </trkpt>
      <trkpt lat="43.7451" lon="1.40532">
        <ele>215.933259</ele>
        <time>2022-07-31T15:32:13.874Z</time>
      </trkpt>
      <trkpt lat="43.745" lon="1.40531">
        <ele>216.463129</ele>
        <time>2022-07-31T15:32:17.858Z</time>
      </trkpt>
      <trkpt lat="43.74491" lon="1.40529">
        <ele>216.992125</ele>
        <time>2022-07-31T15:32:20.843Z</time>
      </trkpt>
      <trkpt lat="43.74482" lon="1.40519">
        <ele>217.57548</ele>
        <time>2022-07-31T15:32:24.863Z</time>
      </trkpt>
      <trkpt lat="43.74469" lon="1.40518">
        <ele>218.280878</ele>
        <time>2022-07-31T15:32:27.864Z</time>
      </trkpt>
      <trkpt lat="43.74457" lon="1.40518">
        <ele>218.8885</ele>
        <time>2022-07-31T15:32:30.892Z</time>
      </trkpt>
      <trkpt lat="43.74443" lon="1.40514">
        <ele>219.655407</ele>
        <time>2022-07-31T15:32:33.857Z</time>
      </trkpt>
      <trkpt lat="43.74428" lon="1.40518">
        <ele>220.525845</ele>
        <time>2022-07-31T15:32:36.859Z</time>
      </trkpt>
      <trkpt lat="43.74417" lon="1.40516">
        <ele>221.153451</ele>
        <time>2022-07-31T15:32:38.863Z</time>
      </trkpt>
      <trkpt lat="43.74405" lon="1.40508">
        <ele>221.92092</ele>
        <time>2022-07-31T15:32:41.853Z</time>
      </trkpt>
      <trkpt lat="43.74396" lon="1.40503">
        <ele>222.457198</ele>
        <time>2022-07-31T15:32:43.852Z</time>
      </trkpt>
      <trkpt lat="43.74385" lon="1.405">
        <ele>223.122927</ele>
        <time>2022-07-31T15:32:46.869Z</time>
      </trkpt>
      <trkpt lat="43.74373" lon="1.40495">
        <ele>223.837912</ele>
        <time>2022-07-31T15:32:49.855Z</time>
      </trkpt>
      <trkpt lat="43.74366" lon="1.40486">
        <ele>224.382985</ele>
        <time>2022-07-31T15:32:55.851Z</time>
      </trkpt>
      <trkpt lat="43.74357" lon="1.40484">
        <ele>224.945114</ele>
        <time>2022-07-31T15:32:59.848Z</time>
      </trkpt>
      <trkpt lat="43.74347" lon="1.40485">
        <ele>225.470286</ele>
        <time>2022-07-31T15:33:02.864Z</time>
      </trkpt>
      <trkpt lat="43.74336" lon="1.40488">
        <ele>226.126146</ele>
        <time>2022-07-31T15:33:05.852Z</time>
      </trkpt>
      <trkpt lat="43.74328" lon="1.40494">
        <ele>226.676606</ele>
        <time>2022-07-31T15:33:09.837Z</time>
      </trkpt>
      <trkpt lat="43.74317" lon="1.40502">
        <ele>227.37187</ele>
        <time>2022-07-31T15:33:14.854Z</time>
      </trkpt>
      <trkpt lat="43.74306" lon="1.40506">
        <ele>228.00495</ele>
        <time>2022-07-31T15:33:17.849Z</time>
      </trkpt>
      <trkpt lat="43.74297" lon="1.40508">
        <ele>228.530388</ele>
        <time>2022-07-31T15:33:19.857Z</time>
      </trkpt>
      <trkpt lat="43.74285" lon="1.40503">
        <ele>229.24783</ele>
        <time>2022-07-31T15:33:22.849Z</time>
      </trkpt>
      <trkpt lat="43.74274" lon="1.40494">
        <ele>229.978223</ele>
        <time>2022-07-31T15:33:25.852Z</time>
      </trkpt>
      <trkpt lat="43.74262" lon="1.40486">
        <ele>230.433894</ele>
        <time>2022-07-31T15:33:28.887Z</time>
      </trkpt>
      <trkpt lat="43.74253" lon="1.40483">
        <ele>230.679141</ele>
        <time>2022-07-31T15:33:30.850Z</time>
      </trkpt>
      <trkpt lat="43.74245" lon="1.40477">
        <ele>230.916089</ele>
        <time>2022-07-31T15:33:32.853Z</time>
      </trkpt>
      <trkpt lat="43.74235" lon="1.40474">
        <ele>231.157337</ele>
        <time>2022-07-31T15:33:34.875Z</time>
      </trkpt>
      <trkpt lat="43.74226" lon="1.40471">
        <ele>231.394335</ele>
        <time>2022-07-31T15:33:36.877Z</time>
      </trkpt>
      <trkpt lat="43.74217" lon="1.40464">
        <ele>231.652778</ele>
        <time>2022-07-31T15:33:38.856Z</time>
      </trkpt>
      <trkpt lat="43.74208" lon="1.40458">
        <ele>231.90894</ele>
        <time>2022-07-31T15:33:40.863Z</time>
      </trkpt>
      <trkpt lat="43.742" lon="1.40452">
        <ele>232.141293</ele>
        <time>2022-07-31T15:33:42.891Z</time>
      </trkpt>
      <trkpt lat="43.74193" lon="1.40442">
        <ele>232.394978</ele>
        <time>2022-07-31T15:33:44.860Z</time>
      </trkpt>
      <trkpt lat="43.74187" lon="1.40432">
        <ele>232.645954</ele>
        <time>2022-07-31T15:33:46.860Z</time>
      </trkpt>
      <trkpt lat="43.7418" lon="1.40423">
        <ele>232.882799</ele>
        <time>2022-07-31T15:33:48.865Z</time>
      </trkpt>
      <trkpt lat="43.74172" lon="1.40414">
        <ele>233.147102</ele>
        <time>2022-07-31T15:33:50.860Z</time>
      </trkpt>
      <trkpt lat="43.74165" lon="1.40405">
        <ele>233.391903</ele>
        <time>2022-07-31T15:33:52.874Z</time>
      </trkpt>
      <trkpt lat="43.74146" lon="1.40383">
        <ele>234.004796</ele>
        <time>2022-07-31T15:33:57.846Z</time>
      </trkpt>
      <trkpt lat="43.74136" lon="1.40387">
        <ele>234.276836</ele>
        <time>2022-07-31T15:34:03.871Z</time>
      </trkpt>
      <trkpt lat="43.74125" lon="1.40417">
        <ele>234.783735</ele>
        <time>2022-07-31T15:34:08.871Z</time>
      </trkpt>
      <trkpt lat="43.7412" lon="1.40429">
        <ele>234.8529</ele>
        <time>2022-07-31T15:34:10.862Z</time>
      </trkpt>
      <trkpt lat="43.74115" lon="1.40444">
        <ele>234.931447</ele>
        <time>2022-07-31T15:34:12.862Z</time>
      </trkpt>
      <trkpt lat="43.7411" lon="1.40456">
        <ele>234.999914</ele>
        <time>2022-07-31T15:34:14.853Z</time>
      </trkpt>
      <trkpt lat="43.74099" lon="1.40472">
        <ele>235.103782</ele>
        <time>2022-07-31T15:34:16.857Z</time>
      </trkpt>
      <trkpt lat="43.7409" lon="1.4047">
        <ele>235.170366</ele>
        <time>2022-07-31T15:34:18.891Z</time>
      </trkpt>
      <trkpt lat="43.74074" lon="1.40459">
        <ele>235.28565</ele>
        <time>2022-07-31T15:34:21.846Z</time>
      </trkpt>
      <trkpt lat="43.74064" lon="1.40452">
        <ele>235.364047</ele>
        <time>2022-07-31T15:34:23.844Z</time>
      </trkpt>
      <trkpt lat="43.74053" lon="1.40446">
        <ele>235.439683</ele>
        <time>2022-07-31T15:34:25.863Z</time>
      </trkpt>
      <trkpt lat="43.74042" lon="1.40442">
        <ele>235.515646</ele>
        <time>2022-07-31T15:34:27.876Z</time>
      </trkpt>
      <trkpt lat="43.74031" lon="1.40437">
        <ele>235.593166</ele>
        <time>2022-07-31T15:34:29.864Z</time>
      </trkpt>
      <trkpt lat="43.7402" lon="1.40431">
        <ele>235.672545</ele>
        <time>2022-07-31T15:34:31.865Z</time>
      </trkpt>
      <trkpt lat="43.74009" lon="1.40426">
        <ele>235.750501</ele>
        <time>2022-07-31T15:34:33.845Z</time>
      </trkpt>
      <trkpt lat="43.73998" lon="1.40422">
        <ele>235.825703</ele>
        <time>2022-07-31T15:34:35.860Z</time>
      </trkpt>
      <trkpt lat="43.7399" lon="1.40428">
        <ele>235.890566</ele>
        <time>2022-07-31T15:34:37.850Z</time>
      </trkpt>
      <trkpt lat="43.73984" lon="1.4044">
        <ele>235.971522</ele>
        <time>2022-07-31T15:34:39.852Z</time>
      </trkpt>
      <trkpt lat="43.73976" lon="1.40451">
        <ele>236.157603</ele>
        <time>2022-07-31T15:34:41.849Z</time>
      </trkpt>
      <trkpt lat="43.73964" lon="1.40452">
        <ele>236.354002</ele>
        <time>2022-07-31T15:34:43.848Z</time>
      </trkpt>
      <trkpt lat="43.73953" lon="1.40447">
        <ele>236.534045</ele>
        <time>2022-07-31T15:34:45.854Z</time>
      </trkpt>
      <trkpt lat="43.73942" lon="1.40445">
        <ele>236.726978</ele>
        <time>2022-07-31T15:34:47.850Z</time>
      </trkpt>
      <trkpt lat="43.73931" lon="1.40441">
        <ele>236.909887</ele>
        <time>2022-07-31T15:34:49.875Z</time>
      </trkpt>
      <trkpt lat="43.73922" lon="1.40435">
        <ele>237.078917</ele>
        <time>2022-07-31T15:34:51.856Z</time>
      </trkpt>
      <trkpt lat="43.73913" lon="1.40431">
        <ele>237.245427</ele>
        <time>2022-07-31T15:34:53.860Z</time>
      </trkpt>
      <trkpt lat="43.73904" lon="1.40425">
        <ele>237.408401</ele>
        <time>2022-07-31T15:34:55.870Z</time>
      </trkpt>
      <trkpt lat="43.73895" lon="1.40419">
        <ele>237.570381</ele>
        <time>2022-07-31T15:34:57.858Z</time>
      </trkpt>
      <trkpt lat="43.73882" lon="1.40409">
        <ele>237.813787</ele>
        <time>2022-07-31T15:35:00.863Z</time>
      </trkpt>
      <trkpt lat="43.73874" lon="1.40402">
        <ele>237.976735</ele>
        <time>2022-07-31T15:35:02.864Z</time>
      </trkpt>
      <trkpt lat="43.73864" lon="1.40394">
        <ele>238.16929</ele>
        <time>2022-07-31T15:35:04.887Z</time>
      </trkpt>
      <trkpt lat="43.73855" lon="1.40388">
        <ele>238.334496</ele>
        <time>2022-07-31T15:35:06.868Z</time>
      </trkpt>
      <trkpt lat="43.73843" lon="1.40392">
        <ele>238.534781</ele>
        <time>2022-07-31T15:35:09.854Z</time>
      </trkpt>
      <trkpt lat="43.73837" lon="1.40403">
        <ele>238.70608</ele>
        <time>2022-07-31T15:35:11.868Z</time>
      </trkpt>
      <trkpt lat="43.73827" lon="1.40423">
        <ele>238.427382</ele>
        <time>2022-07-31T15:35:15.871Z</time>
      </trkpt>
      <trkpt lat="43.7382" lon="1.40434">
        <ele>236.72018</ele>
        <time>2022-07-31T15:35:17.846Z</time>
      </trkpt>
      <trkpt lat="43.73815" lon="1.40446">
        <ele>235.029428</ele>
        <time>2022-07-31T15:35:19.868Z</time>
      </trkpt>
      <trkpt lat="43.73806" lon="1.40455">
        <ele>233.187491</ele>
        <time>2022-07-31T15:35:21.871Z</time>
      </trkpt>
      <trkpt lat="43.73797" lon="1.40452">
        <ele>231.534513</ele>
        <time>2022-07-31T15:35:24.865Z</time>
      </trkpt>
      <trkpt lat="43.73784" lon="1.40436">
        <ele>228.65154</ele>
        <time>2022-07-31T15:35:27.887Z</time>
      </trkpt>
      <trkpt lat="43.73774" lon="1.40424">
        <ele>226.420055</ele>
        <time>2022-07-31T15:35:29.875Z</time>
      </trkpt>
      <trkpt lat="43.73765" lon="1.40409">
        <ele>224.097093</ele>
        <time>2022-07-31T15:35:31.883Z</time>
      </trkpt>
      <trkpt lat="43.73754" lon="1.40391">
        <ele>221.251382</ele>
        <time>2022-07-31T15:35:33.873Z</time>
      </trkpt>
      <trkpt lat="43.73742" lon="1.40373">
        <ele>218.284772</ele>
        <time>2022-07-31T15:35:35.876Z</time>
      </trkpt>
      <trkpt lat="43.73734" lon="1.40365">
        <ele>216.632939</ele>
        <time>2022-07-31T15:35:36.850Z</time>
      </trkpt>
      <trkpt lat="43.73725" lon="1.40358">
        <ele>214.86807</ele>
        <time>2022-07-31T15:35:37.892Z</time>
      </trkpt>
      <trkpt lat="43.73716" lon="1.40349">
        <ele>212.947795</ele>
        <time>2022-07-31T15:35:38.851Z</time>
      </trkpt>
      <trkpt lat="43.73706" lon="1.40338">
        <ele>210.907015</ele>
        <time>2022-07-31T15:35:39.857Z</time>
      </trkpt>
      <trkpt lat="43.73695" lon="1.40329">
        <ele>208.831801</ele>
        <time>2022-07-31T15:35:40.884Z</time>
      </trkpt>
      <trkpt lat="43.73685" lon="1.40316">
        <ele>207.36144</ele>
        <time>2022-07-31T15:35:41.867Z</time>
      </trkpt>
      <trkpt lat="43.73675" lon="1.40303">
        <ele>205.870434</ele>
        <time>2022-07-31T15:35:42.867Z</time>
      </trkpt>
      <trkpt lat="43.73665" lon="1.4029">
        <ele>204.45157</ele>
        <time>2022-07-31T15:35:43.904Z</time>
      </trkpt>
      <trkpt lat="43.73656" lon="1.40278">
        <ele>203.116727</ele>
        <time>2022-07-31T15:35:44.895Z</time>
      </trkpt>
      <trkpt lat="43.73648" lon="1.40266">
        <ele>201.891563</ele>
        <time>2022-07-31T15:35:45.839Z</time>
      </trkpt>
      <trkpt lat="43.73641" lon="1.40255">
        <ele>200.837387</ele>
        <time>2022-07-31T15:35:46.861Z</time>
      </trkpt>
      <trkpt lat="43.73635" lon="1.40244">
        <ele>199.741559</ele>
        <time>2022-07-31T15:35:47.872Z</time>
      </trkpt>
      <trkpt lat="43.73628" lon="1.40232">
        <ele>198.618844</ele>
        <time>2022-07-31T15:35:48.873Z</time>
      </trkpt>
      <trkpt lat="43.73621" lon="1.40221">
        <ele>197.477379</ele>
        <time>2022-07-31T15:35:49.854Z</time>
      </trkpt>
      <trkpt lat="43.73614" lon="1.40211">
        <ele>196.381133</ele>
        <time>2022-07-31T15:35:50.870Z</time>
      </trkpt>
      <trkpt lat="43.73607" lon="1.402">
        <ele>195.287432</ele>
        <time>2022-07-31T15:35:51.855Z</time>
      </trkpt>
      <trkpt lat="43.73601" lon="1.40191">
        <ele>194.330266</ele>
        <time>2022-07-31T15:35:52.873Z</time>
      </trkpt>
      <trkpt lat="43.73586" lon="1.40179">
        <ele>192.519576</ele>
        <time>2022-07-31T15:35:55.880Z</time>
      </trkpt>
      <trkpt lat="43.73574" lon="1.40176">
        <ele>191.239141</ele>
        <time>2022-07-31T15:35:58.858Z</time>
      </trkpt>
      <trkpt lat="43.73565" lon="1.4018">
        <ele>190.257869</ele>
        <time>2022-07-31T15:36:00.875Z</time>
      </trkpt>
      <trkpt lat="43.73554" lon="1.40183">
        <ele>189.863438</ele>
        <time>2022-07-31T15:36:02.856Z</time>
      </trkpt>
      <trkpt lat="43.73543" lon="1.40188">
        <ele>189.770099</ele>
        <time>2022-07-31T15:36:04.857Z</time>
      </trkpt>
      <trkpt lat="43.73531" lon="1.40192">
        <ele>189.675064</ele>
        <time>2022-07-31T15:36:06.863Z</time>
      </trkpt>
      <trkpt lat="43.73519" lon="1.40195">
        <ele>189.577812</ele>
        <time>2022-07-31T15:36:08.877Z</time>
      </trkpt>
      <trkpt lat="43.73507" lon="1.40194">
        <ele>189.479791</ele>
        <time>2022-07-31T15:36:10.876Z</time>
      </trkpt>
      <trkpt lat="43.73495" lon="1.40187">
        <ele>189.37943</ele>
        <time>2022-07-31T15:36:12.877Z</time>
      </trkpt>
      <trkpt lat="43.73484" lon="1.40177">
        <ele>189.276307</ele>
        <time>2022-07-31T15:36:14.870Z</time>
      </trkpt>
      <trkpt lat="43.73472" lon="1.4017">
        <ele>189.171434</ele>
        <time>2022-07-31T15:36:16.863Z</time>
      </trkpt>
      <trkpt lat="43.73458" lon="1.40168">
        <ele>189.062467</ele>
        <time>2022-07-31T15:36:18.845Z</time>
      </trkpt>
      <trkpt lat="43.73444" lon="1.4017">
        <ele>188.952717</ele>
        <time>2022-07-31T15:36:20.853Z</time>
      </trkpt>
      <trkpt lat="43.73431" lon="1.40174">
        <ele>188.843529</ele>
        <time>2022-07-31T15:36:22.853Z</time>
      </trkpt>
      <trkpt lat="43.73417" lon="1.40178">
        <ele>188.734779</ele>
        <time>2022-07-31T15:36:24.872Z</time>
      </trkpt>
      <trkpt lat="43.73398" lon="1.40184">
        <ele>188.578146</ele>
        <time>2022-07-31T15:36:27.857Z</time>
      </trkpt>
      <trkpt lat="43.73385" lon="1.40189">
        <ele>188.443235</ele>
        <time>2022-07-31T15:36:29.871Z</time>
      </trkpt>
      <trkpt lat="43.73373" lon="1.40194">
        <ele>188.264299</ele>
        <time>2022-07-31T15:36:31.855Z</time>
      </trkpt>
      <trkpt lat="43.73361" lon="1.402">
        <ele>188.088948</ele>
        <time>2022-07-31T15:36:33.860Z</time>
      </trkpt>
      <trkpt lat="43.7335" lon="1.40207">
        <ele>187.919584</ele>
        <time>2022-07-31T15:36:35.864Z</time>
      </trkpt>
      <trkpt lat="43.73341" lon="1.40216">
        <ele>187.752693</ele>
        <time>2022-07-31T15:36:37.849Z</time>
      </trkpt>
      <trkpt lat="43.7333" lon="1.40219">
        <ele>187.593377</ele>
        <time>2022-07-31T15:36:39.841Z</time>
      </trkpt>
      <trkpt lat="43.73318" lon="1.40217">
        <ele>187.420596</ele>
        <time>2022-07-31T15:36:41.862Z</time>
      </trkpt>
      <trkpt lat="43.73307" lon="1.40206">
        <ele>187.234432</ele>
        <time>2022-07-31T15:36:43.852Z</time>
      </trkpt>
      <trkpt lat="43.73299" lon="1.40191">
        <ele>187.040816</ele>
        <time>2022-07-31T15:36:45.872Z</time>
      </trkpt>
      <trkpt lat="43.73289" lon="1.40177">
        <ele>186.841019</ele>
        <time>2022-07-31T15:36:47.860Z</time>
      </trkpt>
      <trkpt lat="43.73279" lon="1.40165">
        <ele>186.647038</ele>
        <time>2022-07-31T15:36:49.845Z</time>
      </trkpt>
      <trkpt lat="43.73268" lon="1.40154">
        <ele>186.455903</ele>
        <time>2022-07-31T15:36:51.871Z</time>
      </trkpt>
      <trkpt lat="43.73257" lon="1.40144">
        <ele>186.269238</ele>
        <time>2022-07-31T15:36:53.874Z</time>
      </trkpt>
      <trkpt lat="43.73245" lon="1.40139">
        <ele>186.087178</ele>
        <time>2022-07-31T15:36:55.872Z</time>
      </trkpt>
      <trkpt lat="43.73232" lon="1.40137">
        <ele>185.945992</ele>
        <time>2022-07-31T15:36:57.851Z</time>
      </trkpt>
      <trkpt lat="43.73206" lon="1.40138">
        <ele>185.937635</ele>
        <time>2022-07-31T15:37:01.846Z</time>
      </trkpt>
      <trkpt lat="43.73193" lon="1.40138">
        <ele>185.933553</ele>
        <time>2022-07-31T15:37:03.854Z</time>
      </trkpt>
      <trkpt lat="43.73175" lon="1.40141">
        <ele>185.927586</ele>
        <time>2022-07-31T15:37:06.872Z</time>
      </trkpt>
      <trkpt lat="43.73157" lon="1.40145">
        <ele>185.921651</ele>
        <time>2022-07-31T15:37:09.846Z</time>
      </trkpt>
      <trkpt lat="43.73144" lon="1.40148">
        <ele>185.917666</ele>
        <time>2022-07-31T15:37:11.866Z</time>
      </trkpt>
      <trkpt lat="43.73126" lon="1.40154">
        <ele>185.911661</ele>
        <time>2022-07-31T15:37:14.877Z</time>
      </trkpt>
      <trkpt lat="43.73114" lon="1.40158">
        <ele>185.907667</ele>
        <time>2022-07-31T15:37:16.853Z</time>
      </trkpt>
      <trkpt lat="43.73102" lon="1.40163">
        <ele>185.903741</ele>
        <time>2022-07-31T15:37:18.847Z</time>
      </trkpt>
      <trkpt lat="43.73091" lon="1.40168">
        <ele>185.899783</ele>
        <time>2022-07-31T15:37:20.843Z</time>
      </trkpt>
      <trkpt lat="43.73079" lon="1.40173">
        <ele>185.8959</ele>
        <time>2022-07-31T15:37:22.857Z</time>
      </trkpt>
      <trkpt lat="43.73067" lon="1.40177">
        <ele>185.891875</ele>
        <time>2022-07-31T15:37:24.852Z</time>
      </trkpt>
      <trkpt lat="43.73055" lon="1.40182">
        <ele>185.896012</ele>
        <time>2022-07-31T15:37:26.867Z</time>
      </trkpt>
      <trkpt lat="43.73044" lon="1.40186">
        <ele>185.91972</ele>
        <time>2022-07-31T15:37:28.864Z</time>
      </trkpt>
      <trkpt lat="43.73031" lon="1.40191">
        <ele>185.944216</ele>
        <time>2022-07-31T15:37:30.841Z</time>
      </trkpt>
      <trkpt lat="43.7302" lon="1.40196">
        <ele>185.967701</ele>
        <time>2022-07-31T15:37:32.862Z</time>
      </trkpt>
      <trkpt lat="43.73008" lon="1.402">
        <ele>185.991597</ele>
        <time>2022-07-31T15:37:34.857Z</time>
      </trkpt>
      <trkpt lat="43.72996" lon="1.40205">
        <ele>186.015906</ele>
        <time>2022-07-31T15:37:36.871Z</time>
      </trkpt>
      <trkpt lat="43.72984" lon="1.4021">
        <ele>186.040438</ele>
        <time>2022-07-31T15:37:38.857Z</time>
      </trkpt>
      <trkpt lat="43.72972" lon="1.40215">
        <ele>186.064973</ele>
        <time>2022-07-31T15:37:40.868Z</time>
      </trkpt>
      <trkpt lat="43.7296" lon="1.4022">
        <ele>186.088707</ele>
        <time>2022-07-31T15:37:42.862Z</time>
      </trkpt>
      <trkpt lat="43.72949" lon="1.40226">
        <ele>186.112578</ele>
        <time>2022-07-31T15:37:44.878Z</time>
      </trkpt>
      <trkpt lat="43.72937" lon="1.40231">
        <ele>186.135856</ele>
        <time>2022-07-31T15:37:46.872Z</time>
      </trkpt>
      <trkpt lat="43.72926" lon="1.40238">
        <ele>186.158917</ele>
        <time>2022-07-31T15:37:48.881Z</time>
      </trkpt>
      <trkpt lat="43.72915" lon="1.40246">
        <ele>186.183022</ele>
        <time>2022-07-31T15:37:50.877Z</time>
      </trkpt>
      <trkpt lat="43.72905" lon="1.40255">
        <ele>186.206765</ele>
        <time>2022-07-31T15:37:52.874Z</time>
      </trkpt>
      <trkpt lat="43.72895" lon="1.40266">
        <ele>186.231132</ele>
        <time>2022-07-31T15:37:54.884Z</time>
      </trkpt>
      <trkpt lat="43.72882" lon="1.40283">
        <ele>186.276901</ele>
        <time>2022-07-31T15:37:57.871Z</time>
      </trkpt>
      <trkpt lat="43.72874" lon="1.40296">
        <ele>186.309792</ele>
        <time>2022-07-31T15:37:59.866Z</time>
      </trkpt>
      <trkpt lat="43.72866" lon="1.40309">
        <ele>186.342522</ele>
        <time>2022-07-31T15:38:01.892Z</time>
      </trkpt>
      <trkpt lat="43.72858" lon="1.40322">
        <ele>186.37503</ele>
        <time>2022-07-31T15:38:03.884Z</time>
      </trkpt>
      <trkpt lat="43.72851" lon="1.40336">
        <ele>186.408954</ele>
        <time>2022-07-31T15:38:05.871Z</time>
      </trkpt>
      <trkpt lat="43.72843" lon="1.4035">
        <ele>186.443649</ele>
        <time>2022-07-31T15:38:07.868Z</time>
      </trkpt>
      <trkpt lat="43.72834" lon="1.40364">
        <ele>186.478589</ele>
        <time>2022-07-31T15:38:09.889Z</time>
      </trkpt>
      <trkpt lat="43.72825" lon="1.40377">
        <ele>186.513301</ele>
        <time>2022-07-31T15:38:11.877Z</time>
      </trkpt>
      <trkpt lat="43.72816" lon="1.4039">
        <ele>186.547714</ele>
        <time>2022-07-31T15:38:13.872Z</time>
      </trkpt>
      <trkpt lat="43.72807" lon="1.40402">
        <ele>186.580902</ele>
        <time>2022-07-31T15:38:15.846Z</time>
      </trkpt>
      <trkpt lat="43.72798" lon="1.40412">
        <ele>186.613564</ele>
        <time>2022-07-31T15:38:17.854Z</time>
      </trkpt>
      <trkpt lat="43.72787" lon="1.40421">
        <ele>186.646427</ele>
        <time>2022-07-31T15:38:19.884Z</time>
      </trkpt>
      <trkpt lat="43.72776" lon="1.40429">
        <ele>186.679744</ele>
        <time>2022-07-31T15:38:21.866Z</time>
      </trkpt>
      <trkpt lat="43.72765" lon="1.40435">
        <ele>186.712585</ele>
        <time>2022-07-31T15:38:23.864Z</time>
      </trkpt>
      <trkpt lat="43.72753" lon="1.4044">
        <ele>186.702794</ele>
        <time>2022-07-31T15:38:25.856Z</time>
      </trkpt>
      <trkpt lat="43.72742" lon="1.40445">
        <ele>186.684654</ele>
        <time>2022-07-31T15:38:27.852Z</time>
      </trkpt>
      <trkpt lat="43.7273" lon="1.40448">
        <ele>186.665868</ele>
        <time>2022-07-31T15:38:29.863Z</time>
      </trkpt>
      <trkpt lat="43.72718" lon="1.40452">
        <ele>186.647005</ele>
        <time>2022-07-31T15:38:31.851Z</time>
      </trkpt>
      <trkpt lat="43.72706" lon="1.40456">
        <ele>186.628292</ele>
        <time>2022-07-31T15:38:33.863Z</time>
      </trkpt>
      <trkpt lat="43.72695" lon="1.4046">
        <ele>186.609607</ele>
        <time>2022-07-31T15:38:35.860Z</time>
      </trkpt>
      <trkpt lat="43.72683" lon="1.40465">
        <ele>186.59123</ele>
        <time>2022-07-31T15:38:37.848Z</time>
      </trkpt>
      <trkpt lat="43.72672" lon="1.40471">
        <ele>186.572397</ele>
        <time>2022-07-31T15:38:39.855Z</time>
      </trkpt>
      <trkpt lat="43.72661" lon="1.40477">
        <ele>186.553737</ele>
        <time>2022-07-31T15:38:41.868Z</time>
      </trkpt>
      <trkpt lat="43.7265" lon="1.40485">
        <ele>186.534647</ele>
        <time>2022-07-31T15:38:43.862Z</time>
      </trkpt>
      <trkpt lat="43.72639" lon="1.40493">
        <ele>186.515355</ele>
        <time>2022-07-31T15:38:45.842Z</time>
      </trkpt>
      <trkpt lat="43.72629" lon="1.40503">
        <ele>186.495987</ele>
        <time>2022-07-31T15:38:47.854Z</time>
      </trkpt>
      <trkpt lat="43.72618" lon="1.40512">
        <ele>186.476952</ele>
        <time>2022-07-31T15:38:49.872Z</time>
      </trkpt>
      <trkpt lat="43.72608" lon="1.40521">
        <ele>186.457656</ele>
        <time>2022-07-31T15:38:51.863Z</time>
      </trkpt>
      <trkpt lat="43.72592" lon="1.40535">
        <ele>186.458615</ele>
        <time>2022-07-31T15:38:54.842Z</time>
      </trkpt>
      <trkpt lat="43.72582" lon="1.40544">
        <ele>186.497166</ele>
        <time>2022-07-31T15:38:56.872Z</time>
      </trkpt>
      <trkpt lat="43.72571" lon="1.40553">
        <ele>186.536217</ele>
        <time>2022-07-31T15:38:58.909Z</time>
      </trkpt>
      <trkpt lat="43.7256" lon="1.4056">
        <ele>186.575228</ele>
        <time>2022-07-31T15:39:00.840Z</time>
      </trkpt>
      <trkpt lat="43.72547" lon="1.40564">
        <ele>186.614794</ele>
        <time>2022-07-31T15:39:02.862Z</time>
      </trkpt>
      <trkpt lat="43.72534" lon="1.40567">
        <ele>186.655047</ele>
        <time>2022-07-31T15:39:04.872Z</time>
      </trkpt>
      <trkpt lat="43.72522" lon="1.40569">
        <ele>186.694798</ele>
        <time>2022-07-31T15:39:06.849Z</time>
      </trkpt>
      <trkpt lat="43.72509" lon="1.40571">
        <ele>186.734855</ele>
        <time>2022-07-31T15:39:08.882Z</time>
      </trkpt>
      <trkpt lat="43.72496" lon="1.40573">
        <ele>186.775166</ele>
        <time>2022-07-31T15:39:10.861Z</time>
      </trkpt>
      <trkpt lat="43.72483" lon="1.40576">
        <ele>186.814363</ele>
        <time>2022-07-31T15:39:12.865Z</time>
      </trkpt>
      <trkpt lat="43.72471" lon="1.40578">
        <ele>186.852913</ele>
        <time>2022-07-31T15:39:14.865Z</time>
      </trkpt>
      <trkpt lat="43.72459" lon="1.40581">
        <ele>186.891529</ele>
        <time>2022-07-31T15:39:16.849Z</time>
      </trkpt>
      <trkpt lat="43.72447" lon="1.40583">
        <ele>186.929837</ele>
        <time>2022-07-31T15:39:18.856Z</time>
      </trkpt>
      <trkpt lat="43.72435" lon="1.40586">
        <ele>186.967605</ele>
        <time>2022-07-31T15:39:20.866Z</time>
      </trkpt>
      <trkpt lat="43.72423" lon="1.40589">
        <ele>187.002996</ele>
        <time>2022-07-31T15:39:22.854Z</time>
      </trkpt>
      <trkpt lat="43.72411" lon="1.40592">
        <ele>187.028848</ele>
        <time>2022-07-31T15:39:24.881Z</time>
      </trkpt>
      <trkpt lat="43.72399" lon="1.40594">
        <ele>187.054657</ele>
        <time>2022-07-31T15:39:26.848Z</time>
      </trkpt>
      <trkpt lat="43.72386" lon="1.40595">
        <ele>187.080659</ele>
        <time>2022-07-31T15:39:28.860Z</time>
      </trkpt>
      <trkpt lat="43.72374" lon="1.40597">
        <ele>187.106665</ele>
        <time>2022-07-31T15:39:30.854Z</time>
      </trkpt>
      <trkpt lat="43.72362" lon="1.40599">
        <ele>187.132629</ele>
        <time>2022-07-31T15:39:32.856Z</time>
      </trkpt>
      <trkpt lat="43.7235" lon="1.40603">
        <ele>187.15882</ele>
        <time>2022-07-31T15:39:34.846Z</time>
      </trkpt>
      <trkpt lat="43.72338" lon="1.40608">
        <ele>187.185012</ele>
        <time>2022-07-31T15:39:36.867Z</time>
      </trkpt>
      <trkpt lat="43.72327" lon="1.40615">
        <ele>187.211383</ele>
        <time>2022-07-31T15:39:38.843Z</time>
      </trkpt>
      <trkpt lat="43.72316" lon="1.40621">
        <ele>187.237283</ele>
        <time>2022-07-31T15:39:40.864Z</time>
      </trkpt>
      <trkpt lat="43.72304" lon="1.40628">
        <ele>187.263318</ele>
        <time>2022-07-31T15:39:42.854Z</time>
      </trkpt>
      <trkpt lat="43.72293" lon="1.40635">
        <ele>187.28934</ele>
        <time>2022-07-31T15:39:44.866Z</time>
      </trkpt>
      <trkpt lat="43.72282" lon="1.4064">
        <ele>187.315235</ele>
        <time>2022-07-31T15:39:46.873Z</time>
      </trkpt>
      <trkpt lat="43.7227" lon="1.40642">
        <ele>187.340891</ele>
        <time>2022-07-31T15:39:48.849Z</time>
      </trkpt>
      <trkpt lat="43.72258" lon="1.40643">
        <ele>187.366663</ele>
        <time>2022-07-31T15:39:50.862Z</time>
      </trkpt>
      <trkpt lat="43.72245" lon="1.40642">
        <ele>187.413119</ele>
        <time>2022-07-31T15:39:52.845Z</time>
      </trkpt>
      <trkpt lat="43.72234" lon="1.40639">
        <ele>187.47926</ele>
        <time>2022-07-31T15:39:54.855Z</time>
      </trkpt>
      <trkpt lat="43.72222" lon="1.40635">
        <ele>187.544643</ele>
        <time>2022-07-31T15:39:56.871Z</time>
      </trkpt>
      <trkpt lat="43.7221" lon="1.40633">
        <ele>187.61109</ele>
        <time>2022-07-31T15:39:58.865Z</time>
      </trkpt>
      <trkpt lat="43.72198" lon="1.40633">
        <ele>187.676908</ele>
        <time>2022-07-31T15:40:00.847Z</time>
      </trkpt>
      <trkpt lat="43.72186" lon="1.40635">
        <ele>187.742566</ele>
        <time>2022-07-31T15:40:02.865Z</time>
      </trkpt>
      <trkpt lat="43.72174" lon="1.40637">
        <ele>187.807625</ele>
        <time>2022-07-31T15:40:04.849Z</time>
      </trkpt>
      <trkpt lat="43.72163" lon="1.4064">
        <ele>187.872425</ele>
        <time>2022-07-31T15:40:06.846Z</time>
      </trkpt>
      <trkpt lat="43.72146" lon="1.40643">
        <ele>187.964692</ele>
        <time>2022-07-31T15:40:09.857Z</time>
      </trkpt>
      <trkpt lat="43.72135" lon="1.40647">
        <ele>188.028119</ele>
        <time>2022-07-31T15:40:11.868Z</time>
      </trkpt>
      <trkpt lat="43.72124" lon="1.40651">
        <ele>188.090396</ele>
        <time>2022-07-31T15:40:13.864Z</time>
      </trkpt>
      <trkpt lat="43.72113" lon="1.40657">
        <ele>188.153426</ele>
        <time>2022-07-31T15:40:15.856Z</time>
      </trkpt>
      <trkpt lat="43.72103" lon="1.40663">
        <ele>188.215034</ele>
        <time>2022-07-31T15:40:17.848Z</time>
      </trkpt>
      <trkpt lat="43.72094" lon="1.4067">
        <ele>188.272727</ele>
        <time>2022-07-31T15:40:19.854Z</time>
      </trkpt>
      <trkpt lat="43.72084" lon="1.40673">
        <ele>188.325822</ele>
        <time>2022-07-31T15:40:21.854Z</time>
      </trkpt>
      <trkpt lat="43.72076" lon="1.4068">
        <ele>188.389352</ele>
        <time>2022-07-31T15:40:24.854Z</time>
      </trkpt>
      <trkpt lat="43.72066" lon="1.40689">
        <ele>188.526312</ele>
        <time>2022-07-31T15:40:28.864Z</time>
      </trkpt>
      <trkpt lat="43.72054" lon="1.40697">
        <ele>188.674195</ele>
        <time>2022-07-31T15:40:31.868Z</time>
      </trkpt>
      <trkpt lat="43.72049" lon="1.40709">
        <ele>188.780736</ele>
        <time>2022-07-31T15:40:33.876Z</time>
      </trkpt>
      <trkpt lat="43.7204" lon="1.40704">
        <ele>188.890251</ele>
        <time>2022-07-31T15:40:39.844Z</time>
      </trkpt>
      <trkpt lat="43.72029" lon="1.40697">
        <ele>189.026467</ele>
        <time>2022-07-31T15:40:42.873Z</time>
      </trkpt>
      <trkpt lat="43.72018" lon="1.40692">
        <ele>189.147231</ele>
        <time>2022-07-31T15:40:44.866Z</time>
      </trkpt>
      <trkpt lat="43.72007" lon="1.40688">
        <ele>189.278192</ele>
        <time>2022-07-31T15:40:46.895Z</time>
      </trkpt>
      <trkpt lat="43.71995" lon="1.40685">
        <ele>189.40864</ele>
        <time>2022-07-31T15:40:48.864Z</time>
      </trkpt>
      <trkpt lat="43.71984" lon="1.40681">
        <ele>189.539924</ele>
        <time>2022-07-31T15:40:50.885Z</time>
      </trkpt>
      <trkpt lat="43.71972" lon="1.40677">
        <ele>189.672284</ele>
        <time>2022-07-31T15:40:52.859Z</time>
      </trkpt>
      <trkpt lat="43.7196" lon="1.40673">
        <ele>189.807153</ele>
        <time>2022-07-31T15:40:54.843Z</time>
      </trkpt>
      <trkpt lat="43.71948" lon="1.4067">
        <ele>189.938102</ele>
        <time>2022-07-31T15:40:56.878Z</time>
      </trkpt>
      <trkpt lat="43.71936" lon="1.40668">
        <ele>190.07327</ele>
        <time>2022-07-31T15:40:58.861Z</time>
      </trkpt>
      <trkpt lat="43.71925" lon="1.40665">
        <ele>190.197999</ele>
        <time>2022-07-31T15:41:00.863Z</time>
      </trkpt>
      <trkpt lat="43.71914" lon="1.40662">
        <ele>190.323378</ele>
        <time>2022-07-31T15:41:02.842Z</time>
      </trkpt>
      <trkpt lat="43.71903" lon="1.4066">
        <ele>190.271034</ele>
        <time>2022-07-31T15:41:04.874Z</time>
      </trkpt>
      <trkpt lat="43.71892" lon="1.40657">
        <ele>190.168382</ele>
        <time>2022-07-31T15:41:06.849Z</time>
      </trkpt>
      <trkpt lat="43.7188" lon="1.40655">
        <ele>190.064129</ele>
        <time>2022-07-31T15:41:08.849Z</time>
      </trkpt>
      <trkpt lat="43.71869" lon="1.40653">
        <ele>189.958792</ele>
        <time>2022-07-31T15:41:10.845Z</time>
      </trkpt>
      <trkpt lat="43.71857" lon="1.4065">
        <ele>189.85435</ele>
        <time>2022-07-31T15:41:12.875Z</time>
      </trkpt>
      <trkpt lat="43.71846" lon="1.40648">
        <ele>189.751891</ele>
        <time>2022-07-31T15:41:14.861Z</time>
      </trkpt>
      <trkpt lat="43.71836" lon="1.40647">
        <ele>189.655661</ele>
        <time>2022-07-31T15:41:16.847Z</time>
      </trkpt>
      <trkpt lat="43.71828" lon="1.40661">
        <ele>189.542647</ele>
        <time>2022-07-31T15:41:19.848Z</time>
      </trkpt>
      <trkpt lat="43.71823" lon="1.40672">
        <ele>189.454045</ele>
        <time>2022-07-31T15:41:21.861Z</time>
      </trkpt>
      <trkpt lat="43.71812" lon="1.40675">
        <ele>189.355969</ele>
        <time>2022-07-31T15:41:23.877Z</time>
      </trkpt>
      <trkpt lat="43.718" lon="1.40673">
        <ele>189.246777</ele>
        <time>2022-07-31T15:41:25.878Z</time>
      </trkpt>
      <trkpt lat="43.71788" lon="1.40676">
        <ele>189.13219</ele>
        <time>2022-07-31T15:41:27.866Z</time>
      </trkpt>
      <trkpt lat="43.71779" lon="1.40687">
        <ele>189.025159</ele>
        <time>2022-07-31T15:41:29.849Z</time>
      </trkpt>
      <trkpt lat="43.71774" lon="1.40702">
        <ele>188.917826</ele>
        <time>2022-07-31T15:41:31.872Z</time>
      </trkpt>
      <trkpt lat="43.7177" lon="1.40718">
        <ele>188.810003</ele>
        <time>2022-07-31T15:41:33.862Z</time>
      </trkpt>
      <trkpt lat="43.71767" lon="1.40734">
        <ele>188.712146</ele>
        <time>2022-07-31T15:41:35.873Z</time>
      </trkpt>
      <trkpt lat="43.71764" lon="1.40751">
        <ele>188.672275</ele>
        <time>2022-07-31T15:41:37.857Z</time>
      </trkpt>
      <trkpt lat="43.7176" lon="1.40767">
        <ele>188.632043</ele>
        <time>2022-07-31T15:41:39.864Z</time>
      </trkpt>
      <trkpt lat="43.71757" lon="1.40783">
        <ele>188.59213</ele>
        <time>2022-07-31T15:41:41.861Z</time>
      </trkpt>
      <trkpt lat="43.71752" lon="1.40799">
        <ele>188.552701</ele>
        <time>2022-07-31T15:41:43.850Z</time>
      </trkpt>
      <trkpt lat="43.71748" lon="1.40814">
        <ele>188.513074</ele>
        <time>2022-07-31T15:41:45.893Z</time>
      </trkpt>
      <trkpt lat="43.71742" lon="1.40838">
        <ele>188.453441</ele>
        <time>2022-07-31T15:41:48.858Z</time>
      </trkpt>
      <trkpt lat="43.71737" lon="1.40853">
        <ele>188.413889</ele>
        <time>2022-07-31T15:41:50.879Z</time>
      </trkpt>
      <trkpt lat="43.71732" lon="1.40869">
        <ele>188.373909</ele>
        <time>2022-07-31T15:41:52.883Z</time>
      </trkpt>
      <trkpt lat="43.71725" lon="1.40892">
        <ele>188.313617</ele>
        <time>2022-07-31T15:41:55.853Z</time>
      </trkpt>
      <trkpt lat="43.7172" lon="1.40908">
        <ele>188.273898</ele>
        <time>2022-07-31T15:41:57.859Z</time>
      </trkpt>
      <trkpt lat="43.71714" lon="1.40922">
        <ele>188.234935</ele>
        <time>2022-07-31T15:41:59.880Z</time>
      </trkpt>
      <trkpt lat="43.71709" lon="1.40937">
        <ele>188.195943</ele>
        <time>2022-07-31T15:42:01.863Z</time>
      </trkpt>
      <trkpt lat="43.71704" lon="1.40952">
        <ele>188.15722</ele>
        <time>2022-07-31T15:42:03.863Z</time>
      </trkpt>
      <trkpt lat="43.71697" lon="1.40965">
        <ele>188.129266</ele>
        <time>2022-07-31T15:42:05.870Z</time>
      </trkpt>
      <trkpt lat="43.71688" lon="1.40975">
        <ele>188.118153</ele>
        <time>2022-07-31T15:42:07.844Z</time>
      </trkpt>
      <trkpt lat="43.71678" lon="1.40984">
        <ele>188.10682</ele>
        <time>2022-07-31T15:42:09.875Z</time>
      </trkpt>
      <trkpt lat="43.71668" lon="1.40994">
        <ele>188.095602</ele>
        <time>2022-07-31T15:42:11.849Z</time>
      </trkpt>
      <trkpt lat="43.71658" lon="1.41001">
        <ele>188.084726</ele>
        <time>2022-07-31T15:42:13.850Z</time>
      </trkpt>
      <trkpt lat="43.71647" lon="1.41006">
        <ele>188.07359</ele>
        <time>2022-07-31T15:42:15.856Z</time>
      </trkpt>
      <trkpt lat="43.71635" lon="1.4101">
        <ele>188.061833</ele>
        <time>2022-07-31T15:42:17.861Z</time>
      </trkpt>
      <trkpt lat="43.71623" lon="1.41016">
        <ele>188.05003</ele>
        <time>2022-07-31T15:42:19.848Z</time>
      </trkpt>
      <trkpt lat="43.71612" lon="1.41021">
        <ele>188.038693</ele>
        <time>2022-07-31T15:42:21.860Z</time>
      </trkpt>
      <trkpt lat="43.716" lon="1.41024">
        <ele>188.027264</ele>
        <time>2022-07-31T15:42:23.858Z</time>
      </trkpt>
      <trkpt lat="43.71582" lon="1.41026">
        <ele>188.010256</ele>
        <time>2022-07-31T15:42:26.867Z</time>
      </trkpt>
      <trkpt lat="43.7157" lon="1.41027">
        <ele>187.999055</ele>
        <time>2022-07-31T15:42:28.867Z</time>
      </trkpt>
      <trkpt lat="43.71559" lon="1.41028">
        <ele>187.98815</ele>
        <time>2022-07-31T15:42:30.868Z</time>
      </trkpt>
      <trkpt lat="43.71547" lon="1.41029">
        <ele>187.977232</ele>
        <time>2022-07-31T15:42:32.891Z</time>
      </trkpt>
      <trkpt lat="43.71535" lon="1.4103">
        <ele>187.966144</ele>
        <time>2022-07-31T15:42:34.857Z</time>
      </trkpt>
      <trkpt lat="43.71524" lon="1.41031">
        <ele>187.996359</ele>
        <time>2022-07-31T15:42:36.861Z</time>
      </trkpt>
      <trkpt lat="43.71512" lon="1.41032">
        <ele>188.04475</ele>
        <time>2022-07-31T15:42:38.885Z</time>
      </trkpt>
      <trkpt lat="43.715" lon="1.41033">
        <ele>188.093564</ele>
        <time>2022-07-31T15:42:40.847Z</time>
      </trkpt>
      <trkpt lat="43.71488" lon="1.41033">
        <ele>188.141086</ele>
        <time>2022-07-31T15:42:42.878Z</time>
      </trkpt>
      <trkpt lat="43.71477" lon="1.41034">
        <ele>188.188366</ele>
        <time>2022-07-31T15:42:44.849Z</time>
      </trkpt>
      <trkpt lat="43.71466" lon="1.41034">
        <ele>188.233514</ele>
        <time>2022-07-31T15:42:46.870Z</time>
      </trkpt>
      <trkpt lat="43.71454" lon="1.41033">
        <ele>188.279818</ele>
        <time>2022-07-31T15:42:48.866Z</time>
      </trkpt>
      <trkpt lat="43.71443" lon="1.41033">
        <ele>188.326934</ele>
        <time>2022-07-31T15:42:50.865Z</time>
      </trkpt>
      <trkpt lat="43.71431" lon="1.41033">
        <ele>188.373632</ele>
        <time>2022-07-31T15:42:52.847Z</time>
      </trkpt>
      <trkpt lat="43.7142" lon="1.41032">
        <ele>188.419967</ele>
        <time>2022-07-31T15:42:54.893Z</time>
      </trkpt>
      <trkpt lat="43.71408" lon="1.41031">
        <ele>188.466721</ele>
        <time>2022-07-31T15:42:56.859Z</time>
      </trkpt>
      <trkpt lat="43.71397" lon="1.4103">
        <ele>188.514302</ele>
        <time>2022-07-31T15:42:58.867Z</time>
      </trkpt>
      <trkpt lat="43.71385" lon="1.4103">
        <ele>188.56102</ele>
        <time>2022-07-31T15:43:00.860Z</time>
      </trkpt>
      <trkpt lat="43.71373" lon="1.41031">
        <ele>188.609489</ele>
        <time>2022-07-31T15:43:02.849Z</time>
      </trkpt>
      <trkpt lat="43.71361" lon="1.41033">
        <ele>188.660289</ele>
        <time>2022-07-31T15:43:04.873Z</time>
      </trkpt>
      <trkpt lat="43.71349" lon="1.41035">
        <ele>188.706755</ele>
        <time>2022-07-31T15:43:06.869Z</time>
      </trkpt>
      <trkpt lat="43.71336" lon="1.41038">
        <ele>188.745421</ele>
        <time>2022-07-31T15:43:08.864Z</time>
      </trkpt>
      <trkpt lat="43.71324" lon="1.4104">
        <ele>188.783559</ele>
        <time>2022-07-31T15:43:10.873Z</time>
      </trkpt>
      <trkpt lat="43.71312" lon="1.41041">
        <ele>188.821315</ele>
        <time>2022-07-31T15:43:12.872Z</time>
      </trkpt>
      <trkpt lat="43.71301" lon="1.41039">
        <ele>188.858624</ele>
        <time>2022-07-31T15:43:14.868Z</time>
      </trkpt>
      <trkpt lat="43.71289" lon="1.41037">
        <ele>188.894659</ele>
        <time>2022-07-31T15:43:16.873Z</time>
      </trkpt>
      <trkpt lat="43.71278" lon="1.41037">
        <ele>188.930544</ele>
        <time>2022-07-31T15:43:18.853Z</time>
      </trkpt>
      <trkpt lat="43.71266" lon="1.41037">
        <ele>188.967639</ele>
        <time>2022-07-31T15:43:20.864Z</time>
      </trkpt>
      <trkpt lat="43.71255" lon="1.41038">
        <ele>189.003225</ele>
        <time>2022-07-31T15:43:22.881Z</time>
      </trkpt>
      <trkpt lat="43.71243" lon="1.4104">
        <ele>189.038972</ele>
        <time>2022-07-31T15:43:24.862Z</time>
      </trkpt>
      <trkpt lat="43.71232" lon="1.41042">
        <ele>189.07605</ele>
        <time>2022-07-31T15:43:26.859Z</time>
      </trkpt>
      <trkpt lat="43.7122" lon="1.41044">
        <ele>189.1131</ele>
        <time>2022-07-31T15:43:28.848Z</time>
      </trkpt>
      <trkpt lat="43.71208" lon="1.41045">
        <ele>189.150633</ele>
        <time>2022-07-31T15:43:30.850Z</time>
      </trkpt>
      <trkpt lat="43.71196" lon="1.41046">
        <ele>189.187735</ele>
        <time>2022-07-31T15:43:32.882Z</time>
      </trkpt>
      <trkpt lat="43.71185" lon="1.41044">
        <ele>189.22431</ele>
        <time>2022-07-31T15:43:34.873Z</time>
      </trkpt>
      <trkpt lat="43.71173" lon="1.41043">
        <ele>189.261906</ele>
        <time>2022-07-31T15:43:36.851Z</time>
      </trkpt>
      <trkpt lat="43.71161" lon="1.41041">
        <ele>189.30252</ele>
        <time>2022-07-31T15:43:38.856Z</time>
      </trkpt>
      <trkpt lat="43.7115" lon="1.41039">
        <ele>189.343425</ele>
        <time>2022-07-31T15:43:40.872Z</time>
      </trkpt>
      <trkpt lat="43.71138" lon="1.41038">
        <ele>189.384516</ele>
        <time>2022-07-31T15:43:42.850Z</time>
      </trkpt>
      <trkpt lat="43.71127" lon="1.41038">
        <ele>189.424493</ele>
        <time>2022-07-31T15:43:44.855Z</time>
      </trkpt>
      <trkpt lat="43.71115" lon="1.41038">
        <ele>189.463768</ele>
        <time>2022-07-31T15:43:46.844Z</time>
      </trkpt>
      <trkpt lat="43.71104" lon="1.41038">
        <ele>189.503046</ele>
        <time>2022-07-31T15:43:48.862Z</time>
      </trkpt>
      <trkpt lat="43.71093" lon="1.41039">
        <ele>189.541627</ele>
        <time>2022-07-31T15:43:50.861Z</time>
      </trkpt>
      <trkpt lat="43.71082" lon="1.4104">
        <ele>189.580341</ele>
        <time>2022-07-31T15:43:52.869Z</time>
      </trkpt>
      <trkpt lat="43.71071" lon="1.41041">
        <ele>189.619733</ele>
        <time>2022-07-31T15:43:54.860Z</time>
      </trkpt>
      <trkpt lat="43.7106" lon="1.41042">
        <ele>189.658058</ele>
        <time>2022-07-31T15:43:56.848Z</time>
      </trkpt>
      <trkpt lat="43.71049" lon="1.41043">
        <ele>189.696751</ele>
        <time>2022-07-31T15:43:58.866Z</time>
      </trkpt>
      <trkpt lat="43.71038" lon="1.41045">
        <ele>189.735511</ele>
        <time>2022-07-31T15:44:00.887Z</time>
      </trkpt>
      <trkpt lat="43.71027" lon="1.41046">
        <ele>189.774248</ele>
        <time>2022-07-31T15:44:02.843Z</time>
      </trkpt>
      <trkpt lat="43.71016" lon="1.41048">
        <ele>189.813383</ele>
        <time>2022-07-31T15:44:04.868Z</time>
      </trkpt>
      <trkpt lat="43.71005" lon="1.41049">
        <ele>189.852426</ele>
        <time>2022-07-31T15:44:06.871Z</time>
      </trkpt>
      <trkpt lat="43.70994" lon="1.4105">
        <ele>189.890807</ele>
        <time>2022-07-31T15:44:08.843Z</time>
      </trkpt>
      <trkpt lat="43.70983" lon="1.41053">
        <ele>189.917238</ele>
        <time>2022-07-31T15:44:10.853Z</time>
      </trkpt>
      <trkpt lat="43.70971" lon="1.41055">
        <ele>189.944626</ele>
        <time>2022-07-31T15:44:12.907Z</time>
      </trkpt>
      <trkpt lat="43.70959" lon="1.41057">
        <ele>189.972946</ele>
        <time>2022-07-31T15:44:14.851Z</time>
      </trkpt>
      <trkpt lat="43.70948" lon="1.41061">
        <ele>190.000521</ele>
        <time>2022-07-31T15:44:16.869Z</time>
      </trkpt>
      <trkpt lat="43.70937" lon="1.41063">
        <ele>190.026671</ele>
        <time>2022-07-31T15:44:18.873Z</time>
      </trkpt>
      <trkpt lat="43.70926" lon="1.41066">
        <ele>190.052255</ele>
        <time>2022-07-31T15:44:20.872Z</time>
      </trkpt>
      <trkpt lat="43.70916" lon="1.41067">
        <ele>190.077131</ele>
        <time>2022-07-31T15:44:22.883Z</time>
      </trkpt>
      <trkpt lat="43.70906" lon="1.4107">
        <ele>190.101587</ele>
        <time>2022-07-31T15:44:24.864Z</time>
      </trkpt>
      <trkpt lat="43.70895" lon="1.41071">
        <ele>190.125929</ele>
        <time>2022-07-31T15:44:26.850Z</time>
      </trkpt>
      <trkpt lat="43.70885" lon="1.41071">
        <ele>190.150655</ele>
        <time>2022-07-31T15:44:28.886Z</time>
      </trkpt>
      <trkpt lat="43.70875" lon="1.41069">
        <ele>190.174892</ele>
        <time>2022-07-31T15:44:30.893Z</time>
      </trkpt>
      <trkpt lat="43.70864" lon="1.41068">
        <ele>190.199788</ele>
        <time>2022-07-31T15:44:32.875Z</time>
      </trkpt>
      <trkpt lat="43.70853" lon="1.41065">
        <ele>190.225139</ele>
        <time>2022-07-31T15:44:34.881Z</time>
      </trkpt>
      <trkpt lat="43.70843" lon="1.41062">
        <ele>190.250753</ele>
        <time>2022-07-31T15:44:36.860Z</time>
      </trkpt>
      <trkpt lat="43.70827" lon="1.41062">
        <ele>190.288463</ele>
        <time>2022-07-31T15:44:39.864Z</time>
      </trkpt>
      <trkpt lat="43.70816" lon="1.41061">
        <ele>190.312696</ele>
        <time>2022-07-31T15:44:41.860Z</time>
      </trkpt>
      <trkpt lat="43.70806" lon="1.41063">
        <ele>190.296696</ele>
        <time>2022-07-31T15:44:43.862Z</time>
      </trkpt>
      <trkpt lat="43.70795" lon="1.41065">
        <ele>190.280124</ele>
        <time>2022-07-31T15:44:45.865Z</time>
      </trkpt>
      <trkpt lat="43.70783" lon="1.41067">
        <ele>190.263038</ele>
        <time>2022-07-31T15:44:47.863Z</time>
      </trkpt>
      <trkpt lat="43.70772" lon="1.4107">
        <ele>190.245359</ele>
        <time>2022-07-31T15:44:49.848Z</time>
      </trkpt>
      <trkpt lat="43.7076" lon="1.41073">
        <ele>190.227994</ele>
        <time>2022-07-31T15:44:51.857Z</time>
      </trkpt>
      <trkpt lat="43.70749" lon="1.41074">
        <ele>190.211109</ele>
        <time>2022-07-31T15:44:53.861Z</time>
      </trkpt>
      <trkpt lat="43.70737" lon="1.41074">
        <ele>190.193336</ele>
        <time>2022-07-31T15:44:55.865Z</time>
      </trkpt>
      <trkpt lat="43.70725" lon="1.41075">
        <ele>190.175256</ele>
        <time>2022-07-31T15:44:57.856Z</time>
      </trkpt>
      <trkpt lat="43.70713" lon="1.41075">
        <ele>190.156901</ele>
        <time>2022-07-31T15:44:59.862Z</time>
      </trkpt>
      <trkpt lat="43.70702" lon="1.41075">
        <ele>190.139298</ele>
        <time>2022-07-31T15:45:01.878Z</time>
      </trkpt>
      <trkpt lat="43.7069" lon="1.41075">
        <ele>190.121546</ele>
        <time>2022-07-31T15:45:03.874Z</time>
      </trkpt>
      <trkpt lat="43.70678" lon="1.41075">
        <ele>190.104394</ele>
        <time>2022-07-31T15:45:05.884Z</time>
      </trkpt>
      <trkpt lat="43.70667" lon="1.41075">
        <ele>190.087081</ele>
        <time>2022-07-31T15:45:07.874Z</time>
      </trkpt>
      <trkpt lat="43.70655" lon="1.41072">
        <ele>190.069749</ele>
        <time>2022-07-31T15:45:09.847Z</time>
      </trkpt>
      <trkpt lat="43.70644" lon="1.4107">
        <ele>190.052863</ele>
        <time>2022-07-31T15:45:11.850Z</time>
      </trkpt>
      <trkpt lat="43.70633" lon="1.41069">
        <ele>190.019438</ele>
        <time>2022-07-31T15:45:13.865Z</time>
      </trkpt>
      <trkpt lat="43.70622" lon="1.41069">
        <ele>189.958512</ele>
        <time>2022-07-31T15:45:15.848Z</time>
      </trkpt>
      <trkpt lat="43.70606" lon="1.41072">
        <ele>189.866624</ele>
        <time>2022-07-31T15:45:18.866Z</time>
      </trkpt>
      <trkpt lat="43.70594" lon="1.41073">
        <ele>189.804419</ele>
        <time>2022-07-31T15:45:20.871Z</time>
      </trkpt>
      <trkpt lat="43.70576" lon="1.41074">
        <ele>189.702218</ele>
        <time>2022-07-31T15:45:23.884Z</time>
      </trkpt>
      <trkpt lat="43.70563" lon="1.41076">
        <ele>189.632015</ele>
        <time>2022-07-31T15:45:25.841Z</time>
      </trkpt>
      <trkpt lat="43.7055" lon="1.41079">
        <ele>189.562204</ele>
        <time>2022-07-31T15:45:27.880Z</time>
      </trkpt>
      <trkpt lat="43.70539" lon="1.41081">
        <ele>189.50027</ele>
        <time>2022-07-31T15:45:29.850Z</time>
      </trkpt>
      <trkpt lat="43.70528" lon="1.41083">
        <ele>189.436917</ele>
        <time>2022-07-31T15:45:31.881Z</time>
      </trkpt>
      <trkpt lat="43.70517" lon="1.41086">
        <ele>189.374584</ele>
        <time>2022-07-31T15:45:33.868Z</time>
      </trkpt>
      <trkpt lat="43.70506" lon="1.41089">
        <ele>189.313734</ele>
        <time>2022-07-31T15:45:35.863Z</time>
      </trkpt>
      <trkpt lat="43.70494" lon="1.41089">
        <ele>189.249416</ele>
        <time>2022-07-31T15:45:37.846Z</time>
      </trkpt>
      <trkpt lat="43.70482" lon="1.41092">
        <ele>189.181472</ele>
        <time>2022-07-31T15:45:39.847Z</time>
      </trkpt>
      <trkpt lat="43.7047" lon="1.41095">
        <ele>189.11515</ele>
        <time>2022-07-31T15:45:41.833Z</time>
      </trkpt>
      <trkpt lat="43.70459" lon="1.41097">
        <ele>189.055087</ele>
        <time>2022-07-31T15:45:43.859Z</time>
      </trkpt>
      <trkpt lat="43.70448" lon="1.41099">
        <ele>188.980953</ele>
        <time>2022-07-31T15:45:45.852Z</time>
      </trkpt>
      <trkpt lat="43.70438" lon="1.41102">
        <ele>188.904825</ele>
        <time>2022-07-31T15:45:47.849Z</time>
      </trkpt>
      <trkpt lat="43.70427" lon="1.41106">
        <ele>188.826922</ele>
        <time>2022-07-31T15:45:49.846Z</time>
      </trkpt>
      <trkpt lat="43.70416" lon="1.41109">
        <ele>188.748789</ele>
        <time>2022-07-31T15:45:51.869Z</time>
      </trkpt>
      <trkpt lat="43.70404" lon="1.41113">
        <ele>188.669493</ele>
        <time>2022-07-31T15:45:53.901Z</time>
      </trkpt>
      <trkpt lat="43.70394" lon="1.41118">
        <ele>188.590076</ele>
        <time>2022-07-31T15:45:55.868Z</time>
      </trkpt>
      <trkpt lat="43.70383" lon="1.41123">
        <ele>188.514736</ele>
        <time>2022-07-31T15:45:57.862Z</time>
      </trkpt>
      <trkpt lat="43.70373" lon="1.4113">
        <ele>188.437225</ele>
        <time>2022-07-31T15:45:59.871Z</time>
      </trkpt>
      <trkpt lat="43.70363" lon="1.41137">
        <ele>188.356958</ele>
        <time>2022-07-31T15:46:01.861Z</time>
      </trkpt>
      <trkpt lat="43.70353" lon="1.41145">
        <ele>188.279898</ele>
        <time>2022-07-31T15:46:03.874Z</time>
      </trkpt>
      <trkpt lat="43.70343" lon="1.41152">
        <ele>188.202354</ele>
        <time>2022-07-31T15:46:05.847Z</time>
      </trkpt>
      <trkpt lat="43.70334" lon="1.4116">
        <ele>188.125592</ele>
        <time>2022-07-31T15:46:07.865Z</time>
      </trkpt>
      <trkpt lat="43.70324" lon="1.41169">
        <ele>188.043521</ele>
        <time>2022-07-31T15:46:09.870Z</time>
      </trkpt>
      <trkpt lat="43.70314" lon="1.41179">
        <ele>187.963132</ele>
        <time>2022-07-31T15:46:11.868Z</time>
      </trkpt>
      <trkpt lat="43.70305" lon="1.41189">
        <ele>187.883768</ele>
        <time>2022-07-31T15:46:13.851Z</time>
      </trkpt>
      <trkpt lat="43.70297" lon="1.41199">
        <ele>187.814406</ele>
        <time>2022-07-31T15:46:15.878Z</time>
      </trkpt>
      <trkpt lat="43.70289" lon="1.4121">
        <ele>187.822096</ele>
        <time>2022-07-31T15:46:17.860Z</time>
      </trkpt>
      <trkpt lat="43.70281" lon="1.4122">
        <ele>187.829987</ele>
        <time>2022-07-31T15:46:19.847Z</time>
      </trkpt>
      <trkpt lat="43.70273" lon="1.41232">
        <ele>187.83804</ele>
        <time>2022-07-31T15:46:21.871Z</time>
      </trkpt>
      <trkpt lat="43.70264" lon="1.41243">
        <ele>187.846328</ele>
        <time>2022-07-31T15:46:23.949Z</time>
      </trkpt>
      <trkpt lat="43.70256" lon="1.41255">
        <ele>187.854637</ele>
        <time>2022-07-31T15:46:25.870Z</time>
      </trkpt>
      <trkpt lat="43.70247" lon="1.41267">
        <ele>187.863202</ele>
        <time>2022-07-31T15:46:27.884Z</time>
      </trkpt>
      <trkpt lat="43.70239" lon="1.41278">
        <ele>187.87149</ele>
        <time>2022-07-31T15:46:29.870Z</time>
      </trkpt>
      <trkpt lat="43.7023" lon="1.41289">
        <ele>187.880015</ele>
        <time>2022-07-31T15:46:31.857Z</time>
      </trkpt>
      <trkpt lat="43.70221" lon="1.41301">
        <ele>187.888731</ele>
        <time>2022-07-31T15:46:33.881Z</time>
      </trkpt>
      <trkpt lat="43.70212" lon="1.41313">
        <ele>187.897479</ele>
        <time>2022-07-31T15:46:35.879Z</time>
      </trkpt>
      <trkpt lat="43.70203" lon="1.41325">
        <ele>187.906177</ele>
        <time>2022-07-31T15:46:37.868Z</time>
      </trkpt>
      <trkpt lat="43.70193" lon="1.41336">
        <ele>187.915075</ele>
        <time>2022-07-31T15:46:39.870Z</time>
      </trkpt>
      <trkpt lat="43.70184" lon="1.41348">
        <ele>187.92391</ele>
        <time>2022-07-31T15:46:41.871Z</time>
      </trkpt>
      <trkpt lat="43.70174" lon="1.41359">
        <ele>187.932676</ele>
        <time>2022-07-31T15:46:43.869Z</time>
      </trkpt>
      <trkpt lat="43.70165" lon="1.4137">
        <ele>187.934386</ele>
        <time>2022-07-31T15:46:45.854Z</time>
      </trkpt>
      <trkpt lat="43.70155" lon="1.41381">
        <ele>187.907687</ele>
        <time>2022-07-31T15:46:47.860Z</time>
      </trkpt>
      <trkpt lat="43.70145" lon="1.4139">
        <ele>187.881195</ele>
        <time>2022-07-31T15:46:49.887Z</time>
      </trkpt>
      <trkpt lat="43.70135" lon="1.414">
        <ele>187.854969</ele>
        <time>2022-07-31T15:46:51.891Z</time>
      </trkpt>
      <trkpt lat="43.70126" lon="1.4141">
        <ele>187.829255</ele>
        <time>2022-07-31T15:46:53.865Z</time>
      </trkpt>
      <trkpt lat="43.70117" lon="1.4142">
        <ele>187.803355</ele>
        <time>2022-07-31T15:46:55.898Z</time>
      </trkpt>
      <trkpt lat="43.70109" lon="1.41432">
        <ele>187.777645</ele>
        <time>2022-07-31T15:46:57.900Z</time>
      </trkpt>
      <trkpt lat="43.70101" lon="1.41443">
        <ele>187.753237</ele>
        <time>2022-07-31T15:46:59.859Z</time>
      </trkpt>
      <trkpt lat="43.70093" lon="1.41455">
        <ele>187.727987</ele>
        <time>2022-07-31T15:47:01.879Z</time>
      </trkpt>
      <trkpt lat="43.70085" lon="1.41466">
        <ele>187.701793</ele>
        <time>2022-07-31T15:47:03.861Z</time>
      </trkpt>
      <trkpt lat="43.70076" lon="1.41478">
        <ele>187.674512</ele>
        <time>2022-07-31T15:47:05.879Z</time>
      </trkpt>
      <trkpt lat="43.70067" lon="1.41489">
        <ele>187.647431</ele>
        <time>2022-07-31T15:47:07.892Z</time>
      </trkpt>
      <trkpt lat="43.70057" lon="1.41499">
        <ele>187.620938</ele>
        <time>2022-07-31T15:47:09.854Z</time>
      </trkpt>
      <trkpt lat="43.70048" lon="1.4151">
        <ele>187.594412</ele>
        <time>2022-07-31T15:47:11.864Z</time>
      </trkpt>
      <trkpt lat="43.70039" lon="1.41521">
        <ele>187.568677</ele>
        <time>2022-07-31T15:47:13.873Z</time>
      </trkpt>
      <trkpt lat="43.70029" lon="1.41531">
        <ele>187.544414</ele>
        <time>2022-07-31T15:47:15.858Z</time>
      </trkpt>
      <trkpt lat="43.7002" lon="1.41541">
        <ele>187.53462</ele>
        <time>2022-07-31T15:47:17.882Z</time>
      </trkpt>
      <trkpt lat="43.7001" lon="1.41551">
        <ele>187.52466</ele>
        <time>2022-07-31T15:47:19.872Z</time>
      </trkpt>
      <trkpt lat="43.70002" lon="1.41563">
        <ele>187.514728</ele>
        <time>2022-07-31T15:47:21.886Z</time>
      </trkpt>
      <trkpt lat="43.69994" lon="1.41575">
        <ele>187.505029</ele>
        <time>2022-07-31T15:47:23.863Z</time>
      </trkpt>
      <trkpt lat="43.69985" lon="1.41586">
        <ele>187.495339</ele>
        <time>2022-07-31T15:47:25.878Z</time>
      </trkpt>
      <trkpt lat="43.69976" lon="1.41597">
        <ele>187.485513</ele>
        <time>2022-07-31T15:47:27.866Z</time>
      </trkpt>
      <trkpt lat="43.69967" lon="1.41609">
        <ele>187.475384</ele>
        <time>2022-07-31T15:47:29.862Z</time>
      </trkpt>
      <trkpt lat="43.69959" lon="1.41621">
        <ele>187.465233</ele>
        <time>2022-07-31T15:47:31.893Z</time>
      </trkpt>
      <trkpt lat="43.69949" lon="1.41632">
        <ele>187.455298</ele>
        <time>2022-07-31T15:47:33.870Z</time>
      </trkpt>
      <trkpt lat="43.6994" lon="1.41642">
        <ele>187.445664</ele>
        <time>2022-07-31T15:47:35.865Z</time>
      </trkpt>
      <trkpt lat="43.69931" lon="1.41652">
        <ele>187.436095</ele>
        <time>2022-07-31T15:47:37.873Z</time>
      </trkpt>
      <trkpt lat="43.69922" lon="1.41661">
        <ele>187.426432</ele>
        <time>2022-07-31T15:47:39.874Z</time>
      </trkpt>
      <trkpt lat="43.69912" lon="1.41672">
        <ele>187.416623</ele>
        <time>2022-07-31T15:47:41.869Z</time>
      </trkpt>
      <trkpt lat="43.69903" lon="1.41682">
        <ele>187.406931</ele>
        <time>2022-07-31T15:47:43.914Z</time>
      </trkpt>
      <trkpt lat="43.69894" lon="1.41691">
        <ele>187.397561</ele>
        <time>2022-07-31T15:47:45.875Z</time>
      </trkpt>
      <trkpt lat="43.69885" lon="1.41702">
        <ele>187.412768</ele>
        <time>2022-07-31T15:47:47.905Z</time>
      </trkpt>
      <trkpt lat="43.69876" lon="1.41712">
        <ele>187.428019</ele>
        <time>2022-07-31T15:47:49.845Z</time>
      </trkpt>
      <trkpt lat="43.69868" lon="1.41723">
        <ele>187.443168</ele>
        <time>2022-07-31T15:47:51.869Z</time>
      </trkpt>
      <trkpt lat="43.69859" lon="1.41734">
        <ele>187.458286</ele>
        <time>2022-07-31T15:47:53.853Z</time>
      </trkpt>
      <trkpt lat="43.69851" lon="1.41745">
        <ele>187.473179</ele>
        <time>2022-07-31T15:47:55.873Z</time>
      </trkpt>
      <trkpt lat="43.69843" lon="1.41756">
        <ele>187.487949</ele>
        <time>2022-07-31T15:47:57.867Z</time>
      </trkpt>
      <trkpt lat="43.69835" lon="1.41768">
        <ele>187.503442</ele>
        <time>2022-07-31T15:47:59.896Z</time>
      </trkpt>
      <trkpt lat="43.69826" lon="1.41779">
        <ele>187.519105</ele>
        <time>2022-07-31T15:48:01.875Z</time>
      </trkpt>
      <trkpt lat="43.69817" lon="1.4179">
        <ele>187.534962</ele>
        <time>2022-07-31T15:48:03.874Z</time>
      </trkpt>
      <trkpt lat="43.69808" lon="1.41801">
        <ele>187.550893</ele>
        <time>2022-07-31T15:48:05.868Z</time>
      </trkpt>
      <trkpt lat="43.69799" lon="1.41812">
        <ele>187.566528</ele>
        <time>2022-07-31T15:48:07.863Z</time>
      </trkpt>
      <trkpt lat="43.6979" lon="1.41823">
        <ele>187.58219</ele>
        <time>2022-07-31T15:48:09.869Z</time>
      </trkpt>
      <trkpt lat="43.6978" lon="1.41834">
        <ele>187.598146</ele>
        <time>2022-07-31T15:48:11.892Z</time>
      </trkpt>
      <trkpt lat="43.69771" lon="1.41846">
        <ele>187.614192</ele>
        <time>2022-07-31T15:48:13.881Z</time>
      </trkpt>
      <trkpt lat="43.69762" lon="1.41857">
        <ele>187.630185</ele>
        <time>2022-07-31T15:48:15.866Z</time>
      </trkpt>
      <trkpt lat="43.69752" lon="1.41867">
        <ele>187.657789</ele>
        <time>2022-07-31T15:48:17.858Z</time>
      </trkpt>
      <trkpt lat="43.69743" lon="1.41877">
        <ele>187.687253</ele>
        <time>2022-07-31T15:48:19.856Z</time>
      </trkpt>
      <trkpt lat="43.69734" lon="1.41887">
        <ele>187.716475</ele>
        <time>2022-07-31T15:48:21.870Z</time>
      </trkpt>
      <trkpt lat="43.69725" lon="1.41898">
        <ele>187.745586</ele>
        <time>2022-07-31T15:48:23.866Z</time>
      </trkpt>
      <trkpt lat="43.69716" lon="1.41908">
        <ele>187.77413</ele>
        <time>2022-07-31T15:48:25.878Z</time>
      </trkpt>
      <trkpt lat="43.69707" lon="1.41918">
        <ele>187.802303</ele>
        <time>2022-07-31T15:48:27.884Z</time>
      </trkpt>
      <trkpt lat="43.69697" lon="1.41928">
        <ele>187.831272</ele>
        <time>2022-07-31T15:48:29.857Z</time>
      </trkpt>
      <trkpt lat="43.69688" lon="1.41939">
        <ele>187.861211</ele>
        <time>2022-07-31T15:48:31.859Z</time>
      </trkpt>
      <trkpt lat="43.69679" lon="1.41949">
        <ele>187.89018</ele>
        <time>2022-07-31T15:48:33.837Z</time>
      </trkpt>
      <trkpt lat="43.69669" lon="1.41959">
        <ele>187.918611</ele>
        <time>2022-07-31T15:48:35.851Z</time>
      </trkpt>
      <trkpt lat="43.6966" lon="1.41969">
        <ele>187.947388</ele>
        <time>2022-07-31T15:48:37.869Z</time>
      </trkpt>
      <trkpt lat="43.69652" lon="1.41979">
        <ele>187.974914</ele>
        <time>2022-07-31T15:48:39.865Z</time>
      </trkpt>
      <trkpt lat="43.69643" lon="1.4199">
        <ele>188.003738</ele>
        <time>2022-07-31T15:48:41.873Z</time>
      </trkpt>
      <trkpt lat="43.69634" lon="1.42001">
        <ele>188.032799</ele>
        <time>2022-07-31T15:48:43.848Z</time>
      </trkpt>
      <trkpt lat="43.69626" lon="1.42012">
        <ele>188.061238</ele>
        <time>2022-07-31T15:48:45.863Z</time>
      </trkpt>
      <trkpt lat="43.69617" lon="1.42024">
        <ele>188.099791</ele>
        <time>2022-07-31T15:48:47.846Z</time>
      </trkpt>
      <trkpt lat="43.69607" lon="1.42036">
        <ele>188.144853</ele>
        <time>2022-07-31T15:48:49.864Z</time>
      </trkpt>
      <trkpt lat="43.69599" lon="1.42049">
        <ele>188.189216</ele>
        <time>2022-07-31T15:48:51.871Z</time>
      </trkpt>
      <trkpt lat="43.69591" lon="1.42062">
        <ele>188.232483</ele>
        <time>2022-07-31T15:48:53.888Z</time>
      </trkpt>
      <trkpt lat="43.69583" lon="1.42074">
        <ele>188.274068</ele>
        <time>2022-07-31T15:48:55.887Z</time>
      </trkpt>
      <trkpt lat="43.69574" lon="1.42086">
        <ele>188.315287</ele>
        <time>2022-07-31T15:48:57.868Z</time>
      </trkpt>
      <trkpt lat="43.69565" lon="1.42097">
        <ele>188.357983</ele>
        <time>2022-07-31T15:48:59.877Z</time>
      </trkpt>
      <trkpt lat="43.69556" lon="1.42107">
        <ele>188.399386</ele>
        <time>2022-07-31T15:49:01.876Z</time>
      </trkpt>
      <trkpt lat="43.69547" lon="1.42118">
        <ele>188.441056</ele>
        <time>2022-07-31T15:49:03.863Z</time>
      </trkpt>
      <trkpt lat="43.69538" lon="1.42128">
        <ele>188.482459</ele>
        <time>2022-07-31T15:49:05.860Z</time>
      </trkpt>
      <trkpt lat="43.69529" lon="1.42139">
        <ele>188.524507</ele>
        <time>2022-07-31T15:49:07.858Z</time>
      </trkpt>
      <trkpt lat="43.6952" lon="1.4215">
        <ele>188.567172</ele>
        <time>2022-07-31T15:49:09.878Z</time>
      </trkpt>
      <trkpt lat="43.6951" lon="1.42161">
        <ele>188.609932</ele>
        <time>2022-07-31T15:49:11.868Z</time>
      </trkpt>
      <trkpt lat="43.69502" lon="1.42173">
        <ele>188.651804</ele>
        <time>2022-07-31T15:49:13.865Z</time>
      </trkpt>
      <trkpt lat="43.69495" lon="1.42186">
        <ele>188.693463</ele>
        <time>2022-07-31T15:49:15.883Z</time>
      </trkpt>
      <trkpt lat="43.69488" lon="1.42198">
        <ele>188.697031</ele>
        <time>2022-07-31T15:49:17.862Z</time>
      </trkpt>
      <trkpt lat="43.69479" lon="1.42209">
        <ele>188.688619</ele>
        <time>2022-07-31T15:49:19.874Z</time>
      </trkpt>
      <trkpt lat="43.69469" lon="1.4222">
        <ele>188.680007</ele>
        <time>2022-07-31T15:49:21.901Z</time>
      </trkpt>
      <trkpt lat="43.69461" lon="1.42231">
        <ele>188.671378</ele>
        <time>2022-07-31T15:49:23.891Z</time>
      </trkpt>
      <trkpt lat="43.69454" lon="1.42246">
        <ele>188.662215</ele>
        <time>2022-07-31T15:49:25.897Z</time>
      </trkpt>
      <trkpt lat="43.69445" lon="1.42258">
        <ele>188.653465</ele>
        <time>2022-07-31T15:49:27.903Z</time>
      </trkpt>
      <trkpt lat="43.69436" lon="1.42269">
        <ele>188.645237</ele>
        <time>2022-07-31T15:49:29.845Z</time>
      </trkpt>
      <trkpt lat="43.69429" lon="1.42283">
        <ele>188.636254</ele>
        <time>2022-07-31T15:49:31.838Z</time>
      </trkpt>
      <trkpt lat="43.6942" lon="1.42295">
        <ele>188.627558</ele>
        <time>2022-07-31T15:49:33.886Z</time>
      </trkpt>
      <trkpt lat="43.69412" lon="1.42308">
        <ele>188.618725</ele>
        <time>2022-07-31T15:49:35.868Z</time>
      </trkpt>
      <trkpt lat="43.69404" lon="1.4232">
        <ele>188.610411</ele>
        <time>2022-07-31T15:49:37.876Z</time>
      </trkpt>
      <trkpt lat="43.69396" lon="1.42332">
        <ele>188.602153</ele>
        <time>2022-07-31T15:49:39.842Z</time>
      </trkpt>
      <trkpt lat="43.69389" lon="1.42344">
        <ele>188.594019</ele>
        <time>2022-07-31T15:49:41.880Z</time>
      </trkpt>
      <trkpt lat="43.6938" lon="1.42357">
        <ele>188.584893</ele>
        <time>2022-07-31T15:49:43.865Z</time>
      </trkpt>
      <trkpt lat="43.69371" lon="1.4237">
        <ele>188.57579</ele>
        <time>2022-07-31T15:49:45.864Z</time>
      </trkpt>
      <trkpt lat="43.69364" lon="1.42384">
        <ele>188.656374</ele>
        <time>2022-07-31T15:49:47.852Z</time>
      </trkpt>
      <trkpt lat="43.69357" lon="1.42398">
        <ele>188.740459</ele>
        <time>2022-07-31T15:49:49.852Z</time>
      </trkpt>
      <trkpt lat="43.6935" lon="1.42413">
        <ele>188.825412</ele>
        <time>2022-07-31T15:49:51.877Z</time>
      </trkpt>
      <trkpt lat="43.69342" lon="1.42427">
        <ele>188.909907</ele>
        <time>2022-07-31T15:49:53.864Z</time>
      </trkpt>
      <trkpt lat="43.69335" lon="1.4244">
        <ele>188.99279</ele>
        <time>2022-07-31T15:49:55.862Z</time>
      </trkpt>
      <trkpt lat="43.69329" lon="1.42454">
        <ele>189.070085</ele>
        <time>2022-07-31T15:49:57.876Z</time>
      </trkpt>
      <trkpt lat="43.69322" lon="1.42468">
        <ele>189.150373</ele>
        <time>2022-07-31T15:49:59.875Z</time>
      </trkpt>
      <trkpt lat="43.69316" lon="1.42482">
        <ele>189.231958</ele>
        <time>2022-07-31T15:50:01.846Z</time>
      </trkpt>
      <trkpt lat="43.6931" lon="1.42496">
        <ele>189.311429</ele>
        <time>2022-07-31T15:50:03.859Z</time>
      </trkpt>
      <trkpt lat="43.69302" lon="1.42509">
        <ele>189.391768</ele>
        <time>2022-07-31T15:50:05.859Z</time>
      </trkpt>
      <trkpt lat="43.69293" lon="1.42519">
        <ele>189.469369</ele>
        <time>2022-07-31T15:50:07.846Z</time>
      </trkpt>
      <trkpt lat="43.69285" lon="1.42529">
        <ele>189.543988</ele>
        <time>2022-07-31T15:50:09.844Z</time>
      </trkpt>
      <trkpt lat="43.69275" lon="1.42539">
        <ele>189.622288</ele>
        <time>2022-07-31T15:50:11.870Z</time>
      </trkpt>
      <trkpt lat="43.69264" lon="1.42547">
        <ele>189.708971</ele>
        <time>2022-07-31T15:50:13.893Z</time>
      </trkpt>
      <trkpt lat="43.69252" lon="1.42554">
        <ele>189.810265</ele>
        <time>2022-07-31T15:50:15.870Z</time>
      </trkpt>
      <trkpt lat="43.69241" lon="1.42562">
        <ele>190.00818</ele>
        <time>2022-07-31T15:50:17.859Z</time>
      </trkpt>
      <trkpt lat="43.6923" lon="1.4257">
        <ele>190.211855</ele>
        <time>2022-07-31T15:50:19.861Z</time>
      </trkpt>
      <trkpt lat="43.69219" lon="1.42578">
        <ele>190.400021</ele>
        <time>2022-07-31T15:50:21.852Z</time>
      </trkpt>
      <trkpt lat="43.69208" lon="1.42587">
        <ele>190.600446</ele>
        <time>2022-07-31T15:50:23.876Z</time>
      </trkpt>
      <trkpt lat="43.69197" lon="1.42591">
        <ele>190.785809</ele>
        <time>2022-07-31T15:50:25.856Z</time>
      </trkpt>
      <trkpt lat="43.69185" lon="1.42593">
        <ele>190.972004</ele>
        <time>2022-07-31T15:50:27.881Z</time>
      </trkpt>
      <trkpt lat="43.69173" lon="1.42595">
        <ele>191.15844</ele>
        <time>2022-07-31T15:50:29.854Z</time>
      </trkpt>
      <trkpt lat="43.69161" lon="1.42597">
        <ele>191.347749</ele>
        <time>2022-07-31T15:50:32.889Z</time>
      </trkpt>
      <trkpt lat="43.69152" lon="1.426">
        <ele>191.501403</ele>
        <time>2022-07-31T15:50:34.856Z</time>
      </trkpt>
      <trkpt lat="43.69139" lon="1.42601">
        <ele>191.70322</ele>
        <time>2022-07-31T15:50:36.864Z</time>
      </trkpt>
      <trkpt lat="43.69127" lon="1.42604">
        <ele>191.900166</ele>
        <time>2022-07-31T15:50:38.849Z</time>
      </trkpt>
      <trkpt lat="43.69114" lon="1.42606">
        <ele>192.095553</ele>
        <time>2022-07-31T15:50:40.872Z</time>
      </trkpt>
      <trkpt lat="43.69103" lon="1.42613">
        <ele>192.295336</ele>
        <time>2022-07-31T15:50:42.877Z</time>
      </trkpt>
      <trkpt lat="43.69093" lon="1.42623">
        <ele>192.485547</ele>
        <time>2022-07-31T15:50:44.864Z</time>
      </trkpt>
      <trkpt lat="43.69084" lon="1.42633">
        <ele>192.62955</ele>
        <time>2022-07-31T15:50:46.872Z</time>
      </trkpt>
      <trkpt lat="43.69074" lon="1.42642">
        <ele>192.678885</ele>
        <time>2022-07-31T15:50:48.889Z</time>
      </trkpt>
      <trkpt lat="43.69062" lon="1.42651">
        <ele>192.737585</ele>
        <time>2022-07-31T15:50:50.871Z</time>
      </trkpt>
      <trkpt lat="43.69051" lon="1.42655">
        <ele>192.78666</ele>
        <time>2022-07-31T15:50:52.881Z</time>
      </trkpt>
      <trkpt lat="43.6904" lon="1.42655">
        <ele>192.835466</ele>
        <time>2022-07-31T15:50:54.876Z</time>
      </trkpt>
      <trkpt lat="43.69029" lon="1.42656">
        <ele>192.883807</ele>
        <time>2022-07-31T15:50:56.875Z</time>
      </trkpt>
      <trkpt lat="43.69018" lon="1.42658">
        <ele>192.931719</ele>
        <time>2022-07-31T15:50:58.904Z</time>
      </trkpt>
      <trkpt lat="43.69004" lon="1.42661">
        <ele>192.993161</ele>
        <time>2022-07-31T15:51:00.869Z</time>
      </trkpt>
      <trkpt lat="43.68992" lon="1.42664">
        <ele>193.045244</ele>
        <time>2022-07-31T15:51:02.891Z</time>
      </trkpt>
      <trkpt lat="43.68979" lon="1.42669">
        <ele>193.104464</ele>
        <time>2022-07-31T15:51:04.861Z</time>
      </trkpt>
      <trkpt lat="43.68967" lon="1.42675">
        <ele>193.158631</ele>
        <time>2022-07-31T15:51:06.875Z</time>
      </trkpt>
      <trkpt lat="43.68955" lon="1.42682">
        <ele>193.213492</ele>
        <time>2022-07-31T15:51:08.867Z</time>
      </trkpt>
      <trkpt lat="43.68945" lon="1.4269">
        <ele>193.263444</ele>
        <time>2022-07-31T15:51:10.875Z</time>
      </trkpt>
      <trkpt lat="43.68935" lon="1.42698">
        <ele>193.315783</ele>
        <time>2022-07-31T15:51:12.859Z</time>
      </trkpt>
      <trkpt lat="43.68925" lon="1.42706">
        <ele>193.36532</ele>
        <time>2022-07-31T15:51:14.851Z</time>
      </trkpt>
      <trkpt lat="43.68914" lon="1.42714">
        <ele>193.248725</ele>
        <time>2022-07-31T15:51:16.861Z</time>
      </trkpt>
      <trkpt lat="43.68905" lon="1.42721">
        <ele>193.027442</ele>
        <time>2022-07-31T15:51:18.877Z</time>
      </trkpt>
      <trkpt lat="43.68895" lon="1.42727">
        <ele>192.790688</ele>
        <time>2022-07-31T15:51:20.873Z</time>
      </trkpt>
      <trkpt lat="43.68884" lon="1.42732">
        <ele>192.550218</ele>
        <time>2022-07-31T15:51:22.883Z</time>
      </trkpt>
      <trkpt lat="43.68873" lon="1.42737">
        <ele>192.296701</ele>
        <time>2022-07-31T15:51:24.853Z</time>
      </trkpt>
      <trkpt lat="43.68861" lon="1.42737">
        <ele>192.048813</ele>
        <time>2022-07-31T15:51:26.884Z</time>
      </trkpt>
      <trkpt lat="43.68851" lon="1.42731">
        <ele>191.811376</ele>
        <time>2022-07-31T15:51:28.840Z</time>
      </trkpt>
      <trkpt lat="43.68841" lon="1.42724">
        <ele>191.568764</ele>
        <time>2022-07-31T15:51:30.886Z</time>
      </trkpt>
      <trkpt lat="43.68831" lon="1.42718">
        <ele>191.330686</ele>
        <time>2022-07-31T15:51:32.864Z</time>
      </trkpt>
      <trkpt lat="43.68822" lon="1.42712">
        <ele>191.111831</ele>
        <time>2022-07-31T15:51:34.882Z</time>
      </trkpt>
      <trkpt lat="43.68812" lon="1.42706">
        <ele>190.892939</ele>
        <time>2022-07-31T15:51:36.900Z</time>
      </trkpt>
      <trkpt lat="43.68802" lon="1.42701">
        <ele>190.672632</ele>
        <time>2022-07-31T15:51:38.847Z</time>
      </trkpt>
      <trkpt lat="43.68794" lon="1.42692">
        <ele>190.452268</ele>
        <time>2022-07-31T15:51:40.897Z</time>
      </trkpt>
      <trkpt lat="43.68798" lon="1.42679">
        <ele>190.23274</ele>
        <time>2022-07-31T15:51:42.874Z</time>
      </trkpt>
      <trkpt lat="43.68808" lon="1.42674">
        <ele>190.01154</ele>
        <time>2022-07-31T15:51:44.878Z</time>
      </trkpt>
      <trkpt lat="43.68818" lon="1.42669">
        <ele>189.787305</ele>
        <time>2022-07-31T15:51:46.867Z</time>
      </trkpt>
      <trkpt lat="43.68827" lon="1.42663">
        <ele>189.569627</ele>
        <time>2022-07-31T15:51:48.895Z</time>
      </trkpt>
      <trkpt lat="43.6883" lon="1.42651">
        <ele>189.521931</ele>
        <time>2022-07-31T15:51:50.859Z</time>
      </trkpt>
      <trkpt lat="43.6883" lon="1.42638">
        <ele>189.494347</ele>
        <time>2022-07-31T15:51:52.867Z</time>
      </trkpt>
      <trkpt lat="43.68829" lon="1.42619">
        <ele>189.454179</ele>
        <time>2022-07-31T15:51:55.884Z</time>
      </trkpt>
      <trkpt lat="43.68826" lon="1.42607">
        <ele>189.426285</ele>
        <time>2022-07-31T15:51:57.881Z</time>
      </trkpt>
      <trkpt lat="43.68821" lon="1.42596">
        <ele>189.397826</ele>
        <time>2022-07-31T15:51:59.894Z</time>
      </trkpt>
      <trkpt lat="43.68815" lon="1.42584">
        <ele>189.367497</ele>
        <time>2022-07-31T15:52:01.869Z</time>
      </trkpt>
      <trkpt lat="43.68807" lon="1.42574">
        <ele>189.33486</ele>
        <time>2022-07-31T15:52:03.883Z</time>
      </trkpt>
      <trkpt lat="43.68796" lon="1.42567">
        <ele>189.300924</ele>
        <time>2022-07-31T15:52:05.887Z</time>
      </trkpt>
      <trkpt lat="43.68785" lon="1.42564">
        <ele>189.267232</ele>
        <time>2022-07-31T15:52:07.871Z</time>
      </trkpt>
      <trkpt lat="43.68773" lon="1.42562">
        <ele>189.231604</ele>
        <time>2022-07-31T15:52:09.862Z</time>
      </trkpt>
      <trkpt lat="43.68761" lon="1.4256">
        <ele>189.195325</ele>
        <time>2022-07-31T15:52:11.880Z</time>
      </trkpt>
      <trkpt lat="43.68749" lon="1.42559">
        <ele>189.159992</ele>
        <time>2022-07-31T15:52:13.871Z</time>
      </trkpt>
      <trkpt lat="43.68737" lon="1.42559">
        <ele>189.123901</ele>
        <time>2022-07-31T15:52:15.870Z</time>
      </trkpt>
      <trkpt lat="43.68725" lon="1.42563">
        <ele>189.088838</ele>
        <time>2022-07-31T15:52:17.865Z</time>
      </trkpt>
      <trkpt lat="43.68715" lon="1.42571">
        <ele>189.053333</ele>
        <time>2022-07-31T15:52:19.866Z</time>
      </trkpt>
      <trkpt lat="43.68706" lon="1.42581">
        <ele>189.018864</ele>
        <time>2022-07-31T15:52:21.897Z</time>
      </trkpt>
      <trkpt lat="43.68694" lon="1.42587">
        <ele>189.105773</ele>
        <time>2022-07-31T15:52:23.884Z</time>
      </trkpt>
      <trkpt lat="43.68681" lon="1.42592">
        <ele>189.214578</ele>
        <time>2022-07-31T15:52:25.879Z</time>
      </trkpt>
      <trkpt lat="43.68671" lon="1.426">
        <ele>189.315748</ele>
        <time>2022-07-31T15:52:27.876Z</time>
      </trkpt>
      <trkpt lat="43.68662" lon="1.4261">
        <ele>189.409518</ele>
        <time>2022-07-31T15:52:29.874Z</time>
      </trkpt>
      <trkpt lat="43.68655" lon="1.42621">
        <ele>189.507024</ele>
        <time>2022-07-31T15:52:31.879Z</time>
      </trkpt>
      <trkpt lat="43.68646" lon="1.42632">
        <ele>189.601939</ele>
        <time>2022-07-31T15:52:33.886Z</time>
      </trkpt>
      <trkpt lat="43.68638" lon="1.42643">
        <ele>189.697669</ele>
        <time>2022-07-31T15:52:35.872Z</time>
      </trkpt>
      <trkpt lat="43.68629" lon="1.42655">
        <ele>189.802566</ele>
        <time>2022-07-31T15:52:37.906Z</time>
      </trkpt>
      <trkpt lat="43.6862" lon="1.42665">
        <ele>189.903909</ele>
        <time>2022-07-31T15:52:39.850Z</time>
      </trkpt>
      <trkpt lat="43.68611" lon="1.42676">
        <ele>190.005518</ele>
        <time>2022-07-31T15:52:41.873Z</time>
      </trkpt>
      <trkpt lat="43.68602" lon="1.42687">
        <ele>190.106253</ele>
        <time>2022-07-31T15:52:43.883Z</time>
      </trkpt>
      <trkpt lat="43.68593" lon="1.42698">
        <ele>190.20762</ele>
        <time>2022-07-31T15:52:45.884Z</time>
      </trkpt>
      <trkpt lat="43.68585" lon="1.4271">
        <ele>190.309673</ele>
        <time>2022-07-31T15:52:47.871Z</time>
      </trkpt>
      <trkpt lat="43.68576" lon="1.42721">
        <ele>190.40977</ele>
        <time>2022-07-31T15:52:49.866Z</time>
      </trkpt>
      <trkpt lat="43.68568" lon="1.42732">
        <ele>190.508617</ele>
        <time>2022-07-31T15:52:51.876Z</time>
      </trkpt>
      <trkpt lat="43.68559" lon="1.42743">
        <ele>190.51016</ele>
        <time>2022-07-31T15:52:53.891Z</time>
      </trkpt>
      <trkpt lat="43.6855" lon="1.42754">
        <ele>190.469718</ele>
        <time>2022-07-31T15:52:55.853Z</time>
      </trkpt>
      <trkpt lat="43.68541" lon="1.42764">
        <ele>190.429954</ele>
        <time>2022-07-31T15:52:57.873Z</time>
      </trkpt>
      <trkpt lat="43.68531" lon="1.42774">
        <ele>190.389286</ele>
        <time>2022-07-31T15:52:59.884Z</time>
      </trkpt>
      <trkpt lat="43.68521" lon="1.42784">
        <ele>190.348517</ele>
        <time>2022-07-31T15:53:01.875Z</time>
      </trkpt>
      <trkpt lat="43.68512" lon="1.42794">
        <ele>190.308529</ele>
        <time>2022-07-31T15:53:03.947Z</time>
      </trkpt>
      <trkpt lat="43.68502" lon="1.42804">
        <ele>190.26846</ele>
        <time>2022-07-31T15:53:05.870Z</time>
      </trkpt>
      <trkpt lat="43.68494" lon="1.42814">
        <ele>190.229599</ele>
        <time>2022-07-31T15:53:07.884Z</time>
      </trkpt>
      <trkpt lat="43.68485" lon="1.42825">
        <ele>190.190299</ele>
        <time>2022-07-31T15:53:09.867Z</time>
      </trkpt>
      <trkpt lat="43.68474" lon="1.42833">
        <ele>190.149323</ele>
        <time>2022-07-31T15:53:11.883Z</time>
      </trkpt>
      <trkpt lat="43.68463" lon="1.42841">
        <ele>190.108915</ele>
        <time>2022-07-31T15:53:13.875Z</time>
      </trkpt>
      <trkpt lat="43.68453" lon="1.42849">
        <ele>190.069197</ele>
        <time>2022-07-31T15:53:15.883Z</time>
      </trkpt>
      <trkpt lat="43.68444" lon="1.4286">
        <ele>190.029229</ele>
        <time>2022-07-31T15:53:17.868Z</time>
      </trkpt>
      <trkpt lat="43.68435" lon="1.42871">
        <ele>189.987734</ele>
        <time>2022-07-31T15:53:19.868Z</time>
      </trkpt>
      <trkpt lat="43.68425" lon="1.42882">
        <ele>189.946651</ele>
        <time>2022-07-31T15:53:21.868Z</time>
      </trkpt>
      <trkpt lat="43.68416" lon="1.42893">
        <ele>190.005699</ele>
        <time>2022-07-31T15:53:23.884Z</time>
      </trkpt>
      <trkpt lat="43.68406" lon="1.42903">
        <ele>190.112804</ele>
        <time>2022-07-31T15:53:25.870Z</time>
      </trkpt>
      <trkpt lat="43.68398" lon="1.42914">
        <ele>190.21557</ele>
        <time>2022-07-31T15:53:27.883Z</time>
      </trkpt>
      <trkpt lat="43.68388" lon="1.42925">
        <ele>190.320279</ele>
        <time>2022-07-31T15:53:29.884Z</time>
      </trkpt>
      <trkpt lat="43.6838" lon="1.42936">
        <ele>190.42163</ele>
        <time>2022-07-31T15:53:31.873Z</time>
      </trkpt>
      <trkpt lat="43.68371" lon="1.42946">
        <ele>190.520305</ele>
        <time>2022-07-31T15:53:33.881Z</time>
      </trkpt>
      <trkpt lat="43.68362" lon="1.42956">
        <ele>190.617798</ele>
        <time>2022-07-31T15:53:35.880Z</time>
      </trkpt>
      <trkpt lat="43.68353" lon="1.42966">
        <ele>190.722346</ele>
        <time>2022-07-31T15:53:37.876Z</time>
      </trkpt>
      <trkpt lat="43.68344" lon="1.42977">
        <ele>190.821159</ele>
        <time>2022-07-31T15:53:39.896Z</time>
      </trkpt>
      <trkpt lat="43.68335" lon="1.42986">
        <ele>190.916909</ele>
        <time>2022-07-31T15:53:41.902Z</time>
      </trkpt>
      <trkpt lat="43.68327" lon="1.42996">
        <ele>191.014819</ele>
        <time>2022-07-31T15:53:43.870Z</time>
      </trkpt>
      <trkpt lat="43.68318" lon="1.43006">
        <ele>191.113597</ele>
        <time>2022-07-31T15:53:45.869Z</time>
      </trkpt>
      <trkpt lat="43.68309" lon="1.43016">
        <ele>191.214011</ele>
        <time>2022-07-31T15:53:47.893Z</time>
      </trkpt>
      <trkpt lat="43.683" lon="1.43027">
        <ele>191.316355</ele>
        <time>2022-07-31T15:53:49.856Z</time>
      </trkpt>
      <trkpt lat="43.6829" lon="1.43034">
        <ele>191.412682</ele>
        <time>2022-07-31T15:53:51.876Z</time>
      </trkpt>
      <trkpt lat="43.68282" lon="1.43045">
        <ele>191.494055</ele>
        <time>2022-07-31T15:53:53.870Z</time>
      </trkpt>
      <trkpt lat="43.68274" lon="1.43058">
        <ele>191.508893</ele>
        <time>2022-07-31T15:53:55.907Z</time>
      </trkpt>
      <trkpt lat="43.68264" lon="1.43066">
        <ele>191.522855</ele>
        <time>2022-07-31T15:53:57.879Z</time>
      </trkpt>
      <trkpt lat="43.68256" lon="1.43078">
        <ele>191.536491</ele>
        <time>2022-07-31T15:53:59.889Z</time>
      </trkpt>
      <trkpt lat="43.68249" lon="1.43091">
        <ele>191.550279</ele>
        <time>2022-07-31T15:54:01.877Z</time>
      </trkpt>
      <trkpt lat="43.68241" lon="1.43105">
        <ele>191.565913</ele>
        <time>2022-07-31T15:54:03.856Z</time>
      </trkpt>
      <trkpt lat="43.68232" lon="1.43118">
        <ele>191.581899</ele>
        <time>2022-07-31T15:54:05.868Z</time>
      </trkpt>
      <trkpt lat="43.68222" lon="1.43129">
        <ele>191.59688</ele>
        <time>2022-07-31T15:54:07.884Z</time>
      </trkpt>
      <trkpt lat="43.68213" lon="1.43139">
        <ele>191.610434</ele>
        <time>2022-07-31T15:54:09.894Z</time>
      </trkpt>
      <trkpt lat="43.68205" lon="1.4315">
        <ele>191.624104</ele>
        <time>2022-07-31T15:54:11.885Z</time>
      </trkpt>
      <trkpt lat="43.68196" lon="1.4316">
        <ele>191.638257</ele>
        <time>2022-07-31T15:54:13.925Z</time>
      </trkpt>
      <trkpt lat="43.68187" lon="1.43172">
        <ele>191.652863</ele>
        <time>2022-07-31T15:54:15.889Z</time>
      </trkpt>
      <trkpt lat="43.68179" lon="1.43183">
        <ele>191.66619</ele>
        <time>2022-07-31T15:54:17.891Z</time>
      </trkpt>
      <trkpt lat="43.68171" lon="1.43194">
        <ele>191.680161</ele>
        <time>2022-07-31T15:54:19.881Z</time>
      </trkpt>
      <trkpt lat="43.68162" lon="1.43206">
        <ele>191.694678</ele>
        <time>2022-07-31T15:54:21.868Z</time>
      </trkpt>
      <trkpt lat="43.68153" lon="1.43217">
        <ele>191.708863</ele>
        <time>2022-07-31T15:54:23.879Z</time>
      </trkpt>
      <trkpt lat="43.68145" lon="1.43228">
        <ele>191.724794</ele>
        <time>2022-07-31T15:54:25.888Z</time>
      </trkpt>
      <trkpt lat="43.68136" lon="1.43239">
        <ele>191.740562</ele>
        <time>2022-07-31T15:54:27.890Z</time>
      </trkpt>
      <trkpt lat="43.68126" lon="1.4325">
        <ele>191.756981</ele>
        <time>2022-07-31T15:54:29.863Z</time>
      </trkpt>
      <trkpt lat="43.68117" lon="1.43261">
        <ele>191.773208</ele>
        <time>2022-07-31T15:54:31.849Z</time>
      </trkpt>
      <trkpt lat="43.68109" lon="1.43274">
        <ele>191.789746</ele>
        <time>2022-07-31T15:54:33.857Z</time>
      </trkpt>
      <trkpt lat="43.68101" lon="1.43284">
        <ele>191.804</ele>
        <time>2022-07-31T15:54:35.871Z</time>
      </trkpt>
      <trkpt lat="43.68094" lon="1.43297">
        <ele>191.819444</ele>
        <time>2022-07-31T15:54:37.869Z</time>
      </trkpt>
      <trkpt lat="43.68085" lon="1.43309">
        <ele>191.835616</ele>
        <time>2022-07-31T15:54:39.885Z</time>
      </trkpt>
      <trkpt lat="43.68078" lon="1.4332">
        <ele>191.850198</ele>
        <time>2022-07-31T15:54:41.864Z</time>
      </trkpt>
      <trkpt lat="43.68071" lon="1.43332">
        <ele>191.865326</ele>
        <time>2022-07-31T15:54:43.872Z</time>
      </trkpt>
      <trkpt lat="43.68064" lon="1.43343">
        <ele>191.879615</ele>
        <time>2022-07-31T15:54:45.886Z</time>
      </trkpt>
      <trkpt lat="43.68058" lon="1.43357">
        <ele>191.894193</ele>
        <time>2022-07-31T15:54:47.877Z</time>
      </trkpt>
      <trkpt lat="43.68059" lon="1.43373">
        <ele>191.910281</ele>
        <time>2022-07-31T15:54:49.883Z</time>
      </trkpt>
      <trkpt lat="43.68059" lon="1.43388">
        <ele>191.924321</ele>
        <time>2022-07-31T15:54:51.885Z</time>
      </trkpt>
      <trkpt lat="43.68051" lon="1.43398">
        <ele>191.938524</ele>
        <time>2022-07-31T15:54:54.833Z</time>
      </trkpt>
      <trkpt lat="43.6804" lon="1.43408">
        <ele>191.943594</ele>
        <time>2022-07-31T15:54:57.857Z</time>
      </trkpt>
      <trkpt lat="43.68029" lon="1.43417">
        <ele>191.940667</ele>
        <time>2022-07-31T15:54:59.875Z</time>
      </trkpt>
      <trkpt lat="43.68018" lon="1.43422">
        <ele>191.937951</ele>
        <time>2022-07-31T15:55:01.895Z</time>
      </trkpt>
      <trkpt lat="43.6801" lon="1.43431">
        <ele>191.935598</ele>
        <time>2022-07-31T15:55:03.866Z</time>
      </trkpt>
      <trkpt lat="43.68001" lon="1.43442">
        <ele>191.932872</ele>
        <time>2022-07-31T15:55:05.875Z</time>
      </trkpt>
      <trkpt lat="43.67995" lon="1.43456">
        <ele>191.930121</ele>
        <time>2022-07-31T15:55:07.885Z</time>
      </trkpt>
      <trkpt lat="43.67986" lon="1.43468">
        <ele>191.927212</ele>
        <time>2022-07-31T15:55:09.892Z</time>
      </trkpt>
      <trkpt lat="43.67976" lon="1.4348">
        <ele>191.924345</ele>
        <time>2022-07-31T15:55:11.884Z</time>
      </trkpt>
      <trkpt lat="43.67968" lon="1.4349">
        <ele>191.921642</ele>
        <time>2022-07-31T15:55:13.891Z</time>
      </trkpt>
      <trkpt lat="43.67959" lon="1.43501">
        <ele>191.918944</ele>
        <time>2022-07-31T15:55:15.907Z</time>
      </trkpt>
      <trkpt lat="43.67951" lon="1.43513">
        <ele>191.916336</ele>
        <time>2022-07-31T15:55:17.891Z</time>
      </trkpt>
      <trkpt lat="43.67944" lon="1.43525">
        <ele>191.913651</ele>
        <time>2022-07-31T15:55:19.863Z</time>
      </trkpt>
      <trkpt lat="43.67936" lon="1.43538">
        <ele>191.910858</ele>
        <time>2022-07-31T15:55:21.849Z</time>
      </trkpt>
      <trkpt lat="43.67929" lon="1.43551">
        <ele>191.908061</ele>
        <time>2022-07-31T15:55:23.877Z</time>
      </trkpt>
      <trkpt lat="43.67921" lon="1.43563">
        <ele>191.905376</ele>
        <time>2022-07-31T15:55:25.858Z</time>
      </trkpt>
      <trkpt lat="43.67913" lon="1.43575">
        <ele>191.898321</ele>
        <time>2022-07-31T15:55:27.865Z</time>
      </trkpt>
      <trkpt lat="43.67905" lon="1.43589">
        <ele>191.885749</ele>
        <time>2022-07-31T15:55:29.855Z</time>
      </trkpt>
      <trkpt lat="43.67897" lon="1.43601">
        <ele>191.873362</ele>
        <time>2022-07-31T15:55:31.880Z</time>
      </trkpt>
      <trkpt lat="43.67888" lon="1.43614">
        <ele>191.860753</ele>
        <time>2022-07-31T15:55:33.866Z</time>
      </trkpt>
      <trkpt lat="43.67878" lon="1.4362">
        <ele>191.849221</ele>
        <time>2022-07-31T15:55:35.901Z</time>
      </trkpt>
      <trkpt lat="43.67868" lon="1.43629">
        <ele>191.837442</ele>
        <time>2022-07-31T15:55:37.867Z</time>
      </trkpt>
      <trkpt lat="43.6786" lon="1.4364">
        <ele>191.826013</ele>
        <time>2022-07-31T15:55:39.865Z</time>
      </trkpt>
      <trkpt lat="43.67852" lon="1.43651">
        <ele>191.814928</ele>
        <time>2022-07-31T15:55:41.865Z</time>
      </trkpt>
      <trkpt lat="43.67844" lon="1.43661">
        <ele>191.804743</ele>
        <time>2022-07-31T15:55:43.847Z</time>
      </trkpt>
      <trkpt lat="43.67838" lon="1.4367">
        <ele>191.795131</ele>
        <time>2022-07-31T15:55:45.858Z</time>
      </trkpt>
      <trkpt lat="43.67828" lon="1.43682">
        <ele>191.782024</ele>
        <time>2022-07-31T15:55:48.879Z</time>
      </trkpt>
      <trkpt lat="43.67821" lon="1.43692">
        <ele>191.771942</ele>
        <time>2022-07-31T15:55:50.844Z</time>
      </trkpt>
      <trkpt lat="43.67813" lon="1.43702">
        <ele>191.761493</ele>
        <time>2022-07-31T15:55:52.834Z</time>
      </trkpt>
      <trkpt lat="43.67805" lon="1.43711">
        <ele>191.750819</ele>
        <time>2022-07-31T15:55:54.868Z</time>
      </trkpt>
      <trkpt lat="43.67797" lon="1.43722">
        <ele>191.739142</ele>
        <time>2022-07-31T15:55:56.842Z</time>
      </trkpt>
      <trkpt lat="43.67789" lon="1.43733">
        <ele>191.727837</ele>
        <time>2022-07-31T15:55:58.860Z</time>
      </trkpt>
      <trkpt lat="43.67781" lon="1.43742">
        <ele>191.789563</ele>
        <time>2022-07-31T15:56:00.859Z</time>
      </trkpt>
      <trkpt lat="43.67772" lon="1.43753">
        <ele>191.921575</ele>
        <time>2022-07-31T15:56:02.879Z</time>
      </trkpt>
      <trkpt lat="43.67762" lon="1.43762">
        <ele>192.054389</ele>
        <time>2022-07-31T15:56:04.868Z</time>
      </trkpt>
      <trkpt lat="43.67752" lon="1.4377">
        <ele>192.19196</ele>
        <time>2022-07-31T15:56:06.869Z</time>
      </trkpt>
      <trkpt lat="43.67741" lon="1.43777">
        <ele>192.32434</ele>
        <time>2022-07-31T15:56:08.837Z</time>
      </trkpt>
      <trkpt lat="43.6773" lon="1.43784">
        <ele>192.461898</ele>
        <time>2022-07-31T15:56:10.852Z</time>
      </trkpt>
      <trkpt lat="43.6772" lon="1.43791">
        <ele>192.597117</ele>
        <time>2022-07-31T15:56:12.870Z</time>
      </trkpt>
      <trkpt lat="43.6771" lon="1.438">
        <ele>192.725911</ele>
        <time>2022-07-31T15:56:14.868Z</time>
      </trkpt>
      <trkpt lat="43.677" lon="1.43809">
        <ele>192.862739</ele>
        <time>2022-07-31T15:56:17.879Z</time>
      </trkpt>
      <trkpt lat="43.67691" lon="1.43817">
        <ele>192.987901</ele>
        <time>2022-07-31T15:56:21.872Z</time>
      </trkpt>
      <trkpt lat="43.67682" lon="1.43826">
        <ele>193.109315</ele>
        <time>2022-07-31T15:56:25.879Z</time>
      </trkpt>
      <trkpt lat="43.67675" lon="1.43833">
        <ele>193.215656</ele>
        <time>2022-07-31T15:56:28.863Z</time>
      </trkpt>
      <trkpt lat="43.67665" lon="1.43839">
        <ele>193.332936</ele>
        <time>2022-07-31T15:56:31.855Z</time>
      </trkpt>
      <trkpt lat="43.67656" lon="1.43846">
        <ele>193.458333</ele>
        <time>2022-07-31T15:56:34.843Z</time>
      </trkpt>
      <trkpt lat="43.67646" lon="1.43858">
        <ele>193.597918</ele>
        <time>2022-07-31T15:56:39.881Z</time>
      </trkpt>
      <trkpt lat="43.67637" lon="1.43863">
        <ele>193.714149</ele>
        <time>2022-07-31T15:56:42.871Z</time>
      </trkpt>
      <trkpt lat="43.67627" lon="1.43871">
        <ele>193.727839</ele>
        <time>2022-07-31T15:56:45.863Z</time>
      </trkpt>
      <trkpt lat="43.67618" lon="1.43879">
        <ele>193.657358</ele>
        <time>2022-07-31T15:56:48.873Z</time>
      </trkpt>
      <trkpt lat="43.67608" lon="1.43883">
        <ele>193.587415</ele>
        <time>2022-07-31T15:56:53.865Z</time>
      </trkpt>
      <trkpt lat="43.67597" lon="1.43888">
        <ele>193.513286</ele>
        <time>2022-07-31T15:56:57.857Z</time>
      </trkpt>
      <trkpt lat="43.67588" lon="1.43896">
        <ele>193.446849</ele>
        <time>2022-07-31T15:57:01.832Z</time>
      </trkpt>
      <trkpt lat="43.67582" lon="1.43906">
        <ele>193.383178</ele>
        <time>2022-07-31T15:57:04.886Z</time>
      </trkpt>
      <trkpt lat="43.67576" lon="1.43918">
        <ele>193.313552</ele>
        <time>2022-07-31T15:57:07.879Z</time>
      </trkpt>
      <trkpt lat="43.67569" lon="1.43929">
        <ele>193.245707</ele>
        <time>2022-07-31T15:57:09.885Z</time>
      </trkpt>
      <trkpt lat="43.67563" lon="1.43944">
        <ele>193.164106</ele>
        <time>2022-07-31T15:57:11.903Z</time>
      </trkpt>
      <trkpt lat="43.67556" lon="1.43958">
        <ele>193.085134</ele>
        <time>2022-07-31T15:57:13.867Z</time>
      </trkpt>
      <trkpt lat="43.67549" lon="1.43972">
        <ele>193.005445</ele>
        <time>2022-07-31T15:57:15.882Z</time>
      </trkpt>
      <trkpt lat="43.67543" lon="1.43985">
        <ele>192.929348</ele>
        <time>2022-07-31T15:57:17.864Z</time>
      </trkpt>
      <trkpt lat="43.67538" lon="1.43999">
        <ele>192.853251</ele>
        <time>2022-07-31T15:57:19.844Z</time>
      </trkpt>
      <trkpt lat="43.67533" lon="1.44011">
        <ele>192.790528</ele>
        <time>2022-07-31T15:57:21.883Z</time>
      </trkpt>
      <trkpt lat="43.6753" lon="1.44024">
        <ele>192.723541</ele>
        <time>2022-07-31T15:57:23.878Z</time>
      </trkpt>
      <trkpt lat="43.67525" lon="1.44038">
        <ele>192.652687</ele>
        <time>2022-07-31T15:57:25.859Z</time>
      </trkpt>
      <trkpt lat="43.6752" lon="1.44052">
        <ele>192.584644</ele>
        <time>2022-07-31T15:57:27.875Z</time>
      </trkpt>
      <trkpt lat="43.67514" lon="1.44066">
        <ele>192.54847</ele>
        <time>2022-07-31T15:57:29.887Z</time>
      </trkpt>
      <trkpt lat="43.6751" lon="1.44081">
        <ele>192.513362</ele>
        <time>2022-07-31T15:57:31.875Z</time>
      </trkpt>
      <trkpt lat="43.67506" lon="1.44096">
        <ele>192.477563</ele>
        <time>2022-07-31T15:57:33.879Z</time>
      </trkpt>
      <trkpt lat="43.67501" lon="1.44112">
        <ele>192.439964</ele>
        <time>2022-07-31T15:57:35.873Z</time>
      </trkpt>
      <trkpt lat="43.67496" lon="1.44128">
        <ele>192.401723</ele>
        <time>2022-07-31T15:57:37.886Z</time>
      </trkpt>
      <trkpt lat="43.67491" lon="1.44144">
        <ele>192.363884</ele>
        <time>2022-07-31T15:57:39.880Z</time>
      </trkpt>
      <trkpt lat="43.67486" lon="1.44159">
        <ele>192.326992</ele>
        <time>2022-07-31T15:57:41.891Z</time>
      </trkpt>
      <trkpt lat="43.67482" lon="1.44174">
        <ele>192.291399</ele>
        <time>2022-07-31T15:57:43.863Z</time>
      </trkpt>
      <trkpt lat="43.67478" lon="1.4419">
        <ele>192.255738</ele>
        <time>2022-07-31T15:57:45.868Z</time>
      </trkpt>
      <trkpt lat="43.67475" lon="1.44206">
        <ele>192.219949</ele>
        <time>2022-07-31T15:57:47.863Z</time>
      </trkpt>
      <trkpt lat="43.67472" lon="1.44221">
        <ele>192.184822</ele>
        <time>2022-07-31T15:57:49.849Z</time>
      </trkpt>
      <trkpt lat="43.6747" lon="1.44237">
        <ele>192.149765</ele>
        <time>2022-07-31T15:57:51.899Z</time>
      </trkpt>
      <trkpt lat="43.67466" lon="1.44252">
        <ele>192.115184</ele>
        <time>2022-07-31T15:57:53.880Z</time>
      </trkpt>
      <trkpt lat="43.67463" lon="1.44266">
        <ele>192.081133</ele>
        <time>2022-07-31T15:57:55.870Z</time>
      </trkpt>
      <trkpt lat="43.67461" lon="1.44282">
        <ele>192.047505</ele>
        <time>2022-07-31T15:57:57.879Z</time>
      </trkpt>
      <trkpt lat="43.6746" lon="1.44297">
        <ele>192.091626</ele>
        <time>2022-07-31T15:57:59.872Z</time>
      </trkpt>
      <trkpt lat="43.67458" lon="1.44312">
        <ele>192.141987</ele>
        <time>2022-07-31T15:58:01.886Z</time>
      </trkpt>
      <trkpt lat="43.67457" lon="1.44328">
        <ele>192.192615</ele>
        <time>2022-07-31T15:58:03.892Z</time>
      </trkpt>
      <trkpt lat="43.67456" lon="1.44344">
        <ele>192.242873</ele>
        <time>2022-07-31T15:58:05.901Z</time>
      </trkpt>
      <trkpt lat="43.67455" lon="1.44359">
        <ele>192.293452</ele>
        <time>2022-07-31T15:58:07.881Z</time>
      </trkpt>
      <trkpt lat="43.67454" lon="1.44375">
        <ele>192.344119</ele>
        <time>2022-07-31T15:58:09.889Z</time>
      </trkpt>
      <trkpt lat="43.67454" lon="1.44391">
        <ele>192.395108</ele>
        <time>2022-07-31T15:58:11.863Z</time>
      </trkpt>
      <trkpt lat="43.67453" lon="1.44407">
        <ele>192.447849</ele>
        <time>2022-07-31T15:58:13.868Z</time>
      </trkpt>
      <trkpt lat="43.67452" lon="1.44424">
        <ele>192.502747</ele>
        <time>2022-07-31T15:58:15.856Z</time>
      </trkpt>
      <trkpt lat="43.67451" lon="1.44441">
        <ele>192.558265</ele>
        <time>2022-07-31T15:58:17.862Z</time>
      </trkpt>
      <trkpt lat="43.67451" lon="1.44458">
        <ele>192.613441</ele>
        <time>2022-07-31T15:58:19.877Z</time>
      </trkpt>
      <trkpt lat="43.6745" lon="1.44475">
        <ele>192.668279</ele>
        <time>2022-07-31T15:58:21.885Z</time>
      </trkpt>
      <trkpt lat="43.6745" lon="1.44492">
        <ele>192.723848</ele>
        <time>2022-07-31T15:58:23.874Z</time>
      </trkpt>
      <trkpt lat="43.67449" lon="1.4451">
        <ele>192.779416</ele>
        <time>2022-07-31T15:58:25.891Z</time>
      </trkpt>
      <trkpt lat="43.67448" lon="1.44527">
        <ele>192.834636</ele>
        <time>2022-07-31T15:58:27.889Z</time>
      </trkpt>
      <trkpt lat="43.67447" lon="1.44544">
        <ele>192.877239</ele>
        <time>2022-07-31T15:58:29.922Z</time>
      </trkpt>
      <trkpt lat="43.67447" lon="1.4456">
        <ele>192.915184</ele>
        <time>2022-07-31T15:58:31.875Z</time>
      </trkpt>
      <trkpt lat="43.67446" lon="1.44577">
        <ele>192.953474</ele>
        <time>2022-07-31T15:58:33.867Z</time>
      </trkpt>
      <trkpt lat="43.67445" lon="1.44592">
        <ele>192.989591</ele>
        <time>2022-07-31T15:58:35.865Z</time>
      </trkpt>
      <trkpt lat="43.67443" lon="1.44606">
        <ele>193.02285</ele>
        <time>2022-07-31T15:58:37.865Z</time>
      </trkpt>
      <trkpt lat="43.67441" lon="1.44622">
        <ele>193.060427</ele>
        <time>2022-07-31T15:58:40.832Z</time>
      </trkpt>
      <trkpt lat="43.6744" lon="1.44637">
        <ele>193.094598</ele>
        <time>2022-07-31T15:58:44.862Z</time>
      </trkpt>
      <trkpt lat="43.67438" lon="1.44652">
        <ele>193.128591</ele>
        <time>2022-07-31T15:58:53.872Z</time>
      </trkpt>
      <trkpt lat="43.6744" lon="1.44667">
        <ele>193.164064</ele>
        <time>2022-07-31T15:58:57.892Z</time>
      </trkpt>
      <trkpt lat="43.67445" lon="1.44682">
        <ele>193.202709</ele>
        <time>2022-07-31T15:59:01.870Z</time>
      </trkpt>
      <trkpt lat="43.67446" lon="1.44698">
        <ele>193.239683</ele>
        <time>2022-07-31T15:59:04.847Z</time>
      </trkpt>
      <trkpt lat="43.67446" lon="1.44711">
        <ele>193.271444</ele>
        <time>2022-07-31T15:59:07.877Z</time>
      </trkpt>
      <trkpt lat="43.67448" lon="1.44725">
        <ele>193.303462</ele>
        <time>2022-07-31T15:59:10.870Z</time>
      </trkpt>
      <trkpt lat="43.67451" lon="1.44738">
        <ele>193.334216</ele>
        <time>2022-07-31T15:59:14.869Z</time>
      </trkpt>
      <trkpt lat="43.67452" lon="1.44751">
        <ele>193.363934</ele>
        <time>2022-07-31T15:59:18.852Z</time>
      </trkpt>
      <trkpt lat="43.67453" lon="1.44765">
        <ele>193.397926</ele>
        <time>2022-07-31T15:59:22.900Z</time>
      </trkpt>
      <trkpt lat="43.67454" lon="1.44782">
        <ele>193.418748</ele>
        <time>2022-07-31T15:59:25.888Z</time>
      </trkpt>
      <trkpt lat="43.67456" lon="1.448">
        <ele>193.410221</ele>
        <time>2022-07-31T15:59:28.871Z</time>
      </trkpt>
      <trkpt lat="43.67458" lon="1.44814">
        <ele>193.403814</ele>
        <time>2022-07-31T15:59:30.876Z</time>
      </trkpt>
      <trkpt lat="43.67458" lon="1.44828">
        <ele>193.397226</ele>
        <time>2022-07-31T15:59:32.877Z</time>
      </trkpt>
      <trkpt lat="43.67461" lon="1.44843">
        <ele>193.390272</ele>
        <time>2022-07-31T15:59:34.860Z</time>
      </trkpt>
      <trkpt lat="43.67463" lon="1.44858">
        <ele>193.383306</ele>
        <time>2022-07-31T15:59:36.873Z</time>
      </trkpt>
      <trkpt lat="43.67467" lon="1.44873">
        <ele>193.376101</ele>
        <time>2022-07-31T15:59:38.888Z</time>
      </trkpt>
      <trkpt lat="43.67471" lon="1.44889">
        <ele>193.368324</ele>
        <time>2022-07-31T15:59:40.876Z</time>
      </trkpt>
      <trkpt lat="43.67475" lon="1.44905">
        <ele>193.360761</ele>
        <time>2022-07-31T15:59:42.865Z</time>
      </trkpt>
      <trkpt lat="43.67479" lon="1.44921">
        <ele>193.353219</ele>
        <time>2022-07-31T15:59:44.867Z</time>
      </trkpt>
      <trkpt lat="43.67483" lon="1.44936">
        <ele>193.34574</ele>
        <time>2022-07-31T15:59:46.898Z</time>
      </trkpt>
      <trkpt lat="43.67487" lon="1.44951">
        <ele>193.338344</ele>
        <time>2022-07-31T15:59:48.882Z</time>
      </trkpt>
      <trkpt lat="43.67492" lon="1.44966">
        <ele>193.330881</ele>
        <time>2022-07-31T15:59:50.894Z</time>
      </trkpt>
      <trkpt lat="43.67497" lon="1.44981">
        <ele>193.323459</ele>
        <time>2022-07-31T15:59:52.888Z</time>
      </trkpt>
      <trkpt lat="43.67503" lon="1.44996">
        <ele>193.316001</ele>
        <time>2022-07-31T15:59:54.880Z</time>
      </trkpt>
      <trkpt lat="43.67506" lon="1.4501">
        <ele>193.309154</ele>
        <time>2022-07-31T15:59:56.847Z</time>
      </trkpt>
      <trkpt lat="43.67497" lon="1.4502">
        <ele>193.353131</ele>
        <time>2022-07-31T15:59:58.888Z</time>
      </trkpt>
      <trkpt lat="43.67485" lon="1.45028">
        <ele>193.406663</ele>
        <time>2022-07-31T16:00:00.847Z</time>
      </trkpt>
      <trkpt lat="43.67474" lon="1.45036">
        <ele>193.460173</ele>
        <time>2022-07-31T16:00:02.848Z</time>
      </trkpt>
      <trkpt lat="43.67463" lon="1.45044">
        <ele>193.512347</ele>
        <time>2022-07-31T16:00:04.855Z</time>
      </trkpt>
      <trkpt lat="43.67456" lon="1.45058">
        <ele>193.564786</ele>
        <time>2022-07-31T16:00:06.881Z</time>
      </trkpt>
      <trkpt lat="43.67452" lon="1.45074">
        <ele>193.616845</ele>
        <time>2022-07-31T16:00:08.862Z</time>
      </trkpt>
      <trkpt lat="43.67449" lon="1.4509">
        <ele>193.668238</ele>
        <time>2022-07-31T16:00:10.885Z</time>
      </trkpt>
      <trkpt lat="43.67446" lon="1.45108">
        <ele>193.722899</ele>
        <time>2022-07-31T16:00:12.895Z</time>
      </trkpt>
      <trkpt lat="43.6745" lon="1.45124">
        <ele>193.775</ele>
        <time>2022-07-31T16:00:14.968Z</time>
      </trkpt>
      <trkpt lat="43.67456" lon="1.45137">
        <ele>193.823334</ele>
        <time>2022-07-31T16:00:16.889Z</time>
      </trkpt>
      <trkpt lat="43.67462" lon="1.45151">
        <ele>193.873506</ele>
        <time>2022-07-31T16:00:18.855Z</time>
      </trkpt>
      <trkpt lat="43.67468" lon="1.45166">
        <ele>193.924055</ele>
        <time>2022-07-31T16:00:20.861Z</time>
      </trkpt>
      <trkpt lat="43.67472" lon="1.45181">
        <ele>193.975105</ele>
        <time>2022-07-31T16:00:22.847Z</time>
      </trkpt>
      <trkpt lat="43.67477" lon="1.45196">
        <ele>194.025843</ele>
        <time>2022-07-31T16:00:24.879Z</time>
      </trkpt>
      <trkpt lat="43.67483" lon="1.45211">
        <ele>194.084216</ele>
        <time>2022-07-31T16:00:26.858Z</time>
      </trkpt>
      <trkpt lat="43.67489" lon="1.45225">
        <ele>194.194837</ele>
        <time>2022-07-31T16:00:28.858Z</time>
      </trkpt>
      <trkpt lat="43.67486" lon="1.45239">
        <ele>194.291407</ele>
        <time>2022-07-31T16:00:30.871Z</time>
      </trkpt>
      <trkpt lat="43.67475" lon="1.45247">
        <ele>194.399781</ele>
        <time>2022-07-31T16:00:32.880Z</time>
      </trkpt>
      <trkpt lat="43.67464" lon="1.45255">
        <ele>194.515755</ele>
        <time>2022-07-31T16:00:34.893Z</time>
      </trkpt>
      <trkpt lat="43.67452" lon="1.4526">
        <ele>194.628587</ele>
        <time>2022-07-31T16:00:36.912Z</time>
      </trkpt>
      <trkpt lat="43.6744" lon="1.45265">
        <ele>194.743359</ele>
        <time>2022-07-31T16:00:38.890Z</time>
      </trkpt>
      <trkpt lat="43.67429" lon="1.45271">
        <ele>194.855773</ele>
        <time>2022-07-31T16:00:40.894Z</time>
      </trkpt>
      <trkpt lat="43.67417" lon="1.45279">
        <ele>194.976511</ele>
        <time>2022-07-31T16:00:42.867Z</time>
      </trkpt>
      <trkpt lat="43.67405" lon="1.45287">
        <ele>195.096422</ele>
        <time>2022-07-31T16:00:44.838Z</time>
      </trkpt>
      <trkpt lat="43.67393" lon="1.45295">
        <ele>195.217769</ele>
        <time>2022-07-31T16:00:46.872Z</time>
      </trkpt>
      <trkpt lat="43.67381" lon="1.45302">
        <ele>195.334649</ele>
        <time>2022-07-31T16:00:48.879Z</time>
      </trkpt>
      <trkpt lat="43.6737" lon="1.45307">
        <ele>195.447481</ele>
        <time>2022-07-31T16:00:50.876Z</time>
      </trkpt>
      <trkpt lat="43.67357" lon="1.45306">
        <ele>195.560173</ele>
        <time>2022-07-31T16:00:52.868Z</time>
      </trkpt>
      <trkpt lat="43.67345" lon="1.45303">
        <ele>195.67535</ele>
        <time>2022-07-31T16:00:54.865Z</time>
      </trkpt>
      <trkpt lat="43.67333" lon="1.453">
        <ele>195.632056</ele>
        <time>2022-07-31T16:00:56.870Z</time>
      </trkpt>
      <trkpt lat="43.6732" lon="1.45299">
        <ele>195.514038</ele>
        <time>2022-07-31T16:00:58.860Z</time>
      </trkpt>
      <trkpt lat="43.67308" lon="1.45301">
        <ele>195.395815</ele>
        <time>2022-07-31T16:01:00.895Z</time>
      </trkpt>
      <trkpt lat="43.67297" lon="1.45307">
        <ele>195.27797</ele>
        <time>2022-07-31T16:01:02.876Z</time>
      </trkpt>
      <trkpt lat="43.67286" lon="1.45313">
        <ele>195.165416</ele>
        <time>2022-07-31T16:01:04.875Z</time>
      </trkpt>
      <trkpt lat="43.67276" lon="1.45317">
        <ele>195.060491</ele>
        <time>2022-07-31T16:01:06.871Z</time>
      </trkpt>
      <trkpt lat="43.67267" lon="1.45314">
        <ele>194.970495</ele>
        <time>2022-07-31T16:01:08.882Z</time>
      </trkpt>
      <trkpt lat="43.6726" lon="1.45303">
        <ele>194.866861</ele>
        <time>2022-07-31T16:01:10.878Z</time>
      </trkpt>
      <trkpt lat="43.67257" lon="1.45286">
        <ele>194.745858</ele>
        <time>2022-07-31T16:01:12.886Z</time>
      </trkpt>
      <trkpt lat="43.67252" lon="1.4527">
        <ele>194.623946</ele>
        <time>2022-07-31T16:01:14.846Z</time>
      </trkpt>
      <trkpt lat="43.67247" lon="1.45254">
        <ele>194.499248</ele>
        <time>2022-07-31T16:01:16.904Z</time>
      </trkpt>
      <trkpt lat="43.6724" lon="1.4524">
        <ele>194.381294</ele>
        <time>2022-07-31T16:01:18.854Z</time>
      </trkpt>
      <trkpt lat="43.67233" lon="1.45225">
        <ele>194.260985</ele>
        <time>2022-07-31T16:01:20.860Z</time>
      </trkpt>
      <trkpt lat="43.6723" lon="1.45209">
        <ele>194.141232</ele>
        <time>2022-07-31T16:01:22.859Z</time>
      </trkpt>
      <trkpt lat="43.67227" lon="1.45192">
        <ele>194.019589</ele>
        <time>2022-07-31T16:01:24.860Z</time>
      </trkpt>
      <trkpt lat="43.67223" lon="1.45176">
        <ele>193.958222</ele>
        <time>2022-07-31T16:01:26.868Z</time>
      </trkpt>
      <trkpt lat="43.6722" lon="1.45161">
        <ele>193.945871</ele>
        <time>2022-07-31T16:01:28.864Z</time>
      </trkpt>
      <trkpt lat="43.67217" lon="1.45146">
        <ele>193.93413</ele>
        <time>2022-07-31T16:01:30.886Z</time>
      </trkpt>
      <trkpt lat="43.67214" lon="1.45132">
        <ele>193.923147</ele>
        <time>2022-07-31T16:01:32.875Z</time>
      </trkpt>
      <trkpt lat="43.6721" lon="1.45121">
        <ele>193.912917</ele>
        <time>2022-07-31T16:01:34.877Z</time>
      </trkpt>
      <trkpt lat="43.67196" lon="1.45122">
        <ele>193.898195</ele>
        <time>2022-07-31T16:01:37.865Z</time>
      </trkpt>
      <trkpt lat="43.67184" lon="1.45129">
        <ele>193.885032</ele>
        <time>2022-07-31T16:01:39.860Z</time>
      </trkpt>
      <trkpt lat="43.67173" lon="1.45137">
        <ele>193.871334</ele>
        <time>2022-07-31T16:01:41.874Z</time>
      </trkpt>
      <trkpt lat="43.67162" lon="1.45144">
        <ele>193.858252</ele>
        <time>2022-07-31T16:01:43.857Z</time>
      </trkpt>
      <trkpt lat="43.6715" lon="1.45139">
        <ele>193.844746</ele>
        <time>2022-07-31T16:01:45.858Z</time>
      </trkpt>
      <trkpt lat="43.67139" lon="1.45131">
        <ele>193.831301</ele>
        <time>2022-07-31T16:01:47.874Z</time>
      </trkpt>
      <trkpt lat="43.67126" lon="1.45137">
        <ele>193.817038</ele>
        <time>2022-07-31T16:01:49.875Z</time>
      </trkpt>
      <trkpt lat="43.67115" lon="1.45145">
        <ele>193.802783</ele>
        <time>2022-07-31T16:01:51.876Z</time>
      </trkpt>
      <trkpt lat="43.67103" lon="1.45153">
        <ele>193.78889</ele>
        <time>2022-07-31T16:01:53.871Z</time>
      </trkpt>
      <trkpt lat="43.67091" lon="1.4516">
        <ele>193.774932</ele>
        <time>2022-07-31T16:01:55.883Z</time>
      </trkpt>
      <trkpt lat="43.6708" lon="1.45161">
        <ele>193.648053</ele>
        <time>2022-07-31T16:01:57.881Z</time>
      </trkpt>
      <trkpt lat="43.67071" lon="1.45153">
        <ele>193.502792</ele>
        <time>2022-07-31T16:01:59.877Z</time>
      </trkpt>
      <trkpt lat="43.67061" lon="1.45142">
        <ele>193.327749</ele>
        <time>2022-07-31T16:02:01.882Z</time>
      </trkpt>
      <trkpt lat="43.67051" lon="1.45144">
        <ele>193.188741</ele>
        <time>2022-07-31T16:02:03.852Z</time>
      </trkpt>
      <trkpt lat="43.6704" lon="1.45152">
        <ele>193.020931</ele>
        <time>2022-07-31T16:02:05.849Z</time>
      </trkpt>
      <trkpt lat="43.67029" lon="1.45159">
        <ele>192.853538</ele>
        <time>2022-07-31T16:02:07.883Z</time>
      </trkpt>
      <trkpt lat="43.67016" lon="1.45159">
        <ele>192.68726</ele>
        <time>2022-07-31T16:02:09.853Z</time>
      </trkpt>
      <trkpt lat="43.6701" lon="1.45146">
        <ele>192.528608</ele>
        <time>2022-07-31T16:02:11.868Z</time>
      </trkpt>
      <trkpt lat="43.67005" lon="1.4513">
        <ele>192.362142</ele>
        <time>2022-07-31T16:02:13.875Z</time>
      </trkpt>
      <trkpt lat="43.67" lon="1.45115">
        <ele>192.201797</ele>
        <time>2022-07-31T16:02:15.876Z</time>
      </trkpt>
      <trkpt lat="43.66993" lon="1.45101">
        <ele>192.033028</ele>
        <time>2022-07-31T16:02:17.870Z</time>
      </trkpt>
      <trkpt lat="43.66986" lon="1.45087">
        <ele>191.865061</ele>
        <time>2022-07-31T16:02:19.897Z</time>
      </trkpt>
      <trkpt lat="43.66978" lon="1.45073">
        <ele>191.693115</ele>
        <time>2022-07-31T16:02:21.896Z</time>
      </trkpt>
      <trkpt lat="43.66971" lon="1.45059">
        <ele>191.526651</ele>
        <time>2022-07-31T16:02:23.896Z</time>
      </trkpt>
      <trkpt lat="43.66964" lon="1.45045">
        <ele>191.361034</ele>
        <time>2022-07-31T16:02:25.885Z</time>
      </trkpt>
      <trkpt lat="43.66958" lon="1.45031">
        <ele>191.310919</ele>
        <time>2022-07-31T16:02:27.862Z</time>
      </trkpt>
      <trkpt lat="43.66952" lon="1.45017">
        <ele>191.277023</ele>
        <time>2022-07-31T16:02:29.877Z</time>
      </trkpt>
      <trkpt lat="43.66947" lon="1.45002">
        <ele>191.243309</ele>
        <time>2022-07-31T16:02:31.855Z</time>
      </trkpt>
      <trkpt lat="43.66942" lon="1.44987">
        <ele>191.208979</ele>
        <time>2022-07-31T16:02:33.884Z</time>
      </trkpt>
      <trkpt lat="43.66936" lon="1.44973">
        <ele>191.175396</ele>
        <time>2022-07-31T16:02:35.880Z</time>
      </trkpt>
      <trkpt lat="43.66931" lon="1.44959">
        <ele>191.142041</ele>
        <time>2022-07-31T16:02:37.876Z</time>
      </trkpt>
      <trkpt lat="43.66922" lon="1.44947">
        <ele>191.10783</ele>
        <time>2022-07-31T16:02:39.893Z</time>
      </trkpt>
      <trkpt lat="43.66911" lon="1.44939">
        <ele>191.072305</ele>
        <time>2022-07-31T16:02:41.888Z</time>
      </trkpt>
      <trkpt lat="43.66899" lon="1.44936">
        <ele>191.036904</ele>
        <time>2022-07-31T16:02:43.887Z</time>
      </trkpt>
      <trkpt lat="43.66887" lon="1.44933">
        <ele>191.000977</ele>
        <time>2022-07-31T16:02:45.889Z</time>
      </trkpt>
      <trkpt lat="43.66874" lon="1.4493">
        <ele>190.964937</ele>
        <time>2022-07-31T16:02:47.881Z</time>
      </trkpt>
      <trkpt lat="43.66862" lon="1.44928">
        <ele>190.929496</ele>
        <time>2022-07-31T16:02:49.870Z</time>
      </trkpt>
      <trkpt lat="43.6685" lon="1.44925">
        <ele>190.893924</ele>
        <time>2022-07-31T16:02:51.859Z</time>
      </trkpt>
      <trkpt lat="43.66838" lon="1.44922">
        <ele>190.858562</ele>
        <time>2022-07-31T16:02:53.863Z</time>
      </trkpt>
      <trkpt lat="43.66826" lon="1.44918">
        <ele>190.825402</ele>
        <time>2022-07-31T16:02:55.856Z</time>
      </trkpt>
      <trkpt lat="43.66815" lon="1.44913">
        <ele>190.930048</ele>
        <time>2022-07-31T16:02:57.856Z</time>
      </trkpt>
      <trkpt lat="43.66804" lon="1.44908">
        <ele>191.037434</ele>
        <time>2022-07-31T16:02:59.865Z</time>
      </trkpt>
      <trkpt lat="43.66793" lon="1.44902">
        <ele>191.146002</ele>
        <time>2022-07-31T16:03:01.886Z</time>
      </trkpt>
      <trkpt lat="43.66781" lon="1.44895">
        <ele>191.262711</ele>
        <time>2022-07-31T16:03:03.886Z</time>
      </trkpt>
      <trkpt lat="43.66771" lon="1.44886">
        <ele>191.375251</ele>
        <time>2022-07-31T16:03:05.858Z</time>
      </trkpt>
      <trkpt lat="43.66762" lon="1.44875">
        <ele>191.48426</ele>
        <time>2022-07-31T16:03:07.892Z</time>
      </trkpt>
      <trkpt lat="43.66756" lon="1.4486">
        <ele>191.590902</ele>
        <time>2022-07-31T16:03:09.887Z</time>
      </trkpt>
      <trkpt lat="43.66755" lon="1.44844">
        <ele>191.698661</ele>
        <time>2022-07-31T16:03:11.874Z</time>
      </trkpt>
      <trkpt lat="43.66751" lon="1.44829">
        <ele>191.80578</ele>
        <time>2022-07-31T16:03:13.881Z</time>
      </trkpt>
      <trkpt lat="43.66741" lon="1.4482">
        <ele>191.911124</ele>
        <time>2022-07-31T16:03:15.880Z</time>
      </trkpt>
      <trkpt lat="43.66729" lon="1.44822">
        <ele>192.017809</ele>
        <time>2022-07-31T16:03:17.866Z</time>
      </trkpt>
      <trkpt lat="43.66719" lon="1.44829">
        <ele>192.126039</ele>
        <time>2022-07-31T16:03:19.885Z</time>
      </trkpt>
      <trkpt lat="43.66708" lon="1.44838">
        <ele>192.239029</ele>
        <time>2022-07-31T16:03:21.877Z</time>
      </trkpt>
      <trkpt lat="43.66698" lon="1.44847">
        <ele>192.351074</ele>
        <time>2022-07-31T16:03:23.863Z</time>
      </trkpt>
      <trkpt lat="43.66687" lon="1.44854">
        <ele>192.462636</ele>
        <time>2022-07-31T16:03:25.881Z</time>
      </trkpt>
      <trkpt lat="43.66675" lon="1.44859">
        <ele>192.56934</ele>
        <time>2022-07-31T16:03:27.875Z</time>
      </trkpt>
      <trkpt lat="43.66663" lon="1.4486">
        <ele>192.676336</ele>
        <time>2022-07-31T16:03:29.881Z</time>
      </trkpt>
      <trkpt lat="43.6665" lon="1.4486">
        <ele>192.784112</ele>
        <time>2022-07-31T16:03:31.869Z</time>
      </trkpt>
      <trkpt lat="43.66639" lon="1.44857">
        <ele>192.879921</ele>
        <time>2022-07-31T16:03:33.891Z</time>
      </trkpt>
      <trkpt lat="43.66628" lon="1.44851">
        <ele>192.9866</ele>
        <time>2022-07-31T16:03:35.881Z</time>
      </trkpt>
      <trkpt lat="43.6662" lon="1.44839">
        <ele>193.089604</ele>
        <time>2022-07-31T16:03:37.880Z</time>
      </trkpt>
      <trkpt lat="43.66612" lon="1.44825">
        <ele>193.198105</ele>
        <time>2022-07-31T16:03:39.876Z</time>
      </trkpt>
      <trkpt lat="43.66605" lon="1.44813">
        <ele>193.300825</ele>
        <time>2022-07-31T16:03:41.869Z</time>
      </trkpt>
      <trkpt lat="43.66597" lon="1.448">
        <ele>193.404804</ele>
        <time>2022-07-31T16:03:43.884Z</time>
      </trkpt>
      <trkpt lat="43.6659" lon="1.44787">
        <ele>193.507524</ele>
        <time>2022-07-31T16:03:45.863Z</time>
      </trkpt>
      <trkpt lat="43.66582" lon="1.44775">
        <ele>193.61023</ele>
        <time>2022-07-31T16:03:47.885Z</time>
      </trkpt>
      <trkpt lat="43.66574" lon="1.44763">
        <ele>193.711527</ele>
        <time>2022-07-31T16:03:49.866Z</time>
      </trkpt>
      <trkpt lat="43.66565" lon="1.44752">
        <ele>193.814253</ele>
        <time>2022-07-31T16:03:51.891Z</time>
      </trkpt>
      <trkpt lat="43.66557" lon="1.44741">
        <ele>193.912476</ele>
        <time>2022-07-31T16:03:53.859Z</time>
      </trkpt>
      <trkpt lat="43.66549" lon="1.44731">
        <ele>194.007683</ele>
        <time>2022-07-31T16:03:55.874Z</time>
      </trkpt>
      <trkpt lat="43.66539" lon="1.44724">
        <ele>194.072796</ele>
        <time>2022-07-31T16:03:57.882Z</time>
      </trkpt>
      <trkpt lat="43.66529" lon="1.44718">
        <ele>194.130934</ele>
        <time>2022-07-31T16:03:59.873Z</time>
      </trkpt>
      <trkpt lat="43.6652" lon="1.44713">
        <ele>194.185862</ele>
        <time>2022-07-31T16:04:01.872Z</time>
      </trkpt>
      <trkpt lat="43.66511" lon="1.44708">
        <ele>194.235769</ele>
        <time>2022-07-31T16:04:04.881Z</time>
      </trkpt>
      <trkpt lat="43.66505" lon="1.44724">
        <ele>194.305885</ele>
        <time>2022-07-31T16:04:08.861Z</time>
      </trkpt>
      <trkpt lat="43.66499" lon="1.4474">
        <ele>194.375501</ele>
        <time>2022-07-31T16:04:11.853Z</time>
      </trkpt>
      <trkpt lat="43.66495" lon="1.44753">
        <ele>194.430295</ele>
        <time>2022-07-31T16:04:13.887Z</time>
      </trkpt>
      <trkpt lat="43.6649" lon="1.44766">
        <ele>194.48915</ele>
        <time>2022-07-31T16:04:15.875Z</time>
      </trkpt>
      <trkpt lat="43.66484" lon="1.44781">
        <ele>194.551725</ele>
        <time>2022-07-31T16:04:17.859Z</time>
      </trkpt>
      <trkpt lat="43.66478" lon="1.44794">
        <ele>194.611182</ele>
        <time>2022-07-31T16:04:19.868Z</time>
      </trkpt>
      <trkpt lat="43.66472" lon="1.44807">
        <ele>194.671286</ele>
        <time>2022-07-31T16:04:21.905Z</time>
      </trkpt>
      <trkpt lat="43.66466" lon="1.44821">
        <ele>194.735665</ele>
        <time>2022-07-31T16:04:23.892Z</time>
      </trkpt>
      <trkpt lat="43.66461" lon="1.44836">
        <ele>194.798926</ele>
        <time>2022-07-31T16:04:25.895Z</time>
      </trkpt>
      <trkpt lat="43.66455" lon="1.44851">
        <ele>194.863565</ele>
        <time>2022-07-31T16:04:27.902Z</time>
      </trkpt>
      <trkpt lat="43.66451" lon="1.44867">
        <ele>194.929793</ele>
        <time>2022-07-31T16:04:29.896Z</time>
      </trkpt>
      <trkpt lat="43.66448" lon="1.44884">
        <ele>195.005184</ele>
        <time>2022-07-31T16:04:31.923Z</time>
      </trkpt>
      <trkpt lat="43.66442" lon="1.44899">
        <ele>195.105593</ele>
        <time>2022-07-31T16:04:33.859Z</time>
      </trkpt>
      <trkpt lat="43.66435" lon="1.44912">
        <ele>195.203517</ele>
        <time>2022-07-31T16:04:35.886Z</time>
      </trkpt>
      <trkpt lat="43.66431" lon="1.44928">
        <ele>195.305264</ele>
        <time>2022-07-31T16:04:37.876Z</time>
      </trkpt>
      <trkpt lat="43.6643" lon="1.44943">
        <ele>195.395843</ele>
        <time>2022-07-31T16:04:39.880Z</time>
      </trkpt>
      <trkpt lat="43.66426" lon="1.44957">
        <ele>195.488953</ele>
        <time>2022-07-31T16:04:41.891Z</time>
      </trkpt>
      <trkpt lat="43.66421" lon="1.44974">
        <ele>195.592513</ele>
        <time>2022-07-31T16:04:43.869Z</time>
      </trkpt>
      <trkpt lat="43.66416" lon="1.4499">
        <ele>195.701404</ele>
        <time>2022-07-31T16:04:45.862Z</time>
      </trkpt>
      <trkpt lat="43.66411" lon="1.45007">
        <ele>195.808428</ele>
        <time>2022-07-31T16:04:47.875Z</time>
      </trkpt>
      <trkpt lat="43.66408" lon="1.45023">
        <ele>195.907527</ele>
        <time>2022-07-31T16:04:49.881Z</time>
      </trkpt>
      <trkpt lat="43.66405" lon="1.45038">
        <ele>196.002609</ele>
        <time>2022-07-31T16:04:51.882Z</time>
      </trkpt>
      <trkpt lat="43.664" lon="1.45052">
        <ele>196.093929</ele>
        <time>2022-07-31T16:04:53.881Z</time>
      </trkpt>
      <trkpt lat="43.66395" lon="1.45066">
        <ele>196.18924</ele>
        <time>2022-07-31T16:04:55.892Z</time>
      </trkpt>
      <trkpt lat="43.6639" lon="1.45081">
        <ele>196.285838</ele>
        <time>2022-07-31T16:04:57.865Z</time>
      </trkpt>
      <trkpt lat="43.66386" lon="1.45096">
        <ele>196.384883</ele>
        <time>2022-07-31T16:04:59.883Z</time>
      </trkpt>
      <trkpt lat="43.6638" lon="1.4511">
        <ele>196.455485</ele>
        <time>2022-07-31T16:05:01.858Z</time>
      </trkpt>
      <trkpt lat="43.66374" lon="1.45123">
        <ele>196.362586</ele>
        <time>2022-07-31T16:05:03.852Z</time>
      </trkpt>
      <trkpt lat="43.6637" lon="1.45135">
        <ele>196.273625</ele>
        <time>2022-07-31T16:05:05.848Z</time>
      </trkpt>
      <trkpt lat="43.66365" lon="1.45147">
        <ele>196.187242</ele>
        <time>2022-07-31T16:05:07.879Z</time>
      </trkpt>
      <trkpt lat="43.66359" lon="1.45158">
        <ele>196.104652</ele>
        <time>2022-07-31T16:05:09.832Z</time>
      </trkpt>
      <trkpt lat="43.66356" lon="1.4517">
        <ele>196.021505</ele>
        <time>2022-07-31T16:05:11.856Z</time>
      </trkpt>
      <trkpt lat="43.66358" lon="1.45183">
        <ele>195.937315</ele>
        <time>2022-07-31T16:05:13.878Z</time>
      </trkpt>
      <trkpt lat="43.66355" lon="1.45195">
        <ele>195.855086</ele>
        <time>2022-07-31T16:05:15.859Z</time>
      </trkpt>
      <trkpt lat="43.66351" lon="1.45209">
        <ele>195.760216</ele>
        <time>2022-07-31T16:05:17.848Z</time>
      </trkpt>
      <trkpt lat="43.66348" lon="1.45229">
        <ele>195.634083</ele>
        <time>2022-07-31T16:05:19.861Z</time>
      </trkpt>
      <trkpt lat="43.66342" lon="1.45248">
        <ele>195.501695</ele>
        <time>2022-07-31T16:05:21.877Z</time>
      </trkpt>
      <trkpt lat="43.66334" lon="1.45261">
        <ele>195.393762</ele>
        <time>2022-07-31T16:05:23.877Z</time>
      </trkpt>
      <trkpt lat="43.66328" lon="1.45273">
        <ele>195.303454</ele>
        <time>2022-07-31T16:05:25.904Z</time>
      </trkpt>
      <trkpt lat="43.66322" lon="1.45287">
        <ele>195.202966</ele>
        <time>2022-07-31T16:05:27.897Z</time>
      </trkpt>
      <trkpt lat="43.66315" lon="1.453">
        <ele>195.102554</ele>
        <time>2022-07-31T16:05:29.878Z</time>
      </trkpt>
      <trkpt lat="43.66308" lon="1.45312">
        <ele>195.003672</ele>
        <time>2022-07-31T16:05:31.865Z</time>
      </trkpt>
      <trkpt lat="43.66303" lon="1.45326">
        <ele>194.904652</ele>
        <time>2022-07-31T16:05:33.881Z</time>
      </trkpt>
      <trkpt lat="43.66298" lon="1.4534">
        <ele>194.908616</ele>
        <time>2022-07-31T16:05:35.886Z</time>
      </trkpt>
      <trkpt lat="43.6629" lon="1.45353">
        <ele>194.912933</ele>
        <time>2022-07-31T16:05:37.895Z</time>
      </trkpt>
      <trkpt lat="43.66284" lon="1.45367">
        <ele>194.917214</ele>
        <time>2022-07-31T16:05:39.887Z</time>
      </trkpt>
      <trkpt lat="43.66278" lon="1.45382">
        <ele>194.921478</ele>
        <time>2022-07-31T16:05:41.868Z</time>
      </trkpt>
      <trkpt lat="43.66273" lon="1.45397">
        <ele>194.925804</ele>
        <time>2022-07-31T16:05:43.864Z</time>
      </trkpt>
      <trkpt lat="43.66268" lon="1.45413">
        <ele>194.930288</ele>
        <time>2022-07-31T16:05:45.889Z</time>
      </trkpt>
      <trkpt lat="43.66264" lon="1.45429">
        <ele>194.934632</ele>
        <time>2022-07-31T16:05:47.875Z</time>
      </trkpt>
      <trkpt lat="43.66261" lon="1.45444">
        <ele>194.938617</ele>
        <time>2022-07-31T16:05:49.880Z</time>
      </trkpt>
      <trkpt lat="43.66258" lon="1.45458">
        <ele>194.942602</ele>
        <time>2022-07-31T16:05:51.891Z</time>
      </trkpt>
      <trkpt lat="43.66255" lon="1.45472">
        <ele>194.946265</ele>
        <time>2022-07-31T16:05:53.864Z</time>
      </trkpt>
      <trkpt lat="43.6625" lon="1.45487">
        <ele>194.950424</ele>
        <time>2022-07-31T16:05:55.863Z</time>
      </trkpt>
      <trkpt lat="43.66246" lon="1.45502">
        <ele>194.954626</ele>
        <time>2022-07-31T16:05:57.853Z</time>
      </trkpt>
      <trkpt lat="43.66241" lon="1.45518">
        <ele>194.95897</ele>
        <time>2022-07-31T16:05:59.839Z</time>
      </trkpt>
      <trkpt lat="43.66237" lon="1.45533">
        <ele>194.963216</ele>
        <time>2022-07-31T16:06:01.849Z</time>
      </trkpt>
      <trkpt lat="43.66232" lon="1.45549">
        <ele>194.96754</ele>
        <time>2022-07-31T16:06:03.894Z</time>
      </trkpt>
      <trkpt lat="43.66228" lon="1.45564">
        <ele>194.972447</ele>
        <time>2022-07-31T16:06:05.885Z</time>
      </trkpt>
      <trkpt lat="43.66224" lon="1.45578">
        <ele>194.977293</ele>
        <time>2022-07-31T16:06:07.862Z</time>
      </trkpt>
      <trkpt lat="43.66219" lon="1.45592">
        <ele>194.982353</ele>
        <time>2022-07-31T16:06:09.867Z</time>
      </trkpt>
      <trkpt lat="43.66216" lon="1.45607">
        <ele>194.987531</ele>
        <time>2022-07-31T16:06:11.884Z</time>
      </trkpt>
      <trkpt lat="43.6621" lon="1.45622">
        <ele>194.992765</ele>
        <time>2022-07-31T16:06:13.879Z</time>
      </trkpt>
      <trkpt lat="43.66201" lon="1.45632">
        <ele>194.998042</ele>
        <time>2022-07-31T16:06:15.882Z</time>
      </trkpt>
      <trkpt lat="43.6619" lon="1.45629">
        <ele>195.003166</ele>
        <time>2022-07-31T16:06:17.853Z</time>
      </trkpt>
      <trkpt lat="43.66182" lon="1.45617">
        <ele>195.008506</ele>
        <time>2022-07-31T16:06:19.885Z</time>
      </trkpt>
      <trkpt lat="43.66173" lon="1.45605">
        <ele>195.013843</ele>
        <time>2022-07-31T16:06:21.867Z</time>
      </trkpt>
      <trkpt lat="43.66167" lon="1.45594">
        <ele>195.018584</ele>
        <time>2022-07-31T16:06:23.863Z</time>
      </trkpt>
      <trkpt lat="43.66157" lon="1.45583">
        <ele>195.023909</ele>
        <time>2022-07-31T16:06:26.869Z</time>
      </trkpt>
      <trkpt lat="43.66149" lon="1.45577">
        <ele>195.028176</ele>
        <time>2022-07-31T16:06:28.881Z</time>
      </trkpt>
      <trkpt lat="43.6614" lon="1.45568">
        <ele>195.033262</ele>
        <time>2022-07-31T16:06:30.880Z</time>
      </trkpt>
      <trkpt lat="43.66131" lon="1.45561">
        <ele>195.037925</ele>
        <time>2022-07-31T16:06:32.863Z</time>
      </trkpt>
      <trkpt lat="43.66122" lon="1.45554">
        <ele>195.04234</ele>
        <time>2022-07-31T16:06:34.873Z</time>
      </trkpt>
      <trkpt lat="43.66114" lon="1.45547">
        <ele>195.046723</ele>
        <time>2022-07-31T16:06:36.837Z</time>
      </trkpt>
      <trkpt lat="43.66104" lon="1.45541">
        <ele>195.166392</ele>
        <time>2022-07-31T16:06:38.867Z</time>
      </trkpt>
      <trkpt lat="43.66093" lon="1.45535">
        <ele>195.391865</ele>
        <time>2022-07-31T16:06:40.864Z</time>
      </trkpt>
      <trkpt lat="43.66083" lon="1.4553">
        <ele>195.618144</ele>
        <time>2022-07-31T16:06:42.860Z</time>
      </trkpt>
      <trkpt lat="43.66072" lon="1.45534">
        <ele>195.844572</ele>
        <time>2022-07-31T16:06:44.840Z</time>
      </trkpt>
      <trkpt lat="43.66061" lon="1.45532">
        <ele>196.059687</ele>
        <time>2022-07-31T16:06:46.843Z</time>
      </trkpt>
      <trkpt lat="43.6605" lon="1.45526">
        <ele>196.291598</ele>
        <time>2022-07-31T16:06:48.850Z</time>
      </trkpt>
      <trkpt lat="43.6604" lon="1.45519">
        <ele>196.526482</ele>
        <time>2022-07-31T16:06:50.844Z</time>
      </trkpt>
      <trkpt lat="43.66029" lon="1.45512">
        <ele>196.762158</ele>
        <time>2022-07-31T16:06:52.823Z</time>
      </trkpt>
      <trkpt lat="43.6602" lon="1.45505">
        <ele>196.967531</ele>
        <time>2022-07-31T16:06:58.878Z</time>
      </trkpt>
      <trkpt lat="43.6601" lon="1.45497">
        <ele>197.201833</ele>
        <time>2022-07-31T16:07:01.856Z</time>
      </trkpt>
      <trkpt lat="43.66" lon="1.4549">
        <ele>197.421797</ele>
        <time>2022-07-31T16:07:03.854Z</time>
      </trkpt>
      <trkpt lat="43.6599" lon="1.45485">
        <ele>197.64146</ele>
        <time>2022-07-31T16:07:05.857Z</time>
      </trkpt>
      <trkpt lat="43.6598" lon="1.45479">
        <ele>197.859259</ele>
        <time>2022-07-31T16:07:07.856Z</time>
      </trkpt>
      <trkpt lat="43.65972" lon="1.45466">
        <ele>198.102524</ele>
        <time>2022-07-31T16:07:09.860Z</time>
      </trkpt>
      <trkpt lat="43.65962" lon="1.45455">
        <ele>198.34909</ele>
        <time>2022-07-31T16:07:11.845Z</time>
      </trkpt>
      <trkpt lat="43.6595" lon="1.45453">
        <ele>198.60531</ele>
        <time>2022-07-31T16:07:13.838Z</time>
      </trkpt>
      <trkpt lat="43.65937" lon="1.45457">
        <ele>198.626246</ele>
        <time>2022-07-31T16:07:15.881Z</time>
      </trkpt>
      <trkpt lat="43.65925" lon="1.45465">
        <ele>198.615607</ele>
        <time>2022-07-31T16:07:17.837Z</time>
      </trkpt>
      <trkpt lat="43.65914" lon="1.4547">
        <ele>198.60662</ele>
        <time>2022-07-31T16:07:19.856Z</time>
      </trkpt>
      <trkpt lat="43.65902" lon="1.45472">
        <ele>198.596966</ele>
        <time>2022-07-31T16:07:21.875Z</time>
      </trkpt>
      <trkpt lat="43.6589" lon="1.45473">
        <ele>198.587454</ele>
        <time>2022-07-31T16:07:23.854Z</time>
      </trkpt>
      <trkpt lat="43.65877" lon="1.45475">
        <ele>198.577597</ele>
        <time>2022-07-31T16:07:25.856Z</time>
      </trkpt>
      <trkpt lat="43.65865" lon="1.45478">
        <ele>198.567614</ele>
        <time>2022-07-31T16:07:27.868Z</time>
      </trkpt>
      <trkpt lat="43.65853" lon="1.45481">
        <ele>198.55776</ele>
        <time>2022-07-31T16:07:29.866Z</time>
      </trkpt>
      <trkpt lat="43.6584" lon="1.45484">
        <ele>198.548011</ele>
        <time>2022-07-31T16:07:31.869Z</time>
      </trkpt>
      <trkpt lat="43.65829" lon="1.45487">
        <ele>198.538678</ele>
        <time>2022-07-31T16:07:33.853Z</time>
      </trkpt>
      <trkpt lat="43.65817" lon="1.45491">
        <ele>198.529105</ele>
        <time>2022-07-31T16:07:35.866Z</time>
      </trkpt>
      <trkpt lat="43.65805" lon="1.45496">
        <ele>198.519188</ele>
        <time>2022-07-31T16:07:37.866Z</time>
      </trkpt>
      <trkpt lat="43.65793" lon="1.45493">
        <ele>198.509621</ele>
        <time>2022-07-31T16:07:39.852Z</time>
      </trkpt>
      <trkpt lat="43.65781" lon="1.45488">
        <ele>198.499531</ele>
        <time>2022-07-31T16:07:41.866Z</time>
      </trkpt>
      <trkpt lat="43.65768" lon="1.45484">
        <ele>198.440665</ele>
        <time>2022-07-31T16:07:43.846Z</time>
      </trkpt>
      <trkpt lat="43.65756" lon="1.45482">
        <ele>198.316068</ele>
        <time>2022-07-31T16:07:45.851Z</time>
      </trkpt>
      <trkpt lat="43.65743" lon="1.45478">
        <ele>198.179488</ele>
        <time>2022-07-31T16:07:47.867Z</time>
      </trkpt>
      <trkpt lat="43.65732" lon="1.45476">
        <ele>198.064905</ele>
        <time>2022-07-31T16:07:49.862Z</time>
      </trkpt>
      <trkpt lat="43.65721" lon="1.45474">
        <ele>197.945143</ele>
        <time>2022-07-31T16:07:51.858Z</time>
      </trkpt>
      <trkpt lat="43.65708" lon="1.45468">
        <ele>197.808937</ele>
        <time>2022-07-31T16:07:53.845Z</time>
      </trkpt>
      <trkpt lat="43.65695" lon="1.45464">
        <ele>197.66917</ele>
        <time>2022-07-31T16:07:55.843Z</time>
      </trkpt>
      <trkpt lat="43.65682" lon="1.45459">
        <ele>197.535566</ele>
        <time>2022-07-31T16:07:57.908Z</time>
      </trkpt>
      <trkpt lat="43.65669" lon="1.45456">
        <ele>197.402511</ele>
        <time>2022-07-31T16:07:59.831Z</time>
      </trkpt>
      <trkpt lat="43.65657" lon="1.45452">
        <ele>197.270258</ele>
        <time>2022-07-31T16:08:01.840Z</time>
      </trkpt>
      <trkpt lat="43.65645" lon="1.45447">
        <ele>197.137845</ele>
        <time>2022-07-31T16:08:03.838Z</time>
      </trkpt>
      <trkpt lat="43.65633" lon="1.45441">
        <ele>197.00925</ele>
        <time>2022-07-31T16:08:05.867Z</time>
      </trkpt>
      <trkpt lat="43.65621" lon="1.45435">
        <ele>196.877977</ele>
        <time>2022-07-31T16:08:07.843Z</time>
      </trkpt>
      <trkpt lat="43.65609" lon="1.45429">
        <ele>196.751242</ele>
        <time>2022-07-31T16:08:09.869Z</time>
      </trkpt>
      <trkpt lat="43.65598" lon="1.45422">
        <ele>196.649869</ele>
        <time>2022-07-31T16:08:11.857Z</time>
      </trkpt>
      <trkpt lat="43.65586" lon="1.45418">
        <ele>196.666793</ele>
        <time>2022-07-31T16:08:13.850Z</time>
      </trkpt>
      <trkpt lat="43.65574" lon="1.45414">
        <ele>196.683935</ele>
        <time>2022-07-31T16:08:15.860Z</time>
      </trkpt>
      <trkpt lat="43.65561" lon="1.45411">
        <ele>196.70099</ele>
        <time>2022-07-31T16:08:17.871Z</time>
      </trkpt>
      <trkpt lat="43.65549" lon="1.45407">
        <ele>196.717999</ele>
        <time>2022-07-31T16:08:19.871Z</time>
      </trkpt>
      <trkpt lat="43.65537" lon="1.45402">
        <ele>196.735211</ele>
        <time>2022-07-31T16:08:21.858Z</time>
      </trkpt>
      <trkpt lat="43.65526" lon="1.45398">
        <ele>196.751476</ele>
        <time>2022-07-31T16:08:23.850Z</time>
      </trkpt>
      <trkpt lat="43.65514" lon="1.45393">
        <ele>196.768291</ele>
        <time>2022-07-31T16:08:25.840Z</time>
      </trkpt>
      <trkpt lat="43.65502" lon="1.45389">
        <ele>196.785058</ele>
        <time>2022-07-31T16:08:27.862Z</time>
      </trkpt>
      <trkpt lat="43.6549" lon="1.45385">
        <ele>196.801925</ele>
        <time>2022-07-31T16:08:29.840Z</time>
      </trkpt>
      <trkpt lat="43.65478" lon="1.45379">
        <ele>196.818659</ele>
        <time>2022-07-31T16:08:31.850Z</time>
      </trkpt>
      <trkpt lat="43.65467" lon="1.45374">
        <ele>196.834876</ele>
        <time>2022-07-31T16:08:33.840Z</time>
      </trkpt>
      <trkpt lat="43.65456" lon="1.4537">
        <ele>196.850153</ele>
        <time>2022-07-31T16:08:35.850Z</time>
      </trkpt>
      <trkpt lat="43.65446" lon="1.45367">
        <ele>196.864365</ele>
        <time>2022-07-31T16:08:37.855Z</time>
      </trkpt>
      <trkpt lat="43.65436" lon="1.45358">
        <ele>196.880898</ele>
        <time>2022-07-31T16:08:40.866Z</time>
      </trkpt>
      <trkpt lat="43.6544" lon="1.45344">
        <ele>196.869111</ele>
        <time>2022-07-31T16:08:42.860Z</time>
      </trkpt>
      <trkpt lat="43.6545" lon="1.45333">
        <ele>196.735749</ele>
        <time>2022-07-31T16:08:44.860Z</time>
      </trkpt>
      <trkpt lat="43.65459" lon="1.45322">
        <ele>196.60099</ele>
        <time>2022-07-31T16:08:46.859Z</time>
      </trkpt>
      <trkpt lat="43.65469" lon="1.45312">
        <ele>196.468886</ele>
        <time>2022-07-31T16:08:48.846Z</time>
      </trkpt>
      <trkpt lat="43.65479" lon="1.45301">
        <ele>196.337503</ele>
        <time>2022-07-31T16:08:50.864Z</time>
      </trkpt>
      <trkpt lat="43.65487" lon="1.45289">
        <ele>196.20541</ele>
        <time>2022-07-31T16:08:52.829Z</time>
      </trkpt>
      <trkpt lat="43.65494" lon="1.45275">
        <ele>196.076731</ele>
        <time>2022-07-31T16:08:54.857Z</time>
      </trkpt>
      <trkpt lat="43.655" lon="1.4526">
        <ele>195.941696</ele>
        <time>2022-07-31T16:08:56.835Z</time>
      </trkpt>
      <trkpt lat="43.65511" lon="1.4525">
        <ele>195.804919</ele>
        <time>2022-07-31T16:08:58.865Z</time>
      </trkpt>
      <trkpt lat="43.65521" lon="1.45242">
        <ele>195.673821</ele>
        <time>2022-07-31T16:09:00.851Z</time>
      </trkpt>
      <trkpt lat="43.65531" lon="1.45232">
        <ele>195.544573</ele>
        <time>2022-07-31T16:09:02.820Z</time>
      </trkpt>
      <trkpt lat="43.65541" lon="1.45222">
        <ele>195.411142</ele>
        <time>2022-07-31T16:09:04.859Z</time>
      </trkpt>
      <trkpt lat="43.65549" lon="1.4521">
        <ele>195.28226</ele>
        <time>2022-07-31T16:09:06.885Z</time>
      </trkpt>
      <trkpt lat="43.65559" lon="1.452">
        <ele>195.156416</ele>
        <time>2022-07-31T16:09:08.866Z</time>
      </trkpt>
      <trkpt lat="43.65568" lon="1.45191">
        <ele>195.029318</ele>
        <time>2022-07-31T16:09:10.845Z</time>
      </trkpt>
      <trkpt lat="43.65577" lon="1.45181">
        <ele>194.982124</ele>
        <time>2022-07-31T16:09:12.877Z</time>
      </trkpt>
      <trkpt lat="43.65586" lon="1.45169">
        <ele>195.039047</ele>
        <time>2022-07-31T16:09:14.850Z</time>
      </trkpt>
      <trkpt lat="43.65595" lon="1.45159">
        <ele>195.096898</ele>
        <time>2022-07-31T16:09:16.850Z</time>
      </trkpt>
      <trkpt lat="43.65604" lon="1.45148">
        <ele>195.157338</ele>
        <time>2022-07-31T16:09:18.867Z</time>
      </trkpt>
      <trkpt lat="43.65607" lon="1.45133">
        <ele>195.21441</ele>
        <time>2022-07-31T16:09:20.859Z</time>
      </trkpt>
      <trkpt lat="43.65603" lon="1.45117">
        <ele>195.27555</ele>
        <time>2022-07-31T16:09:22.879Z</time>
      </trkpt>
      <trkpt lat="43.65594" lon="1.45105">
        <ele>195.334778</ele>
        <time>2022-07-31T16:09:24.883Z</time>
      </trkpt>
      <trkpt lat="43.65586" lon="1.45093">
        <ele>195.39306</ele>
        <time>2022-07-31T16:09:26.876Z</time>
      </trkpt>
      <trkpt lat="43.65578" lon="1.45082">
        <ele>195.450141</ele>
        <time>2022-07-31T16:09:28.878Z</time>
      </trkpt>
      <trkpt lat="43.65571" lon="1.45072">
        <ele>195.499526</ele>
        <time>2022-07-31T16:09:30.856Z</time>
      </trkpt>
      <trkpt lat="43.65564" lon="1.45063">
        <ele>195.548073</ele>
        <time>2022-07-31T16:09:32.858Z</time>
      </trkpt>
      <trkpt lat="43.65556" lon="1.45052">
        <ele>195.599155</ele>
        <time>2022-07-31T16:09:34.861Z</time>
      </trkpt>
      <trkpt lat="43.65549" lon="1.45042">
        <ele>195.65402</ele>
        <time>2022-07-31T16:09:36.862Z</time>
      </trkpt>
      <trkpt lat="43.6554" lon="1.4503">
        <ele>195.711357</ele>
        <time>2022-07-31T16:09:38.861Z</time>
      </trkpt>
      <trkpt lat="43.65534" lon="1.45019">
        <ele>195.763549</ele>
        <time>2022-07-31T16:09:40.840Z</time>
      </trkpt>
      <trkpt lat="43.65526" lon="1.45011">
        <ele>195.813316</ele>
        <time>2022-07-31T16:09:42.832Z</time>
      </trkpt>
      <trkpt lat="43.65518" lon="1.44999">
        <ele>195.839057</ele>
        <time>2022-07-31T16:09:44.844Z</time>
      </trkpt>
      <trkpt lat="43.6551" lon="1.44987">
        <ele>195.822965</ele>
        <time>2022-07-31T16:09:46.843Z</time>
      </trkpt>
      <trkpt lat="43.65502" lon="1.44975">
        <ele>195.80653</ele>
        <time>2022-07-31T16:09:48.862Z</time>
      </trkpt>
      <trkpt lat="43.65494" lon="1.44963">
        <ele>195.790213</ele>
        <time>2022-07-31T16:09:50.835Z</time>
      </trkpt>
      <trkpt lat="43.65485" lon="1.4495">
        <ele>195.773483</ele>
        <time>2022-07-31T16:09:52.865Z</time>
      </trkpt>
      <trkpt lat="43.65478" lon="1.44937">
        <ele>195.75697</ele>
        <time>2022-07-31T16:09:54.860Z</time>
      </trkpt>
      <trkpt lat="43.65477" lon="1.44921">
        <ele>195.741132</ele>
        <time>2022-07-31T16:09:56.844Z</time>
      </trkpt>
      <trkpt lat="43.65481" lon="1.44906">
        <ele>195.725412</ele>
        <time>2022-07-31T16:09:58.855Z</time>
      </trkpt>
      <trkpt lat="43.65488" lon="1.44891">
        <ele>195.708046</ele>
        <time>2022-07-31T16:10:00.866Z</time>
      </trkpt>
      <trkpt lat="43.65495" lon="1.44878">
        <ele>195.69156</ele>
        <time>2022-07-31T16:10:02.868Z</time>
      </trkpt>
      <trkpt lat="43.65502" lon="1.44864">
        <ele>195.675231</ele>
        <time>2022-07-31T16:10:04.851Z</time>
      </trkpt>
      <trkpt lat="43.65508" lon="1.4485">
        <ele>195.658984</ele>
        <time>2022-07-31T16:10:06.860Z</time>
      </trkpt>
      <trkpt lat="43.65512" lon="1.44835">
        <ele>195.643218</ele>
        <time>2022-07-31T16:10:08.843Z</time>
      </trkpt>
      <trkpt lat="43.65518" lon="1.44821">
        <ele>195.627463</ele>
        <time>2022-07-31T16:10:10.826Z</time>
      </trkpt>
      <trkpt lat="43.65526" lon="1.4481">
        <ele>195.611382</ele>
        <time>2022-07-31T16:10:12.845Z</time>
      </trkpt>
      <trkpt lat="43.65535" lon="1.44799">
        <ele>195.601017</ele>
        <time>2022-07-31T16:10:14.856Z</time>
      </trkpt>
      <trkpt lat="43.65543" lon="1.44786">
        <ele>195.601017</ele>
        <time>2022-07-31T16:10:16.834Z</time>
      </trkpt>
      <trkpt lat="43.6555" lon="1.44772">
        <ele>195.601017</ele>
        <time>2022-07-31T16:10:18.852Z</time>
      </trkpt>
      <trkpt lat="43.65557" lon="1.44758">
        <ele>195.601017</ele>
        <time>2022-07-31T16:10:20.850Z</time>
      </trkpt>
      <trkpt lat="43.65564" lon="1.44744">
        <ele>195.601017</ele>
        <time>2022-07-31T16:10:22.853Z</time>
      </trkpt>
      <trkpt lat="43.65571" lon="1.44731">
        <ele>195.601017</ele>
        <time>2022-07-31T16:10:24.871Z</time>
      </trkpt>
      <trkpt lat="43.65578" lon="1.44717">
        <ele>195.601017</ele>
        <time>2022-07-31T16:10:26.865Z</time>
      </trkpt>
      <trkpt lat="43.65585" lon="1.44703">
        <ele>195.601017</ele>
        <time>2022-07-31T16:10:28.882Z</time>
      </trkpt>
      <trkpt lat="43.65593" lon="1.44689">
        <ele>195.601017</ele>
        <time>2022-07-31T16:10:30.842Z</time>
      </trkpt>
      <trkpt lat="43.65599" lon="1.44676">
        <ele>195.601017</ele>
        <time>2022-07-31T16:10:32.847Z</time>
      </trkpt>
      <trkpt lat="43.65606" lon="1.44663">
        <ele>195.601017</ele>
        <time>2022-07-31T16:10:34.843Z</time>
      </trkpt>
      <trkpt lat="43.65607" lon="1.44648">
        <ele>195.601017</ele>
        <time>2022-07-31T16:10:37.836Z</time>
      </trkpt>
      <trkpt lat="43.65598" lon="1.44638">
        <ele>195.601017</ele>
        <time>2022-07-31T16:10:41.866Z</time>
      </trkpt>
      <trkpt lat="43.65587" lon="1.44632">
        <ele>195.601017</ele>
        <time>2022-07-31T16:10:44.846Z</time>
      </trkpt>
      <trkpt lat="43.65579" lon="1.44624">
        <ele>195.601017</ele>
        <time>2022-07-31T16:10:47.846Z</time>
      </trkpt>
      <trkpt lat="43.65576" lon="1.44611">
        <ele>195.601017</ele>
        <time>2022-07-31T16:10:51.840Z</time>
      </trkpt>
      <trkpt lat="43.65576" lon="1.44607">
        <ele>195.601017</ele>
        <time>2022-07-31T16:11:00.682Z</time>
      </trkpt>
    </trkseg>
  </trk>
</gpx>